<?xml version='1.0' encoding='UTF-8'?><gpx version="1.1" creator="JPX - https://github.com/jenetics/jpx" xmlns="http://www.topografix.com/GPX/1/1"><trk><trkseg><trkpt lat="40.7207381" lon="14.8736769"><ele>351.0</ele><time>2026-04-04T13:23:19.935Z</time></trkpt><trkpt lat="40.7206893" lon="14.8735924"><ele>351.0</ele><time>2026-04-04T13:23:30.96Z</time></trkpt><trkpt lat="40.7207532" lon="14.8735528"><ele>351.0</ele><time>2026-04-04T13:23:32.955Z</time></trkpt><trkpt lat="40.7208431" lon="14.873639"><ele>351.0</ele><time>2026-04-04T13:23:34.95Z</time></trkpt><trkpt lat="40.7208823" lon="14.8737044"><ele>351.0</ele><time>2026-04-04T13:23:36.97Z</time></trkpt><trkpt lat="40.7208278" lon="14.8736282"><ele>351.0</ele><time>2026-04-04T13:25:10.965Z</time></trkpt><trkpt lat="40.7207015" lon="14.8737439"><ele>351.0</ele><time>2026-04-04T13:28:49.987Z</time></trkpt><trkpt lat="40.7204873" lon="14.8740435"><ele>351.0</ele><time>2026-04-04T13:28:54.967Z</time></trkpt><trkpt lat="40.7203353" lon="14.8742489"><ele>349.8</ele><time>2026-04-04T13:28:55.961Z</time></trkpt><trkpt lat="40.7202448" lon="14.8743852"><ele>348.6</ele><time>2026-04-04T13:28:56.966Z</time></trkpt><trkpt lat="40.7201784" lon="14.8744989"><ele>347.4</ele><time>2026-04-04T13:28:57.961Z</time></trkpt><trkpt lat="40.7201191" lon="14.8746178"><ele>346.2</ele><time>2026-04-04T13:28:58.967Z</time></trkpt><trkpt lat="40.7200809" lon="14.8747156"><ele>345.0</ele><time>2026-04-04T13:28:59.967Z</time></trkpt><trkpt lat="40.7200489" lon="14.8747904"><ele>341.8</ele><time>2026-04-04T13:29:00.971Z</time></trkpt><trkpt lat="40.7200008" lon="14.8748616"><ele>338.6</ele><time>2026-04-04T13:29:01.967Z</time></trkpt><trkpt lat="40.7199471" lon="14.8749228"><ele>335.4</ele><time>2026-04-04T13:29:03.966Z</time></trkpt><trkpt lat="40.7199169" lon="14.8748087"><ele>332.2</ele><time>2026-04-04T13:29:10.966Z</time></trkpt><trkpt lat="40.7199444" lon="14.874711"><ele>329.0</ele><time>2026-04-04T13:29:13.974Z</time></trkpt><trkpt lat="40.7200805" lon="14.8745369"><ele>329.0</ele><time>2026-04-04T13:29:16.963Z</time></trkpt><trkpt lat="40.7201439" lon="14.8744579"><ele>329.0</ele><time>2026-04-04T13:29:17.963Z</time></trkpt><trkpt lat="40.7202107" lon="14.8743894"><ele>329.0</ele><time>2026-04-04T13:29:19.999Z</time></trkpt><trkpt lat="40.720263" lon="14.8743384"><ele>329.0</ele><time>2026-04-04T13:29:21.953Z</time></trkpt><trkpt lat="40.7203108" lon="14.874266"><ele>329.0</ele><time>2026-04-04T13:29:24.972Z</time></trkpt><trkpt lat="40.7203647" lon="14.8741965"><ele>329.0</ele><time>2026-04-04T13:29:26.966Z</time></trkpt><trkpt lat="40.7204986" lon="14.8740412"><ele>336.33333333333337</ele><time>2026-04-04T13:29:28.092Z</time></trkpt><trkpt lat="40.7204362" lon="14.8741727"><ele>343.6666666666667</ele><time>2026-04-04T13:29:29.379Z</time></trkpt><trkpt lat="40.7206229" lon="14.8739243"><ele>351.0</ele><time>2026-04-04T13:29:30.336Z</time></trkpt><trkpt lat="40.7207065" lon="14.8738001"><ele>351.00000000000006</ele><time>2026-04-04T13:29:31.342Z</time></trkpt><trkpt lat="40.7207718" lon="14.8737193"><ele>351.0</ele><time>2026-04-04T13:29:33.977Z</time></trkpt><trkpt lat="40.7208276" lon="14.8736599"><ele>351.0</ele><time>2026-04-04T13:29:36.973Z</time></trkpt><trkpt lat="40.7207636" lon="14.8736506"><ele>351.0</ele><time>2026-04-04T13:31:00.99Z</time></trkpt><trkpt lat="40.7206931" lon="14.8736615"><ele>351.0</ele><time>2026-04-04T13:35:14.971Z</time></trkpt><trkpt lat="40.7206969" lon="14.8737491"><ele>351.00000000000006</ele><time>2026-04-04T13:35:18.966Z</time></trkpt><trkpt lat="40.7207543" lon="14.87371"><ele>351.0</ele><time>2026-04-04T13:35:20.996Z</time></trkpt><trkpt lat="40.7208102" lon="14.8736543"><ele>351.0</ele><time>2026-04-04T13:35:24.969Z</time></trkpt><trkpt lat="40.7207037" lon="14.873574"><ele>351.0</ele><time>2026-04-04T13:35:25.968Z</time></trkpt><trkpt lat="40.7206264" lon="14.8736424"><ele>351.0</ele><time>2026-04-04T13:36:04.966Z</time></trkpt><trkpt lat="40.7206101" lon="14.8737463"><ele>351.0</ele><time>2026-04-04T13:36:06.974Z</time></trkpt><trkpt lat="40.7206356" lon="14.8738456"><ele>351.0</ele><time>2026-04-04T13:36:07.975Z</time></trkpt><trkpt lat="40.7207203" lon="14.873946"><ele>351.0</ele><time>2026-04-04T13:36:09.951Z</time></trkpt><trkpt lat="40.7208021" lon="14.8739553"><ele>351.0</ele><time>2026-04-04T13:36:10.957Z</time></trkpt><trkpt lat="40.7208882" lon="14.8739515"><ele>351.0</ele><time>2026-04-04T13:36:12.022Z</time></trkpt><trkpt lat="40.7209647" lon="14.8739392"><ele>351.0</ele><time>2026-04-04T13:36:13.038Z</time></trkpt><trkpt lat="40.7210442" lon="14.8739176"><ele>351.0</ele><time>2026-04-04T13:36:13.94Z</time></trkpt><trkpt lat="40.721137" lon="14.8738922"><ele>351.0</ele><time>2026-04-04T13:36:14.965Z</time></trkpt><trkpt lat="40.7212367" lon="14.8738614"><ele>353.6</ele><time>2026-04-04T13:36:15.96Z</time></trkpt><trkpt lat="40.7213347" lon="14.8738248"><ele>356.20000000000005</ele><time>2026-04-04T13:36:16.959Z</time></trkpt><trkpt lat="40.7214264" lon="14.8738037"><ele>358.79999999999995</ele><time>2026-04-04T13:36:17.973Z</time></trkpt><trkpt lat="40.7215032" lon="14.8737829"><ele>361.4</ele><time>2026-04-04T13:36:18.957Z</time></trkpt><trkpt lat="40.7215657" lon="14.8737598"><ele>364.0</ele><time>2026-04-04T13:36:20.038Z</time></trkpt><trkpt lat="40.721679" lon="14.8738435"><ele>364.0</ele><time>2026-04-04T13:36:21.963Z</time></trkpt><trkpt lat="40.7217576" lon="14.8739266"><ele>364.0</ele><time>2026-04-04T13:36:22.97Z</time></trkpt><trkpt lat="40.7218605" lon="14.8739878"><ele>364.0</ele><time>2026-04-04T13:36:23.966Z</time></trkpt><trkpt lat="40.721971" lon="14.8740187"><ele>364.0</ele><time>2026-04-04T13:36:24.956Z</time></trkpt><trkpt lat="40.7220799" lon="14.8740275"><ele>364.0</ele><time>2026-04-04T13:36:25.969Z</time></trkpt><trkpt lat="40.7221894" lon="14.8740392"><ele>366.0</ele><time>2026-04-04T13:36:26.955Z</time></trkpt><trkpt lat="40.7222978" lon="14.8740374"><ele>368.0</ele><time>2026-04-04T13:36:27.97Z</time></trkpt><trkpt lat="40.7224025" lon="14.874028"><ele>370.0</ele><time>2026-04-04T13:36:28.967Z</time></trkpt><trkpt lat="40.7225078" lon="14.874002"><ele>372.0</ele><time>2026-04-04T13:36:29.969Z</time></trkpt><trkpt lat="40.7226091" lon="14.873965"><ele>374.0</ele><time>2026-04-04T13:36:30.974Z</time></trkpt><trkpt lat="40.7227152" lon="14.8739156"><ele>376.75</ele><time>2026-04-04T13:36:31.975Z</time></trkpt><trkpt lat="40.7228309" lon="14.8738541"><ele>379.5</ele><time>2026-04-04T13:36:32.973Z</time></trkpt><trkpt lat="40.7229479" lon="14.8737916"><ele>382.25</ele><time>2026-04-04T13:36:33.978Z</time></trkpt><trkpt lat="40.7230574" lon="14.8737241"><ele>385.0</ele><time>2026-04-04T13:36:34.972Z</time></trkpt><trkpt lat="40.7231611" lon="14.8736389"><ele>385.0</ele><time>2026-04-04T13:36:35.97Z</time></trkpt><trkpt lat="40.7232473" lon="14.8735289"><ele>385.0</ele><time>2026-04-04T13:36:36.969Z</time></trkpt><trkpt lat="40.7233093" lon="14.8734147"><ele>385.0</ele><time>2026-04-04T13:36:37.969Z</time></trkpt><trkpt lat="40.7233738" lon="14.8732984"><ele>385.0</ele><time>2026-04-04T13:36:38.967Z</time></trkpt><trkpt lat="40.7234328" lon="14.8731741"><ele>385.0</ele><time>2026-04-04T13:36:39.982Z</time></trkpt><trkpt lat="40.7234872" lon="14.8730489"><ele>386.75</ele><time>2026-04-04T13:36:40.962Z</time></trkpt><trkpt lat="40.723534" lon="14.8729115"><ele>388.5</ele><time>2026-04-04T13:36:41.97Z</time></trkpt><trkpt lat="40.7235734" lon="14.8727551"><ele>390.25</ele><time>2026-04-04T13:36:42.971Z</time></trkpt><trkpt lat="40.7236128" lon="14.8726062"><ele>392.0</ele><time>2026-04-04T13:36:43.953Z</time></trkpt><trkpt lat="40.723661" lon="14.8725036"><ele>395.8333333333333</ele><time>2026-04-04T13:36:44.969Z</time></trkpt><trkpt lat="40.7237199" lon="14.8724434"><ele>399.66666666666663</ele><time>2026-04-04T13:36:45.969Z</time></trkpt><trkpt lat="40.7237893" lon="14.8724058"><ele>403.5</ele><time>2026-04-04T13:36:46.97Z</time></trkpt><trkpt lat="40.7238698" lon="14.8723741"><ele>407.33333333333337</ele><time>2026-04-04T13:36:47.966Z</time></trkpt><trkpt lat="40.7239575" lon="14.8723391"><ele>411.1666666666667</ele><time>2026-04-04T13:36:48.972Z</time></trkpt><trkpt lat="40.7240355" lon="14.8723079"><ele>415.0</ele><time>2026-04-04T13:36:49.956Z</time></trkpt><trkpt lat="40.7241069" lon="14.8722767"><ele>415.00000000000006</ele><time>2026-04-04T13:36:50.961Z</time></trkpt><trkpt lat="40.7241952" lon="14.8722315"><ele>415.0</ele><time>2026-04-04T13:36:52.963Z</time></trkpt><trkpt lat="40.7242481" lon="14.8723003"><ele>415.0</ele><time>2026-04-04T13:36:57.981Z</time></trkpt><trkpt lat="40.7242639" lon="14.8721953"><ele>415.0</ele><time>2026-04-04T13:37:01.987Z</time></trkpt><trkpt lat="40.7242737" lon="14.8720753"><ele>415.00000000000006</ele><time>2026-04-04T13:37:02.97Z</time></trkpt><trkpt lat="40.7242661" lon="14.8719793"><ele>415.0</ele><time>2026-04-04T13:37:03.977Z</time></trkpt><trkpt lat="40.7242624" lon="14.8718823"><ele>415.8</ele><time>2026-04-04T13:37:04.978Z</time></trkpt><trkpt lat="40.7242486" lon="14.8717671"><ele>416.6</ele><time>2026-04-04T13:37:05.968Z</time></trkpt><trkpt lat="40.7242592" lon="14.8716023"><ele>417.4</ele><time>2026-04-04T13:37:07.977Z</time></trkpt><trkpt lat="40.724306" lon="14.8715204"><ele>418.2</ele><time>2026-04-04T13:37:08.975Z</time></trkpt><trkpt lat="40.7243684" lon="14.8714307"><ele>419.0</ele><time>2026-04-04T13:37:09.965Z</time></trkpt><trkpt lat="40.7244548" lon="14.8713635"><ele>421.3333333333333</ele><time>2026-04-04T13:37:10.985Z</time></trkpt><trkpt lat="40.7245403" lon="14.8712918"><ele>423.66666666666663</ele><time>2026-04-04T13:37:11.974Z</time></trkpt><trkpt lat="40.7246169" lon="14.8712357"><ele>426.0</ele><time>2026-04-04T13:37:12.963Z</time></trkpt><trkpt lat="40.7246797" lon="14.8711178"><ele>428.33333333333337</ele><time>2026-04-04T13:37:14.974Z</time></trkpt><trkpt lat="40.7246772" lon="14.8710268"><ele>430.6666666666667</ele><time>2026-04-04T13:37:15.98Z</time></trkpt><trkpt lat="40.7246346" lon="14.870953"><ele>433.0</ele><time>2026-04-04T13:37:16.962Z</time></trkpt><trkpt lat="40.7245413" lon="14.8709006"><ele>433.0</ele><time>2026-04-04T13:37:18.973Z</time></trkpt><trkpt lat="40.7246279" lon="14.8708927"><ele>432.99999999999994</ele><time>2026-04-04T13:37:21.971Z</time></trkpt><trkpt lat="40.7247084" lon="14.8709317"><ele>432.99999999999994</ele><time>2026-04-04T13:37:22.961Z</time></trkpt><trkpt lat="40.7248086" lon="14.8709658"><ele>433.0</ele><time>2026-04-04T13:37:23.957Z</time></trkpt><trkpt lat="40.7249259" lon="14.8709981"><ele>433.0</ele><time>2026-04-04T13:37:24.969Z</time></trkpt><trkpt lat="40.7250556" lon="14.8710107"><ele>433.00000000000006</ele><time>2026-04-04T13:37:25.967Z</time></trkpt><trkpt lat="40.7251687" lon="14.8710335"><ele>433.0</ele><time>2026-04-04T13:37:26.977Z</time></trkpt><trkpt lat="40.7252461" lon="14.8710631"><ele>433.0</ele><time>2026-04-04T13:37:27.981Z</time></trkpt><trkpt lat="40.7253059" lon="14.871112"><ele>433.0</ele><time>2026-04-04T13:37:28.966Z</time></trkpt><trkpt lat="40.7253435" lon="14.8712108"><ele>433.00000000000006</ele><time>2026-04-04T13:37:29.964Z</time></trkpt><trkpt lat="40.7253717" lon="14.8713299"><ele>433.0</ele><time>2026-04-04T13:37:30.992Z</time></trkpt><trkpt lat="40.7254066" lon="14.8714469"><ele>438.2</ele><time>2026-04-04T13:37:31.972Z</time></trkpt><trkpt lat="40.7254534" lon="14.871568"><ele>443.4</ele><time>2026-04-04T13:37:32.966Z</time></trkpt><trkpt lat="40.7254996" lon="14.8717129"><ele>448.59999999999997</ele><time>2026-04-04T13:37:33.959Z</time></trkpt><trkpt lat="40.7255462" lon="14.8718591"><ele>453.79999999999995</ele><time>2026-04-04T13:37:34.969Z</time></trkpt><trkpt lat="40.7255961" lon="14.8719771"><ele>459.0</ele><time>2026-04-04T13:37:35.977Z</time></trkpt><trkpt lat="40.7256475" lon="14.8720599"><ele>460.2</ele><time>2026-04-04T13:37:36.957Z</time></trkpt><trkpt lat="40.7256854" lon="14.8721666"><ele>461.4</ele><time>2026-04-04T13:37:37.973Z</time></trkpt><trkpt lat="40.7257167" lon="14.8722975"><ele>462.6</ele><time>2026-04-04T13:37:38.965Z</time></trkpt><trkpt lat="40.725736" lon="14.8724322"><ele>463.8</ele><time>2026-04-04T13:37:39.98Z</time></trkpt><trkpt lat="40.7257476" lon="14.8725864"><ele>465.0</ele><time>2026-04-04T13:37:40.97Z</time></trkpt><trkpt lat="40.7257552" lon="14.8727449"><ele>464.5</ele><time>2026-04-04T13:37:41.966Z</time></trkpt><trkpt lat="40.7257724" lon="14.8729262"><ele>464.0</ele><time>2026-04-04T13:37:42.964Z</time></trkpt><trkpt lat="40.7258046" lon="14.8731098"><ele>463.5</ele><time>2026-04-04T13:37:43.967Z</time></trkpt><trkpt lat="40.725836" lon="14.8732905"><ele>463.0</ele><time>2026-04-04T13:37:44.967Z</time></trkpt><trkpt lat="40.725857" lon="14.8734787"><ele>463.0</ele><time>2026-04-04T13:37:45.963Z</time></trkpt><trkpt lat="40.725879" lon="14.8736777"><ele>463.0</ele><time>2026-04-04T13:37:46.97Z</time></trkpt><trkpt lat="40.7259076" lon="14.8738663"><ele>463.0</ele><time>2026-04-04T13:37:47.973Z</time></trkpt><trkpt lat="40.7259537" lon="14.8740323"><ele>463.0</ele><time>2026-04-04T13:37:48.975Z</time></trkpt><trkpt lat="40.7260087" lon="14.8741819"><ele>465.59999999999997</ele><time>2026-04-04T13:37:49.966Z</time></trkpt><trkpt lat="40.7260756" lon="14.8743157"><ele>468.19999999999993</ele><time>2026-04-04T13:37:50.984Z</time></trkpt><trkpt lat="40.7261561" lon="14.8744437"><ele>470.8</ele><time>2026-04-04T13:37:51.974Z</time></trkpt><trkpt lat="40.7262327" lon="14.8745472"><ele>473.4</ele><time>2026-04-04T13:37:52.973Z</time></trkpt><trkpt lat="40.7263049" lon="14.8746095"><ele>476.0</ele><time>2026-04-04T13:37:53.975Z</time></trkpt><trkpt lat="40.7263834" lon="14.874661"><ele>475.99999999999994</ele><time>2026-04-04T13:37:54.974Z</time></trkpt><trkpt lat="40.7264585" lon="14.8747118"><ele>476.0</ele><time>2026-04-04T13:37:55.976Z</time></trkpt><trkpt lat="40.7265414" lon="14.8747305"><ele>476.0</ele><time>2026-04-04T13:37:56.972Z</time></trkpt><trkpt lat="40.7266323" lon="14.8747029"><ele>476.0</ele><time>2026-04-04T13:37:57.973Z</time></trkpt><trkpt lat="40.7267232" lon="14.8746636"><ele>475.99999999999994</ele><time>2026-04-04T13:37:58.968Z</time></trkpt><trkpt lat="40.7268053" lon="14.8746222"><ele>476.0</ele><time>2026-04-04T13:38:00.067Z</time></trkpt><trkpt lat="40.7268788" lon="14.8745835"><ele>475.99999999999994</ele><time>2026-04-04T13:38:01.029Z</time></trkpt><trkpt lat="40.7269379" lon="14.8745533"><ele>476.0</ele><time>2026-04-04T13:38:02.035Z</time></trkpt><trkpt lat="40.7269009" lon="14.8744612"><ele>476.0</ele><time>2026-04-04T13:38:05.966Z</time></trkpt><trkpt lat="40.7268266" lon="14.8744105"><ele>476.0</ele><time>2026-04-04T13:38:08.974Z</time></trkpt><trkpt lat="40.7267649" lon="14.8743198"><ele>475.99999999999994</ele><time>2026-04-04T13:38:10.974Z</time></trkpt><trkpt lat="40.7267139" lon="14.8742056"><ele>476.0</ele><time>2026-04-04T13:38:12.97Z</time></trkpt><trkpt lat="40.7267792" lon="14.8741846"><ele>480.16666666666663</ele><time>2026-04-04T13:38:17.969Z</time></trkpt><trkpt lat="40.7268488" lon="14.8741816"><ele>484.3333333333333</ele><time>2026-04-04T13:38:18.974Z</time></trkpt><trkpt lat="40.7269223" lon="14.8741577"><ele>488.5</ele><time>2026-04-04T13:38:19.979Z</time></trkpt><trkpt lat="40.7269994" lon="14.8741217"><ele>492.66666666666663</ele><time>2026-04-04T13:38:20.947Z</time></trkpt><trkpt lat="40.7270918" lon="14.8740776"><ele>496.8333333333333</ele><time>2026-04-04T13:38:21.956Z</time></trkpt><trkpt lat="40.7271838" lon="14.8740052"><ele>501.0</ele><time>2026-04-04T13:38:22.965Z</time></trkpt><trkpt lat="40.727286" lon="14.8739216"><ele>501.66666666666663</ele><time>2026-04-04T13:38:23.973Z</time></trkpt><trkpt lat="40.7274112" lon="14.8738215"><ele>502.3333333333333</ele><time>2026-04-04T13:38:24.974Z</time></trkpt><trkpt lat="40.7275348" lon="14.8737011"><ele>503.0</ele><time>2026-04-04T13:38:25.968Z</time></trkpt><trkpt lat="40.7276389" lon="14.8735547"><ele>511.66666666666663</ele><time>2026-04-04T13:38:26.969Z</time></trkpt><trkpt lat="40.727744" lon="14.8734041"><ele>520.3333333333334</ele><time>2026-04-04T13:38:27.977Z</time></trkpt><trkpt lat="40.7278549" lon="14.8732513"><ele>529.0</ele><time>2026-04-04T13:38:28.968Z</time></trkpt><trkpt lat="40.7279601" lon="14.873107"><ele>529.0</ele><time>2026-04-04T13:38:29.967Z</time></trkpt><trkpt lat="40.7280666" lon="14.8729505"><ele>529.0</ele><time>2026-04-04T13:38:30.967Z</time></trkpt><trkpt lat="40.7281706" lon="14.872796"><ele>529.0</ele><time>2026-04-04T13:38:31.972Z</time></trkpt><trkpt lat="40.7282771" lon="14.8726351"><ele>536.0</ele><time>2026-04-04T13:38:33.059Z</time></trkpt><trkpt lat="40.7283904" lon="14.8724648"><ele>543.0</ele><time>2026-04-04T13:38:33.969Z</time></trkpt><trkpt lat="40.7285168" lon="14.8723022"><ele>550.0</ele><time>2026-04-04T13:38:34.973Z</time></trkpt><trkpt lat="40.7286508" lon="14.8721779"><ele>550.0</ele><time>2026-04-04T13:38:35.975Z</time></trkpt><trkpt lat="40.7287872" lon="14.8720542"><ele>550.0</ele><time>2026-04-04T13:38:36.968Z</time></trkpt><trkpt lat="40.7289164" lon="14.8719192"><ele>550.0</ele><time>2026-04-04T13:38:37.973Z</time></trkpt><trkpt lat="40.7290392" lon="14.871782"><ele>554.6666666666667</ele><time>2026-04-04T13:38:38.962Z</time></trkpt><trkpt lat="40.7291536" lon="14.8716457"><ele>559.3333333333334</ele><time>2026-04-04T13:38:40.058Z</time></trkpt><trkpt lat="40.7292667" lon="14.8715203"><ele>564.0</ele><time>2026-04-04T13:38:41.048Z</time></trkpt><trkpt lat="40.729393" lon="14.8714008"><ele>566.0</ele><time>2026-04-04T13:38:42.042Z</time></trkpt><trkpt lat="40.7295264" lon="14.8712949"><ele>568.0</ele><time>2026-04-04T13:38:43.049Z</time></trkpt><trkpt lat="40.7296585" lon="14.8711934"><ele>570.0</ele><time>2026-04-04T13:38:43.965Z</time></trkpt><trkpt lat="40.7298048" lon="14.871092"><ele>570.0</ele><time>2026-04-04T13:38:44.962Z</time></trkpt><trkpt lat="40.7299572" lon="14.8709983"><ele>570.0</ele><time>2026-04-04T13:38:45.954Z</time></trkpt><trkpt lat="40.7300996" lon="14.870908"><ele>570.0</ele><time>2026-04-04T13:38:47.053Z</time></trkpt><trkpt lat="40.7302261" lon="14.8708204"><ele>575.0</ele><time>2026-04-04T13:38:48.039Z</time></trkpt><trkpt lat="40.7303425" lon="14.8707554"><ele>580.0</ele><time>2026-04-04T13:38:48.968Z</time></trkpt><trkpt lat="40.7304495" lon="14.8707207"><ele>585.0</ele><time>2026-04-04T13:38:49.973Z</time></trkpt><trkpt lat="40.7305489" lon="14.8706943"><ele>590.0</ele><time>2026-04-04T13:38:50.957Z</time></trkpt><trkpt lat="40.7306503" lon="14.8706345"><ele>595.0</ele><time>2026-04-04T13:38:51.977Z</time></trkpt><trkpt lat="40.730751" lon="14.8705692"><ele>595.0</ele><time>2026-04-04T13:38:52.96Z</time></trkpt><trkpt lat="40.7308585" lon="14.8705097"><ele>595.0</ele><time>2026-04-04T13:38:53.971Z</time></trkpt><trkpt lat="40.7309665" lon="14.8704582"><ele>595.0</ele><time>2026-04-04T13:38:54.974Z</time></trkpt><trkpt lat="40.7310756" lon="14.8704127"><ele>595.0</ele><time>2026-04-04T13:38:55.947Z</time></trkpt><trkpt lat="40.7311826" lon="14.870392"><ele>599.8333333333334</ele><time>2026-04-04T13:38:56.968Z</time></trkpt><trkpt lat="40.7312539" lon="14.8703886"><ele>604.6666666666667</ele><time>2026-04-04T13:38:57.965Z</time></trkpt><trkpt lat="40.7313134" lon="14.8703495"><ele>609.5</ele><time>2026-04-04T13:38:59.972Z</time></trkpt><trkpt lat="40.7312686" lon="14.8704418"><ele>614.3333333333334</ele><time>2026-04-04T13:39:03.967Z</time></trkpt><trkpt lat="40.7312148" lon="14.8705244"><ele>619.1666666666666</ele><time>2026-04-04T13:39:04.973Z</time></trkpt><trkpt lat="40.7311597" lon="14.8706083"><ele>624.0</ele><time>2026-04-04T13:39:05.974Z</time></trkpt><trkpt lat="40.7311119" lon="14.8707189"><ele>624.0</ele><time>2026-04-04T13:39:06.965Z</time></trkpt><trkpt lat="40.7310741" lon="14.8708448"><ele>624.0</ele><time>2026-04-04T13:39:07.966Z</time></trkpt><trkpt lat="40.7310639" lon="14.8709301"><ele>624.0</ele><time>2026-04-04T13:39:08.97Z</time></trkpt><trkpt lat="40.7310514" lon="14.8710247"><ele>624.0</ele><time>2026-04-04T13:39:09.97Z</time></trkpt><trkpt lat="40.7310188" lon="14.871146"><ele>624.0</ele><time>2026-04-04T13:39:10.977Z</time></trkpt><trkpt lat="40.7309839" lon="14.8712901"><ele>621.6</ele><time>2026-04-04T13:39:11.975Z</time></trkpt><trkpt lat="40.7309522" lon="14.8714314"><ele>619.2</ele><time>2026-04-04T13:39:12.975Z</time></trkpt><trkpt lat="40.7309602" lon="14.8715796"><ele>616.8000000000001</ele><time>2026-04-04T13:39:13.968Z</time></trkpt><trkpt lat="40.7309883" lon="14.8717245"><ele>614.4</ele><time>2026-04-04T13:39:14.97Z</time></trkpt><trkpt lat="40.7310178" lon="14.8718494"><ele>612.0</ele><time>2026-04-04T13:39:15.965Z</time></trkpt><trkpt lat="40.7310345" lon="14.8719665"><ele>612.0</ele><time>2026-04-04T13:39:16.958Z</time></trkpt><trkpt lat="40.7310511" lon="14.8720634"><ele>612.0</ele><time>2026-04-04T13:39:17.979Z</time></trkpt><trkpt lat="40.7311049" lon="14.8722027"><ele>612.0</ele><time>2026-04-04T13:39:19.96Z</time></trkpt><trkpt lat="40.7312231" lon="14.8722129"><ele>612.0</ele><time>2026-04-04T13:39:21.97Z</time></trkpt><trkpt lat="40.7313071" lon="14.8721165"><ele>612.0</ele><time>2026-04-04T13:39:23.972Z</time></trkpt><trkpt lat="40.7313721" lon="14.8720187"><ele>615.5</ele><time>2026-04-04T13:39:24.971Z</time></trkpt><trkpt lat="40.7314335" lon="14.871869"><ele>619.0</ele><time>2026-04-04T13:39:25.963Z</time></trkpt><trkpt lat="40.7315052" lon="14.8716727"><ele>622.5</ele><time>2026-04-04T13:39:26.973Z</time></trkpt><trkpt lat="40.7315781" lon="14.8715262"><ele>626.0</ele><time>2026-04-04T13:39:27.976Z</time></trkpt><trkpt lat="40.7316435" lon="14.8714376"><ele>626.0</ele><time>2026-04-04T13:39:28.976Z</time></trkpt><trkpt lat="40.7317242" lon="14.871364"><ele>626.0</ele><time>2026-04-04T13:39:29.975Z</time></trkpt><trkpt lat="40.7318398" lon="14.8713356"><ele>626.0</ele><time>2026-04-04T13:39:30.965Z</time></trkpt><trkpt lat="40.7319689" lon="14.8713167"><ele>626.0</ele><time>2026-04-04T13:39:31.969Z</time></trkpt><trkpt lat="40.7320891" lon="14.8712928"><ele>627.5</ele><time>2026-04-04T13:39:33.041Z</time></trkpt><trkpt lat="40.732219" lon="14.8712573"><ele>629.0</ele><time>2026-04-04T13:39:33.968Z</time></trkpt><trkpt lat="40.7323374" lon="14.87121"><ele>630.5</ele><time>2026-04-04T13:39:34.969Z</time></trkpt><trkpt lat="40.7324421" lon="14.8711614"><ele>632.0</ele><time>2026-04-04T13:39:35.983Z</time></trkpt><trkpt lat="40.7325477" lon="14.8711074"><ele>632.0</ele><time>2026-04-04T13:39:37.034Z</time></trkpt><trkpt lat="40.7326464" lon="14.8710614"><ele>632.0</ele><time>2026-04-04T13:39:38.029Z</time></trkpt><trkpt lat="40.7327213" lon="14.8710075"><ele>632.0</ele><time>2026-04-04T13:39:38.965Z</time></trkpt><trkpt lat="40.7327797" lon="14.8709393"><ele>632.0</ele><time>2026-04-04T13:39:39.975Z</time></trkpt><trkpt lat="40.7328149" lon="14.8708537"><ele>632.0</ele><time>2026-04-04T13:39:41.005Z</time></trkpt><trkpt lat="40.7328664" lon="14.8707376"><ele>632.0</ele><time>2026-04-04T13:39:42.03Z</time></trkpt><trkpt lat="40.7329269" lon="14.8706331"><ele>631.1666666666666</ele><time>2026-04-04T13:39:43.016Z</time></trkpt><trkpt lat="40.7329812" lon="14.8705678"><ele>630.3333333333333</ele><time>2026-04-04T13:39:43.969Z</time></trkpt><trkpt lat="40.7330431" lon="14.87051"><ele>629.5</ele><time>2026-04-04T13:39:44.968Z</time></trkpt><trkpt lat="40.7331105" lon="14.8704245"><ele>628.6666666666666</ele><time>2026-04-04T13:39:46.046Z</time></trkpt><trkpt lat="40.7331626" lon="14.8702942"><ele>627.8333333333334</ele><time>2026-04-04T13:39:47.023Z</time></trkpt><trkpt lat="40.7332087" lon="14.8701845"><ele>627.0</ele><time>2026-04-04T13:39:47.965Z</time></trkpt><trkpt lat="40.7332473" lon="14.8701121"><ele>627.0</ele><time>2026-04-04T13:39:48.96Z</time></trkpt><trkpt lat="40.7333238" lon="14.8701322"><ele>627.0</ele><time>2026-04-04T13:39:50.961Z</time></trkpt><trkpt lat="40.7333879" lon="14.8701926"><ele>627.0</ele><time>2026-04-04T13:39:52.043Z</time></trkpt><trkpt lat="40.733456" lon="14.8702233"><ele>627.0</ele><time>2026-04-04T13:39:52.968Z</time></trkpt><trkpt lat="40.7335275" lon="14.8702151"><ele>627.0</ele><time>2026-04-04T13:39:53.958Z</time></trkpt><trkpt lat="40.7336441" lon="14.8701809"><ele>627.0</ele><time>2026-04-04T13:39:55.982Z</time></trkpt><trkpt lat="40.733731" lon="14.8701623"><ele>629.0</ele><time>2026-04-04T13:39:57.044Z</time></trkpt><trkpt lat="40.7338274" lon="14.8701563"><ele>631.0</ele><time>2026-04-04T13:39:58.03Z</time></trkpt><trkpt lat="40.7338896" lon="14.8701406"><ele>633.0</ele><time>2026-04-04T13:39:59.005Z</time></trkpt><trkpt lat="40.733951" lon="14.8701981"><ele>635.0</ele><time>2026-04-04T13:40:01.972Z</time></trkpt><trkpt lat="40.7340023" lon="14.8703744"><ele>637.0</ele><time>2026-04-04T13:40:03.972Z</time></trkpt><trkpt lat="40.7340492" lon="14.8704785"><ele>637.0</ele><time>2026-04-04T13:40:04.983Z</time></trkpt><trkpt lat="40.734118" lon="14.8705554"><ele>637.0</ele><time>2026-04-04T13:40:05.982Z</time></trkpt><trkpt lat="40.7342076" lon="14.8706366"><ele>637.0</ele><time>2026-04-04T13:40:06.986Z</time></trkpt><trkpt lat="40.7342887" lon="14.8707212"><ele>637.0</ele><time>2026-04-04T13:40:07.995Z</time></trkpt><trkpt lat="40.7343664" lon="14.8708031"><ele>637.0</ele><time>2026-04-04T13:40:08.992Z</time></trkpt><trkpt lat="40.7344501" lon="14.8708596"><ele>636.4</ele><time>2026-04-04T13:40:09.99Z</time></trkpt><trkpt lat="40.7345452" lon="14.8708936"><ele>635.8000000000001</ele><time>2026-04-04T13:40:10.983Z</time></trkpt><trkpt lat="40.7346373" lon="14.8709026"><ele>635.2</ele><time>2026-04-04T13:40:11.974Z</time></trkpt><trkpt lat="40.7347338" lon="14.8708819"><ele>634.6</ele><time>2026-04-04T13:40:13.062Z</time></trkpt><trkpt lat="40.7348232" lon="14.8708223"><ele>634.0</ele><time>2026-04-04T13:40:13.965Z</time></trkpt><trkpt lat="40.7348985" lon="14.8707445"><ele>634.0</ele><time>2026-04-04T13:40:15.107Z</time></trkpt><trkpt lat="40.7350043" lon="14.8705152"><ele>634.0</ele><time>2026-04-04T13:40:16.977Z</time></trkpt><trkpt lat="40.7350321" lon="14.8703888"><ele>634.0</ele><time>2026-04-04T13:40:18.039Z</time></trkpt><trkpt lat="40.7350681" lon="14.8702871"><ele>634.0</ele><time>2026-04-04T13:40:18.976Z</time></trkpt><trkpt lat="40.735122" lon="14.8702154"><ele>634.0</ele><time>2026-04-04T13:40:19.98Z</time></trkpt><trkpt lat="40.7351746" lon="14.8701208"><ele>634.0</ele><time>2026-04-04T13:40:20.972Z</time></trkpt><trkpt lat="40.7352088" lon="14.8699923"><ele>634.0</ele><time>2026-04-04T13:40:22.032Z</time></trkpt><trkpt lat="40.7352178" lon="14.8698415"><ele>634.0</ele><time>2026-04-04T13:40:22.988Z</time></trkpt><trkpt lat="40.7352297" lon="14.8697079"><ele>634.0</ele><time>2026-04-04T13:40:23.976Z</time></trkpt><trkpt lat="40.7352412" lon="14.8696101"><ele>635.3333333333334</ele><time>2026-04-04T13:40:24.96Z</time></trkpt><trkpt lat="40.7352746" lon="14.8695349"><ele>636.6666666666667</ele><time>2026-04-04T13:40:26.046Z</time></trkpt><trkpt lat="40.7353435" lon="14.8694215"><ele>638.0</ele><time>2026-04-04T13:40:28.037Z</time></trkpt><trkpt lat="40.735403" lon="14.8693907"><ele>639.3333333333334</ele><time>2026-04-04T13:40:28.965Z</time></trkpt><trkpt lat="40.735472" lon="14.8693387"><ele>640.6666666666666</ele><time>2026-04-04T13:40:29.969Z</time></trkpt><trkpt lat="40.7355351" lon="14.8692801"><ele>642.0</ele><time>2026-04-04T13:40:30.958Z</time></trkpt><trkpt lat="40.7356124" lon="14.8692082"><ele>642.0</ele><time>2026-04-04T13:40:31.968Z</time></trkpt><trkpt lat="40.7356841" lon="14.8691178"><ele>642.0</ele><time>2026-04-04T13:40:32.967Z</time></trkpt><trkpt lat="40.7357504" lon="14.8690268"><ele>642.0</ele><time>2026-04-04T13:40:34.977Z</time></trkpt><trkpt lat="40.7358488" lon="14.8690387"><ele>642.0</ele><time>2026-04-04T13:40:36.973Z</time></trkpt><trkpt lat="40.7359464" lon="14.8690721"><ele>642.0</ele><time>2026-04-04T13:40:37.975Z</time></trkpt><trkpt lat="40.7360414" lon="14.8691017"><ele>637.0</ele><time>2026-04-04T13:40:38.965Z</time></trkpt><trkpt lat="40.7361489" lon="14.8691203"><ele>632.0</ele><time>2026-04-04T13:40:40.053Z</time></trkpt><trkpt lat="40.7362624" lon="14.8691147"><ele>627.0</ele><time>2026-04-04T13:40:41.037Z</time></trkpt><trkpt lat="40.7363553" lon="14.8690644"><ele>622.0</ele><time>2026-04-04T13:40:41.958Z</time></trkpt><trkpt lat="40.7364374" lon="14.8689972"><ele>617.0</ele><time>2026-04-04T13:40:42.966Z</time></trkpt><trkpt lat="40.7364675" lon="14.8688868"><ele>617.0</ele><time>2026-04-04T13:40:43.959Z</time></trkpt><trkpt lat="40.7364745" lon="14.8687252"><ele>617.0</ele><time>2026-04-04T13:40:44.96Z</time></trkpt><trkpt lat="40.7364854" lon="14.8685684"><ele>617.0</ele><time>2026-04-04T13:40:45.962Z</time></trkpt><trkpt lat="40.7364962" lon="14.8684338"><ele>617.0</ele><time>2026-04-04T13:40:46.96Z</time></trkpt><trkpt lat="40.7364839" lon="14.8682881"><ele>619.6</ele><time>2026-04-04T13:40:48.018Z</time></trkpt><trkpt lat="40.7364665" lon="14.868155"><ele>622.2</ele><time>2026-04-04T13:40:48.96Z</time></trkpt><trkpt lat="40.7364604" lon="14.8680612"><ele>624.8</ele><time>2026-04-04T13:40:49.961Z</time></trkpt><trkpt lat="40.7364855" lon="14.8679684"><ele>627.4</ele><time>2026-04-04T13:40:51.962Z</time></trkpt><trkpt lat="40.736575" lon="14.8678335"><ele>630.0</ele><time>2026-04-04T13:40:53.956Z</time></trkpt><trkpt lat="40.7366158" lon="14.867745"><ele>630.0</ele><time>2026-04-04T13:40:55.014Z</time></trkpt><trkpt lat="40.7366735" lon="14.8676774"><ele>630.0</ele><time>2026-04-04T13:40:55.978Z</time></trkpt><trkpt lat="40.7367684" lon="14.8676261"><ele>630.0</ele><time>2026-04-04T13:40:56.949Z</time></trkpt><trkpt lat="40.7368845" lon="14.8675729"><ele>630.0</ele><time>2026-04-04T13:40:57.951Z</time></trkpt><trkpt lat="40.7369811" lon="14.8675125"><ele>630.0</ele><time>2026-04-04T13:40:58.968Z</time></trkpt><trkpt lat="40.7370486" lon="14.8674448"><ele>624.8333333333334</ele><time>2026-04-04T13:40:59.971Z</time></trkpt><trkpt lat="40.7370912" lon="14.8673516"><ele>619.6666666666666</ele><time>2026-04-04T13:41:00.963Z</time></trkpt><trkpt lat="40.7371155" lon="14.8672521"><ele>614.5</ele><time>2026-04-04T13:41:01.956Z</time></trkpt><trkpt lat="40.7371148" lon="14.8671397"><ele>609.3333333333333</ele><time>2026-04-04T13:41:02.968Z</time></trkpt><trkpt lat="40.7370775" lon="14.8670379"><ele>604.1666666666666</ele><time>2026-04-04T13:41:03.962Z</time></trkpt><trkpt lat="40.7370536" lon="14.8669278"><ele>599.0</ele><time>2026-04-04T13:41:04.965Z</time></trkpt><trkpt lat="40.7370389" lon="14.8668029"><ele>604.0</ele><time>2026-04-04T13:41:05.963Z</time></trkpt><trkpt lat="40.7370205" lon="14.8666979"><ele>609.0</ele><time>2026-04-04T13:41:06.967Z</time></trkpt><trkpt lat="40.7370209" lon="14.8666121"><ele>614.0</ele><time>2026-04-04T13:41:07.963Z</time></trkpt><trkpt lat="40.7370162" lon="14.8665255"><ele>619.0</ele><time>2026-04-04T13:41:08.961Z</time></trkpt><trkpt lat="40.7371146" lon="14.8664683"><ele>624.0</ele><time>2026-04-04T13:41:10.958Z</time></trkpt><trkpt lat="40.7372265" lon="14.8664808"><ele>629.0</ele><time>2026-04-04T13:41:12.021Z</time></trkpt><trkpt lat="40.7373235" lon="14.8664566"><ele>629.0</ele><time>2026-04-04T13:41:12.949Z</time></trkpt><trkpt lat="40.7374236" lon="14.8663865"><ele>629.0</ele><time>2026-04-04T13:41:13.96Z</time></trkpt><trkpt lat="40.7375363" lon="14.8663"><ele>629.0</ele><time>2026-04-04T13:41:14.952Z</time></trkpt><trkpt lat="40.7376522" lon="14.8661962"><ele>629.0</ele><time>2026-04-04T13:41:16.05Z</time></trkpt><trkpt lat="40.7377473" lon="14.8661137"><ele>629.4</ele><time>2026-04-04T13:41:16.982Z</time></trkpt><trkpt lat="40.7378233" lon="14.8660332"><ele>629.8</ele><time>2026-04-04T13:41:18.016Z</time></trkpt><trkpt lat="40.7379073" lon="14.8659303"><ele>630.2</ele><time>2026-04-04T13:41:18.964Z</time></trkpt><trkpt lat="40.7380094" lon="14.8658523"><ele>630.6</ele><time>2026-04-04T13:41:19.966Z</time></trkpt><trkpt lat="40.7380856" lon="14.8657985"><ele>631.0</ele><time>2026-04-04T13:41:20.991Z</time></trkpt><trkpt lat="40.7381351" lon="14.8657215"><ele>631.0</ele><time>2026-04-04T13:41:22.029Z</time></trkpt><trkpt lat="40.7381902" lon="14.8656343"><ele>631.0</ele><time>2026-04-04T13:41:23.013Z</time></trkpt><trkpt lat="40.7382484" lon="14.8655415"><ele>631.0</ele><time>2026-04-04T13:41:23.962Z</time></trkpt><trkpt lat="40.7382917" lon="14.8654678"><ele>631.0</ele><time>2026-04-04T13:41:24.964Z</time></trkpt><trkpt lat="40.738362" lon="14.8654242"><ele>631.0</ele><time>2026-04-04T13:41:26.961Z</time></trkpt><trkpt lat="40.7384858" lon="14.8653978"><ele>631.1666666666667</ele><time>2026-04-04T13:41:28.962Z</time></trkpt><trkpt lat="40.7385621" lon="14.8653486"><ele>631.3333333333334</ele><time>2026-04-04T13:41:30.956Z</time></trkpt><trkpt lat="40.7385823" lon="14.865267"><ele>631.5</ele><time>2026-04-04T13:41:32.963Z</time></trkpt><trkpt lat="40.738585" lon="14.8651824"><ele>631.6666666666666</ele><time>2026-04-04T13:41:34.965Z</time></trkpt><trkpt lat="40.7386074" lon="14.8650853"><ele>631.8333333333333</ele><time>2026-04-04T13:41:36.944Z</time></trkpt><trkpt lat="40.7387283" lon="14.8650256"><ele>632.0</ele><time>2026-04-04T13:41:39.961Z</time></trkpt><trkpt lat="40.7388042" lon="14.8650175"><ele>637.6</ele><time>2026-04-04T13:41:40.956Z</time></trkpt><trkpt lat="40.7388931" lon="14.8649981"><ele>643.2</ele><time>2026-04-04T13:41:41.961Z</time></trkpt><trkpt lat="40.738984" lon="14.8649774"><ele>648.8</ele><time>2026-04-04T13:41:42.966Z</time></trkpt><trkpt lat="40.7390785" lon="14.8649844"><ele>654.4</ele><time>2026-04-04T13:41:43.972Z</time></trkpt><trkpt lat="40.739184" lon="14.8650086"><ele>660.0</ele><time>2026-04-04T13:41:44.961Z</time></trkpt><trkpt lat="40.7392881" lon="14.8650347"><ele>666.0</ele><time>2026-04-04T13:41:45.958Z</time></trkpt><trkpt lat="40.7393901" lon="14.8650225"><ele>672.0</ele><time>2026-04-04T13:41:47.045Z</time></trkpt><trkpt lat="40.7395021" lon="14.8649878"><ele>678.0</ele><time>2026-04-04T13:41:48.039Z</time></trkpt><trkpt lat="40.7395743" lon="14.8649565"><ele>684.0</ele><time>2026-04-04T13:41:48.96Z</time></trkpt><trkpt lat="40.7396195" lon="14.8648869"><ele>690.0</ele><time>2026-04-04T13:41:50.977Z</time></trkpt><trkpt lat="40.7395812" lon="14.8647863"><ele>696.0</ele><time>2026-04-04T13:41:53.959Z</time></trkpt><trkpt lat="40.7396282" lon="14.864722"><ele>696.0</ele><time>2026-04-04T13:41:58.961Z</time></trkpt><trkpt lat="40.7397221" lon="14.8647641"><ele>696.0</ele><time>2026-04-04T13:41:59.965Z</time></trkpt><trkpt lat="40.739819" lon="14.8647941"><ele>696.0</ele><time>2026-04-04T13:42:00.968Z</time></trkpt><trkpt lat="40.7399188" lon="14.8648211"><ele>696.0</ele><time>2026-04-04T13:42:01.964Z</time></trkpt><trkpt lat="40.7400139" lon="14.864847"><ele>696.0</ele><time>2026-04-04T13:42:03.001Z</time></trkpt><trkpt lat="40.740088" lon="14.8648534"><ele>696.0</ele><time>2026-04-04T13:42:03.978Z</time></trkpt><trkpt lat="40.7401746" lon="14.8648321"><ele>696.0</ele><time>2026-04-04T13:42:05.953Z</time></trkpt><trkpt lat="40.740253" lon="14.8647281"><ele>696.0</ele><time>2026-04-04T13:42:07.968Z</time></trkpt><trkpt lat="40.7402591" lon="14.8646212"><ele>696.0</ele><time>2026-04-04T13:42:08.972Z</time></trkpt><trkpt lat="40.7402499" lon="14.8644431"><ele>696.0</ele><time>2026-04-04T13:42:09.971Z</time></trkpt><trkpt lat="40.7402427" lon="14.8642798"><ele>695.6666666666666</ele><time>2026-04-04T13:42:10.961Z</time></trkpt><trkpt lat="40.7402505" lon="14.864163"><ele>695.3333333333334</ele><time>2026-04-04T13:42:11.961Z</time></trkpt><trkpt lat="40.7402842" lon="14.8640909"><ele>695.0</ele><time>2026-04-04T13:42:13.038Z</time></trkpt><trkpt lat="40.7403704" lon="14.864037"><ele>694.6666666666667</ele><time>2026-04-04T13:42:14.975Z</time></trkpt><trkpt lat="40.7404398" lon="14.8640242"><ele>694.3333333333334</ele><time>2026-04-04T13:42:15.983Z</time></trkpt><trkpt lat="40.7405215" lon="14.8640039"><ele>694.0</ele><time>2026-04-04T13:42:16.969Z</time></trkpt><trkpt lat="40.7406278" lon="14.863986"><ele>694.0</ele><time>2026-04-04T13:42:17.974Z</time></trkpt><trkpt lat="40.7407338" lon="14.8639834"><ele>694.0</ele><time>2026-04-04T13:42:18.971Z</time></trkpt><trkpt lat="40.7408403" lon="14.8639756"><ele>694.0</ele><time>2026-04-04T13:42:19.982Z</time></trkpt><trkpt lat="40.7409477" lon="14.8639626"><ele>694.0</ele><time>2026-04-04T13:42:20.984Z</time></trkpt><trkpt lat="40.7410506" lon="14.8639366"><ele>694.0</ele><time>2026-04-04T13:42:21.977Z</time></trkpt><trkpt lat="40.7411376" lon="14.8638959"><ele>690.6</ele><time>2026-04-04T13:42:22.98Z</time></trkpt><trkpt lat="40.7412246" lon="14.8638392"><ele>687.2</ele><time>2026-04-04T13:42:23.979Z</time></trkpt><trkpt lat="40.7413005" lon="14.8637563"><ele>683.8000000000001</ele><time>2026-04-04T13:42:24.98Z</time></trkpt><trkpt lat="40.7413854" lon="14.8636369"><ele>680.4000000000001</ele><time>2026-04-04T13:42:25.992Z</time></trkpt><trkpt lat="40.7414554" lon="14.8635144"><ele>677.0</ele><time>2026-04-04T13:42:26.978Z</time></trkpt><trkpt lat="40.741499" lon="14.8634043"><ele>677.0</ele><time>2026-04-04T13:42:27.978Z</time></trkpt><trkpt lat="40.7415206" lon="14.8633006"><ele>677.0</ele><time>2026-04-04T13:42:28.983Z</time></trkpt><trkpt lat="40.7415167" lon="14.8631754"><ele>677.0</ele><time>2026-04-04T13:42:29.977Z</time></trkpt><trkpt lat="40.7414993" lon="14.8630412"><ele>677.0</ele><time>2026-04-04T13:42:30.984Z</time></trkpt><trkpt lat="40.7414644" lon="14.8629181"><ele>677.0</ele><time>2026-04-04T13:42:31.986Z</time></trkpt><trkpt lat="40.7414306" lon="14.8628132"><ele>676.9999999999999</ele><time>2026-04-04T13:42:32.976Z</time></trkpt><trkpt lat="40.7414005" lon="14.8627323"><ele>677.0</ele><time>2026-04-04T13:42:33.98Z</time></trkpt><trkpt lat="40.7413487" lon="14.8626563"><ele>677.0</ele><time>2026-04-04T13:42:34.973Z</time></trkpt><trkpt lat="40.7412891" lon="14.8625899"><ele>677.0</ele><time>2026-04-04T13:42:35.976Z</time></trkpt><trkpt lat="40.741235" lon="14.8625334"><ele>677.0</ele><time>2026-04-04T13:42:36.973Z</time></trkpt><trkpt lat="40.7411883" lon="14.8624772"><ele>676.9999999999999</ele><time>2026-04-04T13:42:38.974Z</time></trkpt><trkpt lat="40.7412682" lon="14.8624364"><ele>677.0</ele><time>2026-04-04T13:42:40.978Z</time></trkpt><trkpt lat="40.7413592" lon="14.862418"><ele>676.6</ele><time>2026-04-04T13:42:41.975Z</time></trkpt><trkpt lat="40.7414631" lon="14.8623971"><ele>676.2</ele><time>2026-04-04T13:42:42.971Z</time></trkpt><trkpt lat="40.7415778" lon="14.8623698"><ele>675.8</ele><time>2026-04-04T13:42:43.968Z</time></trkpt><trkpt lat="40.7416759" lon="14.8622974"><ele>675.4</ele><time>2026-04-04T13:42:44.973Z</time></trkpt><trkpt lat="40.7417412" lon="14.8622011"><ele>675.0</ele><time>2026-04-04T13:42:45.979Z</time></trkpt><trkpt lat="40.7417764" lon="14.8620865"><ele>675.0</ele><time>2026-04-04T13:42:46.977Z</time></trkpt><trkpt lat="40.7417988" lon="14.8619773"><ele>675.0</ele><time>2026-04-04T13:42:47.978Z</time></trkpt><trkpt lat="40.7418401" lon="14.8618805"><ele>675.0</ele><time>2026-04-04T13:42:48.978Z</time></trkpt><trkpt lat="40.7418861" lon="14.8617865"><ele>675.0</ele><time>2026-04-04T13:42:49.982Z</time></trkpt><trkpt lat="40.7419153" lon="14.8616727"><ele>675.0</ele><time>2026-04-04T13:42:50.984Z</time></trkpt><trkpt lat="40.7419176" lon="14.8615545"><ele>675.0</ele><time>2026-04-04T13:42:51.981Z</time></trkpt><trkpt lat="40.7419004" lon="14.8614357"><ele>677.6</ele><time>2026-04-04T13:42:52.973Z</time></trkpt><trkpt lat="40.7418724" lon="14.8613036"><ele>680.2</ele><time>2026-04-04T13:42:53.977Z</time></trkpt><trkpt lat="40.7418554" lon="14.8611877"><ele>682.8</ele><time>2026-04-04T13:42:54.985Z</time></trkpt><trkpt lat="40.7418437" lon="14.8610744"><ele>685.4</ele><time>2026-04-04T13:42:55.986Z</time></trkpt><trkpt lat="40.7418236" lon="14.8609682"><ele>688.0</ele><time>2026-04-04T13:42:56.977Z</time></trkpt><trkpt lat="40.7417889" lon="14.8608517"><ele>689.1666666666667</ele><time>2026-04-04T13:42:57.971Z</time></trkpt><trkpt lat="40.7417412" lon="14.8607353"><ele>690.3333333333334</ele><time>2026-04-04T13:42:58.979Z</time></trkpt><trkpt lat="40.7416958" lon="14.8606508"><ele>691.5</ele><time>2026-04-04T13:42:59.974Z</time></trkpt><trkpt lat="40.7416953" lon="14.8605661"><ele>692.6666666666666</ele><time>2026-04-04T13:43:02.038Z</time></trkpt><trkpt lat="40.741755" lon="14.8605246"><ele>693.8333333333333</ele><time>2026-04-04T13:43:03.965Z</time></trkpt><trkpt lat="40.7418194" lon="14.8605387"><ele>695.0</ele><time>2026-04-04T13:43:04.954Z</time></trkpt><trkpt lat="40.7418945" lon="14.8605744"><ele>691.6</ele><time>2026-04-04T13:43:05.973Z</time></trkpt><trkpt lat="40.7419969" lon="14.8606099"><ele>688.2</ele><time>2026-04-04T13:43:07.038Z</time></trkpt><trkpt lat="40.7421057" lon="14.8606444"><ele>684.8</ele><time>2026-04-04T13:43:08.03Z</time></trkpt><trkpt lat="40.7422048" lon="14.8606837"><ele>681.4</ele><time>2026-04-04T13:43:08.977Z</time></trkpt><trkpt lat="40.7423038" lon="14.860752"><ele>678.0</ele><time>2026-04-04T13:43:09.977Z</time></trkpt><trkpt lat="40.7423726" lon="14.8608277"><ele>678.0</ele><time>2026-04-04T13:43:10.972Z</time></trkpt><trkpt lat="40.7424179" lon="14.8608867"><ele>678.0</ele><time>2026-04-04T13:43:11.966Z</time></trkpt><trkpt lat="40.7424704" lon="14.8609398"><ele>678.0</ele><time>2026-04-04T13:43:12.977Z</time></trkpt><trkpt lat="40.74254" lon="14.8609928"><ele>678.0</ele><time>2026-04-04T13:43:13.985Z</time></trkpt><trkpt lat="40.7426187" lon="14.8610385"><ele>678.0</ele><time>2026-04-04T13:43:14.98Z</time></trkpt><trkpt lat="40.7427111" lon="14.8610906"><ele>678.0</ele><time>2026-04-04T13:43:16.011Z</time></trkpt><trkpt lat="40.7428076" lon="14.8611552"><ele>676.8</ele><time>2026-04-04T13:43:16.977Z</time></trkpt><trkpt lat="40.7429004" lon="14.8611822"><ele>675.5999999999999</ele><time>2026-04-04T13:43:18.058Z</time></trkpt><trkpt lat="40.7429782" lon="14.8611949"><ele>674.4000000000001</ele><time>2026-04-04T13:43:18.966Z</time></trkpt><trkpt lat="40.7430528" lon="14.8611396"><ele>673.2</ele><time>2026-04-04T13:43:20.951Z</time></trkpt><trkpt lat="40.7431044" lon="14.861044"><ele>672.0</ele><time>2026-04-04T13:43:22.99Z</time></trkpt><trkpt lat="40.7431672" lon="14.8609087"><ele>672.0</ele><time>2026-04-04T13:43:25.038Z</time></trkpt><trkpt lat="40.743217" lon="14.8607937"><ele>672.0</ele><time>2026-04-04T13:43:25.979Z</time></trkpt><trkpt lat="40.7432688" lon="14.8606834"><ele>672.0</ele><time>2026-04-04T13:43:26.974Z</time></trkpt><trkpt lat="40.743316" lon="14.8605807"><ele>672.0</ele><time>2026-04-04T13:43:27.983Z</time></trkpt><trkpt lat="40.7433556" lon="14.8604677"><ele>672.0</ele><time>2026-04-04T13:43:28.97Z</time></trkpt><trkpt lat="40.7433588" lon="14.8603269"><ele>672.0</ele><time>2026-04-04T13:43:29.975Z</time></trkpt><trkpt lat="40.7433465" lon="14.8602046"><ele>672.0</ele><time>2026-04-04T13:43:30.98Z</time></trkpt><trkpt lat="40.7433104" lon="14.8600982"><ele>672.0</ele><time>2026-04-04T13:43:31.978Z</time></trkpt><trkpt lat="40.7432742" lon="14.859986"><ele>672.0</ele><time>2026-04-04T13:43:32.985Z</time></trkpt><trkpt lat="40.7432393" lon="14.8598756"><ele>672.0</ele><time>2026-04-04T13:43:33.984Z</time></trkpt><trkpt lat="40.7432085" lon="14.8597648"><ele>672.1666666666666</ele><time>2026-04-04T13:43:34.983Z</time></trkpt><trkpt lat="40.74317" lon="14.8596471"><ele>672.3333333333334</ele><time>2026-04-04T13:43:35.982Z</time></trkpt><trkpt lat="40.7431347" lon="14.8595537"><ele>672.5</ele><time>2026-04-04T13:43:36.977Z</time></trkpt><trkpt lat="40.7430624" lon="14.8594387"><ele>672.6666666666667</ele><time>2026-04-04T13:43:38.987Z</time></trkpt><trkpt lat="40.7430143" lon="14.8593794"><ele>672.8333333333334</ele><time>2026-04-04T13:43:39.976Z</time></trkpt><trkpt lat="40.7429684" lon="14.8593163"><ele>673.0</ele><time>2026-04-04T13:43:40.976Z</time></trkpt><trkpt lat="40.7429244" lon="14.8592462"><ele>673.0</ele><time>2026-04-04T13:43:42.008Z</time></trkpt><trkpt lat="40.7428718" lon="14.8591687"><ele>673.0</ele><time>2026-04-04T13:43:42.982Z</time></trkpt><trkpt lat="40.7428251" lon="14.8590719"><ele>673.0</ele><time>2026-04-04T13:43:43.978Z</time></trkpt><trkpt lat="40.7427709" lon="14.8589963"><ele>673.0</ele><time>2026-04-04T13:43:44.976Z</time></trkpt><trkpt lat="40.7427105" lon="14.858925"><ele>673.0</ele><time>2026-04-04T13:43:45.984Z</time></trkpt><trkpt lat="40.742654" lon="14.858865"><ele>673.0</ele><time>2026-04-04T13:43:46.987Z</time></trkpt><trkpt lat="40.7425995" lon="14.8587981"><ele>680.5999999999999</ele><time>2026-04-04T13:43:47.981Z</time></trkpt><trkpt lat="40.7425524" lon="14.8587172"><ele>688.1999999999999</ele><time>2026-04-04T13:43:48.985Z</time></trkpt><trkpt lat="40.7424885" lon="14.8586206"><ele>695.8</ele><time>2026-04-04T13:43:49.977Z</time></trkpt><trkpt lat="40.7424311" lon="14.858514"><ele>703.4</ele><time>2026-04-04T13:43:50.974Z</time></trkpt><trkpt lat="40.742378" lon="14.8584073"><ele>711.0</ele><time>2026-04-04T13:43:51.972Z</time></trkpt><trkpt lat="40.7423234" lon="14.8583086"><ele>711.0</ele><time>2026-04-04T13:43:52.982Z</time></trkpt><trkpt lat="40.7422662" lon="14.8582638"><ele>711.0</ele><time>2026-04-04T13:43:53.981Z</time></trkpt><trkpt lat="40.7422042" lon="14.8582375"><ele>711.0</ele><time>2026-04-04T13:43:55.964Z</time></trkpt><trkpt lat="40.742383" lon="14.8581813"><ele>711.0</ele><time>2026-04-04T13:43:58.983Z</time></trkpt><trkpt lat="40.7425163" lon="14.8581605"><ele>711.0</ele><time>2026-04-04T13:43:59.98Z</time></trkpt><trkpt lat="40.7426429" lon="14.8581522"><ele>711.0</ele><time>2026-04-04T13:44:00.98Z</time></trkpt><trkpt lat="40.7427431" lon="14.858118"><ele>711.0</ele><time>2026-04-04T13:44:01.978Z</time></trkpt><trkpt lat="40.7428317" lon="14.8580724"><ele>711.0</ele><time>2026-04-04T13:44:02.975Z</time></trkpt><trkpt lat="40.7428794" lon="14.8579733"><ele>711.0</ele><time>2026-04-04T13:44:03.973Z</time></trkpt><trkpt lat="40.7428779" lon="14.857863"><ele>707.4</ele><time>2026-04-04T13:44:04.97Z</time></trkpt><trkpt lat="40.7428868" lon="14.8577302"><ele>703.8</ele><time>2026-04-04T13:44:05.974Z</time></trkpt><trkpt lat="40.7428985" lon="14.8576284"><ele>700.1999999999999</ele><time>2026-04-04T13:44:06.983Z</time></trkpt><trkpt lat="40.7429771" lon="14.8574786"><ele>696.5999999999999</ele><time>2026-04-04T13:44:08.979Z</time></trkpt><trkpt lat="40.7430399" lon="14.8574019"><ele>693.0</ele><time>2026-04-04T13:44:09.976Z</time></trkpt><trkpt lat="40.7431039" lon="14.8573155"><ele>693.0</ele><time>2026-04-04T13:44:10.977Z</time></trkpt><trkpt lat="40.7431443" lon="14.8572139"><ele>693.0</ele><time>2026-04-04T13:44:11.973Z</time></trkpt><trkpt lat="40.7431542" lon="14.8570824"><ele>693.0</ele><time>2026-04-04T13:44:12.975Z</time></trkpt><trkpt lat="40.7431675" lon="14.8569404"><ele>693.0</ele><time>2026-04-04T13:44:13.971Z</time></trkpt><trkpt lat="40.7431919" lon="14.8568382"><ele>693.0</ele><time>2026-04-04T13:44:14.971Z</time></trkpt><trkpt lat="40.7432386" lon="14.8567556"><ele>697.5999999999999</ele><time>2026-04-04T13:44:15.975Z</time></trkpt><trkpt lat="40.7432905" lon="14.8566748"><ele>702.1999999999999</ele><time>2026-04-04T13:44:16.973Z</time></trkpt><trkpt lat="40.7433245" lon="14.8565674"><ele>706.8</ele><time>2026-04-04T13:44:17.978Z</time></trkpt><trkpt lat="40.7433492" lon="14.8564354"><ele>711.4</ele><time>2026-04-04T13:44:18.974Z</time></trkpt><trkpt lat="40.7433575" lon="14.8563052"><ele>716.0</ele><time>2026-04-04T13:44:19.952Z</time></trkpt><trkpt lat="40.7433724" lon="14.8561772"><ele>716.0</ele><time>2026-04-04T13:44:20.971Z</time></trkpt><trkpt lat="40.7434059" lon="14.8560799"><ele>716.0</ele><time>2026-04-04T13:44:21.978Z</time></trkpt><trkpt lat="40.7434681" lon="14.8560264"><ele>716.0</ele><time>2026-04-04T13:44:22.969Z</time></trkpt><trkpt lat="40.7435311" lon="14.8559887"><ele>716.0</ele><time>2026-04-04T13:44:23.97Z</time></trkpt><trkpt lat="40.743603" lon="14.8560023"><ele>716.0</ele><time>2026-04-04T13:44:24.981Z</time></trkpt><trkpt lat="40.7436756" lon="14.8560653"><ele>716.0</ele><time>2026-04-04T13:44:25.976Z</time></trkpt><trkpt lat="40.7437455" lon="14.8561424"><ele>714.1666666666666</ele><time>2026-04-04T13:44:26.97Z</time></trkpt><trkpt lat="40.7438284" lon="14.8562288"><ele>712.3333333333333</ele><time>2026-04-04T13:44:27.963Z</time></trkpt><trkpt lat="40.7439102" lon="14.8563025"><ele>710.5</ele><time>2026-04-04T13:44:28.969Z</time></trkpt><trkpt lat="40.7439915" lon="14.8563548"><ele>708.6666666666666</ele><time>2026-04-04T13:44:30.035Z</time></trkpt><trkpt lat="40.7440647" lon="14.8563559"><ele>706.8333333333334</ele><time>2026-04-04T13:44:31.036Z</time></trkpt><trkpt lat="40.7441246" lon="14.8563221"><ele>705.0</ele><time>2026-04-04T13:44:31.976Z</time></trkpt><trkpt lat="40.7441855" lon="14.856235"><ele>705.0</ele><time>2026-04-04T13:44:33.967Z</time></trkpt><trkpt lat="40.7442028" lon="14.8560928"><ele>705.0</ele><time>2026-04-04T13:44:35.976Z</time></trkpt><trkpt lat="40.7441957" lon="14.8559745"><ele>705.0</ele><time>2026-04-04T13:44:37.024Z</time></trkpt><trkpt lat="40.7441965" lon="14.855847"><ele>705.0</ele><time>2026-04-04T13:44:38.027Z</time></trkpt><trkpt lat="40.7441986" lon="14.855708"><ele>705.0</ele><time>2026-04-04T13:44:38.968Z</time></trkpt><trkpt lat="40.7441975" lon="14.8555857"><ele>705.0</ele><time>2026-04-04T13:44:39.978Z</time></trkpt><trkpt lat="40.744214" lon="14.8554679"><ele>705.0</ele><time>2026-04-04T13:44:41.97Z</time></trkpt><trkpt lat="40.7442264" lon="14.8553344"><ele>705.0</ele><time>2026-04-04T13:44:43.973Z</time></trkpt><trkpt lat="40.7442624" lon="14.8552129"><ele>705.0</ele><time>2026-04-04T13:44:45.975Z</time></trkpt><trkpt lat="40.7443178" lon="14.8551484"><ele>705.0</ele><time>2026-04-04T13:44:46.981Z</time></trkpt><trkpt lat="40.7444363" lon="14.8550835"><ele>705.0</ele><time>2026-04-04T13:44:47.983Z</time></trkpt><trkpt lat="40.7445956" lon="14.8549225"><ele>705.0</ele><time>2026-04-04T13:44:48.969Z</time></trkpt><trkpt lat="40.744698" lon="14.8547898"><ele>705.0</ele><time>2026-04-04T13:44:49.971Z</time></trkpt><trkpt lat="40.7447495" lon="14.8546655"><ele>705.0</ele><time>2026-04-04T13:44:50.974Z</time></trkpt><trkpt lat="40.7447812" lon="14.8545576"><ele>705.0</ele><time>2026-04-04T13:44:51.982Z</time></trkpt><trkpt lat="40.7448204" lon="14.8544867"><ele>705.0</ele><time>2026-04-04T13:44:53.063Z</time></trkpt><trkpt lat="40.7450068" lon="14.8545405"><ele>705.0</ele><time>2026-04-04T13:44:54.972Z</time></trkpt><trkpt lat="40.7451079" lon="14.8545607"><ele>705.0</ele><time>2026-04-04T13:44:55.987Z</time></trkpt><trkpt lat="40.7452009" lon="14.8545515"><ele>704.75</ele><time>2026-04-04T13:44:57.055Z</time></trkpt><trkpt lat="40.7452885" lon="14.8545304"><ele>704.5</ele><time>2026-04-04T13:44:58.033Z</time></trkpt><trkpt lat="40.7453681" lon="14.8544212"><ele>704.25</ele><time>2026-04-04T13:44:59.949Z</time></trkpt><trkpt lat="40.7454177" lon="14.854291"><ele>704.0</ele><time>2026-04-04T13:45:01.965Z</time></trkpt><trkpt lat="40.7455383" lon="14.8542024"><ele>704.0</ele><time>2026-04-04T13:45:03.965Z</time></trkpt><trkpt lat="40.7456295" lon="14.8541848"><ele>704.0</ele><time>2026-04-04T13:45:05.052Z</time></trkpt><trkpt lat="40.7457266" lon="14.8541928"><ele>704.0</ele><time>2026-04-04T13:45:06.052Z</time></trkpt><trkpt lat="40.7458173" lon="14.8542449"><ele>704.0</ele><time>2026-04-04T13:45:06.977Z</time></trkpt><trkpt lat="40.7459156" lon="14.854319"><ele>704.0</ele><time>2026-04-04T13:45:07.969Z</time></trkpt><trkpt lat="40.7459909" lon="14.8543454"><ele>705.8333333333333</ele><time>2026-04-04T13:45:08.968Z</time></trkpt><trkpt lat="40.7460578" lon="14.8543582"><ele>707.6666666666666</ele><time>2026-04-04T13:45:09.968Z</time></trkpt><trkpt lat="40.746134" lon="14.8543679"><ele>709.5</ele><time>2026-04-04T13:45:10.977Z</time></trkpt><trkpt lat="40.7461997" lon="14.8543679"><ele>711.3333333333334</ele><time>2026-04-04T13:45:11.973Z</time></trkpt><trkpt lat="40.7462791" lon="14.8543"><ele>713.1666666666667</ele><time>2026-04-04T13:45:13.979Z</time></trkpt><trkpt lat="40.7463168" lon="14.8541836"><ele>715.0</ele><time>2026-04-04T13:45:15.985Z</time></trkpt><trkpt lat="40.7463739" lon="14.8540754"><ele>717.8</ele><time>2026-04-04T13:45:16.979Z</time></trkpt><trkpt lat="40.7464335" lon="14.8539558"><ele>720.6</ele><time>2026-04-04T13:45:17.956Z</time></trkpt><trkpt lat="40.7464884" lon="14.8538265"><ele>723.4000000000001</ele><time>2026-04-04T13:45:18.975Z</time></trkpt><trkpt lat="40.7465376" lon="14.8537164"><ele>726.2</ele><time>2026-04-04T13:45:19.983Z</time></trkpt><trkpt lat="40.746582" lon="14.8536515"><ele>729.0</ele><time>2026-04-04T13:45:21.037Z</time></trkpt><trkpt lat="40.7467016" lon="14.853629"><ele>729.0</ele><time>2026-04-04T13:45:23.047Z</time></trkpt><trkpt lat="40.7468141" lon="14.8536119"><ele>729.0</ele><time>2026-04-04T13:45:23.979Z</time></trkpt><trkpt lat="40.7469194" lon="14.8535599"><ele>729.0</ele><time>2026-04-04T13:45:24.98Z</time></trkpt><trkpt lat="40.7470087" lon="14.8534787"><ele>729.0</ele><time>2026-04-04T13:45:25.983Z</time></trkpt><trkpt lat="40.7470633" lon="14.8533837"><ele>729.0</ele><time>2026-04-04T13:45:27.026Z</time></trkpt><trkpt lat="40.7471113" lon="14.8532951"><ele>730.4000000000001</ele><time>2026-04-04T13:45:27.97Z</time></trkpt><trkpt lat="40.7471582" lon="14.8532317"><ele>731.8</ele><time>2026-04-04T13:45:28.978Z</time></trkpt><trkpt lat="40.7472324" lon="14.8532471"><ele>733.2</ele><time>2026-04-04T13:45:29.961Z</time></trkpt><trkpt lat="40.7473451" lon="14.853282"><ele>734.5999999999999</ele><time>2026-04-04T13:45:30.976Z</time></trkpt><trkpt lat="40.7474586" lon="14.8533073"><ele>736.0</ele><time>2026-04-04T13:45:31.972Z</time></trkpt><trkpt lat="40.7475755" lon="14.853311"><ele>736.0</ele><time>2026-04-04T13:45:33.008Z</time></trkpt><trkpt lat="40.7476962" lon="14.8532754"><ele>736.0</ele><time>2026-04-04T13:45:33.981Z</time></trkpt><trkpt lat="40.7478131" lon="14.853221"><ele>736.0</ele><time>2026-04-04T13:45:34.98Z</time></trkpt><trkpt lat="40.7479269" lon="14.8531609"><ele>736.0</ele><time>2026-04-04T13:45:35.975Z</time></trkpt><trkpt lat="40.7480197" lon="14.853083"><ele>734.1666666666667</ele><time>2026-04-04T13:45:36.98Z</time></trkpt><trkpt lat="40.7480974" lon="14.8530044"><ele>732.3333333333334</ele><time>2026-04-04T13:45:38.062Z</time></trkpt><trkpt lat="40.7481527" lon="14.8529384"><ele>730.5</ele><time>2026-04-04T13:45:38.962Z</time></trkpt><trkpt lat="40.7481743" lon="14.852855"><ele>728.6666666666666</ele><time>2026-04-04T13:45:39.971Z</time></trkpt><trkpt lat="40.7481838" lon="14.8527399"><ele>726.8333333333333</ele><time>2026-04-04T13:45:40.958Z</time></trkpt><trkpt lat="40.7481854" lon="14.852614"><ele>725.0</ele><time>2026-04-04T13:45:42.043Z</time></trkpt><trkpt lat="40.7481889" lon="14.8524984"><ele>725.0</ele><time>2026-04-04T13:45:43.015Z</time></trkpt><trkpt lat="40.7481875" lon="14.8524132"><ele>725.0</ele><time>2026-04-04T13:45:43.959Z</time></trkpt><trkpt lat="40.7481934" lon="14.8523256"><ele>725.0</ele><time>2026-04-04T13:45:47.959Z</time></trkpt><trkpt lat="40.7482047" lon="14.8524919"><ele>725.0</ele><time>2026-04-04T13:45:50.96Z</time></trkpt><trkpt lat="40.7482522" lon="14.85257"><ele>725.0</ele><time>2026-04-04T13:46:38.943Z</time></trkpt><trkpt lat="40.7482824" lon="14.8527142"><ele>725.0</ele><time>2026-04-04T13:47:23.977Z</time></trkpt><trkpt lat="40.7482891" lon="14.8528198"><ele>722.8</ele><time>2026-04-04T13:47:24.965Z</time></trkpt><trkpt lat="40.7483014" lon="14.8529187"><ele>720.6</ele><time>2026-04-04T13:47:25.963Z</time></trkpt><trkpt lat="40.7482903" lon="14.8530246"><ele>718.4000000000001</ele><time>2026-04-04T13:47:26.963Z</time></trkpt><trkpt lat="40.7482441" lon="14.8531484"><ele>716.2</ele><time>2026-04-04T13:47:27.984Z</time></trkpt><trkpt lat="40.7481975" lon="14.8532663"><ele>714.0</ele><time>2026-04-04T13:47:28.96Z</time></trkpt><trkpt lat="40.7481597" lon="14.8533834"><ele>710.0</ele><time>2026-04-04T13:47:29.964Z</time></trkpt><trkpt lat="40.7481152" lon="14.8534873"><ele>706.0</ele><time>2026-04-04T13:47:30.959Z</time></trkpt><trkpt lat="40.7480642" lon="14.8535894"><ele>702.0</ele><time>2026-04-04T13:47:31.965Z</time></trkpt><trkpt lat="40.7480151" lon="14.8536781"><ele>698.0</ele><time>2026-04-04T13:47:32.971Z</time></trkpt><trkpt lat="40.7479585" lon="14.8537594"><ele>694.0</ele><time>2026-04-04T13:47:33.97Z</time></trkpt><trkpt lat="40.7479082" lon="14.8538227"><ele>690.0</ele><time>2026-04-04T13:47:34.968Z</time></trkpt><trkpt lat="40.7478199" lon="14.8538769"><ele>690.0</ele><time>2026-04-04T13:47:36.966Z</time></trkpt><trkpt lat="40.7477462" lon="14.8538813"><ele>690.0</ele><time>2026-04-04T13:47:37.97Z</time></trkpt><trkpt lat="40.7476724" lon="14.8538848"><ele>690.0</ele><time>2026-04-04T13:47:38.97Z</time></trkpt><trkpt lat="40.7475953" lon="14.8538916"><ele>690.0</ele><time>2026-04-04T13:47:39.967Z</time></trkpt><trkpt lat="40.7475134" lon="14.853889"><ele>690.0</ele><time>2026-04-04T13:47:40.969Z</time></trkpt><trkpt lat="40.7474333" lon="14.8538768"><ele>690.0</ele><time>2026-04-04T13:47:41.966Z</time></trkpt><trkpt lat="40.7473343" lon="14.8539486"><ele>691.5</ele><time>2026-04-04T13:47:43.972Z</time></trkpt><trkpt lat="40.7472885" lon="14.8540428"><ele>693.0</ele><time>2026-04-04T13:47:44.971Z</time></trkpt><trkpt lat="40.7472365" lon="14.8541324"><ele>694.5</ele><time>2026-04-04T13:47:45.962Z</time></trkpt><trkpt lat="40.7471965" lon="14.8541987"><ele>696.0</ele><time>2026-04-04T13:47:47.968Z</time></trkpt><trkpt lat="40.7472267" lon="14.8543153"><ele>697.5</ele><time>2026-04-04T13:47:50.967Z</time></trkpt><trkpt lat="40.747299" lon="14.8543878"><ele>699.0</ele><time>2026-04-04T13:47:51.966Z</time></trkpt><trkpt lat="40.7473644" lon="14.8545005"><ele>699.0</ele><time>2026-04-04T13:47:52.962Z</time></trkpt><trkpt lat="40.7474172" lon="14.8546378"><ele>699.0</ele><time>2026-04-04T13:47:53.959Z</time></trkpt><trkpt lat="40.7474693" lon="14.8547875"><ele>699.0</ele><time>2026-04-04T13:47:54.968Z</time></trkpt><trkpt lat="40.7475304" lon="14.854943"><ele>699.0</ele><time>2026-04-04T13:47:55.959Z</time></trkpt><trkpt lat="40.7475907" lon="14.8550938"><ele>697.6</ele><time>2026-04-04T13:47:56.964Z</time></trkpt><trkpt lat="40.7476496" lon="14.8552291"><ele>696.2</ele><time>2026-04-04T13:47:57.965Z</time></trkpt><trkpt lat="40.7476867" lon="14.8553234"><ele>694.8000000000001</ele><time>2026-04-04T13:47:58.965Z</time></trkpt><trkpt lat="40.7476995" lon="14.8554149"><ele>693.4000000000001</ele><time>2026-04-04T13:47:59.963Z</time></trkpt><trkpt lat="40.7477025" lon="14.8555161"><ele>692.0</ele><time>2026-04-04T13:48:00.959Z</time></trkpt><trkpt lat="40.7476757" lon="14.8556656"><ele>692.0</ele><time>2026-04-04T13:48:02.965Z</time></trkpt><trkpt lat="40.7476363" lon="14.8558191"><ele>692.0</ele><time>2026-04-04T13:48:04.958Z</time></trkpt><trkpt lat="40.7476089" lon="14.8558955"><ele>692.0</ele><time>2026-04-04T13:48:05.966Z</time></trkpt><trkpt lat="40.7475891" lon="14.8559817"><ele>692.0</ele><time>2026-04-04T13:48:06.958Z</time></trkpt><trkpt lat="40.7475747" lon="14.8560802"><ele>692.0</ele><time>2026-04-04T13:48:07.968Z</time></trkpt><trkpt lat="40.74757" lon="14.8561805"><ele>692.0</ele><time>2026-04-04T13:48:08.945Z</time></trkpt><trkpt lat="40.7475805" lon="14.8562998"><ele>689.5</ele><time>2026-04-04T13:48:09.977Z</time></trkpt><trkpt lat="40.7475934" lon="14.8564101"><ele>687.0</ele><time>2026-04-04T13:48:10.949Z</time></trkpt><trkpt lat="40.7475961" lon="14.856521"><ele>684.5</ele><time>2026-04-04T13:48:11.975Z</time></trkpt><trkpt lat="40.7475824" lon="14.8566481"><ele>682.0</ele><time>2026-04-04T13:48:12.972Z</time></trkpt><trkpt lat="40.7475869" lon="14.8567621"><ele>679.5</ele><time>2026-04-04T13:48:13.964Z</time></trkpt><trkpt lat="40.747584" lon="14.8568779"><ele>677.0</ele><time>2026-04-04T13:48:14.953Z</time></trkpt><trkpt lat="40.7475829" lon="14.8569715"><ele>672.4000000000001</ele><time>2026-04-04T13:48:15.97Z</time></trkpt><trkpt lat="40.747553" lon="14.8570954"><ele>667.8000000000001</ele><time>2026-04-04T13:48:17.977Z</time></trkpt><trkpt lat="40.7476276" lon="14.8571878"><ele>663.2</ele><time>2026-04-04T13:48:19.971Z</time></trkpt><trkpt lat="40.7476969" lon="14.8572351"><ele>658.6</ele><time>2026-04-04T13:48:20.959Z</time></trkpt><trkpt lat="40.7477744" lon="14.8572844"><ele>654.0</ele><time>2026-04-04T13:48:21.963Z</time></trkpt><trkpt lat="40.7478598" lon="14.8573332"><ele>654.0</ele><time>2026-04-04T13:48:22.968Z</time></trkpt><trkpt lat="40.7479476" lon="14.85737"><ele>654.0</ele><time>2026-04-04T13:48:23.959Z</time></trkpt><trkpt lat="40.7480291" lon="14.8574168"><ele>654.0</ele><time>2026-04-04T13:48:24.969Z</time></trkpt><trkpt lat="40.7481133" lon="14.8574899"><ele>654.0</ele><time>2026-04-04T13:48:25.969Z</time></trkpt><trkpt lat="40.7482071" lon="14.8575856"><ele>654.0</ele><time>2026-04-04T13:48:26.966Z</time></trkpt><trkpt lat="40.7482964" lon="14.8576637"><ele>651.0</ele><time>2026-04-04T13:48:27.971Z</time></trkpt><trkpt lat="40.7483968" lon="14.8577363"><ele>648.0</ele><time>2026-04-04T13:48:28.976Z</time></trkpt><trkpt lat="40.7484847" lon="14.8577915"><ele>645.0</ele><time>2026-04-04T13:48:29.951Z</time></trkpt><trkpt lat="40.7485615" lon="14.8578323"><ele>642.0</ele><time>2026-04-04T13:48:30.966Z</time></trkpt><trkpt lat="40.7486322" lon="14.8578865"><ele>639.0</ele><time>2026-04-04T13:48:31.96Z</time></trkpt><trkpt lat="40.7487033" lon="14.8579476"><ele>638.6666666666666</ele><time>2026-04-04T13:48:32.974Z</time></trkpt><trkpt lat="40.748772" lon="14.8580062"><ele>638.3333333333334</ele><time>2026-04-04T13:48:33.971Z</time></trkpt><trkpt lat="40.7488334" lon="14.8580703"><ele>638.0</ele><time>2026-04-04T13:48:34.971Z</time></trkpt><trkpt lat="40.7488916" lon="14.8581424"><ele>637.6666666666667</ele><time>2026-04-04T13:48:35.968Z</time></trkpt><trkpt lat="40.7489537" lon="14.8581827"><ele>637.3333333333334</ele><time>2026-04-04T13:48:36.97Z</time></trkpt><trkpt lat="40.7490518" lon="14.8582543"><ele>637.0</ele><time>2026-04-04T13:48:38.974Z</time></trkpt><trkpt lat="40.7490504" lon="14.8583744"><ele>634.8333333333334</ele><time>2026-04-04T13:48:40.954Z</time></trkpt><trkpt lat="40.7490344" lon="14.8584853"><ele>632.6666666666667</ele><time>2026-04-04T13:48:42.969Z</time></trkpt><trkpt lat="40.7490355" lon="14.8586041"><ele>630.5</ele><time>2026-04-04T13:48:44.98Z</time></trkpt><trkpt lat="40.7490582" lon="14.8586982"><ele>628.3333333333334</ele><time>2026-04-04T13:48:46.964Z</time></trkpt><trkpt lat="40.7490834" lon="14.8587929"><ele>626.1666666666666</ele><time>2026-04-04T13:48:48.969Z</time></trkpt><trkpt lat="40.7491143" lon="14.8588859"><ele>624.0</ele><time>2026-04-04T13:48:50.975Z</time></trkpt><trkpt lat="40.7491448" lon="14.8589738"><ele>624.0</ele><time>2026-04-04T13:48:52.973Z</time></trkpt><trkpt lat="40.7491602" lon="14.8590692"><ele>624.0</ele><time>2026-04-04T13:48:54.942Z</time></trkpt><trkpt lat="40.7492026" lon="14.8591758"><ele>624.0</ele><time>2026-04-04T13:48:56.964Z</time></trkpt><trkpt lat="40.7492294" lon="14.8592959"><ele>624.0</ele><time>2026-04-04T13:48:58.971Z</time></trkpt><trkpt lat="40.7491958" lon="14.859378"><ele>624.0</ele><time>2026-04-04T13:49:00.978Z</time></trkpt><trkpt lat="40.7491262" lon="14.8594332"><ele>624.0</ele><time>2026-04-04T13:49:02.961Z</time></trkpt><trkpt lat="40.7490247" lon="14.8594527"><ele>620.5</ele><time>2026-04-04T13:49:04.964Z</time></trkpt><trkpt lat="40.7489395" lon="14.8594509"><ele>617.0</ele><time>2026-04-04T13:49:06.967Z</time></trkpt><trkpt lat="40.7489186" lon="14.8595299"><ele>613.5</ele><time>2026-04-04T13:49:08.946Z</time></trkpt><trkpt lat="40.749004" lon="14.8596363"><ele>610.0</ele><time>2026-04-04T13:49:10.975Z</time></trkpt><trkpt lat="40.7490784" lon="14.8597017"><ele>606.5</ele><time>2026-04-04T13:49:12.972Z</time></trkpt><trkpt lat="40.7491438" lon="14.859729"><ele>603.0</ele><time>2026-04-04T13:49:14.971Z</time></trkpt><trkpt lat="40.7492397" lon="14.8597321"><ele>603.0</ele><time>2026-04-04T13:49:16.971Z</time></trkpt><trkpt lat="40.7493074" lon="14.8597383"><ele>603.0</ele><time>2026-04-04T13:49:17.973Z</time></trkpt><trkpt lat="40.7493901" lon="14.8597333"><ele>603.0</ele><time>2026-04-04T13:49:18.975Z</time></trkpt><trkpt lat="40.7494659" lon="14.8597169"><ele>603.0</ele><time>2026-04-04T13:49:19.981Z</time></trkpt><trkpt lat="40.7495308" lon="14.8596838"><ele>603.0</ele><time>2026-04-04T13:49:21.974Z</time></trkpt><trkpt lat="40.7494372" lon="14.8598146"><ele>603.0</ele><time>2026-04-04T13:49:40.81Z</time></trkpt><trkpt lat="40.7493755" lon="14.8598933"><ele>603.0</ele><time>2026-04-04T13:49:41.962Z</time></trkpt><trkpt lat="40.7493244" lon="14.8599779"><ele>603.0</ele><time>2026-04-04T13:49:42.968Z</time></trkpt><trkpt lat="40.7492793" lon="14.8600487"><ele>603.0</ele><time>2026-04-04T13:49:43.976Z</time></trkpt><trkpt lat="40.7491957" lon="14.8601645"><ele>603.0</ele><time>2026-04-04T13:49:45.974Z</time></trkpt><trkpt lat="40.7491471" lon="14.86022"><ele>603.0</ele><time>2026-04-04T13:49:46.967Z</time></trkpt><trkpt lat="40.7490366" lon="14.8602993"><ele>599.3333333333334</ele><time>2026-04-04T13:49:48.978Z</time></trkpt><trkpt lat="40.7489765" lon="14.8603345"><ele>595.6666666666666</ele><time>2026-04-04T13:49:49.973Z</time></trkpt><trkpt lat="40.7489515" lon="14.8604268"><ele>592.0</ele><time>2026-04-04T13:49:51.986Z</time></trkpt><trkpt lat="40.7490367" lon="14.8604689"><ele>588.3333333333333</ele><time>2026-04-04T13:49:52.98Z</time></trkpt><trkpt lat="40.7491326" lon="14.8605055"><ele>584.6666666666666</ele><time>2026-04-04T13:49:53.979Z</time></trkpt><trkpt lat="40.7492151" lon="14.8605408"><ele>581.0</ele><time>2026-04-04T13:49:54.981Z</time></trkpt><trkpt lat="40.7492871" lon="14.8605513"><ele>581.0</ele><time>2026-04-04T13:49:55.982Z</time></trkpt><trkpt lat="40.7493537" lon="14.8605528"><ele>581.0</ele><time>2026-04-04T13:49:56.976Z</time></trkpt><trkpt lat="40.7494465" lon="14.8605695"><ele>581.0</ele><time>2026-04-04T13:49:58.981Z</time></trkpt><trkpt lat="40.7494282" lon="14.86065"><ele>581.0</ele><time>2026-04-04T13:50:00.984Z</time></trkpt><trkpt lat="40.7493615" lon="14.860733"><ele>581.0</ele><time>2026-04-04T13:50:02.983Z</time></trkpt><trkpt lat="40.749263" lon="14.8607781"><ele>581.0</ele><time>2026-04-04T13:50:04.968Z</time></trkpt><trkpt lat="40.7491733" lon="14.8608959"><ele>579.0</ele><time>2026-04-04T13:50:06.97Z</time></trkpt><trkpt lat="40.7491387" lon="14.8609732"><ele>577.0</ele><time>2026-04-04T13:50:07.975Z</time></trkpt><trkpt lat="40.7491222" lon="14.8610853"><ele>575.0</ele><time>2026-04-04T13:50:09.972Z</time></trkpt><trkpt lat="40.7491413" lon="14.8612042"><ele>573.0</ele><time>2026-04-04T13:50:11.972Z</time></trkpt><trkpt lat="40.7491818" lon="14.8612691"><ele>571.0</ele><time>2026-04-04T13:50:12.964Z</time></trkpt><trkpt lat="40.7492226" lon="14.8613426"><ele>569.0</ele><time>2026-04-04T13:50:13.955Z</time></trkpt><trkpt lat="40.7492628" lon="14.8614122"><ele>567.0</ele><time>2026-04-04T13:50:14.978Z</time></trkpt><trkpt lat="40.7492755" lon="14.8615462"><ele>567.0</ele><time>2026-04-04T13:50:16.986Z</time></trkpt><trkpt lat="40.7492707" lon="14.8616349"><ele>567.0</ele><time>2026-04-04T13:50:17.982Z</time></trkpt><trkpt lat="40.749267" lon="14.8617262"><ele>567.0</ele><time>2026-04-04T13:50:18.977Z</time></trkpt><trkpt lat="40.7492519" lon="14.8618109"><ele>567.0</ele><time>2026-04-04T13:50:19.976Z</time></trkpt><trkpt lat="40.7492249" lon="14.8618961"><ele>567.0</ele><time>2026-04-04T13:50:20.971Z</time></trkpt><trkpt lat="40.7491884" lon="14.8619822"><ele>567.0</ele><time>2026-04-04T13:50:21.977Z</time></trkpt><trkpt lat="40.7491321" lon="14.8620659"><ele>567.0</ele><time>2026-04-04T13:50:22.972Z</time></trkpt><trkpt lat="40.7490745" lon="14.8621553"><ele>563.8333333333334</ele><time>2026-04-04T13:50:23.975Z</time></trkpt><trkpt lat="40.74902" lon="14.862251"><ele>560.6666666666666</ele><time>2026-04-04T13:50:24.972Z</time></trkpt><trkpt lat="40.7489795" lon="14.8623365"><ele>557.5</ele><time>2026-04-04T13:50:25.981Z</time></trkpt><trkpt lat="40.7489422" lon="14.8624179"><ele>554.3333333333333</ele><time>2026-04-04T13:50:26.977Z</time></trkpt><trkpt lat="40.7489199" lon="14.8625032"><ele>551.1666666666666</ele><time>2026-04-04T13:50:27.963Z</time></trkpt><trkpt lat="40.74897" lon="14.8625822"><ele>548.0</ele><time>2026-04-04T13:50:29.984Z</time></trkpt><trkpt lat="40.7490474" lon="14.8625555"><ele>548.0</ele><time>2026-04-04T13:50:31.978Z</time></trkpt><trkpt lat="40.7490931" lon="14.862437"><ele>548.0</ele><time>2026-04-04T13:50:33.975Z</time></trkpt><trkpt lat="40.749128" lon="14.8623408"><ele>548.0</ele><time>2026-04-04T13:50:34.984Z</time></trkpt><trkpt lat="40.7491539" lon="14.8622336"><ele>548.0</ele><time>2026-04-04T13:50:36.979Z</time></trkpt><trkpt lat="40.7491137" lon="14.8623329"><ele>548.0</ele><time>2026-04-04T13:50:40.98Z</time></trkpt><trkpt lat="40.7491134" lon="14.8625344"><ele>545.3333333333333</ele><time>2026-04-04T13:50:42.979Z</time></trkpt><trkpt lat="40.7491225" lon="14.8626494"><ele>542.6666666666666</ele><time>2026-04-04T13:50:43.973Z</time></trkpt><trkpt lat="40.749128" lon="14.8627469"><ele>540.0</ele><time>2026-04-04T13:50:44.98Z</time></trkpt><trkpt lat="40.7491295" lon="14.8628504"><ele>537.3333333333334</ele><time>2026-04-04T13:50:45.969Z</time></trkpt><trkpt lat="40.7491028" lon="14.8629386"><ele>534.6666666666667</ele><time>2026-04-04T13:50:46.977Z</time></trkpt><trkpt lat="40.7490516" lon="14.8630614"><ele>532.0</ele><time>2026-04-04T13:50:48.993Z</time></trkpt><trkpt lat="40.748974" lon="14.8630908"><ele>532.0</ele><time>2026-04-04T13:50:50.98Z</time></trkpt><trkpt lat="40.7489557" lon="14.8631834"><ele>532.0</ele><time>2026-04-04T13:50:52.981Z</time></trkpt><trkpt lat="40.7490528" lon="14.8632878"><ele>532.0</ele><time>2026-04-04T13:50:54.975Z</time></trkpt><trkpt lat="40.749107" lon="14.8633787"><ele>532.0</ele><time>2026-04-04T13:50:56.977Z</time></trkpt><trkpt lat="40.7491043" lon="14.8634666"><ele>532.0</ele><time>2026-04-04T13:50:58.976Z</time></trkpt><trkpt lat="40.7490857" lon="14.8635698"><ele>532.0</ele><time>2026-04-04T13:51:00.982Z</time></trkpt><trkpt lat="40.7490205" lon="14.8636407"><ele>534.6666666666667</ele><time>2026-04-04T13:51:02.974Z</time></trkpt><trkpt lat="40.7489755" lon="14.863709"><ele>537.3333333333334</ele><time>2026-04-04T13:51:03.974Z</time></trkpt><trkpt lat="40.7489328" lon="14.8637953"><ele>540.0</ele><time>2026-04-04T13:51:04.974Z</time></trkpt><trkpt lat="40.7489128" lon="14.8638916"><ele>542.6666666666666</ele><time>2026-04-04T13:51:05.978Z</time></trkpt><trkpt lat="40.7489067" lon="14.8639907"><ele>545.3333333333333</ele><time>2026-04-04T13:51:06.977Z</time></trkpt><trkpt lat="40.748972" lon="14.8641081"><ele>548.0</ele><time>2026-04-04T13:51:08.954Z</time></trkpt><trkpt lat="40.7491137" lon="14.8623329"><ele>548.0</ele><time>2026-04-04T13:50:40.98Z</time></trkpt><trkpt lat="40.7491134" lon="14.8625344"><ele>548.0</ele><time>2026-04-04T13:50:42.979Z</time></trkpt><trkpt lat="40.7491225" lon="14.8626494"><ele>548.0</ele><time>2026-04-04T13:50:43.973Z</time></trkpt><trkpt lat="40.749128" lon="14.8627469"><ele>548.0</ele><time>2026-04-04T13:50:44.98Z</time></trkpt><trkpt lat="40.7491295" lon="14.8628504"><ele>548.0</ele><time>2026-04-04T13:50:45.969Z</time></trkpt><trkpt lat="40.7491028" lon="14.8629386"><ele>544.8</ele><time>2026-04-04T13:50:46.977Z</time></trkpt><trkpt lat="40.7490516" lon="14.8630614"><ele>541.5999999999999</ele><time>2026-04-04T13:50:48.993Z</time></trkpt><trkpt lat="40.748974" lon="14.8630908"><ele>538.4000000000001</ele><time>2026-04-04T13:50:50.98Z</time></trkpt><trkpt lat="40.7489557" lon="14.8631834"><ele>535.2</ele><time>2026-04-04T13:50:52.981Z</time></trkpt><trkpt lat="40.7490528" lon="14.8632878"><ele>532.0</ele><time>2026-04-04T13:50:54.975Z</time></trkpt><trkpt lat="40.749107" lon="14.8633787"><ele>529.1666666666667</ele><time>2026-04-04T13:50:56.977Z</time></trkpt><trkpt lat="40.7491043" lon="14.8634666"><ele>526.3333333333334</ele><time>2026-04-04T13:50:58.976Z</time></trkpt><trkpt lat="40.7490857" lon="14.8635698"><ele>523.5</ele><time>2026-04-04T13:51:00.982Z</time></trkpt><trkpt lat="40.7490205" lon="14.8636407"><ele>520.6666666666666</ele><time>2026-04-04T13:51:02.974Z</time></trkpt><trkpt lat="40.7489755" lon="14.863709"><ele>517.8333333333333</ele><time>2026-04-04T13:51:03.974Z</time></trkpt><trkpt lat="40.7489328" lon="14.8637953"><ele>515.0</ele><time>2026-04-04T13:51:04.974Z</time></trkpt><trkpt lat="40.7489128" lon="14.8638916"><ele>515.0</ele><time>2026-04-04T13:51:05.978Z</time></trkpt><trkpt lat="40.7489067" lon="14.8639907"><ele>515.0</ele><time>2026-04-04T13:51:06.977Z</time></trkpt><trkpt lat="40.748972" lon="14.8641081"><ele>515.0</ele><time>2026-04-04T13:51:08.954Z</time></trkpt><trkpt lat="40.7489882" lon="14.8641936"><ele>515.0</ele><time>2026-04-04T13:51:13.976Z</time></trkpt><trkpt lat="40.7489356" lon="14.8642653"><ele>515.0</ele><time>2026-04-04T13:51:16.984Z</time></trkpt><trkpt lat="40.7488377" lon="14.8642657"><ele>515.0</ele><time>2026-04-04T13:51:19.972Z</time></trkpt><trkpt lat="40.7487984" lon="14.8643372"><ele>512.0</ele><time>2026-04-04T13:51:21.977Z</time></trkpt><trkpt lat="40.7488062" lon="14.864446"><ele>509.0</ele><time>2026-04-04T13:51:23.963Z</time></trkpt><trkpt lat="40.748879" lon="14.8645307"><ele>506.0</ele><time>2026-04-04T13:51:26.979Z</time></trkpt><trkpt lat="40.7489933" lon="14.8645828"><ele>503.0</ele><time>2026-04-04T13:51:28.973Z</time></trkpt><trkpt lat="40.7490782" lon="14.8645957"><ele>500.0</ele><time>2026-04-04T13:51:29.979Z</time></trkpt><trkpt lat="40.7491586" lon="14.8645947"><ele>499.99999999999994</ele><time>2026-04-04T13:51:30.985Z</time></trkpt><trkpt lat="40.7491495" lon="14.8647383"><ele>500.0</ele><time>2026-04-04T13:51:36.971Z</time></trkpt><trkpt lat="40.7491373" lon="14.8648448"><ele>500.0</ele><time>2026-04-04T13:51:38.976Z</time></trkpt><trkpt lat="40.7491336" lon="14.8649476"><ele>500.0</ele><time>2026-04-04T13:51:40.984Z</time></trkpt><trkpt lat="40.7491667" lon="14.8650728"><ele>499.99999999999994</ele><time>2026-04-04T13:51:42.985Z</time></trkpt><trkpt lat="40.7491912" lon="14.8651695"><ele>500.0</ele><time>2026-04-04T13:51:44.982Z</time></trkpt><trkpt lat="40.7492097" lon="14.8652583"><ele>497.99999999999994</ele><time>2026-04-04T13:51:45.97Z</time></trkpt><trkpt lat="40.7492199" lon="14.8653564"><ele>496.0</ele><time>2026-04-04T13:51:46.971Z</time></trkpt><trkpt lat="40.7492334" lon="14.865466"><ele>494.0</ele><time>2026-04-04T13:51:47.95Z</time></trkpt><trkpt lat="40.749228" lon="14.8655615"><ele>492.0</ele><time>2026-04-04T13:51:48.976Z</time></trkpt><trkpt lat="40.7492114" lon="14.8656558"><ele>489.99999999999994</ele><time>2026-04-04T13:51:49.973Z</time></trkpt><trkpt lat="40.7491838" lon="14.865768"><ele>488.0</ele><time>2026-04-04T13:51:50.961Z</time></trkpt><trkpt lat="40.749163" lon="14.8658815"><ele>485.75</ele><time>2026-04-04T13:51:51.969Z</time></trkpt><trkpt lat="40.7491552" lon="14.8660225"><ele>483.5</ele><time>2026-04-04T13:51:52.984Z</time></trkpt><trkpt lat="40.749151" lon="14.8661772"><ele>481.25</ele><time>2026-04-04T13:51:53.978Z</time></trkpt><trkpt lat="40.7491412" lon="14.8663746"><ele>479.0</ele><time>2026-04-04T13:51:54.981Z</time></trkpt><trkpt lat="40.7491408" lon="14.8665914"><ele>479.0</ele><time>2026-04-04T13:51:55.985Z</time></trkpt><trkpt lat="40.7491446" lon="14.8667521"><ele>479.0</ele><time>2026-04-04T13:51:56.969Z</time></trkpt><trkpt lat="40.7491636" lon="14.8668985"><ele>479.0</ele><time>2026-04-04T13:51:57.967Z</time></trkpt><trkpt lat="40.7491773" lon="14.8670553"><ele>479.0</ele><time>2026-04-04T13:51:58.979Z</time></trkpt><trkpt lat="40.7491929" lon="14.8671931"><ele>477.99999999999994</ele><time>2026-04-04T13:51:59.977Z</time></trkpt><trkpt lat="40.7492128" lon="14.8672996"><ele>477.0</ele><time>2026-04-04T13:52:00.98Z</time></trkpt><trkpt lat="40.7492337" lon="14.8673898"><ele>476.0</ele><time>2026-04-04T13:52:01.985Z</time></trkpt><trkpt lat="40.7492642" lon="14.8674865"><ele>475.0</ele><time>2026-04-04T13:52:03.971Z</time></trkpt><trkpt lat="40.7492964" lon="14.8673344"><ele>473.99999999999994</ele><time>2026-04-04T13:52:07.974Z</time></trkpt><trkpt lat="40.7492858" lon="14.8672419"><ele>473.0</ele><time>2026-04-04T13:52:08.977Z</time></trkpt><trkpt lat="40.7492977" lon="14.8671306"><ele>472.99999999999994</ele><time>2026-04-04T13:52:09.984Z</time></trkpt><trkpt lat="40.7493071" lon="14.8670398"><ele>473.0</ele><time>2026-04-04T13:52:10.979Z</time></trkpt><trkpt lat="40.7493294" lon="14.8669162"><ele>473.0</ele><time>2026-04-04T13:52:12.98Z</time></trkpt><trkpt lat="40.7493435" lon="14.8667533"><ele>473.0</ele><time>2026-04-04T13:52:26.97Z</time></trkpt><trkpt lat="40.749352" lon="14.8666531"><ele>472.99999999999994</ele><time>2026-04-04T13:52:27.987Z</time></trkpt><trkpt lat="40.7493686" lon="14.866555"><ele>473.0</ele><time>2026-04-04T13:52:28.976Z</time></trkpt><trkpt lat="40.749391" lon="14.8664575"><ele>470.0</ele><time>2026-04-04T13:52:29.981Z</time></trkpt><trkpt lat="40.7494227" lon="14.8663283"><ele>466.99999999999994</ele><time>2026-04-04T13:52:30.979Z</time></trkpt><trkpt lat="40.7494459" lon="14.8661908"><ele>463.99999999999994</ele><time>2026-04-04T13:52:31.973Z</time></trkpt><trkpt lat="40.7494745" lon="14.8660561"><ele>461.0</ele><time>2026-04-04T13:52:32.976Z</time></trkpt><trkpt lat="40.7495066" lon="14.8659428"><ele>458.0</ele><time>2026-04-04T13:52:33.978Z</time></trkpt><trkpt lat="40.7495468" lon="14.8658231"><ele>458.0</ele><time>2026-04-04T13:52:34.977Z</time></trkpt><trkpt lat="40.7495773" lon="14.8657172"><ele>457.99999999999994</ele><time>2026-04-04T13:52:35.975Z</time></trkpt><trkpt lat="40.7496012" lon="14.8656047"><ele>457.99999999999994</ele><time>2026-04-04T13:52:36.976Z</time></trkpt><trkpt lat="40.7496019" lon="14.8654813"><ele>458.0</ele><time>2026-04-04T13:52:37.983Z</time></trkpt><trkpt lat="40.7495919" lon="14.8653427"><ele>458.0</ele><time>2026-04-04T13:52:38.973Z</time></trkpt><trkpt lat="40.7495771" lon="14.8652089"><ele>459.3333333333333</ele><time>2026-04-04T13:52:39.978Z</time></trkpt><trkpt lat="40.7495768" lon="14.8650925"><ele>460.66666666666663</ele><time>2026-04-04T13:52:40.981Z</time></trkpt><trkpt lat="40.7496099" lon="14.8649739"><ele>462.0</ele><time>2026-04-04T13:52:41.972Z</time></trkpt><trkpt lat="40.7496553" lon="14.8648624"><ele>463.33333333333337</ele><time>2026-04-04T13:52:42.974Z</time></trkpt><trkpt lat="40.7497017" lon="14.8647623"><ele>464.6666666666667</ele><time>2026-04-04T13:52:43.975Z</time></trkpt><trkpt lat="40.7497304" lon="14.8646749"><ele>466.0</ele><time>2026-04-04T13:52:44.979Z</time></trkpt><trkpt lat="40.7497424" lon="14.8645784"><ele>466.00000000000006</ele><time>2026-04-04T13:52:45.983Z</time></trkpt><trkpt lat="40.7497514" lon="14.86447"><ele>466.0</ele><time>2026-04-04T13:52:46.975Z</time></trkpt><trkpt lat="40.7497562" lon="14.8643659"><ele>466.0</ele><time>2026-04-04T13:52:47.975Z</time></trkpt><trkpt lat="40.7497639" lon="14.8642737"><ele>466.0</ele><time>2026-04-04T13:52:48.975Z</time></trkpt><trkpt lat="40.7497759" lon="14.8641465"><ele>466.00000000000006</ele><time>2026-04-04T13:52:50.974Z</time></trkpt><trkpt lat="40.749832" lon="14.8640872"><ele>466.0</ele><time>2026-04-04T13:52:52.972Z</time></trkpt><trkpt lat="40.7498697" lon="14.8639787"><ele>468.20000000000005</ele><time>2026-04-04T13:52:54.976Z</time></trkpt><trkpt lat="40.749881" lon="14.8638561"><ele>470.40000000000003</ele><time>2026-04-04T13:52:56.974Z</time></trkpt><trkpt lat="40.749892" lon="14.8637536"><ele>472.6</ele><time>2026-04-04T13:52:58.972Z</time></trkpt><trkpt lat="40.7499317" lon="14.8636495"><ele>474.8</ele><time>2026-04-04T13:53:00.974Z</time></trkpt><trkpt lat="40.7500037" lon="14.8635264"><ele>477.0</ele><time>2026-04-04T13:53:02.975Z</time></trkpt><trkpt lat="40.7500435" lon="14.8634473"><ele>478.5</ele><time>2026-04-04T13:53:03.973Z</time></trkpt><trkpt lat="40.7500682" lon="14.8633644"><ele>480.0</ele><time>2026-04-04T13:53:04.961Z</time></trkpt><trkpt lat="40.7500945" lon="14.8632829"><ele>481.5</ele><time>2026-04-04T13:53:05.969Z</time></trkpt><trkpt lat="40.7501399" lon="14.8632018"><ele>483.0</ele><time>2026-04-04T13:53:06.975Z</time></trkpt><trkpt lat="40.7501741" lon="14.8631189"><ele>484.5</ele><time>2026-04-04T13:53:07.977Z</time></trkpt><trkpt lat="40.7502228" lon="14.8629941"><ele>486.0</ele><time>2026-04-04T13:53:09.977Z</time></trkpt><trkpt lat="40.7502896" lon="14.8628861"><ele>487.0</ele><time>2026-04-04T13:53:11.969Z</time></trkpt><trkpt lat="40.750402" lon="14.8628474"><ele>488.0</ele><time>2026-04-04T13:53:12.976Z</time></trkpt><trkpt lat="40.7505222" lon="14.8627617"><ele>489.0</ele><time>2026-04-04T13:53:13.969Z</time></trkpt><trkpt lat="40.7506199" lon="14.8626849"><ele>490.0</ele><time>2026-04-04T13:53:14.966Z</time></trkpt><trkpt lat="40.7507358" lon="14.8625843"><ele>490.0</ele><time>2026-04-04T13:53:15.957Z</time></trkpt><trkpt lat="40.7508235" lon="14.8624871"><ele>490.0</ele><time>2026-04-04T13:53:16.962Z</time></trkpt><trkpt lat="40.7508667" lon="14.8623802"><ele>490.0</ele><time>2026-04-04T13:53:17.97Z</time></trkpt><trkpt lat="40.7508703" lon="14.8622613"><ele>490.0</ele><time>2026-04-04T13:53:18.968Z</time></trkpt><trkpt lat="40.7508954" lon="14.8621547"><ele>490.0</ele><time>2026-04-04T13:53:19.97Z</time></trkpt><trkpt lat="40.7509163" lon="14.8620515"><ele>490.00000000000006</ele><time>2026-04-04T13:53:20.969Z</time></trkpt><trkpt lat="40.7509516" lon="14.8619456"><ele>490.0</ele><time>2026-04-04T13:53:21.969Z</time></trkpt><trkpt lat="40.7509925" lon="14.8618556"><ele>490.0</ele><time>2026-04-04T13:53:22.972Z</time></trkpt><trkpt lat="40.7510439" lon="14.8617756"><ele>490.0</ele><time>2026-04-04T13:53:23.963Z</time></trkpt><trkpt lat="40.751093" lon="14.861669"><ele>490.00000000000006</ele><time>2026-04-04T13:53:24.969Z</time></trkpt><trkpt lat="40.751132" lon="14.861574"><ele>490.0</ele><time>2026-04-04T13:53:25.97Z</time></trkpt><trkpt lat="40.7511726" lon="14.8614846"><ele>492.2</ele><time>2026-04-04T13:53:26.977Z</time></trkpt><trkpt lat="40.7512521" lon="14.8614232"><ele>494.4</ele><time>2026-04-04T13:53:27.978Z</time></trkpt><trkpt lat="40.7513493" lon="14.8613666"><ele>496.6</ele><time>2026-04-04T13:53:28.969Z</time></trkpt><trkpt lat="40.7514361" lon="14.8613289"><ele>498.8</ele><time>2026-04-04T13:53:29.98Z</time></trkpt><trkpt lat="40.7515398" lon="14.861285"><ele>501.0</ele><time>2026-04-04T13:53:30.974Z</time></trkpt><trkpt lat="40.7516163" lon="14.8612589"><ele>501.0</ele><time>2026-04-04T13:53:31.976Z</time></trkpt><trkpt lat="40.7517299" lon="14.8612047"><ele>501.0</ele><time>2026-04-04T13:53:33.976Z</time></trkpt><trkpt lat="40.7518119" lon="14.8612007"><ele>501.0</ele><time>2026-04-04T13:53:35.964Z</time></trkpt><trkpt lat="40.7517622" lon="14.8612722"><ele>501.0</ele><time>2026-04-04T13:53:41.973Z</time></trkpt><trkpt lat="40.7516984" lon="14.8612779"><ele>501.0</ele><time>2026-04-04T13:53:44.975Z</time></trkpt><trkpt lat="40.7517802" lon="14.8612709"><ele>501.0</ele><time>2026-04-04T13:53:47.962Z</time></trkpt><trkpt lat="40.7518871" lon="14.8612937"><ele>505.8333333333333</ele><time>2026-04-04T13:53:49.983Z</time></trkpt><trkpt lat="40.7519636" lon="14.8613245"><ele>510.66666666666663</ele><time>2026-04-04T13:53:51.965Z</time></trkpt><trkpt lat="40.7520261" lon="14.8613141"><ele>515.5</ele><time>2026-04-04T13:53:53.969Z</time></trkpt><trkpt lat="40.7520294" lon="14.8614338"><ele>520.3333333333333</ele><time>2026-04-04T13:53:58.965Z</time></trkpt><trkpt lat="40.7520146" lon="14.8615221"><ele>525.1666666666666</ele><time>2026-04-04T13:54:00.975Z</time></trkpt><trkpt lat="40.7519759" lon="14.8616138"><ele>530.0</ele><time>2026-04-04T13:54:02.968Z</time></trkpt><trkpt lat="40.7519134" lon="14.8616857"><ele>527.8333333333333</ele><time>2026-04-04T13:54:04.984Z</time></trkpt><trkpt lat="40.7518367" lon="14.8617764"><ele>525.6666666666666</ele><time>2026-04-04T13:54:06.973Z</time></trkpt><trkpt lat="40.7518092" lon="14.8618911"><ele>523.5</ele><time>2026-04-04T13:54:08.974Z</time></trkpt><trkpt lat="40.7517721" lon="14.8620364"><ele>521.3333333333334</ele><time>2026-04-04T13:54:10.974Z</time></trkpt><trkpt lat="40.7517445" lon="14.8621143"><ele>519.1666666666667</ele><time>2026-04-04T13:54:11.979Z</time></trkpt><trkpt lat="40.7517212" lon="14.8621945"><ele>517.0</ele><time>2026-04-04T13:54:12.981Z</time></trkpt><trkpt lat="40.7516866" lon="14.8623373"><ele>517.0</ele><time>2026-04-04T13:54:13.982Z</time></trkpt><trkpt lat="40.7515616" lon="14.8625644"><ele>517.0</ele><time>2026-04-04T13:54:14.99Z</time></trkpt><trkpt lat="40.7514356" lon="14.8627297"><ele>517.0</ele><time>2026-04-04T13:54:15.973Z</time></trkpt><trkpt lat="40.7513282" lon="14.8628274"><ele>516.3333333333334</ele><time>2026-04-04T13:54:16.963Z</time></trkpt><trkpt lat="40.7512773" lon="14.8629121"><ele>515.6666666666667</ele><time>2026-04-04T13:54:17.963Z</time></trkpt><trkpt lat="40.7512738" lon="14.8629977"><ele>515.0</ele><time>2026-04-04T13:54:18.966Z</time></trkpt><trkpt lat="40.7513164" lon="14.8630628"><ele>514.3333333333334</ele><time>2026-04-04T13:54:19.952Z</time></trkpt><trkpt lat="40.7514021" lon="14.8630931"><ele>513.6666666666666</ele><time>2026-04-04T13:54:20.965Z</time></trkpt><trkpt lat="40.7514822" lon="14.8630961"><ele>513.0</ele><time>2026-04-04T13:54:21.946Z</time></trkpt><trkpt lat="40.7515537" lon="14.8630958"><ele>513.0</ele><time>2026-04-04T13:54:22.969Z</time></trkpt><trkpt lat="40.7516564" lon="14.8630344"><ele>513.0</ele><time>2026-04-04T13:54:24.95Z</time></trkpt><trkpt lat="40.7517208" lon="14.8629707"><ele>513.0</ele><time>2026-04-04T13:54:26.953Z</time></trkpt><trkpt lat="40.7518433" lon="14.862905"><ele>513.0</ele><time>2026-04-04T13:54:28.976Z</time></trkpt><trkpt lat="40.7519095" lon="14.8628468"><ele>513.0</ele><time>2026-04-04T13:54:29.962Z</time></trkpt><trkpt lat="40.7519617" lon="14.8627767"><ele>515.0</ele><time>2026-04-04T13:54:30.973Z</time></trkpt><trkpt lat="40.752007" lon="14.8626919"><ele>517.0</ele><time>2026-04-04T13:54:31.967Z</time></trkpt><trkpt lat="40.7520646" lon="14.8626248"><ele>519.0</ele><time>2026-04-04T13:54:32.974Z</time></trkpt><trkpt lat="40.752132" lon="14.8625639"><ele>521.0</ele><time>2026-04-04T13:54:33.97Z</time></trkpt><trkpt lat="40.7522132" lon="14.8625056"><ele>523.0</ele><time>2026-04-04T13:54:34.969Z</time></trkpt><trkpt lat="40.7522756" lon="14.8624376"><ele>525.0</ele><time>2026-04-04T13:54:35.959Z</time></trkpt><trkpt lat="40.752347" lon="14.862347"><ele>527.75</ele><time>2026-04-04T13:54:36.957Z</time></trkpt><trkpt lat="40.7524412" lon="14.8622463"><ele>530.5</ele><time>2026-04-04T13:54:37.963Z</time></trkpt><trkpt lat="40.7525348" lon="14.8621551"><ele>533.25</ele><time>2026-04-04T13:54:38.979Z</time></trkpt><trkpt lat="40.7526187" lon="14.8620596"><ele>536.0</ele><time>2026-04-04T13:54:39.961Z</time></trkpt><trkpt lat="40.7526939" lon="14.8619625"><ele>538.4</ele><time>2026-04-04T13:54:40.961Z</time></trkpt><trkpt lat="40.7527709" lon="14.8618686"><ele>540.8</ele><time>2026-04-04T13:54:41.968Z</time></trkpt><trkpt lat="40.7528495" lon="14.8617696"><ele>543.1999999999999</ele><time>2026-04-04T13:54:42.971Z</time></trkpt><trkpt lat="40.7529198" lon="14.8616881"><ele>545.6</ele><time>2026-04-04T13:54:43.974Z</time></trkpt><trkpt lat="40.7529751" lon="14.8616248"><ele>548.0</ele><time>2026-04-04T13:54:44.949Z</time></trkpt><trkpt lat="40.7530348" lon="14.8614882"><ele>549.0</ele><time>2026-04-04T13:54:46.963Z</time></trkpt><trkpt lat="40.7530615" lon="14.8614024"><ele>550.0</ele><time>2026-04-04T13:54:47.971Z</time></trkpt><trkpt lat="40.7531049" lon="14.8613157"><ele>551.0</ele><time>2026-04-04T13:54:48.969Z</time></trkpt><trkpt lat="40.7531445" lon="14.8612344"><ele>552.0</ele><time>2026-04-04T13:54:49.969Z</time></trkpt><trkpt lat="40.7531904" lon="14.8611348"><ele>553.0</ele><time>2026-04-04T13:54:50.967Z</time></trkpt><trkpt lat="40.7532435" lon="14.8610427"><ele>554.0</ele><time>2026-04-04T13:54:51.969Z</time></trkpt><trkpt lat="40.7532981" lon="14.860959"><ele>555.6</ele><time>2026-04-04T13:54:52.942Z</time></trkpt><trkpt lat="40.7533518" lon="14.8608671"><ele>557.2</ele><time>2026-04-04T13:54:53.959Z</time></trkpt><trkpt lat="40.7533946" lon="14.8607701"><ele>558.8000000000001</ele><time>2026-04-04T13:54:54.968Z</time></trkpt><trkpt lat="40.7534272" lon="14.8606517"><ele>560.4</ele><time>2026-04-04T13:54:55.971Z</time></trkpt><trkpt lat="40.753437" lon="14.8605284"><ele>562.0</ele><time>2026-04-04T13:54:56.96Z</time></trkpt><trkpt lat="40.7534399" lon="14.8604118"><ele>562.0</ele><time>2026-04-04T13:54:57.96Z</time></trkpt><trkpt lat="40.7534422" lon="14.8602995"><ele>562.0</ele><time>2026-04-04T13:54:58.974Z</time></trkpt><trkpt lat="40.7534519" lon="14.8602016"><ele>562.0</ele><time>2026-04-04T13:54:59.973Z</time></trkpt><trkpt lat="40.7535165" lon="14.8600632"><ele>562.0</ele><time>2026-04-04T13:55:01.971Z</time></trkpt><trkpt lat="40.7535748" lon="14.8599835"><ele>562.0</ele><time>2026-04-04T13:55:02.976Z</time></trkpt><trkpt lat="40.7536332" lon="14.8598879"><ele>565.0000000000001</ele><time>2026-04-04T13:55:03.974Z</time></trkpt><trkpt lat="40.7536999" lon="14.8598214"><ele>568.0</ele><time>2026-04-04T13:55:04.975Z</time></trkpt><trkpt lat="40.7537741" lon="14.8597877"><ele>571.0</ele><time>2026-04-04T13:55:05.977Z</time></trkpt><trkpt lat="40.7538457" lon="14.8597755"><ele>574.0</ele><time>2026-04-04T13:55:06.971Z</time></trkpt><trkpt lat="40.7539133" lon="14.8597796"><ele>577.0</ele><time>2026-04-04T13:55:07.967Z</time></trkpt><trkpt lat="40.7539831" lon="14.8597697"><ele>580.0000000000001</ele><time>2026-04-04T13:55:08.974Z</time></trkpt><trkpt lat="40.7540464" lon="14.8597713"><ele>583.0</ele><time>2026-04-04T13:55:09.981Z</time></trkpt><trkpt lat="40.7541099" lon="14.8597323"><ele>583.0</ele><time>2026-04-04T13:55:11.959Z</time></trkpt><trkpt lat="40.7540517" lon="14.859671"><ele>583.0</ele><time>2026-04-04T13:55:14.975Z</time></trkpt><trkpt lat="40.7539972" lon="14.8596091"><ele>583.0</ele><time>2026-04-04T13:55:16.969Z</time></trkpt><trkpt lat="40.7540633" lon="14.8595504"><ele>583.0</ele><time>2026-04-04T13:55:18.968Z</time></trkpt><trkpt lat="40.7541739" lon="14.859574"><ele>583.0</ele><time>2026-04-04T13:55:20.966Z</time></trkpt><trkpt lat="40.7542573" lon="14.8595628"><ele>583.0</ele><time>2026-04-04T13:55:21.957Z</time></trkpt><trkpt lat="40.7543261" lon="14.8595374"><ele>583.0</ele><time>2026-04-04T13:55:22.958Z</time></trkpt><trkpt lat="40.7544002" lon="14.859512"><ele>583.0</ele><time>2026-04-04T13:55:23.962Z</time></trkpt><trkpt lat="40.7544665" lon="14.8594815"><ele>583.0</ele><time>2026-04-04T13:55:24.975Z</time></trkpt><trkpt lat="40.7545073" lon="14.8593964"><ele>583.0</ele><time>2026-04-04T13:55:26.962Z</time></trkpt><trkpt lat="40.7544313" lon="14.8593895"><ele>583.0</ele><time>2026-04-04T13:55:28.961Z</time></trkpt><trkpt lat="40.7543676" lon="14.8593452"><ele>583.0</ele><time>2026-04-04T13:55:29.967Z</time></trkpt><trkpt lat="40.7544276" lon="14.8592768"><ele>587.6</ele><time>2026-04-04T13:55:34.964Z</time></trkpt><trkpt lat="40.754574" lon="14.8592084"><ele>592.1999999999999</ele><time>2026-04-04T13:55:36.972Z</time></trkpt><trkpt lat="40.7546618" lon="14.8591765"><ele>596.8</ele><time>2026-04-04T13:55:37.963Z</time></trkpt><trkpt lat="40.7547442" lon="14.8591432"><ele>601.4</ele><time>2026-04-04T13:55:38.967Z</time></trkpt><trkpt lat="40.7548213" lon="14.8590877"><ele>606.0</ele><time>2026-04-04T13:55:40.039Z</time></trkpt><trkpt lat="40.7548993" lon="14.85901"><ele>606.0</ele><time>2026-04-04T13:55:41.035Z</time></trkpt><trkpt lat="40.7549982" lon="14.8589254"><ele>606.0</ele><time>2026-04-04T13:55:41.965Z</time></trkpt><trkpt lat="40.7550994" lon="14.858842"><ele>606.0</ele><time>2026-04-04T13:55:42.965Z</time></trkpt><trkpt lat="40.7551937" lon="14.8587597"><ele>606.0</ele><time>2026-04-04T13:55:43.973Z</time></trkpt><trkpt lat="40.7552932" lon="14.8586785"><ele>605.6</ele><time>2026-04-04T13:55:44.981Z</time></trkpt><trkpt lat="40.7553878" lon="14.8586231"><ele>605.2</ele><time>2026-04-04T13:55:45.97Z</time></trkpt><trkpt lat="40.7554752" lon="14.8585528"><ele>604.8</ele><time>2026-04-04T13:55:47.052Z</time></trkpt><trkpt lat="40.7555494" lon="14.8584875"><ele>604.4</ele><time>2026-04-04T13:55:47.967Z</time></trkpt><trkpt lat="40.7556278" lon="14.8584413"><ele>604.0</ele><time>2026-04-04T13:55:48.97Z</time></trkpt><trkpt lat="40.7556858" lon="14.858392"><ele>609.8</ele><time>2026-04-04T13:55:49.965Z</time></trkpt><trkpt lat="40.7557025" lon="14.8582651"><ele>615.5999999999999</ele><time>2026-04-04T13:55:51.971Z</time></trkpt><trkpt lat="40.75563" lon="14.8581539"><ele>621.4</ele><time>2026-04-04T13:55:53.975Z</time></trkpt><trkpt lat="40.7555814" lon="14.8580619"><ele>627.1999999999999</ele><time>2026-04-04T13:55:55.961Z</time></trkpt><trkpt lat="40.7556474" lon="14.8580301"><ele>633.0</ele><time>2026-04-04T13:55:58.97Z</time></trkpt><trkpt lat="40.7557344" lon="14.8580429"><ele>633.0</ele><time>2026-04-04T13:56:01.042Z</time></trkpt><trkpt lat="40.7558268" lon="14.8580454"><ele>633.0</ele><time>2026-04-04T13:56:03.041Z</time></trkpt><trkpt lat="40.7559729" lon="14.8579983"><ele>633.0</ele><time>2026-04-04T13:56:04.98Z</time></trkpt><trkpt lat="40.7560646" lon="14.8579427"><ele>633.0</ele><time>2026-04-04T13:56:05.967Z</time></trkpt><trkpt lat="40.7561501" lon="14.8578651"><ele>633.0</ele><time>2026-04-04T13:56:06.972Z</time></trkpt><trkpt lat="40.7562485" lon="14.857779"><ele>629.25</ele><time>2026-04-04T13:56:07.958Z</time></trkpt><trkpt lat="40.7563638" lon="14.8577047"><ele>625.5</ele><time>2026-04-04T13:56:08.963Z</time></trkpt><trkpt lat="40.7564811" lon="14.8576594"><ele>621.75</ele><time>2026-04-04T13:56:10.05Z</time></trkpt><trkpt lat="40.7565778" lon="14.8575926"><ele>618.0</ele><time>2026-04-04T13:56:11.037Z</time></trkpt><trkpt lat="40.7566695" lon="14.8575151"><ele>623.75</ele><time>2026-04-04T13:56:11.982Z</time></trkpt><trkpt lat="40.7567655" lon="14.8574223"><ele>629.5</ele><time>2026-04-04T13:56:12.976Z</time></trkpt><trkpt lat="40.7568641" lon="14.8573175"><ele>635.25</ele><time>2026-04-04T13:56:13.98Z</time></trkpt><trkpt lat="40.7569582" lon="14.8572228"><ele>641.0</ele><time>2026-04-04T13:56:14.976Z</time></trkpt><trkpt lat="40.7570576" lon="14.8571318"><ele>641.0</ele><time>2026-04-04T13:56:15.98Z</time></trkpt><trkpt lat="40.7571645" lon="14.8570537"><ele>641.0</ele><time>2026-04-04T13:56:16.964Z</time></trkpt><trkpt lat="40.7572702" lon="14.85699"><ele>641.0</ele><time>2026-04-04T13:56:18.042Z</time></trkpt><trkpt lat="40.757347" lon="14.8569125"><ele>641.0</ele><time>2026-04-04T13:56:18.974Z</time></trkpt><trkpt lat="40.7573959" lon="14.856831"><ele>641.0</ele><time>2026-04-04T13:56:20.039Z</time></trkpt><trkpt lat="40.757436" lon="14.8567494"><ele>643.8</ele><time>2026-04-04T13:56:20.961Z</time></trkpt><trkpt lat="40.7574815" lon="14.8566477"><ele>646.5999999999999</ele><time>2026-04-04T13:56:22.039Z</time></trkpt><trkpt lat="40.7575471" lon="14.8565432"><ele>649.4</ele><time>2026-04-04T13:56:23.042Z</time></trkpt><trkpt lat="40.7576122" lon="14.8564464"><ele>652.2</ele><time>2026-04-04T13:56:23.959Z</time></trkpt><trkpt lat="40.7576912" lon="14.8563344"><ele>655.0</ele><time>2026-04-04T13:56:24.966Z</time></trkpt><trkpt lat="40.7577913" lon="14.8562268"><ele>655.0</ele><time>2026-04-04T13:56:25.969Z</time></trkpt><trkpt lat="40.7579034" lon="14.8561033"><ele>655.0</ele><time>2026-04-04T13:56:26.975Z</time></trkpt><trkpt lat="40.7580095" lon="14.8560102"><ele>655.0</ele><time>2026-04-04T13:56:28.043Z</time></trkpt><trkpt lat="40.7581188" lon="14.8559062"><ele>655.0</ele><time>2026-04-04T13:56:28.942Z</time></trkpt><trkpt lat="40.7582136" lon="14.8558065"><ele>660.2</ele><time>2026-04-04T13:56:29.97Z</time></trkpt><trkpt lat="40.7582775" lon="14.8556995"><ele>665.4</ele><time>2026-04-04T13:56:30.958Z</time></trkpt><trkpt lat="40.7583332" lon="14.8556117"><ele>670.5999999999999</ele><time>2026-04-04T13:56:32.012Z</time></trkpt><trkpt lat="40.7584" lon="14.8555558"><ele>675.8</ele><time>2026-04-04T13:56:33.023Z</time></trkpt><trkpt lat="40.7584864" lon="14.8554988"><ele>681.0</ele><time>2026-04-04T13:56:33.961Z</time></trkpt><trkpt lat="40.7585677" lon="14.8554092"><ele>681.0</ele><time>2026-04-04T13:56:34.964Z</time></trkpt><trkpt lat="40.758648" lon="14.8553135"><ele>681.0</ele><time>2026-04-04T13:56:36.066Z</time></trkpt><trkpt lat="40.7587466" lon="14.8552114"><ele>681.0</ele><time>2026-04-04T13:56:37.047Z</time></trkpt><trkpt lat="40.7588489" lon="14.8551257"><ele>681.0</ele><time>2026-04-04T13:56:38.045Z</time></trkpt><trkpt lat="40.7589573" lon="14.8550293"><ele>687.5</ele><time>2026-04-04T13:56:38.97Z</time></trkpt><trkpt lat="40.7590731" lon="14.8549302"><ele>694.0</ele><time>2026-04-04T13:56:39.974Z</time></trkpt><trkpt lat="40.7591859" lon="14.8548469"><ele>700.5</ele><time>2026-04-04T13:56:41.062Z</time></trkpt><trkpt lat="40.7592878" lon="14.8547891"><ele>707.0</ele><time>2026-04-04T13:56:42.048Z</time></trkpt><trkpt lat="40.7593594" lon="14.8547595"><ele>705.1666666666666</ele><time>2026-04-04T13:56:42.971Z</time></trkpt><trkpt lat="40.7594183" lon="14.8547193"><ele>703.3333333333333</ele><time>2026-04-04T13:56:43.95Z</time></trkpt><trkpt lat="40.7594744" lon="14.8546018"><ele>701.5</ele><time>2026-04-04T13:56:45.96Z</time></trkpt><trkpt lat="40.7594927" lon="14.8545199"><ele>699.6666666666666</ele><time>2026-04-04T13:56:46.965Z</time></trkpt><trkpt lat="40.7595128" lon="14.8544291"><ele>697.8333333333334</ele><time>2026-04-04T13:56:47.955Z</time></trkpt><trkpt lat="40.7595482" lon="14.854311"><ele>696.0</ele><time>2026-04-04T13:56:48.967Z</time></trkpt><trkpt lat="40.7595969" lon="14.8541487"><ele>701.0</ele><time>2026-04-04T13:56:49.978Z</time></trkpt><trkpt lat="40.7596621" lon="14.8539868"><ele>706.0</ele><time>2026-04-04T13:56:51.034Z</time></trkpt><trkpt lat="40.7596896" lon="14.853852"><ele>711.0</ele><time>2026-04-04T13:56:52.009Z</time></trkpt><trkpt lat="40.7596954" lon="14.8537478"><ele>716.0</ele><time>2026-04-04T13:56:53.053Z</time></trkpt><trkpt lat="40.7596877" lon="14.8536548"><ele>721.0</ele><time>2026-04-04T13:56:53.982Z</time></trkpt><trkpt lat="40.7596933" lon="14.8535212"><ele>723.0</ele><time>2026-04-04T13:56:54.981Z</time></trkpt><trkpt lat="40.7596946" lon="14.8533926"><ele>725.0</ele><time>2026-04-04T13:56:55.978Z</time></trkpt><trkpt lat="40.7596781" lon="14.8532711"><ele>727.0</ele><time>2026-04-04T13:56:56.975Z</time></trkpt><trkpt lat="40.759656" lon="14.8531533"><ele>729.0</ele><time>2026-04-04T13:56:57.979Z</time></trkpt><trkpt lat="40.759657" lon="14.8530317"><ele>731.0</ele><time>2026-04-04T13:56:58.967Z</time></trkpt><trkpt lat="40.759656" lon="14.8528962"><ele>731.0</ele><time>2026-04-04T13:57:00.099Z</time></trkpt><trkpt lat="40.759637" lon="14.8527565"><ele>731.0</ele><time>2026-04-04T13:57:00.973Z</time></trkpt><trkpt lat="40.7596062" lon="14.8526116"><ele>731.0</ele><time>2026-04-04T13:57:01.992Z</time></trkpt><trkpt lat="40.7595702" lon="14.85248"><ele>731.0</ele><time>2026-04-04T13:57:02.988Z</time></trkpt><trkpt lat="40.7595656" lon="14.8523531"><ele>731.0</ele><time>2026-04-04T13:57:03.985Z</time></trkpt><trkpt lat="40.7595921" lon="14.8522518"><ele>730.0</ele><time>2026-04-04T13:57:04.984Z</time></trkpt><trkpt lat="40.7596611" lon="14.852118"><ele>729.0</ele><time>2026-04-04T13:57:05.985Z</time></trkpt><trkpt lat="40.7597147" lon="14.8519773"><ele>728.0</ele><time>2026-04-04T13:57:07.004Z</time></trkpt><trkpt lat="40.7597413" lon="14.851877"><ele>727.0</ele><time>2026-04-04T13:57:08.011Z</time></trkpt><trkpt lat="40.7597531" lon="14.8516866"><ele>725.25</ele><time>2026-04-04T13:57:10.048Z</time></trkpt><trkpt lat="40.75975" lon="14.8515278"><ele>723.5</ele><time>2026-04-04T13:57:11.041Z</time></trkpt><trkpt lat="40.7597255" lon="14.8513837"><ele>721.75</ele><time>2026-04-04T13:57:12.046Z</time></trkpt><trkpt lat="40.7596901" lon="14.8512399"><ele>720.0</ele><time>2026-04-04T13:57:12.984Z</time></trkpt><trkpt lat="40.7596559" lon="14.8510885"><ele>720.8333333333334</ele><time>2026-04-04T13:57:13.964Z</time></trkpt><trkpt lat="40.7596199" lon="14.8509519"><ele>721.6666666666666</ele><time>2026-04-04T13:57:14.972Z</time></trkpt><trkpt lat="40.7595945" lon="14.8508358"><ele>722.5</ele><time>2026-04-04T13:57:15.967Z</time></trkpt><trkpt lat="40.7595786" lon="14.8507436"><ele>723.3333333333333</ele><time>2026-04-04T13:57:16.946Z</time></trkpt><trkpt lat="40.7595612" lon="14.8506607"><ele>724.1666666666666</ele><time>2026-04-04T13:57:18.959Z</time></trkpt><trkpt lat="40.7595575" lon="14.8505695"><ele>725.0</ele><time>2026-04-04T13:57:27.98Z</time></trkpt><trkpt lat="40.75952" lon="14.8504847"><ele>725.0</ele><time>2026-04-04T13:57:30.976Z</time></trkpt><trkpt lat="40.7594842" lon="14.8503786"><ele>725.0</ele><time>2026-04-04T13:57:32.973Z</time></trkpt><trkpt lat="40.7594609" lon="14.8502369"><ele>725.0</ele><time>2026-04-04T13:57:34.973Z</time></trkpt><trkpt lat="40.7594497" lon="14.8501318"><ele>725.0</ele><time>2026-04-04T13:57:35.977Z</time></trkpt><trkpt lat="40.7594248" lon="14.8500214"><ele>725.0</ele><time>2026-04-04T13:57:36.982Z</time></trkpt><trkpt lat="40.7593992" lon="14.8499222"><ele>725.0</ele><time>2026-04-04T13:57:38.978Z</time></trkpt><trkpt lat="40.7594493" lon="14.8498405"><ele>722.4</ele><time>2026-04-04T13:57:40.978Z</time></trkpt><trkpt lat="40.7595139" lon="14.8497813"><ele>719.8</ele><time>2026-04-04T13:57:42.961Z</time></trkpt><trkpt lat="40.7596108" lon="14.8497078"><ele>717.2</ele><time>2026-04-04T13:57:44.979Z</time></trkpt><trkpt lat="40.7596879" lon="14.8496267"><ele>714.6</ele><time>2026-04-04T13:57:45.974Z</time></trkpt><trkpt lat="40.7597615" lon="14.8495527"><ele>712.0</ele><time>2026-04-04T13:57:46.976Z</time></trkpt><trkpt lat="40.7598391" lon="14.8495053"><ele>712.0</ele><time>2026-04-04T13:57:47.965Z</time></trkpt><trkpt lat="40.7599084" lon="14.8494658"><ele>712.0</ele><time>2026-04-04T13:57:48.97Z</time></trkpt><trkpt lat="40.7599745" lon="14.8494238"><ele>712.0</ele><time>2026-04-04T13:57:49.973Z</time></trkpt><trkpt lat="40.7600322" lon="14.84936"><ele>712.0</ele><time>2026-04-04T13:57:50.976Z</time></trkpt><trkpt lat="40.7600876" lon="14.8492909"><ele>712.0</ele><time>2026-04-04T13:57:52.043Z</time></trkpt><trkpt lat="40.7601358" lon="14.8492132"><ele>712.0</ele><time>2026-04-04T13:57:53.028Z</time></trkpt><trkpt lat="40.7601967" lon="14.8491329"><ele>707.2</ele><time>2026-04-04T13:57:53.975Z</time></trkpt><trkpt lat="40.7602569" lon="14.849057"><ele>702.4000000000001</ele><time>2026-04-04T13:57:54.968Z</time></trkpt><trkpt lat="40.7602938" lon="14.848987"><ele>697.5999999999999</ele><time>2026-04-04T13:57:55.962Z</time></trkpt><trkpt lat="40.7603529" lon="14.8488783"><ele>692.8</ele><time>2026-04-04T13:57:57.969Z</time></trkpt><trkpt lat="40.7603551" lon="14.8486791"><ele>688.0</ele><time>2026-04-04T13:57:59.968Z</time></trkpt><trkpt lat="40.760348" lon="14.8485737"><ele>688.0000000000001</ele><time>2026-04-04T13:58:01.007Z</time></trkpt><trkpt lat="40.7603322" lon="14.8484808"><ele>688.0</ele><time>2026-04-04T13:58:01.979Z</time></trkpt><trkpt lat="40.7603201" lon="14.8483889"><ele>688.0</ele><time>2026-04-04T13:58:02.971Z</time></trkpt><trkpt lat="40.7603077" lon="14.8482969"><ele>688.0</ele><time>2026-04-04T13:58:03.967Z</time></trkpt><trkpt lat="40.7602907" lon="14.8482128"><ele>688.0</ele><time>2026-04-04T13:58:04.968Z</time></trkpt><trkpt lat="40.7602733" lon="14.8481251"><ele>688.0000000000001</ele><time>2026-04-04T13:58:05.971Z</time></trkpt><trkpt lat="40.7602835" lon="14.8480173"><ele>688.0</ele><time>2026-04-04T13:58:07.957Z</time></trkpt><trkpt lat="40.7602879" lon="14.847907"><ele>688.0</ele><time>2026-04-04T13:58:10.06Z</time></trkpt><trkpt lat="40.7603054" lon="14.8478221"><ele>688.0</ele><time>2026-04-04T13:58:12.041Z</time></trkpt><trkpt lat="40.7603299" lon="14.8477306"><ele>688.0</ele><time>2026-04-04T13:58:13.982Z</time></trkpt><trkpt lat="40.7603446" lon="14.8476279"><ele>688.0</ele><time>2026-04-04T13:58:15.982Z</time></trkpt><trkpt lat="40.7603592" lon="14.8475457"><ele>688.0</ele><time>2026-04-04T13:58:17.988Z</time></trkpt><trkpt lat="40.760382" lon="14.847446"><ele>688.0</ele><time>2026-04-04T13:58:19.987Z</time></trkpt><trkpt lat="40.7604155" lon="14.8473327"><ele>685.4</ele><time>2026-04-04T13:58:21.975Z</time></trkpt><trkpt lat="40.7604573" lon="14.8472154"><ele>682.8</ele><time>2026-04-04T13:58:23.982Z</time></trkpt><trkpt lat="40.7605038" lon="14.847085"><ele>680.2</ele><time>2026-04-04T13:58:25.981Z</time></trkpt><trkpt lat="40.7605519" lon="14.8469581"><ele>677.6</ele><time>2026-04-04T13:58:27.974Z</time></trkpt><trkpt lat="40.7605914" lon="14.8468429"><ele>675.0</ele><time>2026-04-04T13:58:29.974Z</time></trkpt><trkpt lat="40.7606392" lon="14.8467185"><ele>675.0</ele><time>2026-04-04T13:58:31.977Z</time></trkpt><trkpt lat="40.760686" lon="14.8466292"><ele>675.0</ele><time>2026-04-04T13:58:33.98Z</time></trkpt><trkpt lat="40.7607462" lon="14.8466719"><ele>675.0</ele><time>2026-04-04T13:58:37.973Z</time></trkpt><trkpt lat="40.7607612" lon="14.8467619"><ele>675.0</ele><time>2026-04-04T13:58:39.982Z</time></trkpt><trkpt lat="40.7607695" lon="14.8468577"><ele>675.0</ele><time>2026-04-04T13:58:41.978Z</time></trkpt><trkpt lat="40.7607756" lon="14.8469511"><ele>675.0</ele><time>2026-04-04T13:58:43.972Z</time></trkpt><trkpt lat="40.7608392" lon="14.8470206"><ele>675.0</ele><time>2026-04-04T13:58:47.055Z</time></trkpt><trkpt lat="40.7609144" lon="14.8470207"><ele>675.0</ele><time>2026-04-04T13:58:48.976Z</time></trkpt><trkpt lat="40.7610208" lon="14.8470246"><ele>675.0</ele><time>2026-04-04T13:58:51.089Z</time></trkpt><trkpt lat="40.7611408" lon="14.8470262"><ele>675.0</ele><time>2026-04-04T13:58:53.022Z</time></trkpt><trkpt lat="40.7612639" lon="14.8470597"><ele>675.0</ele><time>2026-04-04T13:58:54.974Z</time></trkpt><trkpt lat="40.7613657" lon="14.8470703"><ele>670.5</ele><time>2026-04-04T13:58:56.97Z</time></trkpt><trkpt lat="40.7613934" lon="14.8469956"><ele>666.0</ele><time>2026-04-04T13:59:00.055Z</time></trkpt><trkpt lat="40.7613315" lon="14.8469145"><ele>661.5</ele><time>2026-04-04T13:59:02.979Z</time></trkpt><trkpt lat="40.7612475" lon="14.8468736"><ele>657.0</ele><time>2026-04-04T13:59:05.968Z</time></trkpt><trkpt lat="40.7612278" lon="14.8467695"><ele>652.5</ele><time>2026-04-04T13:59:08.97Z</time></trkpt><trkpt lat="40.7612626" lon="14.8466602"><ele>648.0</ele><time>2026-04-04T13:59:11.045Z</time></trkpt><trkpt lat="40.7612929" lon="14.8464971"><ele>646.0</ele><time>2026-04-04T13:59:12.958Z</time></trkpt><trkpt lat="40.761289" lon="14.846358"><ele>644.0</ele><time>2026-04-04T13:59:13.963Z</time></trkpt><trkpt lat="40.7612785" lon="14.8462252"><ele>642.0</ele><time>2026-04-04T13:59:14.961Z</time></trkpt><trkpt lat="40.7612669" lon="14.8461079"><ele>640.0</ele><time>2026-04-04T13:59:15.961Z</time></trkpt><trkpt lat="40.7612666" lon="14.8459916"><ele>638.0</ele><time>2026-04-04T13:59:16.965Z</time></trkpt><trkpt lat="40.761267" lon="14.8458894"><ele>635.3333333333333</ele><time>2026-04-04T13:59:17.968Z</time></trkpt><trkpt lat="40.7612552" lon="14.8458003"><ele>632.6666666666666</ele><time>2026-04-04T13:59:18.975Z</time></trkpt><trkpt lat="40.7612517" lon="14.8456977"><ele>630.0</ele><time>2026-04-04T13:59:20.07Z</time></trkpt><trkpt lat="40.7612431" lon="14.8455848"><ele>627.3333333333334</ele><time>2026-04-04T13:59:21.043Z</time></trkpt><trkpt lat="40.7612234" lon="14.8455045"><ele>624.6666666666667</ele><time>2026-04-04T13:59:21.966Z</time></trkpt><trkpt lat="40.7612222" lon="14.8454098"><ele>622.0</ele><time>2026-04-04T13:59:23.967Z</time></trkpt><trkpt lat="40.7612868" lon="14.8453269"><ele>622.0</ele><time>2026-04-04T13:59:26.976Z</time></trkpt><trkpt lat="40.7613355" lon="14.8452717"><ele>622.0</ele><time>2026-04-04T13:59:28.973Z</time></trkpt><trkpt lat="40.7613971" lon="14.8452108"><ele>622.0</ele><time>2026-04-04T13:59:30.951Z</time></trkpt><trkpt lat="40.7614796" lon="14.8451574"><ele>622.0</ele><time>2026-04-04T13:59:32.975Z</time></trkpt><trkpt lat="40.7615509" lon="14.8450917"><ele>622.0</ele><time>2026-04-04T13:59:34.956Z</time></trkpt><trkpt lat="40.7615955" lon="14.8449683"><ele>622.0</ele><time>2026-04-04T13:59:36.975Z</time></trkpt><trkpt lat="40.7616334" lon="14.8448225"><ele>620.75</ele><time>2026-04-04T13:59:38.972Z</time></trkpt><trkpt lat="40.7616985" lon="14.8447023"><ele>619.5</ele><time>2026-04-04T13:59:40.997Z</time></trkpt><trkpt lat="40.7617836" lon="14.8445788"><ele>618.25</ele><time>2026-04-04T13:59:43.06Z</time></trkpt><trkpt lat="40.7618713" lon="14.8444868"><ele>617.0</ele><time>2026-04-04T13:59:44.976Z</time></trkpt><trkpt lat="40.7619687" lon="14.8443913"><ele>612.5</ele><time>2026-04-04T13:59:46.974Z</time></trkpt><trkpt lat="40.7620166" lon="14.8443233"><ele>608.0</ele><time>2026-04-04T13:59:47.978Z</time></trkpt><trkpt lat="40.7620903" lon="14.8442519"><ele>603.5</ele><time>2026-04-04T13:59:48.954Z</time></trkpt><trkpt lat="40.7621688" lon="14.844162"><ele>599.0</ele><time>2026-04-04T13:59:50.973Z</time></trkpt><trkpt lat="40.7622309" lon="14.8440991"><ele>594.5</ele><time>2026-04-04T13:59:53.051Z</time></trkpt><trkpt lat="40.762223" lon="14.8442012"><ele>590.0</ele><time>2026-04-04T13:59:57.967Z</time></trkpt><trkpt lat="40.7622041" lon="14.8442827"><ele>590.0000000000001</ele><time>2026-04-04T14:00:01.092Z</time></trkpt><trkpt lat="40.7622596" lon="14.8443411"><ele>590.0</ele><time>2026-04-04T14:00:05.97Z</time></trkpt><trkpt lat="40.7623314" lon="14.8442991"><ele>590.0</ele><time>2026-04-04T14:00:07.982Z</time></trkpt><trkpt lat="40.7623879" lon="14.8442597"><ele>590.0</ele><time>2026-04-04T14:00:08.97Z</time></trkpt><trkpt lat="40.7624525" lon="14.8442167"><ele>590.0</ele><time>2026-04-04T14:00:09.985Z</time></trkpt><trkpt lat="40.7625165" lon="14.8441582"><ele>590.0000000000001</ele><time>2026-04-04T14:00:10.969Z</time></trkpt><trkpt lat="40.7625788" lon="14.8440929"><ele>590.0</ele><time>2026-04-04T14:00:11.965Z</time></trkpt><trkpt lat="40.7626388" lon="14.8439996"><ele>590.0</ele><time>2026-04-04T14:00:13.036Z</time></trkpt><trkpt lat="40.7626898" lon="14.8439132"><ele>590.0</ele><time>2026-04-04T14:00:13.96Z</time></trkpt><trkpt lat="40.7627361" lon="14.8438285"><ele>590.0</ele><time>2026-04-04T14:00:14.964Z</time></trkpt><trkpt lat="40.7627961" lon="14.8437413"><ele>590.0</ele><time>2026-04-04T14:00:15.967Z</time></trkpt><trkpt lat="40.7628483" lon="14.8436616"><ele>590.0</ele><time>2026-04-04T14:00:16.958Z</time></trkpt><trkpt lat="40.7628893" lon="14.8435668"><ele>590.0</ele><time>2026-04-04T14:00:17.968Z</time></trkpt><trkpt lat="40.7629163" lon="14.8434757"><ele>585.4</ele><time>2026-04-04T14:00:18.959Z</time></trkpt><trkpt lat="40.7629338" lon="14.8433883"><ele>580.8</ele><time>2026-04-04T14:00:19.965Z</time></trkpt><trkpt lat="40.7629592" lon="14.8432475"><ele>576.2</ele><time>2026-04-04T14:00:21.968Z</time></trkpt><trkpt lat="40.7629959" lon="14.8430725"><ele>571.6</ele><time>2026-04-04T14:00:23.972Z</time></trkpt><trkpt lat="40.7630293" lon="14.8429343"><ele>567.0</ele><time>2026-04-04T14:00:25.97Z</time></trkpt><trkpt lat="40.7630642" lon="14.8428616"><ele>567.0</ele><time>2026-04-04T14:00:26.972Z</time></trkpt><trkpt lat="40.7631225" lon="14.8427923"><ele>567.0</ele><time>2026-04-04T14:00:27.969Z</time></trkpt><trkpt lat="40.7631783" lon="14.8427122"><ele>567.0</ele><time>2026-04-04T14:00:28.963Z</time></trkpt><trkpt lat="40.7632489" lon="14.8426389"><ele>567.0</ele><time>2026-04-04T14:00:29.968Z</time></trkpt><trkpt lat="40.7633181" lon="14.842569"><ele>567.0</ele><time>2026-04-04T14:00:30.965Z</time></trkpt><trkpt lat="40.7633752" lon="14.8425076"><ele>567.0</ele><time>2026-04-04T14:00:31.953Z</time></trkpt><trkpt lat="40.7634347" lon="14.8424276"><ele>566.6</ele><time>2026-04-04T14:00:32.963Z</time></trkpt><trkpt lat="40.7634899" lon="14.8423182"><ele>566.2</ele><time>2026-04-04T14:00:33.957Z</time></trkpt><trkpt lat="40.7635322" lon="14.8422141"><ele>565.8</ele><time>2026-04-04T14:00:34.961Z</time></trkpt><trkpt lat="40.7635673" lon="14.8420784"><ele>565.4</ele><time>2026-04-04T14:00:35.963Z</time></trkpt><trkpt lat="40.7635869" lon="14.8419245"><ele>565.0</ele><time>2026-04-04T14:00:36.968Z</time></trkpt><trkpt lat="40.7636151" lon="14.8417807"><ele>563.1666666666667</ele><time>2026-04-04T14:00:38.036Z</time></trkpt><trkpt lat="40.7636533" lon="14.8416593"><ele>561.3333333333334</ele><time>2026-04-04T14:00:38.972Z</time></trkpt><trkpt lat="40.7636845" lon="14.8415363"><ele>559.5</ele><time>2026-04-04T14:00:39.971Z</time></trkpt><trkpt lat="40.763716" lon="14.8414329"><ele>557.6666666666666</ele><time>2026-04-04T14:00:40.957Z</time></trkpt><trkpt lat="40.7637559" lon="14.841352"><ele>555.8333333333333</ele><time>2026-04-04T14:00:42.042Z</time></trkpt><trkpt lat="40.7638073" lon="14.8412801"><ele>554.0</ele><time>2026-04-04T14:00:43.042Z</time></trkpt><trkpt lat="40.7638646" lon="14.84123"><ele>554.0</ele><time>2026-04-04T14:00:43.967Z</time></trkpt><trkpt lat="40.7639222" lon="14.8411625"><ele>554.0</ele><time>2026-04-04T14:00:44.967Z</time></trkpt><trkpt lat="40.7639862" lon="14.8410916"><ele>554.0</ele><time>2026-04-04T14:00:46.001Z</time></trkpt><trkpt lat="40.7640481" lon="14.841039"><ele>554.0</ele><time>2026-04-04T14:00:47.056Z</time></trkpt><trkpt lat="40.764118" lon="14.8409807"><ele>554.0</ele><time>2026-04-04T14:00:48.054Z</time></trkpt><trkpt lat="40.7641963" lon="14.8409138"><ele>554.0</ele><time>2026-04-04T14:00:48.967Z</time></trkpt><trkpt lat="40.7642832" lon="14.8408462"><ele>553.6666666666666</ele><time>2026-04-04T14:00:49.965Z</time></trkpt><trkpt lat="40.764356" lon="14.8407915"><ele>553.3333333333333</ele><time>2026-04-04T14:00:50.989Z</time></trkpt><trkpt lat="40.7644225" lon="14.8407419"><ele>553.0</ele><time>2026-04-04T14:00:52.044Z</time></trkpt><trkpt lat="40.7644858" lon="14.8407139"><ele>552.6666666666666</ele><time>2026-04-04T14:00:53.036Z</time></trkpt><trkpt lat="40.7645467" lon="14.8406762"><ele>552.3333333333334</ele><time>2026-04-04T14:00:53.969Z</time></trkpt><trkpt lat="40.7646279" lon="14.8405824"><ele>552.0</ele><time>2026-04-04T14:00:55.982Z</time></trkpt><trkpt lat="40.7646143" lon="14.8406779"><ele>553.8333333333334</ele><time>2026-04-04T14:01:00.037Z</time></trkpt><trkpt lat="40.7646409" lon="14.8407754"><ele>555.6666666666666</ele><time>2026-04-04T14:01:02.968Z</time></trkpt><trkpt lat="40.7647225" lon="14.8407818"><ele>557.5</ele><time>2026-04-04T14:01:05.987Z</time></trkpt><trkpt lat="40.7647777" lon="14.8407274"><ele>559.3333333333333</ele><time>2026-04-04T14:01:07.999Z</time></trkpt><trkpt lat="40.7647866" lon="14.840585"><ele>561.1666666666666</ele><time>2026-04-04T14:01:09.972Z</time></trkpt><trkpt lat="40.7647796" lon="14.8404719"><ele>563.0</ele><time>2026-04-04T14:01:10.97Z</time></trkpt><trkpt lat="40.7647572" lon="14.8403565"><ele>563.0</ele><time>2026-04-04T14:01:12.973Z</time></trkpt><trkpt lat="40.7648222" lon="14.8401716"><ele>563.0</ele><time>2026-04-04T14:01:14.979Z</time></trkpt><trkpt lat="40.7648822" lon="14.8400142"><ele>563.0</ele><time>2026-04-04T14:01:15.994Z</time></trkpt><trkpt lat="40.7649495" lon="14.8398777"><ele>563.0</ele><time>2026-04-04T14:01:16.969Z</time></trkpt><trkpt lat="40.7650428" lon="14.839754"><ele>559.6666666666666</ele><time>2026-04-04T14:01:17.993Z</time></trkpt><trkpt lat="40.7651542" lon="14.839639"><ele>556.3333333333334</ele><time>2026-04-04T14:01:18.972Z</time></trkpt><trkpt lat="40.7652796" lon="14.8393755"><ele>553.0</ele><time>2026-04-04T14:01:20.052Z</time></trkpt><trkpt lat="40.7653795" lon="14.8391949"><ele>552.0</ele><time>2026-04-04T14:01:21.002Z</time></trkpt><trkpt lat="40.7654422" lon="14.839079"><ele>551.0</ele><time>2026-04-04T14:01:21.939Z</time></trkpt><trkpt lat="40.7655085" lon="14.8389729"><ele>550.0</ele><time>2026-04-04T14:01:23.034Z</time></trkpt><trkpt lat="40.7655654" lon="14.838873"><ele>549.0</ele><time>2026-04-04T14:01:23.969Z</time></trkpt><trkpt lat="40.765602" lon="14.838803"><ele>548.0</ele><time>2026-04-04T14:01:24.971Z</time></trkpt><trkpt lat="40.7656775" lon="14.8387002"><ele>548.0</ele><time>2026-04-04T14:01:26.963Z</time></trkpt><trkpt lat="40.7657423" lon="14.8386632"><ele>548.0</ele><time>2026-04-04T14:01:27.958Z</time></trkpt><trkpt lat="40.765863" lon="14.8386777"><ele>548.0</ele><time>2026-04-04T14:01:30.041Z</time></trkpt><trkpt lat="40.7659294" lon="14.8386413"><ele>548.0</ele><time>2026-04-04T14:01:30.972Z</time></trkpt><trkpt lat="40.7659839" lon="14.838515"><ele>548.0</ele><time>2026-04-04T14:01:32.965Z</time></trkpt><trkpt lat="40.7659993" lon="14.8384342"><ele>548.0</ele><time>2026-04-04T14:01:33.971Z</time></trkpt><trkpt lat="40.7660181" lon="14.8383517"><ele>547.5</ele><time>2026-04-04T14:01:34.973Z</time></trkpt><trkpt lat="40.7660867" lon="14.8382738"><ele>547.0</ele><time>2026-04-04T14:01:35.979Z</time></trkpt><trkpt lat="40.7661652" lon="14.8381969"><ele>546.5</ele><time>2026-04-04T14:01:36.985Z</time></trkpt><trkpt lat="40.7662395" lon="14.8381223"><ele>546.0</ele><time>2026-04-04T14:01:38.059Z</time></trkpt><trkpt lat="40.7662961" lon="14.8380704"><ele>545.5</ele><time>2026-04-04T14:01:38.971Z</time></trkpt><trkpt lat="40.7663188" lon="14.8379788"><ele>545.0</ele><time>2026-04-04T14:01:40.995Z</time></trkpt><trkpt lat="40.7662616" lon="14.8379372"><ele>545.0</ele><time>2026-04-04T14:01:43.974Z</time></trkpt><trkpt lat="40.766139" lon="14.8379799"><ele>545.0</ele><time>2026-04-04T14:01:45.998Z</time></trkpt><trkpt lat="40.7660347" lon="14.838016"><ele>545.0</ele><time>2026-04-04T14:01:48.059Z</time></trkpt><trkpt lat="40.7659328" lon="14.8381166"><ele>545.0</ele><time>2026-04-04T14:01:49.962Z</time></trkpt><trkpt lat="40.7658861" lon="14.8381822"><ele>545.0</ele><time>2026-04-04T14:01:50.95Z</time></trkpt><trkpt lat="40.7658366" lon="14.8382543"><ele>545.6</ele><time>2026-04-04T14:01:51.95Z</time></trkpt><trkpt lat="40.7657672" lon="14.8383242"><ele>546.2</ele><time>2026-04-04T14:01:53.947Z</time></trkpt><trkpt lat="40.7656888" lon="14.8383942"><ele>546.8</ele><time>2026-04-04T14:01:55.971Z</time></trkpt><trkpt lat="40.7655515" lon="14.8384617"><ele>547.4</ele><time>2026-04-04T14:01:57.98Z</time></trkpt><trkpt lat="40.7654865" lon="14.8385112"><ele>548.0</ele><time>2026-04-04T14:01:58.967Z</time></trkpt><trkpt lat="40.7654196" lon="14.8385597"><ele>548.0</ele><time>2026-04-04T14:01:59.979Z</time></trkpt><trkpt lat="40.7652806" lon="14.8385854"><ele>548.0</ele><time>2026-04-04T14:02:02.047Z</time></trkpt><trkpt lat="40.7651994" lon="14.8386181"><ele>548.0</ele><time>2026-04-04T14:02:03.039Z</time></trkpt><trkpt lat="40.7651226" lon="14.838664"><ele>548.0</ele><time>2026-04-04T14:02:03.963Z</time></trkpt><trkpt lat="40.7650483" lon="14.8386719"><ele>548.0</ele><time>2026-04-04T14:02:04.97Z</time></trkpt><trkpt lat="40.7649705" lon="14.8386613"><ele>544.4</ele><time>2026-04-04T14:02:06.018Z</time></trkpt><trkpt lat="40.7648871" lon="14.8386773"><ele>540.8</ele><time>2026-04-04T14:02:06.963Z</time></trkpt><trkpt lat="40.7648049" lon="14.8386963"><ele>537.2</ele><time>2026-04-04T14:02:07.961Z</time></trkpt><trkpt lat="40.7647427" lon="14.8387176"><ele>533.6</ele><time>2026-04-04T14:02:08.967Z</time></trkpt><trkpt lat="40.7646004" lon="14.8386802"><ele>530.0</ele><time>2026-04-04T14:02:11.027Z</time></trkpt><trkpt lat="40.7645152" lon="14.8386694"><ele>530.0</ele><time>2026-04-04T14:02:12.055Z</time></trkpt><trkpt lat="40.7644434" lon="14.8386807"><ele>530.0</ele><time>2026-04-04T14:02:12.979Z</time></trkpt><trkpt lat="40.7643787" lon="14.8386818"><ele>530.0</ele><time>2026-04-04T14:02:13.961Z</time></trkpt><trkpt lat="40.7642946" lon="14.8386063"><ele>530.0</ele><time>2026-04-04T14:02:16.043Z</time></trkpt><trkpt lat="40.7642314" lon="14.838516"><ele>530.0</ele><time>2026-04-04T14:02:17.975Z</time></trkpt><trkpt lat="40.7641646" lon="14.8384787"><ele>530.0</ele><time>2026-04-04T14:02:21.037Z</time></trkpt><trkpt lat="40.7641026" lon="14.8384488"><ele>530.0</ele><time>2026-04-04T14:02:24.98Z</time></trkpt><trkpt lat="40.7641649" lon="14.8384774"><ele>530.0</ele><time>2026-04-04T14:02:28.054Z</time></trkpt><trkpt lat="40.7642349" lon="14.8385039"><ele>530.0</ele><time>2026-04-04T14:02:28.97Z</time></trkpt><trkpt lat="40.7643116" lon="14.8385236"><ele>530.0</ele><time>2026-04-04T14:02:29.986Z</time></trkpt><trkpt lat="40.7644073" lon="14.8385348"><ele>530.0</ele><time>2026-04-04T14:02:31.016Z</time></trkpt><trkpt lat="40.7644935" lon="14.8385453"><ele>530.0</ele><time>2026-04-04T14:02:31.977Z</time></trkpt><trkpt lat="40.7645756" lon="14.8385556"><ele>530.0</ele><time>2026-04-04T14:02:32.968Z</time></trkpt><trkpt lat="40.7646528" lon="14.8385479"><ele>530.0</ele><time>2026-04-04T14:02:33.982Z</time></trkpt><trkpt lat="40.7647329" lon="14.8385072"><ele>530.0</ele><time>2026-04-04T14:02:35.06Z</time></trkpt><trkpt lat="40.764813" lon="14.8384273"><ele>530.0</ele><time>2026-04-04T14:02:35.98Z</time></trkpt><trkpt lat="40.7648647" lon="14.8383353"><ele>530.0</ele><time>2026-04-04T14:02:36.98Z</time></trkpt><trkpt lat="40.7648959" lon="14.838254"><ele>530.0</ele><time>2026-04-04T14:02:37.975Z</time></trkpt><trkpt lat="40.764918" lon="14.8381638"><ele>529.3333333333333</ele><time>2026-04-04T14:02:38.97Z</time></trkpt><trkpt lat="40.7649195" lon="14.8380206"><ele>528.6666666666666</ele><time>2026-04-04T14:02:40.069Z</time></trkpt><trkpt lat="40.7649146" lon="14.8379184"><ele>528.0</ele><time>2026-04-04T14:02:41.038Z</time></trkpt><trkpt lat="40.7648973" lon="14.8377861"><ele>527.3333333333334</ele><time>2026-04-04T14:02:42.069Z</time></trkpt><trkpt lat="40.7648767" lon="14.8376943"><ele>526.6666666666667</ele><time>2026-04-04T14:02:42.971Z</time></trkpt><trkpt lat="40.7648711" lon="14.8376091"><ele>526.0</ele><time>2026-04-04T14:02:43.979Z</time></trkpt><trkpt lat="40.7648689" lon="14.837448"><ele>526.0</ele><time>2026-04-04T14:02:45.977Z</time></trkpt><trkpt lat="40.7648819" lon="14.8373575"><ele>526.0</ele><time>2026-04-04T14:02:46.976Z</time></trkpt><trkpt lat="40.7649122" lon="14.8372815"><ele>526.0</ele><time>2026-04-04T14:02:48.1Z</time></trkpt><trkpt lat="40.764971" lon="14.8371079"><ele>526.0</ele><time>2026-04-04T14:02:49.977Z</time></trkpt><trkpt lat="40.7649925" lon="14.8370186"><ele>526.0</ele><time>2026-04-04T14:02:50.987Z</time></trkpt><trkpt lat="40.7649972" lon="14.8369064"><ele>526.0</ele><time>2026-04-04T14:02:51.993Z</time></trkpt><trkpt lat="40.7650042" lon="14.8367709"><ele>529.5</ele><time>2026-04-04T14:02:52.994Z</time></trkpt><trkpt lat="40.7650145" lon="14.8366255"><ele>533.0</ele><time>2026-04-04T14:02:53.976Z</time></trkpt><trkpt lat="40.7650163" lon="14.8364929"><ele>536.5</ele><time>2026-04-04T14:02:54.976Z</time></trkpt><trkpt lat="40.7650048" lon="14.8363354"><ele>540.0</ele><time>2026-04-04T14:02:55.98Z</time></trkpt><trkpt lat="40.7649662" lon="14.8360969"><ele>544.5</ele><time>2026-04-04T14:02:57.057Z</time></trkpt><trkpt lat="40.7649272" lon="14.8357055"><ele>549.0</ele><time>2026-04-04T14:02:58.046Z</time></trkpt><trkpt lat="40.7649218" lon="14.8354831"><ele>549.0</ele><time>2026-04-04T14:02:58.959Z</time></trkpt><trkpt lat="40.7649196" lon="14.8352681"><ele>549.0</ele><time>2026-04-04T14:02:59.963Z</time></trkpt><trkpt lat="40.7649231" lon="14.8350802"><ele>549.0</ele><time>2026-04-04T14:03:00.956Z</time></trkpt><trkpt lat="40.7649313" lon="14.8349028"><ele>549.0</ele><time>2026-04-04T14:03:02.064Z</time></trkpt><trkpt lat="40.7649451" lon="14.8347433"><ele>548.8</ele><time>2026-04-04T14:03:03.024Z</time></trkpt><trkpt lat="40.7649611" lon="14.8345925"><ele>548.5999999999999</ele><time>2026-04-04T14:03:03.971Z</time></trkpt><trkpt lat="40.7649814" lon="14.83445"><ele>548.4</ele><time>2026-04-04T14:03:04.97Z</time></trkpt><trkpt lat="40.7649769" lon="14.8343365"><ele>548.1999999999999</ele><time>2026-04-04T14:03:06.054Z</time></trkpt><trkpt lat="40.7649576" lon="14.834225"><ele>548.0</ele><time>2026-04-04T14:03:06.961Z</time></trkpt><trkpt lat="40.7649246" lon="14.8341057"><ele>547.4285714285714</ele><time>2026-04-04T14:03:08.037Z</time></trkpt><trkpt lat="40.7648893" lon="14.8339987"><ele>546.8571428571429</ele><time>2026-04-04T14:03:08.964Z</time></trkpt><trkpt lat="40.7648501" lon="14.8339315"><ele>546.2857142857142</ele><time>2026-04-04T14:03:09.971Z</time></trkpt><trkpt lat="40.764791" lon="14.8339016"><ele>545.7142857142858</ele><time>2026-04-04T14:03:10.991Z</time></trkpt><trkpt lat="40.7647305" lon="14.8338577"><ele>545.1428571428571</ele><time>2026-04-04T14:03:11.961Z</time></trkpt><trkpt lat="40.7646781" lon="14.8338043"><ele>544.5714285714286</ele><time>2026-04-04T14:03:13.051Z</time></trkpt><trkpt lat="40.764625" lon="14.8337391"><ele>544.0</ele><time>2026-04-04T14:03:13.965Z</time></trkpt><trkpt lat="40.7645732" lon="14.8336779"><ele>544.0</ele><time>2026-04-04T14:03:14.973Z</time></trkpt><trkpt lat="40.7645272" lon="14.8336075"><ele>544.0</ele><time>2026-04-04T14:03:15.976Z</time></trkpt><trkpt lat="40.7644801" lon="14.8335162"><ele>544.0</ele><time>2026-04-04T14:03:17.026Z</time></trkpt><trkpt lat="40.7644404" lon="14.8334436"><ele>544.0</ele><time>2026-04-04T14:03:18.039Z</time></trkpt><trkpt lat="40.7644097" lon="14.8333634"><ele>544.0</ele><time>2026-04-04T14:03:18.969Z</time></trkpt><trkpt lat="40.7644041" lon="14.8332124"><ele>544.0</ele><time>2026-04-04T14:03:20.973Z</time></trkpt><trkpt lat="40.7644152" lon="14.833058"><ele>543.1666666666667</ele><time>2026-04-04T14:03:23.024Z</time></trkpt><trkpt lat="40.7644147" lon="14.8329736"><ele>542.3333333333334</ele><time>2026-04-04T14:03:23.961Z</time></trkpt><trkpt lat="40.7644147" lon="14.8328771"><ele>541.5</ele><time>2026-04-04T14:03:24.964Z</time></trkpt><trkpt lat="40.7644136" lon="14.8327888"><ele>540.6666666666666</ele><time>2026-04-04T14:03:25.957Z</time></trkpt><trkpt lat="40.7644237" lon="14.8326578"><ele>539.8333333333333</ele><time>2026-04-04T14:03:27.964Z</time></trkpt><trkpt lat="40.7644554" lon="14.8325734"><ele>539.0</ele><time>2026-04-04T14:03:30.983Z</time></trkpt><trkpt lat="40.7645055" lon="14.8324862"><ele>539.0</ele><time>2026-04-04T14:03:51.966Z</time></trkpt><trkpt lat="40.764581" lon="14.832425"><ele>539.0</ele><time>2026-04-04T14:03:52.976Z</time></trkpt><trkpt lat="40.7646722" lon="14.8323626"><ele>539.0</ele><time>2026-04-04T14:03:53.967Z</time></trkpt><trkpt lat="40.7647643" lon="14.832299"><ele>539.0</ele><time>2026-04-04T14:03:54.975Z</time></trkpt><trkpt lat="40.7648545" lon="14.8322299"><ele>539.0</ele><time>2026-04-04T14:03:55.966Z</time></trkpt><trkpt lat="40.7649534" lon="14.832161"><ele>539.0</ele><time>2026-04-04T14:03:56.968Z</time></trkpt><trkpt lat="40.7650469" lon="14.8320915"><ele>539.0</ele><time>2026-04-04T14:03:57.972Z</time></trkpt><trkpt lat="40.76513" lon="14.8320277"><ele>539.0</ele><time>2026-04-04T14:03:58.965Z</time></trkpt><trkpt lat="40.765189" lon="14.8319657"><ele>539.0</ele><time>2026-04-04T14:03:59.958Z</time></trkpt><trkpt lat="40.7652566" lon="14.8319048"><ele>539.0</ele><time>2026-04-04T14:04:01.97Z</time></trkpt><trkpt lat="40.7652843" lon="14.8317792"><ele>538.6666666666666</ele><time>2026-04-04T14:04:04.958Z</time></trkpt><trkpt lat="40.7652466" lon="14.8316518"><ele>538.3333333333333</ele><time>2026-04-04T14:04:06.963Z</time></trkpt><trkpt lat="40.7652116" lon="14.8315811"><ele>538.0</ele><time>2026-04-04T14:04:07.985Z</time></trkpt><trkpt lat="40.7651484" lon="14.8315113"><ele>537.6666666666666</ele><time>2026-04-04T14:04:08.963Z</time></trkpt><trkpt lat="40.765068" lon="14.8314389"><ele>537.3333333333334</ele><time>2026-04-04T14:04:09.942Z</time></trkpt><trkpt lat="40.7649938" lon="14.8313765"><ele>537.0</ele><time>2026-04-04T14:04:10.946Z</time></trkpt><trkpt lat="40.764924" lon="14.8313166"><ele>539.5</ele><time>2026-04-04T14:04:11.966Z</time></trkpt><trkpt lat="40.7648607" lon="14.8312408"><ele>542.0</ele><time>2026-04-04T14:04:12.945Z</time></trkpt><trkpt lat="40.764819" lon="14.8311628"><ele>544.5</ele><time>2026-04-04T14:04:14.963Z</time></trkpt><trkpt lat="40.7648394" lon="14.8310489"><ele>547.0</ele><time>2026-04-04T14:04:16.951Z</time></trkpt><trkpt lat="40.764921" lon="14.8309577"><ele>549.5</ele><time>2026-04-04T14:04:18.955Z</time></trkpt><trkpt lat="40.7649816" lon="14.8309203"><ele>552.0</ele><time>2026-04-04T14:04:19.943Z</time></trkpt><trkpt lat="40.765033" lon="14.8308713"><ele>553.6</ele><time>2026-04-04T14:04:20.961Z</time></trkpt><trkpt lat="40.7650881" lon="14.8307299"><ele>555.2</ele><time>2026-04-04T14:04:22.966Z</time></trkpt><trkpt lat="40.7650877" lon="14.8306273"><ele>556.8</ele><time>2026-04-04T14:04:23.958Z</time></trkpt><trkpt lat="40.7651056" lon="14.8305358"><ele>558.4</ele><time>2026-04-04T14:04:24.96Z</time></trkpt><trkpt lat="40.7651484" lon="14.8304278"><ele>560.0</ele><time>2026-04-04T14:04:26.95Z</time></trkpt><trkpt lat="40.76526" lon="14.8304869"><ele>560.0</ele><time>2026-04-04T14:04:29.959Z</time></trkpt><trkpt lat="40.7653481" lon="14.8305417"><ele>560.0</ele><time>2026-04-04T14:04:30.957Z</time></trkpt><trkpt lat="40.765449" lon="14.8305834"><ele>560.0</ele><time>2026-04-04T14:04:31.95Z</time></trkpt><trkpt lat="40.7655412" lon="14.8306133"><ele>560.0</ele><time>2026-04-04T14:04:32.968Z</time></trkpt><trkpt lat="40.7656218" lon="14.8306271"><ele>560.0</ele><time>2026-04-04T14:04:33.973Z</time></trkpt><trkpt lat="40.7657194" lon="14.8306294"><ele>560.0</ele><time>2026-04-04T14:04:34.964Z</time></trkpt><trkpt lat="40.765821" lon="14.8306277"><ele>560.0</ele><time>2026-04-04T14:04:35.967Z</time></trkpt><trkpt lat="40.7659091" lon="14.830627"><ele>560.0</ele><time>2026-04-04T14:04:36.973Z</time></trkpt><trkpt lat="40.7659875" lon="14.8306251"><ele>560.0</ele><time>2026-04-04T14:04:37.959Z</time></trkpt><trkpt lat="40.7660824" lon="14.8306044"><ele>560.0</ele><time>2026-04-04T14:04:38.973Z</time></trkpt><trkpt lat="40.7661742" lon="14.8305915"><ele>559.2</ele><time>2026-04-04T14:04:39.971Z</time></trkpt><trkpt lat="40.7662671" lon="14.8305664"><ele>558.4</ele><time>2026-04-04T14:04:40.978Z</time></trkpt><trkpt lat="40.7663576" lon="14.8305303"><ele>557.6</ele><time>2026-04-04T14:04:41.958Z</time></trkpt><trkpt lat="40.766463" lon="14.8304701"><ele>556.8</ele><time>2026-04-04T14:04:42.952Z</time></trkpt><trkpt lat="40.7665433" lon="14.8303918"><ele>556.0</ele><time>2026-04-04T14:04:43.97Z</time></trkpt><trkpt lat="40.7665968" lon="14.8303004"><ele>556.0</ele><time>2026-04-04T14:04:44.966Z</time></trkpt><trkpt lat="40.7666175" lon="14.8302026"><ele>556.0</ele><time>2026-04-04T14:04:45.956Z</time></trkpt><trkpt lat="40.7666149" lon="14.8300709"><ele>556.0</ele><time>2026-04-04T14:04:47.972Z</time></trkpt><trkpt lat="40.7665378" lon="14.8300923"><ele>556.0</ele><time>2026-04-04T14:04:51.982Z</time></trkpt><trkpt lat="40.7664124" lon="14.8300349"><ele>556.0</ele><time>2026-04-04T14:04:53.974Z</time></trkpt><trkpt lat="40.7663229" lon="14.8299818"><ele>560.4</ele><time>2026-04-04T14:04:54.982Z</time></trkpt><trkpt lat="40.7662388" lon="14.8299279"><ele>564.8</ele><time>2026-04-04T14:04:55.969Z</time></trkpt><trkpt lat="40.76616" lon="14.829883"><ele>569.1999999999999</ele><time>2026-04-04T14:04:56.972Z</time></trkpt><trkpt lat="40.7660838" lon="14.8298345"><ele>573.6</ele><time>2026-04-04T14:04:57.971Z</time></trkpt><trkpt lat="40.7660011" lon="14.8297843"><ele>578.0</ele><time>2026-04-04T14:04:58.976Z</time></trkpt><trkpt lat="40.7659051" lon="14.8297257"><ele>579.75</ele><time>2026-04-04T14:04:59.974Z</time></trkpt><trkpt lat="40.7657929" lon="14.8296652"><ele>581.5</ele><time>2026-04-04T14:05:00.966Z</time></trkpt><trkpt lat="40.7656764" lon="14.8296087"><ele>583.25</ele><time>2026-04-04T14:05:01.964Z</time></trkpt><trkpt lat="40.7655678" lon="14.8295691"><ele>585.0</ele><time>2026-04-04T14:05:02.96Z</time></trkpt><trkpt lat="40.7654751" lon="14.829559"><ele>585.0</ele><time>2026-04-04T14:05:03.982Z</time></trkpt><trkpt lat="40.7653914" lon="14.8295571"><ele>585.0</ele><time>2026-04-04T14:05:04.966Z</time></trkpt><trkpt lat="40.765308" lon="14.8295601"><ele>585.0</ele><time>2026-04-04T14:05:05.977Z</time></trkpt><trkpt lat="40.765232" lon="14.8295724"><ele>585.0</ele><time>2026-04-04T14:05:06.972Z</time></trkpt><trkpt lat="40.7651513" lon="14.8296109"><ele>585.0</ele><time>2026-04-04T14:05:07.966Z</time></trkpt><trkpt lat="40.7650845" lon="14.8296701"><ele>585.0</ele><time>2026-04-04T14:05:08.963Z</time></trkpt><trkpt lat="40.7650295" lon="14.8297439"><ele>587.8</ele><time>2026-04-04T14:05:09.974Z</time></trkpt><trkpt lat="40.7649895" lon="14.8298238"><ele>590.6</ele><time>2026-04-04T14:05:10.969Z</time></trkpt><trkpt lat="40.7649335" lon="14.8299121"><ele>593.4</ele><time>2026-04-04T14:05:11.97Z</time></trkpt><trkpt lat="40.7648553" lon="14.8299943"><ele>596.2</ele><time>2026-04-04T14:05:12.963Z</time></trkpt><trkpt lat="40.7647726" lon="14.8300709"><ele>599.0</ele><time>2026-04-04T14:05:13.97Z</time></trkpt><trkpt lat="40.7646762" lon="14.8301585"><ele>597.5</ele><time>2026-04-04T14:05:14.963Z</time></trkpt><trkpt lat="40.7645648" lon="14.8302281"><ele>596.0</ele><time>2026-04-04T14:05:15.969Z</time></trkpt><trkpt lat="40.7644465" lon="14.8302841"><ele>594.5</ele><time>2026-04-04T14:05:16.971Z</time></trkpt><trkpt lat="40.7643434" lon="14.8303426"><ele>593.0</ele><time>2026-04-04T14:05:17.968Z</time></trkpt><trkpt lat="40.7642427" lon="14.8303942"><ele>593.0</ele><time>2026-04-04T14:05:18.973Z</time></trkpt><trkpt lat="40.7641168" lon="14.8304297"><ele>593.0</ele><time>2026-04-04T14:05:19.963Z</time></trkpt><trkpt lat="40.7640259" lon="14.8304473"><ele>593.0</ele><time>2026-04-04T14:05:20.963Z</time></trkpt><trkpt lat="40.7639275" lon="14.8305137"><ele>593.0</ele><time>2026-04-04T14:05:22.96Z</time></trkpt><trkpt lat="40.7638802" lon="14.8305761"><ele>593.0</ele><time>2026-04-04T14:05:23.964Z</time></trkpt><trkpt lat="40.7638205" lon="14.8307046"><ele>593.0</ele><time>2026-04-04T14:05:25.96Z</time></trkpt><trkpt lat="40.7637449" lon="14.8308028"><ele>593.0</ele><time>2026-04-04T14:05:27.973Z</time></trkpt><trkpt lat="40.7636825" lon="14.830814"><ele>593.0</ele><time>2026-04-04T14:05:28.961Z</time></trkpt><trkpt lat="40.7635721" lon="14.8307779"><ele>593.0</ele><time>2026-04-04T14:05:29.952Z</time></trkpt><trkpt lat="40.7634571" lon="14.8307272"><ele>593.0</ele><time>2026-04-04T14:05:30.961Z</time></trkpt><trkpt lat="40.763349" lon="14.8306812"><ele>597.25</ele><time>2026-04-04T14:05:31.967Z</time></trkpt><trkpt lat="40.7632326" lon="14.8306474"><ele>601.5</ele><time>2026-04-04T14:05:32.963Z</time></trkpt><trkpt lat="40.7631047" lon="14.830627"><ele>605.75</ele><time>2026-04-04T14:05:33.965Z</time></trkpt><trkpt lat="40.7629776" lon="14.8306126"><ele>610.0</ele><time>2026-04-04T14:05:34.968Z</time></trkpt><trkpt lat="40.7628726" lon="14.8305847"><ele>610.0</ele><time>2026-04-04T14:05:36.03Z</time></trkpt><trkpt lat="40.7627875" lon="14.8305613"><ele>610.0</ele><time>2026-04-04T14:05:37.032Z</time></trkpt><trkpt lat="40.7627265" lon="14.8305402"><ele>610.0</ele><time>2026-04-04T14:05:37.966Z</time></trkpt><trkpt lat="40.7626208" lon="14.8304894"><ele>610.0</ele><time>2026-04-04T14:05:39.969Z</time></trkpt><trkpt lat="40.7625143" lon="14.8304441"><ele>610.0</ele><time>2026-04-04T14:05:41.963Z</time></trkpt><trkpt lat="40.7624482" lon="14.8304798"><ele>610.0</ele><time>2026-04-04T14:05:43.955Z</time></trkpt><trkpt lat="40.7623788" lon="14.8305349"><ele>610.6</ele><time>2026-04-04T14:05:45.979Z</time></trkpt><trkpt lat="40.7623061" lon="14.8305428"><ele>611.2</ele><time>2026-04-04T14:06:00.968Z</time></trkpt><trkpt lat="40.7622717" lon="14.8304427"><ele>611.8</ele><time>2026-04-04T14:06:17.951Z</time></trkpt><trkpt lat="40.7622711" lon="14.8302575"><ele>612.4</ele><time>2026-04-04T14:06:19.956Z</time></trkpt><trkpt lat="40.7622686" lon="14.8301335"><ele>613.0</ele><time>2026-04-04T14:06:20.961Z</time></trkpt><trkpt lat="40.7622713" lon="14.8299904"><ele>614.75</ele><time>2026-04-04T14:06:21.963Z</time></trkpt><trkpt lat="40.7622788" lon="14.829843"><ele>616.5</ele><time>2026-04-04T14:06:22.947Z</time></trkpt><trkpt lat="40.7622787" lon="14.8296886"><ele>618.25</ele><time>2026-04-04T14:06:23.976Z</time></trkpt><trkpt lat="40.7622785" lon="14.8295329"><ele>620.0</ele><time>2026-04-04T14:06:24.967Z</time></trkpt><trkpt lat="40.7622765" lon="14.8293785"><ele>620.0</ele><time>2026-04-04T14:06:25.965Z</time></trkpt><trkpt lat="40.7622675" lon="14.8292584"><ele>620.0</ele><time>2026-04-04T14:06:26.958Z</time></trkpt><trkpt lat="40.7622606" lon="14.8291114"><ele>620.0</ele><time>2026-04-04T14:06:28.958Z</time></trkpt><trkpt lat="40.7621884" lon="14.8290996"><ele>620.0</ele><time>2026-04-04T14:06:31.973Z</time></trkpt><trkpt lat="40.7621311" lon="14.8291861"><ele>620.0</ele><time>2026-04-04T14:06:32.98Z</time></trkpt><trkpt lat="40.762083" lon="14.8292719"><ele>620.0</ele><time>2026-04-04T14:06:33.964Z</time></trkpt><trkpt lat="40.7620254" lon="14.8293589"><ele>620.0</ele><time>2026-04-04T14:06:34.963Z</time></trkpt><trkpt lat="40.7619506" lon="14.829463"><ele>620.0</ele><time>2026-04-04T14:06:35.973Z</time></trkpt><trkpt lat="40.7618574" lon="14.8295938"><ele>620.0</ele><time>2026-04-04T14:06:36.968Z</time></trkpt><trkpt lat="40.7617736" lon="14.8297197"><ele>620.0</ele><time>2026-04-04T14:06:37.969Z</time></trkpt><trkpt lat="40.7616861" lon="14.8298355"><ele>617.5</ele><time>2026-04-04T14:06:38.967Z</time></trkpt><trkpt lat="40.7615823" lon="14.8299269"><ele>615.0</ele><time>2026-04-04T14:06:39.964Z</time></trkpt><trkpt lat="40.7614823" lon="14.8300306"><ele>612.5</ele><time>2026-04-04T14:06:40.968Z</time></trkpt><trkpt lat="40.761389" lon="14.8301471"><ele>610.0</ele><time>2026-04-04T14:06:41.969Z</time></trkpt><trkpt lat="40.7613198" lon="14.8302509"><ele>610.0</ele><time>2026-04-04T14:06:42.979Z</time></trkpt><trkpt lat="40.7612474" lon="14.8303241"><ele>610.0</ele><time>2026-04-04T14:06:43.958Z</time></trkpt><trkpt lat="40.761165" lon="14.8303483"><ele>610.0</ele><time>2026-04-04T14:06:44.961Z</time></trkpt><trkpt lat="40.7610851" lon="14.8303218"><ele>610.0</ele><time>2026-04-04T14:06:45.965Z</time></trkpt><trkpt lat="40.7610003" lon="14.8303237"><ele>610.0</ele><time>2026-04-04T14:06:46.97Z</time></trkpt><trkpt lat="40.7609106" lon="14.8303746"><ele>610.0</ele><time>2026-04-04T14:06:47.968Z</time></trkpt><trkpt lat="40.7608275" lon="14.830433"><ele>607.4</ele><time>2026-04-04T14:06:48.966Z</time></trkpt><trkpt lat="40.7607387" lon="14.8304777"><ele>604.8</ele><time>2026-04-04T14:06:49.968Z</time></trkpt><trkpt lat="40.7606467" lon="14.8304666"><ele>602.2</ele><time>2026-04-04T14:06:50.967Z</time></trkpt><trkpt lat="40.7605548" lon="14.8303636"><ele>599.6</ele><time>2026-04-04T14:06:52.966Z</time></trkpt><trkpt lat="40.7605011" lon="14.8302851"><ele>597.0</ele><time>2026-04-04T14:06:53.964Z</time></trkpt><trkpt lat="40.7604417" lon="14.8302071"><ele>590.0</ele><time>2026-04-04T14:06:54.972Z</time></trkpt><trkpt lat="40.7603646" lon="14.8301165"><ele>583.0</ele><time>2026-04-04T14:06:55.968Z</time></trkpt><trkpt lat="40.7602675" lon="14.8300191"><ele>576.0</ele><time>2026-04-04T14:06:56.975Z</time></trkpt><trkpt lat="40.7601458" lon="14.8299138"><ele>569.0</ele><time>2026-04-04T14:06:57.96Z</time></trkpt><trkpt lat="40.760027" lon="14.829816"><ele>569.0</ele><time>2026-04-04T14:06:58.975Z</time></trkpt><trkpt lat="40.7599103" lon="14.8297068"><ele>569.0</ele><time>2026-04-04T14:06:59.962Z</time></trkpt><trkpt lat="40.7597827" lon="14.829586"><ele>569.0</ele><time>2026-04-04T14:07:00.96Z</time></trkpt><trkpt lat="40.7596546" lon="14.8294476"><ele>564.0</ele><time>2026-04-04T14:07:01.956Z</time></trkpt><trkpt lat="40.7595279" lon="14.8293008"><ele>559.0</ele><time>2026-04-04T14:07:02.971Z</time></trkpt><trkpt lat="40.7594133" lon="14.8291652"><ele>554.0</ele><time>2026-04-04T14:07:03.977Z</time></trkpt><trkpt lat="40.7593145" lon="14.8290452"><ele>554.0</ele><time>2026-04-04T14:07:04.97Z</time></trkpt><trkpt lat="40.7592105" lon="14.828922"><ele>554.0</ele><time>2026-04-04T14:07:05.973Z</time></trkpt><trkpt lat="40.7591231" lon="14.8287999"><ele>554.0</ele><time>2026-04-04T14:07:06.967Z</time></trkpt><trkpt lat="40.7590543" lon="14.8286955"><ele>554.0</ele><time>2026-04-04T14:07:07.965Z</time></trkpt><trkpt lat="40.7590073" lon="14.8286054"><ele>554.0</ele><time>2026-04-04T14:07:08.973Z</time></trkpt><trkpt lat="40.758946" lon="14.8285334"><ele>554.0</ele><time>2026-04-04T14:07:09.947Z</time></trkpt><trkpt lat="40.7588763" lon="14.8285034"><ele>554.0</ele><time>2026-04-04T14:07:10.976Z</time></trkpt><trkpt lat="40.7587933" lon="14.8285049"><ele>554.0</ele><time>2026-04-04T14:07:11.97Z</time></trkpt><trkpt lat="40.7587135" lon="14.8285138"><ele>554.0</ele><time>2026-04-04T14:07:12.977Z</time></trkpt><trkpt lat="40.7586405" lon="14.8285308"><ele>554.0</ele><time>2026-04-04T14:07:13.966Z</time></trkpt><trkpt lat="40.7585591" lon="14.8285758"><ele>552.4</ele><time>2026-04-04T14:07:14.975Z</time></trkpt><trkpt lat="40.7584658" lon="14.8286474"><ele>550.8</ele><time>2026-04-04T14:07:15.954Z</time></trkpt><trkpt lat="40.7583713" lon="14.8287233"><ele>549.2</ele><time>2026-04-04T14:07:16.963Z</time></trkpt><trkpt lat="40.7582908" lon="14.8288263"><ele>547.6</ele><time>2026-04-04T14:07:17.957Z</time></trkpt><trkpt lat="40.758231" lon="14.8289513"><ele>546.0</ele><time>2026-04-04T14:07:18.968Z</time></trkpt><trkpt lat="40.758162" lon="14.8290578"><ele>546.0</ele><time>2026-04-04T14:07:19.967Z</time></trkpt><trkpt lat="40.758077" lon="14.8291311"><ele>546.0</ele><time>2026-04-04T14:07:20.97Z</time></trkpt><trkpt lat="40.7579989" lon="14.8291601"><ele>546.0</ele><time>2026-04-04T14:07:21.974Z</time></trkpt><trkpt lat="40.7579218" lon="14.8291186"><ele>546.0</ele><time>2026-04-04T14:07:23.968Z</time></trkpt><trkpt lat="40.7578993" lon="14.8289654"><ele>546.0</ele><time>2026-04-04T14:07:25.971Z</time></trkpt><trkpt lat="40.7578989" lon="14.8288716"><ele>546.0</ele><time>2026-04-04T14:07:26.967Z</time></trkpt><trkpt lat="40.757909" lon="14.8287617"><ele>546.0</ele><time>2026-04-04T14:07:27.96Z</time></trkpt><trkpt lat="40.7579176" lon="14.8286282"><ele>546.0</ele><time>2026-04-04T14:07:28.967Z</time></trkpt><trkpt lat="40.7579292" lon="14.8284801"><ele>546.0</ele><time>2026-04-04T14:07:29.973Z</time></trkpt><trkpt lat="40.7579448" lon="14.8283168"><ele>546.0</ele><time>2026-04-04T14:07:30.975Z</time></trkpt><trkpt lat="40.7579555" lon="14.8281541"><ele>543.0</ele><time>2026-04-04T14:07:31.968Z</time></trkpt><trkpt lat="40.7579597" lon="14.8279859"><ele>540.0</ele><time>2026-04-04T14:07:32.974Z</time></trkpt><trkpt lat="40.7579587" lon="14.827834"><ele>537.0</ele><time>2026-04-04T14:07:33.982Z</time></trkpt><trkpt lat="40.7579645" lon="14.8276882"><ele>534.0</ele><time>2026-04-04T14:07:35.034Z</time></trkpt><trkpt lat="40.7579713" lon="14.8275711"><ele>531.0</ele><time>2026-04-04T14:07:36.055Z</time></trkpt><trkpt lat="40.7579756" lon="14.8274874"><ele>531.0</ele><time>2026-04-04T14:07:37.049Z</time></trkpt><trkpt lat="40.7579681" lon="14.8274001"><ele>531.0</ele><time>2026-04-04T14:07:38.962Z</time></trkpt><trkpt lat="40.7579638" lon="14.8273094"><ele>531.0</ele><time>2026-04-04T14:07:53.016Z</time></trkpt><trkpt lat="40.7579128" lon="14.8273687"><ele>531.0</ele><time>2026-04-04T14:08:00.059Z</time></trkpt><trkpt lat="40.757883" lon="14.8274465"><ele>531.0</ele><time>2026-04-04T14:08:01.968Z</time></trkpt><trkpt lat="40.7578443" lon="14.8275488"><ele>531.0</ele><time>2026-04-04T14:08:03.965Z</time></trkpt><trkpt lat="40.7578055" lon="14.8276583"><ele>531.0</ele><time>2026-04-04T14:08:05.983Z</time></trkpt><trkpt lat="40.7577727" lon="14.8277611"><ele>531.0</ele><time>2026-04-04T14:08:07.976Z</time></trkpt><trkpt lat="40.7577329" lon="14.8278508"><ele>531.0</ele><time>2026-04-04T14:08:09.973Z</time></trkpt><trkpt lat="40.7576885" lon="14.8279393"><ele>531.0</ele><time>2026-04-04T14:08:11.952Z</time></trkpt><trkpt lat="40.7576356" lon="14.8280361"><ele>531.0</ele><time>2026-04-04T14:08:13.965Z</time></trkpt><trkpt lat="40.7576049" lon="14.8281808"><ele>531.0</ele><time>2026-04-04T14:08:16.056Z</time></trkpt><trkpt lat="40.7575787" lon="14.8283294"><ele>534.4</ele><time>2026-04-04T14:08:18.035Z</time></trkpt><trkpt lat="40.7575427" lon="14.8285053"><ele>537.8</ele><time>2026-04-04T14:08:19.971Z</time></trkpt><trkpt lat="40.7575241" lon="14.8286158"><ele>541.1999999999999</ele><time>2026-04-04T14:08:20.972Z</time></trkpt><trkpt lat="40.7575054" lon="14.8287293"><ele>544.6</ele><time>2026-04-04T14:08:21.982Z</time></trkpt><trkpt lat="40.7574886" lon="14.8288507"><ele>548.0</ele><time>2026-04-04T14:08:22.961Z</time></trkpt><trkpt lat="40.7574701" lon="14.8289582"><ele>548.0</ele><time>2026-04-04T14:08:23.959Z</time></trkpt><trkpt lat="40.757448" lon="14.8290641"><ele>548.0</ele><time>2026-04-04T14:08:25.023Z</time></trkpt><trkpt lat="40.7574206" lon="14.8291808"><ele>548.0</ele><time>2026-04-04T14:08:26.022Z</time></trkpt><trkpt lat="40.7573952" lon="14.8292937"><ele>548.0</ele><time>2026-04-04T14:08:26.979Z</time></trkpt><trkpt lat="40.7573814" lon="14.8294075"><ele>548.0</ele><time>2026-04-04T14:08:27.971Z</time></trkpt><trkpt lat="40.7573759" lon="14.8295075"><ele>548.0</ele><time>2026-04-04T14:08:28.971Z</time></trkpt><trkpt lat="40.7573726" lon="14.8296069"><ele>550.6666666666666</ele><time>2026-04-04T14:08:29.964Z</time></trkpt><trkpt lat="40.7573794" lon="14.8296998"><ele>553.3333333333333</ele><time>2026-04-04T14:08:31.063Z</time></trkpt><trkpt lat="40.7573882" lon="14.8298013"><ele>556.0</ele><time>2026-04-04T14:08:32.041Z</time></trkpt><trkpt lat="40.7573949" lon="14.8298921"><ele>558.6666666666666</ele><time>2026-04-04T14:08:33.032Z</time></trkpt><trkpt lat="40.7574064" lon="14.8299797"><ele>561.3333333333334</ele><time>2026-04-04T14:08:33.962Z</time></trkpt><trkpt lat="40.7574226" lon="14.8300906"><ele>564.0</ele><time>2026-04-04T14:08:35.966Z</time></trkpt><trkpt lat="40.7574337" lon="14.8301989"><ele>568.0</ele><time>2026-04-04T14:08:38.041Z</time></trkpt><trkpt lat="40.7574428" lon="14.8303108"><ele>572.0</ele><time>2026-04-04T14:08:39.957Z</time></trkpt><trkpt lat="40.7574654" lon="14.8303971"><ele>576.0</ele><time>2026-04-04T14:08:41.964Z</time></trkpt><trkpt lat="40.7574825" lon="14.8304785"><ele>580.0</ele><time>2026-04-04T14:08:43.966Z</time></trkpt><trkpt lat="40.7575067" lon="14.8307111"><ele>584.0</ele><time>2026-04-04T14:08:54.971Z</time></trkpt><trkpt lat="40.7575142" lon="14.8308671"><ele>587.6666666666666</ele><time>2026-04-04T14:08:58.96Z</time></trkpt><trkpt lat="40.7575184" lon="14.8309769"><ele>591.3333333333333</ele><time>2026-04-04T14:09:00.968Z</time></trkpt><trkpt lat="40.7575167" lon="14.831088"><ele>595.0</ele><time>2026-04-04T14:09:03.037Z</time></trkpt><trkpt lat="40.7575007" lon="14.8312043"><ele>598.6666666666666</ele><time>2026-04-04T14:09:04.969Z</time></trkpt><trkpt lat="40.7574964" lon="14.831327"><ele>602.3333333333334</ele><time>2026-04-04T14:09:06.965Z</time></trkpt><trkpt lat="40.7574824" lon="14.8314391"><ele>606.0</ele><time>2026-04-04T14:09:08.969Z</time></trkpt><trkpt lat="40.7574642" lon="14.8315439"><ele>606.0</ele><time>2026-04-04T14:09:11.042Z</time></trkpt><trkpt lat="40.7574481" lon="14.8316681"><ele>606.0</ele><time>2026-04-04T14:09:13.056Z</time></trkpt><trkpt lat="40.7574156" lon="14.8317933"><ele>606.0</ele><time>2026-04-04T14:09:14.968Z</time></trkpt><trkpt lat="40.7573821" lon="14.831898"><ele>606.0</ele><time>2026-04-04T14:09:16.967Z</time></trkpt><trkpt lat="40.7573421" lon="14.8319916"><ele>606.0</ele><time>2026-04-04T14:09:18.97Z</time></trkpt><trkpt lat="40.7573196" lon="14.8320825"><ele>606.0</ele><time>2026-04-04T14:09:20.975Z</time></trkpt><trkpt lat="40.7572891" lon="14.8321956"><ele>609.6666666666666</ele><time>2026-04-04T14:09:24.965Z</time></trkpt><trkpt lat="40.7572662" lon="14.8322841"><ele>613.3333333333334</ele><time>2026-04-04T14:09:26.968Z</time></trkpt><trkpt lat="40.7572432" lon="14.8324053"><ele>617.0</ele><time>2026-04-04T14:09:30.035Z</time></trkpt><trkpt lat="40.757239" lon="14.8325025"><ele>620.6666666666667</ele><time>2026-04-04T14:09:32.963Z</time></trkpt><trkpt lat="40.7572472" lon="14.8326038"><ele>624.3333333333334</ele><time>2026-04-04T14:09:35.962Z</time></trkpt><trkpt lat="40.7572594" lon="14.8327179"><ele>628.0</ele><time>2026-04-04T14:10:17.982Z</time></trkpt><trkpt lat="40.7572585" lon="14.8328049"><ele>627.9999999999999</ele><time>2026-04-04T14:10:26.959Z</time></trkpt><trkpt lat="40.7572366" lon="14.8327143"><ele>628.0</ele><time>2026-04-04T14:10:36.986Z</time></trkpt><trkpt lat="40.7572558" lon="14.8326074"><ele>628.0</ele><time>2026-04-04T14:10:40.978Z</time></trkpt><trkpt lat="40.7572765" lon="14.8325226"><ele>628.0</ele><time>2026-04-04T14:10:43.974Z</time></trkpt><trkpt lat="40.7572699" lon="14.8324239"><ele>628.0</ele><time>2026-04-04T14:10:54.982Z</time></trkpt><trkpt lat="40.7573123" lon="14.8325057"><ele>627.9999999999999</ele><time>2026-04-04T14:11:03.959Z</time></trkpt><trkpt lat="40.7573354" lon="14.8325964"><ele>628.0</ele><time>2026-04-04T14:11:06.967Z</time></trkpt><trkpt lat="40.75729" lon="14.8326552"><ele>631.9999999999999</ele><time>2026-04-04T14:11:10.97Z</time></trkpt><trkpt lat="40.7572708" lon="14.8327485"><ele>636.0</ele><time>2026-04-04T14:11:15.033Z</time></trkpt><trkpt lat="40.7572197" lon="14.8328076"><ele>640.0</ele><time>2026-04-04T14:11:18.982Z</time></trkpt><trkpt lat="40.7571897" lon="14.8329033"><ele>644.0</ele><time>2026-04-04T14:11:26.982Z</time></trkpt><trkpt lat="40.7571158" lon="14.8329595"><ele>648.0</ele><time>2026-04-04T14:11:42.966Z</time></trkpt><trkpt lat="40.7570843" lon="14.8330343"><ele>651.9999999999999</ele><time>2026-04-04T14:11:55.981Z</time></trkpt><trkpt lat="40.7571544" lon="14.8330738"><ele>656.0</ele><time>2026-04-04T14:12:11.971Z</time></trkpt><trkpt lat="40.7572197" lon="14.8330539"><ele>656.0</ele><time>2026-04-04T14:12:14.965Z</time></trkpt><trkpt lat="40.7573339" lon="14.8330442"><ele>656.0</ele><time>2026-04-04T14:12:20.975Z</time></trkpt><trkpt lat="40.757398" lon="14.8330181"><ele>656.0</ele><time>2026-04-04T14:12:22.969Z</time></trkpt><trkpt lat="40.7574647" lon="14.8329909"><ele>656.0</ele><time>2026-04-04T14:12:24.976Z</time></trkpt><trkpt lat="40.7575537" lon="14.8329777"><ele>656.0</ele><time>2026-04-04T14:12:27.975Z</time></trkpt><trkpt lat="40.7576355" lon="14.8329598"><ele>656.0</ele><time>2026-04-04T14:12:30.948Z</time></trkpt><trkpt lat="40.7577266" lon="14.8329652"><ele>659.5</ele><time>2026-04-04T14:12:33.963Z</time></trkpt><trkpt lat="40.7578145" lon="14.8329785"><ele>663.0</ele><time>2026-04-04T14:12:35.968Z</time></trkpt><trkpt lat="40.7579121" lon="14.8329935"><ele>666.5</ele><time>2026-04-04T14:12:37.977Z</time></trkpt><trkpt lat="40.7580054" lon="14.8330085"><ele>670.0</ele><time>2026-04-04T14:12:39.951Z</time></trkpt><trkpt lat="40.7580737" lon="14.8330379"><ele>673.5</ele><time>2026-04-04T14:12:41.964Z</time></trkpt><trkpt lat="40.7581547" lon="14.8330776"><ele>677.0</ele><time>2026-04-04T14:12:44.965Z</time></trkpt><trkpt lat="40.7582274" lon="14.8331143"><ele>677.0</ele><time>2026-04-04T14:12:47.966Z</time></trkpt><trkpt lat="40.758299" lon="14.8331708"><ele>677.0</ele><time>2026-04-04T14:12:50.963Z</time></trkpt><trkpt lat="40.7583564" lon="14.8332193"><ele>677.0</ele><time>2026-04-04T14:12:52.972Z</time></trkpt><trkpt lat="40.758424" lon="14.8332962"><ele>677.0</ele><time>2026-04-04T14:12:55.951Z</time></trkpt><trkpt lat="40.7585106" lon="14.8333413"><ele>677.0</ele><time>2026-04-04T14:12:58.959Z</time></trkpt><trkpt lat="40.7585931" lon="14.8333493"><ele>677.0</ele><time>2026-04-04T14:13:00.965Z</time></trkpt><trkpt lat="40.7586759" lon="14.8333443"><ele>679.3333333333333</ele><time>2026-04-04T14:13:02.033Z</time></trkpt><trkpt lat="40.7587513" lon="14.833324"><ele>681.6666666666666</ele><time>2026-04-04T14:13:02.967Z</time></trkpt><trkpt lat="40.7588243" lon="14.833298"><ele>684.0</ele><time>2026-04-04T14:13:03.976Z</time></trkpt><trkpt lat="40.7588981" lon="14.8332502"><ele>686.3333333333334</ele><time>2026-04-04T14:13:04.966Z</time></trkpt><trkpt lat="40.7589576" lon="14.8331929"><ele>688.6666666666667</ele><time>2026-04-04T14:13:05.965Z</time></trkpt><trkpt lat="40.7590433" lon="14.8331146"><ele>691.0</ele><time>2026-04-04T14:13:06.961Z</time></trkpt><trkpt lat="40.7591297" lon="14.833034"><ele>691.0</ele><time>2026-04-04T14:13:08.063Z</time></trkpt><trkpt lat="40.7592243" lon="14.8329503"><ele>691.0</ele><time>2026-04-04T14:13:08.964Z</time></trkpt><trkpt lat="40.7593725" lon="14.8328179"><ele>691.0</ele><time>2026-04-04T14:13:09.978Z</time></trkpt><trkpt lat="40.7594366" lon="14.8327609"><ele>691.0</ele><time>2026-04-04T14:13:10.981Z</time></trkpt><trkpt lat="40.7595079" lon="14.8327273"><ele>691.0</ele><time>2026-04-04T14:13:11.961Z</time></trkpt><trkpt lat="40.7595887" lon="14.8326957"><ele>693.0</ele><time>2026-04-04T14:13:12.972Z</time></trkpt><trkpt lat="40.7596614" lon="14.8326582"><ele>695.0</ele><time>2026-04-04T14:13:13.97Z</time></trkpt><trkpt lat="40.7597546" lon="14.8326188"><ele>697.0</ele><time>2026-04-04T14:13:14.976Z</time></trkpt><trkpt lat="40.7598302" lon="14.8326114"><ele>699.0</ele><time>2026-04-04T14:13:17.972Z</time></trkpt><trkpt lat="40.7599309" lon="14.8326095"><ele>701.0</ele><time>2026-04-04T14:15:31.977Z</time></trkpt><trkpt lat="40.7599956" lon="14.8325901"><ele>703.0</ele><time>2026-04-04T14:15:35.968Z</time></trkpt><trkpt lat="40.7600594" lon="14.832538"><ele>694.5999999999999</ele><time>2026-04-04T14:15:37.982Z</time></trkpt><trkpt lat="40.7602076" lon="14.83248"><ele>686.1999999999999</ele><time>2026-04-04T14:15:39.966Z</time></trkpt><trkpt lat="40.7602939" lon="14.8324562"><ele>677.8</ele><time>2026-04-04T14:15:40.992Z</time></trkpt><trkpt lat="40.7603961" lon="14.8324481"><ele>669.4</ele><time>2026-04-04T14:15:41.969Z</time></trkpt><trkpt lat="40.7604988" lon="14.832432"><ele>661.0</ele><time>2026-04-04T14:15:42.949Z</time></trkpt><trkpt lat="40.7606039" lon="14.8324184"><ele>661.0</ele><time>2026-04-04T14:15:43.968Z</time></trkpt><trkpt lat="40.7607213" lon="14.8324007"><ele>661.0</ele><time>2026-04-04T14:15:44.969Z</time></trkpt><trkpt lat="40.760844" lon="14.8323854"><ele>661.0</ele><time>2026-04-04T14:15:45.955Z</time></trkpt><trkpt lat="40.760973" lon="14.8323733"><ele>661.0</ele><time>2026-04-04T14:15:46.971Z</time></trkpt><trkpt lat="40.7611056" lon="14.8323509"><ele>654.25</ele><time>2026-04-04T14:15:47.969Z</time></trkpt><trkpt lat="40.7612392" lon="14.8323118"><ele>647.5</ele><time>2026-04-04T14:15:48.97Z</time></trkpt><trkpt lat="40.7613636" lon="14.8322588"><ele>640.75</ele><time>2026-04-04T14:15:49.97Z</time></trkpt><trkpt lat="40.7614726" lon="14.8321828"><ele>634.0</ele><time>2026-04-04T14:15:50.984Z</time></trkpt><trkpt lat="40.7615645" lon="14.8320812"><ele>634.0</ele><time>2026-04-04T14:15:51.944Z</time></trkpt><trkpt lat="40.7616411" lon="14.8319495"><ele>634.0</ele><time>2026-04-04T14:15:52.973Z</time></trkpt><trkpt lat="40.7617021" lon="14.8318145"><ele>634.0</ele><time>2026-04-04T14:15:53.97Z</time></trkpt><trkpt lat="40.7617539" lon="14.8316778"><ele>634.0</ele><time>2026-04-04T14:15:54.977Z</time></trkpt><trkpt lat="40.7618008" lon="14.8315385"><ele>632.8</ele><time>2026-04-04T14:15:55.974Z</time></trkpt><trkpt lat="40.7618394" lon="14.831392"><ele>631.5999999999999</ele><time>2026-04-04T14:15:56.976Z</time></trkpt><trkpt lat="40.7618716" lon="14.8312623"><ele>630.4</ele><time>2026-04-04T14:15:57.973Z</time></trkpt><trkpt lat="40.7619124" lon="14.8311263"><ele>629.1999999999999</ele><time>2026-04-04T14:15:58.979Z</time></trkpt><trkpt lat="40.7619652" lon="14.831002"><ele>628.0</ele><time>2026-04-04T14:15:59.967Z</time></trkpt><trkpt lat="40.7620287" lon="14.830895"><ele>625.0</ele><time>2026-04-04T14:16:00.965Z</time></trkpt><trkpt lat="40.7620915" lon="14.830788"><ele>622.0</ele><time>2026-04-04T14:16:01.98Z</time></trkpt><trkpt lat="40.762168" lon="14.8306909"><ele>619.0</ele><time>2026-04-04T14:16:02.976Z</time></trkpt><trkpt lat="40.76224" lon="14.8306032"><ele>616.0</ele><time>2026-04-04T14:16:03.985Z</time></trkpt><trkpt lat="40.7623092" lon="14.8305318"><ele>613.0</ele><time>2026-04-04T14:16:04.954Z</time></trkpt><trkpt lat="40.7623726" lon="14.8304907"><ele>613.0</ele><time>2026-04-04T14:16:06.975Z</time></trkpt><trkpt lat="40.7624472" lon="14.830502"><ele>613.0</ele><time>2026-04-04T14:16:09.961Z</time></trkpt><trkpt lat="40.7625344" lon="14.8305594"><ele>613.0</ele><time>2026-04-04T14:16:12.962Z</time></trkpt><trkpt lat="40.7626578" lon="14.8306371"><ele>613.0</ele><time>2026-04-04T14:16:14.976Z</time></trkpt><trkpt lat="40.7627317" lon="14.8306889"><ele>613.0</ele><time>2026-04-04T14:16:15.972Z</time></trkpt><trkpt lat="40.7628174" lon="14.8307362"><ele>612.4</ele><time>2026-04-04T14:16:16.972Z</time></trkpt><trkpt lat="40.7629014" lon="14.8307917"><ele>611.8</ele><time>2026-04-04T14:16:17.964Z</time></trkpt><trkpt lat="40.7630023" lon="14.8308557"><ele>611.2</ele><time>2026-04-04T14:16:18.973Z</time></trkpt><trkpt lat="40.76311" lon="14.8309284"><ele>610.6</ele><time>2026-04-04T14:16:19.97Z</time></trkpt><trkpt lat="40.7632257" lon="14.8309734"><ele>610.0</ele><time>2026-04-04T14:16:20.966Z</time></trkpt><trkpt lat="40.763337" lon="14.8310013"><ele>606.6</ele><time>2026-04-04T14:16:21.964Z</time></trkpt><trkpt lat="40.7634258" lon="14.831023"><ele>603.2</ele><time>2026-04-04T14:16:22.967Z</time></trkpt><trkpt lat="40.7635263" lon="14.831023"><ele>599.8</ele><time>2026-04-04T14:16:23.968Z</time></trkpt><trkpt lat="40.7636003" lon="14.8309759"><ele>596.4</ele><time>2026-04-04T14:16:25.97Z</time></trkpt><trkpt lat="40.7636793" lon="14.8309214"><ele>593.0</ele><time>2026-04-04T14:16:27.98Z</time></trkpt><trkpt lat="40.7638272" lon="14.8308701"><ele>593.0</ele><time>2026-04-04T14:16:29.983Z</time></trkpt><trkpt lat="40.7639138" lon="14.830829"><ele>593.0</ele><time>2026-04-04T14:16:30.964Z</time></trkpt><trkpt lat="40.763995" lon="14.8307842"><ele>593.0</ele><time>2026-04-04T14:16:31.968Z</time></trkpt><trkpt lat="40.7640782" lon="14.8307315"><ele>593.0</ele><time>2026-04-04T14:16:32.969Z</time></trkpt><trkpt lat="40.7641633" lon="14.830677"><ele>593.0</ele><time>2026-04-04T14:16:33.967Z</time></trkpt><trkpt lat="40.7642518" lon="14.8306116"><ele>593.0</ele><time>2026-04-04T14:16:34.967Z</time></trkpt><trkpt lat="40.7643437" lon="14.8305422"><ele>593.0</ele><time>2026-04-04T14:16:35.974Z</time></trkpt><trkpt lat="40.7644279" lon="14.8304697"><ele>593.0</ele><time>2026-04-04T14:16:36.967Z</time></trkpt><trkpt lat="40.764503" lon="14.8303877"><ele>593.0</ele><time>2026-04-04T14:16:37.964Z</time></trkpt><trkpt lat="40.7645607" lon="14.8302889"><ele>593.0</ele><time>2026-04-04T14:16:38.962Z</time></trkpt><trkpt lat="40.7646172" lon="14.8301548"><ele>594.1999999999999</ele><time>2026-04-04T14:16:39.961Z</time></trkpt><trkpt lat="40.764667" lon="14.8300171"><ele>595.4</ele><time>2026-04-04T14:16:40.949Z</time></trkpt><trkpt lat="40.7647096" lon="14.829902"><ele>596.5999999999999</ele><time>2026-04-04T14:16:41.968Z</time></trkpt><trkpt lat="40.7647796" lon="14.829829"><ele>597.8</ele><time>2026-04-04T14:16:43.969Z</time></trkpt><trkpt lat="40.7649004" lon="14.8297934"><ele>599.0</ele><time>2026-04-04T14:16:45.956Z</time></trkpt><trkpt lat="40.7649708" lon="14.8297621"><ele>599.0</ele><time>2026-04-04T14:16:46.967Z</time></trkpt><trkpt lat="40.7650536" lon="14.8297383"><ele>599.0</ele><time>2026-04-04T14:16:47.968Z</time></trkpt><trkpt lat="40.7651656" lon="14.8297295"><ele>599.0</ele><time>2026-04-04T14:16:48.966Z</time></trkpt><trkpt lat="40.7652495" lon="14.8297447"><ele>599.0</ele><time>2026-04-04T14:16:49.977Z</time></trkpt><trkpt lat="40.7653295" lon="14.8297568"><ele>599.0</ele><time>2026-04-04T14:16:50.97Z</time></trkpt><trkpt lat="40.7654124" lon="14.829794"><ele>596.2</ele><time>2026-04-04T14:16:51.974Z</time></trkpt><trkpt lat="40.7655079" lon="14.8298318"><ele>593.4</ele><time>2026-04-04T14:16:52.96Z</time></trkpt><trkpt lat="40.7656306" lon="14.8298721"><ele>590.6</ele><time>2026-04-04T14:16:53.973Z</time></trkpt><trkpt lat="40.7657401" lon="14.8299188"><ele>587.8</ele><time>2026-04-04T14:16:54.97Z</time></trkpt><trkpt lat="40.7658424" lon="14.8299635"><ele>585.0</ele><time>2026-04-04T14:16:55.973Z</time></trkpt><trkpt lat="40.7659682" lon="14.8300265"><ele>583.6</ele><time>2026-04-04T14:16:56.971Z</time></trkpt><trkpt lat="40.7660885" lon="14.8300891"><ele>582.2</ele><time>2026-04-04T14:16:57.967Z</time></trkpt><trkpt lat="40.7661873" lon="14.8301457"><ele>580.8</ele><time>2026-04-04T14:16:58.971Z</time></trkpt><trkpt lat="40.76627" lon="14.8301783"><ele>579.4</ele><time>2026-04-04T14:16:59.96Z</time></trkpt><trkpt lat="40.7663479" lon="14.8301875"><ele>578.0</ele><time>2026-04-04T14:17:00.958Z</time></trkpt><trkpt lat="40.766418" lon="14.8301697"><ele>578.0</ele><time>2026-04-04T14:17:01.962Z</time></trkpt><trkpt lat="40.766481" lon="14.8301556"><ele>578.0</ele><time>2026-04-04T14:17:02.971Z</time></trkpt><trkpt lat="40.7665633" lon="14.8301227"><ele>578.0</ele><time>2026-04-04T14:17:04.964Z</time></trkpt><trkpt lat="40.7665831" lon="14.830251"><ele>578.0</ele><time>2026-04-04T14:17:07.969Z</time></trkpt><trkpt lat="40.7665059" lon="14.8303637"><ele>578.0</ele><time>2026-04-04T14:17:09.967Z</time></trkpt><trkpt lat="40.7664377" lon="14.8303894"><ele>578.0</ele><time>2026-04-04T14:17:10.974Z</time></trkpt><trkpt lat="40.7663426" lon="14.8303885"><ele>575.0</ele><time>2026-04-04T14:17:11.966Z</time></trkpt><trkpt lat="40.7662541" lon="14.8303741"><ele>572.0</ele><time>2026-04-04T14:17:12.961Z</time></trkpt><trkpt lat="40.7661888" lon="14.8303752"><ele>569.0</ele><time>2026-04-04T14:17:13.967Z</time></trkpt><trkpt lat="40.7660731" lon="14.8304227"><ele>566.0</ele><time>2026-04-04T14:17:15.979Z</time></trkpt><trkpt lat="40.7659977" lon="14.8304467"><ele>563.0</ele><time>2026-04-04T14:17:16.968Z</time></trkpt><trkpt lat="40.7659154" lon="14.830473"><ele>560.0</ele><time>2026-04-04T14:17:17.969Z</time></trkpt><trkpt lat="40.765828" lon="14.8304905"><ele>560.0</ele><time>2026-04-04T14:17:18.972Z</time></trkpt><trkpt lat="40.76573" lon="14.8305033"><ele>560.0</ele><time>2026-04-04T14:17:19.969Z</time></trkpt><trkpt lat="40.765635" lon="14.8304935"><ele>560.0</ele><time>2026-04-04T14:17:20.97Z</time></trkpt><trkpt lat="40.7655289" lon="14.8304805"><ele>560.0</ele><time>2026-04-04T14:17:21.964Z</time></trkpt><trkpt lat="40.7654421" lon="14.8304601"><ele>560.0</ele><time>2026-04-04T14:17:22.963Z</time></trkpt><trkpt lat="40.7653469" lon="14.8303966"><ele>560.0</ele><time>2026-04-04T14:17:24.968Z</time></trkpt><trkpt lat="40.7652663" lon="14.8304428"><ele>560.0</ele><time>2026-04-04T14:17:28.968Z</time></trkpt><trkpt lat="40.7652338" lon="14.8305317"><ele>560.0</ele><time>2026-04-04T14:17:30.965Z</time></trkpt><trkpt lat="40.7651505" lon="14.8306574"><ele>560.0</ele><time>2026-04-04T14:17:32.965Z</time></trkpt><trkpt lat="40.7650955" lon="14.8307441"><ele>560.0</ele><time>2026-04-04T14:17:33.964Z</time></trkpt><trkpt lat="40.7650395" lon="14.8308105"><ele>561.3333333333333</ele><time>2026-04-04T14:17:34.96Z</time></trkpt><trkpt lat="40.7649793" lon="14.8308803"><ele>562.6666666666666</ele><time>2026-04-04T14:17:35.961Z</time></trkpt><trkpt lat="40.7649296" lon="14.830936"><ele>564.0</ele><time>2026-04-04T14:17:36.969Z</time></trkpt><trkpt lat="40.7648735" lon="14.830983"><ele>565.3333333333334</ele><time>2026-04-04T14:17:37.962Z</time></trkpt><trkpt lat="40.7648257" lon="14.8310469"><ele>566.6666666666667</ele><time>2026-04-04T14:17:38.951Z</time></trkpt><trkpt lat="40.7647725" lon="14.8311195"><ele>568.0</ele><time>2026-04-04T14:17:39.962Z</time></trkpt><trkpt lat="40.7647649" lon="14.8312561"><ele>564.8</ele><time>2026-04-04T14:17:41.961Z</time></trkpt><trkpt lat="40.7648744" lon="14.8313935"><ele>561.5999999999999</ele><time>2026-04-04T14:17:43.968Z</time></trkpt><trkpt lat="40.7649606" lon="14.831478"><ele>558.4000000000001</ele><time>2026-04-04T14:17:44.967Z</time></trkpt><trkpt lat="40.7650379" lon="14.8315524"><ele>555.2</ele><time>2026-04-04T14:17:45.96Z</time></trkpt><trkpt lat="40.765107" lon="14.8316139"><ele>552.0</ele><time>2026-04-04T14:17:46.968Z</time></trkpt><trkpt lat="40.7651824" lon="14.8316902"><ele>552.0</ele><time>2026-04-04T14:17:48.966Z</time></trkpt><trkpt lat="40.7651769" lon="14.8317938"><ele>552.0</ele><time>2026-04-04T14:17:50.973Z</time></trkpt><trkpt lat="40.765137" lon="14.8318618"><ele>552.0</ele><time>2026-04-04T14:17:51.967Z</time></trkpt><trkpt lat="40.7650525" lon="14.8319476"><ele>552.0</ele><time>2026-04-04T14:17:52.971Z</time></trkpt><trkpt lat="40.7649496" lon="14.8320346"><ele>552.0</ele><time>2026-04-04T14:17:53.974Z</time></trkpt><trkpt lat="40.7648513" lon="14.8321165"><ele>549.8333333333334</ele><time>2026-04-04T14:17:54.964Z</time></trkpt><trkpt lat="40.7647844" lon="14.8322038"><ele>547.6666666666666</ele><time>2026-04-04T14:17:55.969Z</time></trkpt><trkpt lat="40.7647143" lon="14.832268"><ele>545.5</ele><time>2026-04-04T14:17:56.971Z</time></trkpt><trkpt lat="40.76463" lon="14.8323074"><ele>543.3333333333333</ele><time>2026-04-04T14:17:57.976Z</time></trkpt><trkpt lat="40.764551" lon="14.8323557"><ele>541.1666666666666</ele><time>2026-04-04T14:17:58.953Z</time></trkpt><trkpt lat="40.7644748" lon="14.8324119"><ele>539.0</ele><time>2026-04-04T14:17:59.969Z</time></trkpt><trkpt lat="40.7644017" lon="14.8324812"><ele>541.6666666666666</ele><time>2026-04-04T14:18:00.972Z</time></trkpt><trkpt lat="40.7643491" lon="14.8325548"><ele>544.3333333333333</ele><time>2026-04-04T14:18:01.966Z</time></trkpt><trkpt lat="40.7643182" lon="14.8326537"><ele>547.0</ele><time>2026-04-04T14:18:02.937Z</time></trkpt><trkpt lat="40.7643148" lon="14.8327488"><ele>549.6666666666666</ele><time>2026-04-04T14:18:03.962Z</time></trkpt><trkpt lat="40.7643077" lon="14.8328394"><ele>552.3333333333334</ele><time>2026-04-04T14:18:04.969Z</time></trkpt><trkpt lat="40.7643084" lon="14.8330317"><ele>555.0</ele><time>2026-04-04T14:18:06.97Z</time></trkpt><trkpt lat="40.7643316" lon="14.8331428"><ele>555.0</ele><time>2026-04-04T14:18:07.969Z</time></trkpt><trkpt lat="40.764359" lon="14.8332524"><ele>555.0</ele><time>2026-04-04T14:18:08.97Z</time></trkpt><trkpt lat="40.7644028" lon="14.8333752"><ele>555.0</ele><time>2026-04-04T14:18:09.97Z</time></trkpt><trkpt lat="40.764454" lon="14.8334779"><ele>555.0</ele><time>2026-04-04T14:18:10.967Z</time></trkpt><trkpt lat="40.7645098" lon="14.83358"><ele>555.0</ele><time>2026-04-04T14:18:11.964Z</time></trkpt><trkpt lat="40.7645782" lon="14.8336728"><ele>553.1666666666666</ele><time>2026-04-04T14:18:12.959Z</time></trkpt><trkpt lat="40.7646483" lon="14.8337596"><ele>551.3333333333334</ele><time>2026-04-04T14:18:13.963Z</time></trkpt><trkpt lat="40.7647248" lon="14.8337983"><ele>549.5</ele><time>2026-04-04T14:18:14.969Z</time></trkpt><trkpt lat="40.7647917" lon="14.8338296"><ele>547.6666666666667</ele><time>2026-04-04T14:18:15.972Z</time></trkpt><trkpt lat="40.7648479" lon="14.8339437"><ele>545.8333333333334</ele><time>2026-04-04T14:18:17.957Z</time></trkpt><trkpt lat="40.7648646" lon="14.8340501"><ele>544.0</ele><time>2026-04-04T14:18:18.967Z</time></trkpt><trkpt lat="40.7648803" lon="14.8341813"><ele>545.0</ele><time>2026-04-04T14:18:19.96Z</time></trkpt><trkpt lat="40.7648661" lon="14.8343374"><ele>546.0</ele><time>2026-04-04T14:18:20.961Z</time></trkpt><trkpt lat="40.7648537" lon="14.8345046"><ele>547.0</ele><time>2026-04-04T14:18:21.961Z</time></trkpt><trkpt lat="40.7648553" lon="14.8346754"><ele>548.0</ele><time>2026-04-04T14:18:22.952Z</time></trkpt><trkpt lat="40.7648635" lon="14.8348394"><ele>548.0</ele><time>2026-04-04T14:18:23.961Z</time></trkpt><trkpt lat="40.7648777" lon="14.8349863"><ele>548.0</ele><time>2026-04-04T14:18:24.964Z</time></trkpt><trkpt lat="40.7649046" lon="14.8351338"><ele>548.0</ele><time>2026-04-04T14:18:25.965Z</time></trkpt><trkpt lat="40.7649489" lon="14.8352793"><ele>548.0</ele><time>2026-04-04T14:18:26.978Z</time></trkpt><trkpt lat="40.765" lon="14.8354432"><ele>548.1999999999999</ele><time>2026-04-04T14:18:27.967Z</time></trkpt><trkpt lat="40.7650483" lon="14.8356058"><ele>548.4</ele><time>2026-04-04T14:18:28.944Z</time></trkpt><trkpt lat="40.7650859" lon="14.8357327"><ele>548.5999999999999</ele><time>2026-04-04T14:18:29.968Z</time></trkpt><trkpt lat="40.7651052" lon="14.835836"><ele>548.8</ele><time>2026-04-04T14:18:30.973Z</time></trkpt><trkpt lat="40.7651082" lon="14.8359456"><ele>549.0</ele><time>2026-04-04T14:18:31.973Z</time></trkpt><trkpt lat="40.7651007" lon="14.836083"><ele>547.5</ele><time>2026-04-04T14:18:32.971Z</time></trkpt><trkpt lat="40.7650885" lon="14.8361869"><ele>546.0</ele><time>2026-04-04T14:18:33.968Z</time></trkpt><trkpt lat="40.7650885" lon="14.8362809"><ele>544.5</ele><time>2026-04-04T14:18:34.973Z</time></trkpt><trkpt lat="40.7650858" lon="14.8363881"><ele>543.0</ele><time>2026-04-04T14:18:35.968Z</time></trkpt><trkpt lat="40.7650688" lon="14.8365006"><ele>541.5</ele><time>2026-04-04T14:18:36.969Z</time></trkpt><trkpt lat="40.7650491" lon="14.8366029"><ele>540.0</ele><time>2026-04-04T14:18:37.965Z</time></trkpt><trkpt lat="40.7650107" lon="14.836718"><ele>537.2</ele><time>2026-04-04T14:18:38.961Z</time></trkpt><trkpt lat="40.7649607" lon="14.8368303"><ele>534.4</ele><time>2026-04-04T14:18:39.967Z</time></trkpt><trkpt lat="40.7649221" lon="14.8369345"><ele>531.6</ele><time>2026-04-04T14:18:40.966Z</time></trkpt><trkpt lat="40.7648962" lon="14.837084"><ele>528.8</ele><time>2026-04-04T14:18:42.966Z</time></trkpt><trkpt lat="40.7649293" lon="14.8371682"><ele>526.0</ele><time>2026-04-04T14:18:44.959Z</time></trkpt><trkpt lat="40.7649775" lon="14.8372765"><ele>526.0</ele><time>2026-04-04T14:18:46.978Z</time></trkpt><trkpt lat="40.7650012" lon="14.8374261"><ele>526.0</ele><time>2026-04-04T14:18:48.972Z</time></trkpt><trkpt lat="40.7650171" lon="14.8375326"><ele>526.0</ele><time>2026-04-04T14:18:49.976Z</time></trkpt><trkpt lat="40.7649881" lon="14.8376946"><ele>526.0</ele><time>2026-04-04T14:18:51.97Z</time></trkpt><trkpt lat="40.7649697" lon="14.8377873"><ele>526.0</ele><time>2026-04-04T14:18:52.974Z</time></trkpt><trkpt lat="40.7649314" lon="14.837871"><ele>524.7142857142857</ele><time>2026-04-04T14:18:53.97Z</time></trkpt><trkpt lat="40.7648947" lon="14.8379528"><ele>523.4285714285713</ele><time>2026-04-04T14:18:54.97Z</time></trkpt><trkpt lat="40.7648404" lon="14.8380318"><ele>522.1428571428571</ele><time>2026-04-04T14:18:55.968Z</time></trkpt><trkpt lat="40.7647811" lon="14.8380967"><ele>520.8571428571429</ele><time>2026-04-04T14:18:56.954Z</time></trkpt><trkpt lat="40.764719" lon="14.8381495"><ele>519.5714285714287</ele><time>2026-04-04T14:18:57.962Z</time></trkpt><trkpt lat="40.7646507" lon="14.8381879"><ele>518.2857142857143</ele><time>2026-04-04T14:18:58.965Z</time></trkpt><trkpt lat="40.7645815" lon="14.8382005"><ele>517.0</ele><time>2026-04-04T14:18:59.965Z</time></trkpt><trkpt lat="40.7645001" lon="14.8382067"><ele>517.0</ele><time>2026-04-04T14:19:00.962Z</time></trkpt><trkpt lat="40.76443" lon="14.8382178"><ele>517.0</ele><time>2026-04-04T14:19:01.965Z</time></trkpt><trkpt lat="40.7643256" lon="14.8382481"><ele>517.0</ele><time>2026-04-04T14:19:03.977Z</time></trkpt><trkpt lat="40.7642518" lon="14.8382675"><ele>517.0</ele><time>2026-04-04T14:19:05.969Z</time></trkpt><trkpt lat="40.7642204" lon="14.8383406"><ele>517.0</ele><time>2026-04-04T14:19:12.957Z</time></trkpt><trkpt lat="40.7642831" lon="14.8383642"><ele>517.0</ele><time>2026-04-04T14:19:16.965Z</time></trkpt><trkpt lat="40.7643545" lon="14.8383445"><ele>517.0</ele><time>2026-04-04T14:19:19.967Z</time></trkpt><trkpt lat="40.7644393" lon="14.8383445"><ele>517.0</ele><time>2026-04-04T14:19:22.964Z</time></trkpt><trkpt lat="40.7645654" lon="14.8383294"><ele>517.0</ele><time>2026-04-04T14:19:24.973Z</time></trkpt><trkpt lat="40.764632" lon="14.8383352"><ele>517.0</ele><time>2026-04-04T14:19:25.967Z</time></trkpt><trkpt lat="40.7647174" lon="14.8383404"><ele>517.0</ele><time>2026-04-04T14:19:26.974Z</time></trkpt><trkpt lat="40.7648078" lon="14.8383453"><ele>517.0</ele><time>2026-04-04T14:19:27.97Z</time></trkpt><trkpt lat="40.7648851" lon="14.8383583"><ele>517.0</ele><time>2026-04-04T14:19:28.963Z</time></trkpt><trkpt lat="40.7649644" lon="14.8383632"><ele>517.0</ele><time>2026-04-04T14:19:29.97Z</time></trkpt><trkpt lat="40.7650337" lon="14.838376"><ele>517.0</ele><time>2026-04-04T14:19:30.972Z</time></trkpt><trkpt lat="40.7651084" lon="14.8383901"><ele>517.0</ele><time>2026-04-04T14:19:31.964Z</time></trkpt><trkpt lat="40.7651788" lon="14.8384075"><ele>517.0</ele><time>2026-04-04T14:19:32.972Z</time></trkpt><trkpt lat="40.7652474" lon="14.8384278"><ele>517.0</ele><time>2026-04-04T14:19:33.969Z</time></trkpt><trkpt lat="40.7653283" lon="14.8384471"><ele>518.8333333333334</ele><time>2026-04-04T14:19:34.971Z</time></trkpt><trkpt lat="40.7654256" lon="14.8384393"><ele>520.6666666666667</ele><time>2026-04-04T14:19:36.973Z</time></trkpt><trkpt lat="40.7654884" lon="14.8384065"><ele>522.5</ele><time>2026-04-04T14:19:38.977Z</time></trkpt><trkpt lat="40.7655505" lon="14.8383424"><ele>524.3333333333334</ele><time>2026-04-04T14:19:40.968Z</time></trkpt><trkpt lat="40.7656214" lon="14.8382821"><ele>526.1666666666666</ele><time>2026-04-04T14:19:42.972Z</time></trkpt><trkpt lat="40.7657022" lon="14.8382224"><ele>528.0</ele><time>2026-04-04T14:19:44.978Z</time></trkpt><trkpt lat="40.7658229" lon="14.8382026"><ele>528.0</ele><time>2026-04-04T14:19:46.969Z</time></trkpt><trkpt lat="40.7658987" lon="14.8381927"><ele>528.0</ele><time>2026-04-04T14:19:48.963Z</time></trkpt><trkpt lat="40.765904" lon="14.8383559"><ele>528.0</ele><time>2026-04-04T14:19:53.976Z</time></trkpt><trkpt lat="40.765916" lon="14.8385297"><ele>528.0</ele><time>2026-04-04T14:19:55.977Z</time></trkpt><trkpt lat="40.7658894" lon="14.8386201"><ele>528.0</ele><time>2026-04-04T14:19:57.972Z</time></trkpt><trkpt lat="40.7658038" lon="14.8386354"><ele>532.0</ele><time>2026-04-04T14:19:59.975Z</time></trkpt><trkpt lat="40.7656734" lon="14.8386913"><ele>536.0</ele><time>2026-04-04T14:20:01.968Z</time></trkpt><trkpt lat="40.7656179" lon="14.8387645"><ele>540.0</ele><time>2026-04-04T14:20:02.983Z</time></trkpt><trkpt lat="40.7655638" lon="14.8388376"><ele>544.0</ele><time>2026-04-04T14:20:03.972Z</time></trkpt><trkpt lat="40.7655147" lon="14.8389203"><ele>548.0</ele><time>2026-04-04T14:20:04.975Z</time></trkpt><trkpt lat="40.7654551" lon="14.839015"><ele>548.0</ele><time>2026-04-04T14:20:05.975Z</time></trkpt><trkpt lat="40.7653899" lon="14.8391035"><ele>548.0</ele><time>2026-04-04T14:20:06.974Z</time></trkpt><trkpt lat="40.7653011" lon="14.839179"><ele>548.0</ele><time>2026-04-04T14:20:07.97Z</time></trkpt><trkpt lat="40.7652012" lon="14.8392387"><ele>548.0</ele><time>2026-04-04T14:20:08.973Z</time></trkpt><trkpt lat="40.7651142" lon="14.8393029"><ele>548.0</ele><time>2026-04-04T14:20:09.962Z</time></trkpt><trkpt lat="40.7650411" lon="14.8393759"><ele>549.0</ele><time>2026-04-04T14:20:10.972Z</time></trkpt><trkpt lat="40.764992" lon="14.839496"><ele>550.0</ele><time>2026-04-04T14:20:11.975Z</time></trkpt><trkpt lat="40.7649542" lon="14.8396081"><ele>551.0</ele><time>2026-04-04T14:20:12.955Z</time></trkpt><trkpt lat="40.7649351" lon="14.8397202"><ele>552.0</ele><time>2026-04-04T14:20:13.968Z</time></trkpt><trkpt lat="40.764943" lon="14.8398271"><ele>553.0</ele><time>2026-04-04T14:20:14.971Z</time></trkpt><trkpt lat="40.7649537" lon="14.8399777"><ele>555.0</ele><time>2026-04-04T14:20:15.958Z</time></trkpt><trkpt lat="40.7649381" lon="14.8401483"><ele>557.0</ele><time>2026-04-04T14:20:16.96Z</time></trkpt><trkpt lat="40.7649173" lon="14.8402815"><ele>559.0</ele><time>2026-04-04T14:20:17.958Z</time></trkpt><trkpt lat="40.7648889" lon="14.8404026"><ele>561.0</ele><time>2026-04-04T14:20:18.968Z</time></trkpt><trkpt lat="40.7648642" lon="14.840511"><ele>563.0</ele><time>2026-04-04T14:20:19.973Z</time></trkpt><trkpt lat="40.7648264" lon="14.8405885"><ele>563.0</ele><time>2026-04-04T14:20:20.967Z</time></trkpt><trkpt lat="40.76478" lon="14.8407112"><ele>563.0</ele><time>2026-04-04T14:20:22.963Z</time></trkpt><trkpt lat="40.7647" lon="14.8407473"><ele>563.0</ele><time>2026-04-04T14:20:24.964Z</time></trkpt><trkpt lat="40.7646234" lon="14.840729"><ele>563.0</ele><time>2026-04-04T14:20:26.966Z</time></trkpt><trkpt lat="40.7646603" lon="14.8406256"><ele>563.0</ele><time>2026-04-04T14:20:28.957Z</time></trkpt><trkpt lat="40.7645886" lon="14.840662"><ele>563.0</ele><time>2026-04-04T14:20:35.972Z</time></trkpt><trkpt lat="40.7645046" lon="14.8406968"><ele>563.0</ele><time>2026-04-04T14:20:37.971Z</time></trkpt><trkpt lat="40.764434" lon="14.8407404"><ele>563.0</ele><time>2026-04-04T14:20:38.97Z</time></trkpt><trkpt lat="40.7643583" lon="14.8407845"><ele>563.0</ele><time>2026-04-04T14:20:39.971Z</time></trkpt><trkpt lat="40.7642886" lon="14.8408236"><ele>563.0</ele><time>2026-04-04T14:20:40.96Z</time></trkpt><trkpt lat="40.7642047" lon="14.8408462"><ele>563.0</ele><time>2026-04-04T14:20:41.971Z</time></trkpt><trkpt lat="40.7641324" lon="14.8408816"><ele>563.0</ele><time>2026-04-04T14:20:42.964Z</time></trkpt><trkpt lat="40.76403" lon="14.8409275"><ele>561.5</ele><time>2026-04-04T14:20:44.959Z</time></trkpt><trkpt lat="40.763948" lon="14.8409627"><ele>560.0</ele><time>2026-04-04T14:20:46.971Z</time></trkpt><trkpt lat="40.7638888" lon="14.841023"><ele>558.5</ele><time>2026-04-04T14:20:47.968Z</time></trkpt><trkpt lat="40.7638334" lon="14.8411067"><ele>557.0</ele><time>2026-04-04T14:20:48.971Z</time></trkpt><trkpt lat="40.7637889" lon="14.8411876"><ele>555.5</ele><time>2026-04-04T14:20:49.968Z</time></trkpt><trkpt lat="40.7637503" lon="14.8412618"><ele>554.0</ele><time>2026-04-04T14:20:50.975Z</time></trkpt><trkpt lat="40.7637192" lon="14.8413406"><ele>554.0</ele><time>2026-04-04T14:20:51.972Z</time></trkpt><trkpt lat="40.763688" lon="14.8414346"><ele>554.0</ele><time>2026-04-04T14:20:52.96Z</time></trkpt><trkpt lat="40.7636628" lon="14.8415323"><ele>554.0</ele><time>2026-04-04T14:20:53.977Z</time></trkpt><trkpt lat="40.7636381" lon="14.8416344"><ele>554.0</ele><time>2026-04-04T14:20:54.977Z</time></trkpt><trkpt lat="40.7635948" lon="14.8417451"><ele>554.0</ele><time>2026-04-04T14:20:55.974Z</time></trkpt><trkpt lat="40.7635384" lon="14.8418654"><ele>554.0</ele><time>2026-04-04T14:20:56.971Z</time></trkpt><trkpt lat="40.7634685" lon="14.8420075"><ele>557.6</ele><time>2026-04-04T14:20:57.974Z</time></trkpt><trkpt lat="40.7634039" lon="14.8421314"><ele>561.2</ele><time>2026-04-04T14:20:58.973Z</time></trkpt><trkpt lat="40.7633515" lon="14.8422365"><ele>564.8000000000001</ele><time>2026-04-04T14:20:59.969Z</time></trkpt><trkpt lat="40.7632968" lon="14.8423303"><ele>568.4</ele><time>2026-04-04T14:21:00.966Z</time></trkpt><trkpt lat="40.7632315" lon="14.8424208"><ele>572.0</ele><time>2026-04-04T14:21:01.966Z</time></trkpt><trkpt lat="40.7631701" lon="14.842524"><ele>572.0</ele><time>2026-04-04T14:21:02.97Z</time></trkpt><trkpt lat="40.7631092" lon="14.8426201"><ele>572.0</ele><time>2026-04-04T14:21:03.961Z</time></trkpt><trkpt lat="40.7630425" lon="14.842686"><ele>572.0</ele><time>2026-04-04T14:21:04.967Z</time></trkpt><trkpt lat="40.7629613" lon="14.8427933"><ele>572.0</ele><time>2026-04-04T14:21:06.967Z</time></trkpt><trkpt lat="40.7628821" lon="14.8429304"><ele>572.0</ele><time>2026-04-04T14:21:08.972Z</time></trkpt><trkpt lat="40.7628474" lon="14.843013"><ele>572.0</ele><time>2026-04-04T14:21:09.972Z</time></trkpt><trkpt lat="40.7628293" lon="14.8430979"><ele>572.0</ele><time>2026-04-04T14:21:10.961Z</time></trkpt><trkpt lat="40.7628122" lon="14.8431799"><ele>572.0</ele><time>2026-04-04T14:21:11.957Z</time></trkpt><trkpt lat="40.7627676" lon="14.8433286"><ele>572.0</ele><time>2026-04-04T14:21:13.958Z</time></trkpt><trkpt lat="40.7627267" lon="14.843455"><ele>572.0</ele><time>2026-04-04T14:21:15.975Z</time></trkpt><trkpt lat="40.7627089" lon="14.8435501"><ele>572.0</ele><time>2026-04-04T14:21:16.967Z</time></trkpt><trkpt lat="40.7626903" lon="14.8436355"><ele>575.0</ele><time>2026-04-04T14:21:17.964Z</time></trkpt><trkpt lat="40.7626795" lon="14.8437216"><ele>578.0</ele><time>2026-04-04T14:21:18.965Z</time></trkpt><trkpt lat="40.7626452" lon="14.8438025"><ele>581.0</ele><time>2026-04-04T14:21:19.979Z</time></trkpt><trkpt lat="40.7625889" lon="14.8438945"><ele>584.0</ele><time>2026-04-04T14:21:20.971Z</time></trkpt><trkpt lat="40.7625308" lon="14.8439946"><ele>587.0</ele><time>2026-04-04T14:21:21.968Z</time></trkpt><trkpt lat="40.7624667" lon="14.8441083"><ele>590.0</ele><time>2026-04-04T14:21:22.97Z</time></trkpt><trkpt lat="40.7624022" lon="14.8442046"><ele>590.0</ele><time>2026-04-04T14:21:23.972Z</time></trkpt><trkpt lat="40.7623556" lon="14.8442757"><ele>590.0</ele><time>2026-04-04T14:21:24.972Z</time></trkpt><trkpt lat="40.7623077" lon="14.8443446"><ele>590.0</ele><time>2026-04-04T14:21:26.969Z</time></trkpt><trkpt lat="40.762298" lon="14.8441898"><ele>590.0</ele><time>2026-04-04T14:21:36.959Z</time></trkpt><trkpt lat="40.7622899" lon="14.8440897"><ele>590.0</ele><time>2026-04-04T14:21:38.986Z</time></trkpt><trkpt lat="40.7621997" lon="14.8440903"><ele>590.0</ele><time>2026-04-04T14:21:44.965Z</time></trkpt><trkpt lat="40.7621216" lon="14.8441343"><ele>590.0</ele><time>2026-04-04T14:21:46.968Z</time></trkpt><trkpt lat="40.762067" lon="14.8442259"><ele>590.0</ele><time>2026-04-04T14:21:48.968Z</time></trkpt><trkpt lat="40.7619628" lon="14.8443584"><ele>590.0</ele><time>2026-04-04T14:21:51.017Z</time></trkpt><trkpt lat="40.7619842" lon="14.8442424"><ele>590.0</ele><time>2026-04-04T14:21:51.97Z</time></trkpt><trkpt lat="40.7619177" lon="14.8443464"><ele>590.0</ele><time>2026-04-04T14:21:52.971Z</time></trkpt><trkpt lat="40.7618392" lon="14.8444391"><ele>594.5</ele><time>2026-04-04T14:21:53.968Z</time></trkpt><trkpt lat="40.7617809" lon="14.844478"><ele>599.0</ele><time>2026-04-04T14:21:54.984Z</time></trkpt><trkpt lat="40.7617275" lon="14.8445463"><ele>603.5</ele><time>2026-04-04T14:21:56.965Z</time></trkpt><trkpt lat="40.7616316" lon="14.8446659"><ele>608.0</ele><time>2026-04-04T14:21:59.983Z</time></trkpt><trkpt lat="40.7615969" lon="14.8447458"><ele>612.5</ele><time>2026-04-04T14:22:00.973Z</time></trkpt><trkpt lat="40.7615431" lon="14.8448299"><ele>617.0</ele><time>2026-04-04T14:22:03.99Z</time></trkpt><trkpt lat="40.7614897" lon="14.8448881"><ele>617.0</ele><time>2026-04-04T14:22:08.979Z</time></trkpt><trkpt lat="40.7613914" lon="14.8450482"><ele>617.0</ele><time>2026-04-04T14:22:10.95Z</time></trkpt><trkpt lat="40.7613701" lon="14.8451394"><ele>617.0</ele><time>2026-04-04T14:22:14.979Z</time></trkpt><trkpt lat="40.7613414" lon="14.8452239"><ele>617.0</ele><time>2026-04-04T14:22:18.945Z</time></trkpt><trkpt lat="40.7613508" lon="14.8454599"><ele>618.25</ele><time>2026-04-04T14:22:20.955Z</time></trkpt><trkpt lat="40.7613616" lon="14.8456079"><ele>619.5</ele><time>2026-04-04T14:22:22.949Z</time></trkpt><trkpt lat="40.7613608" lon="14.8459214"><ele>620.75</ele><time>2026-04-04T14:22:25.943Z</time></trkpt><trkpt lat="40.7613647" lon="14.8460168"><ele>622.0</ele><time>2026-04-04T14:22:26.962Z</time></trkpt><trkpt lat="40.7613652" lon="14.8461249"><ele>624.6666666666667</ele><time>2026-04-04T14:22:27.952Z</time></trkpt><trkpt lat="40.7613491" lon="14.8462147"><ele>627.3333333333334</ele><time>2026-04-04T14:22:29.946Z</time></trkpt><trkpt lat="40.7613647" lon="14.8463123"><ele>630.0</ele><time>2026-04-04T14:22:32.973Z</time></trkpt><trkpt lat="40.761296" lon="14.8463691"><ele>632.6666666666666</ele><time>2026-04-04T14:22:33.961Z</time></trkpt><trkpt lat="40.7613199" lon="14.8464947"><ele>635.3333333333333</ele><time>2026-04-04T14:22:36.977Z</time></trkpt><trkpt lat="40.76133" lon="14.8466302"><ele>638.0</ele><time>2026-04-04T14:22:38.973Z</time></trkpt><trkpt lat="40.7613634" lon="14.8467042"><ele>639.6666666666666</ele><time>2026-04-04T14:22:40.964Z</time></trkpt><trkpt lat="40.761349" lon="14.8468047"><ele>641.3333333333333</ele><time>2026-04-04T14:22:43.964Z</time></trkpt><trkpt lat="40.7612532" lon="14.8469021"><ele>643.0</ele><time>2026-04-04T14:22:45.968Z</time></trkpt><trkpt lat="40.7611662" lon="14.8469825"><ele>644.6666666666666</ele><time>2026-04-04T14:22:47.971Z</time></trkpt><trkpt lat="40.7611003" lon="14.8470234"><ele>646.3333333333334</ele><time>2026-04-04T14:22:49.974Z</time></trkpt><trkpt lat="40.761033" lon="14.8470161"><ele>648.0</ele><time>2026-04-04T14:22:52.943Z</time></trkpt><trkpt lat="40.7609836" lon="14.8469305"><ele>650.3333333333334</ele><time>2026-04-04T14:22:56.981Z</time></trkpt><trkpt lat="40.760953" lon="14.846847"><ele>652.6666666666666</ele><time>2026-04-04T14:22:58.966Z</time></trkpt><trkpt lat="40.7609291" lon="14.8467075"><ele>655.0</ele><time>2026-04-04T14:23:00.976Z</time></trkpt><trkpt lat="40.7609158" lon="14.8465998"><ele>657.3333333333333</ele><time>2026-04-04T14:23:01.972Z</time></trkpt><trkpt lat="40.7608583" lon="14.846534"><ele>659.6666666666666</ele><time>2026-04-04T14:23:03.973Z</time></trkpt><trkpt lat="40.7607723" lon="14.8465752"><ele>662.0</ele><time>2026-04-04T14:23:07.979Z</time></trkpt><trkpt lat="40.7607108" lon="14.8466767"><ele>664.6</ele><time>2026-04-04T14:23:09.977Z</time></trkpt><trkpt lat="40.7606279" lon="14.8468145"><ele>667.2</ele><time>2026-04-04T14:23:11.984Z</time></trkpt><trkpt lat="40.7605727" lon="14.8469045"><ele>669.8</ele><time>2026-04-04T14:23:13.981Z</time></trkpt><trkpt lat="40.7605193" lon="14.8470041"><ele>672.4</ele><time>2026-04-04T14:23:15.976Z</time></trkpt><trkpt lat="40.7604668" lon="14.8470929"><ele>675.0</ele><time>2026-04-04T14:23:17.982Z</time></trkpt><trkpt lat="40.760426" lon="14.8471872"><ele>675.0</ele><time>2026-04-04T14:23:19.978Z</time></trkpt><trkpt lat="40.7603968" lon="14.8472823"><ele>675.0</ele><time>2026-04-04T14:23:21.983Z</time></trkpt><trkpt lat="40.7603553" lon="14.8473662"><ele>675.0</ele><time>2026-04-04T14:23:23.978Z</time></trkpt><trkpt lat="40.7603221" lon="14.8474785"><ele>675.0</ele><time>2026-04-04T14:23:25.983Z</time></trkpt><trkpt lat="40.7602774" lon="14.8475894"><ele>675.0</ele><time>2026-04-04T14:23:27.991Z</time></trkpt><trkpt lat="40.7602303" lon="14.847708"><ele>675.0</ele><time>2026-04-04T14:23:29.983Z</time></trkpt><trkpt lat="40.7602253" lon="14.8478056"><ele>677.1666666666666</ele><time>2026-04-04T14:23:31.982Z</time></trkpt><trkpt lat="40.7602346" lon="14.8479089"><ele>679.3333333333334</ele><time>2026-04-04T14:23:33.965Z</time></trkpt><trkpt lat="40.760246" lon="14.8480028"><ele>681.5</ele><time>2026-04-04T14:23:35.981Z</time></trkpt><trkpt lat="40.7602509" lon="14.8481277"><ele>683.6666666666667</ele><time>2026-04-04T14:23:37.975Z</time></trkpt><trkpt lat="40.7602385" lon="14.8482718"><ele>685.8333333333334</ele><time>2026-04-04T14:23:39.978Z</time></trkpt><trkpt lat="40.760224" lon="14.8483824"><ele>688.0</ele><time>2026-04-04T14:23:40.969Z</time></trkpt><trkpt lat="40.7602185" lon="14.8484737"><ele>688.0000000000001</ele><time>2026-04-04T14:23:41.977Z</time></trkpt><trkpt lat="40.7602087" lon="14.8485593"><ele>688.0</ele><time>2026-04-04T14:23:42.974Z</time></trkpt><trkpt lat="40.7601984" lon="14.8486488"><ele>688.0</ele><time>2026-04-04T14:23:43.982Z</time></trkpt><trkpt lat="40.7601779" lon="14.848739"><ele>688.0</ele><time>2026-04-04T14:23:44.986Z</time></trkpt><trkpt lat="40.7601568" lon="14.8488231"><ele>688.0</ele><time>2026-04-04T14:23:45.976Z</time></trkpt><trkpt lat="40.7601344" lon="14.8489026"><ele>688.0000000000001</ele><time>2026-04-04T14:23:46.98Z</time></trkpt><trkpt lat="40.7601082" lon="14.8489805"><ele>688.0</ele><time>2026-04-04T14:23:47.981Z</time></trkpt><trkpt lat="40.760065" lon="14.8490782"><ele>692.8</ele><time>2026-04-04T14:23:48.994Z</time></trkpt><trkpt lat="40.7600287" lon="14.849175"><ele>697.5999999999999</ele><time>2026-04-04T14:23:49.968Z</time></trkpt><trkpt lat="40.7599984" lon="14.8492631"><ele>702.4000000000001</ele><time>2026-04-04T14:23:50.972Z</time></trkpt><trkpt lat="40.7599568" lon="14.8493541"><ele>707.2</ele><time>2026-04-04T14:23:51.98Z</time></trkpt><trkpt lat="40.7598718" lon="14.8494607"><ele>712.0</ele><time>2026-04-04T14:23:53.969Z</time></trkpt><trkpt lat="40.7597928" lon="14.8495469"><ele>712.0</ele><time>2026-04-04T14:23:55.981Z</time></trkpt><trkpt lat="40.7597132" lon="14.8496335"><ele>712.0</ele><time>2026-04-04T14:23:57.981Z</time></trkpt><trkpt lat="40.7596445" lon="14.8497172"><ele>712.0</ele><time>2026-04-04T14:23:59.977Z</time></trkpt><trkpt lat="40.7595814" lon="14.8498182"><ele>712.0</ele><time>2026-04-04T14:24:01.981Z</time></trkpt><trkpt lat="40.7595253" lon="14.8499105"><ele>712.0</ele><time>2026-04-04T14:24:03.97Z</time></trkpt><trkpt lat="40.7594841" lon="14.8500112"><ele>714.1666666666667</ele><time>2026-04-04T14:24:05.98Z</time></trkpt><trkpt lat="40.7594485" lon="14.8501356"><ele>716.3333333333334</ele><time>2026-04-04T14:24:07.987Z</time></trkpt><trkpt lat="40.7594261" lon="14.8502537"><ele>718.5</ele><time>2026-04-04T14:24:09.983Z</time></trkpt><trkpt lat="40.7594158" lon="14.8503558"><ele>720.6666666666666</ele><time>2026-04-04T14:24:11.989Z</time></trkpt><trkpt lat="40.7594258" lon="14.8504502"><ele>722.8333333333333</ele><time>2026-04-04T14:24:13.987Z</time></trkpt><trkpt lat="40.7594542" lon="14.8505279"><ele>725.0</ele><time>2026-04-04T14:24:16.979Z</time></trkpt><trkpt lat="40.7594006" lon="14.8504579"><ele>724.5</ele><time>2026-04-04T14:24:21.985Z</time></trkpt><trkpt lat="40.7592862" lon="14.8503541"><ele>724.0</ele><time>2026-04-04T14:24:23.978Z</time></trkpt><trkpt lat="40.7591921" lon="14.8502982"><ele>723.5</ele><time>2026-04-04T14:24:24.974Z</time></trkpt><trkpt lat="40.759082" lon="14.8502352"><ele>723.0</ele><time>2026-04-04T14:24:25.968Z</time></trkpt><trkpt lat="40.7589667" lon="14.8501742"><ele>726.0</ele><time>2026-04-04T14:24:26.979Z</time></trkpt><trkpt lat="40.758849" lon="14.8501056"><ele>729.0</ele><time>2026-04-04T14:24:27.971Z</time></trkpt><trkpt lat="40.7587241" lon="14.8500296"><ele>732.0</ele><time>2026-04-04T14:24:28.96Z</time></trkpt><trkpt lat="40.7585985" lon="14.8499395"><ele>735.0</ele><time>2026-04-04T14:24:29.972Z</time></trkpt><trkpt lat="40.7584895" lon="14.8498216"><ele>735.25</ele><time>2026-04-04T14:24:30.965Z</time></trkpt><trkpt lat="40.7583814" lon="14.8497003"><ele>735.5</ele><time>2026-04-04T14:24:31.986Z</time></trkpt><trkpt lat="40.7582838" lon="14.8495951"><ele>735.75</ele><time>2026-04-04T14:24:32.984Z</time></trkpt><trkpt lat="40.7581949" lon="14.8495118"><ele>736.0</ele><time>2026-04-04T14:24:33.976Z</time></trkpt><trkpt lat="40.7581047" lon="14.8494622"><ele>736.0</ele><time>2026-04-04T14:24:34.982Z</time></trkpt><trkpt lat="40.7580113" lon="14.8494082"><ele>736.0</ele><time>2026-04-04T14:24:35.989Z</time></trkpt><trkpt lat="40.7579243" lon="14.8493457"><ele>736.0</ele><time>2026-04-04T14:24:36.996Z</time></trkpt><trkpt lat="40.757859" lon="14.8492315"><ele>736.0</ele><time>2026-04-04T14:24:37.992Z</time></trkpt><trkpt lat="40.7578003" lon="14.8490721"><ele>736.0</ele><time>2026-04-04T14:24:38.968Z</time></trkpt><trkpt lat="40.7577397" lon="14.8489119"><ele>737.5</ele><time>2026-04-04T14:24:39.973Z</time></trkpt><trkpt lat="40.7576576" lon="14.8487535"><ele>739.0</ele><time>2026-04-04T14:24:40.999Z</time></trkpt><trkpt lat="40.7575609" lon="14.8485983"><ele>740.5</ele><time>2026-04-04T14:24:41.969Z</time></trkpt><trkpt lat="40.7574698" lon="14.8484535"><ele>742.0</ele><time>2026-04-04T14:24:42.97Z</time></trkpt><trkpt lat="40.7573826" lon="14.8483082"><ele>742.0</ele><time>2026-04-04T14:24:43.972Z</time></trkpt><trkpt lat="40.7573072" lon="14.8481444"><ele>742.0</ele><time>2026-04-04T14:24:44.97Z</time></trkpt><trkpt lat="40.7572449" lon="14.8479622"><ele>742.0</ele><time>2026-04-04T14:24:45.977Z</time></trkpt><trkpt lat="40.7571895" lon="14.8477796"><ele>742.0</ele><time>2026-04-04T14:24:46.99Z</time></trkpt><trkpt lat="40.7571364" lon="14.8475999"><ele>740.0</ele><time>2026-04-04T14:24:47.982Z</time></trkpt><trkpt lat="40.7570841" lon="14.8474217"><ele>738.0</ele><time>2026-04-04T14:24:48.976Z</time></trkpt><trkpt lat="40.757031" lon="14.8472554"><ele>736.0</ele><time>2026-04-04T14:24:49.989Z</time></trkpt><trkpt lat="40.7569752" lon="14.8470971"><ele>734.0</ele><time>2026-04-04T14:24:50.983Z</time></trkpt><trkpt lat="40.7569179" lon="14.8469347"><ele>734.5</ele><time>2026-04-04T14:24:51.985Z</time></trkpt><trkpt lat="40.7568564" lon="14.8467695"><ele>735.0</ele><time>2026-04-04T14:24:52.985Z</time></trkpt><trkpt lat="40.7567899" lon="14.846599"><ele>735.5</ele><time>2026-04-04T14:24:53.984Z</time></trkpt><trkpt lat="40.7567033" lon="14.846447"><ele>736.0</ele><time>2026-04-04T14:24:54.991Z</time></trkpt><trkpt lat="40.7566027" lon="14.8463012"><ele>736.0</ele><time>2026-04-04T14:24:55.973Z</time></trkpt><trkpt lat="40.7564929" lon="14.8461511"><ele>736.0</ele><time>2026-04-04T14:24:56.989Z</time></trkpt><trkpt lat="40.7563786" lon="14.8460201"><ele>736.0</ele><time>2026-04-04T14:24:57.974Z</time></trkpt><trkpt lat="40.7562527" lon="14.8458965"><ele>736.25</ele><time>2026-04-04T14:24:58.983Z</time></trkpt><trkpt lat="40.7561197" lon="14.8457857"><ele>736.5</ele><time>2026-04-04T14:24:59.98Z</time></trkpt><trkpt lat="40.756005" lon="14.8456649"><ele>736.75</ele><time>2026-04-04T14:25:00.98Z</time></trkpt><trkpt lat="40.7558999" lon="14.8455334"><ele>737.0</ele><time>2026-04-04T14:25:01.967Z</time></trkpt><trkpt lat="40.7557956" lon="14.8453981"><ele>737.0</ele><time>2026-04-04T14:25:02.986Z</time></trkpt><trkpt lat="40.7557055" lon="14.8452563"><ele>737.0</ele><time>2026-04-04T14:25:03.978Z</time></trkpt><trkpt lat="40.7556165" lon="14.8451224"><ele>737.0</ele><time>2026-04-04T14:25:04.986Z</time></trkpt><trkpt lat="40.7555302" lon="14.8449972"><ele>737.0</ele><time>2026-04-04T14:25:05.979Z</time></trkpt><trkpt lat="40.7554256" lon="14.8448877"><ele>735.0</ele><time>2026-04-04T14:25:06.99Z</time></trkpt><trkpt lat="40.7553004" lon="14.8447893"><ele>733.0</ele><time>2026-04-04T14:25:07.985Z</time></trkpt><trkpt lat="40.75518" lon="14.8446814"><ele>731.0</ele><time>2026-04-04T14:25:08.978Z</time></trkpt><trkpt lat="40.7550647" lon="14.8445728"><ele>729.0</ele><time>2026-04-04T14:25:09.983Z</time></trkpt><trkpt lat="40.7549722" lon="14.8444534"><ele>728.25</ele><time>2026-04-04T14:25:10.956Z</time></trkpt><trkpt lat="40.7548968" lon="14.844313"><ele>727.5</ele><time>2026-04-04T14:25:11.991Z</time></trkpt><trkpt lat="40.7548376" lon="14.8441489"><ele>726.75</ele><time>2026-04-04T14:25:12.985Z</time></trkpt><trkpt lat="40.7547896" lon="14.8439702"><ele>726.0</ele><time>2026-04-04T14:25:13.975Z</time></trkpt><trkpt lat="40.7547436" lon="14.8437868"><ele>726.0</ele><time>2026-04-04T14:25:14.989Z</time></trkpt><trkpt lat="40.7546793" lon="14.8436051"><ele>726.0</ele><time>2026-04-04T14:25:15.985Z</time></trkpt><trkpt lat="40.754605" lon="14.843435"><ele>726.0</ele><time>2026-04-04T14:25:16.982Z</time></trkpt><trkpt lat="40.754521" lon="14.8432928"><ele>726.0</ele><time>2026-04-04T14:25:17.981Z</time></trkpt><trkpt lat="40.7544393" lon="14.8431658"><ele>727.4</ele><time>2026-04-04T14:25:18.992Z</time></trkpt><trkpt lat="40.7543556" lon="14.843047"><ele>728.8</ele><time>2026-04-04T14:25:19.995Z</time></trkpt><trkpt lat="40.7542896" lon="14.8429239"><ele>730.1999999999999</ele><time>2026-04-04T14:25:20.988Z</time></trkpt><trkpt lat="40.7542443" lon="14.8428013"><ele>731.5999999999999</ele><time>2026-04-04T14:25:21.983Z</time></trkpt><trkpt lat="40.7542132" lon="14.8426752"><ele>733.0</ele><time>2026-04-04T14:25:22.981Z</time></trkpt><trkpt lat="40.7541968" lon="14.84254"><ele>734.5</ele><time>2026-04-04T14:25:23.993Z</time></trkpt><trkpt lat="40.754204" lon="14.8424193"><ele>736.0</ele><time>2026-04-04T14:25:24.98Z</time></trkpt><trkpt lat="40.7542383" lon="14.8423151"><ele>737.5</ele><time>2026-04-04T14:25:25.979Z</time></trkpt><trkpt lat="40.7543046" lon="14.8422146"><ele>739.0</ele><time>2026-04-04T14:25:27.976Z</time></trkpt><trkpt lat="40.7543722" lon="14.8421531"><ele>740.5</ele><time>2026-04-04T14:25:28.978Z</time></trkpt><trkpt lat="40.7544404" lon="14.8421115"><ele>742.0</ele><time>2026-04-04T14:25:29.981Z</time></trkpt><trkpt lat="40.7545217" lon="14.8420603"><ele>739.4000000000001</ele><time>2026-04-04T14:25:30.974Z</time></trkpt><trkpt lat="40.7546168" lon="14.8419967"><ele>736.8000000000001</ele><time>2026-04-04T14:25:31.973Z</time></trkpt><trkpt lat="40.754709" lon="14.8419181"><ele>734.2</ele><time>2026-04-04T14:25:32.979Z</time></trkpt><trkpt lat="40.7547709" lon="14.8418352"><ele>731.6</ele><time>2026-04-04T14:25:33.967Z</time></trkpt><trkpt lat="40.7548128" lon="14.8417252"><ele>729.0</ele><time>2026-04-04T14:25:34.975Z</time></trkpt><trkpt lat="40.7548565" lon="14.8415967"><ele>729.0</ele><time>2026-04-04T14:25:35.982Z</time></trkpt><trkpt lat="40.7549214" lon="14.8414498"><ele>729.0</ele><time>2026-04-04T14:25:36.987Z</time></trkpt><trkpt lat="40.7549829" lon="14.8412854"><ele>729.0</ele><time>2026-04-04T14:25:37.98Z</time></trkpt><trkpt lat="40.7550537" lon="14.8411028"><ele>729.0</ele><time>2026-04-04T14:25:38.983Z</time></trkpt><trkpt lat="40.7551487" lon="14.8408424"><ele>722.0</ele><time>2026-04-04T14:25:39.979Z</time></trkpt><trkpt lat="40.7552363" lon="14.8406036"><ele>715.0</ele><time>2026-04-04T14:25:40.986Z</time></trkpt><trkpt lat="40.7553212" lon="14.8403889"><ele>708.0</ele><time>2026-04-04T14:25:41.984Z</time></trkpt><trkpt lat="40.7554214" lon="14.8401944"><ele>715.3333333333334</ele><time>2026-04-04T14:25:42.983Z</time></trkpt><trkpt lat="40.7555312" lon="14.8400027"><ele>722.6666666666667</ele><time>2026-04-04T14:25:43.982Z</time></trkpt><trkpt lat="40.7556372" lon="14.8398176"><ele>730.0</ele><time>2026-04-04T14:25:44.981Z</time></trkpt><trkpt lat="40.7557351" lon="14.8396324"><ele>730.0</ele><time>2026-04-04T14:25:45.991Z</time></trkpt><trkpt lat="40.7558318" lon="14.8394316"><ele>730.0</ele><time>2026-04-04T14:25:46.973Z</time></trkpt><trkpt lat="40.7559284" lon="14.8392327"><ele>730.0</ele><time>2026-04-04T14:25:47.974Z</time></trkpt><trkpt lat="40.7560183" lon="14.839048"><ele>730.6666666666667</ele><time>2026-04-04T14:25:48.978Z</time></trkpt><trkpt lat="40.7561132" lon="14.8388617"><ele>731.3333333333334</ele><time>2026-04-04T14:25:49.981Z</time></trkpt><trkpt lat="40.7562065" lon="14.8386804"><ele>732.0</ele><time>2026-04-04T14:25:50.974Z</time></trkpt><trkpt lat="40.7562907" lon="14.8385061"><ele>735.0</ele><time>2026-04-04T14:25:51.976Z</time></trkpt><trkpt lat="40.7563768" lon="14.838329"><ele>738.0</ele><time>2026-04-04T14:25:52.98Z</time></trkpt><trkpt lat="40.7564728" lon="14.8381592"><ele>741.0</ele><time>2026-04-04T14:25:53.982Z</time></trkpt><trkpt lat="40.7565771" lon="14.8379872"><ele>741.0</ele><time>2026-04-04T14:25:54.984Z</time></trkpt><trkpt lat="40.7566689" lon="14.8378315"><ele>741.0</ele><time>2026-04-04T14:25:55.977Z</time></trkpt><trkpt lat="40.756753" lon="14.8376959"><ele>741.0</ele><time>2026-04-04T14:25:56.984Z</time></trkpt><trkpt lat="40.756829" lon="14.8375783"><ele>741.0</ele><time>2026-04-04T14:25:57.978Z</time></trkpt><trkpt lat="40.7568942" lon="14.8374342"><ele>740.0</ele><time>2026-04-04T14:25:58.974Z</time></trkpt><trkpt lat="40.7569436" lon="14.8372831"><ele>739.0</ele><time>2026-04-04T14:25:59.982Z</time></trkpt><trkpt lat="40.75698" lon="14.8371298"><ele>738.0</ele><time>2026-04-04T14:26:00.983Z</time></trkpt><trkpt lat="40.7570124" lon="14.8369485"><ele>737.0</ele><time>2026-04-04T14:26:01.981Z</time></trkpt><trkpt lat="40.7570282" lon="14.8367751"><ele>739.25</ele><time>2026-04-04T14:26:02.985Z</time></trkpt><trkpt lat="40.757034" lon="14.8366161"><ele>741.5</ele><time>2026-04-04T14:26:03.968Z</time></trkpt><trkpt lat="40.7570482" lon="14.8364515"><ele>743.75</ele><time>2026-04-04T14:26:04.982Z</time></trkpt><trkpt lat="40.7570639" lon="14.8362922"><ele>746.0</ele><time>2026-04-04T14:26:05.973Z</time></trkpt><trkpt lat="40.7570655" lon="14.8361616"><ele>746.0</ele><time>2026-04-04T14:26:06.98Z</time></trkpt><trkpt lat="40.7570543" lon="14.83604"><ele>746.0</ele><time>2026-04-04T14:26:07.98Z</time></trkpt><trkpt lat="40.7570395" lon="14.8359413"><ele>746.0</ele><time>2026-04-04T14:26:08.964Z</time></trkpt><trkpt lat="40.7570192" lon="14.8357892"><ele>746.0</ele><time>2026-04-04T14:26:10.984Z</time></trkpt><trkpt lat="40.7569446" lon="14.8358035"><ele>746.0</ele><time>2026-04-04T14:26:14.983Z</time></trkpt><trkpt lat="40.7568692" lon="14.8358908"><ele>745.1999999999999</ele><time>2026-04-04T14:26:18.987Z</time></trkpt><trkpt lat="40.7568088" lon="14.8359828"><ele>744.4</ele><time>2026-04-04T14:26:19.983Z</time></trkpt><trkpt lat="40.7567562" lon="14.8360817"><ele>743.6</ele><time>2026-04-04T14:26:20.979Z</time></trkpt><trkpt lat="40.7567096" lon="14.8361902"><ele>742.8</ele><time>2026-04-04T14:26:21.974Z</time></trkpt><trkpt lat="40.7566626" lon="14.836289"><ele>742.0</ele><time>2026-04-04T14:26:22.987Z</time></trkpt><trkpt lat="40.7565881" lon="14.8363718"><ele>742.0</ele><time>2026-04-04T14:26:23.979Z</time></trkpt><trkpt lat="40.7565139" lon="14.8364528"><ele>742.0</ele><time>2026-04-04T14:26:24.983Z</time></trkpt><trkpt lat="40.756449" lon="14.8365015"><ele>742.0</ele><time>2026-04-04T14:26:25.978Z</time></trkpt><trkpt lat="40.7563892" lon="14.8365652"><ele>742.0</ele><time>2026-04-04T14:26:26.991Z</time></trkpt><trkpt lat="40.756327" lon="14.8366377"><ele>742.0</ele><time>2026-04-04T14:26:27.975Z</time></trkpt><trkpt lat="40.7562797" lon="14.8367035"><ele>742.0</ele><time>2026-04-04T14:26:28.986Z</time></trkpt><trkpt lat="40.7561576" lon="14.8367744"><ele>742.0</ele><time>2026-04-04T14:26:30.978Z</time></trkpt><trkpt lat="40.7560919" lon="14.8367838"><ele>742.0</ele><time>2026-04-04T14:26:31.974Z</time></trkpt><trkpt lat="40.75598" lon="14.8368258"><ele>742.0</ele><time>2026-04-04T14:26:33.979Z</time></trkpt><trkpt lat="40.7558532" lon="14.836893"><ele>742.0</ele><time>2026-04-04T14:26:35.989Z</time></trkpt><trkpt lat="40.7557784" lon="14.8369203"><ele>742.0</ele><time>2026-04-04T14:26:36.97Z</time></trkpt><trkpt lat="40.7556709" lon="14.8369446"><ele>739.5</ele><time>2026-04-04T14:26:38.974Z</time></trkpt><trkpt lat="40.7555619" lon="14.8369273"><ele>737.0</ele><time>2026-04-04T14:26:40.949Z</time></trkpt><trkpt lat="40.7554834" lon="14.8369284"><ele>734.5</ele><time>2026-04-04T14:26:41.964Z</time></trkpt><trkpt lat="40.755392" lon="14.8369084"><ele>732.0</ele><time>2026-04-04T14:26:42.975Z</time></trkpt><trkpt lat="40.7553119" lon="14.8368928"><ele>729.5</ele><time>2026-04-04T14:26:43.981Z</time></trkpt><trkpt lat="40.7552327" lon="14.836873"><ele>727.0</ele><time>2026-04-04T14:26:44.981Z</time></trkpt><trkpt lat="40.7551622" lon="14.8368335"><ele>729.2</ele><time>2026-04-04T14:26:45.987Z</time></trkpt><trkpt lat="40.7550925" lon="14.836796"><ele>731.4000000000001</ele><time>2026-04-04T14:26:46.987Z</time></trkpt><trkpt lat="40.7550167" lon="14.8367625"><ele>733.5999999999999</ele><time>2026-04-04T14:26:47.978Z</time></trkpt><trkpt lat="40.7549437" lon="14.8366868"><ele>735.8</ele><time>2026-04-04T14:26:49.978Z</time></trkpt><trkpt lat="40.7548975" lon="14.8365562"><ele>738.0</ele><time>2026-04-04T14:26:52.026Z</time></trkpt><trkpt lat="40.7548315" lon="14.8364618"><ele>738.0</ele><time>2026-04-04T14:26:53.967Z</time></trkpt><trkpt lat="40.754775" lon="14.8364251"><ele>738.0</ele><time>2026-04-04T14:26:54.972Z</time></trkpt><trkpt lat="40.7546856" lon="14.836414"><ele>738.0</ele><time>2026-04-04T14:26:56.969Z</time></trkpt><trkpt lat="40.7545612" lon="14.8363663"><ele>738.0</ele><time>2026-04-04T14:26:58.959Z</time></trkpt><trkpt lat="40.7544873" lon="14.8363287"><ele>738.0</ele><time>2026-04-04T14:26:59.965Z</time></trkpt><trkpt lat="40.7543919" lon="14.8363274"><ele>735.8</ele><time>2026-04-04T14:27:01.97Z</time></trkpt><trkpt lat="40.7542923" lon="14.836319"><ele>733.5999999999999</ele><time>2026-04-04T14:27:03.965Z</time></trkpt><trkpt lat="40.7542035" lon="14.8362791"><ele>731.4000000000001</ele><time>2026-04-04T14:27:04.977Z</time></trkpt><trkpt lat="40.7541158" lon="14.8362349"><ele>729.2</ele><time>2026-04-04T14:27:06.021Z</time></trkpt><trkpt lat="40.7540322" lon="14.8361992"><ele>727.0</ele><time>2026-04-04T14:27:07.032Z</time></trkpt><trkpt lat="40.7539501" lon="14.8361606"><ele>727.0</ele><time>2026-04-04T14:27:08.029Z</time></trkpt><trkpt lat="40.7538743" lon="14.8361139"><ele>727.0</ele><time>2026-04-04T14:27:08.96Z</time></trkpt><trkpt lat="40.7538067" lon="14.8360682"><ele>727.0</ele><time>2026-04-04T14:27:09.966Z</time></trkpt><trkpt lat="40.7537535" lon="14.8360091"><ele>727.0</ele><time>2026-04-04T14:27:10.969Z</time></trkpt><trkpt lat="40.7537108" lon="14.8359364"><ele>727.0</ele><time>2026-04-04T14:27:11.952Z</time></trkpt><trkpt lat="40.7536709" lon="14.8358341"><ele>727.0</ele><time>2026-04-04T14:27:12.97Z</time></trkpt><trkpt lat="40.7536273" lon="14.8357047"><ele>727.6</ele><time>2026-04-04T14:27:13.974Z</time></trkpt><trkpt lat="40.7535784" lon="14.8355883"><ele>728.2</ele><time>2026-04-04T14:27:14.973Z</time></trkpt><trkpt lat="40.7535183" lon="14.8354776"><ele>728.8</ele><time>2026-04-04T14:27:15.973Z</time></trkpt><trkpt lat="40.7534572" lon="14.8353722"><ele>729.4</ele><time>2026-04-04T14:27:16.962Z</time></trkpt><trkpt lat="40.7533871" lon="14.8352862"><ele>730.0</ele><time>2026-04-04T14:27:17.979Z</time></trkpt><trkpt lat="40.753311" lon="14.8352397"><ele>730.0</ele><time>2026-04-04T14:27:18.952Z</time></trkpt><trkpt lat="40.7532374" lon="14.8352049"><ele>730.0</ele><time>2026-04-04T14:27:19.964Z</time></trkpt><trkpt lat="40.7531551" lon="14.8351768"><ele>730.0</ele><time>2026-04-04T14:27:20.968Z</time></trkpt><trkpt lat="40.7530789" lon="14.8351551"><ele>730.0</ele><time>2026-04-04T14:27:21.972Z</time></trkpt><trkpt lat="40.7529998" lon="14.83514"><ele>730.0</ele><time>2026-04-04T14:27:23.026Z</time></trkpt><trkpt lat="40.7529265" lon="14.835115"><ele>730.0</ele><time>2026-04-04T14:27:23.963Z</time></trkpt><trkpt lat="40.7528405" lon="14.8350702"><ele>728.8</ele><time>2026-04-04T14:27:24.975Z</time></trkpt><trkpt lat="40.7527618" lon="14.8349993"><ele>727.6</ele><time>2026-04-04T14:27:25.96Z</time></trkpt><trkpt lat="40.7527088" lon="14.8348902"><ele>726.4000000000001</ele><time>2026-04-04T14:27:26.982Z</time></trkpt><trkpt lat="40.7526703" lon="14.8347639"><ele>725.2</ele><time>2026-04-04T14:27:27.972Z</time></trkpt><trkpt lat="40.7526248" lon="14.8346408"><ele>724.0</ele><time>2026-04-04T14:27:28.948Z</time></trkpt><trkpt lat="40.7525838" lon="14.8345346"><ele>724.0</ele><time>2026-04-04T14:27:29.966Z</time></trkpt><trkpt lat="40.7525318" lon="14.8344456"><ele>724.0</ele><time>2026-04-04T14:27:31.038Z</time></trkpt><trkpt lat="40.752452" lon="14.834384"><ele>724.0</ele><time>2026-04-04T14:27:32.04Z</time></trkpt><trkpt lat="40.7523453" lon="14.8343416"><ele>724.0</ele><time>2026-04-04T14:27:33.038Z</time></trkpt><trkpt lat="40.7522347" lon="14.8342867"><ele>724.0</ele><time>2026-04-04T14:27:33.968Z</time></trkpt><trkpt lat="40.7521295" lon="14.8342123"><ele>723.0</ele><time>2026-04-04T14:27:34.986Z</time></trkpt><trkpt lat="40.7520418" lon="14.8341479"><ele>722.0</ele><time>2026-04-04T14:27:36.01Z</time></trkpt><trkpt lat="40.7519706" lon="14.8340962"><ele>721.0</ele><time>2026-04-04T14:27:36.985Z</time></trkpt><trkpt lat="40.7519067" lon="14.8340487"><ele>720.0</ele><time>2026-04-04T14:27:37.957Z</time></trkpt><trkpt lat="40.7518405" lon="14.8339714"><ele>719.0</ele><time>2026-04-04T14:27:38.981Z</time></trkpt><trkpt lat="40.7517912" lon="14.8338728"><ele>718.0</ele><time>2026-04-04T14:27:40.066Z</time></trkpt><trkpt lat="40.7517568" lon="14.8337697"><ele>717.5999999999999</ele><time>2026-04-04T14:27:41.035Z</time></trkpt><trkpt lat="40.7517175" lon="14.8336591"><ele>717.1999999999999</ele><time>2026-04-04T14:27:42.037Z</time></trkpt><trkpt lat="40.751665" lon="14.8335549"><ele>716.8</ele><time>2026-04-04T14:27:43.041Z</time></trkpt><trkpt lat="40.7516114" lon="14.8334468"><ele>716.4</ele><time>2026-04-04T14:27:43.979Z</time></trkpt><trkpt lat="40.7515524" lon="14.8333268"><ele>716.0</ele><time>2026-04-04T14:27:44.978Z</time></trkpt><trkpt lat="40.7515053" lon="14.8332052"><ele>718.5999999999999</ele><time>2026-04-04T14:27:45.99Z</time></trkpt><trkpt lat="40.7514768" lon="14.8330793"><ele>721.2</ele><time>2026-04-04T14:27:47.054Z</time></trkpt><trkpt lat="40.7514553" lon="14.8329615"><ele>723.8</ele><time>2026-04-04T14:27:48.054Z</time></trkpt><trkpt lat="40.751435" lon="14.8328512"><ele>726.4000000000001</ele><time>2026-04-04T14:27:48.976Z</time></trkpt><trkpt lat="40.7514018" lon="14.8327539"><ele>729.0</ele><time>2026-04-04T14:27:49.973Z</time></trkpt><trkpt lat="40.7513306" lon="14.8326738"><ele>729.4000000000001</ele><time>2026-04-04T14:27:51.078Z</time></trkpt><trkpt lat="40.7511703" lon="14.8326008"><ele>729.8</ele><time>2026-04-04T14:27:53.034Z</time></trkpt><trkpt lat="40.7511011" lon="14.8325625"><ele>730.2</ele><time>2026-04-04T14:27:53.957Z</time></trkpt><trkpt lat="40.7510308" lon="14.832504"><ele>730.5999999999999</ele><time>2026-04-04T14:27:54.974Z</time></trkpt><trkpt lat="40.7509671" lon="14.832421"><ele>731.0</ele><time>2026-04-04T14:27:55.977Z</time></trkpt><trkpt lat="40.7508962" lon="14.8323357"><ele>731.0</ele><time>2026-04-04T14:27:56.954Z</time></trkpt><trkpt lat="40.7508214" lon="14.8322906"><ele>731.0</ele><time>2026-04-04T14:27:57.973Z</time></trkpt><trkpt lat="40.7506769" lon="14.8322574"><ele>731.0</ele><time>2026-04-04T14:27:58.983Z</time></trkpt><trkpt lat="40.750528" lon="14.8322279"><ele>731.0</ele><time>2026-04-04T14:27:59.977Z</time></trkpt><trkpt lat="40.7503817" lon="14.8321972"><ele>731.0</ele><time>2026-04-04T14:28:00.993Z</time></trkpt><trkpt lat="40.7502366" lon="14.8321675"><ele>731.0</ele><time>2026-04-04T14:28:01.98Z</time></trkpt><trkpt lat="40.7501031" lon="14.8321435"><ele>731.0</ele><time>2026-04-04T14:28:02.973Z</time></trkpt><trkpt lat="40.7499794" lon="14.8321314"><ele>731.0</ele><time>2026-04-04T14:28:03.976Z</time></trkpt><trkpt lat="40.7498734" lon="14.8321294"><ele>732.3333333333333</ele><time>2026-04-04T14:28:04.974Z</time></trkpt><trkpt lat="40.74978" lon="14.8321233"><ele>733.6666666666666</ele><time>2026-04-04T14:28:05.981Z</time></trkpt><trkpt lat="40.7497072" lon="14.8321302"><ele>735.0</ele><time>2026-04-04T14:28:06.97Z</time></trkpt><trkpt lat="40.7496458" lon="14.8321506"><ele>736.3333333333334</ele><time>2026-04-04T14:28:08.05Z</time></trkpt><trkpt lat="40.749522" lon="14.8322274"><ele>737.6666666666667</ele><time>2026-04-04T14:28:09.966Z</time></trkpt><trkpt lat="40.7494473" lon="14.8322222"><ele>739.0</ele><time>2026-04-04T14:28:10.967Z</time></trkpt><trkpt lat="40.7493868" lon="14.8321595"><ele>738.8000000000001</ele><time>2026-04-04T14:28:12.962Z</time></trkpt><trkpt lat="40.7493048" lon="14.8320019"><ele>738.6</ele><time>2026-04-04T14:28:14.963Z</time></trkpt><trkpt lat="40.7492653" lon="14.8319111"><ele>738.4</ele><time>2026-04-04T14:28:15.982Z</time></trkpt><trkpt lat="40.7492365" lon="14.831825"><ele>738.2</ele><time>2026-04-04T14:28:16.984Z</time></trkpt><trkpt lat="40.7491615" lon="14.8317409"><ele>738.0</ele><time>2026-04-04T14:28:18.966Z</time></trkpt><trkpt lat="40.7490536" lon="14.8316875"><ele>739.2</ele><time>2026-04-04T14:28:19.965Z</time></trkpt><trkpt lat="40.7489373" lon="14.8316344"><ele>740.4</ele><time>2026-04-04T14:28:20.961Z</time></trkpt><trkpt lat="40.7488204" lon="14.8315984"><ele>741.6</ele><time>2026-04-04T14:28:21.966Z</time></trkpt><trkpt lat="40.7487245" lon="14.8315815"><ele>742.8000000000001</ele><time>2026-04-04T14:28:22.963Z</time></trkpt><trkpt lat="40.7486223" lon="14.8315391"><ele>744.0</ele><time>2026-04-04T14:28:23.964Z</time></trkpt><trkpt lat="40.7485283" lon="14.8314612"><ele>744.0</ele><time>2026-04-04T14:28:25.05Z</time></trkpt><trkpt lat="40.748443" lon="14.8313575"><ele>744.0</ele><time>2026-04-04T14:28:26.027Z</time></trkpt><trkpt lat="40.7483291" lon="14.831264"><ele>744.0</ele><time>2026-04-04T14:28:27.019Z</time></trkpt><trkpt lat="40.7482027" lon="14.8311818"><ele>744.0</ele><time>2026-04-04T14:28:28.016Z</time></trkpt><trkpt lat="40.7480719" lon="14.8310826"><ele>744.0</ele><time>2026-04-04T14:28:28.955Z</time></trkpt><trkpt lat="40.7479471" lon="14.8310129"><ele>744.0</ele><time>2026-04-04T14:28:29.959Z</time></trkpt><trkpt lat="40.7478624" lon="14.8309625"><ele>744.0</ele><time>2026-04-04T14:28:30.958Z</time></trkpt><trkpt lat="40.7477918" lon="14.8309203"><ele>744.0</ele><time>2026-04-04T14:28:31.953Z</time></trkpt><trkpt lat="40.7477177" lon="14.8308769"><ele>744.0</ele><time>2026-04-04T14:28:33.957Z</time></trkpt><trkpt lat="40.7476491" lon="14.8308942"><ele>745.75</ele><time>2026-04-04T14:28:37.975Z</time></trkpt><trkpt lat="40.7476156" lon="14.8309716"><ele>747.5</ele><time>2026-04-04T14:28:42.963Z</time></trkpt><trkpt lat="40.7475974" lon="14.8310925"><ele>749.25</ele><time>2026-04-04T14:28:46.016Z</time></trkpt><trkpt lat="40.7475169" lon="14.8312078"><ele>751.0</ele><time>2026-04-04T14:28:47.969Z</time></trkpt><trkpt lat="40.7471876" lon="14.8317413"><ele>751.5</ele><time>2026-04-04T14:28:49.962Z</time></trkpt><trkpt lat="40.7469301" lon="14.8320023"><ele>752.0</ele><time>2026-04-04T14:28:50.968Z</time></trkpt><trkpt lat="40.7467673" lon="14.832017"><ele>752.0</ele><time>2026-04-04T14:28:52.018Z</time></trkpt><trkpt lat="40.746641" lon="14.8319856"><ele>752.0</ele><time>2026-04-04T14:28:53.019Z</time></trkpt><trkpt lat="40.7464864" lon="14.8319497"><ele>752.0</ele><time>2026-04-04T14:28:53.961Z</time></trkpt><trkpt lat="40.7463385" lon="14.8319302"><ele>752.0</ele><time>2026-04-04T14:28:55.011Z</time></trkpt><trkpt lat="40.7462" lon="14.8319181"><ele>752.0</ele><time>2026-04-04T14:28:55.961Z</time></trkpt><trkpt lat="40.7460884" lon="14.8318965"><ele>752.0</ele><time>2026-04-04T14:28:56.966Z</time></trkpt><trkpt lat="40.7459945" lon="14.831872"><ele>752.0</ele><time>2026-04-04T14:28:57.963Z</time></trkpt><trkpt lat="40.7459214" lon="14.8318263"><ele>752.0</ele><time>2026-04-04T14:28:58.961Z</time></trkpt><trkpt lat="40.7458558" lon="14.8317451"><ele>752.0</ele><time>2026-04-04T14:28:59.963Z</time></trkpt><trkpt lat="40.7458129" lon="14.8316037"><ele>755.0</ele><time>2026-04-04T14:29:01.031Z</time></trkpt><trkpt lat="40.7457639" lon="14.8314659"><ele>758.0</ele><time>2026-04-04T14:29:02.015Z</time></trkpt><trkpt lat="40.7457263" lon="14.8313764"><ele>761.0</ele><time>2026-04-04T14:29:03.019Z</time></trkpt><trkpt lat="40.745678" lon="14.8312559"><ele>764.0</ele><time>2026-04-04T14:29:04.957Z</time></trkpt><trkpt lat="40.7455926" lon="14.8312081"><ele>767.0</ele><time>2026-04-04T14:29:06.955Z</time></trkpt><trkpt lat="40.7455216" lon="14.8312044"><ele>767.0</ele><time>2026-04-04T14:29:07.96Z</time></trkpt><trkpt lat="40.7454336" lon="14.8312022"><ele>767.0</ele><time>2026-04-04T14:29:08.956Z</time></trkpt><trkpt lat="40.7453531" lon="14.8311944"><ele>767.0</ele><time>2026-04-04T14:29:09.958Z</time></trkpt><trkpt lat="40.7452652" lon="14.8311601"><ele>767.0</ele><time>2026-04-04T14:29:10.96Z</time></trkpt><trkpt lat="40.745175" lon="14.8311045"><ele>767.0</ele><time>2026-04-04T14:29:11.963Z</time></trkpt><trkpt lat="40.7450803" lon="14.8310083"><ele>769.6666666666666</ele><time>2026-04-04T14:29:12.96Z</time></trkpt><trkpt lat="40.7449718" lon="14.8308707"><ele>772.3333333333333</ele><time>2026-04-04T14:29:13.968Z</time></trkpt><trkpt lat="40.7448511" lon="14.830715"><ele>775.0</ele><time>2026-04-04T14:29:14.964Z</time></trkpt><trkpt lat="40.7447378" lon="14.830563"><ele>775.0</ele><time>2026-04-04T14:29:15.953Z</time></trkpt><trkpt lat="40.7446381" lon="14.830434"><ele>775.0</ele><time>2026-04-04T14:29:16.954Z</time></trkpt><trkpt lat="40.7445337" lon="14.8303281"><ele>775.0</ele><time>2026-04-04T14:29:18.03Z</time></trkpt><trkpt lat="40.7444165" lon="14.8302376"><ele>775.0</ele><time>2026-04-04T14:29:18.959Z</time></trkpt><trkpt lat="40.744314" lon="14.8301496"><ele>771.75</ele><time>2026-04-04T14:29:19.963Z</time></trkpt><trkpt lat="40.7442343" lon="14.8300645"><ele>768.5</ele><time>2026-04-04T14:29:20.957Z</time></trkpt><trkpt lat="40.7441665" lon="14.8299529"><ele>765.25</ele><time>2026-04-04T14:29:21.958Z</time></trkpt><trkpt lat="40.7441071" lon="14.8298002"><ele>762.0</ele><time>2026-04-04T14:29:22.955Z</time></trkpt><trkpt lat="40.7440601" lon="14.8296359"><ele>762.0</ele><time>2026-04-04T14:29:23.96Z</time></trkpt><trkpt lat="40.7440061" lon="14.8294576"><ele>762.0</ele><time>2026-04-04T14:29:24.961Z</time></trkpt><trkpt lat="40.7439379" lon="14.829287"><ele>762.0</ele><time>2026-04-04T14:29:26.029Z</time></trkpt><trkpt lat="40.7438612" lon="14.829143"><ele>762.0</ele><time>2026-04-04T14:29:26.963Z</time></trkpt><trkpt lat="40.7437981" lon="14.8290471"><ele>763.1666666666666</ele><time>2026-04-04T14:29:28.033Z</time></trkpt><trkpt lat="40.7437447" lon="14.8289676"><ele>764.3333333333333</ele><time>2026-04-04T14:29:28.962Z</time></trkpt><trkpt lat="40.7437324" lon="14.8288582"><ele>765.5</ele><time>2026-04-04T14:29:30.969Z</time></trkpt><trkpt lat="40.7437722" lon="14.828786"><ele>766.6666666666666</ele><time>2026-04-04T14:29:32.97Z</time></trkpt><trkpt lat="40.7438658" lon="14.828765"><ele>767.8333333333333</ele><time>2026-04-04T14:29:34.967Z</time></trkpt><trkpt lat="40.7439611" lon="14.8287635"><ele>769.0</ele><time>2026-04-04T14:29:36.039Z</time></trkpt><trkpt lat="40.7440513" lon="14.8287608"><ele>769.0</ele><time>2026-04-04T14:29:37Z</time></trkpt><trkpt lat="40.744139" lon="14.8287533"><ele>769.0</ele><time>2026-04-04T14:29:37.98Z</time></trkpt><trkpt lat="40.7442368" lon="14.8287331"><ele>769.0</ele><time>2026-04-04T14:29:38.958Z</time></trkpt><trkpt lat="40.744347" lon="14.8287096"><ele>769.0</ele><time>2026-04-04T14:29:39.966Z</time></trkpt><trkpt lat="40.7444518" lon="14.8286817"><ele>769.0</ele><time>2026-04-04T14:29:40.962Z</time></trkpt><trkpt lat="40.744558" lon="14.8286544"><ele>770.2</ele><time>2026-04-04T14:29:41.965Z</time></trkpt><trkpt lat="40.7446596" lon="14.8286463"><ele>771.4000000000001</ele><time>2026-04-04T14:29:42.979Z</time></trkpt><trkpt lat="40.7447632" lon="14.8286455"><ele>772.6</ele><time>2026-04-04T14:29:43.959Z</time></trkpt><trkpt lat="40.7448727" lon="14.8286634"><ele>773.8</ele><time>2026-04-04T14:29:44.964Z</time></trkpt><trkpt lat="40.7449806" lon="14.8286876"><ele>775.0</ele><time>2026-04-04T14:29:45.978Z</time></trkpt><trkpt lat="40.7450932" lon="14.8286981"><ele>775.0</ele><time>2026-04-04T14:29:46.963Z</time></trkpt><trkpt lat="40.7452002" lon="14.8287196"><ele>775.0</ele><time>2026-04-04T14:29:47.962Z</time></trkpt><trkpt lat="40.7452798" lon="14.8287523"><ele>775.0</ele><time>2026-04-04T14:29:48.959Z</time></trkpt><trkpt lat="40.7453506" lon="14.8287344"><ele>775.0</ele><time>2026-04-04T14:29:50.97Z</time></trkpt><trkpt lat="40.7453586" lon="14.8286366"><ele>775.0</ele><time>2026-04-04T14:29:52.018Z</time></trkpt><trkpt lat="40.7453948" lon="14.8284667"><ele>772.4</ele><time>2026-04-04T14:29:53.962Z</time></trkpt><trkpt lat="40.7454263" lon="14.8283231"><ele>769.8</ele><time>2026-04-04T14:29:56.02Z</time></trkpt><trkpt lat="40.7454709" lon="14.8282334"><ele>767.2</ele><time>2026-04-04T14:29:57.965Z</time></trkpt><trkpt lat="40.7455537" lon="14.8281491"><ele>764.6</ele><time>2026-04-04T14:29:59.983Z</time></trkpt><trkpt lat="40.7456171" lon="14.8280471"><ele>762.0</ele><time>2026-04-04T14:30:00.979Z</time></trkpt><trkpt lat="40.74567" lon="14.8279525"><ele>762.0</ele><time>2026-04-04T14:30:01.961Z</time></trkpt><trkpt lat="40.7457163" lon="14.827861"><ele>762.0</ele><time>2026-04-04T14:30:02.959Z</time></trkpt><trkpt lat="40.7457616" lon="14.8277974"><ele>762.0</ele><time>2026-04-04T14:30:03.964Z</time></trkpt><trkpt lat="40.745829" lon="14.8277412"><ele>762.0</ele><time>2026-04-04T14:30:04.961Z</time></trkpt><trkpt lat="40.7459085" lon="14.8276642"><ele>762.0</ele><time>2026-04-04T14:30:05.965Z</time></trkpt><trkpt lat="40.7459967" lon="14.8275983"><ele>762.0</ele><time>2026-04-04T14:30:06.978Z</time></trkpt><trkpt lat="40.7460752" lon="14.8275035"><ele>756.4000000000001</ele><time>2026-04-04T14:30:07.955Z</time></trkpt><trkpt lat="40.7461344" lon="14.8274112"><ele>750.8000000000001</ele><time>2026-04-04T14:30:08.95Z</time></trkpt><trkpt lat="40.7461866" lon="14.827309"><ele>745.2</ele><time>2026-04-04T14:30:09.954Z</time></trkpt><trkpt lat="40.7462225" lon="14.8271919"><ele>739.6</ele><time>2026-04-04T14:30:10.968Z</time></trkpt><trkpt lat="40.7462564" lon="14.8270542"><ele>734.0</ele><time>2026-04-04T14:30:11.964Z</time></trkpt><trkpt lat="40.7462712" lon="14.8269256"><ele>731.0</ele><time>2026-04-04T14:30:13.063Z</time></trkpt><trkpt lat="40.7462816" lon="14.8267969"><ele>728.0</ele><time>2026-04-04T14:30:13.984Z</time></trkpt><trkpt lat="40.7462892" lon="14.8267004"><ele>725.0</ele><time>2026-04-04T14:30:14.99Z</time></trkpt><trkpt lat="40.7463014" lon="14.8266111"><ele>722.0</ele><time>2026-04-04T14:30:15.981Z</time></trkpt><trkpt lat="40.7462695" lon="14.8265319"><ele>719.0</ele><time>2026-04-04T14:30:19.992Z</time></trkpt><trkpt lat="40.7462123" lon="14.8266582"><ele>716.0</ele><time>2026-04-04T14:31:19.969Z</time></trkpt><trkpt lat="40.7461413" lon="14.826801"><ele>719.5999999999999</ele><time>2026-04-04T14:31:21.97Z</time></trkpt><trkpt lat="40.746094" lon="14.826884"><ele>723.2</ele><time>2026-04-04T14:31:22.972Z</time></trkpt><trkpt lat="40.746044" lon="14.8269514"><ele>726.8</ele><time>2026-04-04T14:31:23.975Z</time></trkpt><trkpt lat="40.7459908" lon="14.8269982"><ele>730.4000000000001</ele><time>2026-04-04T14:31:24.972Z</time></trkpt><trkpt lat="40.7458842" lon="14.8270865"><ele>734.0</ele><time>2026-04-04T14:31:26.966Z</time></trkpt><trkpt lat="40.7457856" lon="14.8271721"><ele>734.1666666666666</ele><time>2026-04-04T14:31:28.957Z</time></trkpt><trkpt lat="40.7457262" lon="14.8272361"><ele>734.3333333333333</ele><time>2026-04-04T14:31:29.971Z</time></trkpt><trkpt lat="40.7456765" lon="14.8272985"><ele>734.5</ele><time>2026-04-04T14:31:30.969Z</time></trkpt><trkpt lat="40.7455956" lon="14.8274015"><ele>734.6666666666666</ele><time>2026-04-04T14:31:33.036Z</time></trkpt><trkpt lat="40.7455241" lon="14.8274385"><ele>734.8333333333334</ele><time>2026-04-04T14:31:34.972Z</time></trkpt><trkpt lat="40.7454511" lon="14.8274228"><ele>735.0</ele><time>2026-04-04T14:31:35.958Z</time></trkpt><trkpt lat="40.7453926" lon="14.8273895"><ele>735.0</ele><time>2026-04-04T14:31:36.962Z</time></trkpt><trkpt lat="40.745263" lon="14.8273819"><ele>735.0</ele><time>2026-04-04T14:31:38.974Z</time></trkpt><trkpt lat="40.7451953" lon="14.8273848"><ele>735.0</ele><time>2026-04-04T14:31:39.981Z</time></trkpt><trkpt lat="40.7451306" lon="14.8274125"><ele>735.0</ele><time>2026-04-04T14:31:40.946Z</time></trkpt><trkpt lat="40.7450652" lon="14.8274377"><ele>735.0</ele><time>2026-04-04T14:31:42.078Z</time></trkpt><trkpt lat="40.7450017" lon="14.8275289"><ele>735.0</ele><time>2026-04-04T14:31:43.96Z</time></trkpt><trkpt lat="40.7449613" lon="14.8276231"><ele>734.8333333333334</ele><time>2026-04-04T14:31:45.972Z</time></trkpt><trkpt lat="40.7449525" lon="14.8277426"><ele>734.6666666666666</ele><time>2026-04-04T14:31:47.963Z</time></trkpt><trkpt lat="40.7449198" lon="14.8276625"><ele>734.5</ele><time>2026-04-04T14:31:49.958Z</time></trkpt><trkpt lat="40.7448548" lon="14.8276321"><ele>734.3333333333333</ele><time>2026-04-04T14:31:51.913Z</time></trkpt><trkpt lat="40.7447701" lon="14.8276621"><ele>734.1666666666666</ele><time>2026-04-04T14:31:52.956Z</time></trkpt><trkpt lat="40.7446421" lon="14.8276434"><ele>734.0</ele><time>2026-04-04T14:31:53.963Z</time></trkpt><trkpt lat="40.7445013" lon="14.8276218"><ele>724.75</ele><time>2026-04-04T14:31:54.963Z</time></trkpt><trkpt lat="40.744374" lon="14.8275991"><ele>715.5</ele><time>2026-04-04T14:31:55.964Z</time></trkpt><trkpt lat="40.7442416" lon="14.8275659"><ele>706.25</ele><time>2026-04-04T14:31:56.964Z</time></trkpt><trkpt lat="40.7441011" lon="14.8275175"><ele>697.0</ele><time>2026-04-04T14:31:57.965Z</time></trkpt><trkpt lat="40.7439644" lon="14.8274756"><ele>697.0</ele><time>2026-04-04T14:31:58.962Z</time></trkpt><trkpt lat="40.7438453" lon="14.8274522"><ele>697.0</ele><time>2026-04-04T14:31:59.975Z</time></trkpt><trkpt lat="40.7437252" lon="14.8274272"><ele>697.0</ele><time>2026-04-04T14:32:00.959Z</time></trkpt><trkpt lat="40.7436051" lon="14.8274022"><ele>697.0</ele><time>2026-04-04T14:32:01.966Z</time></trkpt><trkpt lat="40.7434801" lon="14.8273661"><ele>699.75</ele><time>2026-04-04T14:32:02.953Z</time></trkpt><trkpt lat="40.7433663" lon="14.8273332"><ele>702.5</ele><time>2026-04-04T14:32:03.957Z</time></trkpt><trkpt lat="40.7432499" lon="14.8273132"><ele>705.25</ele><time>2026-04-04T14:32:04.964Z</time></trkpt><trkpt lat="40.7431245" lon="14.8273038"><ele>708.0</ele><time>2026-04-04T14:32:05.967Z</time></trkpt><trkpt lat="40.743017" lon="14.8273048"><ele>708.0</ele><time>2026-04-04T14:32:06.971Z</time></trkpt><trkpt lat="40.7429302" lon="14.8273117"><ele>708.0</ele><time>2026-04-04T14:32:07.963Z</time></trkpt><trkpt lat="40.7428456" lon="14.8273422"><ele>708.0</ele><time>2026-04-04T14:32:08.957Z</time></trkpt><trkpt lat="40.7427725" lon="14.827385"><ele>708.0</ele><time>2026-04-04T14:32:09.969Z</time></trkpt><trkpt lat="40.7427085" lon="14.8274112"><ele>708.0</ele><time>2026-04-04T14:32:10.962Z</time></trkpt><trkpt lat="40.742579" lon="14.8273917"><ele>706.6666666666666</ele><time>2026-04-04T14:32:13.029Z</time></trkpt><trkpt lat="40.7425083" lon="14.8273833"><ele>705.3333333333334</ele><time>2026-04-04T14:32:13.96Z</time></trkpt><trkpt lat="40.7424356" lon="14.8273964"><ele>704.0</ele><time>2026-04-04T14:32:14.971Z</time></trkpt><trkpt lat="40.7423607" lon="14.8274392"><ele>702.6666666666667</ele><time>2026-04-04T14:32:15.969Z</time></trkpt><trkpt lat="40.742292" lon="14.8274883"><ele>701.3333333333334</ele><time>2026-04-04T14:32:16.972Z</time></trkpt><trkpt lat="40.7422272" lon="14.8275356"><ele>700.0</ele><time>2026-04-04T14:32:17.948Z</time></trkpt><trkpt lat="40.7421261" lon="14.8275766"><ele>700.0</ele><time>2026-04-04T14:32:19.968Z</time></trkpt><trkpt lat="40.7420309" lon="14.827578"><ele>700.0</ele><time>2026-04-04T14:32:20.955Z</time></trkpt><trkpt lat="40.7419279" lon="14.827574"><ele>700.0</ele><time>2026-04-04T14:32:21.973Z</time></trkpt><trkpt lat="40.7418503" lon="14.827572"><ele>700.0</ele><time>2026-04-04T14:32:22.972Z</time></trkpt><trkpt lat="40.7417261" lon="14.8275487"><ele>700.0</ele><time>2026-04-04T14:32:24.987Z</time></trkpt><trkpt lat="40.7416023" lon="14.8275"><ele>695.75</ele><time>2026-04-04T14:32:25.974Z</time></trkpt><trkpt lat="40.7414589" lon="14.8274713"><ele>691.5</ele><time>2026-04-04T14:32:26.956Z</time></trkpt><trkpt lat="40.7413187" lon="14.827427"><ele>687.25</ele><time>2026-04-04T14:32:27.967Z</time></trkpt><trkpt lat="40.7411883" lon="14.8273744"><ele>683.0</ele><time>2026-04-04T14:32:28.965Z</time></trkpt><trkpt lat="40.7410754" lon="14.827319"><ele>681.8</ele><time>2026-04-04T14:32:29.973Z</time></trkpt><trkpt lat="40.7409763" lon="14.827262"><ele>680.5999999999999</ele><time>2026-04-04T14:32:30.967Z</time></trkpt><trkpt lat="40.7408777" lon="14.8272099"><ele>679.4000000000001</ele><time>2026-04-04T14:32:31.965Z</time></trkpt><trkpt lat="40.7407751" lon="14.8271625"><ele>678.2</ele><time>2026-04-04T14:32:32.973Z</time></trkpt><trkpt lat="40.7406581" lon="14.8271296"><ele>677.0</ele><time>2026-04-04T14:32:33.968Z</time></trkpt><trkpt lat="40.7405466" lon="14.827104"><ele>677.0</ele><time>2026-04-04T14:32:34.972Z</time></trkpt><trkpt lat="40.7404435" lon="14.8270686"><ele>677.0</ele><time>2026-04-04T14:32:35.971Z</time></trkpt><trkpt lat="40.74036" lon="14.8270347"><ele>677.0</ele><time>2026-04-04T14:32:36.97Z</time></trkpt><trkpt lat="40.7402896" lon="14.8269908"><ele>677.0</ele><time>2026-04-04T14:32:37.976Z</time></trkpt><trkpt lat="40.7402348" lon="14.8269421"><ele>677.0</ele><time>2026-04-04T14:32:38.993Z</time></trkpt><trkpt lat="40.7401616" lon="14.8268892"><ele>677.0</ele><time>2026-04-04T14:32:40.975Z</time></trkpt><trkpt lat="40.7400903" lon="14.8269512"><ele>672.6666666666666</ele><time>2026-04-04T14:32:43.971Z</time></trkpt><trkpt lat="40.7400719" lon="14.8270684"><ele>668.3333333333333</ele><time>2026-04-04T14:32:45.976Z</time></trkpt><trkpt lat="40.7400707" lon="14.8271634"><ele>664.0</ele><time>2026-04-04T14:32:46.975Z</time></trkpt><trkpt lat="40.7400745" lon="14.8272681"><ele>659.6666666666666</ele><time>2026-04-04T14:32:47.963Z</time></trkpt><trkpt lat="40.7401004" lon="14.8273738"><ele>655.3333333333334</ele><time>2026-04-04T14:32:48.969Z</time></trkpt><trkpt lat="40.7401309" lon="14.8274823"><ele>651.0</ele><time>2026-04-04T14:32:49.973Z</time></trkpt><trkpt lat="40.7401529" lon="14.8275987"><ele>653.1666666666666</ele><time>2026-04-04T14:32:50.968Z</time></trkpt><trkpt lat="40.7401682" lon="14.8277207"><ele>655.3333333333334</ele><time>2026-04-04T14:32:51.966Z</time></trkpt><trkpt lat="40.7401757" lon="14.8278295"><ele>657.5</ele><time>2026-04-04T14:32:52.965Z</time></trkpt><trkpt lat="40.7401868" lon="14.8279127"><ele>659.6666666666667</ele><time>2026-04-04T14:32:53.969Z</time></trkpt><trkpt lat="40.7402296" lon="14.827982"><ele>661.8333333333334</ele><time>2026-04-04T14:32:54.971Z</time></trkpt><trkpt lat="40.7402831" lon="14.8280373"><ele>664.0</ele><time>2026-04-04T14:32:55.973Z</time></trkpt><trkpt lat="40.7403575" lon="14.8280771"><ele>664.0</ele><time>2026-04-04T14:32:56.974Z</time></trkpt><trkpt lat="40.7404433" lon="14.8281033"><ele>664.0</ele><time>2026-04-04T14:32:57.97Z</time></trkpt><trkpt lat="40.740535" lon="14.8281295"><ele>664.0</ele><time>2026-04-04T14:32:58.964Z</time></trkpt><trkpt lat="40.7405985" lon="14.8281722"><ele>664.0</ele><time>2026-04-04T14:32:59.969Z</time></trkpt><trkpt lat="40.7406766" lon="14.8282817"><ele>664.0</ele><time>2026-04-04T14:33:01.957Z</time></trkpt><trkpt lat="40.7407393" lon="14.8283733"><ele>664.0</ele><time>2026-04-04T14:33:02.963Z</time></trkpt><trkpt lat="40.7408046" lon="14.8284634"><ele>664.0</ele><time>2026-04-04T14:33:03.963Z</time></trkpt><trkpt lat="40.7408531" lon="14.8285444"><ele>664.0</ele><time>2026-04-04T14:33:04.961Z</time></trkpt><trkpt lat="40.7408851" lon="14.8286311"><ele>664.0</ele><time>2026-04-04T14:33:05.967Z</time></trkpt><trkpt lat="40.7409019" lon="14.8287205"><ele>664.0</ele><time>2026-04-04T14:33:06.963Z</time></trkpt><trkpt lat="40.7409097" lon="14.8288051"><ele>664.0</ele><time>2026-04-04T14:33:07.961Z</time></trkpt><trkpt lat="40.7409545" lon="14.82894"><ele>664.6666666666667</ele><time>2026-04-04T14:33:09.963Z</time></trkpt><trkpt lat="40.7410516" lon="14.8290457"><ele>665.3333333333334</ele><time>2026-04-04T14:33:11.961Z</time></trkpt><trkpt lat="40.741125" lon="14.8290872"><ele>666.0</ele><time>2026-04-04T14:33:12.968Z</time></trkpt><trkpt lat="40.7411773" lon="14.8291351"><ele>666.6666666666666</ele><time>2026-04-04T14:33:13.956Z</time></trkpt><trkpt lat="40.7412089" lon="14.8292074"><ele>667.3333333333333</ele><time>2026-04-04T14:33:14.965Z</time></trkpt><trkpt lat="40.7412034" lon="14.8293316"><ele>668.0</ele><time>2026-04-04T14:33:16.966Z</time></trkpt><trkpt lat="40.7411305" lon="14.8294449"><ele>663.0</ele><time>2026-04-04T14:33:18.97Z</time></trkpt><trkpt lat="40.741091" lon="14.829516"><ele>658.0</ele><time>2026-04-04T14:33:19.965Z</time></trkpt><trkpt lat="40.7410309" lon="14.8295975"><ele>653.0</ele><time>2026-04-04T14:33:20.99Z</time></trkpt><trkpt lat="40.7409759" lon="14.8296764"><ele>648.0</ele><time>2026-04-04T14:33:22.044Z</time></trkpt><trkpt lat="40.7408962" lon="14.8297894"><ele>643.0</ele><time>2026-04-04T14:33:23.958Z</time></trkpt><trkpt lat="40.7408703" lon="14.829967"><ele>638.6666666666667</ele><time>2026-04-04T14:33:25.97Z</time></trkpt><trkpt lat="40.7408612" lon="14.8300881"><ele>634.3333333333334</ele><time>2026-04-04T14:33:27.014Z</time></trkpt><trkpt lat="40.740847" lon="14.8302135"><ele>630.0</ele><time>2026-04-04T14:33:27.966Z</time></trkpt><trkpt lat="40.7408231" lon="14.8303299"><ele>625.6666666666666</ele><time>2026-04-04T14:33:28.968Z</time></trkpt><trkpt lat="40.740795" lon="14.8304434"><ele>621.3333333333333</ele><time>2026-04-04T14:33:29.966Z</time></trkpt><trkpt lat="40.7407754" lon="14.8305247"><ele>617.0</ele><time>2026-04-04T14:33:30.964Z</time></trkpt><trkpt lat="40.7407767" lon="14.8306349"><ele>618.0</ele><time>2026-04-04T14:33:32.962Z</time></trkpt><trkpt lat="40.7408281" lon="14.8307495"><ele>619.0</ele><time>2026-04-04T14:33:34.96Z</time></trkpt><trkpt lat="40.7409523" lon="14.8308339"><ele>620.0</ele><time>2026-04-04T14:33:36.943Z</time></trkpt><trkpt lat="40.7410216" lon="14.8308643"><ele>621.0</ele><time>2026-04-04T14:33:37.963Z</time></trkpt><trkpt lat="40.7410793" lon="14.8308985"><ele>622.0</ele><time>2026-04-04T14:33:38.963Z</time></trkpt><trkpt lat="40.7411695" lon="14.8309072"><ele>622.0</ele><time>2026-04-04T14:33:40.967Z</time></trkpt><trkpt lat="40.7412736" lon="14.8308748"><ele>622.0</ele><time>2026-04-04T14:33:42.961Z</time></trkpt><trkpt lat="40.7413416" lon="14.8308693"><ele>622.0</ele><time>2026-04-04T14:33:44.964Z</time></trkpt><trkpt lat="40.7413998" lon="14.8308332"><ele>622.0</ele><time>2026-04-04T14:33:48.964Z</time></trkpt><trkpt lat="40.7414096" lon="14.8309267"><ele>622.0</ele><time>2026-04-04T14:33:51.961Z</time></trkpt><trkpt lat="40.7413743" lon="14.831097"><ele>622.0</ele><time>2026-04-04T14:33:53.973Z</time></trkpt><trkpt lat="40.7413769" lon="14.8311945"><ele>620.0</ele><time>2026-04-04T14:33:54.974Z</time></trkpt><trkpt lat="40.7413941" lon="14.8312823"><ele>618.0</ele><time>2026-04-04T14:33:55.966Z</time></trkpt><trkpt lat="40.7414191" lon="14.8313597"><ele>616.0</ele><time>2026-04-04T14:33:56.964Z</time></trkpt><trkpt lat="40.7414633" lon="14.8314213"><ele>614.0</ele><time>2026-04-04T14:33:59.971Z</time></trkpt><trkpt lat="40.7415206" lon="14.8313473"><ele>612.0</ele><time>2026-04-04T14:34:05.972Z</time></trkpt><trkpt lat="40.7415992" lon="14.8313269"><ele>610.0</ele><time>2026-04-04T14:34:08.041Z</time></trkpt><trkpt lat="40.7416602" lon="14.8312929"><ele>608.0</ele><time>2026-04-04T14:34:08.956Z</time></trkpt><trkpt lat="40.7417798" lon="14.8312188"><ele>608.0</ele><time>2026-04-04T14:34:10.959Z</time></trkpt><trkpt lat="40.7418471" lon="14.8311756"><ele>608.0</ele><time>2026-04-04T14:34:11.966Z</time></trkpt><trkpt lat="40.7419165" lon="14.8311347"><ele>608.0</ele><time>2026-04-04T14:34:12.966Z</time></trkpt><trkpt lat="40.7419881" lon="14.8311056"><ele>608.0</ele><time>2026-04-04T14:34:13.959Z</time></trkpt><trkpt lat="40.7420641" lon="14.8310649"><ele>608.0</ele><time>2026-04-04T14:34:15.966Z</time></trkpt><trkpt lat="40.7420581" lon="14.8311983"><ele>608.0</ele><time>2026-04-04T14:34:21.979Z</time></trkpt><trkpt lat="40.7420526" lon="14.8313512"><ele>612.5</ele><time>2026-04-04T14:34:23.969Z</time></trkpt><trkpt lat="40.7420616" lon="14.8314403"><ele>617.0</ele><time>2026-04-04T14:34:24.969Z</time></trkpt><trkpt lat="40.742087" lon="14.8315448"><ele>621.5</ele><time>2026-04-04T14:34:25.964Z</time></trkpt><trkpt lat="40.7421291" lon="14.8316503"><ele>626.0</ele><time>2026-04-04T14:34:26.957Z</time></trkpt><trkpt lat="40.7422054" lon="14.8317207"><ele>630.5</ele><time>2026-04-04T14:34:27.968Z</time></trkpt><trkpt lat="40.7422868" lon="14.8317421"><ele>635.0</ele><time>2026-04-04T14:34:28.968Z</time></trkpt><trkpt lat="40.7423713" lon="14.8317412"><ele>635.0</ele><time>2026-04-04T14:34:29.964Z</time></trkpt><trkpt lat="40.7424434" lon="14.831722"><ele>635.0</ele><time>2026-04-04T14:34:30.962Z</time></trkpt><trkpt lat="40.7425114" lon="14.8317177"><ele>635.0</ele><time>2026-04-04T14:34:31.96Z</time></trkpt><trkpt lat="40.7425816" lon="14.8317091"><ele>635.0</ele><time>2026-04-04T14:34:33.962Z</time></trkpt><trkpt lat="40.742579" lon="14.8318222"><ele>635.0</ele><time>2026-04-04T14:34:36.965Z</time></trkpt><trkpt lat="40.7425436" lon="14.8319408"><ele>635.0</ele><time>2026-04-04T14:34:38.961Z</time></trkpt><trkpt lat="40.7425242" lon="14.8320376"><ele>636.2</ele><time>2026-04-04T14:34:40.974Z</time></trkpt><trkpt lat="40.742521" lon="14.8321339"><ele>637.4</ele><time>2026-04-04T14:34:42.967Z</time></trkpt><trkpt lat="40.7426176" lon="14.8322241"><ele>638.5999999999999</ele><time>2026-04-04T14:34:44.96Z</time></trkpt><trkpt lat="40.7427244" lon="14.8322606"><ele>639.8</ele><time>2026-04-04T14:34:45.973Z</time></trkpt><trkpt lat="40.7428213" lon="14.8322841"><ele>641.0</ele><time>2026-04-04T14:34:46.974Z</time></trkpt><trkpt lat="40.7429177" lon="14.8322831"><ele>641.0</ele><time>2026-04-04T14:34:47.959Z</time></trkpt><trkpt lat="40.7429921" lon="14.8322969"><ele>641.0</ele><time>2026-04-04T14:34:48.962Z</time></trkpt><trkpt lat="40.7430875" lon="14.8323159"><ele>641.0</ele><time>2026-04-04T14:34:50.962Z</time></trkpt><trkpt lat="40.7431596" lon="14.8323149"><ele>641.0</ele><time>2026-04-04T14:34:52.964Z</time></trkpt><trkpt lat="40.7431514" lon="14.8324481"><ele>641.0</ele><time>2026-04-04T14:34:55.971Z</time></trkpt><trkpt lat="40.743153" lon="14.8325361"><ele>641.0</ele><time>2026-04-04T14:34:56.972Z</time></trkpt><trkpt lat="40.7431625" lon="14.8326615"><ele>641.1999999999999</ele><time>2026-04-04T14:34:58.97Z</time></trkpt><trkpt lat="40.7433017" lon="14.8327499"><ele>641.4</ele><time>2026-04-04T14:35:00.971Z</time></trkpt><trkpt lat="40.7433809" lon="14.8327827"><ele>641.6</ele><time>2026-04-04T14:35:01.951Z</time></trkpt><trkpt lat="40.7434609" lon="14.8328026"><ele>641.8</ele><time>2026-04-04T14:35:02.979Z</time></trkpt><trkpt lat="40.7435339" lon="14.8328208"><ele>642.0</ele><time>2026-04-04T14:35:03.976Z</time></trkpt><trkpt lat="40.7435997" lon="14.8328305"><ele>642.0</ele><time>2026-04-04T14:35:04.963Z</time></trkpt><trkpt lat="40.7436961" lon="14.8328206"><ele>642.0</ele><time>2026-04-04T14:35:06.968Z</time></trkpt><trkpt lat="40.743748" lon="14.8328752"><ele>642.0</ele><time>2026-04-04T14:35:08.965Z</time></trkpt><trkpt lat="40.7437847" lon="14.8329588"><ele>642.0</ele><time>2026-04-04T14:35:09.965Z</time></trkpt><trkpt lat="40.7438372" lon="14.8330298"><ele>642.0</ele><time>2026-04-04T14:35:10.963Z</time></trkpt><trkpt lat="40.743928" lon="14.8331455"><ele>642.0</ele><time>2026-04-04T14:35:12.961Z</time></trkpt><trkpt lat="40.7439809" lon="14.8332147"><ele>642.0</ele><time>2026-04-04T14:35:13.969Z</time></trkpt><trkpt lat="40.7440174" lon="14.8332825"><ele>642.0</ele><time>2026-04-04T14:35:14.972Z</time></trkpt><trkpt lat="40.7440661" lon="14.833342"><ele>642.0</ele><time>2026-04-04T14:35:15.967Z</time></trkpt><trkpt lat="40.7441463" lon="14.833393"><ele>642.0</ele><time>2026-04-04T14:35:17.972Z</time></trkpt><trkpt lat="40.7442211" lon="14.8334136"><ele>642.0</ele><time>2026-04-04T14:35:18.973Z</time></trkpt><trkpt lat="40.744358" lon="14.8334135"><ele>642.0</ele><time>2026-04-04T14:35:20.971Z</time></trkpt><trkpt lat="40.7444909" lon="14.8333732"><ele>645.6666666666666</ele><time>2026-04-04T14:35:22.963Z</time></trkpt><trkpt lat="40.7445697" lon="14.8333495"><ele>649.3333333333334</ele><time>2026-04-04T14:35:23.96Z</time></trkpt><trkpt lat="40.7446412" lon="14.833341"><ele>653.0</ele><time>2026-04-04T14:35:24.969Z</time></trkpt><trkpt lat="40.7447066" lon="14.8333281"><ele>656.6666666666667</ele><time>2026-04-04T14:35:25.964Z</time></trkpt><trkpt lat="40.7447996" lon="14.8332587"><ele>660.3333333333334</ele><time>2026-04-04T14:35:28.025Z</time></trkpt><trkpt lat="40.7448786" lon="14.8332789"><ele>664.0</ele><time>2026-04-04T14:35:30.963Z</time></trkpt><trkpt lat="40.7448909" lon="14.8333693"><ele>659.2</ele><time>2026-04-04T14:35:33.039Z</time></trkpt><trkpt lat="40.7449093" lon="14.833511"><ele>654.4000000000001</ele><time>2026-04-04T14:35:34.957Z</time></trkpt><trkpt lat="40.7449311" lon="14.8336648"><ele>649.6</ele><time>2026-04-04T14:35:36.971Z</time></trkpt><trkpt lat="40.7449877" lon="14.8337909"><ele>644.8</ele><time>2026-04-04T14:35:38.946Z</time></trkpt><trkpt lat="40.7450855" lon="14.833854"><ele>640.0</ele><time>2026-04-04T14:35:41.034Z</time></trkpt><trkpt lat="40.7452011" lon="14.8338824"><ele>646.0</ele><time>2026-04-04T14:35:42.962Z</time></trkpt><trkpt lat="40.7452969" lon="14.8338849"><ele>652.0</ele><time>2026-04-04T14:35:43.97Z</time></trkpt><trkpt lat="40.745438" lon="14.8338505"><ele>658.0</ele><time>2026-04-04T14:35:44.956Z</time></trkpt><trkpt lat="40.7455579" lon="14.8338161"><ele>664.0</ele><time>2026-04-04T14:35:45.969Z</time></trkpt><trkpt lat="40.7456264" lon="14.8337965"><ele>670.0</ele><time>2026-04-04T14:35:47.021Z</time></trkpt><trkpt lat="40.7456808" lon="14.8337376"><ele>670.0</ele><time>2026-04-04T14:35:48.949Z</time></trkpt><trkpt lat="40.7457403" lon="14.833702"><ele>670.0</ele><time>2026-04-04T14:35:51.964Z</time></trkpt><trkpt lat="40.7457723" lon="14.8337881"><ele>670.0</ele><time>2026-04-04T14:35:54.966Z</time></trkpt><trkpt lat="40.7457769" lon="14.8339211"><ele>670.0</ele><time>2026-04-04T14:35:57.973Z</time></trkpt><trkpt lat="40.7458361" lon="14.834048"><ele>670.0</ele><time>2026-04-04T14:35:59.963Z</time></trkpt><trkpt lat="40.7458821" lon="14.83411"><ele>670.0</ele><time>2026-04-04T14:36:00.962Z</time></trkpt><trkpt lat="40.7459451" lon="14.8341701"><ele>670.0</ele><time>2026-04-04T14:36:01.966Z</time></trkpt><trkpt lat="40.7460093" lon="14.8342046"><ele>670.0</ele><time>2026-04-04T14:36:02.961Z</time></trkpt><trkpt lat="40.7461261" lon="14.8342611"><ele>670.0</ele><time>2026-04-04T14:36:05.017Z</time></trkpt><trkpt lat="40.7462087" lon="14.8343193"><ele>670.0</ele><time>2026-04-04T14:36:05.952Z</time></trkpt><trkpt lat="40.7462663" lon="14.834367"><ele>670.0</ele><time>2026-04-04T14:36:07.015Z</time></trkpt><trkpt lat="40.7463158" lon="14.8344594"><ele>670.0</ele><time>2026-04-04T14:36:07.96Z</time></trkpt><trkpt lat="40.7463659" lon="14.8345739"><ele>670.2</ele><time>2026-04-04T14:36:08.955Z</time></trkpt><trkpt lat="40.7464224" lon="14.8346667"><ele>670.4</ele><time>2026-04-04T14:36:09.967Z</time></trkpt><trkpt lat="40.7464915" lon="14.8347423"><ele>670.5999999999999</ele><time>2026-04-04T14:36:10.962Z</time></trkpt><trkpt lat="40.7465613" lon="14.8348114"><ele>670.8</ele><time>2026-04-04T14:36:11.963Z</time></trkpt><trkpt lat="40.7466397" lon="14.8348697"><ele>671.0</ele><time>2026-04-04T14:36:13.037Z</time></trkpt><trkpt lat="40.7467448" lon="14.8349298"><ele>671.0</ele><time>2026-04-04T14:36:13.96Z</time></trkpt><trkpt lat="40.7468453" lon="14.8349741"><ele>671.0</ele><time>2026-04-04T14:36:14.958Z</time></trkpt><trkpt lat="40.7469302" lon="14.8349884"><ele>671.0</ele><time>2026-04-04T14:36:15.976Z</time></trkpt><trkpt lat="40.7470777" lon="14.8349678"><ele>671.0</ele><time>2026-04-04T14:36:17.96Z</time></trkpt><trkpt lat="40.7471714" lon="14.8349435"><ele>671.0</ele><time>2026-04-04T14:36:18.96Z</time></trkpt><trkpt lat="40.7472637" lon="14.8349432"><ele>671.3333333333333</ele><time>2026-04-04T14:36:20.066Z</time></trkpt><trkpt lat="40.7473499" lon="14.8349174"><ele>671.6666666666666</ele><time>2026-04-04T14:36:21.021Z</time></trkpt><trkpt lat="40.747419" lon="14.8348986"><ele>672.0</ele><time>2026-04-04T14:36:22.009Z</time></trkpt><trkpt lat="40.7474879" lon="14.8348679"><ele>672.3333333333334</ele><time>2026-04-04T14:36:22.959Z</time></trkpt><trkpt lat="40.7475655" lon="14.8348149"><ele>672.6666666666667</ele><time>2026-04-04T14:36:24.965Z</time></trkpt><trkpt lat="40.7475876" lon="14.8346904"><ele>673.0</ele><time>2026-04-04T14:36:27.952Z</time></trkpt><trkpt lat="40.7475636" lon="14.8345207"><ele>673.0</ele><time>2026-04-04T14:36:29.964Z</time></trkpt><trkpt lat="40.7475433" lon="14.8343977"><ele>673.0</ele><time>2026-04-04T14:36:30.983Z</time></trkpt><trkpt lat="40.7475081" lon="14.8341949"><ele>673.0</ele><time>2026-04-04T14:36:31.956Z</time></trkpt><trkpt lat="40.747516" lon="14.8340639"><ele>673.0</ele><time>2026-04-04T14:36:32.958Z</time></trkpt><trkpt lat="40.7475354" lon="14.8339314"><ele>677.6666666666667</ele><time>2026-04-04T14:36:33.965Z</time></trkpt><trkpt lat="40.7475534" lon="14.8338083"><ele>682.3333333333334</ele><time>2026-04-04T14:36:34.968Z</time></trkpt><trkpt lat="40.7475621" lon="14.8337046"><ele>687.0</ele><time>2026-04-04T14:36:35.965Z</time></trkpt><trkpt lat="40.7475809" lon="14.8336045"><ele>691.6666666666666</ele><time>2026-04-04T14:36:36.951Z</time></trkpt><trkpt lat="40.7475827" lon="14.8335209"><ele>696.3333333333333</ele><time>2026-04-04T14:36:37.956Z</time></trkpt><trkpt lat="40.7475765" lon="14.8334108"><ele>701.0</ele><time>2026-04-04T14:36:38.968Z</time></trkpt><trkpt lat="40.7475719" lon="14.8332611"><ele>705.25</ele><time>2026-04-04T14:36:39.964Z</time></trkpt><trkpt lat="40.7475713" lon="14.8330744"><ele>709.5</ele><time>2026-04-04T14:36:41.018Z</time></trkpt><trkpt lat="40.7475882" lon="14.8328937"><ele>713.75</ele><time>2026-04-04T14:36:42.015Z</time></trkpt><trkpt lat="40.747602" lon="14.8327232"><ele>718.0</ele><time>2026-04-04T14:36:43.026Z</time></trkpt><trkpt lat="40.7475988" lon="14.8325867"><ele>720.8</ele><time>2026-04-04T14:36:43.962Z</time></trkpt><trkpt lat="40.7475907" lon="14.8324469"><ele>723.5999999999999</ele><time>2026-04-04T14:36:44.959Z</time></trkpt><trkpt lat="40.7475887" lon="14.832299"><ele>726.4000000000001</ele><time>2026-04-04T14:36:45.96Z</time></trkpt><trkpt lat="40.7476073" lon="14.83216"><ele>729.2</ele><time>2026-04-04T14:36:46.959Z</time></trkpt><trkpt lat="40.7476394" lon="14.8320569"><ele>732.0</ele><time>2026-04-04T14:36:47.961Z</time></trkpt><trkpt lat="40.7476847" lon="14.8319353"><ele>729.3333333333334</ele><time>2026-04-04T14:36:49.955Z</time></trkpt><trkpt lat="40.747711" lon="14.83183"><ele>726.6666666666666</ele><time>2026-04-04T14:36:51.964Z</time></trkpt><trkpt lat="40.7477961" lon="14.8318363"><ele>724.0</ele><time>2026-04-04T14:36:54.963Z</time></trkpt><trkpt lat="40.7478741" lon="14.8319085"><ele>721.3333333333333</ele><time>2026-04-04T14:36:55.96Z</time></trkpt><trkpt lat="40.7479469" lon="14.8319445"><ele>718.6666666666666</ele><time>2026-04-04T14:36:57.026Z</time></trkpt><trkpt lat="40.7480513" lon="14.8319713"><ele>716.0</ele><time>2026-04-04T14:36:57.959Z</time></trkpt><trkpt lat="40.7482142" lon="14.8320036"><ele>716.0</ele><time>2026-04-04T14:36:58.957Z</time></trkpt><trkpt lat="40.7483606" lon="14.832015"><ele>716.0</ele><time>2026-04-04T14:36:59.959Z</time></trkpt><trkpt lat="40.7484727" lon="14.8320226"><ele>716.0</ele><time>2026-04-04T14:37:00.981Z</time></trkpt><trkpt lat="40.7485996" lon="14.8320281"><ele>716.0</ele><time>2026-04-04T14:37:02.031Z</time></trkpt><trkpt lat="40.7487332" lon="14.8320371"><ele>720.4</ele><time>2026-04-04T14:37:03.014Z</time></trkpt><trkpt lat="40.7488296" lon="14.8320528"><ele>724.8</ele><time>2026-04-04T14:37:03.958Z</time></trkpt><trkpt lat="40.7489225" lon="14.8321118"><ele>729.1999999999999</ele><time>2026-04-04T14:37:04.953Z</time></trkpt><trkpt lat="40.7490177" lon="14.8321773"><ele>733.5999999999999</ele><time>2026-04-04T14:37:05.962Z</time></trkpt><trkpt lat="40.7490985" lon="14.8321954"><ele>738.0</ele><time>2026-04-04T14:37:06.957Z</time></trkpt><trkpt lat="40.7491816" lon="14.8322258"><ele>738.0</ele><time>2026-04-04T14:37:07.959Z</time></trkpt><trkpt lat="40.7492614" lon="14.8322677"><ele>738.0</ele><time>2026-04-04T14:37:09.013Z</time></trkpt><trkpt lat="40.7493352" lon="14.832319"><ele>738.0</ele><time>2026-04-04T14:37:10.013Z</time></trkpt><trkpt lat="40.7494102" lon="14.832386"><ele>738.0</ele><time>2026-04-04T14:37:11.955Z</time></trkpt><trkpt lat="40.7494319" lon="14.8322572"><ele>738.0</ele><time>2026-04-04T14:37:16.045Z</time></trkpt><trkpt lat="40.7493871" lon="14.8320987"><ele>738.0</ele><time>2026-04-04T14:37:18.963Z</time></trkpt><trkpt lat="40.7493229" lon="14.8319732"><ele>738.0</ele><time>2026-04-04T14:37:19.962Z</time></trkpt><trkpt lat="40.7492736" lon="14.8318855"><ele>738.0</ele><time>2026-04-04T14:37:20.966Z</time></trkpt><trkpt lat="40.7492023" lon="14.8317804"><ele>738.0</ele><time>2026-04-04T14:37:23.03Z</time></trkpt><trkpt lat="40.7491345" lon="14.8317143"><ele>738.0</ele><time>2026-04-04T14:37:23.964Z</time></trkpt><trkpt lat="40.7490423" lon="14.8316395"><ele>739.0</ele><time>2026-04-04T14:37:24.964Z</time></trkpt><trkpt lat="40.7489653" lon="14.8315903"><ele>740.0</ele><time>2026-04-04T14:37:25.973Z</time></trkpt><trkpt lat="40.7488952" lon="14.8315534"><ele>741.0</ele><time>2026-04-04T14:37:26.957Z</time></trkpt><trkpt lat="40.7487724" lon="14.831523"><ele>742.0</ele><time>2026-04-04T14:37:28.97Z</time></trkpt><trkpt lat="40.7487096" lon="14.831493"><ele>743.0</ele><time>2026-04-04T14:37:30.034Z</time></trkpt><trkpt lat="40.7486462" lon="14.8314636"><ele>744.0</ele><time>2026-04-04T14:37:31.02Z</time></trkpt><trkpt lat="40.748526" lon="14.8313917"><ele>744.0</ele><time>2026-04-04T14:37:32.023Z</time></trkpt><trkpt lat="40.7483703" lon="14.8312904"><ele>744.0</ele><time>2026-04-04T14:37:32.957Z</time></trkpt><trkpt lat="40.7481954" lon="14.8311666"><ele>744.0</ele><time>2026-04-04T14:37:33.959Z</time></trkpt><trkpt lat="40.7480436" lon="14.8310632"><ele>744.0</ele><time>2026-04-04T14:37:34.959Z</time></trkpt><trkpt lat="40.7479211" lon="14.8309843"><ele>744.0</ele><time>2026-04-04T14:37:35.96Z</time></trkpt><trkpt lat="40.7478455" lon="14.8309415"><ele>744.0</ele><time>2026-04-04T14:37:36.96Z</time></trkpt><trkpt lat="40.7477799" lon="14.8309026"><ele>744.0</ele><time>2026-04-04T14:37:37.964Z</time></trkpt><trkpt lat="40.7477133" lon="14.8308691"><ele>744.0</ele><time>2026-04-04T14:37:39.966Z</time></trkpt><trkpt lat="40.7476275" lon="14.8309145"><ele>745.4000000000001</ele><time>2026-04-04T14:37:42.965Z</time></trkpt><trkpt lat="40.7475939" lon="14.8309981"><ele>746.8</ele><time>2026-04-04T14:37:43.963Z</time></trkpt><trkpt lat="40.7475641" lon="14.8311002"><ele>748.2</ele><time>2026-04-04T14:37:44.959Z</time></trkpt><trkpt lat="40.7475356" lon="14.8312092"><ele>749.5999999999999</ele><time>2026-04-04T14:37:45.966Z</time></trkpt><trkpt lat="40.7475202" lon="14.8313299"><ele>751.0</ele><time>2026-04-04T14:37:46.962Z</time></trkpt><trkpt lat="40.7475053" lon="14.8314909"><ele>751.0</ele><time>2026-04-04T14:37:47.966Z</time></trkpt><trkpt lat="40.7474807" lon="14.8316518"><ele>751.0</ele><time>2026-04-04T14:37:48.955Z</time></trkpt><trkpt lat="40.7474529" lon="14.8318032"><ele>751.0</ele><time>2026-04-04T14:37:49.961Z</time></trkpt><trkpt lat="40.7474351" lon="14.831919"><ele>751.0</ele><time>2026-04-04T14:37:50.954Z</time></trkpt><trkpt lat="40.7474045" lon="14.832"><ele>751.0</ele><time>2026-04-04T14:37:51.957Z</time></trkpt><trkpt lat="40.7473221" lon="14.8321043"><ele>751.25</ele><time>2026-04-04T14:37:53.963Z</time></trkpt><trkpt lat="40.7472133" lon="14.8321497"><ele>751.5</ele><time>2026-04-04T14:37:55.96Z</time></trkpt><trkpt lat="40.747131" lon="14.8321324"><ele>751.75</ele><time>2026-04-04T14:37:56.97Z</time></trkpt><trkpt lat="40.7469401" lon="14.832055"><ele>752.0</ele><time>2026-04-04T14:37:57.957Z</time></trkpt><trkpt lat="40.746743" lon="14.8319891"><ele>752.0</ele><time>2026-04-04T14:37:58.958Z</time></trkpt><trkpt lat="40.7465326" lon="14.8319331"><ele>752.0</ele><time>2026-04-04T14:37:59.962Z</time></trkpt><trkpt lat="40.746355" lon="14.8319062"><ele>752.0</ele><time>2026-04-04T14:38:00.955Z</time></trkpt><trkpt lat="40.746217" lon="14.8318751"><ele>752.0</ele><time>2026-04-04T14:38:01.961Z</time></trkpt><trkpt lat="40.7461139" lon="14.8318247"><ele>752.0</ele><time>2026-04-04T14:38:02.958Z</time></trkpt><trkpt lat="40.7460051" lon="14.8317681"><ele>752.0</ele><time>2026-04-04T14:38:03.952Z</time></trkpt><trkpt lat="40.7459245" lon="14.831663"><ele>752.0</ele><time>2026-04-04T14:38:04.954Z</time></trkpt><trkpt lat="40.7458526" lon="14.8315282"><ele>754.5</ele><time>2026-04-04T14:38:05.956Z</time></trkpt><trkpt lat="40.7457921" lon="14.8313969"><ele>757.0</ele><time>2026-04-04T14:38:06.968Z</time></trkpt><trkpt lat="40.7457463" lon="14.8312848"><ele>759.5</ele><time>2026-04-04T14:38:07.959Z</time></trkpt><trkpt lat="40.7457065" lon="14.8311939"><ele>762.0</ele><time>2026-04-04T14:38:08.96Z</time></trkpt><trkpt lat="40.745658" lon="14.8311292"><ele>764.5</ele><time>2026-04-04T14:38:09.963Z</time></trkpt><trkpt lat="40.7456047" lon="14.8310771"><ele>767.0</ele><time>2026-04-04T14:38:10.968Z</time></trkpt><trkpt lat="40.7455253" lon="14.8310623"><ele>767.0</ele><time>2026-04-04T14:38:11.966Z</time></trkpt><trkpt lat="40.74544" lon="14.831065"><ele>767.0</ele><time>2026-04-04T14:38:12.96Z</time></trkpt><trkpt lat="40.7453418" lon="14.8310748"><ele>767.0</ele><time>2026-04-04T14:38:13.954Z</time></trkpt><trkpt lat="40.7452451" lon="14.8310649"><ele>767.0</ele><time>2026-04-04T14:38:14.95Z</time></trkpt><trkpt lat="40.7451415" lon="14.8310208"><ele>767.0</ele><time>2026-04-04T14:38:15.973Z</time></trkpt><trkpt lat="40.7450399" lon="14.8309313"><ele>769.0</ele><time>2026-04-04T14:38:16.957Z</time></trkpt><trkpt lat="40.7449444" lon="14.8308117"><ele>771.0</ele><time>2026-04-04T14:38:17.955Z</time></trkpt><trkpt lat="40.7448451" lon="14.8306807"><ele>773.0</ele><time>2026-04-04T14:38:18.95Z</time></trkpt><trkpt lat="40.7447478" lon="14.8305553"><ele>775.0</ele><time>2026-04-04T14:38:19.955Z</time></trkpt><trkpt lat="40.744658" lon="14.8304382"><ele>775.0</ele><time>2026-04-04T14:38:20.956Z</time></trkpt><trkpt lat="40.744568" lon="14.8303185"><ele>775.0</ele><time>2026-04-04T14:38:21.965Z</time></trkpt><trkpt lat="40.7444744" lon="14.8302157"><ele>775.0</ele><time>2026-04-04T14:38:22.96Z</time></trkpt><trkpt lat="40.7443732" lon="14.8301357"><ele>775.0</ele><time>2026-04-04T14:38:23.964Z</time></trkpt><trkpt lat="40.7442792" lon="14.8300749"><ele>771.75</ele><time>2026-04-04T14:38:24.961Z</time></trkpt><trkpt lat="40.7442019" lon="14.8299778"><ele>768.5</ele><time>2026-04-04T14:38:25.965Z</time></trkpt><trkpt lat="40.7441309" lon="14.8298441"><ele>765.25</ele><time>2026-04-04T14:38:26.958Z</time></trkpt><trkpt lat="40.7440652" lon="14.8296844"><ele>762.0</ele><time>2026-04-04T14:38:27.974Z</time></trkpt><trkpt lat="40.7440105" lon="14.8295223"><ele>762.0</ele><time>2026-04-04T14:38:28.956Z</time></trkpt><trkpt lat="40.7439587" lon="14.8293705"><ele>762.0</ele><time>2026-04-04T14:38:29.943Z</time></trkpt><trkpt lat="40.7438891" lon="14.8292278"><ele>762.0</ele><time>2026-04-04T14:38:30.951Z</time></trkpt><trkpt lat="40.7438264" lon="14.8290933"><ele>762.0</ele><time>2026-04-04T14:38:31.94Z</time></trkpt><trkpt lat="40.743779" lon="14.8289948"><ele>763.1666666666666</ele><time>2026-04-04T14:38:32.965Z</time></trkpt><trkpt lat="40.7437459" lon="14.8288671"><ele>764.3333333333333</ele><time>2026-04-04T14:38:34.971Z</time></trkpt><trkpt lat="40.7437718" lon="14.8287851"><ele>765.5</ele><time>2026-04-04T14:38:36.966Z</time></trkpt><trkpt lat="40.7438496" lon="14.8287591"><ele>766.6666666666666</ele><time>2026-04-04T14:38:39.941Z</time></trkpt><trkpt lat="40.7439196" lon="14.8286903"><ele>767.8333333333333</ele><time>2026-04-04T14:38:43.953Z</time></trkpt><trkpt lat="40.7439894" lon="14.8286847"><ele>769.0</ele><time>2026-04-04T14:38:45.952Z</time></trkpt><trkpt lat="40.7440833" lon="14.8286914"><ele>769.0</ele><time>2026-04-04T14:38:47.965Z</time></trkpt><trkpt lat="40.744175" lon="14.8286717"><ele>769.0</ele><time>2026-04-04T14:38:48.961Z</time></trkpt><trkpt lat="40.7442672" lon="14.8286724"><ele>769.0</ele><time>2026-04-04T14:38:49.96Z</time></trkpt><trkpt lat="40.7443598" lon="14.828664"><ele>769.0</ele><time>2026-04-04T14:38:50.962Z</time></trkpt><trkpt lat="40.7444537" lon="14.8286552"><ele>769.0</ele><time>2026-04-04T14:38:51.96Z</time></trkpt><trkpt lat="40.7445475" lon="14.828644"><ele>770.2</ele><time>2026-04-04T14:38:52.967Z</time></trkpt><trkpt lat="40.7446349" lon="14.8286369"><ele>771.4000000000001</ele><time>2026-04-04T14:38:53.965Z</time></trkpt><trkpt lat="40.7447286" lon="14.828643"><ele>772.6</ele><time>2026-04-04T14:38:54.956Z</time></trkpt><trkpt lat="40.7448234" lon="14.8286619"><ele>773.8</ele><time>2026-04-04T14:38:55.967Z</time></trkpt><trkpt lat="40.7449218" lon="14.8286868"><ele>775.0</ele><time>2026-04-04T14:38:56.952Z</time></trkpt><trkpt lat="40.7450098" lon="14.8287241"><ele>774.9999999999999</ele><time>2026-04-04T14:38:57.951Z</time></trkpt><trkpt lat="40.7450986" lon="14.8287391"><ele>775.0</ele><time>2026-04-04T14:38:58.953Z</time></trkpt><trkpt lat="40.745185" lon="14.8287378"><ele>775.0</ele><time>2026-04-04T14:38:59.951Z</time></trkpt><trkpt lat="40.7452618" lon="14.8287654"><ele>775.0</ele><time>2026-04-04T14:39:00.955Z</time></trkpt><trkpt lat="40.7453501" lon="14.8287619"><ele>774.9999999999999</ele><time>2026-04-04T14:39:02.971Z</time></trkpt><trkpt lat="40.7453587" lon="14.8286594"><ele>775.0</ele><time>2026-04-04T14:39:04.981Z</time></trkpt><trkpt lat="40.7453779" lon="14.828521"><ele>772.4</ele><time>2026-04-04T14:39:06.967Z</time></trkpt><trkpt lat="40.7454354" lon="14.8283799"><ele>769.8</ele><time>2026-04-04T14:39:08.955Z</time></trkpt><trkpt lat="40.7454863" lon="14.8282875"><ele>767.2</ele><time>2026-04-04T14:39:09.951Z</time></trkpt><trkpt lat="40.7455437" lon="14.8282455"><ele>764.6</ele><time>2026-04-04T14:39:10.965Z</time></trkpt><trkpt lat="40.745648" lon="14.8282095"><ele>762.0</ele><time>2026-04-04T14:39:13.014Z</time></trkpt><trkpt lat="40.7457388" lon="14.8280579"><ele>762.0</ele><time>2026-04-04T14:39:14.96Z</time></trkpt><trkpt lat="40.7457812" lon="14.8279259"><ele>762.0</ele><time>2026-04-04T14:39:15.961Z</time></trkpt><trkpt lat="40.7458038" lon="14.8278086"><ele>762.0</ele><time>2026-04-04T14:39:16.956Z</time></trkpt><trkpt lat="40.7458214" lon="14.8277139"><ele>762.0</ele><time>2026-04-04T14:39:17.952Z</time></trkpt><trkpt lat="40.745893" lon="14.8276072"><ele>762.0</ele><time>2026-04-04T14:39:19.951Z</time></trkpt><trkpt lat="40.7459572" lon="14.8275435"><ele>756.6</ele><time>2026-04-04T14:39:20.941Z</time></trkpt><trkpt lat="40.7460145" lon="14.8274902"><ele>751.2</ele><time>2026-04-04T14:39:21.973Z</time></trkpt><trkpt lat="40.7461243" lon="14.8274189"><ele>745.8</ele><time>2026-04-04T14:39:23.939Z</time></trkpt><trkpt lat="40.7462049" lon="14.827317"><ele>740.4</ele><time>2026-04-04T14:39:24.939Z</time></trkpt><trkpt lat="40.746252" lon="14.8271917"><ele>735.0</ele><time>2026-04-04T14:39:25.965Z</time></trkpt><trkpt lat="40.7462815" lon="14.8270576"><ele>734.8333333333334</ele><time>2026-04-04T14:39:26.961Z</time></trkpt><trkpt lat="40.7462994" lon="14.826954"><ele>734.6666666666666</ele><time>2026-04-04T14:39:27.952Z</time></trkpt><trkpt lat="40.7463025" lon="14.8268625"><ele>734.5</ele><time>2026-04-04T14:39:28.945Z</time></trkpt><trkpt lat="40.7463146" lon="14.8267749"><ele>734.3333333333333</ele><time>2026-04-04T14:39:29.962Z</time></trkpt><trkpt lat="40.7463331" lon="14.8266725"><ele>734.1666666666666</ele><time>2026-04-04T14:39:31.969Z</time></trkpt><trkpt lat="40.7462549" lon="14.8267275"><ele>734.0</ele><time>2026-04-04T14:39:35.969Z</time></trkpt><trkpt lat="40.7462055" lon="14.8267888"><ele>734.0</ele><time>2026-04-04T14:39:36.957Z</time></trkpt><trkpt lat="40.746154" lon="14.8268736"><ele>734.0</ele><time>2026-04-04T14:39:37.962Z</time></trkpt><trkpt lat="40.7461093" lon="14.8269488"><ele>734.0</ele><time>2026-04-04T14:39:38.971Z</time></trkpt><trkpt lat="40.7460352" lon="14.8269991"><ele>734.0</ele><time>2026-04-04T14:39:39.961Z</time></trkpt><trkpt lat="40.7459562" lon="14.8270381"><ele>734.0</ele><time>2026-04-04T14:39:40.971Z</time></trkpt><trkpt lat="40.7458915" lon="14.8270664"><ele>734.0</ele><time>2026-04-04T14:39:41.968Z</time></trkpt><trkpt lat="40.7458288" lon="14.8270852"><ele>734.2</ele><time>2026-04-04T14:39:43.068Z</time></trkpt><trkpt lat="40.7457578" lon="14.8271044"><ele>734.4000000000001</ele><time>2026-04-04T14:39:43.968Z</time></trkpt><trkpt lat="40.7456604" lon="14.8271872"><ele>734.6</ele><time>2026-04-04T14:39:46.017Z</time></trkpt><trkpt lat="40.7455986" lon="14.8273016"><ele>734.8</ele><time>2026-04-04T14:39:47.966Z</time></trkpt><trkpt lat="40.7455288" lon="14.8273964"><ele>735.0</ele><time>2026-04-04T14:39:49.994Z</time></trkpt><trkpt lat="40.745459" lon="14.8274249"><ele>735.0</ele><time>2026-04-04T14:39:51.969Z</time></trkpt><trkpt lat="40.7453715" lon="14.8274"><ele>735.0</ele><time>2026-04-04T14:39:53.966Z</time></trkpt><trkpt lat="40.7452614" lon="14.8273886"><ele>735.0</ele><time>2026-04-04T14:39:55.965Z</time></trkpt><trkpt lat="40.7451672" lon="14.8273965"><ele>735.0</ele><time>2026-04-04T14:39:57.989Z</time></trkpt><trkpt lat="40.7450725" lon="14.8274585"><ele>735.0</ele><time>2026-04-04T14:39:59.974Z</time></trkpt><trkpt lat="40.7449948" lon="14.8275471"><ele>734.8333333333334</ele><time>2026-04-04T14:40:01.966Z</time></trkpt><trkpt lat="40.7449546" lon="14.8276633"><ele>734.6666666666666</ele><time>2026-04-04T14:40:03.977Z</time></trkpt><trkpt lat="40.7448911" lon="14.82772"><ele>734.5</ele><time>2026-04-04T14:40:06.977Z</time></trkpt><trkpt lat="40.7448314" lon="14.8276785"><ele>734.3333333333333</ele><time>2026-04-04T14:40:07.965Z</time></trkpt><trkpt lat="40.7447681" lon="14.8276337"><ele>734.1666666666666</ele><time>2026-04-04T14:40:08.968Z</time></trkpt><trkpt lat="40.7446982" lon="14.8275951"><ele>734.0</ele><time>2026-04-04T14:40:09.969Z</time></trkpt><trkpt lat="40.7446369" lon="14.8275611"><ele>728.6</ele><time>2026-04-04T14:40:10.961Z</time></trkpt><trkpt lat="40.7445226" lon="14.8274902"><ele>723.2</ele><time>2026-04-04T14:40:12.965Z</time></trkpt><trkpt lat="40.7444626" lon="14.8274371"><ele>717.8000000000001</ele><time>2026-04-04T14:40:13.955Z</time></trkpt><trkpt lat="40.7443964" lon="14.8273857"><ele>712.4000000000001</ele><time>2026-04-04T14:40:14.968Z</time></trkpt><trkpt lat="40.744314" lon="14.8273416"><ele>707.0</ele><time>2026-04-04T14:40:16.037Z</time></trkpt><trkpt lat="40.7442295" lon="14.8273015"><ele>705.0</ele><time>2026-04-04T14:40:17.038Z</time></trkpt><trkpt lat="40.7441584" lon="14.8272665"><ele>703.0</ele><time>2026-04-04T14:40:17.948Z</time></trkpt><trkpt lat="40.744072" lon="14.8272303"><ele>701.0</ele><time>2026-04-04T14:40:18.97Z</time></trkpt><trkpt lat="40.7439715" lon="14.8272086"><ele>699.0</ele><time>2026-04-04T14:40:19.977Z</time></trkpt><trkpt lat="40.7438674" lon="14.8271791"><ele>697.0</ele><time>2026-04-04T14:40:20.945Z</time></trkpt><trkpt lat="40.7437686" lon="14.8271686"><ele>697.0</ele><time>2026-04-04T14:40:21.965Z</time></trkpt><trkpt lat="40.7436769" lon="14.8271739"><ele>697.0</ele><time>2026-04-04T14:40:22.971Z</time></trkpt><trkpt lat="40.7436117" lon="14.827184"><ele>697.0</ele><time>2026-04-04T14:40:23.963Z</time></trkpt><trkpt lat="40.7435439" lon="14.8272073"><ele>697.0</ele><time>2026-04-04T14:40:24.963Z</time></trkpt><trkpt lat="40.743481" lon="14.8272384"><ele>697.0</ele><time>2026-04-04T14:40:26.033Z</time></trkpt><trkpt lat="40.7434104" lon="14.8272751"><ele>697.0</ele><time>2026-04-04T14:40:27.033Z</time></trkpt><trkpt lat="40.7432981" lon="14.8272975"><ele>699.2</ele><time>2026-04-04T14:40:27.963Z</time></trkpt><trkpt lat="40.7431961" lon="14.8272871"><ele>701.4000000000001</ele><time>2026-04-04T14:40:28.974Z</time></trkpt><trkpt lat="40.74313" lon="14.8272928"><ele>703.5999999999999</ele><time>2026-04-04T14:40:30.06Z</time></trkpt><trkpt lat="40.7430613" lon="14.8273118"><ele>705.8</ele><time>2026-04-04T14:40:31.044Z</time></trkpt><trkpt lat="40.7429805" lon="14.8273501"><ele>708.0</ele><time>2026-04-04T14:40:32.028Z</time></trkpt><trkpt lat="40.7428614" lon="14.8274154"><ele>708.0</ele><time>2026-04-04T14:40:32.96Z</time></trkpt><trkpt lat="40.742752" lon="14.8274642"><ele>708.0</ele><time>2026-04-04T14:40:33.965Z</time></trkpt><trkpt lat="40.7426335" lon="14.8275062"><ele>708.0</ele><time>2026-04-04T14:40:34.97Z</time></trkpt><trkpt lat="40.742519" lon="14.8275332"><ele>708.0</ele><time>2026-04-04T14:40:35.973Z</time></trkpt><trkpt lat="40.7424133" lon="14.8275406"><ele>706.0</ele><time>2026-04-04T14:40:36.968Z</time></trkpt><trkpt lat="40.7422793" lon="14.8275507"><ele>704.0</ele><time>2026-04-04T14:40:38.011Z</time></trkpt><trkpt lat="40.7421421" lon="14.8275637"><ele>702.0</ele><time>2026-04-04T14:40:38.976Z</time></trkpt><trkpt lat="40.7420116" lon="14.8275732"><ele>700.0</ele><time>2026-04-04T14:40:39.963Z</time></trkpt><trkpt lat="40.7418812" lon="14.8275632"><ele>691.5</ele><time>2026-04-04T14:40:41.098Z</time></trkpt><trkpt lat="40.7415411" lon="14.8275202"><ele>683.0</ele><time>2026-04-04T14:40:42.968Z</time></trkpt><trkpt lat="40.7413815" lon="14.8274863"><ele>683.0</ele><time>2026-04-04T14:40:43.952Z</time></trkpt><trkpt lat="40.7412452" lon="14.8274365"><ele>683.0</ele><time>2026-04-04T14:40:44.965Z</time></trkpt><trkpt lat="40.7411208" lon="14.8273757"><ele>683.0</ele><time>2026-04-04T14:40:45.951Z</time></trkpt><trkpt lat="40.7410125" lon="14.8273159"><ele>683.0</ele><time>2026-04-04T14:40:46.964Z</time></trkpt><trkpt lat="40.7409161" lon="14.8272584"><ele>681.8</ele><time>2026-04-04T14:40:47.955Z</time></trkpt><trkpt lat="40.7408312" lon="14.8272058"><ele>680.5999999999999</ele><time>2026-04-04T14:40:48.977Z</time></trkpt><trkpt lat="40.7407479" lon="14.8271695"><ele>679.4000000000001</ele><time>2026-04-04T14:40:49.97Z</time></trkpt><trkpt lat="40.7406475" lon="14.8271405"><ele>678.2</ele><time>2026-04-04T14:40:50.954Z</time></trkpt><trkpt lat="40.7405399" lon="14.8271097"><ele>677.0</ele><time>2026-04-04T14:40:51.969Z</time></trkpt><trkpt lat="40.7404469" lon="14.8270682"><ele>677.0</ele><time>2026-04-04T14:40:52.967Z</time></trkpt><trkpt lat="40.7403539" lon="14.8270131"><ele>677.0</ele><time>2026-04-04T14:40:53.967Z</time></trkpt><trkpt lat="40.7402803" lon="14.8269568"><ele>677.0</ele><time>2026-04-04T14:40:54.968Z</time></trkpt><trkpt lat="40.7402219" lon="14.8269089"><ele>677.0</ele><time>2026-04-04T14:40:56.045Z</time></trkpt><trkpt lat="40.7401591" lon="14.8268939"><ele>677.0</ele><time>2026-04-04T14:40:57.968Z</time></trkpt><trkpt lat="40.7401091" lon="14.8269502"><ele>677.0</ele><time>2026-04-04T14:40:59.963Z</time></trkpt><trkpt lat="40.7401077" lon="14.8271247"><ele>674.8333333333333</ele><time>2026-04-04T14:41:01.967Z</time></trkpt><trkpt lat="40.7401164" lon="14.8272373"><ele>672.6666666666666</ele><time>2026-04-04T14:41:02.974Z</time></trkpt><trkpt lat="40.7401373" lon="14.8273479"><ele>670.5</ele><time>2026-04-04T14:41:03.972Z</time></trkpt><trkpt lat="40.7401579" lon="14.8274544"><ele>668.3333333333334</ele><time>2026-04-04T14:41:04.978Z</time></trkpt><trkpt lat="40.7401844" lon="14.827575"><ele>666.1666666666667</ele><time>2026-04-04T14:41:05.969Z</time></trkpt><trkpt lat="40.7402035" lon="14.8277008"><ele>664.0</ele><time>2026-04-04T14:41:06.988Z</time></trkpt><trkpt lat="40.7402166" lon="14.8278232"><ele>664.0</ele><time>2026-04-04T14:41:07.962Z</time></trkpt><trkpt lat="40.7402314" lon="14.8279331"><ele>664.0</ele><time>2026-04-04T14:41:08.96Z</time></trkpt><trkpt lat="40.7402719" lon="14.8280343"><ele>664.0</ele><time>2026-04-04T14:41:10.969Z</time></trkpt><trkpt lat="40.7403803" lon="14.8281004"><ele>664.0</ele><time>2026-04-04T14:41:12.967Z</time></trkpt><trkpt lat="40.7404711" lon="14.8281229"><ele>664.0</ele><time>2026-04-04T14:41:13.964Z</time></trkpt><trkpt lat="40.7405665" lon="14.8281478"><ele>664.0</ele><time>2026-04-04T14:41:14.97Z</time></trkpt><trkpt lat="40.7406293" lon="14.8281861"><ele>664.0</ele><time>2026-04-04T14:41:15.969Z</time></trkpt><trkpt lat="40.740702" lon="14.8282882"><ele>664.0</ele><time>2026-04-04T14:41:18.043Z</time></trkpt><trkpt lat="40.7407524" lon="14.8283714"><ele>664.0</ele><time>2026-04-04T14:41:18.96Z</time></trkpt><trkpt lat="40.740805" lon="14.8284534"><ele>664.0</ele><time>2026-04-04T14:41:19.979Z</time></trkpt><trkpt lat="40.7408447" lon="14.8285376"><ele>664.0</ele><time>2026-04-04T14:41:21.068Z</time></trkpt><trkpt lat="40.7408709" lon="14.828631"><ele>664.6666666666667</ele><time>2026-04-04T14:41:22.033Z</time></trkpt><trkpt lat="40.740889" lon="14.8287501"><ele>665.3333333333334</ele><time>2026-04-04T14:41:23.033Z</time></trkpt><trkpt lat="40.740905" lon="14.8288401"><ele>666.0</ele><time>2026-04-04T14:41:23.966Z</time></trkpt><trkpt lat="40.7409457" lon="14.8289131"><ele>666.6666666666666</ele><time>2026-04-04T14:41:24.953Z</time></trkpt><trkpt lat="40.7409949" lon="14.8289913"><ele>667.3333333333333</ele><time>2026-04-04T14:41:25.981Z</time></trkpt><trkpt lat="40.7410494" lon="14.829046"><ele>668.0</ele><time>2026-04-04T14:41:27.028Z</time></trkpt><trkpt lat="40.7411213" lon="14.8290957"><ele>668.0</ele><time>2026-04-04T14:41:28.024Z</time></trkpt><trkpt lat="40.7411863" lon="14.8291531"><ele>668.0</ele><time>2026-04-04T14:41:28.961Z</time></trkpt><trkpt lat="40.7412167" lon="14.8292312"><ele>668.0</ele><time>2026-04-04T14:41:29.975Z</time></trkpt><trkpt lat="40.7412024" lon="14.829347"><ele>668.0</ele><time>2026-04-04T14:41:32.034Z</time></trkpt><trkpt lat="40.7411657" lon="14.8294249"><ele>668.0</ele><time>2026-04-04T14:41:33.044Z</time></trkpt><trkpt lat="40.7411163" lon="14.8294982"><ele>668.0</ele><time>2026-04-04T14:41:33.963Z</time></trkpt><trkpt lat="40.7410612" lon="14.8295804"><ele>657.8</ele><time>2026-04-04T14:41:34.966Z</time></trkpt><trkpt lat="40.7409937" lon="14.8296689"><ele>647.5999999999999</ele><time>2026-04-04T14:41:35.995Z</time></trkpt><trkpt lat="40.7409372" lon="14.8297418"><ele>637.4000000000001</ele><time>2026-04-04T14:41:37.044Z</time></trkpt><trkpt lat="40.7408801" lon="14.8298687"><ele>627.2</ele><time>2026-04-04T14:41:38.969Z</time></trkpt><trkpt lat="40.740875" lon="14.8299725"><ele>617.0</ele><time>2026-04-04T14:41:39.965Z</time></trkpt><trkpt lat="40.7408685" lon="14.8300969"><ele>614.0</ele><time>2026-04-04T14:41:40.987Z</time></trkpt><trkpt lat="40.740848" lon="14.8302366"><ele>611.0</ele><time>2026-04-04T14:41:42.025Z</time></trkpt><trkpt lat="40.7408228" lon="14.8303578"><ele>608.0</ele><time>2026-04-04T14:41:43.02Z</time></trkpt><trkpt lat="40.7407999" lon="14.8304627"><ele>605.0</ele><time>2026-04-04T14:41:43.966Z</time></trkpt><trkpt lat="40.7407868" lon="14.8305447"><ele>602.0</ele><time>2026-04-04T14:41:44.978Z</time></trkpt><trkpt lat="40.7408008" lon="14.8306702"><ele>599.0</ele><time>2026-04-04T14:41:46.969Z</time></trkpt><trkpt lat="40.7408813" lon="14.8307891"><ele>599.0</ele><time>2026-04-04T14:41:48.966Z</time></trkpt><trkpt lat="40.740944" lon="14.8308286"><ele>599.0</ele><time>2026-04-04T14:41:49.973Z</time></trkpt><trkpt lat="40.7410198" lon="14.8308593"><ele>599.0</ele><time>2026-04-04T14:41:50.978Z</time></trkpt><trkpt lat="40.7410791" lon="14.8308985"><ele>599.0</ele><time>2026-04-04T14:41:51.971Z</time></trkpt><trkpt lat="40.7411874" lon="14.8309178"><ele>599.0</ele><time>2026-04-04T14:41:53.963Z</time></trkpt><trkpt lat="40.7412557" lon="14.8308975"><ele>599.0</ele><time>2026-04-04T14:41:54.975Z</time></trkpt><trkpt lat="40.7413443" lon="14.8308767"><ele>600.5</ele><time>2026-04-04T14:41:56.967Z</time></trkpt><trkpt lat="40.7413984" lon="14.8308137"><ele>602.0</ele><time>2026-04-04T14:41:58.971Z</time></trkpt><trkpt lat="40.741349" lon="14.8309333"><ele>603.5</ele><time>2026-04-04T14:42:06.967Z</time></trkpt><trkpt lat="40.7413478" lon="14.8310194"><ele>605.0</ele><time>2026-04-04T14:42:07.976Z</time></trkpt><trkpt lat="40.741365" lon="14.8311037"><ele>606.5</ele><time>2026-04-04T14:42:08.972Z</time></trkpt><trkpt lat="40.7414071" lon="14.8312065"><ele>608.0</ele><time>2026-04-04T14:42:09.976Z</time></trkpt><trkpt lat="40.7414602" lon="14.8312826"><ele>608.0</ele><time>2026-04-04T14:42:11.973Z</time></trkpt><trkpt lat="40.741525" lon="14.8313115"><ele>608.0</ele><time>2026-04-04T14:42:16.967Z</time></trkpt><trkpt lat="40.7416282" lon="14.8312916"><ele>608.0</ele><time>2026-04-04T14:42:18.972Z</time></trkpt><trkpt lat="40.7416882" lon="14.8312471"><ele>608.0</ele><time>2026-04-04T14:42:19.97Z</time></trkpt><trkpt lat="40.7417485" lon="14.8312037"><ele>608.0</ele><time>2026-04-04T14:42:20.967Z</time></trkpt><trkpt lat="40.7418153" lon="14.8311492"><ele>608.0</ele><time>2026-04-04T14:42:21.966Z</time></trkpt><trkpt lat="40.7418885" lon="14.8310897"><ele>612.5</ele><time>2026-04-04T14:42:22.971Z</time></trkpt><trkpt lat="40.7419634" lon="14.8310257"><ele>617.0</ele><time>2026-04-04T14:42:23.966Z</time></trkpt><trkpt lat="40.7420315" lon="14.8309711"><ele>621.5</ele><time>2026-04-04T14:42:24.97Z</time></trkpt><trkpt lat="40.7421044" lon="14.8309339"><ele>626.0</ele><time>2026-04-04T14:42:27.972Z</time></trkpt><trkpt lat="40.7420725" lon="14.8310428"><ele>630.5</ele><time>2026-04-04T14:42:30.977Z</time></trkpt><trkpt lat="40.7420421" lon="14.831132"><ele>635.0</ele><time>2026-04-04T14:42:32.972Z</time></trkpt><trkpt lat="40.7420358" lon="14.8312307"><ele>635.0</ele><time>2026-04-04T14:42:33.981Z</time></trkpt><trkpt lat="40.7420734" lon="14.8313722"><ele>635.0</ele><time>2026-04-04T14:42:34.975Z</time></trkpt><trkpt lat="40.7421086" lon="14.831493"><ele>635.0</ele><time>2026-04-04T14:42:35.963Z</time></trkpt><trkpt lat="40.7421457" lon="14.8315934"><ele>635.0</ele><time>2026-04-04T14:42:36.964Z</time></trkpt><trkpt lat="40.7422059" lon="14.8316648"><ele>635.0</ele><time>2026-04-04T14:42:37.97Z</time></trkpt><trkpt lat="40.7422905" lon="14.8317171"><ele>634.9999999999999</ele><time>2026-04-04T14:42:38.964Z</time></trkpt><trkpt lat="40.7423586" lon="14.8317296"><ele>635.0</ele><time>2026-04-04T14:42:39.961Z</time></trkpt><trkpt lat="40.7424252" lon="14.8317173"><ele>635.0</ele><time>2026-04-04T14:42:40.973Z</time></trkpt><trkpt lat="40.7424956" lon="14.8317021"><ele>635.0</ele><time>2026-04-04T14:42:41.961Z</time></trkpt><trkpt lat="40.7425878" lon="14.8316886"><ele>635.0</ele><time>2026-04-04T14:42:43.963Z</time></trkpt><trkpt lat="40.7426504" lon="14.8317401"><ele>634.9999999999999</ele><time>2026-04-04T14:42:46.967Z</time></trkpt><trkpt lat="40.7426474" lon="14.8318332"><ele>635.0</ele><time>2026-04-04T14:42:48.963Z</time></trkpt><trkpt lat="40.7426762" lon="14.8319772"><ele>636.0</ele><time>2026-04-04T14:42:50.97Z</time></trkpt><trkpt lat="40.7426969" lon="14.8320767"><ele>637.0</ele><time>2026-04-04T14:42:51.968Z</time></trkpt><trkpt lat="40.7427246" lon="14.8321697"><ele>638.0</ele><time>2026-04-04T14:42:52.963Z</time></trkpt><trkpt lat="40.7427881" lon="14.8322396"><ele>639.0</ele><time>2026-04-04T14:42:53.974Z</time></trkpt><trkpt lat="40.7428592" lon="14.8322884"><ele>640.0</ele><time>2026-04-04T14:42:54.966Z</time></trkpt><trkpt lat="40.7429259" lon="14.8323178"><ele>641.0</ele><time>2026-04-04T14:42:55.966Z</time></trkpt><trkpt lat="40.7429916" lon="14.8323177"><ele>641.0</ele><time>2026-04-04T14:42:56.971Z</time></trkpt><trkpt lat="40.743058" lon="14.8323025"><ele>641.0</ele><time>2026-04-04T14:42:57.962Z</time></trkpt><trkpt lat="40.7431269" lon="14.8322951"><ele>641.0</ele><time>2026-04-04T14:42:58.967Z</time></trkpt><trkpt lat="40.7431899" lon="14.8322798"><ele>641.0</ele><time>2026-04-04T14:42:59.968Z</time></trkpt><trkpt lat="40.7432751" lon="14.8322776"><ele>641.0</ele><time>2026-04-04T14:43:01.969Z</time></trkpt><trkpt lat="40.743312" lon="14.832373"><ele>641.0</ele><time>2026-04-04T14:43:04.971Z</time></trkpt><trkpt lat="40.7433299" lon="14.8325018"><ele>641.0</ele><time>2026-04-04T14:43:06.963Z</time></trkpt><trkpt lat="40.743354" lon="14.8325919"><ele>641.0</ele><time>2026-04-04T14:43:07.971Z</time></trkpt><trkpt lat="40.743405" lon="14.8326923"><ele>641.0</ele><time>2026-04-04T14:43:08.963Z</time></trkpt><trkpt lat="40.7434697" lon="14.8327717"><ele>641.0</ele><time>2026-04-04T14:43:09.967Z</time></trkpt><trkpt lat="40.743536" lon="14.8328128"><ele>641.0</ele><time>2026-04-04T14:43:10.968Z</time></trkpt><trkpt lat="40.7436422" lon="14.8328376"><ele>641.0</ele><time>2026-04-04T14:43:12.968Z</time></trkpt><trkpt lat="40.7437229" lon="14.8327988"><ele>641.1666666666666</ele><time>2026-04-04T14:43:14.974Z</time></trkpt><trkpt lat="40.7437736" lon="14.8328882"><ele>641.3333333333333</ele><time>2026-04-04T14:43:18.97Z</time></trkpt><trkpt lat="40.7438065" lon="14.8329795"><ele>641.5</ele><time>2026-04-04T14:43:20.976Z</time></trkpt><trkpt lat="40.7438536" lon="14.8330686"><ele>641.6666666666666</ele><time>2026-04-04T14:43:22.967Z</time></trkpt><trkpt lat="40.7439196" lon="14.8331551"><ele>641.8333333333334</ele><time>2026-04-04T14:43:24.97Z</time></trkpt><trkpt lat="40.7440062" lon="14.8332387"><ele>642.0</ele><time>2026-04-04T14:43:26.967Z</time></trkpt><trkpt lat="40.7440728" lon="14.8332581"><ele>642.0</ele><time>2026-04-04T14:43:27.949Z</time></trkpt><trkpt lat="40.7441765" lon="14.8332667"><ele>642.0</ele><time>2026-04-04T14:43:28.967Z</time></trkpt><trkpt lat="40.7442781" lon="14.833239"><ele>642.0</ele><time>2026-04-04T14:43:29.962Z</time></trkpt><trkpt lat="40.7443889" lon="14.8332018"><ele>642.0</ele><time>2026-04-04T14:43:30.963Z</time></trkpt><trkpt lat="40.7444907" lon="14.8331502"><ele>642.0</ele><time>2026-04-04T14:43:31.966Z</time></trkpt><trkpt lat="40.7445774" lon="14.8331152"><ele>645.6666666666666</ele><time>2026-04-04T14:43:32.965Z</time></trkpt><trkpt lat="40.7446574" lon="14.8330965"><ele>649.3333333333334</ele><time>2026-04-04T14:43:33.959Z</time></trkpt><trkpt lat="40.7447294" lon="14.8330825"><ele>653.0</ele><time>2026-04-04T14:43:34.954Z</time></trkpt><trkpt lat="40.7448015" lon="14.8330688"><ele>656.6666666666667</ele><time>2026-04-04T14:43:35.96Z</time></trkpt><trkpt lat="40.744866" lon="14.8331256"><ele>660.3333333333334</ele><time>2026-04-04T14:43:38.979Z</time></trkpt><trkpt lat="40.7448753" lon="14.8332587"><ele>664.0</ele><time>2026-04-04T14:43:41.022Z</time></trkpt><trkpt lat="40.7448813" lon="14.8333441"><ele>664.0</ele><time>2026-04-04T14:43:42.039Z</time></trkpt><trkpt lat="40.7448958" lon="14.8334522"><ele>664.0</ele><time>2026-04-04T14:43:42.996Z</time></trkpt><trkpt lat="40.7449215" lon="14.8335835"><ele>664.0</ele><time>2026-04-04T14:43:43.998Z</time></trkpt><trkpt lat="40.744961" lon="14.8336931"><ele>664.0</ele><time>2026-04-04T14:43:44.966Z</time></trkpt><trkpt lat="40.7450118" lon="14.8338006"><ele>664.0</ele><time>2026-04-04T14:43:45.967Z</time></trkpt><trkpt lat="40.7450903" lon="14.8338903"><ele>665.2</ele><time>2026-04-04T14:43:47.971Z</time></trkpt><trkpt lat="40.7452146" lon="14.8339245"><ele>666.4000000000001</ele><time>2026-04-04T14:43:49.949Z</time></trkpt><trkpt lat="40.7453076" lon="14.8339453"><ele>667.6</ele><time>2026-04-04T14:43:50.996Z</time></trkpt><trkpt lat="40.7454114" lon="14.8339441"><ele>668.8</ele><time>2026-04-04T14:43:51.966Z</time></trkpt><trkpt lat="40.7455059" lon="14.8339144"><ele>670.0</ele><time>2026-04-04T14:43:52.961Z</time></trkpt><trkpt lat="40.7455835" lon="14.8338798"><ele>670.0</ele><time>2026-04-04T14:43:53.972Z</time></trkpt><trkpt lat="40.7456579" lon="14.833836"><ele>670.0</ele><time>2026-04-04T14:43:54.963Z</time></trkpt><trkpt lat="40.7457168" lon="14.833792"><ele>670.0</ele><time>2026-04-04T14:43:55.971Z</time></trkpt><trkpt lat="40.7457801" lon="14.8337218"><ele>670.0</ele><time>2026-04-04T14:43:57.961Z</time></trkpt><trkpt lat="40.7458092" lon="14.8338098"><ele>670.0</ele><time>2026-04-04T14:44:00.967Z</time></trkpt><trkpt lat="40.7458245" lon="14.8339085"><ele>670.0</ele><time>2026-04-04T14:44:02.972Z</time></trkpt><trkpt lat="40.7458419" lon="14.8340355"><ele>670.0</ele><time>2026-04-04T14:44:04.974Z</time></trkpt><trkpt lat="40.7459163" lon="14.8342092"><ele>670.0</ele><time>2026-04-04T14:44:07.052Z</time></trkpt><trkpt lat="40.7459851" lon="14.8342899"><ele>670.0</ele><time>2026-04-04T14:44:07.965Z</time></trkpt><trkpt lat="40.7460521" lon="14.8343477"><ele>670.0</ele><time>2026-04-04T14:44:08.97Z</time></trkpt><trkpt lat="40.7461192" lon="14.8343939"><ele>670.0</ele><time>2026-04-04T14:44:09.961Z</time></trkpt><trkpt lat="40.7462444" lon="14.8344183"><ele>670.1666666666667</ele><time>2026-04-04T14:44:11.979Z</time></trkpt><trkpt lat="40.7463503" lon="14.8344605"><ele>670.3333333333334</ele><time>2026-04-04T14:44:13.974Z</time></trkpt><trkpt lat="40.7463875" lon="14.834533"><ele>670.5</ele><time>2026-04-04T14:44:14.963Z</time></trkpt><trkpt lat="40.7464152" lon="14.834614"><ele>670.6666666666666</ele><time>2026-04-04T14:44:16.064Z</time></trkpt><trkpt lat="40.7464602" lon="14.8347006"><ele>670.8333333333333</ele><time>2026-04-04T14:44:17.041Z</time></trkpt><trkpt lat="40.7465125" lon="14.8347835"><ele>671.0</ele><time>2026-04-04T14:44:18.03Z</time></trkpt><trkpt lat="40.746576" lon="14.8348574"><ele>671.0</ele><time>2026-04-04T14:44:18.982Z</time></trkpt><trkpt lat="40.7466281" lon="14.834919"><ele>671.0</ele><time>2026-04-04T14:44:19.98Z</time></trkpt><trkpt lat="40.7466943" lon="14.83497"><ele>671.0</ele><time>2026-04-04T14:44:20.981Z</time></trkpt><trkpt lat="40.7467741" lon="14.8349982"><ele>671.0</ele><time>2026-04-04T14:44:22.023Z</time></trkpt><trkpt lat="40.7468534" lon="14.8350091"><ele>671.0</ele><time>2026-04-04T14:44:23.054Z</time></trkpt><trkpt lat="40.7469719" lon="14.8350142"><ele>671.0</ele><time>2026-04-04T14:44:24.967Z</time></trkpt><trkpt lat="40.7470523" lon="14.8349946"><ele>671.4</ele><time>2026-04-04T14:44:25.997Z</time></trkpt><trkpt lat="40.7471434" lon="14.8349534"><ele>671.8</ele><time>2026-04-04T14:44:27.039Z</time></trkpt><trkpt lat="40.7472353" lon="14.8348944"><ele>672.1999999999999</ele><time>2026-04-04T14:44:28.03Z</time></trkpt><trkpt lat="40.7473082" lon="14.8348039"><ele>672.5999999999999</ele><time>2026-04-04T14:44:28.965Z</time></trkpt><trkpt lat="40.7473695" lon="14.8346909"><ele>673.0</ele><time>2026-04-04T14:44:29.968Z</time></trkpt><trkpt lat="40.7474076" lon="14.8345843"><ele>673.0</ele><time>2026-04-04T14:44:31.068Z</time></trkpt><trkpt lat="40.7474469" lon="14.8344835"><ele>673.0</ele><time>2026-04-04T14:44:32.028Z</time></trkpt><trkpt lat="40.7474904" lon="14.8343846"><ele>673.0</ele><time>2026-04-04T14:44:33.029Z</time></trkpt><trkpt lat="40.747532" lon="14.8342776"><ele>673.0</ele><time>2026-04-04T14:44:33.965Z</time></trkpt><trkpt lat="40.7475584" lon="14.8341828"><ele>673.0</ele><time>2026-04-04T14:44:34.972Z</time></trkpt><trkpt lat="40.7475726" lon="14.8340763"><ele>673.0</ele><time>2026-04-04T14:44:36.066Z</time></trkpt><trkpt lat="40.7475876" lon="14.8339674"><ele>677.6666666666667</ele><time>2026-04-04T14:44:37.03Z</time></trkpt><trkpt lat="40.7475973" lon="14.8338601"><ele>682.3333333333334</ele><time>2026-04-04T14:44:38.019Z</time></trkpt><trkpt lat="40.7475976" lon="14.8337528"><ele>687.0</ele><time>2026-04-04T14:44:38.96Z</time></trkpt><trkpt lat="40.7475933" lon="14.8336516"><ele>691.6666666666666</ele><time>2026-04-04T14:44:39.963Z</time></trkpt><trkpt lat="40.7475973" lon="14.8335585"><ele>696.3333333333333</ele><time>2026-04-04T14:44:40.96Z</time></trkpt><trkpt lat="40.7476074" lon="14.8334572"><ele>701.0</ele><time>2026-04-04T14:44:41.963Z</time></trkpt><trkpt lat="40.7476261" lon="14.8333437"><ele>704.4</ele><time>2026-04-04T14:44:42.969Z</time></trkpt><trkpt lat="40.7476515" lon="14.8332164"><ele>707.8</ele><time>2026-04-04T14:44:43.961Z</time></trkpt><trkpt lat="40.7476719" lon="14.8330845"><ele>711.1999999999999</ele><time>2026-04-04T14:44:44.959Z</time></trkpt><trkpt lat="40.7476814" lon="14.8329622"><ele>714.5999999999999</ele><time>2026-04-04T14:44:45.992Z</time></trkpt><trkpt lat="40.7476862" lon="14.8328351"><ele>718.0</ele><time>2026-04-04T14:44:46.972Z</time></trkpt><trkpt lat="40.7476871" lon="14.8327096"><ele>717.5999999999999</ele><time>2026-04-04T14:44:47.962Z</time></trkpt><trkpt lat="40.7476929" lon="14.8325831"><ele>717.1999999999999</ele><time>2026-04-04T14:44:48.964Z</time></trkpt><trkpt lat="40.7477009" lon="14.8324652"><ele>716.8</ele><time>2026-04-04T14:44:49.966Z</time></trkpt><trkpt lat="40.7477161" lon="14.8323398"><ele>716.4</ele><time>2026-04-04T14:44:50.963Z</time></trkpt><trkpt lat="40.7477428" lon="14.8322242"><ele>716.0</ele><time>2026-04-04T14:44:51.964Z</time></trkpt><trkpt lat="40.7477622" lon="14.8321067"><ele>716.0</ele><time>2026-04-04T14:44:52.965Z</time></trkpt><trkpt lat="40.7477687" lon="14.8319889"><ele>716.0</ele><time>2026-04-04T14:44:53.968Z</time></trkpt><trkpt lat="40.7477668" lon="14.831878"><ele>716.0</ele><time>2026-04-04T14:44:55.043Z</time></trkpt><trkpt lat="40.7477781" lon="14.8317691"><ele>716.0</ele><time>2026-04-04T14:44:56.027Z</time></trkpt><trkpt lat="40.7477915" lon="14.8316845"><ele>716.0</ele><time>2026-04-04T14:44:57.023Z</time></trkpt><trkpt lat="40.7478516" lon="14.831642"><ele>716.0</ele><time>2026-04-04T14:45:00.966Z</time></trkpt><trkpt lat="40.7479304" lon="14.8316789"><ele>716.0</ele><time>2026-04-04T14:45:02.967Z</time></trkpt><trkpt lat="40.7480296" lon="14.8317514"><ele>716.0</ele><time>2026-04-04T14:45:04.944Z</time></trkpt><trkpt lat="40.7481028" lon="14.8318052"><ele>716.0</ele><time>2026-04-04T14:45:05.962Z</time></trkpt><trkpt lat="40.7481839" lon="14.8318351"><ele>716.0</ele><time>2026-04-04T14:45:06.975Z</time></trkpt><trkpt lat="40.7482955" lon="14.8318511"><ele>716.0</ele><time>2026-04-04T14:45:07.961Z</time></trkpt><trkpt lat="40.7483913" lon="14.8318704"><ele>716.0</ele><time>2026-04-04T14:45:08.953Z</time></trkpt><trkpt lat="40.7484714" lon="14.8318974"><ele>716.0</ele><time>2026-04-04T14:45:09.957Z</time></trkpt><trkpt lat="40.7485666" lon="14.8319297"><ele>716.0</ele><time>2026-04-04T14:45:10.978Z</time></trkpt><trkpt lat="40.7486542" lon="14.8319419"><ele>716.0</ele><time>2026-04-04T14:45:11.96Z</time></trkpt><trkpt lat="40.7487562" lon="14.8319622"><ele>716.0</ele><time>2026-04-04T14:45:12.964Z</time></trkpt><trkpt lat="40.7488435" lon="14.8319928"><ele>719.6666666666666</ele><time>2026-04-04T14:45:13.966Z</time></trkpt><trkpt lat="40.7489185" lon="14.8320492"><ele>723.3333333333333</ele><time>2026-04-04T14:45:14.963Z</time></trkpt><trkpt lat="40.7489856" lon="14.8321163"><ele>727.0</ele><time>2026-04-04T14:45:15.966Z</time></trkpt><trkpt lat="40.7490632" lon="14.8321705"><ele>730.6666666666666</ele><time>2026-04-04T14:45:17.045Z</time></trkpt><trkpt lat="40.7491363" lon="14.8322193"><ele>734.3333333333334</ele><time>2026-04-04T14:45:18.039Z</time></trkpt><trkpt lat="40.7491971" lon="14.8322585"><ele>738.0</ele><time>2026-04-04T14:45:18.971Z</time></trkpt><trkpt lat="40.7492729" lon="14.8323224"><ele>738.0</ele><time>2026-04-04T14:45:20.973Z</time></trkpt><trkpt lat="40.7493447" lon="14.8323408"><ele>738.0</ele><time>2026-04-04T14:45:22.975Z</time></trkpt><trkpt lat="40.7493447" lon="14.8322168"><ele>738.0</ele><time>2026-04-04T14:45:26.04Z</time></trkpt><trkpt lat="40.7493162" lon="14.8321133"><ele>738.0</ele><time>2026-04-04T14:45:27.041Z</time></trkpt><trkpt lat="40.7492778" lon="14.8320121"><ele>738.0</ele><time>2026-04-04T14:45:28.023Z</time></trkpt><trkpt lat="40.7492334" lon="14.8319217"><ele>738.0</ele><time>2026-04-04T14:45:28.974Z</time></trkpt><trkpt lat="40.7491966" lon="14.8318507"><ele>741.4</ele><time>2026-04-04T14:45:29.97Z</time></trkpt><trkpt lat="40.7491378" lon="14.8317479"><ele>744.8</ele><time>2026-04-04T14:45:31.969Z</time></trkpt><trkpt lat="40.7490794" lon="14.8316808"><ele>748.2</ele><time>2026-04-04T14:45:33.968Z</time></trkpt><trkpt lat="40.7489564" lon="14.8316202"><ele>751.6</ele><time>2026-04-04T14:45:35.99Z</time></trkpt><trkpt lat="40.7488656" lon="14.8315867"><ele>755.0</ele><time>2026-04-04T14:45:36.967Z</time></trkpt><trkpt lat="40.7487673" lon="14.8315726"><ele>755.0</ele><time>2026-04-04T14:45:37.961Z</time></trkpt><trkpt lat="40.7486643" lon="14.8315523"><ele>755.0</ele><time>2026-04-04T14:45:38.949Z</time></trkpt><trkpt lat="40.7485782" lon="14.8315082"><ele>755.0</ele><time>2026-04-04T14:45:39.964Z</time></trkpt><trkpt lat="40.7485006" lon="14.8314589"><ele>755.0</ele><time>2026-04-04T14:45:40.966Z</time></trkpt><trkpt lat="40.7484014" lon="14.8313962"><ele>755.0</ele><time>2026-04-04T14:45:41.967Z</time></trkpt><trkpt lat="40.7482947" lon="14.8313359"><ele>752.25</ele><time>2026-04-04T14:45:42.957Z</time></trkpt><trkpt lat="40.7481867" lon="14.8312717"><ele>749.5</ele><time>2026-04-04T14:45:43.959Z</time></trkpt><trkpt lat="40.7480768" lon="14.8312043"><ele>746.75</ele><time>2026-04-04T14:45:44.963Z</time></trkpt><trkpt lat="40.7479593" lon="14.8311354"><ele>744.0</ele><time>2026-04-04T14:45:45.975Z</time></trkpt><trkpt lat="40.7478485" lon="14.8310703"><ele>744.0</ele><time>2026-04-04T14:45:46.961Z</time></trkpt><trkpt lat="40.7477476" lon="14.8310158"><ele>744.0</ele><time>2026-04-04T14:45:47.967Z</time></trkpt><trkpt lat="40.747669" lon="14.8309697"><ele>744.0</ele><time>2026-04-04T14:45:48.968Z</time></trkpt><trkpt lat="40.7476074" lon="14.8309241"><ele>744.0</ele><time>2026-04-04T14:45:50.968Z</time></trkpt><trkpt lat="40.747558" lon="14.8309855"><ele>744.0</ele><time>2026-04-04T14:45:54.972Z</time></trkpt><trkpt lat="40.7475703" lon="14.8310959"><ele>744.0</ele><time>2026-04-04T14:45:55.963Z</time></trkpt><trkpt lat="40.747575" lon="14.8311885"><ele>745.4000000000001</ele><time>2026-04-04T14:45:56.958Z</time></trkpt><trkpt lat="40.7475905" lon="14.8312858"><ele>746.8</ele><time>2026-04-04T14:45:57.959Z</time></trkpt><trkpt lat="40.7476006" lon="14.8314206"><ele>748.2</ele><time>2026-04-04T14:45:58.971Z</time></trkpt><trkpt lat="40.7476094" lon="14.8315563"><ele>749.5999999999999</ele><time>2026-04-04T14:45:59.96Z</time></trkpt><trkpt lat="40.7476297" lon="14.8316948"><ele>751.0</ele><time>2026-04-04T14:46:00.963Z</time></trkpt><trkpt lat="40.7476489" lon="14.8318255"><ele>748.2857142857143</ele><time>2026-04-04T14:46:01.972Z</time></trkpt><trkpt lat="40.7476412" lon="14.8319435"><ele>745.5714285714286</ele><time>2026-04-04T14:46:02.959Z</time></trkpt><trkpt lat="40.7475939" lon="14.832028"><ele>742.8571428571429</ele><time>2026-04-04T14:46:03.974Z</time></trkpt><trkpt lat="40.7475385" lon="14.8320857"><ele>740.1428571428571</ele><time>2026-04-04T14:46:04.974Z</time></trkpt><trkpt lat="40.7474797" lon="14.8321235"><ele>737.4285714285714</ele><time>2026-04-04T14:46:05.979Z</time></trkpt><trkpt lat="40.7474142" lon="14.8321437"><ele>734.7142857142858</ele><time>2026-04-04T14:46:06.968Z</time></trkpt><trkpt lat="40.7473437" lon="14.8321662"><ele>732.0</ele><time>2026-04-04T14:46:07.966Z</time></trkpt><trkpt lat="40.7472253" lon="14.8321785"><ele>732.0</ele><time>2026-04-04T14:46:09.973Z</time></trkpt><trkpt lat="40.74713" lon="14.8321462"><ele>732.0</ele><time>2026-04-04T14:46:10.975Z</time></trkpt><trkpt lat="40.7469961" lon="14.8320922"><ele>732.0</ele><time>2026-04-04T14:46:11.972Z</time></trkpt><trkpt lat="40.7467769" lon="14.8320326"><ele>736.0</ele><time>2026-04-04T14:46:12.963Z</time></trkpt><trkpt lat="40.7466012" lon="14.8320249"><ele>740.0</ele><time>2026-04-04T14:46:13.963Z</time></trkpt><trkpt lat="40.7465074" lon="14.8320019"><ele>744.0</ele><time>2026-04-04T14:46:15.954Z</time></trkpt><trkpt lat="40.7464394" lon="14.8319777"><ele>748.0</ele><time>2026-04-04T14:46:34.976Z</time></trkpt><trkpt lat="40.7463463" lon="14.8319528"><ele>752.0</ele><time>2026-04-04T14:46:36.97Z</time></trkpt><trkpt lat="40.7462753" lon="14.8319216"><ele>752.0</ele><time>2026-04-04T14:46:37.978Z</time></trkpt><trkpt lat="40.7461952" lon="14.8318925"><ele>752.0</ele><time>2026-04-04T14:46:38.978Z</time></trkpt><trkpt lat="40.7461087" lon="14.8318477"><ele>752.0</ele><time>2026-04-04T14:46:39.958Z</time></trkpt><trkpt lat="40.7460266" lon="14.8317618"><ele>752.0</ele><time>2026-04-04T14:46:40.956Z</time></trkpt><trkpt lat="40.7459581" lon="14.831661"><ele>752.0</ele><time>2026-04-04T14:46:42.022Z</time></trkpt><trkpt lat="40.7459077" lon="14.8315334"><ele>754.5</ele><time>2026-04-04T14:46:43.045Z</time></trkpt><trkpt lat="40.7458627" lon="14.8314247"><ele>757.0</ele><time>2026-04-04T14:46:43.966Z</time></trkpt><trkpt lat="40.7458152" lon="14.8313577"><ele>759.5</ele><time>2026-04-04T14:46:44.973Z</time></trkpt><trkpt lat="40.7457629" lon="14.8312952"><ele>762.0</ele><time>2026-04-04T14:46:45.95Z</time></trkpt><trkpt lat="40.7456502" lon="14.831279"><ele>764.5</ele><time>2026-04-04T14:46:47.963Z</time></trkpt><trkpt lat="40.7455753" lon="14.8312692"><ele>767.0</ele><time>2026-04-04T14:46:48.972Z</time></trkpt><trkpt lat="40.7454842" lon="14.8312447"><ele>767.0</ele><time>2026-04-04T14:46:49.964Z</time></trkpt><trkpt lat="40.7453808" lon="14.8312203"><ele>767.0</ele><time>2026-04-04T14:46:50.963Z</time></trkpt><trkpt lat="40.7452891" lon="14.8311805"><ele>767.0</ele><time>2026-04-04T14:46:52.067Z</time></trkpt><trkpt lat="40.7452073" lon="14.8311077"><ele>767.0</ele><time>2026-04-04T14:46:53.02Z</time></trkpt><trkpt lat="40.7451147" lon="14.8310059"><ele>767.0</ele><time>2026-04-04T14:46:53.964Z</time></trkpt><trkpt lat="40.7450205" lon="14.8308764"><ele>769.6666666666666</ele><time>2026-04-04T14:46:54.968Z</time></trkpt><trkpt lat="40.7449043" lon="14.8307219"><ele>772.3333333333333</ele><time>2026-04-04T14:46:56.068Z</time></trkpt><trkpt lat="40.7447822" lon="14.830564"><ele>775.0</ele><time>2026-04-04T14:46:57.034Z</time></trkpt><trkpt lat="40.7446776" lon="14.8304265"><ele>775.0</ele><time>2026-04-04T14:46:57.995Z</time></trkpt><trkpt lat="40.7445731" lon="14.8303271"><ele>775.0</ele><time>2026-04-04T14:46:58.968Z</time></trkpt><trkpt lat="40.7444651" lon="14.8302439"><ele>775.0</ele><time>2026-04-04T14:46:59.968Z</time></trkpt><trkpt lat="40.7443715" lon="14.8301556"><ele>775.0</ele><time>2026-04-04T14:47:00.968Z</time></trkpt><trkpt lat="40.7442833" lon="14.8300473"><ele>770.6666666666666</ele><time>2026-04-04T14:47:01.966Z</time></trkpt><trkpt lat="40.744204" lon="14.8299085"><ele>766.3333333333333</ele><time>2026-04-04T14:47:03.056Z</time></trkpt><trkpt lat="40.7441403" lon="14.8297286"><ele>762.0</ele><time>2026-04-04T14:47:03.968Z</time></trkpt><trkpt lat="40.7440544" lon="14.8295124"><ele>764.3333333333333</ele><time>2026-04-04T14:47:04.969Z</time></trkpt><trkpt lat="40.7439583" lon="14.8292946"><ele>766.6666666666666</ele><time>2026-04-04T14:47:06.003Z</time></trkpt><trkpt lat="40.7438639" lon="14.8291149"><ele>769.0</ele><time>2026-04-04T14:47:06.98Z</time></trkpt><trkpt lat="40.7437914" lon="14.8289825"><ele>769.0</ele><time>2026-04-04T14:47:07.96Z</time></trkpt><trkpt lat="40.7437365" lon="14.8288922"><ele>769.0</ele><time>2026-04-04T14:47:08.981Z</time></trkpt><trkpt lat="40.7437605" lon="14.8287852"><ele>769.0</ele><time>2026-04-04T14:47:10.971Z</time></trkpt><trkpt lat="40.7438709" lon="14.8287945"><ele>769.0</ele><time>2026-04-04T14:47:12.968Z</time></trkpt><trkpt lat="40.7439515" lon="14.8288759"><ele>769.0</ele><time>2026-04-04T14:47:14.981Z</time></trkpt><trkpt lat="40.744111" lon="14.8288409"><ele>769.0</ele><time>2026-04-04T14:47:16.95Z</time></trkpt><trkpt lat="40.7442224" lon="14.828803"><ele>769.0</ele><time>2026-04-04T14:47:17.965Z</time></trkpt><trkpt lat="40.7443335" lon="14.8287588"><ele>769.0</ele><time>2026-04-04T14:47:18.967Z</time></trkpt><trkpt lat="40.7444416" lon="14.8287168"><ele>769.0</ele><time>2026-04-04T14:47:19.975Z</time></trkpt><trkpt lat="40.7445461" lon="14.828673"><ele>770.5</ele><time>2026-04-04T14:47:20.964Z</time></trkpt><trkpt lat="40.7446536" lon="14.8286455"><ele>772.0</ele><time>2026-04-04T14:47:21.97Z</time></trkpt><trkpt lat="40.744777" lon="14.8286511"><ele>773.5</ele><time>2026-04-04T14:47:22.948Z</time></trkpt><trkpt lat="40.7449005" lon="14.8286608"><ele>775.0</ele><time>2026-04-04T14:47:23.952Z</time></trkpt><trkpt lat="40.7450173" lon="14.8286747"><ele>774.9999999999999</ele><time>2026-04-04T14:47:24.96Z</time></trkpt><trkpt lat="40.7451375" lon="14.828678"><ele>775.0</ele><time>2026-04-04T14:47:25.97Z</time></trkpt><trkpt lat="40.7452315" lon="14.8287028"><ele>775.0</ele><time>2026-04-04T14:47:26.968Z</time></trkpt><trkpt lat="40.7452977" lon="14.8287421"><ele>775.0</ele><time>2026-04-04T14:47:27.976Z</time></trkpt><trkpt lat="40.7453693" lon="14.8287497"><ele>774.9999999999999</ele><time>2026-04-04T14:47:28.966Z</time></trkpt><trkpt lat="40.7454038" lon="14.8286739"><ele>775.0</ele><time>2026-04-04T14:47:30.973Z</time></trkpt><trkpt lat="40.7454279" lon="14.8285293"><ele>771.75</ele><time>2026-04-04T14:47:33.023Z</time></trkpt><trkpt lat="40.745469" lon="14.8284033"><ele>768.5</ele><time>2026-04-04T14:47:34.972Z</time></trkpt><trkpt lat="40.7455786" lon="14.8283373"><ele>765.25</ele><time>2026-04-04T14:47:36.96Z</time></trkpt><trkpt lat="40.7456874" lon="14.828276"><ele>762.0</ele><time>2026-04-04T14:47:38.972Z</time></trkpt><trkpt lat="40.745778" lon="14.8281537"><ele>762.0</ele><time>2026-04-04T14:47:40.945Z</time></trkpt><trkpt lat="40.7458131" lon="14.8280586"><ele>762.0</ele><time>2026-04-04T14:47:41.961Z</time></trkpt><trkpt lat="40.7458468" lon="14.8279851"><ele>762.0</ele><time>2026-04-04T14:47:42.966Z</time></trkpt><trkpt lat="40.7459103" lon="14.8279175"><ele>762.0</ele><time>2026-04-04T14:47:43.979Z</time></trkpt><trkpt lat="40.745984" lon="14.8278092"><ele>762.0</ele><time>2026-04-04T14:47:44.986Z</time></trkpt><trkpt lat="40.7461281" lon="14.8275827"><ele>756.4000000000001</ele><time>2026-04-04T14:47:45.987Z</time></trkpt><trkpt lat="40.7461944" lon="14.8274378"><ele>750.8000000000001</ele><time>2026-04-04T14:47:46.963Z</time></trkpt><trkpt lat="40.7462346" lon="14.827313"><ele>745.2</ele><time>2026-04-04T14:47:47.944Z</time></trkpt><trkpt lat="40.7462696" lon="14.8271898"><ele>739.6</ele><time>2026-04-04T14:47:48.97Z</time></trkpt><trkpt lat="40.7462941" lon="14.8270613"><ele>734.0</ele><time>2026-04-04T14:47:49.965Z</time></trkpt><trkpt lat="40.7462984" lon="14.8269338"><ele>734.0</ele><time>2026-04-04T14:47:50.978Z</time></trkpt><trkpt lat="40.7462981" lon="14.8268152"><ele>734.0</ele><time>2026-04-04T14:47:52.055Z</time></trkpt><trkpt lat="40.7462991" lon="14.8266983"><ele>734.0</ele><time>2026-04-04T14:47:52.97Z</time></trkpt><trkpt lat="40.7462944" lon="14.8266093"><ele>734.0</ele><time>2026-04-04T14:47:53.97Z</time></trkpt><trkpt lat="40.7462754" lon="14.8265242"><ele>734.0</ele><time>2026-04-04T14:47:55.984Z</time></trkpt><trkpt lat="40.746222" lon="14.8265847"><ele>734.0</ele><time>2026-04-04T14:47:58.978Z</time></trkpt><trkpt lat="40.7461793" lon="14.8267075"><ele>734.0</ele><time>2026-04-04T14:48:01.085Z</time></trkpt><trkpt lat="40.7461184" lon="14.8268764"><ele>734.0</ele><time>2026-04-04T14:48:03.03Z</time></trkpt><trkpt lat="40.7460928" lon="14.826955"><ele>734.0</ele><time>2026-04-04T14:48:03.966Z</time></trkpt><trkpt lat="40.7460062" lon="14.8270536"><ele>734.0</ele><time>2026-04-04T14:48:05.964Z</time></trkpt><trkpt lat="40.745926" lon="14.8270599"><ele>734.0</ele><time>2026-04-04T14:48:06.97Z</time></trkpt><trkpt lat="40.7458239" lon="14.8270993"><ele>734.2</ele><time>2026-04-04T14:48:08.97Z</time></trkpt><trkpt lat="40.7457415" lon="14.8271783"><ele>734.4000000000001</ele><time>2026-04-04T14:48:10.964Z</time></trkpt><trkpt lat="40.7456676" lon="14.8272845"><ele>734.6</ele><time>2026-04-04T14:48:13.017Z</time></trkpt><trkpt lat="40.7455441" lon="14.8273371"><ele>734.8</ele><time>2026-04-04T14:48:14.973Z</time></trkpt><trkpt lat="40.7454703" lon="14.8273368"><ele>735.0</ele><time>2026-04-04T14:48:15.959Z</time></trkpt><trkpt lat="40.7453877" lon="14.8273338"><ele>735.0</ele><time>2026-04-04T14:48:17.972Z</time></trkpt><trkpt lat="40.7453006" lon="14.8273339"><ele>735.0</ele><time>2026-04-04T14:48:19.977Z</time></trkpt><trkpt lat="40.7452045" lon="14.8273728"><ele>735.0</ele><time>2026-04-04T14:48:21.957Z</time></trkpt><trkpt lat="40.7451198" lon="14.8274585"><ele>735.0</ele><time>2026-04-04T14:48:23.988Z</time></trkpt><trkpt lat="40.7450726" lon="14.8275181"><ele>735.0</ele><time>2026-04-04T14:48:24.972Z</time></trkpt><trkpt lat="40.7450165" lon="14.8276269"><ele>734.8333333333334</ele><time>2026-04-04T14:48:26.974Z</time></trkpt><trkpt lat="40.7449525" lon="14.8276957"><ele>734.6666666666666</ele><time>2026-04-04T14:48:29.966Z</time></trkpt><trkpt lat="40.7448711" lon="14.8276663"><ele>734.5</ele><time>2026-04-04T14:48:32.042Z</time></trkpt><trkpt lat="40.7448069" lon="14.8276298"><ele>734.3333333333333</ele><time>2026-04-04T14:48:33.025Z</time></trkpt><trkpt lat="40.7447194" lon="14.8275913"><ele>734.1666666666666</ele><time>2026-04-04T14:48:33.971Z</time></trkpt><trkpt lat="40.7446405" lon="14.8275544"><ele>734.0</ele><time>2026-04-04T14:48:34.968Z</time></trkpt><trkpt lat="40.7445572" lon="14.8275129"><ele>727.25</ele><time>2026-04-04T14:48:35.967Z</time></trkpt><trkpt lat="40.7444623" lon="14.8274679"><ele>720.5</ele><time>2026-04-04T14:48:36.968Z</time></trkpt><trkpt lat="40.7443494" lon="14.8274123"><ele>713.75</ele><time>2026-04-04T14:48:37.972Z</time></trkpt><trkpt lat="40.7442353" lon="14.8273764"><ele>707.0</ele><time>2026-04-04T14:48:38.969Z</time></trkpt><trkpt lat="40.7441113" lon="14.8273589"><ele>704.5</ele><time>2026-04-04T14:48:40.032Z</time></trkpt><trkpt lat="40.7439835" lon="14.8273387"><ele>702.0</ele><time>2026-04-04T14:48:41.023Z</time></trkpt><trkpt lat="40.743848" lon="14.8273125"><ele>699.5</ele><time>2026-04-04T14:48:42.02Z</time></trkpt><trkpt lat="40.7437105" lon="14.8272775"><ele>697.0</ele><time>2026-04-04T14:48:42.969Z</time></trkpt><trkpt lat="40.7435691" lon="14.8272506"><ele>699.75</ele><time>2026-04-04T14:48:43.974Z</time></trkpt><trkpt lat="40.7434311" lon="14.8272303"><ele>702.5</ele><time>2026-04-04T14:48:44.966Z</time></trkpt><trkpt lat="40.7433133" lon="14.827233"><ele>705.25</ele><time>2026-04-04T14:48:45.97Z</time></trkpt><trkpt lat="40.7432083" lon="14.8272589"><ele>708.0</ele><time>2026-04-04T14:48:46.968Z</time></trkpt><trkpt lat="40.7430994" lon="14.8273035"><ele>708.0</ele><time>2026-04-04T14:48:48.041Z</time></trkpt><trkpt lat="40.742994" lon="14.8273529"><ele>708.0</ele><time>2026-04-04T14:48:48.961Z</time></trkpt><trkpt lat="40.7428958" lon="14.827395"><ele>708.0</ele><time>2026-04-04T14:48:49.966Z</time></trkpt><trkpt lat="40.7427845" lon="14.8274046"><ele>708.0</ele><time>2026-04-04T14:48:50.988Z</time></trkpt><trkpt lat="40.7426713" lon="14.827391"><ele>708.0</ele><time>2026-04-04T14:48:52.031Z</time></trkpt><trkpt lat="40.7425646" lon="14.8273917"><ele>706.4</ele><time>2026-04-04T14:48:53.031Z</time></trkpt><trkpt lat="40.7424652" lon="14.8274257"><ele>704.8</ele><time>2026-04-04T14:48:53.962Z</time></trkpt><trkpt lat="40.7423715" lon="14.8274899"><ele>703.2</ele><time>2026-04-04T14:48:54.983Z</time></trkpt><trkpt lat="40.7422665" lon="14.8275362"><ele>701.6</ele><time>2026-04-04T14:48:55.993Z</time></trkpt><trkpt lat="40.7421731" lon="14.8275746"><ele>700.0</ele><time>2026-04-04T14:48:57.047Z</time></trkpt><trkpt lat="40.7420644" lon="14.8276107"><ele>700.0</ele><time>2026-04-04T14:48:58.022Z</time></trkpt><trkpt lat="40.7419291" lon="14.8276218"><ele>700.0</ele><time>2026-04-04T14:48:58.972Z</time></trkpt><trkpt lat="40.7417673" lon="14.8276365"><ele>700.0</ele><time>2026-04-04T14:48:59.973Z</time></trkpt><trkpt lat="40.7416338" lon="14.827656"><ele>700.0</ele><time>2026-04-04T14:49:00.979Z</time></trkpt><trkpt lat="40.7415007" lon="14.8276575"><ele>695.75</ele><time>2026-04-04T14:49:02.038Z</time></trkpt><trkpt lat="40.7413714" lon="14.8276299"><ele>691.5</ele><time>2026-04-04T14:49:03.008Z</time></trkpt><trkpt lat="40.741242" lon="14.8276001"><ele>687.25</ele><time>2026-04-04T14:49:03.971Z</time></trkpt><trkpt lat="40.7411133" lon="14.8275662"><ele>683.0</ele><time>2026-04-04T14:49:04.973Z</time></trkpt><trkpt lat="40.7409954" lon="14.8275226"><ele>682.0</ele><time>2026-04-04T14:49:05.987Z</time></trkpt><trkpt lat="40.7409016" lon="14.827466"><ele>681.0</ele><time>2026-04-04T14:49:06.988Z</time></trkpt><trkpt lat="40.7408247" lon="14.827402"><ele>680.0</ele><time>2026-04-04T14:49:07.973Z</time></trkpt><trkpt lat="40.7407605" lon="14.8273324"><ele>679.0</ele><time>2026-04-04T14:49:08.993Z</time></trkpt><trkpt lat="40.7406975" lon="14.8272635"><ele>678.0</ele><time>2026-04-04T14:49:09.971Z</time></trkpt><trkpt lat="40.7406295" lon="14.8272071"><ele>677.0</ele><time>2026-04-04T14:49:10.969Z</time></trkpt><trkpt lat="40.7405559" lon="14.8271635"><ele>677.0</ele><time>2026-04-04T14:49:11.975Z</time></trkpt><trkpt lat="40.7404775" lon="14.8271331"><ele>677.0</ele><time>2026-04-04T14:49:12.988Z</time></trkpt><trkpt lat="40.7403851" lon="14.827096"><ele>677.0</ele><time>2026-04-04T14:49:13.968Z</time></trkpt><trkpt lat="40.7402993" lon="14.8270501"><ele>677.0</ele><time>2026-04-04T14:49:14.967Z</time></trkpt><trkpt lat="40.7402286" lon="14.826997"><ele>677.0</ele><time>2026-04-04T14:49:15.968Z</time></trkpt><trkpt lat="40.7401764" lon="14.8269396"><ele>677.0</ele><time>2026-04-04T14:49:16.968Z</time></trkpt><trkpt lat="40.740113" lon="14.8268787"><ele>672.6666666666666</ele><time>2026-04-04T14:49:18.959Z</time></trkpt><trkpt lat="40.7400634" lon="14.8269905"><ele>668.3333333333333</ele><time>2026-04-04T14:49:21.973Z</time></trkpt><trkpt lat="40.740072" lon="14.8270851"><ele>664.0</ele><time>2026-04-04T14:49:22.97Z</time></trkpt><trkpt lat="40.7400889" lon="14.8272089"><ele>659.6666666666666</ele><time>2026-04-04T14:49:23.973Z</time></trkpt><trkpt lat="40.7401064" lon="14.827335"><ele>655.3333333333334</ele><time>2026-04-04T14:49:24.966Z</time></trkpt><trkpt lat="40.7401265" lon="14.8274402"><ele>651.0</ele><time>2026-04-04T14:49:25.96Z</time></trkpt><trkpt lat="40.7401534" lon="14.8275503"><ele>653.5999999999999</ele><time>2026-04-04T14:49:26.976Z</time></trkpt><trkpt lat="40.7401726" lon="14.8276777"><ele>656.2</ele><time>2026-04-04T14:49:27.973Z</time></trkpt><trkpt lat="40.7401837" lon="14.8278085"><ele>658.8</ele><time>2026-04-04T14:49:28.968Z</time></trkpt><trkpt lat="40.7401906" lon="14.8278978"><ele>661.4000000000001</ele><time>2026-04-04T14:49:29.977Z</time></trkpt><trkpt lat="40.7402586" lon="14.8280165"><ele>664.0</ele><time>2026-04-04T14:49:31.97Z</time></trkpt><trkpt lat="40.7403247" lon="14.8280686"><ele>664.0</ele><time>2026-04-04T14:49:32.948Z</time></trkpt><trkpt lat="40.7404079" lon="14.8281036"><ele>664.0</ele><time>2026-04-04T14:49:33.959Z</time></trkpt><trkpt lat="40.7405137" lon="14.8281323"><ele>664.0</ele><time>2026-04-04T14:49:34.969Z</time></trkpt><trkpt lat="40.7406006" lon="14.8281608"><ele>664.0</ele><time>2026-04-04T14:49:35.968Z</time></trkpt><trkpt lat="40.7406951" lon="14.8282797"><ele>664.0</ele><time>2026-04-04T14:49:38.041Z</time></trkpt><trkpt lat="40.740758" lon="14.8283783"><ele>664.0</ele><time>2026-04-04T14:49:38.969Z</time></trkpt><trkpt lat="40.7408328" lon="14.8284709"><ele>664.0</ele><time>2026-04-04T14:49:39.965Z</time></trkpt><trkpt lat="40.740881" lon="14.8285743"><ele>664.0</ele><time>2026-04-04T14:49:40.967Z</time></trkpt><trkpt lat="40.7409111" lon="14.8286635"><ele>664.0</ele><time>2026-04-04T14:49:41.95Z</time></trkpt><trkpt lat="40.7409297" lon="14.8287668"><ele>664.0</ele><time>2026-04-04T14:49:43.029Z</time></trkpt><trkpt lat="40.7409511" lon="14.8289116"><ele>664.6666666666667</ele><time>2026-04-04T14:49:44.977Z</time></trkpt><trkpt lat="40.7409886" lon="14.8289862"><ele>665.3333333333334</ele><time>2026-04-04T14:49:45.96Z</time></trkpt><trkpt lat="40.7410405" lon="14.8290464"><ele>666.0</ele><time>2026-04-04T14:49:46.971Z</time></trkpt><trkpt lat="40.7411042" lon="14.8290887"><ele>666.6666666666666</ele><time>2026-04-04T14:49:47.978Z</time></trkpt><trkpt lat="40.7411709" lon="14.8291157"><ele>667.3333333333333</ele><time>2026-04-04T14:49:48.971Z</time></trkpt><trkpt lat="40.7412283" lon="14.8292576"><ele>668.0</ele><time>2026-04-04T14:49:51.043Z</time></trkpt><trkpt lat="40.7411737" lon="14.8293808"><ele>663.8333333333333</ele><time>2026-04-04T14:49:53.031Z</time></trkpt><trkpt lat="40.7411244" lon="14.8294493"><ele>659.6666666666666</ele><time>2026-04-04T14:49:53.975Z</time></trkpt><trkpt lat="40.7410676" lon="14.8295194"><ele>655.5</ele><time>2026-04-04T14:49:54.978Z</time></trkpt><trkpt lat="40.7410068" lon="14.8296034"><ele>651.3333333333334</ele><time>2026-04-04T14:49:55.976Z</time></trkpt><trkpt lat="40.7409494" lon="14.8296767"><ele>647.1666666666667</ele><time>2026-04-04T14:49:56.978Z</time></trkpt><trkpt lat="40.7408982" lon="14.8297419"><ele>643.0</ele><time>2026-04-04T14:49:57.982Z</time></trkpt><trkpt lat="40.7408609" lon="14.8299051"><ele>637.8</ele><time>2026-04-04T14:50:00.041Z</time></trkpt><trkpt lat="40.7408441" lon="14.830016"><ele>632.5999999999999</ele><time>2026-04-04T14:50:01.047Z</time></trkpt><trkpt lat="40.7408278" lon="14.8301416"><ele>627.4000000000001</ele><time>2026-04-04T14:50:02.028Z</time></trkpt><trkpt lat="40.740808" lon="14.8302739"><ele>622.2</ele><time>2026-04-04T14:50:03.03Z</time></trkpt><trkpt lat="40.7407853" lon="14.8303861"><ele>617.0</ele><time>2026-04-04T14:50:03.97Z</time></trkpt><trkpt lat="40.740768" lon="14.8304889"><ele>617.8333333333333</ele><time>2026-04-04T14:50:04.967Z</time></trkpt><trkpt lat="40.7407647" lon="14.830586"><ele>618.6666666666666</ele><time>2026-04-04T14:50:06.044Z</time></trkpt><trkpt lat="40.7408098" lon="14.8307028"><ele>619.5</ele><time>2026-04-04T14:50:08.062Z</time></trkpt><trkpt lat="40.7408499" lon="14.8307688"><ele>620.3333333333334</ele><time>2026-04-04T14:50:08.969Z</time></trkpt><trkpt lat="40.7409154" lon="14.8308201"><ele>621.1666666666667</ele><time>2026-04-04T14:50:09.976Z</time></trkpt><trkpt lat="40.7410053" lon="14.8308527"><ele>622.0</ele><time>2026-04-04T14:50:10.982Z</time></trkpt><trkpt lat="40.7410703" lon="14.8308907"><ele>622.0</ele><time>2026-04-04T14:50:12.035Z</time></trkpt><trkpt lat="40.7411573" lon="14.8309409"><ele>622.0</ele><time>2026-04-04T14:50:13.979Z</time></trkpt><trkpt lat="40.7412591" lon="14.8309145"><ele>622.0</ele><time>2026-04-04T14:50:15.974Z</time></trkpt><trkpt lat="40.7413379" lon="14.830874"><ele>622.0</ele><time>2026-04-04T14:50:17.988Z</time></trkpt><trkpt lat="40.741404" lon="14.8307883"><ele>622.0</ele><time>2026-04-04T14:50:19.98Z</time></trkpt><trkpt lat="40.7414083" lon="14.8308844"><ele>622.0</ele><time>2026-04-04T14:50:23.984Z</time></trkpt><trkpt lat="40.7413753" lon="14.8310201"><ele>619.6666666666667</ele><time>2026-04-04T14:50:25.976Z</time></trkpt><trkpt lat="40.7413693" lon="14.8311157"><ele>617.3333333333334</ele><time>2026-04-04T14:50:26.985Z</time></trkpt><trkpt lat="40.7413687" lon="14.8312139"><ele>615.0</ele><time>2026-04-04T14:50:27.986Z</time></trkpt><trkpt lat="40.7413977" lon="14.8313083"><ele>612.6666666666666</ele><time>2026-04-04T14:50:28.988Z</time></trkpt><trkpt lat="40.7414353" lon="14.831375"><ele>610.3333333333333</ele><time>2026-04-04T14:50:29.98Z</time></trkpt><trkpt lat="40.7415257" lon="14.8313685"><ele>608.0</ele><time>2026-04-04T14:50:35.986Z</time></trkpt><trkpt lat="40.7416214" lon="14.8313306"><ele>608.0</ele><time>2026-04-04T14:50:37.973Z</time></trkpt><trkpt lat="40.7417376" lon="14.8312807"><ele>608.0</ele><time>2026-04-04T14:50:39.99Z</time></trkpt><trkpt lat="40.7418098" lon="14.8312183"><ele>608.0</ele><time>2026-04-04T14:50:40.979Z</time></trkpt><trkpt lat="40.7418875" lon="14.8311474"><ele>608.0</ele><time>2026-04-04T14:50:41.979Z</time></trkpt><trkpt lat="40.7419664" lon="14.8310736"><ele>608.0</ele><time>2026-04-04T14:50:42.975Z</time></trkpt><trkpt lat="40.742038" lon="14.8310308"><ele>613.4</ele><time>2026-04-04T14:50:43.981Z</time></trkpt><trkpt lat="40.7421081" lon="14.830998"><ele>618.8</ele><time>2026-04-04T14:50:45.972Z</time></trkpt><trkpt lat="40.7421022" lon="14.8310862"><ele>624.2</ele><time>2026-04-04T14:50:50.048Z</time></trkpt><trkpt lat="40.7420555" lon="14.8311675"><ele>629.6</ele><time>2026-04-04T14:50:51.99Z</time></trkpt><trkpt lat="40.7420237" lon="14.8312961"><ele>635.0</ele><time>2026-04-04T14:50:53.978Z</time></trkpt><trkpt lat="40.7420388" lon="14.8314784"><ele>635.0</ele><time>2026-04-04T14:50:55.983Z</time></trkpt><trkpt lat="40.7421161" lon="14.8316047"><ele>635.0</ele><time>2026-04-04T14:50:56.984Z</time></trkpt><trkpt lat="40.7422233" lon="14.8316631"><ele>635.0</ele><time>2026-04-04T14:50:58.048Z</time></trkpt><trkpt lat="40.7423138" lon="14.8316834"><ele>635.0</ele><time>2026-04-04T14:50:58.983Z</time></trkpt><trkpt lat="40.7423814" lon="14.8316921"><ele>635.0</ele><time>2026-04-04T14:50:59.98Z</time></trkpt><trkpt lat="40.7424524" lon="14.8316998"><ele>635.0</ele><time>2026-04-04T14:51:01.002Z</time></trkpt><trkpt lat="40.7425206" lon="14.8316967"><ele>635.0</ele><time>2026-04-04T14:51:02.052Z</time></trkpt><trkpt lat="40.7425796" lon="14.8317413"><ele>635.0</ele><time>2026-04-04T14:51:04.971Z</time></trkpt><trkpt lat="40.7425542" lon="14.8318257"><ele>635.0</ele><time>2026-04-04T14:51:07.034Z</time></trkpt><trkpt lat="40.742571" lon="14.8319289"><ele>635.0</ele><time>2026-04-04T14:51:08.985Z</time></trkpt><trkpt lat="40.7426131" lon="14.8320545"><ele>635.0</ele><time>2026-04-04T14:51:10.982Z</time></trkpt><trkpt lat="40.7426607" lon="14.832117"><ele>636.0</ele><time>2026-04-04T14:51:11.984Z</time></trkpt><trkpt lat="40.7427455" lon="14.8321984"><ele>637.0</ele><time>2026-04-04T14:51:12.982Z</time></trkpt><trkpt lat="40.7428261" lon="14.8322595"><ele>638.0</ele><time>2026-04-04T14:51:13.985Z</time></trkpt><trkpt lat="40.7428964" lon="14.8323027"><ele>639.0</ele><time>2026-04-04T14:51:15.04Z</time></trkpt><trkpt lat="40.7429765" lon="14.8323207"><ele>640.0</ele><time>2026-04-04T14:51:16.045Z</time></trkpt><trkpt lat="40.7430592" lon="14.8323071"><ele>641.0</ele><time>2026-04-04T14:51:17.033Z</time></trkpt><trkpt lat="40.7431369" lon="14.8322925"><ele>641.0</ele><time>2026-04-04T14:51:17.977Z</time></trkpt><trkpt lat="40.7432342" lon="14.8322653"><ele>641.0</ele><time>2026-04-04T14:51:19.971Z</time></trkpt><trkpt lat="40.7432306" lon="14.8323671"><ele>641.0</ele><time>2026-04-04T14:51:23.058Z</time></trkpt><trkpt lat="40.7432343" lon="14.8325453"><ele>641.0</ele><time>2026-04-04T14:51:24.98Z</time></trkpt><trkpt lat="40.7432451" lon="14.8326406"><ele>641.0</ele><time>2026-04-04T14:51:25.969Z</time></trkpt><trkpt lat="40.7432908" lon="14.832716"><ele>641.1666666666666</ele><time>2026-04-04T14:51:26.983Z</time></trkpt><trkpt lat="40.7433626" lon="14.8327676"><ele>641.3333333333333</ele><time>2026-04-04T14:51:27.961Z</time></trkpt><trkpt lat="40.7434884" lon="14.8328215"><ele>641.5</ele><time>2026-04-04T14:51:29.982Z</time></trkpt><trkpt lat="40.7435628" lon="14.8328025"><ele>641.6666666666666</ele><time>2026-04-04T14:51:31.009Z</time></trkpt><trkpt lat="40.7436276" lon="14.8327868"><ele>641.8333333333334</ele><time>2026-04-04T14:51:31.988Z</time></trkpt><trkpt lat="40.7436972" lon="14.8327704"><ele>642.0</ele><time>2026-04-04T14:51:32.983Z</time></trkpt><trkpt lat="40.7437813" lon="14.832783"><ele>642.0</ele><time>2026-04-04T14:51:34.979Z</time></trkpt><trkpt lat="40.7438552" lon="14.8328892"><ele>642.0</ele><time>2026-04-04T14:51:37.985Z</time></trkpt><trkpt lat="40.7439571" lon="14.8330317"><ele>642.0</ele><time>2026-04-04T14:51:39.98Z</time></trkpt><trkpt lat="40.7440121" lon="14.8331106"><ele>642.0</ele><time>2026-04-04T14:51:40.969Z</time></trkpt><trkpt lat="40.7440662" lon="14.8331859"><ele>642.0</ele><time>2026-04-04T14:51:41.984Z</time></trkpt><trkpt lat="40.7441167" lon="14.8332773"><ele>642.0</ele><time>2026-04-04T14:51:42.98Z</time></trkpt><trkpt lat="40.7441744" lon="14.8333364"><ele>642.0</ele><time>2026-04-04T14:51:43.98Z</time></trkpt><trkpt lat="40.7442407" lon="14.8333662"><ele>642.0</ele><time>2026-04-04T14:51:44.962Z</time></trkpt><trkpt lat="40.7443132" lon="14.8333649"><ele>642.0</ele><time>2026-04-04T14:51:45.97Z</time></trkpt><trkpt lat="40.7443956" lon="14.8333575"><ele>642.0</ele><time>2026-04-04T14:51:46.972Z</time></trkpt><trkpt lat="40.7444852" lon="14.8333201"><ele>642.0</ele><time>2026-04-04T14:51:48.063Z</time></trkpt><trkpt lat="40.7445764" lon="14.8332632"><ele>645.6666666666666</ele><time>2026-04-04T14:51:48.983Z</time></trkpt><trkpt lat="40.7446468" lon="14.8332305"><ele>649.3333333333334</ele><time>2026-04-04T14:51:49.984Z</time></trkpt><trkpt lat="40.7447146" lon="14.8332061"><ele>653.0</ele><time>2026-04-04T14:51:50.99Z</time></trkpt><trkpt lat="40.7447805" lon="14.8331818"><ele>656.6666666666667</ele><time>2026-04-04T14:51:51.965Z</time></trkpt><trkpt lat="40.7448427" lon="14.8331092"><ele>660.3333333333334</ele><time>2026-04-04T14:51:53.971Z</time></trkpt><trkpt lat="40.7448645" lon="14.8332288"><ele>664.0</ele><time>2026-04-04T14:51:56.972Z</time></trkpt><trkpt lat="40.7448784" lon="14.8333405"><ele>664.0</ele><time>2026-04-04T14:51:58.977Z</time></trkpt><trkpt lat="40.7448847" lon="14.8334594"><ele>664.0</ele><time>2026-04-04T14:51:59.989Z</time></trkpt><trkpt lat="40.7449378" lon="14.8336406"><ele>664.0</ele><time>2026-04-04T14:52:00.992Z</time></trkpt><trkpt lat="40.7449766" lon="14.8337576"><ele>664.0</ele><time>2026-04-04T14:52:01.977Z</time></trkpt><trkpt lat="40.7450233" lon="14.8338516"><ele>664.0</ele><time>2026-04-04T14:52:02.987Z</time></trkpt><trkpt lat="40.7450742" lon="14.8339228"><ele>665.2</ele><time>2026-04-04T14:52:03.958Z</time></trkpt><trkpt lat="40.7451394" lon="14.8339613"><ele>666.4000000000001</ele><time>2026-04-04T14:52:04.971Z</time></trkpt><trkpt lat="40.7452128" lon="14.83397"><ele>667.6</ele><time>2026-04-04T14:52:06.076Z</time></trkpt><trkpt lat="40.7452933" lon="14.8339658"><ele>668.8</ele><time>2026-04-04T14:52:07.037Z</time></trkpt><trkpt lat="40.7454099" lon="14.8339372"><ele>670.0</ele><time>2026-04-04T14:52:08.029Z</time></trkpt><trkpt lat="40.7455134" lon="14.8338862"><ele>670.0</ele><time>2026-04-04T14:52:08.999Z</time></trkpt><trkpt lat="40.7456021" lon="14.8338416"><ele>670.0</ele><time>2026-04-04T14:52:09.98Z</time></trkpt><trkpt lat="40.7456669" lon="14.8337869"><ele>670.0</ele><time>2026-04-04T14:52:10.978Z</time></trkpt><trkpt lat="40.7457276" lon="14.8337496"><ele>670.0</ele><time>2026-04-04T14:52:11.994Z</time></trkpt><trkpt lat="40.7458147" lon="14.8337658"><ele>670.0</ele><time>2026-04-04T14:52:14.985Z</time></trkpt><trkpt lat="40.7458337" lon="14.833858"><ele>670.0</ele><time>2026-04-04T14:52:16.971Z</time></trkpt><trkpt lat="40.7458414" lon="14.8339901"><ele>670.0</ele><time>2026-04-04T14:52:18.977Z</time></trkpt><trkpt lat="40.7458414" lon="14.8340844"><ele>670.0</ele><time>2026-04-04T14:52:19.972Z</time></trkpt><trkpt lat="40.7458984" lon="14.8342284"><ele>670.0</ele><time>2026-04-04T14:52:21.966Z</time></trkpt><trkpt lat="40.7459808" lon="14.8343105"><ele>670.0</ele><time>2026-04-04T14:52:22.982Z</time></trkpt><trkpt lat="40.7460618" lon="14.8343588"><ele>670.0</ele><time>2026-04-04T14:52:23.975Z</time></trkpt><trkpt lat="40.7461428" lon="14.8343709"><ele>670.2</ele><time>2026-04-04T14:52:24.983Z</time></trkpt><trkpt lat="40.7462153" lon="14.8343765"><ele>670.4</ele><time>2026-04-04T14:52:25.977Z</time></trkpt><trkpt lat="40.746293" lon="14.8343876"><ele>670.5999999999999</ele><time>2026-04-04T14:52:26.974Z</time></trkpt><trkpt lat="40.746405" lon="14.8344616"><ele>670.8</ele><time>2026-04-04T14:52:28.991Z</time></trkpt><trkpt lat="40.7464809" lon="14.8346281"><ele>671.0</ele><time>2026-04-04T14:52:30.991Z</time></trkpt><trkpt lat="40.7465339" lon="14.8347196"><ele>671.0</ele><time>2026-04-04T14:52:31.985Z</time></trkpt><trkpt lat="40.7466024" lon="14.8348007"><ele>671.0</ele><time>2026-04-04T14:52:33.013Z</time></trkpt><trkpt lat="40.7466765" lon="14.8348686"><ele>671.0</ele><time>2026-04-04T14:52:33.979Z</time></trkpt><trkpt lat="40.746761" lon="14.8349212"><ele>671.0</ele><time>2026-04-04T14:52:34.975Z</time></trkpt><trkpt lat="40.7468601" lon="14.8349725"><ele>671.0</ele><time>2026-04-04T14:52:35.984Z</time></trkpt><trkpt lat="40.7469468" lon="14.8349965"><ele>671.4</ele><time>2026-04-04T14:52:36.978Z</time></trkpt><trkpt lat="40.7470344" lon="14.8349827"><ele>671.8</ele><time>2026-04-04T14:52:37.979Z</time></trkpt><trkpt lat="40.7471247" lon="14.8349395"><ele>672.1999999999999</ele><time>2026-04-04T14:52:38.967Z</time></trkpt><trkpt lat="40.7472278" lon="14.8348806"><ele>672.5999999999999</ele><time>2026-04-04T14:52:39.97Z</time></trkpt><trkpt lat="40.747326" lon="14.8348197"><ele>673.0</ele><time>2026-04-04T14:52:40.979Z</time></trkpt><trkpt lat="40.7474096" lon="14.8347501"><ele>673.0</ele><time>2026-04-04T14:52:41.977Z</time></trkpt><trkpt lat="40.7474637" lon="14.8346817"><ele>673.0</ele><time>2026-04-04T14:52:42.982Z</time></trkpt><trkpt lat="40.7475035" lon="14.8345925"><ele>673.0</ele><time>2026-04-04T14:52:43.977Z</time></trkpt><trkpt lat="40.7475295" lon="14.8345037"><ele>673.0</ele><time>2026-04-04T14:52:44.978Z</time></trkpt><trkpt lat="40.7475604" lon="14.8344122"><ele>673.0</ele><time>2026-04-04T14:52:46.002Z</time></trkpt><trkpt lat="40.7475923" lon="14.8343077"><ele>673.0</ele><time>2026-04-04T14:52:46.975Z</time></trkpt><trkpt lat="40.7476237" lon="14.8341946"><ele>677.6666666666667</ele><time>2026-04-04T14:52:47.972Z</time></trkpt><trkpt lat="40.7476447" lon="14.8340912"><ele>682.3333333333334</ele><time>2026-04-04T14:52:48.968Z</time></trkpt><trkpt lat="40.7476636" lon="14.8339911"><ele>687.0</ele><time>2026-04-04T14:52:49.97Z</time></trkpt><trkpt lat="40.7476791" lon="14.8338862"><ele>691.6666666666666</ele><time>2026-04-04T14:52:50.978Z</time></trkpt><trkpt lat="40.7476826" lon="14.83378"><ele>696.3333333333333</ele><time>2026-04-04T14:52:51.976Z</time></trkpt><trkpt lat="40.7476752" lon="14.8336729"><ele>701.0</ele><time>2026-04-04T14:52:52.978Z</time></trkpt><trkpt lat="40.7476734" lon="14.8335785"><ele>701.0</ele><time>2026-04-04T14:52:53.973Z</time></trkpt><trkpt lat="40.747683" lon="14.8334788"><ele>701.0</ele><time>2026-04-04T14:52:54.974Z</time></trkpt><trkpt lat="40.7476941" lon="14.8333585"><ele>701.0</ele><time>2026-04-04T14:52:55.971Z</time></trkpt><trkpt lat="40.747713" lon="14.8332377"><ele>701.0</ele><time>2026-04-04T14:52:56.98Z</time></trkpt><trkpt lat="40.7477218" lon="14.8331216"><ele>701.0</ele><time>2026-04-04T14:52:57.98Z</time></trkpt><trkpt lat="40.7477293" lon="14.8329956"><ele>701.0</ele><time>2026-04-04T14:52:58.979Z</time></trkpt><trkpt lat="40.7477286" lon="14.8328581"><ele>700.5</ele><time>2026-04-04T14:52:59.984Z</time></trkpt><trkpt lat="40.7477214" lon="14.8327234"><ele>700.0</ele><time>2026-04-04T14:53:00.982Z</time></trkpt><trkpt lat="40.7477119" lon="14.8325719"><ele>699.5</ele><time>2026-04-04T14:53:01.976Z</time></trkpt><trkpt lat="40.7477261" lon="14.8323959"><ele>699.0</ele><time>2026-04-04T14:53:02.978Z</time></trkpt><trkpt lat="40.7477545" lon="14.8322265"><ele>702.4000000000001</ele><time>2026-04-04T14:53:03.98Z</time></trkpt><trkpt lat="40.7477721" lon="14.8320757"><ele>705.8</ele><time>2026-04-04T14:53:04.989Z</time></trkpt><trkpt lat="40.7477743" lon="14.8319207"><ele>709.2</ele><time>2026-04-04T14:53:05.977Z</time></trkpt><trkpt lat="40.7477738" lon="14.8317851"><ele>712.5999999999999</ele><time>2026-04-04T14:53:06.977Z</time></trkpt><trkpt lat="40.7477728" lon="14.8316738"><ele>716.0</ele><time>2026-04-04T14:53:07.981Z</time></trkpt><trkpt lat="40.7477976" lon="14.8315815"><ele>721.5999999999999</ele><time>2026-04-04T14:53:09.975Z</time></trkpt><trkpt lat="40.7478661" lon="14.8315062"><ele>727.2</ele><time>2026-04-04T14:53:13.977Z</time></trkpt><trkpt lat="40.7479477" lon="14.831468"><ele>732.8</ele><time>2026-04-04T14:53:15.98Z</time></trkpt><trkpt lat="40.748053" lon="14.8315392"><ele>738.4000000000001</ele><time>2026-04-04T14:53:17.977Z</time></trkpt><trkpt lat="40.7481184" lon="14.8315767"><ele>744.0</ele><time>2026-04-04T14:53:18.978Z</time></trkpt><trkpt lat="40.7482092" lon="14.8316352"><ele>744.0</ele><time>2026-04-04T14:53:19.978Z</time></trkpt><trkpt lat="40.7483657" lon="14.8317576"><ele>744.0</ele><time>2026-04-04T14:53:21.047Z</time></trkpt><trkpt lat="40.7484729" lon="14.8318228"><ele>744.0</ele><time>2026-04-04T14:53:22.043Z</time></trkpt><trkpt lat="40.7485671" lon="14.8318637"><ele>744.0</ele><time>2026-04-04T14:53:23.034Z</time></trkpt><trkpt lat="40.7486479" lon="14.8318952"><ele>742.8000000000001</ele><time>2026-04-04T14:53:23.976Z</time></trkpt><trkpt lat="40.7487586" lon="14.8319234"><ele>741.6</ele><time>2026-04-04T14:53:24.984Z</time></trkpt><trkpt lat="40.7488495" lon="14.8320046"><ele>740.4</ele><time>2026-04-04T14:53:25.979Z</time></trkpt><trkpt lat="40.7489346" lon="14.8321014"><ele>739.2</ele><time>2026-04-04T14:53:26.975Z</time></trkpt><trkpt lat="40.7490292" lon="14.8321712"><ele>738.0</ele><time>2026-04-04T14:53:27.98Z</time></trkpt><trkpt lat="40.7491235" lon="14.8322283"><ele>738.0</ele><time>2026-04-04T14:53:28.979Z</time></trkpt><trkpt lat="40.7491908" lon="14.8322678"><ele>738.0</ele><time>2026-04-04T14:53:29.961Z</time></trkpt><trkpt lat="40.7492525" lon="14.8323095"><ele>738.0</ele><time>2026-04-04T14:53:30.985Z</time></trkpt><trkpt lat="40.749317" lon="14.8323552"><ele>738.0</ele><time>2026-04-04T14:53:32.981Z</time></trkpt><trkpt lat="40.7493922" lon="14.8323729"><ele>738.0</ele><time>2026-04-04T14:54:36.967Z</time></trkpt><trkpt lat="40.7494565" lon="14.8324098"><ele>738.0</ele><time>2026-04-04T15:02:43.974Z</time></trkpt><trkpt lat="40.7494935" lon="14.832338"><ele>738.0</ele><time>2026-04-04T15:21:31.977Z</time></trkpt><trkpt lat="40.7495584" lon="14.8322771"><ele>738.25</ele><time>2026-04-04T15:21:32.977Z</time></trkpt><trkpt lat="40.7496717" lon="14.8322203"><ele>738.5</ele><time>2026-04-04T15:21:34.974Z</time></trkpt><trkpt lat="40.7497517" lon="14.832207"><ele>738.75</ele><time>2026-04-04T15:21:35.977Z</time></trkpt><trkpt lat="40.7498674" lon="14.8322181"><ele>739.0</ele><time>2026-04-04T15:21:36.975Z</time></trkpt><trkpt lat="40.7500035" lon="14.8322287"><ele>739.0</ele><time>2026-04-04T15:21:37.959Z</time></trkpt><trkpt lat="40.7501468" lon="14.8322434"><ele>739.0</ele><time>2026-04-04T15:21:38.97Z</time></trkpt><trkpt lat="40.7503031" lon="14.8322738"><ele>739.0</ele><time>2026-04-04T15:21:40.013Z</time></trkpt><trkpt lat="40.750466" lon="14.8322884"><ele>737.0</ele><time>2026-04-04T15:21:40.97Z</time></trkpt><trkpt lat="40.7506109" lon="14.8322988"><ele>735.0</ele><time>2026-04-04T15:21:41.974Z</time></trkpt><trkpt lat="40.7507128" lon="14.8323436"><ele>733.0</ele><time>2026-04-04T15:21:42.982Z</time></trkpt><trkpt lat="40.7508109" lon="14.8324176"><ele>731.0</ele><time>2026-04-04T15:21:43.974Z</time></trkpt><trkpt lat="40.7508981" lon="14.8325174"><ele>731.0</ele><time>2026-04-04T15:21:44.962Z</time></trkpt><trkpt lat="40.7510059" lon="14.8325759"><ele>731.0</ele><time>2026-04-04T15:21:46.043Z</time></trkpt><trkpt lat="40.7511327" lon="14.8326062"><ele>731.0</ele><time>2026-04-04T15:21:47.03Z</time></trkpt><trkpt lat="40.7512407" lon="14.8326396"><ele>731.0</ele><time>2026-04-04T15:21:47.965Z</time></trkpt><trkpt lat="40.7513199" lon="14.8326766"><ele>731.0</ele><time>2026-04-04T15:21:48.977Z</time></trkpt><trkpt lat="40.7514073" lon="14.8328216"><ele>730.5</ele><time>2026-04-04T15:21:50.971Z</time></trkpt><trkpt lat="40.7514337" lon="14.8329793"><ele>730.0</ele><time>2026-04-04T15:21:51.978Z</time></trkpt><trkpt lat="40.7514765" lon="14.8331292"><ele>729.5</ele><time>2026-04-04T15:21:52.975Z</time></trkpt><trkpt lat="40.7515399" lon="14.8332873"><ele>729.0</ele><time>2026-04-04T15:21:54.067Z</time></trkpt><trkpt lat="40.7516066" lon="14.833453"><ele>726.8000000000001</ele><time>2026-04-04T15:21:55.026Z</time></trkpt><trkpt lat="40.7516661" lon="14.8336113"><ele>724.6</ele><time>2026-04-04T15:21:56.025Z</time></trkpt><trkpt lat="40.7517136" lon="14.833741"><ele>722.4</ele><time>2026-04-04T15:21:57.049Z</time></trkpt><trkpt lat="40.751755" lon="14.8338573"><ele>720.2</ele><time>2026-04-04T15:21:57.975Z</time></trkpt><trkpt lat="40.7518212" lon="14.8339514"><ele>718.0</ele><time>2026-04-04T15:21:59.04Z</time></trkpt><trkpt lat="40.751899" lon="14.8340391"><ele>718.0</ele><time>2026-04-04T15:22:00.039Z</time></trkpt><trkpt lat="40.7520021" lon="14.8341095"><ele>718.0</ele><time>2026-04-04T15:22:01.052Z</time></trkpt><trkpt lat="40.7521413" lon="14.8341963"><ele>718.0</ele><time>2026-04-04T15:22:01.956Z</time></trkpt><trkpt lat="40.7522847" lon="14.8342656"><ele>718.0</ele><time>2026-04-04T15:22:02.969Z</time></trkpt><trkpt lat="40.7524038" lon="14.8343062"><ele>719.0</ele><time>2026-04-04T15:22:03.949Z</time></trkpt><trkpt lat="40.7524735" lon="14.8343372"><ele>720.0</ele><time>2026-04-04T15:22:05.029Z</time></trkpt><trkpt lat="40.7525227" lon="14.8344498"><ele>721.0</ele><time>2026-04-04T15:22:06.979Z</time></trkpt><trkpt lat="40.7525319" lon="14.834548"><ele>722.0</ele><time>2026-04-04T15:22:07.977Z</time></trkpt><trkpt lat="40.75254" lon="14.8346524"><ele>723.0</ele><time>2026-04-04T15:22:08.974Z</time></trkpt><trkpt lat="40.7525603" lon="14.8347683"><ele>724.0</ele><time>2026-04-04T15:22:10.042Z</time></trkpt><trkpt lat="40.7526171" lon="14.8348899"><ele>724.0</ele><time>2026-04-04T15:22:11.057Z</time></trkpt><trkpt lat="40.752679" lon="14.8349763"><ele>724.0</ele><time>2026-04-04T15:22:12.041Z</time></trkpt><trkpt lat="40.7527284" lon="14.8350495"><ele>724.0</ele><time>2026-04-04T15:22:12.961Z</time></trkpt><trkpt lat="40.7528027" lon="14.8351137"><ele>724.0</ele><time>2026-04-04T15:22:14.976Z</time></trkpt><trkpt lat="40.7529126" lon="14.8351471"><ele>724.0</ele><time>2026-04-04T15:22:17.058Z</time></trkpt><trkpt lat="40.7530154" lon="14.8351812"><ele>725.2</ele><time>2026-04-04T15:22:17.959Z</time></trkpt><trkpt lat="40.7531218" lon="14.835241"><ele>726.4000000000001</ele><time>2026-04-04T15:22:18.975Z</time></trkpt><trkpt lat="40.7532171" lon="14.8352966"><ele>727.6</ele><time>2026-04-04T15:22:19.974Z</time></trkpt><trkpt lat="40.7532991" lon="14.8353497"><ele>728.8</ele><time>2026-04-04T15:22:20.966Z</time></trkpt><trkpt lat="40.7533683" lon="14.8354287"><ele>730.0</ele><time>2026-04-04T15:22:21.971Z</time></trkpt><trkpt lat="40.7534187" lon="14.8355229"><ele>730.0</ele><time>2026-04-04T15:22:22.971Z</time></trkpt><trkpt lat="40.7534611" lon="14.8356193"><ele>730.0</ele><time>2026-04-04T15:22:23.983Z</time></trkpt><trkpt lat="40.7534904" lon="14.8357058"><ele>730.0</ele><time>2026-04-04T15:22:25.006Z</time></trkpt><trkpt lat="40.7535165" lon="14.8357898"><ele>730.0</ele><time>2026-04-04T15:22:25.996Z</time></trkpt><trkpt lat="40.7535532" lon="14.835871"><ele>730.0</ele><time>2026-04-04T15:22:26.97Z</time></trkpt><trkpt lat="40.7536127" lon="14.8359544"><ele>730.0</ele><time>2026-04-04T15:22:27.969Z</time></trkpt><trkpt lat="40.7536702" lon="14.8360324"><ele>729.5</ele><time>2026-04-04T15:22:28.97Z</time></trkpt><trkpt lat="40.7537365" lon="14.8361067"><ele>729.0</ele><time>2026-04-04T15:22:29.981Z</time></trkpt><trkpt lat="40.7538126" lon="14.8361672"><ele>728.5</ele><time>2026-04-04T15:22:30.975Z</time></trkpt><trkpt lat="40.7538909" lon="14.8362066"><ele>728.0</ele><time>2026-04-04T15:22:32.055Z</time></trkpt><trkpt lat="40.7539604" lon="14.8362407"><ele>727.5</ele><time>2026-04-04T15:22:32.969Z</time></trkpt><trkpt lat="40.7540247" lon="14.8362704"><ele>727.0</ele><time>2026-04-04T15:22:33.978Z</time></trkpt><trkpt lat="40.754094" lon="14.8362991"><ele>727.0</ele><time>2026-04-04T15:22:34.979Z</time></trkpt><trkpt lat="40.7541711" lon="14.8362979"><ele>727.0</ele><time>2026-04-04T15:22:36.029Z</time></trkpt><trkpt lat="40.7542523" lon="14.8363043"><ele>727.0</ele><time>2026-04-04T15:22:37.028Z</time></trkpt><trkpt lat="40.7543145" lon="14.8363284"><ele>727.0</ele><time>2026-04-04T15:22:37.968Z</time></trkpt><trkpt lat="40.7543824" lon="14.8363751"><ele>727.0</ele><time>2026-04-04T15:22:38.974Z</time></trkpt><trkpt lat="40.7544439" lon="14.8364111"><ele>727.0</ele><time>2026-04-04T15:22:40.09Z</time></trkpt><trkpt lat="40.7545223" lon="14.8364206"><ele>727.0</ele><time>2026-04-04T15:22:41.031Z</time></trkpt><trkpt lat="40.7546073" lon="14.836435"><ele>729.2</ele><time>2026-04-04T15:22:42.038Z</time></trkpt><trkpt lat="40.7547009" lon="14.836405"><ele>731.4000000000001</ele><time>2026-04-04T15:22:43.972Z</time></trkpt><trkpt lat="40.7547546" lon="14.8365171"><ele>733.5999999999999</ele><time>2026-04-04T15:22:47.963Z</time></trkpt><trkpt lat="40.7548335" lon="14.8366529"><ele>735.8</ele><time>2026-04-04T15:22:49.967Z</time></trkpt><trkpt lat="40.7548899" lon="14.8367491"><ele>738.0</ele><time>2026-04-04T15:22:50.969Z</time></trkpt><trkpt lat="40.7549803" lon="14.8368769"><ele>736.1666666666666</ele><time>2026-04-04T15:22:52.967Z</time></trkpt><trkpt lat="40.7550728" lon="14.8369239"><ele>734.3333333333334</ele><time>2026-04-04T15:22:54.975Z</time></trkpt><trkpt lat="40.7551514" lon="14.8369242"><ele>732.5</ele><time>2026-04-04T15:22:56.975Z</time></trkpt><trkpt lat="40.7552211" lon="14.8369689"><ele>730.6666666666667</ele><time>2026-04-04T15:22:58.974Z</time></trkpt><trkpt lat="40.7553" lon="14.8369936"><ele>728.8333333333334</ele><time>2026-04-04T15:23:00.968Z</time></trkpt><trkpt lat="40.7553816" lon="14.8370111"><ele>727.0</ele><time>2026-04-04T15:23:02.973Z</time></trkpt><trkpt lat="40.7554718" lon="14.8370043"><ele>727.0</ele><time>2026-04-04T15:23:04.975Z</time></trkpt><trkpt lat="40.7555818" lon="14.8369955"><ele>727.0</ele><time>2026-04-04T15:23:06.972Z</time></trkpt><trkpt lat="40.7556467" lon="14.8369919"><ele>727.0</ele><time>2026-04-04T15:23:07.982Z</time></trkpt><trkpt lat="40.7557394" lon="14.8369745"><ele>727.0</ele><time>2026-04-04T15:23:08.971Z</time></trkpt><trkpt lat="40.7559103" lon="14.8369392"><ele>727.0</ele><time>2026-04-04T15:23:09.974Z</time></trkpt><trkpt lat="40.7559718" lon="14.836896"><ele>727.0</ele><time>2026-04-04T15:23:10.981Z</time></trkpt><trkpt lat="40.7560259" lon="14.8368522"><ele>727.0</ele><time>2026-04-04T15:23:11.966Z</time></trkpt><trkpt lat="40.7561455" lon="14.8367558"><ele>727.0</ele><time>2026-04-04T15:23:13.984Z</time></trkpt><trkpt lat="40.7562219" lon="14.8367003"><ele>727.0</ele><time>2026-04-04T15:23:14.98Z</time></trkpt><trkpt lat="40.7563023" lon="14.8366335"><ele>727.0</ele><time>2026-04-04T15:23:15.971Z</time></trkpt><trkpt lat="40.7563842" lon="14.8365529"><ele>730.75</ele><time>2026-04-04T15:23:16.977Z</time></trkpt><trkpt lat="40.7564794" lon="14.8364482"><ele>734.5</ele><time>2026-04-04T15:23:17.978Z</time></trkpt><trkpt lat="40.7565847" lon="14.8363402"><ele>738.25</ele><time>2026-04-04T15:23:18.975Z</time></trkpt><trkpt lat="40.7566789" lon="14.8362305"><ele>742.0</ele><time>2026-04-04T15:23:19.969Z</time></trkpt><trkpt lat="40.756768" lon="14.8361176"><ele>742.0</ele><time>2026-04-04T15:23:20.97Z</time></trkpt><trkpt lat="40.7568432" lon="14.8360004"><ele>742.0</ele><time>2026-04-04T15:23:21.958Z</time></trkpt><trkpt lat="40.7568851" lon="14.8359335"><ele>742.0</ele><time>2026-04-04T15:23:22.974Z</time></trkpt><trkpt lat="40.7569412" lon="14.8358771"><ele>742.0</ele><time>2026-04-04T15:23:25.956Z</time></trkpt><trkpt lat="40.7569921" lon="14.8360094"><ele>742.0</ele><time>2026-04-04T15:23:28.955Z</time></trkpt><trkpt lat="40.7569966" lon="14.8361023"><ele>742.0</ele><time>2026-04-04T15:23:29.958Z</time></trkpt><trkpt lat="40.7569978" lon="14.8362266"><ele>742.8</ele><time>2026-04-04T15:23:30.968Z</time></trkpt><trkpt lat="40.7569945" lon="14.8363518"><ele>743.6</ele><time>2026-04-04T15:23:31.954Z</time></trkpt><trkpt lat="40.7569829" lon="14.8364746"><ele>744.4</ele><time>2026-04-04T15:23:32.977Z</time></trkpt><trkpt lat="40.7569701" lon="14.8366133"><ele>745.1999999999999</ele><time>2026-04-04T15:23:33.977Z</time></trkpt><trkpt lat="40.7569633" lon="14.83675"><ele>746.0</ele><time>2026-04-04T15:23:34.968Z</time></trkpt><trkpt lat="40.7569546" lon="14.8368982"><ele>744.1999999999999</ele><time>2026-04-04T15:23:35.976Z</time></trkpt><trkpt lat="40.7569359" lon="14.837037"><ele>742.4</ele><time>2026-04-04T15:23:36.972Z</time></trkpt><trkpt lat="40.7569085" lon="14.8371777"><ele>740.6</ele><time>2026-04-04T15:23:37.978Z</time></trkpt><trkpt lat="40.7568754" lon="14.8373195"><ele>738.8</ele><time>2026-04-04T15:23:38.974Z</time></trkpt><trkpt lat="40.7568253" lon="14.8374518"><ele>737.0</ele><time>2026-04-04T15:23:39.975Z</time></trkpt><trkpt lat="40.756766" lon="14.8375808"><ele>738.0</ele><time>2026-04-04T15:23:40.976Z</time></trkpt><trkpt lat="40.7566899" lon="14.8377171"><ele>739.0</ele><time>2026-04-04T15:23:41.962Z</time></trkpt><trkpt lat="40.7565993" lon="14.837867"><ele>740.0</ele><time>2026-04-04T15:23:42.98Z</time></trkpt><trkpt lat="40.7564905" lon="14.838028"><ele>741.0</ele><time>2026-04-04T15:23:43.971Z</time></trkpt><trkpt lat="40.7563987" lon="14.8381859"><ele>741.0</ele><time>2026-04-04T15:23:44.967Z</time></trkpt><trkpt lat="40.7563157" lon="14.8383279"><ele>741.0</ele><time>2026-04-04T15:23:45.983Z</time></trkpt><trkpt lat="40.7562374" lon="14.8384794"><ele>741.0</ele><time>2026-04-04T15:23:46.966Z</time></trkpt><trkpt lat="40.7561494" lon="14.838631"><ele>741.0</ele><time>2026-04-04T15:23:47.971Z</time></trkpt><trkpt lat="40.7560605" lon="14.8387984"><ele>740.0</ele><time>2026-04-04T15:23:48.981Z</time></trkpt><trkpt lat="40.7559729" lon="14.8389736"><ele>739.0</ele><time>2026-04-04T15:23:49.98Z</time></trkpt><trkpt lat="40.7558787" lon="14.8391558"><ele>738.0</ele><time>2026-04-04T15:23:50.974Z</time></trkpt><trkpt lat="40.755782" lon="14.8393363"><ele>735.3333333333334</ele><time>2026-04-04T15:23:51.983Z</time></trkpt><trkpt lat="40.7556933" lon="14.8395142"><ele>732.6666666666667</ele><time>2026-04-04T15:23:52.979Z</time></trkpt><trkpt lat="40.7555959" lon="14.839677"><ele>730.0</ele><time>2026-04-04T15:23:53.954Z</time></trkpt><trkpt lat="40.7555094" lon="14.8398357"><ele>730.0</ele><time>2026-04-04T15:23:54.977Z</time></trkpt><trkpt lat="40.7554262" lon="14.8399897"><ele>730.0</ele><time>2026-04-04T15:23:55.974Z</time></trkpt><trkpt lat="40.7553384" lon="14.8401484"><ele>730.0</ele><time>2026-04-04T15:23:56.976Z</time></trkpt><trkpt lat="40.755251" lon="14.8403204"><ele>730.0</ele><time>2026-04-04T15:23:57.974Z</time></trkpt><trkpt lat="40.7551762" lon="14.8405005"><ele>729.6666666666667</ele><time>2026-04-04T15:23:58.969Z</time></trkpt><trkpt lat="40.7550994" lon="14.840703"><ele>729.3333333333334</ele><time>2026-04-04T15:23:59.97Z</time></trkpt><trkpt lat="40.7550238" lon="14.8409148"><ele>729.0</ele><time>2026-04-04T15:24:00.967Z</time></trkpt><trkpt lat="40.7549579" lon="14.8410995"><ele>729.0</ele><time>2026-04-04T15:24:01.976Z</time></trkpt><trkpt lat="40.754908" lon="14.8412748"><ele>729.0</ele><time>2026-04-04T15:24:02.971Z</time></trkpt><trkpt lat="40.7548672" lon="14.8414091"><ele>729.0</ele><time>2026-04-04T15:24:03.974Z</time></trkpt><trkpt lat="40.754844" lon="14.8415148"><ele>729.0</ele><time>2026-04-04T15:24:04.974Z</time></trkpt><trkpt lat="40.7548017" lon="14.841627"><ele>729.0</ele><time>2026-04-04T15:24:05.98Z</time></trkpt><trkpt lat="40.7547064" lon="14.8417475"><ele>731.6</ele><time>2026-04-04T15:24:06.973Z</time></trkpt><trkpt lat="40.7545949" lon="14.8418502"><ele>734.2</ele><time>2026-04-04T15:24:07.975Z</time></trkpt><trkpt lat="40.7544899" lon="14.8419319"><ele>736.8000000000001</ele><time>2026-04-04T15:24:08.969Z</time></trkpt><trkpt lat="40.7544042" lon="14.8419962"><ele>739.4000000000001</ele><time>2026-04-04T15:24:09.977Z</time></trkpt><trkpt lat="40.754341" lon="14.8420488"><ele>742.0</ele><time>2026-04-04T15:24:10.972Z</time></trkpt><trkpt lat="40.7542491" lon="14.8421526"><ele>742.0</ele><time>2026-04-04T15:24:12.977Z</time></trkpt><trkpt lat="40.7542166" lon="14.8422249"><ele>742.0</ele><time>2026-04-04T15:24:13.977Z</time></trkpt><trkpt lat="40.7541878" lon="14.8423001"><ele>742.0</ele><time>2026-04-04T15:24:14.967Z</time></trkpt><trkpt lat="40.7541881" lon="14.8424259"><ele>742.0</ele><time>2026-04-04T15:24:16.982Z</time></trkpt><trkpt lat="40.7541818" lon="14.8425231"><ele>742.0</ele><time>2026-04-04T15:24:19.976Z</time></trkpt><trkpt lat="40.7542087" lon="14.8426411"><ele>742.0</ele><time>2026-04-04T15:24:21.965Z</time></trkpt><trkpt lat="40.7542001" lon="14.8427236"><ele>737.5</ele><time>2026-04-04T15:24:23.974Z</time></trkpt><trkpt lat="40.7542417" lon="14.8428417"><ele>733.0</ele><time>2026-04-04T15:24:24.987Z</time></trkpt><trkpt lat="40.7545652" lon="14.8434714"><ele>729.5</ele><time>2026-04-04T15:24:25.982Z</time></trkpt><trkpt lat="40.754775" lon="14.8439365"><ele>726.0</ele><time>2026-04-04T15:24:26.976Z</time></trkpt><trkpt lat="40.7548949" lon="14.8441903"><ele>726.0</ele><time>2026-04-04T15:24:27.968Z</time></trkpt><trkpt lat="40.7549458" lon="14.8443094"><ele>726.0</ele><time>2026-04-04T15:24:28.989Z</time></trkpt><trkpt lat="40.7550055" lon="14.8443872"><ele>726.0</ele><time>2026-04-04T15:24:29.976Z</time></trkpt><trkpt lat="40.7550803" lon="14.8444612"><ele>726.0</ele><time>2026-04-04T15:24:30.982Z</time></trkpt><trkpt lat="40.7551426" lon="14.8445157"><ele>726.0</ele><time>2026-04-04T15:24:31.98Z</time></trkpt><trkpt lat="40.7551983" lon="14.8445591"><ele>726.0</ele><time>2026-04-04T15:24:32.975Z</time></trkpt><trkpt lat="40.7552746" lon="14.844637"><ele>726.75</ele><time>2026-04-04T15:24:34.965Z</time></trkpt><trkpt lat="40.7553586" lon="14.8446998"><ele>727.5</ele><time>2026-04-04T15:24:36.963Z</time></trkpt><trkpt lat="40.7554324" lon="14.8447352"><ele>728.25</ele><time>2026-04-04T15:24:37.968Z</time></trkpt><trkpt lat="40.7555066" lon="14.8447792"><ele>729.0</ele><time>2026-04-04T15:24:38.972Z</time></trkpt><trkpt lat="40.7557818" lon="14.8450435"><ele>729.5</ele><time>2026-04-04T15:24:39.981Z</time></trkpt><trkpt lat="40.7560186" lon="14.8452914"><ele>730.0</ele><time>2026-04-04T15:24:40.967Z</time></trkpt><trkpt lat="40.7562061" lon="14.8454742"><ele>730.0</ele><time>2026-04-04T15:24:41.97Z</time></trkpt><trkpt lat="40.7563805" lon="14.8456402"><ele>730.0</ele><time>2026-04-04T15:24:42.968Z</time></trkpt><trkpt lat="40.7565616" lon="14.84594"><ele>731.5</ele><time>2026-04-04T15:24:43.969Z</time></trkpt><trkpt lat="40.756611" lon="14.8461134"><ele>733.0</ele><time>2026-04-04T15:24:44.981Z</time></trkpt><trkpt lat="40.7566657" lon="14.8462743"><ele>734.5</ele><time>2026-04-04T15:24:45.96Z</time></trkpt><trkpt lat="40.7567283" lon="14.8464306"><ele>736.0</ele><time>2026-04-04T15:24:46.988Z</time></trkpt><trkpt lat="40.7568155" lon="14.8466101"><ele>735.3333333333334</ele><time>2026-04-04T15:24:47.969Z</time></trkpt><trkpt lat="40.7569123" lon="14.8468865"><ele>734.6666666666666</ele><time>2026-04-04T15:24:48.971Z</time></trkpt><trkpt lat="40.7569453" lon="14.8471327"><ele>734.0</ele><time>2026-04-04T15:24:49.967Z</time></trkpt><trkpt lat="40.7570071" lon="14.8473233"><ele>734.0</ele><time>2026-04-04T15:24:50.981Z</time></trkpt><trkpt lat="40.7570553" lon="14.8474244"><ele>734.0</ele><time>2026-04-04T15:24:51.98Z</time></trkpt><trkpt lat="40.7571308" lon="14.8475408"><ele>734.0</ele><time>2026-04-04T15:24:52.97Z</time></trkpt><trkpt lat="40.757262" lon="14.8477645"><ele>734.0</ele><time>2026-04-04T15:24:54.032Z</time></trkpt><trkpt lat="40.7573621" lon="14.8479416"><ele>736.6666666666666</ele><time>2026-04-04T15:24:54.95Z</time></trkpt><trkpt lat="40.7574516" lon="14.848084"><ele>739.3333333333334</ele><time>2026-04-04T15:24:56.04Z</time></trkpt><trkpt lat="40.757554" lon="14.8483022"><ele>742.0</ele><time>2026-04-04T15:24:56.97Z</time></trkpt><trkpt lat="40.7576237" lon="14.8485014"><ele>741.8</ele><time>2026-04-04T15:24:57.989Z</time></trkpt><trkpt lat="40.7576916" lon="14.8487229"><ele>741.6</ele><time>2026-04-04T15:24:58.974Z</time></trkpt><trkpt lat="40.7577308" lon="14.8488793"><ele>741.4</ele><time>2026-04-04T15:24:59.971Z</time></trkpt><trkpt lat="40.7577414" lon="14.8489745"><ele>741.1999999999999</ele><time>2026-04-04T15:25:00.981Z</time></trkpt><trkpt lat="40.7577571" lon="14.8490635"><ele>741.0</ele><time>2026-04-04T15:25:01.973Z</time></trkpt><trkpt lat="40.7577936" lon="14.8491408"><ele>741.0</ele><time>2026-04-04T15:25:02.972Z</time></trkpt><trkpt lat="40.7578377" lon="14.8492212"><ele>741.0</ele><time>2026-04-04T15:25:03.97Z</time></trkpt><trkpt lat="40.7578989" lon="14.8492801"><ele>741.0</ele><time>2026-04-04T15:25:05.06Z</time></trkpt><trkpt lat="40.7579725" lon="14.8493393"><ele>741.0</ele><time>2026-04-04T15:25:05.97Z</time></trkpt><trkpt lat="40.7580408" lon="14.8494067"><ele>741.0</ele><time>2026-04-04T15:25:06.965Z</time></trkpt><trkpt lat="40.7581002" lon="14.8495195"><ele>741.0</ele><time>2026-04-04T15:25:07.969Z</time></trkpt><trkpt lat="40.758181" lon="14.84966"><ele>739.3333333333334</ele><time>2026-04-04T15:25:08.966Z</time></trkpt><trkpt lat="40.7582929" lon="14.8498073"><ele>737.6666666666667</ele><time>2026-04-04T15:25:09.959Z</time></trkpt><trkpt lat="40.7584489" lon="14.849951"><ele>736.0</ele><time>2026-04-04T15:25:10.963Z</time></trkpt><trkpt lat="40.7585981" lon="14.8500516"><ele>731.6666666666667</ele><time>2026-04-04T15:25:12.056Z</time></trkpt><trkpt lat="40.7587459" lon="14.8501401"><ele>727.3333333333334</ele><time>2026-04-04T15:25:13.011Z</time></trkpt><trkpt lat="40.7588921" lon="14.8502213"><ele>723.0</ele><time>2026-04-04T15:25:13.966Z</time></trkpt><trkpt lat="40.7590364" lon="14.850309"><ele>723.0</ele><time>2026-04-04T15:25:14.974Z</time></trkpt><trkpt lat="40.759164" lon="14.8503937"><ele>723.0</ele><time>2026-04-04T15:25:15.967Z</time></trkpt><trkpt lat="40.7592845" lon="14.8504758"><ele>723.0</ele><time>2026-04-04T15:25:16.964Z</time></trkpt><trkpt lat="40.7593829" lon="14.8505728"><ele>723.0</ele><time>2026-04-04T15:25:17.973Z</time></trkpt><trkpt lat="40.7594731" lon="14.8506939"><ele>723.5</ele><time>2026-04-04T15:25:18.984Z</time></trkpt><trkpt lat="40.7595471" lon="14.8508442"><ele>724.0</ele><time>2026-04-04T15:25:20.045Z</time></trkpt><trkpt lat="40.7596083" lon="14.851013"><ele>724.5</ele><time>2026-04-04T15:25:21.036Z</time></trkpt><trkpt lat="40.7596637" lon="14.8511972"><ele>725.0</ele><time>2026-04-04T15:25:22.025Z</time></trkpt><trkpt lat="40.7597174" lon="14.8513942"><ele>725.4</ele><time>2026-04-04T15:25:22.968Z</time></trkpt><trkpt lat="40.7597381" lon="14.8515731"><ele>725.8</ele><time>2026-04-04T15:25:23.976Z</time></trkpt><trkpt lat="40.7597565" lon="14.8517188"><ele>726.2</ele><time>2026-04-04T15:25:24.963Z</time></trkpt><trkpt lat="40.7597844" lon="14.8518485"><ele>726.6</ele><time>2026-04-04T15:25:25.971Z</time></trkpt><trkpt lat="40.759834" lon="14.8519542"><ele>727.0</ele><time>2026-04-04T15:25:27.031Z</time></trkpt><trkpt lat="40.7599348" lon="14.8520459"><ele>727.0</ele><time>2026-04-04T15:25:27.964Z</time></trkpt><trkpt lat="40.7600655" lon="14.8521061"><ele>727.0</ele><time>2026-04-04T15:25:28.969Z</time></trkpt><trkpt lat="40.7602169" lon="14.8521542"><ele>727.0</ele><time>2026-04-04T15:25:29.978Z</time></trkpt><trkpt lat="40.7603736" lon="14.8522559"><ele>724.0</ele><time>2026-04-04T15:25:31.047Z</time></trkpt><trkpt lat="40.7605221" lon="14.852335"><ele>721.0</ele><time>2026-04-04T15:25:32.031Z</time></trkpt><trkpt lat="40.7606597" lon="14.8524047"><ele>718.0</ele><time>2026-04-04T15:25:32.971Z</time></trkpt><trkpt lat="40.7607665" lon="14.8524779"><ele>715.0</ele><time>2026-04-04T15:25:33.976Z</time></trkpt><trkpt lat="40.7608363" lon="14.852582"><ele>718.0</ele><time>2026-04-04T15:25:35.092Z</time></trkpt><trkpt lat="40.760933" lon="14.8527766"><ele>721.0</ele><time>2026-04-04T15:25:37.036Z</time></trkpt><trkpt lat="40.7609935" lon="14.8528276"><ele>724.0</ele><time>2026-04-04T15:25:37.964Z</time></trkpt><trkpt lat="40.7610824" lon="14.8528532"><ele>727.0</ele><time>2026-04-04T15:25:39.031Z</time></trkpt><trkpt lat="40.7611817" lon="14.852809"><ele>730.0</ele><time>2026-04-04T15:25:40.043Z</time></trkpt><trkpt lat="40.7612763" lon="14.8527015"><ele>726.5</ele><time>2026-04-04T15:25:41.036Z</time></trkpt><trkpt lat="40.7613687" lon="14.8525831"><ele>723.0</ele><time>2026-04-04T15:25:42.045Z</time></trkpt><trkpt lat="40.7614486" lon="14.8524743"><ele>719.5</ele><time>2026-04-04T15:25:42.969Z</time></trkpt><trkpt lat="40.7615041" lon="14.8523489"><ele>716.0</ele><time>2026-04-04T15:25:43.98Z</time></trkpt><trkpt lat="40.761538" lon="14.8522121"><ele>716.0</ele><time>2026-04-04T15:25:44.995Z</time></trkpt><trkpt lat="40.7615745" lon="14.852092"><ele>716.0</ele><time>2026-04-04T15:25:46.034Z</time></trkpt><trkpt lat="40.7616257" lon="14.8519811"><ele>716.0</ele><time>2026-04-04T15:25:46.97Z</time></trkpt><trkpt lat="40.7616832" lon="14.8518756"><ele>716.0</ele><time>2026-04-04T15:25:47.956Z</time></trkpt><trkpt lat="40.7617575" lon="14.8518171"><ele>716.0</ele><time>2026-04-04T15:25:48.949Z</time></trkpt><trkpt lat="40.7618274" lon="14.8517512"><ele>714.1666666666666</ele><time>2026-04-04T15:25:49.954Z</time></trkpt><trkpt lat="40.7618935" lon="14.8517186"><ele>712.3333333333333</ele><time>2026-04-04T15:25:50.96Z</time></trkpt><trkpt lat="40.7619598" lon="14.8516909"><ele>710.5</ele><time>2026-04-04T15:25:51.949Z</time></trkpt><trkpt lat="40.7620329" lon="14.8516742"><ele>708.6666666666666</ele><time>2026-04-04T15:25:52.953Z</time></trkpt><trkpt lat="40.7621064" lon="14.8516701"><ele>706.8333333333334</ele><time>2026-04-04T15:25:53.955Z</time></trkpt><trkpt lat="40.7621798" lon="14.85171"><ele>705.0</ele><time>2026-04-04T15:25:54.963Z</time></trkpt><trkpt lat="40.7622375" lon="14.8517882"><ele>705.0</ele><time>2026-04-04T15:25:55.973Z</time></trkpt><trkpt lat="40.762309" lon="14.8518701"><ele>705.0</ele><time>2026-04-04T15:25:56.977Z</time></trkpt><trkpt lat="40.7623632" lon="14.8518149"><ele>705.0</ele><time>2026-04-04T15:25:58.983Z</time></trkpt><trkpt lat="40.7623817" lon="14.8516972"><ele>705.0</ele><time>2026-04-04T15:25:59.977Z</time></trkpt><trkpt lat="40.7624407" lon="14.8515903"><ele>705.0</ele><time>2026-04-04T15:26:00.977Z</time></trkpt><trkpt lat="40.7625227" lon="14.8515172"><ele>705.0</ele><time>2026-04-04T15:26:01.979Z</time></trkpt><trkpt lat="40.7626003" lon="14.8514375"><ele>705.0</ele><time>2026-04-04T15:26:02.968Z</time></trkpt><trkpt lat="40.762702" lon="14.8513823"><ele>705.0</ele><time>2026-04-04T15:26:03.96Z</time></trkpt><trkpt lat="40.7627959" lon="14.8513675"><ele>705.0</ele><time>2026-04-04T15:26:04.977Z</time></trkpt><trkpt lat="40.7629029" lon="14.8513857"><ele>705.0</ele><time>2026-04-04T15:26:05.971Z</time></trkpt><trkpt lat="40.7630313" lon="14.8514242"><ele>705.3333333333334</ele><time>2026-04-04T15:26:06.954Z</time></trkpt><trkpt lat="40.7631961" lon="14.8514716"><ele>705.6666666666667</ele><time>2026-04-04T15:26:07.959Z</time></trkpt><trkpt lat="40.7633688" lon="14.8515098"><ele>706.0</ele><time>2026-04-04T15:26:08.978Z</time></trkpt><trkpt lat="40.7635262" lon="14.8515657"><ele>704.5</ele><time>2026-04-04T15:26:09.972Z</time></trkpt><trkpt lat="40.7636785" lon="14.8516335"><ele>703.0</ele><time>2026-04-04T15:26:10.974Z</time></trkpt><trkpt lat="40.763799" lon="14.8517023"><ele>701.5</ele><time>2026-04-04T15:26:12.023Z</time></trkpt><trkpt lat="40.7638993" lon="14.8517764"><ele>700.0</ele><time>2026-04-04T15:26:12.977Z</time></trkpt><trkpt lat="40.7639852" lon="14.8518746"><ele>700.0</ele><time>2026-04-04T15:26:13.981Z</time></trkpt><trkpt lat="40.7640458" lon="14.8519916"><ele>700.0</ele><time>2026-04-04T15:26:14.971Z</time></trkpt><trkpt lat="40.7640796" lon="14.8521319"><ele>700.0</ele><time>2026-04-04T15:26:15.966Z</time></trkpt><trkpt lat="40.7640881" lon="14.8523054"><ele>700.0</ele><time>2026-04-04T15:26:16.967Z</time></trkpt><trkpt lat="40.7640867" lon="14.8524627"><ele>700.0</ele><time>2026-04-04T15:26:17.97Z</time></trkpt><trkpt lat="40.764074" lon="14.8525635"><ele>700.0</ele><time>2026-04-04T15:26:18.984Z</time></trkpt><trkpt lat="40.7640955" lon="14.8527026"><ele>700.0</ele><time>2026-04-04T15:26:20.969Z</time></trkpt><trkpt lat="40.7641888" lon="14.8528216"><ele>700.0</ele><time>2026-04-04T15:26:22.976Z</time></trkpt><trkpt lat="40.7642679" lon="14.8528231"><ele>700.0</ele><time>2026-04-04T15:26:23.969Z</time></trkpt><trkpt lat="40.7643671" lon="14.8528369"><ele>699.4</ele><time>2026-04-04T15:26:24.986Z</time></trkpt><trkpt lat="40.7644581" lon="14.8529056"><ele>698.8</ele><time>2026-04-04T15:26:25.969Z</time></trkpt><trkpt lat="40.7645475" lon="14.8529807"><ele>698.2</ele><time>2026-04-04T15:26:26.98Z</time></trkpt><trkpt lat="40.7646415" lon="14.8530286"><ele>697.6</ele><time>2026-04-04T15:26:27.977Z</time></trkpt><trkpt lat="40.7647322" lon="14.8530819"><ele>697.0</ele><time>2026-04-04T15:26:28.976Z</time></trkpt><trkpt lat="40.7648454" lon="14.8530967"><ele>697.0</ele><time>2026-04-04T15:26:29.978Z</time></trkpt><trkpt lat="40.7649775" lon="14.8530625"><ele>697.0</ele><time>2026-04-04T15:26:30.972Z</time></trkpt><trkpt lat="40.7651223" lon="14.8530353"><ele>697.0</ele><time>2026-04-04T15:26:31.976Z</time></trkpt><trkpt lat="40.7652588" lon="14.8530329"><ele>697.0</ele><time>2026-04-04T15:26:32.981Z</time></trkpt><trkpt lat="40.7653704" lon="14.8530687"><ele>695.0</ele><time>2026-04-04T15:26:33.999Z</time></trkpt><trkpt lat="40.7654697" lon="14.8531288"><ele>693.0</ele><time>2026-04-04T15:26:34.997Z</time></trkpt><trkpt lat="40.765529" lon="14.8532311"><ele>691.0</ele><time>2026-04-04T15:26:35.98Z</time></trkpt><trkpt lat="40.7655603" lon="14.8533685"><ele>689.0</ele><time>2026-04-04T15:26:36.967Z</time></trkpt><trkpt lat="40.7655462" lon="14.8535132"><ele>687.0</ele><time>2026-04-04T15:26:37.975Z</time></trkpt><trkpt lat="40.765516" lon="14.85368"><ele>686.2</ele><time>2026-04-04T15:26:38.995Z</time></trkpt><trkpt lat="40.7654771" lon="14.8538549"><ele>685.4000000000001</ele><time>2026-04-04T15:26:39.976Z</time></trkpt><trkpt lat="40.7654485" lon="14.854008"><ele>684.5999999999999</ele><time>2026-04-04T15:26:40.973Z</time></trkpt><trkpt lat="40.7654582" lon="14.8541411"><ele>683.8</ele><time>2026-04-04T15:26:41.973Z</time></trkpt><trkpt lat="40.7654965" lon="14.8542458"><ele>683.0</ele><time>2026-04-04T15:26:42.976Z</time></trkpt><trkpt lat="40.7655923" lon="14.8543295"><ele>682.5</ele><time>2026-04-04T15:26:43.976Z</time></trkpt><trkpt lat="40.7656979" lon="14.8543826"><ele>682.0</ele><time>2026-04-04T15:26:44.976Z</time></trkpt><trkpt lat="40.7658154" lon="14.854389"><ele>681.5</ele><time>2026-04-04T15:26:45.987Z</time></trkpt><trkpt lat="40.7659387" lon="14.8543355"><ele>681.0</ele><time>2026-04-04T15:26:46.967Z</time></trkpt><trkpt lat="40.7660713" lon="14.8542639"><ele>681.0</ele><time>2026-04-04T15:26:47.981Z</time></trkpt><trkpt lat="40.7662056" lon="14.8541836"><ele>681.0</ele><time>2026-04-04T15:26:48.972Z</time></trkpt><trkpt lat="40.7663502" lon="14.8541091"><ele>681.0</ele><time>2026-04-04T15:26:49.967Z</time></trkpt><trkpt lat="40.7664816" lon="14.854033"><ele>681.0</ele><time>2026-04-04T15:26:50.97Z</time></trkpt><trkpt lat="40.7666032" lon="14.8539624"><ele>681.0</ele><time>2026-04-04T15:26:51.969Z</time></trkpt><trkpt lat="40.7667167" lon="14.8538929"><ele>681.0</ele><time>2026-04-04T15:26:52.972Z</time></trkpt><trkpt lat="40.7668274" lon="14.8538278"><ele>681.0</ele><time>2026-04-04T15:26:53.971Z</time></trkpt><trkpt lat="40.76693" lon="14.8537786"><ele>681.0</ele><time>2026-04-04T15:26:54.975Z</time></trkpt><trkpt lat="40.7670263" lon="14.8537295"><ele>680.3333333333334</ele><time>2026-04-04T15:26:55.974Z</time></trkpt><trkpt lat="40.7671099" lon="14.8536778"><ele>679.6666666666666</ele><time>2026-04-04T15:26:56.969Z</time></trkpt><trkpt lat="40.7671913" lon="14.8536127"><ele>679.0</ele><time>2026-04-04T15:26:57.967Z</time></trkpt><trkpt lat="40.7672534" lon="14.8535292"><ele>678.3333333333333</ele><time>2026-04-04T15:26:58.972Z</time></trkpt><trkpt lat="40.7673049" lon="14.8534348"><ele>677.6666666666666</ele><time>2026-04-04T15:26:59.98Z</time></trkpt><trkpt lat="40.7673375" lon="14.8533469"><ele>677.0</ele><time>2026-04-04T15:27:00.987Z</time></trkpt><trkpt lat="40.7673609" lon="14.8532684"><ele>676.4000000000001</ele><time>2026-04-04T15:27:01.974Z</time></trkpt><trkpt lat="40.7674047" lon="14.8531462"><ele>675.8000000000001</ele><time>2026-04-04T15:27:03.98Z</time></trkpt><trkpt lat="40.7674647" lon="14.8530906"><ele>675.2</ele><time>2026-04-04T15:27:05.97Z</time></trkpt><trkpt lat="40.7675473" lon="14.8531047"><ele>674.6</ele><time>2026-04-04T15:27:07.974Z</time></trkpt><trkpt lat="40.7676595" lon="14.8532003"><ele>674.0</ele><time>2026-04-04T15:27:09.978Z</time></trkpt><trkpt lat="40.7677315" lon="14.8532829"><ele>674.0</ele><time>2026-04-04T15:27:10.981Z</time></trkpt><trkpt lat="40.7678057" lon="14.853373"><ele>674.0</ele><time>2026-04-04T15:27:11.977Z</time></trkpt><trkpt lat="40.7678878" lon="14.8534631"><ele>674.0</ele><time>2026-04-04T15:27:12.972Z</time></trkpt><trkpt lat="40.7679645" lon="14.8535394"><ele>674.0</ele><time>2026-04-04T15:27:13.986Z</time></trkpt><trkpt lat="40.7680435" lon="14.8535987"><ele>674.0</ele><time>2026-04-04T15:27:14.984Z</time></trkpt><trkpt lat="40.7681376" lon="14.8536396"><ele>674.1666666666666</ele><time>2026-04-04T15:27:15.982Z</time></trkpt><trkpt lat="40.7682352" lon="14.8536676"><ele>674.3333333333333</ele><time>2026-04-04T15:27:16.968Z</time></trkpt><trkpt lat="40.7683166" lon="14.853679"><ele>674.5</ele><time>2026-04-04T15:27:17.974Z</time></trkpt><trkpt lat="40.7683821" lon="14.8537259"><ele>674.6666666666666</ele><time>2026-04-04T15:27:20.982Z</time></trkpt><trkpt lat="40.7683565" lon="14.8538196"><ele>674.8333333333334</ele><time>2026-04-04T15:27:22.978Z</time></trkpt><trkpt lat="40.7683215" lon="14.8539362"><ele>675.0</ele><time>2026-04-04T15:27:24.973Z</time></trkpt><trkpt lat="40.7683121" lon="14.8540348"><ele>675.0</ele><time>2026-04-04T15:27:26.967Z</time></trkpt><trkpt lat="40.7683115" lon="14.8541423"><ele>675.0</ele><time>2026-04-04T15:27:53.977Z</time></trkpt><trkpt lat="40.7683156" lon="14.8542462"><ele>675.0</ele><time>2026-04-04T15:27:56.979Z</time></trkpt><trkpt lat="40.7683001" lon="14.8543415"><ele>675.0</ele><time>2026-04-04T15:27:58.974Z</time></trkpt><trkpt lat="40.7682752" lon="14.8544386"><ele>675.0</ele><time>2026-04-04T15:28:00.99Z</time></trkpt><trkpt lat="40.7682599" lon="14.8545271"><ele>675.0</ele><time>2026-04-04T15:28:02.977Z</time></trkpt><trkpt lat="40.7682417" lon="14.8546195"><ele>672.4285714285714</ele><time>2026-04-04T15:28:04.972Z</time></trkpt><trkpt lat="40.7682487" lon="14.8547188"><ele>669.8571428571429</ele><time>2026-04-04T15:28:06.98Z</time></trkpt><trkpt lat="40.768279" lon="14.8548195"><ele>667.2857142857142</ele><time>2026-04-04T15:28:08.984Z</time></trkpt><trkpt lat="40.7682922" lon="14.8549143"><ele>664.7142857142858</ele><time>2026-04-04T15:28:11.981Z</time></trkpt><trkpt lat="40.7682411" lon="14.8549778"><ele>662.1428571428572</ele><time>2026-04-04T15:28:21.975Z</time></trkpt><trkpt lat="40.7681647" lon="14.8550208"><ele>659.5714285714286</ele><time>2026-04-04T15:28:25.95Z</time></trkpt><trkpt lat="40.7681491" lon="14.8551039"><ele>657.0</ele><time>2026-04-04T15:28:43.984Z</time></trkpt><trkpt lat="40.7681754" lon="14.8552647"><ele>653.4285714285714</ele><time>2026-04-04T15:28:55.963Z</time></trkpt><trkpt lat="40.7681815" lon="14.855367"><ele>649.8571428571429</ele><time>2026-04-04T15:29:00.961Z</time></trkpt><trkpt lat="40.7681851" lon="14.8554517"><ele>646.2857142857143</ele><time>2026-04-04T15:29:03.951Z</time></trkpt><trkpt lat="40.7681912" lon="14.8555445"><ele>642.7142857142858</ele><time>2026-04-04T15:29:06.957Z</time></trkpt><trkpt lat="40.7682096" lon="14.8556303"><ele>639.1428571428571</ele><time>2026-04-04T15:29:09.977Z</time></trkpt><trkpt lat="40.7682441" lon="14.8557213"><ele>635.5714285714287</ele><time>2026-04-04T15:29:12.972Z</time></trkpt><trkpt lat="40.7682582" lon="14.8558081"><ele>632.0</ele><time>2026-04-04T15:29:14.972Z</time></trkpt><trkpt lat="40.7682526" lon="14.8559228"><ele>628.8333333333333</ele><time>2026-04-04T15:29:16.971Z</time></trkpt><trkpt lat="40.7682101" lon="14.8560785"><ele>625.6666666666666</ele><time>2026-04-04T15:29:18.976Z</time></trkpt><trkpt lat="40.7681856" lon="14.8561693"><ele>622.5</ele><time>2026-04-04T15:29:19.976Z</time></trkpt><trkpt lat="40.7681528" lon="14.8562408"><ele>619.3333333333334</ele><time>2026-04-04T15:29:21.88Z</time></trkpt><trkpt lat="40.768102" lon="14.8563105"><ele>616.1666666666667</ele><time>2026-04-04T15:29:24.97Z</time></trkpt><trkpt lat="40.7680705" lon="14.8563896"><ele>613.0</ele><time>2026-04-04T15:29:30.969Z</time></trkpt><trkpt lat="40.7680069" lon="14.8565349"><ele>613.0</ele><time>2026-04-04T15:29:35.981Z</time></trkpt><trkpt lat="40.7679603" lon="14.856595"><ele>613.0</ele><time>2026-04-04T15:29:38.938Z</time></trkpt><trkpt lat="40.7679403" lon="14.8566846"><ele>613.0</ele><time>2026-04-04T15:29:40.984Z</time></trkpt><trkpt lat="40.7679785" lon="14.8567858"><ele>613.0</ele><time>2026-04-04T15:29:42.992Z</time></trkpt><trkpt lat="40.7680214" lon="14.8568505"><ele>613.0</ele><time>2026-04-04T15:29:44.949Z</time></trkpt><trkpt lat="40.7680702" lon="14.8569133"><ele>613.0</ele><time>2026-04-04T15:29:46.977Z</time></trkpt><trkpt lat="40.7681341" lon="14.8569976"><ele>613.0</ele><time>2026-04-04T15:29:48.966Z</time></trkpt><trkpt lat="40.7681815" lon="14.8570528"><ele>611.1428571428571</ele><time>2026-04-04T15:29:49.962Z</time></trkpt><trkpt lat="40.7682391" lon="14.8571108"><ele>609.2857142857142</ele><time>2026-04-04T15:29:51.975Z</time></trkpt><trkpt lat="40.768292" lon="14.8571733"><ele>607.4285714285713</ele><time>2026-04-04T15:29:53.981Z</time></trkpt><trkpt lat="40.768336" lon="14.8572364"><ele>605.5714285714286</ele><time>2026-04-04T15:29:55.97Z</time></trkpt><trkpt lat="40.7683962" lon="14.8573198"><ele>603.7142857142857</ele><time>2026-04-04T15:29:58.972Z</time></trkpt><trkpt lat="40.7684735" lon="14.8573342"><ele>601.8571428571428</ele><time>2026-04-04T15:30:01.975Z</time></trkpt><trkpt lat="40.7685379" lon="14.8573241"><ele>600.0</ele><time>2026-04-04T15:30:03.977Z</time></trkpt><trkpt lat="40.7686044" lon="14.8573356"><ele>600.0</ele><time>2026-04-04T15:30:05.987Z</time></trkpt><trkpt lat="40.7686671" lon="14.8573893"><ele>600.0</ele><time>2026-04-04T15:30:06.973Z</time></trkpt><trkpt lat="40.7687468" lon="14.857456"><ele>600.0</ele><time>2026-04-04T15:30:08.974Z</time></trkpt><trkpt lat="40.7687919" lon="14.8575356"><ele>600.0</ele><time>2026-04-04T15:30:10.965Z</time></trkpt><trkpt lat="40.768833" lon="14.8576361"><ele>600.0</ele><time>2026-04-04T15:30:12.972Z</time></trkpt><trkpt lat="40.768904" lon="14.8577291"><ele>600.0</ele><time>2026-04-04T15:30:14.972Z</time></trkpt><trkpt lat="40.7689573" lon="14.8577871"><ele>594.6</ele><time>2026-04-04T15:30:15.952Z</time></trkpt><trkpt lat="40.7689962" lon="14.8579215"><ele>589.2</ele><time>2026-04-04T15:30:17.978Z</time></trkpt><trkpt lat="40.7689931" lon="14.8580798"><ele>583.8</ele><time>2026-04-04T15:30:19.975Z</time></trkpt><trkpt lat="40.7690033" lon="14.8581919"><ele>578.4</ele><time>2026-04-04T15:30:21.981Z</time></trkpt><trkpt lat="40.7690388" lon="14.858276"><ele>573.0</ele><time>2026-04-04T15:30:24.975Z</time></trkpt><trkpt lat="40.7690369" lon="14.8583635"><ele>573.0</ele><time>2026-04-04T15:30:28.965Z</time></trkpt><trkpt lat="40.7689631" lon="14.8583765"><ele>573.0</ele><time>2026-04-04T15:30:32.977Z</time></trkpt><trkpt lat="40.7689019" lon="14.8584413"><ele>573.0</ele><time>2026-04-04T15:30:36.966Z</time></trkpt><trkpt lat="40.7689292" lon="14.8585438"><ele>573.0</ele><time>2026-04-04T15:30:39.973Z</time></trkpt><trkpt lat="40.7689904" lon="14.8585924"><ele>573.0</ele><time>2026-04-04T15:30:41.974Z</time></trkpt><trkpt lat="40.7690484" lon="14.8586548"><ele>573.0</ele><time>2026-04-04T15:30:45.971Z</time></trkpt><trkpt lat="40.7689917" lon="14.8587291"><ele>572.5</ele><time>2026-04-04T15:30:58.974Z</time></trkpt><trkpt lat="40.7689297" lon="14.8587714"><ele>572.0</ele><time>2026-04-04T15:31:00.981Z</time></trkpt><trkpt lat="40.7688615" lon="14.8588112"><ele>571.5</ele><time>2026-04-04T15:31:02.977Z</time></trkpt><trkpt lat="40.7687973" lon="14.8588437"><ele>571.0</ele><time>2026-04-04T15:31:04.981Z</time></trkpt><trkpt lat="40.7687311" lon="14.8588861"><ele>570.5</ele><time>2026-04-04T15:31:06.96Z</time></trkpt><trkpt lat="40.7686637" lon="14.8589841"><ele>570.0</ele><time>2026-04-04T15:31:08.98Z</time></trkpt><trkpt lat="40.7686271" lon="14.8590965"><ele>566.0</ele><time>2026-04-04T15:31:10.977Z</time></trkpt><trkpt lat="40.7685922" lon="14.8592856"><ele>562.0</ele><time>2026-04-04T15:31:12.952Z</time></trkpt><trkpt lat="40.768572" lon="14.8593985"><ele>558.0</ele><time>2026-04-04T15:31:13.969Z</time></trkpt><trkpt lat="40.7685399" lon="14.8594913"><ele>554.0</ele><time>2026-04-04T15:31:14.962Z</time></trkpt><trkpt lat="40.7684928" lon="14.8595871"><ele>550.0</ele><time>2026-04-04T15:31:15.975Z</time></trkpt><trkpt lat="40.7684416" lon="14.8596768"><ele>550.0</ele><time>2026-04-04T15:31:16.981Z</time></trkpt><trkpt lat="40.7684144" lon="14.8597958"><ele>550.0</ele><time>2026-04-04T15:31:17.971Z</time></trkpt><trkpt lat="40.7683873" lon="14.8598901"><ele>550.0</ele><time>2026-04-04T15:31:18.981Z</time></trkpt><trkpt lat="40.7683757" lon="14.8599963"><ele>550.0</ele><time>2026-04-04T15:31:19.971Z</time></trkpt><trkpt lat="40.7683381" lon="14.8600894"><ele>550.0</ele><time>2026-04-04T15:31:20.975Z</time></trkpt><trkpt lat="40.7682868" lon="14.8601699"><ele>550.0</ele><time>2026-04-04T15:31:21.981Z</time></trkpt><trkpt lat="40.7682319" lon="14.8602679"><ele>553.1666666666667</ele><time>2026-04-04T15:31:22.974Z</time></trkpt><trkpt lat="40.7681778" lon="14.8603414"><ele>556.3333333333334</ele><time>2026-04-04T15:31:23.977Z</time></trkpt><trkpt lat="40.7681321" lon="14.8603999"><ele>559.5</ele><time>2026-04-04T15:31:24.963Z</time></trkpt><trkpt lat="40.768064" lon="14.8604946"><ele>562.6666666666666</ele><time>2026-04-04T15:31:26.97Z</time></trkpt><trkpt lat="40.7679706" lon="14.8606139"><ele>565.8333333333333</ele><time>2026-04-04T15:31:28.978Z</time></trkpt><trkpt lat="40.7679167" lon="14.8606693"><ele>569.0</ele><time>2026-04-04T15:31:29.97Z</time></trkpt><trkpt lat="40.7678509" lon="14.860708"><ele>569.0</ele><time>2026-04-04T15:31:30.962Z</time></trkpt><trkpt lat="40.7677587" lon="14.8608029"><ele>569.0</ele><time>2026-04-04T15:31:32.979Z</time></trkpt><trkpt lat="40.7677102" lon="14.8608632"><ele>569.0</ele><time>2026-04-04T15:31:33.98Z</time></trkpt><trkpt lat="40.7676365" lon="14.8609631"><ele>569.0</ele><time>2026-04-04T15:31:35.973Z</time></trkpt><trkpt lat="40.767576" lon="14.8610725"><ele>569.0</ele><time>2026-04-04T15:31:37.977Z</time></trkpt><trkpt lat="40.7675915" lon="14.861224"><ele>565.8333333333333</ele><time>2026-04-04T15:31:39.975Z</time></trkpt><trkpt lat="40.7675714" lon="14.8613354"><ele>562.6666666666666</ele><time>2026-04-04T15:31:41.984Z</time></trkpt><trkpt lat="40.7675291" lon="14.8614251"><ele>559.5</ele><time>2026-04-04T15:31:43.967Z</time></trkpt><trkpt lat="40.7674694" lon="14.8614781"><ele>556.3333333333334</ele><time>2026-04-04T15:31:44.966Z</time></trkpt><trkpt lat="40.7674087" lon="14.8615234"><ele>553.1666666666667</ele><time>2026-04-04T15:31:45.976Z</time></trkpt><trkpt lat="40.7673491" lon="14.8615656"><ele>550.0</ele><time>2026-04-04T15:31:46.975Z</time></trkpt><trkpt lat="40.7672391" lon="14.8616521"><ele>550.0</ele><time>2026-04-04T15:31:48.966Z</time></trkpt><trkpt lat="40.7671622" lon="14.8616894"><ele>550.0</ele><time>2026-04-04T15:31:50.962Z</time></trkpt><trkpt lat="40.767088" lon="14.8617156"><ele>550.0</ele><time>2026-04-04T15:31:52.965Z</time></trkpt><trkpt lat="40.7669843" lon="14.8617671"><ele>550.0</ele><time>2026-04-04T15:31:54.974Z</time></trkpt><trkpt lat="40.7668319" lon="14.8618319"><ele>550.0</ele><time>2026-04-04T15:31:56.963Z</time></trkpt><trkpt lat="40.7667511" lon="14.8618138"><ele>545.0</ele><time>2026-04-04T15:31:57.969Z</time></trkpt><trkpt lat="40.7666604" lon="14.8617914"><ele>540.0</ele><time>2026-04-04T15:31:58.97Z</time></trkpt><trkpt lat="40.7665507" lon="14.8617835"><ele>535.0</ele><time>2026-04-04T15:31:59.971Z</time></trkpt><trkpt lat="40.7664234" lon="14.8617818"><ele>530.0</ele><time>2026-04-04T15:32:00.973Z</time></trkpt><trkpt lat="40.7662992" lon="14.861761"><ele>530.0</ele><time>2026-04-04T15:32:01.978Z</time></trkpt><trkpt lat="40.7661868" lon="14.8617406"><ele>530.0</ele><time>2026-04-04T15:32:02.973Z</time></trkpt><trkpt lat="40.7660704" lon="14.8617398"><ele>530.0</ele><time>2026-04-04T15:32:03.952Z</time></trkpt><trkpt lat="40.7659658" lon="14.8617514"><ele>530.0</ele><time>2026-04-04T15:32:04.969Z</time></trkpt><trkpt lat="40.7658813" lon="14.8617691"><ele>530.0</ele><time>2026-04-04T15:32:05.967Z</time></trkpt><trkpt lat="40.7658098" lon="14.8618005"><ele>534.5</ele><time>2026-04-04T15:32:06.969Z</time></trkpt><trkpt lat="40.7657339" lon="14.861841"><ele>539.0</ele><time>2026-04-04T15:32:07.972Z</time></trkpt><trkpt lat="40.7656884" lon="14.8619114"><ele>543.5</ele><time>2026-04-04T15:32:08.968Z</time></trkpt><trkpt lat="40.7656308" lon="14.8619875"><ele>548.0</ele><time>2026-04-04T15:32:09.969Z</time></trkpt><trkpt lat="40.7655807" lon="14.8620669"><ele>552.5</ele><time>2026-04-04T15:32:10.975Z</time></trkpt><trkpt lat="40.7655047" lon="14.8621124"><ele>557.0</ele><time>2026-04-04T15:32:11.976Z</time></trkpt><trkpt lat="40.765425" lon="14.8621488"><ele>557.0</ele><time>2026-04-04T15:32:12.974Z</time></trkpt><trkpt lat="40.7653372" lon="14.8621902"><ele>557.0</ele><time>2026-04-04T15:32:13.968Z</time></trkpt><trkpt lat="40.7652727" lon="14.8622297"><ele>557.0</ele><time>2026-04-04T15:32:14.975Z</time></trkpt><trkpt lat="40.7651772" lon="14.8622986"><ele>557.0</ele><time>2026-04-04T15:32:16.978Z</time></trkpt><trkpt lat="40.7650893" lon="14.8624024"><ele>557.0</ele><time>2026-04-04T15:32:18.966Z</time></trkpt><trkpt lat="40.7650423" lon="14.8624738"><ele>553.5</ele><time>2026-04-04T15:32:20.981Z</time></trkpt><trkpt lat="40.7649445" lon="14.8625485"><ele>550.0</ele><time>2026-04-04T15:32:23.977Z</time></trkpt><trkpt lat="40.7648832" lon="14.8625914"><ele>546.5</ele><time>2026-04-04T15:32:24.966Z</time></trkpt><trkpt lat="40.7648152" lon="14.8626511"><ele>543.0</ele><time>2026-04-04T15:32:25.966Z</time></trkpt><trkpt lat="40.7647532" lon="14.862716"><ele>539.5</ele><time>2026-04-04T15:32:26.952Z</time></trkpt><trkpt lat="40.7646997" lon="14.862781"><ele>536.0</ele><time>2026-04-04T15:32:27.976Z</time></trkpt><trkpt lat="40.7646513" lon="14.8628403"><ele>536.0</ele><time>2026-04-04T15:32:28.974Z</time></trkpt><trkpt lat="40.7645677" lon="14.8629774"><ele>536.0</ele><time>2026-04-04T15:32:30.958Z</time></trkpt><trkpt lat="40.7645366" lon="14.8630578"><ele>536.0</ele><time>2026-04-04T15:32:31.965Z</time></trkpt><trkpt lat="40.7645204" lon="14.8631474"><ele>536.0</ele><time>2026-04-04T15:32:32.977Z</time></trkpt><trkpt lat="40.7645279" lon="14.8632975"><ele>536.0</ele><time>2026-04-04T15:32:34.987Z</time></trkpt><trkpt lat="40.7645598" lon="14.8634374"><ele>533.8</ele><time>2026-04-04T15:32:35.963Z</time></trkpt><trkpt lat="40.7645917" lon="14.8636001"><ele>531.6</ele><time>2026-04-04T15:32:36.973Z</time></trkpt><trkpt lat="40.7646169" lon="14.8637277"><ele>529.4</ele><time>2026-04-04T15:32:37.975Z</time></trkpt><trkpt lat="40.7646219" lon="14.863868"><ele>527.2</ele><time>2026-04-04T15:32:38.978Z</time></trkpt><trkpt lat="40.7646119" lon="14.8639966"><ele>525.0</ele><time>2026-04-04T15:32:39.979Z</time></trkpt><trkpt lat="40.7646159" lon="14.8640988"><ele>525.0</ele><time>2026-04-04T15:32:40.974Z</time></trkpt><trkpt lat="40.7646237" lon="14.8642308"><ele>525.0</ele><time>2026-04-04T15:32:42.98Z</time></trkpt><trkpt lat="40.7646623" lon="14.8643277"><ele>525.0</ele><time>2026-04-04T15:32:44.967Z</time></trkpt><trkpt lat="40.7647217" lon="14.8643826"><ele>525.0</ele><time>2026-04-04T15:32:45.971Z</time></trkpt><trkpt lat="40.7647703" lon="14.8644438"><ele>525.0</ele><time>2026-04-04T15:32:46.969Z</time></trkpt><trkpt lat="40.7648335" lon="14.8644978"><ele>525.0</ele><time>2026-04-04T15:32:47.975Z</time></trkpt><trkpt lat="40.764904" lon="14.8645363"><ele>521.1666666666666</ele><time>2026-04-04T15:32:48.978Z</time></trkpt><trkpt lat="40.7649648" lon="14.8645733"><ele>517.3333333333334</ele><time>2026-04-04T15:32:50.981Z</time></trkpt><trkpt lat="40.7649826" lon="14.8646731"><ele>513.5</ele><time>2026-04-04T15:32:52.978Z</time></trkpt><trkpt lat="40.7650001" lon="14.8648425"><ele>509.6666666666667</ele><time>2026-04-04T15:32:55.029Z</time></trkpt><trkpt lat="40.7650288" lon="14.8649586"><ele>505.83333333333337</ele><time>2026-04-04T15:32:57.033Z</time></trkpt><trkpt lat="40.7650816" lon="14.8650368"><ele>502.0</ele><time>2026-04-04T15:32:59.959Z</time></trkpt><trkpt lat="40.7651337" lon="14.8651031"><ele>501.99999999999994</ele><time>2026-04-04T15:33:01.968Z</time></trkpt><trkpt lat="40.7651873" lon="14.8651477"><ele>502.0</ele><time>2026-04-04T15:33:02.972Z</time></trkpt><trkpt lat="40.7652534" lon="14.865193"><ele>501.99999999999994</ele><time>2026-04-04T15:33:04.03Z</time></trkpt><trkpt lat="40.7653206" lon="14.8652267"><ele>501.99999999999994</ele><time>2026-04-04T15:33:04.949Z</time></trkpt><trkpt lat="40.7653949" lon="14.8652443"><ele>502.0</ele><time>2026-04-04T15:33:06.046Z</time></trkpt><trkpt lat="40.7654598" lon="14.8652543"><ele>501.99999999999994</ele><time>2026-04-04T15:33:07.036Z</time></trkpt><trkpt lat="40.7655247" lon="14.8652367"><ele>501.99999999999994</ele><time>2026-04-04T15:33:08.968Z</time></trkpt><trkpt lat="40.7655693" lon="14.8653309"><ele>502.00000000000006</ele><time>2026-04-04T15:33:11.973Z</time></trkpt><trkpt lat="40.7655546" lon="14.8654462"><ele>502.0</ele><time>2026-04-04T15:33:13.998Z</time></trkpt><trkpt lat="40.7655483" lon="14.8655755"><ele>502.0</ele><time>2026-04-04T15:33:15.965Z</time></trkpt><trkpt lat="40.7655599" lon="14.8656581"><ele>502.0</ele><time>2026-04-04T15:33:16.966Z</time></trkpt><trkpt lat="40.7655778" lon="14.865826"><ele>502.00000000000006</ele><time>2026-04-04T15:33:18.979Z</time></trkpt><trkpt lat="40.7656178" lon="14.8659006"><ele>502.0</ele><time>2026-04-04T15:33:19.964Z</time></trkpt><trkpt lat="40.7656561" lon="14.8659706"><ele>502.50000000000006</ele><time>2026-04-04T15:33:20.979Z</time></trkpt><trkpt lat="40.76571" lon="14.8660446"><ele>503.0</ele><time>2026-04-04T15:33:21.947Z</time></trkpt><trkpt lat="40.765778" lon="14.8660851"><ele>503.5</ele><time>2026-04-04T15:33:22.972Z</time></trkpt><trkpt lat="40.765847" lon="14.8661076"><ele>504.0</ele><time>2026-04-04T15:33:23.978Z</time></trkpt><trkpt lat="40.7659571" lon="14.866129"><ele>504.50000000000006</ele><time>2026-04-04T15:33:25.958Z</time></trkpt><trkpt lat="40.7660223" lon="14.8661514"><ele>505.0</ele><time>2026-04-04T15:33:26.958Z</time></trkpt><trkpt lat="40.76609" lon="14.8661845"><ele>505.0</ele><time>2026-04-04T15:33:27.951Z</time></trkpt><trkpt lat="40.7661635" lon="14.866187"><ele>505.0</ele><time>2026-04-04T15:33:28.951Z</time></trkpt><trkpt lat="40.7662386" lon="14.8661203"><ele>505.0</ele><time>2026-04-04T15:33:30.963Z</time></trkpt><trkpt lat="40.766322" lon="14.8661179"><ele>505.0</ele><time>2026-04-04T15:33:34.968Z</time></trkpt><trkpt lat="40.7664099" lon="14.8661728"><ele>505.0</ele><time>2026-04-04T15:33:36.975Z</time></trkpt><trkpt lat="40.7665169" lon="14.8662232"><ele>505.00000000000006</ele><time>2026-04-04T15:33:38.956Z</time></trkpt><trkpt lat="40.7665895" lon="14.866243"><ele>505.0</ele><time>2026-04-04T15:33:40.971Z</time></trkpt><trkpt lat="40.7666749" lon="14.8662901"><ele>505.0</ele><time>2026-04-04T15:33:43.978Z</time></trkpt><trkpt lat="40.7667672" lon="14.8663341"><ele>505.0</ele><time>2026-04-04T15:33:45.974Z</time></trkpt><trkpt lat="40.766831" lon="14.8663502"><ele>505.00000000000006</ele><time>2026-04-04T15:33:46.959Z</time></trkpt><trkpt lat="40.766925" lon="14.8663725"><ele>505.0</ele><time>2026-04-04T15:33:48.977Z</time></trkpt><trkpt lat="40.7669902" lon="14.866394"><ele>505.0</ele><time>2026-04-04T15:33:50.974Z</time></trkpt><trkpt lat="40.7669779" lon="14.8665013"><ele>505.0</ele><time>2026-04-04T15:33:54.946Z</time></trkpt><trkpt lat="40.7669053" lon="14.8665958"><ele>505.0</ele><time>2026-04-04T15:33:56.959Z</time></trkpt><trkpt lat="40.7668431" lon="14.8666633"><ele>505.0</ele><time>2026-04-04T15:33:57.942Z</time></trkpt><trkpt lat="40.7667793" lon="14.8667532"><ele>505.0</ele><time>2026-04-04T15:33:58.961Z</time></trkpt><trkpt lat="40.7666914" lon="14.8668913"><ele>505.2</ele><time>2026-04-04T15:33:59.963Z</time></trkpt><trkpt lat="40.7665762" lon="14.8670861"><ele>505.4</ele><time>2026-04-04T15:34:00.96Z</time></trkpt><trkpt lat="40.7665221" lon="14.8671765"><ele>505.6</ele><time>2026-04-04T15:34:01.968Z</time></trkpt><trkpt lat="40.766508" lon="14.8672692"><ele>505.8</ele><time>2026-04-04T15:34:02.975Z</time></trkpt><trkpt lat="40.7665139" lon="14.8673541"><ele>506.0</ele><time>2026-04-04T15:34:04.965Z</time></trkpt><trkpt lat="40.766568" lon="14.8674099"><ele>505.99999999999994</ele><time>2026-04-04T15:34:05.965Z</time></trkpt><trkpt lat="40.7665646" lon="14.8674975"><ele>506.0</ele><time>2026-04-04T15:34:07.98Z</time></trkpt><trkpt lat="40.7665849" lon="14.8675916"><ele>506.0</ele><time>2026-04-04T15:34:09.971Z</time></trkpt><trkpt lat="40.7666346" lon="14.8676526"><ele>506.0</ele><time>2026-04-04T15:34:11.98Z</time></trkpt><trkpt lat="40.7667232" lon="14.8677396"><ele>505.99999999999994</ele><time>2026-04-04T15:35:10.991Z</time></trkpt><trkpt lat="40.766683" lon="14.8678057"><ele>506.0</ele><time>2026-04-04T15:35:15.978Z</time></trkpt><trkpt lat="40.7665951" lon="14.8678385"><ele>503.99999999999994</ele><time>2026-04-04T15:35:18.986Z</time></trkpt><trkpt lat="40.7665053" lon="14.8678501"><ele>502.0</ele><time>2026-04-04T15:35:20.982Z</time></trkpt><trkpt lat="40.7663926" lon="14.8678435"><ele>500.0</ele><time>2026-04-04T15:35:22.989Z</time></trkpt><trkpt lat="40.7663269" lon="14.8678343"><ele>498.0</ele><time>2026-04-04T15:35:24.039Z</time></trkpt><trkpt lat="40.7662401" lon="14.8678034"><ele>495.99999999999994</ele><time>2026-04-04T15:35:26.05Z</time></trkpt><trkpt lat="40.766169" lon="14.8678117"><ele>494.0</ele><time>2026-04-04T15:35:28.977Z</time></trkpt><trkpt lat="40.7661846" lon="14.8679424"><ele>494.0</ele><time>2026-04-04T15:35:32.031Z</time></trkpt><trkpt lat="40.7661988" lon="14.8680503"><ele>494.0</ele><time>2026-04-04T15:35:33.971Z</time></trkpt><trkpt lat="40.7661993" lon="14.8682037"><ele>494.0</ele><time>2026-04-04T15:35:36.04Z</time></trkpt><trkpt lat="40.7662152" lon="14.8683013"><ele>494.0</ele><time>2026-04-04T15:35:37.034Z</time></trkpt><trkpt lat="40.7662692" lon="14.8683936"><ele>494.0</ele><time>2026-04-04T15:35:37.958Z</time></trkpt><trkpt lat="40.7663391" lon="14.8684767"><ele>489.4</ele><time>2026-04-04T15:35:38.964Z</time></trkpt><trkpt lat="40.7664141" lon="14.868558"><ele>484.79999999999995</ele><time>2026-04-04T15:35:39.981Z</time></trkpt><trkpt lat="40.7664709" lon="14.8686269"><ele>480.20000000000005</ele><time>2026-04-04T15:35:41.054Z</time></trkpt><trkpt lat="40.7665634" lon="14.8687124"><ele>475.6</ele><time>2026-04-04T15:35:42.98Z</time></trkpt><trkpt lat="40.766638" lon="14.8688042"><ele>471.0</ele><time>2026-04-04T15:35:43.964Z</time></trkpt><trkpt lat="40.7666894" lon="14.8688817"><ele>471.00000000000006</ele><time>2026-04-04T15:35:44.978Z</time></trkpt><trkpt lat="40.7667336" lon="14.8689787"><ele>471.0</ele><time>2026-04-04T15:35:47.044Z</time></trkpt><trkpt lat="40.7667284" lon="14.8690625"><ele>471.00000000000006</ele><time>2026-04-04T15:35:48.972Z</time></trkpt><trkpt lat="40.7667494" lon="14.8691456"><ele>471.00000000000006</ele><time>2026-04-04T15:35:51.977Z</time></trkpt><trkpt lat="40.7667967" lon="14.8692035"><ele>471.0</ele><time>2026-04-04T15:35:53.982Z</time></trkpt><trkpt lat="40.7668635" lon="14.8692266"><ele>471.00000000000006</ele><time>2026-04-04T15:35:55.999Z</time></trkpt><trkpt lat="40.7668379" lon="14.8693252"><ele>471.00000000000006</ele><time>2026-04-04T15:36:01.981Z</time></trkpt><trkpt lat="40.76682" lon="14.8694193"><ele>473.6</ele><time>2026-04-04T15:36:03.973Z</time></trkpt><trkpt lat="40.7668325" lon="14.8695097"><ele>476.20000000000005</ele><time>2026-04-04T15:36:08.968Z</time></trkpt><trkpt lat="40.766732" lon="14.8695049"><ele>478.79999999999995</ele><time>2026-04-04T15:36:15.987Z</time></trkpt><trkpt lat="40.766649" lon="14.8694916"><ele>481.4</ele><time>2026-04-04T15:36:18.968Z</time></trkpt><trkpt lat="40.7665096" lon="14.8694761"><ele>484.0</ele><time>2026-04-04T15:36:49.958Z</time></trkpt><trkpt lat="40.7664334" lon="14.8694604"><ele>484.0</ele><time>2026-04-04T15:37:14.989Z</time></trkpt><trkpt lat="40.7663676" lon="14.869421"><ele>483.99999999999994</ele><time>2026-04-04T15:37:37.983Z</time></trkpt><trkpt lat="40.7663038" lon="14.8694075"><ele>484.0</ele><time>2026-04-04T15:37:43.972Z</time></trkpt><trkpt lat="40.7663279" lon="14.8695147"><ele>484.0</ele><time>2026-04-04T15:37:49.962Z</time></trkpt><trkpt lat="40.7663809" lon="14.8695614"><ele>483.99999999999994</ele><time>2026-04-04T15:37:50.981Z</time></trkpt><trkpt lat="40.7664427" lon="14.8696061"><ele>484.0</ele><time>2026-04-04T15:37:51.987Z</time></trkpt><trkpt lat="40.766506" lon="14.8696478"><ele>484.0</ele><time>2026-04-04T15:37:52.984Z</time></trkpt><trkpt lat="40.7665729" lon="14.8696959"><ele>484.00000000000006</ele><time>2026-04-04T15:37:53.989Z</time></trkpt><trkpt lat="40.7666315" lon="14.8697377"><ele>484.0</ele><time>2026-04-04T15:37:54.984Z</time></trkpt><trkpt lat="40.7667082" lon="14.869826"><ele>484.0</ele><time>2026-04-04T15:37:56.979Z</time></trkpt><trkpt lat="40.7667276" lon="14.8699463"><ele>484.0</ele><time>2026-04-04T15:37:58.971Z</time></trkpt><trkpt lat="40.7667509" lon="14.8700314"><ele>484.00000000000006</ele><time>2026-04-04T15:38:00.999Z</time></trkpt><trkpt lat="40.7668056" lon="14.8701097"><ele>484.0</ele><time>2026-04-04T15:38:03.981Z</time></trkpt><trkpt lat="40.7668596" lon="14.8701683"><ele>484.00000000000006</ele><time>2026-04-04T15:38:06.981Z</time></trkpt><trkpt lat="40.7669195" lon="14.8701063"><ele>484.0</ele><time>2026-04-04T15:38:11.981Z</time></trkpt><trkpt lat="40.7668752" lon="14.8700199"><ele>484.0</ele><time>2026-04-04T15:38:13.975Z</time></trkpt><trkpt lat="40.7667865" lon="14.869959"><ele>484.0</ele><time>2026-04-04T15:38:15.984Z</time></trkpt><trkpt lat="40.7666578" lon="14.8699359"><ele>484.00000000000006</ele><time>2026-04-04T15:38:17.986Z</time></trkpt><trkpt lat="40.7665944" lon="14.869933"><ele>484.0</ele><time>2026-04-04T15:38:18.989Z</time></trkpt><trkpt lat="40.7664717" lon="14.869888"><ele>484.00000000000006</ele><time>2026-04-04T15:38:20.985Z</time></trkpt><trkpt lat="40.7663818" lon="14.8698712"><ele>484.0</ele><time>2026-04-04T15:38:21.969Z</time></trkpt><trkpt lat="40.7662993" lon="14.8698602"><ele>484.0</ele><time>2026-04-04T15:38:22.983Z</time></trkpt><trkpt lat="40.7662342" lon="14.8698391"><ele>484.0</ele><time>2026-04-04T15:38:23.98Z</time></trkpt><trkpt lat="40.7661625" lon="14.8698209"><ele>484.00000000000006</ele><time>2026-04-04T15:38:24.982Z</time></trkpt><trkpt lat="40.7660706" lon="14.8698256"><ele>484.0</ele><time>2026-04-04T15:38:25.975Z</time></trkpt><trkpt lat="40.7659413" lon="14.8698478"><ele>487.6</ele><time>2026-04-04T15:38:26.961Z</time></trkpt><trkpt lat="40.7658303" lon="14.8698489"><ele>491.2</ele><time>2026-04-04T15:38:27.983Z</time></trkpt><trkpt lat="40.7657498" lon="14.8698499"><ele>494.80000000000007</ele><time>2026-04-04T15:38:28.986Z</time></trkpt><trkpt lat="40.7656643" lon="14.8698571"><ele>498.40000000000003</ele><time>2026-04-04T15:38:30.055Z</time></trkpt><trkpt lat="40.7655327" lon="14.8698629"><ele>502.0</ele><time>2026-04-04T15:38:31.034Z</time></trkpt><trkpt lat="40.7654366" lon="14.8698665"><ele>502.0</ele><time>2026-04-04T15:38:32.032Z</time></trkpt><trkpt lat="40.7653257" lon="14.8698591"><ele>502.0</ele><time>2026-04-04T15:38:32.969Z</time></trkpt><trkpt lat="40.7651899" lon="14.8698459"><ele>502.0</ele><time>2026-04-04T15:38:33.974Z</time></trkpt><trkpt lat="40.7650749" lon="14.8698425"><ele>502.0</ele><time>2026-04-04T15:38:34.971Z</time></trkpt><trkpt lat="40.764971" lon="14.8698402"><ele>505.5</ele><time>2026-04-04T15:38:35.975Z</time></trkpt><trkpt lat="40.7648565" lon="14.8698913"><ele>509.0</ele><time>2026-04-04T15:38:36.972Z</time></trkpt><trkpt lat="40.7647283" lon="14.8699851"><ele>512.5</ele><time>2026-04-04T15:38:37.946Z</time></trkpt><trkpt lat="40.7646039" lon="14.8700811"><ele>516.0</ele><time>2026-04-04T15:38:39.041Z</time></trkpt><trkpt lat="40.7644749" lon="14.8701764"><ele>516.8</ele><time>2026-04-04T15:38:39.977Z</time></trkpt><trkpt lat="40.7643613" lon="14.8702533"><ele>517.6</ele><time>2026-04-04T15:38:40.965Z</time></trkpt><trkpt lat="40.7642524" lon="14.8702969"><ele>518.4</ele><time>2026-04-04T15:38:41.964Z</time></trkpt><trkpt lat="40.764188" lon="14.8703204"><ele>519.2</ele><time>2026-04-04T15:38:42.967Z</time></trkpt><trkpt lat="40.7641242" lon="14.8703418"><ele>520.0</ele><time>2026-04-04T15:38:43.971Z</time></trkpt><trkpt lat="40.7639974" lon="14.8704074"><ele>520.0</ele><time>2026-04-04T15:38:45.967Z</time></trkpt><trkpt lat="40.763895" lon="14.8704635"><ele>520.0</ele><time>2026-04-04T15:38:46.996Z</time></trkpt><trkpt lat="40.7638049" lon="14.8705109"><ele>520.0</ele><time>2026-04-04T15:38:47.961Z</time></trkpt><trkpt lat="40.7637164" lon="14.8705757"><ele>520.0</ele><time>2026-04-04T15:38:49.041Z</time></trkpt><trkpt lat="40.7636366" lon="14.8706549"><ele>520.0</ele><time>2026-04-04T15:38:49.959Z</time></trkpt><trkpt lat="40.7635805" lon="14.8707129"><ele>520.0</ele><time>2026-04-04T15:38:50.972Z</time></trkpt><trkpt lat="40.7635171" lon="14.8707861"><ele>520.0</ele><time>2026-04-04T15:38:52.958Z</time></trkpt><trkpt lat="40.7635717" lon="14.8709069"><ele>520.0</ele><time>2026-04-04T15:38:54.964Z</time></trkpt><trkpt lat="40.7636312" lon="14.8709548"><ele>520.0</ele><time>2026-04-04T15:38:55.975Z</time></trkpt><trkpt lat="40.7636928" lon="14.871006"><ele>520.0</ele><time>2026-04-04T15:38:56.981Z</time></trkpt><trkpt lat="40.7637922" lon="14.8711096"><ele>516.1666666666667</ele><time>2026-04-04T15:38:58.974Z</time></trkpt><trkpt lat="40.7638353" lon="14.8711812"><ele>512.3333333333334</ele><time>2026-04-04T15:39:00.972Z</time></trkpt><trkpt lat="40.7638892" lon="14.8712695"><ele>508.5</ele><time>2026-04-04T15:39:01.978Z</time></trkpt><trkpt lat="40.763941" lon="14.8713369"><ele>504.66666666666663</ele><time>2026-04-04T15:39:02.973Z</time></trkpt><trkpt lat="40.7639896" lon="14.8714091"><ele>500.8333333333333</ele><time>2026-04-04T15:39:04.053Z</time></trkpt><trkpt lat="40.7640366" lon="14.8714709"><ele>497.0</ele><time>2026-04-04T15:39:05.045Z</time></trkpt><trkpt lat="40.7641056" lon="14.8716007"><ele>496.99999999999994</ele><time>2026-04-04T15:39:07.99Z</time></trkpt><trkpt lat="40.764135" lon="14.8716939"><ele>497.0</ele><time>2026-04-04T15:39:09.962Z</time></trkpt><trkpt lat="40.7641842" lon="14.8717868"><ele>497.0</ele><time>2026-04-04T15:39:12.057Z</time></trkpt><trkpt lat="40.7642344" lon="14.8718842"><ele>497.0</ele><time>2026-04-04T15:39:13.97Z</time></trkpt><trkpt lat="40.7642833" lon="14.8719853"><ele>496.99999999999994</ele><time>2026-04-04T15:39:15.967Z</time></trkpt><trkpt lat="40.7643212" lon="14.8720977"><ele>497.0</ele><time>2026-04-04T15:39:17.96Z</time></trkpt><trkpt lat="40.7643498" lon="14.8722115"><ele>496.20000000000005</ele><time>2026-04-04T15:39:20.05Z</time></trkpt><trkpt lat="40.7642963" lon="14.8723004"><ele>495.40000000000003</ele><time>2026-04-04T15:39:22.965Z</time></trkpt><trkpt lat="40.7642681" lon="14.872398"><ele>494.59999999999997</ele><time>2026-04-04T15:39:24.959Z</time></trkpt><trkpt lat="40.7642443" lon="14.872528"><ele>493.79999999999995</ele><time>2026-04-04T15:39:27.963Z</time></trkpt><trkpt lat="40.7641778" lon="14.8726018"><ele>493.0</ele><time>2026-04-04T15:39:30.084Z</time></trkpt><trkpt lat="40.7640649" lon="14.8726947"><ele>493.00000000000006</ele><time>2026-04-04T15:39:31.968Z</time></trkpt><trkpt lat="40.7639982" lon="14.8727401"><ele>493.0</ele><time>2026-04-04T15:39:32.964Z</time></trkpt><trkpt lat="40.7638952" lon="14.8728154"><ele>493.0</ele><time>2026-04-04T15:39:34.964Z</time></trkpt><trkpt lat="40.7638311" lon="14.8728422"><ele>493.0</ele><time>2026-04-04T15:39:35.946Z</time></trkpt><trkpt lat="40.7637597" lon="14.8728941"><ele>493.00000000000006</ele><time>2026-04-04T15:39:37.025Z</time></trkpt><trkpt lat="40.763691" lon="14.8729727"><ele>493.0</ele><time>2026-04-04T15:39:37.958Z</time></trkpt><trkpt lat="40.7636537" lon="14.8730642"><ele>493.0</ele><time>2026-04-04T15:39:39.958Z</time></trkpt><trkpt lat="40.763676" lon="14.8731904"><ele>492.99999999999994</ele><time>2026-04-04T15:39:42.024Z</time></trkpt><trkpt lat="40.7636755" lon="14.8733506"><ele>492.99999999999994</ele><time>2026-04-04T15:39:43.968Z</time></trkpt><trkpt lat="40.7636755" lon="14.8734537"><ele>493.0</ele><time>2026-04-04T15:39:45.962Z</time></trkpt><trkpt lat="40.7636566" lon="14.8735566"><ele>493.0</ele><time>2026-04-04T15:40:04.963Z</time></trkpt><trkpt lat="40.763584" lon="14.8735105"><ele>493.00000000000006</ele><time>2026-04-04T15:40:11.963Z</time></trkpt><trkpt lat="40.7635506" lon="14.8734128"><ele>493.0</ele><time>2026-04-04T15:40:13.973Z</time></trkpt><trkpt lat="40.7635101" lon="14.8733133"><ele>493.0</ele><time>2026-04-04T15:40:15.962Z</time></trkpt><trkpt lat="40.7634732" lon="14.8732407"><ele>493.0</ele><time>2026-04-04T15:40:17.968Z</time></trkpt><trkpt lat="40.7634327" lon="14.8731434"><ele>493.00000000000006</ele><time>2026-04-04T15:40:19.97Z</time></trkpt><trkpt lat="40.7634359" lon="14.8730407"><ele>493.0</ele><time>2026-04-04T15:40:21.958Z</time></trkpt><trkpt lat="40.7634929" lon="14.8729639"><ele>493.00000000000006</ele><time>2026-04-04T15:40:23.966Z</time></trkpt><trkpt lat="40.7635755" lon="14.8728996"><ele>493.0</ele><time>2026-04-04T15:40:26.058Z</time></trkpt><trkpt lat="40.7636516" lon="14.8728334"><ele>493.0</ele><time>2026-04-04T15:40:27.956Z</time></trkpt><trkpt lat="40.7636862" lon="14.8727321"><ele>493.0</ele><time>2026-04-04T15:40:29.97Z</time></trkpt><trkpt lat="40.7637227" lon="14.8726494"><ele>493.00000000000006</ele><time>2026-04-04T15:40:31.958Z</time></trkpt><trkpt lat="40.7637403" lon="14.8725601"><ele>493.0</ele><time>2026-04-04T15:40:35.016Z</time></trkpt><trkpt lat="40.7636584" lon="14.8725586"><ele>490.71428571428567</ele><time>2026-04-04T15:40:38.981Z</time></trkpt><trkpt lat="40.7635939" lon="14.8725378"><ele>488.42857142857144</ele><time>2026-04-04T15:40:40.964Z</time></trkpt><trkpt lat="40.7635325" lon="14.872515"><ele>486.1428571428571</ele><time>2026-04-04T15:40:42.969Z</time></trkpt><trkpt lat="40.7635184" lon="14.8724314"><ele>483.85714285714283</ele><time>2026-04-04T15:40:46.972Z</time></trkpt><trkpt lat="40.7634443" lon="14.8723842"><ele>481.57142857142856</ele><time>2026-04-04T15:40:50.963Z</time></trkpt><trkpt lat="40.7633662" lon="14.8723222"><ele>479.2857142857143</ele><time>2026-04-04T15:40:53.967Z</time></trkpt><trkpt lat="40.7633039" lon="14.8722813"><ele>477.0</ele><time>2026-04-04T15:40:55.954Z</time></trkpt><trkpt lat="40.7631936" lon="14.8721647"><ele>471.0</ele><time>2026-04-04T15:40:57.966Z</time></trkpt><trkpt lat="40.7631328" lon="14.8721087"><ele>465.0</ele><time>2026-04-04T15:40:58.966Z</time></trkpt><trkpt lat="40.763038" lon="14.8720381"><ele>459.0</ele><time>2026-04-04T15:41:00.967Z</time></trkpt><trkpt lat="40.7629768" lon="14.8720158"><ele>453.0</ele><time>2026-04-04T15:41:01.961Z</time></trkpt><trkpt lat="40.7629104" lon="14.8719841"><ele>447.0</ele><time>2026-04-04T15:41:02.975Z</time></trkpt><trkpt lat="40.7628253" lon="14.8719296"><ele>441.0</ele><time>2026-04-04T15:41:03.94Z</time></trkpt><trkpt lat="40.7627544" lon="14.8718849"><ele>439.8333333333333</ele><time>2026-04-04T15:41:04.961Z</time></trkpt><trkpt lat="40.7626796" lon="14.8718623"><ele>438.66666666666663</ele><time>2026-04-04T15:41:05.96Z</time></trkpt><trkpt lat="40.7626055" lon="14.8718446"><ele>437.5</ele><time>2026-04-04T15:41:06.97Z</time></trkpt><trkpt lat="40.7625282" lon="14.871825"><ele>436.3333333333333</ele><time>2026-04-04T15:41:07.954Z</time></trkpt><trkpt lat="40.7624621" lon="14.8718111"><ele>435.16666666666663</ele><time>2026-04-04T15:41:08.962Z</time></trkpt><trkpt lat="40.7623713" lon="14.8717545"><ele>434.0</ele><time>2026-04-04T15:41:10.957Z</time></trkpt><trkpt lat="40.7623074" lon="14.8717388"><ele>433.99999999999994</ele><time>2026-04-04T15:41:13.953Z</time></trkpt><trkpt lat="40.7623788" lon="14.8717526"><ele>434.0</ele><time>2026-04-04T15:41:17.025Z</time></trkpt><trkpt lat="40.7624331" lon="14.8718093"><ele>434.0</ele><time>2026-04-04T15:41:18.973Z</time></trkpt><trkpt lat="40.7623554" lon="14.8718249"><ele>434.0</ele><time>2026-04-04T15:41:24.971Z</time></trkpt><trkpt lat="40.7622934" lon="14.8718609"><ele>433.99999999999994</ele><time>2026-04-04T15:41:26.974Z</time></trkpt><trkpt lat="40.7622094" lon="14.8719038"><ele>434.0</ele><time>2026-04-04T15:41:28.97Z</time></trkpt><trkpt lat="40.7621284" lon="14.8718704"><ele>434.0</ele><time>2026-04-04T15:41:30.971Z</time></trkpt><trkpt lat="40.7620507" lon="14.8717785"><ele>434.0</ele><time>2026-04-04T15:41:32.971Z</time></trkpt><trkpt lat="40.7619919" lon="14.8717233"><ele>434.0</ele><time>2026-04-04T15:41:34.947Z</time></trkpt><trkpt lat="40.7619386" lon="14.8716018"><ele>434.0</ele><time>2026-04-04T15:41:36.95Z</time></trkpt><trkpt lat="40.7618716" lon="14.8715229"><ele>434.0</ele><time>2026-04-04T15:41:38.953Z</time></trkpt><trkpt lat="40.7618599" lon="14.8716255"><ele>429.57142857142856</ele><time>2026-04-04T15:41:42.954Z</time></trkpt><trkpt lat="40.7618595" lon="14.8717232"><ele>425.1428571428571</ele><time>2026-04-04T15:41:45.024Z</time></trkpt><trkpt lat="40.7618518" lon="14.8718082"><ele>420.7142857142857</ele><time>2026-04-04T15:41:47.959Z</time></trkpt><trkpt lat="40.7618232" lon="14.8717288"><ele>416.2857142857143</ele><time>2026-04-04T15:41:50.961Z</time></trkpt><trkpt lat="40.7617716" lon="14.8716589"><ele>411.85714285714283</ele><time>2026-04-04T15:41:52.979Z</time></trkpt><trkpt lat="40.761732" lon="14.87158"><ele>407.42857142857144</ele><time>2026-04-04T15:41:55.031Z</time></trkpt><trkpt lat="40.7617276" lon="14.8714615"><ele>403.0</ele><time>2026-04-04T15:41:57.028Z</time></trkpt><trkpt lat="40.7616512" lon="14.8714611"><ele>403.0</ele><time>2026-04-04T15:42:00.973Z</time></trkpt><trkpt lat="40.7615696" lon="14.8714241"><ele>403.0</ele><time>2026-04-04T15:42:03.98Z</time></trkpt><trkpt lat="40.7614798" lon="14.8713697"><ele>403.0</ele><time>2026-04-04T15:42:06.031Z</time></trkpt><trkpt lat="40.7613618" lon="14.8713218"><ele>403.0</ele><time>2026-04-04T15:42:07.971Z</time></trkpt><trkpt lat="40.7612864" lon="14.8712884"><ele>403.0</ele><time>2026-04-04T15:42:08.975Z</time></trkpt><trkpt lat="40.7612077" lon="14.8712459"><ele>403.00000000000006</ele><time>2026-04-04T15:42:09.974Z</time></trkpt><trkpt lat="40.761133" lon="14.8712242"><ele>403.0</ele><time>2026-04-04T15:42:10.978Z</time></trkpt><trkpt lat="40.7610534" lon="14.8712039"><ele>403.0</ele><time>2026-04-04T15:42:12.041Z</time></trkpt><trkpt lat="40.7609825" lon="14.8711902"><ele>403.0</ele><time>2026-04-04T15:42:12.97Z</time></trkpt><trkpt lat="40.7609165" lon="14.871168"><ele>403.00000000000006</ele><time>2026-04-04T15:42:13.966Z</time></trkpt><trkpt lat="40.7607925" lon="14.8711203"><ele>403.0</ele><time>2026-04-04T15:42:16.052Z</time></trkpt><trkpt lat="40.7606825" lon="14.871058"><ele>402.33333333333337</ele><time>2026-04-04T15:42:17.977Z</time></trkpt><trkpt lat="40.7606309" lon="14.8709999"><ele>401.6666666666667</ele><time>2026-04-04T15:42:18.981Z</time></trkpt><trkpt lat="40.760568" lon="14.8709197"><ele>401.0</ele><time>2026-04-04T15:42:20.969Z</time></trkpt><trkpt lat="40.7605039" lon="14.8709485"><ele>400.33333333333337</ele><time>2026-04-04T15:42:27.976Z</time></trkpt><trkpt lat="40.7605008" lon="14.8710458"><ele>399.6666666666667</ele><time>2026-04-04T15:42:35.975Z</time></trkpt><trkpt lat="40.7605354" lon="14.8711279"><ele>399.0</ele><time>2026-04-04T15:42:41.978Z</time></trkpt><trkpt lat="40.760585" lon="14.8712215"><ele>399.0</ele><time>2026-04-04T15:42:45.97Z</time></trkpt><trkpt lat="40.7606544" lon="14.871274"><ele>399.0</ele><time>2026-04-04T15:42:48.979Z</time></trkpt><trkpt lat="40.7607278" lon="14.8713141"><ele>399.0</ele><time>2026-04-04T15:42:51.976Z</time></trkpt><trkpt lat="40.7607987" lon="14.871375"><ele>399.0</ele><time>2026-04-04T15:42:54.973Z</time></trkpt><trkpt lat="40.7608635" lon="14.8714019"><ele>399.0</ele><time>2026-04-04T15:42:57.038Z</time></trkpt><trkpt lat="40.7609277" lon="14.871411"><ele>399.0</ele><time>2026-04-04T15:42:58.967Z</time></trkpt><trkpt lat="40.7610066" lon="14.871412"><ele>399.57142857142856</ele><time>2026-04-04T15:43:00.967Z</time></trkpt><trkpt lat="40.7610827" lon="14.8714333"><ele>400.1428571428571</ele><time>2026-04-04T15:43:02.971Z</time></trkpt><trkpt lat="40.7611473" lon="14.871451"><ele>400.7142857142857</ele><time>2026-04-04T15:43:04.977Z</time></trkpt><trkpt lat="40.7611984" lon="14.8715041"><ele>401.2857142857143</ele><time>2026-04-04T15:43:07.028Z</time></trkpt><trkpt lat="40.7612547" lon="14.8715525"><ele>401.85714285714283</ele><time>2026-04-04T15:43:08.969Z</time></trkpt><trkpt lat="40.7613169" lon="14.8716026"><ele>402.42857142857144</ele><time>2026-04-04T15:43:10.96Z</time></trkpt><trkpt lat="40.7613809" lon="14.8716639"><ele>403.0</ele><time>2026-04-04T15:43:12.968Z</time></trkpt><trkpt lat="40.761443" lon="14.871701"><ele>402.83333333333337</ele><time>2026-04-04T15:43:14.982Z</time></trkpt><trkpt lat="40.7615021" lon="14.871797"><ele>402.6666666666667</ele><time>2026-04-04T15:43:16.975Z</time></trkpt><trkpt lat="40.7615586" lon="14.8719285"><ele>402.5</ele><time>2026-04-04T15:43:18.972Z</time></trkpt><trkpt lat="40.7616141" lon="14.8720472"><ele>402.33333333333337</ele><time>2026-04-04T15:43:20.971Z</time></trkpt><trkpt lat="40.7616627" lon="14.8721077"><ele>402.1666666666667</ele><time>2026-04-04T15:43:22.961Z</time></trkpt><trkpt lat="40.7617017" lon="14.8721762"><ele>402.0</ele><time>2026-04-04T15:43:24.958Z</time></trkpt><trkpt lat="40.7617521" lon="14.8722659"><ele>402.0</ele><time>2026-04-04T15:43:26.981Z</time></trkpt><trkpt lat="40.7617888" lon="14.8723422"><ele>402.0</ele><time>2026-04-04T15:43:28.985Z</time></trkpt><trkpt lat="40.7618173" lon="14.8724239"><ele>402.0</ele><time>2026-04-04T15:43:30.957Z</time></trkpt><trkpt lat="40.7618799" lon="14.8726292"><ele>402.0</ele><time>2026-04-04T15:43:34.971Z</time></trkpt><trkpt lat="40.7619346" lon="14.8727162"><ele>402.0</ele><time>2026-04-04T15:43:35.972Z</time></trkpt><trkpt lat="40.7620117" lon="14.8727767"><ele>404.0</ele><time>2026-04-04T15:43:38.968Z</time></trkpt><trkpt lat="40.7620429" lon="14.872865"><ele>406.0</ele><time>2026-04-04T15:43:41.975Z</time></trkpt><trkpt lat="40.7620986" lon="14.8729333"><ele>408.0</ele><time>2026-04-04T15:43:44.973Z</time></trkpt><trkpt lat="40.7621995" lon="14.8730491"><ele>410.0</ele><time>2026-04-04T15:43:47.989Z</time></trkpt><trkpt lat="40.7623755" lon="14.8731153"><ele>410.0</ele><time>2026-04-04T15:43:48.96Z</time></trkpt><trkpt lat="40.7624861" lon="14.8731804"><ele>410.0</ele><time>2026-04-04T15:43:50.969Z</time></trkpt><trkpt lat="40.7625544" lon="14.8731735"><ele>410.0</ele><time>2026-04-04T15:43:52.963Z</time></trkpt><trkpt lat="40.7626263" lon="14.8733352"><ele>410.0</ele><time>2026-04-04T15:43:54.966Z</time></trkpt><trkpt lat="40.7626442" lon="14.8734707"><ele>410.0</ele><time>2026-04-04T15:43:55.959Z</time></trkpt><trkpt lat="40.7626547" lon="14.8735743"><ele>411.49999999999994</ele><time>2026-04-04T15:43:57.957Z</time></trkpt><trkpt lat="40.7626718" lon="14.8736632"><ele>413.0</ele><time>2026-04-04T15:43:59.973Z</time></trkpt><trkpt lat="40.762672" lon="14.8737538"><ele>414.5</ele><time>2026-04-04T15:44:01.975Z</time></trkpt><trkpt lat="40.7626632" lon="14.8738393"><ele>416.0</ele><time>2026-04-04T15:44:03.961Z</time></trkpt><trkpt lat="40.7626847" lon="14.8739295"><ele>417.49999999999994</ele><time>2026-04-04T15:44:05.976Z</time></trkpt><trkpt lat="40.762714" lon="14.8740234"><ele>419.0</ele><time>2026-04-04T15:44:07.975Z</time></trkpt><trkpt lat="40.7627436" lon="14.8742486"><ele>422.99999999999994</ele><time>2026-04-04T15:44:09.03Z</time></trkpt><trkpt lat="40.7627611" lon="14.8744027"><ele>427.0</ele><time>2026-04-04T15:44:10.037Z</time></trkpt><trkpt lat="40.7627707" lon="14.8745172"><ele>431.0</ele><time>2026-04-04T15:44:10.964Z</time></trkpt><trkpt lat="40.7627854" lon="14.8746246"><ele>435.0</ele><time>2026-04-04T15:44:11.972Z</time></trkpt><trkpt lat="40.762801" lon="14.8747326"><ele>438.99999999999994</ele><time>2026-04-04T15:44:12.971Z</time></trkpt><trkpt lat="40.7628182" lon="14.8748267"><ele>443.0</ele><time>2026-04-04T15:44:13.967Z</time></trkpt><trkpt lat="40.7628373" lon="14.8749904"><ele>443.3333333333333</ele><time>2026-04-04T15:44:15.967Z</time></trkpt><trkpt lat="40.7628747" lon="14.8751107"><ele>443.66666666666663</ele><time>2026-04-04T15:44:17.967Z</time></trkpt><trkpt lat="40.7628775" lon="14.8752161"><ele>444.0</ele><time>2026-04-04T15:44:20.974Z</time></trkpt><trkpt lat="40.7629187" lon="14.8753253"><ele>444.33333333333337</ele><time>2026-04-04T15:44:24.97Z</time></trkpt><trkpt lat="40.7629792" lon="14.8753688"><ele>444.6666666666667</ele><time>2026-04-04T15:44:27.962Z</time></trkpt><trkpt lat="40.7630436" lon="14.8754422"><ele>445.0</ele><time>2026-04-04T15:44:30.978Z</time></trkpt><trkpt lat="40.7631475" lon="14.8755474"><ele>445.00000000000006</ele><time>2026-04-04T15:44:38.975Z</time></trkpt><trkpt lat="40.7632094" lon="14.8755937"><ele>445.0</ele><time>2026-04-04T15:44:44.98Z</time></trkpt><trkpt lat="40.7631634" lon="14.8756659"><ele>445.0</ele><time>2026-04-04T15:45:08.965Z</time></trkpt><trkpt lat="40.7630971" lon="14.8756408"><ele>445.0</ele><time>2026-04-04T15:46:23.973Z</time></trkpt><trkpt lat="40.7630132" lon="14.8755714"><ele>445.00000000000006</ele><time>2026-04-04T15:46:26.969Z</time></trkpt><trkpt lat="40.7629489" lon="14.8755357"><ele>445.0</ele><time>2026-04-04T15:46:29.963Z</time></trkpt><trkpt lat="40.7629178" lon="14.8754433"><ele>445.00000000000006</ele><time>2026-04-04T15:46:33.969Z</time></trkpt><trkpt lat="40.7629121" lon="14.8753492"><ele>445.0</ele><time>2026-04-04T15:46:35.975Z</time></trkpt><trkpt lat="40.7629063" lon="14.8752464"><ele>445.0</ele><time>2026-04-04T15:46:37.97Z</time></trkpt><trkpt lat="40.7629005" lon="14.8751069"><ele>445.0</ele><time>2026-04-04T15:46:39.969Z</time></trkpt><trkpt lat="40.7628852" lon="14.8749488"><ele>445.00000000000006</ele><time>2026-04-04T15:46:41.958Z</time></trkpt><trkpt lat="40.7628707" lon="14.8748544"><ele>445.0</ele><time>2026-04-04T15:46:42.969Z</time></trkpt><trkpt lat="40.7628566" lon="14.8747562"><ele>444.6</ele><time>2026-04-04T15:46:43.971Z</time></trkpt><trkpt lat="40.7628135" lon="14.8746173"><ele>444.2</ele><time>2026-04-04T15:46:45.98Z</time></trkpt><trkpt lat="40.7627682" lon="14.8745224"><ele>443.79999999999995</ele><time>2026-04-04T15:46:46.985Z</time></trkpt><trkpt lat="40.7626831" lon="14.8743804"><ele>443.4</ele><time>2026-04-04T15:46:47.967Z</time></trkpt><trkpt lat="40.762618" lon="14.8743465"><ele>443.0</ele><time>2026-04-04T15:46:48.963Z</time></trkpt><trkpt lat="40.7625244" lon="14.8743403"><ele>441.0</ele><time>2026-04-04T15:46:49.972Z</time></trkpt><trkpt lat="40.7624374" lon="14.8743219"><ele>438.99999999999994</ele><time>2026-04-04T15:46:50.975Z</time></trkpt><trkpt lat="40.762364" lon="14.8743058"><ele>436.99999999999994</ele><time>2026-04-04T15:46:51.975Z</time></trkpt><trkpt lat="40.7622805" lon="14.8742484"><ele>435.0</ele><time>2026-04-04T15:46:53.981Z</time></trkpt><trkpt lat="40.7622043" lon="14.8741057"><ele>433.0</ele><time>2026-04-04T15:46:55.982Z</time></trkpt><trkpt lat="40.7621532" lon="14.8739763"><ele>430.99999999999994</ele><time>2026-04-04T15:46:56.975Z</time></trkpt><trkpt lat="40.7621034" lon="14.8738849"><ele>429.0</ele><time>2026-04-04T15:46:57.953Z</time></trkpt><trkpt lat="40.7620447" lon="14.8738374"><ele>427.0</ele><time>2026-04-04T15:46:58.969Z</time></trkpt><trkpt lat="40.7619741" lon="14.8738248"><ele>425.0</ele><time>2026-04-04T15:46:59.963Z</time></trkpt><trkpt lat="40.7618999" lon="14.8738394"><ele>423.0</ele><time>2026-04-04T15:47:00.973Z</time></trkpt><trkpt lat="40.7618283" lon="14.8738241"><ele>420.99999999999994</ele><time>2026-04-04T15:47:01.972Z</time></trkpt><trkpt lat="40.7617617" lon="14.8738059"><ele>419.0</ele><time>2026-04-04T15:47:02.972Z</time></trkpt><trkpt lat="40.7616976" lon="14.8737003"><ele>419.16666666666663</ele><time>2026-04-04T15:47:04.974Z</time></trkpt><trkpt lat="40.7616833" lon="14.8735868"><ele>419.3333333333333</ele><time>2026-04-04T15:47:05.968Z</time></trkpt><trkpt lat="40.761665" lon="14.8734677"><ele>419.5</ele><time>2026-04-04T15:47:06.975Z</time></trkpt><trkpt lat="40.7616459" lon="14.8733811"><ele>419.66666666666663</ele><time>2026-04-04T15:47:07.974Z</time></trkpt><trkpt lat="40.7616048" lon="14.8732949"><ele>419.8333333333333</ele><time>2026-04-04T15:47:08.973Z</time></trkpt><trkpt lat="40.7615544" lon="14.8732394"><ele>420.0</ele><time>2026-04-04T15:47:09.978Z</time></trkpt><trkpt lat="40.7614763" lon="14.8731688"><ele>420.0</ele><time>2026-04-04T15:47:11.973Z</time></trkpt><trkpt lat="40.7614169" lon="14.8731131"><ele>420.0</ele><time>2026-04-04T15:47:13.973Z</time></trkpt><trkpt lat="40.7613776" lon="14.8730232"><ele>420.0</ele><time>2026-04-04T15:47:15.984Z</time></trkpt><trkpt lat="40.7613235" lon="14.8729732"><ele>420.0</ele><time>2026-04-04T15:47:17.964Z</time></trkpt><trkpt lat="40.7612787" lon="14.872897"><ele>420.0</ele><time>2026-04-04T15:47:19.983Z</time></trkpt><trkpt lat="40.7611914" lon="14.8728026"><ele>420.0</ele><time>2026-04-04T15:47:21.97Z</time></trkpt><trkpt lat="40.7611473" lon="14.872743"><ele>420.0</ele><time>2026-04-04T15:47:22.975Z</time></trkpt><trkpt lat="40.7610494" lon="14.8726669"><ele>420.0</ele><time>2026-04-04T15:47:24.974Z</time></trkpt><trkpt lat="40.7609625" lon="14.8726454"><ele>420.0</ele><time>2026-04-04T15:47:25.954Z</time></trkpt><trkpt lat="40.7608647" lon="14.8726052"><ele>420.0</ele><time>2026-04-04T15:47:26.967Z</time></trkpt><trkpt lat="40.7607512" lon="14.8725626"><ele>420.0</ele><time>2026-04-04T15:47:27.966Z</time></trkpt><trkpt lat="40.7606374" lon="14.8725408"><ele>422.0</ele><time>2026-04-04T15:47:28.965Z</time></trkpt><trkpt lat="40.7605117" lon="14.8725166"><ele>424.0</ele><time>2026-04-04T15:47:29.965Z</time></trkpt><trkpt lat="40.7603889" lon="14.872513"><ele>426.0</ele><time>2026-04-04T15:47:30.974Z</time></trkpt><trkpt lat="40.7602651" lon="14.8725077"><ele>428.0</ele><time>2026-04-04T15:47:31.972Z</time></trkpt><trkpt lat="40.7601395" lon="14.8725115"><ele>429.16666666666663</ele><time>2026-04-04T15:47:32.983Z</time></trkpt><trkpt lat="40.7600441" lon="14.8725457"><ele>430.3333333333333</ele><time>2026-04-04T15:47:33.979Z</time></trkpt><trkpt lat="40.7599626" lon="14.8726087"><ele>431.5</ele><time>2026-04-04T15:47:34.977Z</time></trkpt><trkpt lat="40.7599051" lon="14.8726803"><ele>432.66666666666663</ele><time>2026-04-04T15:47:35.971Z</time></trkpt><trkpt lat="40.7598567" lon="14.872767"><ele>433.8333333333333</ele><time>2026-04-04T15:47:36.983Z</time></trkpt><trkpt lat="40.7598254" lon="14.8728478"><ele>435.0</ele><time>2026-04-04T15:47:37.974Z</time></trkpt><trkpt lat="40.7597984" lon="14.8729376"><ele>439.6</ele><time>2026-04-04T15:47:38.974Z</time></trkpt><trkpt lat="40.7597917" lon="14.8731083"><ele>444.2</ele><time>2026-04-04T15:47:40.982Z</time></trkpt><trkpt lat="40.7598157" lon="14.8732455"><ele>448.79999999999995</ele><time>2026-04-04T15:47:42.982Z</time></trkpt><trkpt lat="40.759803" lon="14.8733531"><ele>453.4</ele><time>2026-04-04T15:47:44.981Z</time></trkpt><trkpt lat="40.759756" lon="14.8734427"><ele>458.0</ele><time>2026-04-04T15:47:46.987Z</time></trkpt><trkpt lat="40.759705" lon="14.8736167"><ele>462.66666666666663</ele><time>2026-04-04T15:47:48.976Z</time></trkpt><trkpt lat="40.7596802" lon="14.8737099"><ele>467.3333333333333</ele><time>2026-04-04T15:47:49.982Z</time></trkpt><trkpt lat="40.7596446" lon="14.8737972"><ele>472.0</ele><time>2026-04-04T15:47:50.975Z</time></trkpt><trkpt lat="40.7596241" lon="14.8738911"><ele>476.66666666666663</ele><time>2026-04-04T15:47:51.981Z</time></trkpt><trkpt lat="40.7596222" lon="14.8740069"><ele>481.3333333333333</ele><time>2026-04-04T15:47:53.971Z</time></trkpt><trkpt lat="40.7595284" lon="14.873958"><ele>486.0</ele><time>2026-04-04T15:47:56.975Z</time></trkpt><trkpt lat="40.7594777" lon="14.8738978"><ele>486.0</ele><time>2026-04-04T15:47:57.974Z</time></trkpt><trkpt lat="40.7594164" lon="14.8738412"><ele>486.0</ele><time>2026-04-04T15:47:58.973Z</time></trkpt><trkpt lat="40.7593525" lon="14.8737837"><ele>486.0</ele><time>2026-04-04T15:47:59.969Z</time></trkpt><trkpt lat="40.7593015" lon="14.8737228"><ele>486.0</ele><time>2026-04-04T15:48:00.975Z</time></trkpt><trkpt lat="40.759239" lon="14.8736695"><ele>486.0</ele><time>2026-04-04T15:48:01.97Z</time></trkpt><trkpt lat="40.7591843" lon="14.8736257"><ele>486.0</ele><time>2026-04-04T15:48:02.978Z</time></trkpt><trkpt lat="40.7591134" lon="14.8735785"><ele>486.0</ele><time>2026-04-04T15:48:03.976Z</time></trkpt><trkpt lat="40.7590533" lon="14.8735443"><ele>482.6</ele><time>2026-04-04T15:48:04.954Z</time></trkpt><trkpt lat="40.7589886" lon="14.8735122"><ele>479.20000000000005</ele><time>2026-04-04T15:48:05.973Z</time></trkpt><trkpt lat="40.7588786" lon="14.8734863"><ele>475.79999999999995</ele><time>2026-04-04T15:48:07.969Z</time></trkpt><trkpt lat="40.7587639" lon="14.8735263"><ele>472.4</ele><time>2026-04-04T15:48:09.983Z</time></trkpt><trkpt lat="40.7586974" lon="14.8735817"><ele>469.0</ele><time>2026-04-04T15:48:10.975Z</time></trkpt><trkpt lat="40.7586267" lon="14.8736472"><ele>469.00000000000006</ele><time>2026-04-04T15:48:11.969Z</time></trkpt><trkpt lat="40.7585583" lon="14.8736911"><ele>469.0</ele><time>2026-04-04T15:48:12.968Z</time></trkpt><trkpt lat="40.7584888" lon="14.8737445"><ele>469.0</ele><time>2026-04-04T15:48:13.971Z</time></trkpt><trkpt lat="40.758433" lon="14.8738102"><ele>469.0</ele><time>2026-04-04T15:48:14.966Z</time></trkpt><trkpt lat="40.7583948" lon="14.8738815"><ele>469.00000000000006</ele><time>2026-04-04T15:48:15.978Z</time></trkpt><trkpt lat="40.7583117" lon="14.8739047"><ele>469.0</ele><time>2026-04-04T15:48:22.979Z</time></trkpt><trkpt lat="40.7582392" lon="14.8738909"><ele>465.50000000000006</ele><time>2026-04-04T15:48:24.969Z</time></trkpt><trkpt lat="40.7581758" lon="14.8739323"><ele>462.0</ele><time>2026-04-04T15:48:29.976Z</time></trkpt><trkpt lat="40.758083" lon="14.8739239"><ele>458.5</ele><time>2026-04-04T15:48:32.984Z</time></trkpt><trkpt lat="40.7580116" lon="14.873894"><ele>455.0</ele><time>2026-04-04T15:48:34.986Z</time></trkpt><trkpt lat="40.7579401" lon="14.8738696"><ele>451.50000000000006</ele><time>2026-04-04T15:48:35.983Z</time></trkpt><trkpt lat="40.7578779" lon="14.873852"><ele>448.0</ele><time>2026-04-04T15:48:36.973Z</time></trkpt><trkpt lat="40.7577722" lon="14.8738034"><ele>450.75</ele><time>2026-04-04T15:48:38.983Z</time></trkpt><trkpt lat="40.7576234" lon="14.8737547"><ele>453.5</ele><time>2026-04-04T15:48:40.975Z</time></trkpt><trkpt lat="40.7575047" lon="14.8737694"><ele>456.25</ele><time>2026-04-04T15:48:41.979Z</time></trkpt><trkpt lat="40.757387" lon="14.8737888"><ele>459.0</ele><time>2026-04-04T15:48:42.975Z</time></trkpt><trkpt lat="40.757277" lon="14.8738124"><ele>459.0</ele><time>2026-04-04T15:48:43.986Z</time></trkpt><trkpt lat="40.757162" lon="14.8738484"><ele>459.0</ele><time>2026-04-04T15:48:44.973Z</time></trkpt><trkpt lat="40.7570669" lon="14.8738821"><ele>459.0</ele><time>2026-04-04T15:48:45.967Z</time></trkpt><trkpt lat="40.7569848" lon="14.8739068"><ele>459.0</ele><time>2026-04-04T15:48:46.97Z</time></trkpt><trkpt lat="40.7569183" lon="14.8739071"><ele>459.0</ele><time>2026-04-04T15:48:47.965Z</time></trkpt><trkpt lat="40.7568434" lon="14.8739038"><ele>459.0</ele><time>2026-04-04T15:48:52.035Z</time></trkpt><trkpt lat="40.7568596" lon="14.8737743"><ele>456.79999999999995</ele><time>2026-04-04T15:48:54.948Z</time></trkpt><trkpt lat="40.7568683" lon="14.873646"><ele>454.59999999999997</ele><time>2026-04-04T15:48:56.961Z</time></trkpt><trkpt lat="40.756846" lon="14.8735493"><ele>452.4</ele><time>2026-04-04T15:48:57.968Z</time></trkpt><trkpt lat="40.7568035" lon="14.8734533"><ele>450.2</ele><time>2026-04-04T15:48:58.945Z</time></trkpt><trkpt lat="40.7567175" lon="14.8733501"><ele>448.0</ele><time>2026-04-04T15:49:00.034Z</time></trkpt><trkpt lat="40.7566277" lon="14.8732387"><ele>444.59999999999997</ele><time>2026-04-04T15:49:01.041Z</time></trkpt><trkpt lat="40.7565473" lon="14.8731519"><ele>441.19999999999993</ele><time>2026-04-04T15:49:01.97Z</time></trkpt><trkpt lat="40.7564705" lon="14.8730786"><ele>437.8</ele><time>2026-04-04T15:49:02.96Z</time></trkpt><trkpt lat="40.7563835" lon="14.873021"><ele>434.4</ele><time>2026-04-04T15:49:03.969Z</time></trkpt><trkpt lat="40.7563004" lon="14.8729753"><ele>431.0</ele><time>2026-04-04T15:49:04.973Z</time></trkpt><trkpt lat="40.7562268" lon="14.8729319"><ele>431.0</ele><time>2026-04-04T15:49:05.97Z</time></trkpt><trkpt lat="40.7561483" lon="14.8728659"><ele>431.0</ele><time>2026-04-04T15:49:06.966Z</time></trkpt><trkpt lat="40.7560645" lon="14.872803"><ele>431.0</ele><time>2026-04-04T15:49:07.961Z</time></trkpt><trkpt lat="40.7559696" lon="14.8727586"><ele>431.0</ele><time>2026-04-04T15:49:08.962Z</time></trkpt><trkpt lat="40.7558735" lon="14.8727184"><ele>431.0</ele><time>2026-04-04T15:49:09.955Z</time></trkpt><trkpt lat="40.755776" lon="14.872667"><ele>426.66666666666663</ele><time>2026-04-04T15:49:10.964Z</time></trkpt><trkpt lat="40.7556867" lon="14.8726193"><ele>422.3333333333333</ele><time>2026-04-04T15:49:11.965Z</time></trkpt><trkpt lat="40.755609" lon="14.8725815"><ele>418.0</ele><time>2026-04-04T15:49:12.961Z</time></trkpt><trkpt lat="40.7555458" lon="14.872554"><ele>413.66666666666663</ele><time>2026-04-04T15:49:13.957Z</time></trkpt><trkpt lat="40.7554829" lon="14.872512"><ele>409.3333333333333</ele><time>2026-04-04T15:49:15.962Z</time></trkpt><trkpt lat="40.7555151" lon="14.8723968"><ele>405.0</ele><time>2026-04-04T15:49:18.96Z</time></trkpt><trkpt lat="40.7554429" lon="14.8723136"><ele>405.0</ele><time>2026-04-04T15:49:21.963Z</time></trkpt><trkpt lat="40.7553582" lon="14.8723121"><ele>405.0</ele><time>2026-04-04T15:49:24.969Z</time></trkpt><trkpt lat="40.7552955" lon="14.8724239"><ele>405.0</ele><time>2026-04-04T15:49:26.966Z</time></trkpt><trkpt lat="40.7552489" lon="14.8725393"><ele>405.0</ele><time>2026-04-04T15:49:28.968Z</time></trkpt><trkpt lat="40.7551789" lon="14.8725125"><ele>405.0</ele><time>2026-04-04T15:49:31.957Z</time></trkpt><trkpt lat="40.7551576" lon="14.8723713"><ele>399.4</ele><time>2026-04-04T15:49:33.97Z</time></trkpt><trkpt lat="40.75516" lon="14.8722214"><ele>393.8</ele><time>2026-04-04T15:49:35.948Z</time></trkpt><trkpt lat="40.7551949" lon="14.8721064"><ele>388.20000000000005</ele><time>2026-04-04T15:49:37.972Z</time></trkpt><trkpt lat="40.7551536" lon="14.8719972"><ele>382.6</ele><time>2026-04-04T15:49:39.967Z</time></trkpt><trkpt lat="40.7550908" lon="14.8719886"><ele>377.0</ele><time>2026-04-04T15:49:41.974Z</time></trkpt><trkpt lat="40.7550338" lon="14.8720747"><ele>377.0</ele><time>2026-04-04T15:49:43.957Z</time></trkpt><trkpt lat="40.7549935" lon="14.8722098"><ele>377.0</ele><time>2026-04-04T15:49:46.035Z</time></trkpt><trkpt lat="40.7549232" lon="14.8722022"><ele>377.0</ele><time>2026-04-04T15:49:50.958Z</time></trkpt><trkpt lat="40.7548882" lon="14.8720513"><ele>377.0</ele><time>2026-04-04T15:49:52.949Z</time></trkpt><trkpt lat="40.7548896" lon="14.8719621"><ele>377.0</ele><time>2026-04-04T15:49:54.04Z</time></trkpt><trkpt lat="40.7549228" lon="14.8718116"><ele>377.0</ele><time>2026-04-04T15:49:55.954Z</time></trkpt><trkpt lat="40.7549157" lon="14.8717046"><ele>377.0</ele><time>2026-04-04T15:49:58.943Z</time></trkpt><trkpt lat="40.7548463" lon="14.8717024"><ele>377.0</ele><time>2026-04-04T15:50:01.949Z</time></trkpt><trkpt lat="40.7547925" lon="14.8717599"><ele>377.0</ele><time>2026-04-04T15:50:03.975Z</time></trkpt><trkpt lat="40.7547493" lon="14.8718261"><ele>377.0</ele><time>2026-04-04T15:50:06.965Z</time></trkpt><trkpt lat="40.7547235" lon="14.8717316"><ele>377.0</ele><time>2026-04-04T15:50:08.957Z</time></trkpt><trkpt lat="40.7546959" lon="14.8715683"><ele>374.6666666666667</ele><time>2026-04-04T15:50:10.953Z</time></trkpt><trkpt lat="40.7546716" lon="14.8714652"><ele>372.33333333333337</ele><time>2026-04-04T15:50:12.972Z</time></trkpt><trkpt lat="40.754678" lon="14.8713634"><ele>370.0</ele><time>2026-04-04T15:50:14.948Z</time></trkpt><trkpt lat="40.7546043" lon="14.8714866"><ele>367.6666666666667</ele><time>2026-04-04T15:50:18.992Z</time></trkpt><trkpt lat="40.7545774" lon="14.8715715"><ele>365.3333333333333</ele><time>2026-04-04T15:50:20.029Z</time></trkpt><trkpt lat="40.7545336" lon="14.8716648"><ele>363.0</ele><time>2026-04-04T15:50:21.033Z</time></trkpt><trkpt lat="40.7544784" lon="14.8717644"><ele>363.0</ele><time>2026-04-04T15:50:21.978Z</time></trkpt><trkpt lat="40.7544387" lon="14.8718478"><ele>363.0</ele><time>2026-04-04T15:50:22.966Z</time></trkpt><trkpt lat="40.7544081" lon="14.8719316"><ele>363.0</ele><time>2026-04-04T15:50:24.959Z</time></trkpt><trkpt lat="40.7543948" lon="14.8720173"><ele>363.0</ele><time>2026-04-04T15:50:28.959Z</time></trkpt><trkpt lat="40.7544099" lon="14.8718841"><ele>363.0</ele><time>2026-04-04T15:50:33.968Z</time></trkpt><trkpt lat="40.7544482" lon="14.871724"><ele>363.0</ele><time>2026-04-04T15:50:36.047Z</time></trkpt><trkpt lat="40.7544655" lon="14.8716263"><ele>363.0</ele><time>2026-04-04T15:50:37.024Z</time></trkpt><trkpt lat="40.754508" lon="14.8714988"><ele>363.0</ele><time>2026-04-04T15:50:38.965Z</time></trkpt><trkpt lat="40.754537" lon="14.8714237"><ele>363.0</ele><time>2026-04-04T15:50:39.954Z</time></trkpt><trkpt lat="40.7545958" lon="14.8712874"><ele>363.0</ele><time>2026-04-04T15:50:41.968Z</time></trkpt><trkpt lat="40.7546398" lon="14.8712239"><ele>363.0</ele><time>2026-04-04T15:50:42.962Z</time></trkpt><trkpt lat="40.7547147" lon="14.8711743"><ele>363.0</ele><time>2026-04-04T15:50:44.046Z</time></trkpt><trkpt lat="40.754821" lon="14.8711276"><ele>363.0</ele><time>2026-04-04T15:50:45.027Z</time></trkpt><trkpt lat="40.7549077" lon="14.8710732"><ele>363.0</ele><time>2026-04-04T15:50:46.028Z</time></trkpt><trkpt lat="40.7549755" lon="14.871027"><ele>363.0</ele><time>2026-04-04T15:50:46.959Z</time></trkpt><trkpt lat="40.7550444" lon="14.870987"><ele>363.0</ele><time>2026-04-04T15:50:47.96Z</time></trkpt><trkpt lat="40.7551054" lon="14.8709399"><ele>363.0</ele><time>2026-04-04T15:50:48.958Z</time></trkpt><trkpt lat="40.7551676" lon="14.8709094"><ele>363.0</ele><time>2026-04-04T15:50:49.957Z</time></trkpt><trkpt lat="40.7552553" lon="14.8709226"><ele>364.79999999999995</ele><time>2026-04-04T15:50:50.958Z</time></trkpt><trkpt lat="40.7553279" lon="14.8709593"><ele>366.6</ele><time>2026-04-04T15:50:51.962Z</time></trkpt><trkpt lat="40.7554329" lon="14.871042"><ele>368.4</ele><time>2026-04-04T15:50:53.964Z</time></trkpt><trkpt lat="40.7555093" lon="14.8710734"><ele>370.20000000000005</ele><time>2026-04-04T15:50:54.962Z</time></trkpt><trkpt lat="40.755572" lon="14.8710434"><ele>372.0</ele><time>2026-04-04T15:50:55.964Z</time></trkpt><trkpt lat="40.7556994" lon="14.871033"><ele>372.0</ele><time>2026-04-04T15:50:57.965Z</time></trkpt><trkpt lat="40.7557814" lon="14.871033"><ele>372.0</ele><time>2026-04-04T15:50:58.964Z</time></trkpt><trkpt lat="40.7558656" lon="14.8710538"><ele>372.0</ele><time>2026-04-04T15:51:00.057Z</time></trkpt><trkpt lat="40.7559368" lon="14.8710944"><ele>372.0</ele><time>2026-04-04T15:51:00.972Z</time></trkpt><trkpt lat="40.7560101" lon="14.8711058"><ele>372.0</ele><time>2026-04-04T15:51:01.978Z</time></trkpt><trkpt lat="40.7560792" lon="14.8711076"><ele>372.0</ele><time>2026-04-04T15:51:02.973Z</time></trkpt><trkpt lat="40.7561535" lon="14.8711278"><ele>371.5</ele><time>2026-04-04T15:51:03.976Z</time></trkpt><trkpt lat="40.7562242" lon="14.8711446"><ele>371.0</ele><time>2026-04-04T15:51:04.983Z</time></trkpt><trkpt lat="40.7562888" lon="14.8711494"><ele>370.5</ele><time>2026-04-04T15:51:05.975Z</time></trkpt><trkpt lat="40.7563879" lon="14.8711857"><ele>370.0</ele><time>2026-04-04T15:51:07.977Z</time></trkpt><trkpt lat="40.7565099" lon="14.8712599"><ele>369.5</ele><time>2026-04-04T15:51:09.975Z</time></trkpt><trkpt lat="40.7565734" lon="14.8712819"><ele>369.0</ele><time>2026-04-04T15:51:10.982Z</time></trkpt><trkpt lat="40.7566497" lon="14.8713302"><ele>369.0</ele><time>2026-04-04T15:51:11.966Z</time></trkpt><trkpt lat="40.7567615" lon="14.8713911"><ele>369.0</ele><time>2026-04-04T15:51:12.973Z</time></trkpt><trkpt lat="40.7568898" lon="14.8714576"><ele>369.0</ele><time>2026-04-04T15:51:13.982Z</time></trkpt><trkpt lat="40.7569964" lon="14.871527"><ele>369.0</ele><time>2026-04-04T15:51:14.975Z</time></trkpt><trkpt lat="40.7570987" lon="14.8715853"><ele>368.5</ele><time>2026-04-04T15:51:15.98Z</time></trkpt><trkpt lat="40.7572123" lon="14.8716318"><ele>368.0</ele><time>2026-04-04T15:51:16.981Z</time></trkpt><trkpt lat="40.7573501" lon="14.8716212"><ele>367.5</ele><time>2026-04-04T15:51:17.971Z</time></trkpt><trkpt lat="40.757486" lon="14.8716246"><ele>367.0</ele><time>2026-04-04T15:51:18.968Z</time></trkpt><trkpt lat="40.7576066" lon="14.8716106"><ele>368.0</ele><time>2026-04-04T15:51:19.973Z</time></trkpt><trkpt lat="40.7577189" lon="14.871586"><ele>369.0</ele><time>2026-04-04T15:51:20.967Z</time></trkpt><trkpt lat="40.7578331" lon="14.8715469"><ele>370.0</ele><time>2026-04-04T15:51:21.962Z</time></trkpt><trkpt lat="40.7579506" lon="14.8714842"><ele>371.0</ele><time>2026-04-04T15:51:22.96Z</time></trkpt><trkpt lat="40.7580737" lon="14.8714253"><ele>371.0</ele><time>2026-04-04T15:51:23.962Z</time></trkpt><trkpt lat="40.7581768" lon="14.8713826"><ele>371.0</ele><time>2026-04-04T15:51:24.968Z</time></trkpt><trkpt lat="40.7582678" lon="14.8713475"><ele>371.0</ele><time>2026-04-04T15:51:26.048Z</time></trkpt><trkpt lat="40.7583514" lon="14.8713139"><ele>371.0</ele><time>2026-04-04T15:51:27.028Z</time></trkpt><trkpt lat="40.758436" lon="14.8713001"><ele>371.0</ele><time>2026-04-04T15:51:27.966Z</time></trkpt><trkpt lat="40.7585332" lon="14.8712866"><ele>374.0</ele><time>2026-04-04T15:51:28.973Z</time></trkpt><trkpt lat="40.7586471" lon="14.8712686"><ele>377.0</ele><time>2026-04-04T15:51:30.05Z</time></trkpt><trkpt lat="40.7587707" lon="14.8712099"><ele>380.0</ele><time>2026-04-04T15:51:31.049Z</time></trkpt><trkpt lat="40.7588947" lon="14.8711469"><ele>383.0</ele><time>2026-04-04T15:51:32.037Z</time></trkpt><trkpt lat="40.7590169" lon="14.8710702"><ele>383.0</ele><time>2026-04-04T15:51:32.962Z</time></trkpt><trkpt lat="40.7591257" lon="14.8710009"><ele>383.0</ele><time>2026-04-04T15:51:33.966Z</time></trkpt><trkpt lat="40.7592184" lon="14.8709401"><ele>383.0</ele><time>2026-04-04T15:51:35.044Z</time></trkpt><trkpt lat="40.7593191" lon="14.8708901"><ele>383.0</ele><time>2026-04-04T15:51:36.026Z</time></trkpt><trkpt lat="40.7594252" lon="14.870873"><ele>383.0</ele><time>2026-04-04T15:51:37.035Z</time></trkpt><trkpt lat="40.7595576" lon="14.870876"><ele>381.2</ele><time>2026-04-04T15:51:37.971Z</time></trkpt><trkpt lat="40.7596671" lon="14.8708638"><ele>379.4</ele><time>2026-04-04T15:51:38.978Z</time></trkpt><trkpt lat="40.759757" lon="14.8708366"><ele>377.59999999999997</ele><time>2026-04-04T15:51:39.969Z</time></trkpt><trkpt lat="40.7598329" lon="14.8707886"><ele>375.79999999999995</ele><time>2026-04-04T15:51:40.976Z</time></trkpt><trkpt lat="40.759911" lon="14.8707103"><ele>374.0</ele><time>2026-04-04T15:51:41.967Z</time></trkpt><trkpt lat="40.7599968" lon="14.8706356"><ele>374.0</ele><time>2026-04-04T15:51:42.97Z</time></trkpt><trkpt lat="40.7600914" lon="14.8705736"><ele>374.0</ele><time>2026-04-04T15:51:44.056Z</time></trkpt><trkpt lat="40.7601956" lon="14.8705095"><ele>374.0</ele><time>2026-04-04T15:51:45.045Z</time></trkpt><trkpt lat="40.7602917" lon="14.8704692"><ele>374.0</ele><time>2026-04-04T15:51:46.029Z</time></trkpt><trkpt lat="40.7603735" lon="14.8704657"><ele>374.0</ele><time>2026-04-04T15:51:46.973Z</time></trkpt><trkpt lat="40.7604431" lon="14.8704714"><ele>375.33333333333337</ele><time>2026-04-04T15:51:47.968Z</time></trkpt><trkpt lat="40.7605519" lon="14.8704543"><ele>376.6666666666667</ele><time>2026-04-04T15:51:49.968Z</time></trkpt><trkpt lat="40.7606155" lon="14.870449"><ele>378.0</ele><time>2026-04-04T15:51:52.025Z</time></trkpt><trkpt lat="40.760683" lon="14.8704487"><ele>379.3333333333333</ele><time>2026-04-04T15:51:55.961Z</time></trkpt><trkpt lat="40.7607553" lon="14.8704282"><ele>380.66666666666663</ele><time>2026-04-04T15:52:00.042Z</time></trkpt><trkpt lat="40.7608005" lon="14.8703544"><ele>382.0</ele><time>2026-04-04T15:52:02.03Z</time></trkpt><trkpt lat="40.7608378" lon="14.8702818"><ele>382.0</ele><time>2026-04-04T15:52:02.98Z</time></trkpt><trkpt lat="40.7608822" lon="14.870219"><ele>382.0</ele><time>2026-04-04T15:52:03.972Z</time></trkpt><trkpt lat="40.7609606" lon="14.8701417"><ele>382.0</ele><time>2026-04-04T15:52:05.985Z</time></trkpt><trkpt lat="40.7609956" lon="14.8700629"><ele>382.0</ele><time>2026-04-04T15:52:06.975Z</time></trkpt><trkpt lat="40.7610292" lon="14.8699096"><ele>382.0</ele><time>2026-04-04T15:52:08.975Z</time></trkpt><trkpt lat="40.7610655" lon="14.8698142"><ele>382.0</ele><time>2026-04-04T15:52:10.98Z</time></trkpt><trkpt lat="40.7611382" lon="14.869742"><ele>383.66666666666663</ele><time>2026-04-04T15:52:12.977Z</time></trkpt><trkpt lat="40.7612398" lon="14.869659"><ele>385.3333333333333</ele><time>2026-04-04T15:52:14.976Z</time></trkpt><trkpt lat="40.7612972" lon="14.8695671"><ele>387.0</ele><time>2026-04-04T15:52:17.029Z</time></trkpt><trkpt lat="40.7613178" lon="14.8694775"><ele>388.66666666666663</ele><time>2026-04-04T15:52:17.977Z</time></trkpt><trkpt lat="40.7613358" lon="14.8693891"><ele>390.3333333333333</ele><time>2026-04-04T15:52:18.98Z</time></trkpt><trkpt lat="40.761339" lon="14.8692777"><ele>392.0</ele><time>2026-04-04T15:52:19.972Z</time></trkpt><trkpt lat="40.7613554" lon="14.8691167"><ele>391.99999999999994</ele><time>2026-04-04T15:52:21.955Z</time></trkpt><trkpt lat="40.7613665" lon="14.869033"><ele>392.0</ele><time>2026-04-04T15:52:22.982Z</time></trkpt><trkpt lat="40.7614028" lon="14.8688837"><ele>392.0</ele><time>2026-04-04T15:52:24.996Z</time></trkpt><trkpt lat="40.7614356" lon="14.8688013"><ele>392.0</ele><time>2026-04-04T15:52:25.975Z</time></trkpt><trkpt lat="40.7614605" lon="14.8687212"><ele>391.99999999999994</ele><time>2026-04-04T15:52:26.975Z</time></trkpt><trkpt lat="40.7614824" lon="14.8686264"><ele>392.0</ele><time>2026-04-04T15:52:27.962Z</time></trkpt><trkpt lat="40.7614938" lon="14.8685256"><ele>392.75</ele><time>2026-04-04T15:52:28.969Z</time></trkpt><trkpt lat="40.7614771" lon="14.8683969"><ele>393.5</ele><time>2026-04-04T15:52:29.966Z</time></trkpt><trkpt lat="40.7614542" lon="14.8682424"><ele>394.25</ele><time>2026-04-04T15:52:30.97Z</time></trkpt><trkpt lat="40.76143" lon="14.868102"><ele>395.0</ele><time>2026-04-04T15:52:31.979Z</time></trkpt><trkpt lat="40.7613993" lon="14.8679172"><ele>395.0</ele><time>2026-04-04T15:52:32.977Z</time></trkpt><trkpt lat="40.7614142" lon="14.8677899"><ele>395.0</ele><time>2026-04-04T15:52:33.973Z</time></trkpt><trkpt lat="40.761463" lon="14.8676557"><ele>395.0</ele><time>2026-04-04T15:52:34.977Z</time></trkpt><trkpt lat="40.7615036" lon="14.8675417"><ele>395.0</ele><time>2026-04-04T15:52:35.975Z</time></trkpt><trkpt lat="40.761561" lon="14.8674678"><ele>395.0</ele><time>2026-04-04T15:52:36.983Z</time></trkpt><trkpt lat="40.7616322" lon="14.8674169"><ele>394.16666666666663</ele><time>2026-04-04T15:52:37.972Z</time></trkpt><trkpt lat="40.7617146" lon="14.8673989"><ele>393.3333333333333</ele><time>2026-04-04T15:52:38.975Z</time></trkpt><trkpt lat="40.7618311" lon="14.8673869"><ele>392.5</ele><time>2026-04-04T15:52:40.979Z</time></trkpt><trkpt lat="40.7619017" lon="14.8673527"><ele>391.66666666666663</ele><time>2026-04-04T15:52:42.98Z</time></trkpt><trkpt lat="40.76189" lon="14.867269"><ele>390.8333333333333</ele><time>2026-04-04T15:52:46.028Z</time></trkpt><trkpt lat="40.7619064" lon="14.86713"><ele>390.0</ele><time>2026-04-04T15:52:47.98Z</time></trkpt><trkpt lat="40.7619106" lon="14.8669831"><ele>393.6666666666667</ele><time>2026-04-04T15:52:49.984Z</time></trkpt><trkpt lat="40.7619059" lon="14.8668244"><ele>397.33333333333337</ele><time>2026-04-04T15:52:51.995Z</time></trkpt><trkpt lat="40.7618858" lon="14.8666924"><ele>401.0</ele><time>2026-04-04T15:52:52.986Z</time></trkpt><trkpt lat="40.7618867" lon="14.8665792"><ele>404.6666666666667</ele><time>2026-04-04T15:52:53.988Z</time></trkpt><trkpt lat="40.7619077" lon="14.8665"><ele>408.33333333333337</ele><time>2026-04-04T15:52:55.004Z</time></trkpt><trkpt lat="40.7619409" lon="14.8664138"><ele>412.0</ele><time>2026-04-04T15:52:55.978Z</time></trkpt><trkpt lat="40.7619931" lon="14.8663334"><ele>412.0</ele><time>2026-04-04T15:52:56.975Z</time></trkpt><trkpt lat="40.7620421" lon="14.8662525"><ele>412.0</ele><time>2026-04-04T15:52:57.966Z</time></trkpt><trkpt lat="40.762081" lon="14.866168"><ele>412.0</ele><time>2026-04-04T15:52:58.967Z</time></trkpt><trkpt lat="40.7621189" lon="14.8660651"><ele>412.0</ele><time>2026-04-04T15:52:59.972Z</time></trkpt><trkpt lat="40.7621646" lon="14.8659151"><ele>412.0</ele><time>2026-04-04T15:53:01.033Z</time></trkpt><trkpt lat="40.7622165" lon="14.8657514"><ele>414.6</ele><time>2026-04-04T15:53:02.034Z</time></trkpt><trkpt lat="40.7622551" lon="14.865605"><ele>417.20000000000005</ele><time>2026-04-04T15:53:02.967Z</time></trkpt><trkpt lat="40.7622993" lon="14.8654655"><ele>419.8</ele><time>2026-04-04T15:53:03.973Z</time></trkpt><trkpt lat="40.7623562" lon="14.8653399"><ele>422.4</ele><time>2026-04-04T15:53:04.978Z</time></trkpt><trkpt lat="40.7624131" lon="14.8652383"><ele>425.0</ele><time>2026-04-04T15:53:06.03Z</time></trkpt><trkpt lat="40.7624597" lon="14.8650946"><ele>425.2</ele><time>2026-04-04T15:53:07.968Z</time></trkpt><trkpt lat="40.7624663" lon="14.8649948"><ele>425.4</ele><time>2026-04-04T15:53:08.98Z</time></trkpt><trkpt lat="40.7624919" lon="14.8649035"><ele>425.6</ele><time>2026-04-04T15:53:09.975Z</time></trkpt><trkpt lat="40.7625398" lon="14.8647911"><ele>425.8</ele><time>2026-04-04T15:53:11.043Z</time></trkpt><trkpt lat="40.7625788" lon="14.8646693"><ele>426.0</ele><time>2026-04-04T15:53:12.048Z</time></trkpt><trkpt lat="40.7626133" lon="14.8645417"><ele>426.0</ele><time>2026-04-04T15:53:12.965Z</time></trkpt><trkpt lat="40.7626445" lon="14.864424"><ele>426.0</ele><time>2026-04-04T15:53:13.977Z</time></trkpt><trkpt lat="40.7626977" lon="14.8643132"><ele>426.0</ele><time>2026-04-04T15:53:14.985Z</time></trkpt><trkpt lat="40.7627573" lon="14.8642111"><ele>426.0</ele><time>2026-04-04T15:53:15.972Z</time></trkpt><trkpt lat="40.7628125" lon="14.8640885"><ele>426.0</ele><time>2026-04-04T15:53:16.973Z</time></trkpt><trkpt lat="40.7628677" lon="14.8639442"><ele>429.25</ele><time>2026-04-04T15:53:17.974Z</time></trkpt><trkpt lat="40.7629266" lon="14.863774"><ele>432.5</ele><time>2026-04-04T15:53:18.962Z</time></trkpt><trkpt lat="40.762979" lon="14.8636045"><ele>435.75</ele><time>2026-04-04T15:53:19.998Z</time></trkpt><trkpt lat="40.7630274" lon="14.8634381"><ele>439.0</ele><time>2026-04-04T15:53:20.969Z</time></trkpt><trkpt lat="40.7630624" lon="14.8632903"><ele>439.0</ele><time>2026-04-04T15:53:22.03Z</time></trkpt><trkpt lat="40.7630757" lon="14.8631734"><ele>439.0</ele><time>2026-04-04T15:53:22.975Z</time></trkpt><trkpt lat="40.763079" lon="14.8630665"><ele>439.0</ele><time>2026-04-04T15:53:23.976Z</time></trkpt><trkpt lat="40.7631033" lon="14.8629572"><ele>439.0</ele><time>2026-04-04T15:53:24.976Z</time></trkpt><trkpt lat="40.7631331" lon="14.8628593"><ele>439.0</ele><time>2026-04-04T15:53:25.977Z</time></trkpt><trkpt lat="40.7632244" lon="14.86273"><ele>439.0</ele><time>2026-04-04T15:53:27.969Z</time></trkpt><trkpt lat="40.7632714" lon="14.8626484"><ele>439.0</ele><time>2026-04-04T15:53:28.971Z</time></trkpt><trkpt lat="40.7633188" lon="14.8625896"><ele>439.0</ele><time>2026-04-04T15:53:30.01Z</time></trkpt><trkpt lat="40.7633741" lon="14.862534"><ele>439.0</ele><time>2026-04-04T15:53:30.997Z</time></trkpt><trkpt lat="40.7634305" lon="14.8624799"><ele>439.0</ele><time>2026-04-04T15:53:31.975Z</time></trkpt><trkpt lat="40.7635032" lon="14.8624128"><ele>439.0</ele><time>2026-04-04T15:53:33.966Z</time></trkpt><trkpt lat="40.76344" lon="14.8623647"><ele>439.0</ele><time>2026-04-04T15:53:37.976Z</time></trkpt><trkpt lat="40.7633776" lon="14.8624278"><ele>439.00000000000006</ele><time>2026-04-04T15:53:40.98Z</time></trkpt><trkpt lat="40.7633313" lon="14.8625054"><ele>439.0</ele><time>2026-04-04T15:53:42.98Z</time></trkpt><trkpt lat="40.7632782" lon="14.862589"><ele>439.0</ele><time>2026-04-04T15:53:44.964Z</time></trkpt><trkpt lat="40.7632336" lon="14.86269"><ele>439.0</ele><time>2026-04-04T15:53:46.983Z</time></trkpt><trkpt lat="40.7631958" lon="14.8628107"><ele>439.00000000000006</ele><time>2026-04-04T15:53:48.985Z</time></trkpt><trkpt lat="40.7631524" lon="14.8629236"><ele>439.0</ele><time>2026-04-04T15:53:50.96Z</time></trkpt><trkpt lat="40.763132" lon="14.8630457"><ele>439.0</ele><time>2026-04-04T15:53:52.98Z</time></trkpt><trkpt lat="40.763125" lon="14.8632209"><ele>439.0</ele><time>2026-04-04T15:53:54.971Z</time></trkpt><trkpt lat="40.7631448" lon="14.8633526"><ele>439.0</ele><time>2026-04-04T15:53:55.994Z</time></trkpt><trkpt lat="40.7631691" lon="14.8634779"><ele>439.0</ele><time>2026-04-04T15:53:56.981Z</time></trkpt><trkpt lat="40.7632111" lon="14.8635898"><ele>439.0</ele><time>2026-04-04T15:53:57.967Z</time></trkpt><trkpt lat="40.763249" lon="14.8636954"><ele>439.6</ele><time>2026-04-04T15:53:58.975Z</time></trkpt><trkpt lat="40.7633165" lon="14.8638309"><ele>440.2</ele><time>2026-04-04T15:54:00.982Z</time></trkpt><trkpt lat="40.7633791" lon="14.8639467"><ele>440.80000000000007</ele><time>2026-04-04T15:54:02.987Z</time></trkpt><trkpt lat="40.7634507" lon="14.8640244"><ele>441.40000000000003</ele><time>2026-04-04T15:54:04.973Z</time></trkpt><trkpt lat="40.763531" lon="14.8640387"><ele>442.0</ele><time>2026-04-04T15:54:07.052Z</time></trkpt><trkpt lat="40.7636068" lon="14.8640084"><ele>449.1666666666667</ele><time>2026-04-04T15:54:08.976Z</time></trkpt><trkpt lat="40.7636105" lon="14.8638991"><ele>456.33333333333337</ele><time>2026-04-04T15:54:12.973Z</time></trkpt><trkpt lat="40.7637073" lon="14.8638929"><ele>463.5</ele><time>2026-04-04T15:54:17.979Z</time></trkpt><trkpt lat="40.7637914" lon="14.8639515"><ele>470.66666666666663</ele><time>2026-04-04T15:54:20.979Z</time></trkpt><trkpt lat="40.7638708" lon="14.8639763"><ele>477.8333333333333</ele><time>2026-04-04T15:54:22.969Z</time></trkpt><trkpt lat="40.7639048" lon="14.8638824"><ele>485.0</ele><time>2026-04-04T15:54:27.026Z</time></trkpt><trkpt lat="40.7638759" lon="14.8637809"><ele>484.99999999999994</ele><time>2026-04-04T15:54:29.97Z</time></trkpt><trkpt lat="40.7638922" lon="14.8636999"><ele>485.0</ele><time>2026-04-04T15:54:31.977Z</time></trkpt><trkpt lat="40.7639104" lon="14.8636101"><ele>485.0</ele><time>2026-04-04T15:54:33.983Z</time></trkpt><trkpt lat="40.763929" lon="14.8634895"><ele>485.0</ele><time>2026-04-04T15:54:35.978Z</time></trkpt><trkpt lat="40.7639741" lon="14.8633822"><ele>484.99999999999994</ele><time>2026-04-04T15:54:37.971Z</time></trkpt><trkpt lat="40.7640234" lon="14.8633199"><ele>485.0</ele><time>2026-04-04T15:54:39.981Z</time></trkpt><trkpt lat="40.7640142" lon="14.8634608"><ele>485.0</ele><time>2026-04-04T15:54:45.98Z</time></trkpt><trkpt lat="40.764074" lon="14.8635605"><ele>485.0</ele><time>2026-04-04T15:54:47.978Z</time></trkpt><trkpt lat="40.7641626" lon="14.8636717"><ele>485.0</ele><time>2026-04-04T15:54:49.974Z</time></trkpt><trkpt lat="40.7642002" lon="14.8637424"><ele>485.0</ele><time>2026-04-04T15:54:50.981Z</time></trkpt><trkpt lat="40.7642478" lon="14.8638281"><ele>485.0</ele><time>2026-04-04T15:54:51.985Z</time></trkpt><trkpt lat="40.7642974" lon="14.8639269"><ele>485.0</ele><time>2026-04-04T15:54:52.983Z</time></trkpt><trkpt lat="40.7643222" lon="14.86404"><ele>485.0</ele><time>2026-04-04T15:54:53.978Z</time></trkpt><trkpt lat="40.7643247" lon="14.8641584"><ele>485.0</ele><time>2026-04-04T15:54:55.044Z</time></trkpt><trkpt lat="40.7642978" lon="14.8642786"><ele>485.0</ele><time>2026-04-04T15:54:55.945Z</time></trkpt><trkpt lat="40.7642697" lon="14.8643968"><ele>485.0</ele><time>2026-04-04T15:54:57.042Z</time></trkpt><trkpt lat="40.7642502" lon="14.8645145"><ele>484.8333333333333</ele><time>2026-04-04T15:54:57.963Z</time></trkpt><trkpt lat="40.7642405" lon="14.8646115"><ele>484.66666666666663</ele><time>2026-04-04T15:54:58.962Z</time></trkpt><trkpt lat="40.7642738" lon="14.8647227"><ele>484.5</ele><time>2026-04-04T15:55:00.961Z</time></trkpt><trkpt lat="40.7643573" lon="14.8647497"><ele>484.33333333333337</ele><time>2026-04-04T15:55:03.965Z</time></trkpt><trkpt lat="40.7644311" lon="14.8647261"><ele>484.1666666666667</ele><time>2026-04-04T15:55:06.052Z</time></trkpt><trkpt lat="40.7645045" lon="14.8646769"><ele>484.0</ele><time>2026-04-04T15:55:07.964Z</time></trkpt><trkpt lat="40.76458" lon="14.8646507"><ele>487.00000000000006</ele><time>2026-04-04T15:55:09.966Z</time></trkpt><trkpt lat="40.7646862" lon="14.8646386"><ele>490.0</ele><time>2026-04-04T15:55:11.957Z</time></trkpt><trkpt lat="40.7647693" lon="14.8646234"><ele>493.0</ele><time>2026-04-04T15:55:12.955Z</time></trkpt><trkpt lat="40.7648399" lon="14.8646283"><ele>496.0</ele><time>2026-04-04T15:55:13.971Z</time></trkpt><trkpt lat="40.7649045" lon="14.8646401"><ele>499.00000000000006</ele><time>2026-04-04T15:55:14.965Z</time></trkpt><trkpt lat="40.7649789" lon="14.8647061"><ele>502.0</ele><time>2026-04-04T15:55:16.975Z</time></trkpt><trkpt lat="40.7650085" lon="14.8647817"><ele>502.00000000000006</ele><time>2026-04-04T15:55:18.969Z</time></trkpt><trkpt lat="40.7650169" lon="14.8648734"><ele>502.0</ele><time>2026-04-04T15:55:20.958Z</time></trkpt><trkpt lat="40.7650358" lon="14.8649536"><ele>502.0</ele><time>2026-04-04T15:55:22.959Z</time></trkpt><trkpt lat="40.7650789" lon="14.8650263"><ele>502.0</ele><time>2026-04-04T15:55:24.967Z</time></trkpt><trkpt lat="40.7651504" lon="14.8650795"><ele>502.00000000000006</ele><time>2026-04-04T15:55:26.959Z</time></trkpt><trkpt lat="40.7652406" lon="14.8651501"><ele>502.0</ele><time>2026-04-04T15:55:28.942Z</time></trkpt><trkpt lat="40.7653417" lon="14.8652166"><ele>502.00000000000006</ele><time>2026-04-04T15:55:31.038Z</time></trkpt><trkpt lat="40.7654408" lon="14.8652089"><ele>502.0</ele><time>2026-04-04T15:55:32.969Z</time></trkpt><trkpt lat="40.7655058" lon="14.8652097"><ele>502.0</ele><time>2026-04-04T15:55:34.967Z</time></trkpt><trkpt lat="40.7655582" lon="14.8652736"><ele>502.0</ele><time>2026-04-04T15:55:37.033Z</time></trkpt><trkpt lat="40.7655262" lon="14.8653507"><ele>502.00000000000006</ele><time>2026-04-04T15:55:38.983Z</time></trkpt><trkpt lat="40.7655112" lon="14.8654661"><ele>502.0</ele><time>2026-04-04T15:55:40.979Z</time></trkpt><trkpt lat="40.765516" lon="14.8655543"><ele>502.00000000000006</ele><time>2026-04-04T15:55:41.979Z</time></trkpt><trkpt lat="40.7655079" lon="14.8656374"><ele>502.0</ele><time>2026-04-04T15:55:42.984Z</time></trkpt><trkpt lat="40.7655221" lon="14.8657528"><ele>502.0</ele><time>2026-04-04T15:55:43.975Z</time></trkpt><trkpt lat="40.7655574" lon="14.8658486"><ele>502.0</ele><time>2026-04-04T15:55:45.085Z</time></trkpt><trkpt lat="40.7655946" lon="14.8659256"><ele>502.00000000000006</ele><time>2026-04-04T15:55:46.056Z</time></trkpt><trkpt lat="40.7656482" lon="14.8659898"><ele>502.0</ele><time>2026-04-04T15:55:46.966Z</time></trkpt><trkpt lat="40.7657137" lon="14.8660642"><ele>502.6</ele><time>2026-04-04T15:55:47.951Z</time></trkpt><trkpt lat="40.7657797" lon="14.8661156"><ele>503.20000000000005</ele><time>2026-04-04T15:55:48.963Z</time></trkpt><trkpt lat="40.7658458" lon="14.8661446"><ele>503.8</ele><time>2026-04-04T15:55:49.951Z</time></trkpt><trkpt lat="40.7659331" lon="14.8661774"><ele>504.4</ele><time>2026-04-04T15:55:51.964Z</time></trkpt><trkpt lat="40.7660695" lon="14.8661912"><ele>505.0</ele><time>2026-04-04T15:55:54.042Z</time></trkpt><trkpt lat="40.766157" lon="14.8661782"><ele>505.00000000000006</ele><time>2026-04-04T15:55:55.944Z</time></trkpt><trkpt lat="40.76623" lon="14.8661839"><ele>505.0</ele><time>2026-04-04T15:55:57.976Z</time></trkpt><trkpt lat="40.7662974" lon="14.86621"><ele>505.0</ele><time>2026-04-04T15:55:59.974Z</time></trkpt><trkpt lat="40.7663731" lon="14.8662442"><ele>505.0</ele><time>2026-04-04T15:56:01.978Z</time></trkpt><trkpt lat="40.7664712" lon="14.8662769"><ele>505.00000000000006</ele><time>2026-04-04T15:56:03.98Z</time></trkpt><trkpt lat="40.7665375" lon="14.8662843"><ele>505.0</ele><time>2026-04-04T15:56:04.993Z</time></trkpt><trkpt lat="40.7666143" lon="14.8662776"><ele>505.00000000000006</ele><time>2026-04-04T15:56:05.963Z</time></trkpt><trkpt lat="40.7666777" lon="14.8662824"><ele>505.0</ele><time>2026-04-04T15:56:07.975Z</time></trkpt><trkpt lat="40.7667219" lon="14.866345"><ele>505.0</ele><time>2026-04-04T15:56:09.976Z</time></trkpt><trkpt lat="40.7668205" lon="14.8663948"><ele>505.0</ele><time>2026-04-04T15:56:11.972Z</time></trkpt><trkpt lat="40.7669005" lon="14.8664233"><ele>505.00000000000006</ele><time>2026-04-04T15:56:12.97Z</time></trkpt><trkpt lat="40.7670133" lon="14.8664795"><ele>505.0</ele><time>2026-04-04T15:56:15.043Z</time></trkpt><trkpt lat="40.7670591" lon="14.8665529"><ele>505.1666666666667</ele><time>2026-04-04T15:56:17.969Z</time></trkpt><trkpt lat="40.7669983" lon="14.866665"><ele>505.33333333333337</ele><time>2026-04-04T15:56:20.965Z</time></trkpt><trkpt lat="40.7669576" lon="14.8667289"><ele>505.5</ele><time>2026-04-04T15:56:21.955Z</time></trkpt><trkpt lat="40.7669068" lon="14.8667957"><ele>505.66666666666663</ele><time>2026-04-04T15:56:22.971Z</time></trkpt><trkpt lat="40.7668548" lon="14.8668648"><ele>505.8333333333333</ele><time>2026-04-04T15:56:24.035Z</time></trkpt><trkpt lat="40.7667877" lon="14.866944"><ele>506.0</ele><time>2026-04-04T15:56:25.037Z</time></trkpt><trkpt lat="40.7667268" lon="14.8670226"><ele>505.99999999999994</ele><time>2026-04-04T15:56:26.04Z</time></trkpt><trkpt lat="40.7666772" lon="14.8670775"><ele>506.0</ele><time>2026-04-04T15:56:26.973Z</time></trkpt><trkpt lat="40.7666316" lon="14.8671453"><ele>506.0</ele><time>2026-04-04T15:56:27.978Z</time></trkpt><trkpt lat="40.7666127" lon="14.8672428"><ele>506.0</ele><time>2026-04-04T15:56:28.988Z</time></trkpt><trkpt lat="40.7666232" lon="14.8673518"><ele>505.99999999999994</ele><time>2026-04-04T15:56:29.979Z</time></trkpt><trkpt lat="40.766665" lon="14.8674474"><ele>506.0</ele><time>2026-04-04T15:56:31.037Z</time></trkpt><trkpt lat="40.7667026" lon="14.8675481"><ele>503.99999999999994</ele><time>2026-04-04T15:56:32.033Z</time></trkpt><trkpt lat="40.7667417" lon="14.8676425"><ele>502.0</ele><time>2026-04-04T15:56:32.958Z</time></trkpt><trkpt lat="40.7667766" lon="14.8677369"><ele>500.0</ele><time>2026-04-04T15:56:33.97Z</time></trkpt><trkpt lat="40.7668325" lon="14.8678258"><ele>498.0</ele><time>2026-04-04T15:56:35.977Z</time></trkpt><trkpt lat="40.7668397" lon="14.8679152"><ele>495.99999999999994</ele><time>2026-04-04T15:56:39Z</time></trkpt><trkpt lat="40.766736" lon="14.867911"><ele>494.0</ele><time>2026-04-04T15:56:41.961Z</time></trkpt><trkpt lat="40.7666449" lon="14.8678935"><ele>493.99999999999994</ele><time>2026-04-04T15:56:43.96Z</time></trkpt><trkpt lat="40.7665321" lon="14.867884"><ele>494.0</ele><time>2026-04-04T15:56:45.961Z</time></trkpt><trkpt lat="40.7664574" lon="14.867885"><ele>494.0</ele><time>2026-04-04T15:56:47.033Z</time></trkpt><trkpt lat="40.7663748" lon="14.8678706"><ele>494.0</ele><time>2026-04-04T15:56:47.96Z</time></trkpt><trkpt lat="40.7663044" lon="14.8678539"><ele>493.99999999999994</ele><time>2026-04-04T15:56:48.964Z</time></trkpt><trkpt lat="40.7662057" lon="14.867825"><ele>494.0</ele><time>2026-04-04T15:56:50.968Z</time></trkpt><trkpt lat="40.7661401" lon="14.8678501"><ele>493.99999999999994</ele><time>2026-04-04T15:56:52.968Z</time></trkpt><trkpt lat="40.766136" lon="14.86796"><ele>494.0</ele><time>2026-04-04T15:56:55.014Z</time></trkpt><trkpt lat="40.7661537" lon="14.8680578"><ele>494.0</ele><time>2026-04-04T15:56:56.959Z</time></trkpt><trkpt lat="40.7661614" lon="14.8681648"><ele>494.0</ele><time>2026-04-04T15:56:58.961Z</time></trkpt><trkpt lat="40.7662041" lon="14.8683327"><ele>493.99999999999994</ele><time>2026-04-04T15:57:00.972Z</time></trkpt><trkpt lat="40.7662477" lon="14.868401"><ele>494.0</ele><time>2026-04-04T15:57:02.055Z</time></trkpt><trkpt lat="40.7663425" lon="14.8685224"><ele>489.4</ele><time>2026-04-04T15:57:03.974Z</time></trkpt><trkpt lat="40.7663948" lon="14.8685829"><ele>484.79999999999995</ele><time>2026-04-04T15:57:04.978Z</time></trkpt><trkpt lat="40.7664385" lon="14.8686511"><ele>480.20000000000005</ele><time>2026-04-04T15:57:05.973Z</time></trkpt><trkpt lat="40.7665622" lon="14.8687838"><ele>475.6</ele><time>2026-04-04T15:57:07.976Z</time></trkpt><trkpt lat="40.7666308" lon="14.8688672"><ele>471.0</ele><time>2026-04-04T15:57:08.977Z</time></trkpt><trkpt lat="40.7666904" lon="14.8689387"><ele>471.0</ele><time>2026-04-04T15:57:09.968Z</time></trkpt><trkpt lat="40.7667147" lon="14.8690366"><ele>471.0</ele><time>2026-04-04T15:57:12.027Z</time></trkpt><trkpt lat="40.766709" lon="14.8691301"><ele>471.0</ele><time>2026-04-04T15:57:13.974Z</time></trkpt><trkpt lat="40.7667815" lon="14.869233"><ele>471.0</ele><time>2026-04-04T15:57:16.969Z</time></trkpt><trkpt lat="40.7668748" lon="14.8692878"><ele>471.0</ele><time>2026-04-04T15:57:19.049Z</time></trkpt><trkpt lat="40.7668563" lon="14.8693957"><ele>471.0</ele><time>2026-04-04T15:57:27.967Z</time></trkpt><trkpt lat="40.7668576" lon="14.869492"><ele>473.1666666666667</ele><time>2026-04-04T15:57:31.975Z</time></trkpt><trkpt lat="40.7667676" lon="14.8694912"><ele>475.33333333333337</ele><time>2026-04-04T15:57:37.973Z</time></trkpt><trkpt lat="40.766691" lon="14.8694681"><ele>477.5</ele><time>2026-04-04T15:57:40.981Z</time></trkpt><trkpt lat="40.7665931" lon="14.8694635"><ele>479.6666666666667</ele><time>2026-04-04T15:57:43.98Z</time></trkpt><trkpt lat="40.7665276" lon="14.8694556"><ele>481.83333333333337</ele><time>2026-04-04T15:57:45.969Z</time></trkpt><trkpt lat="40.766462" lon="14.8694386"><ele>484.0</ele><time>2026-04-04T15:57:47.98Z</time></trkpt><trkpt lat="40.7663973" lon="14.8694273"><ele>484.00000000000006</ele><time>2026-04-04T15:57:50.975Z</time></trkpt><trkpt lat="40.7664194" lon="14.8695059"><ele>484.0</ele><time>2026-04-04T15:57:52.97Z</time></trkpt><trkpt lat="40.766462" lon="14.8695681"><ele>484.0</ele><time>2026-04-04T15:57:53.95Z</time></trkpt><trkpt lat="40.7665354" lon="14.8696372"><ele>484.0</ele><time>2026-04-04T15:57:54.964Z</time></trkpt><trkpt lat="40.7666138" lon="14.8697149"><ele>484.00000000000006</ele><time>2026-04-04T15:57:55.959Z</time></trkpt><trkpt lat="40.7666836" lon="14.8697874"><ele>484.0</ele><time>2026-04-04T15:57:56.97Z</time></trkpt><trkpt lat="40.766738" lon="14.8698427"><ele>484.0</ele><time>2026-04-04T15:57:57.976Z</time></trkpt><trkpt lat="40.766785" lon="14.8699298"><ele>484.0</ele><time>2026-04-04T15:57:58.961Z</time></trkpt><trkpt lat="40.766816" lon="14.8700039"><ele>484.0</ele><time>2026-04-04T15:57:59.974Z</time></trkpt><trkpt lat="40.7668632" lon="14.8701439"><ele>484.0</ele><time>2026-04-04T15:58:01.971Z</time></trkpt><trkpt lat="40.7669139" lon="14.8702235"><ele>484.0</ele><time>2026-04-04T15:58:03.98Z</time></trkpt><trkpt lat="40.7668194" lon="14.8701193"><ele>484.0</ele><time>2026-04-04T15:58:12.954Z</time></trkpt><trkpt lat="40.7667134" lon="14.8700668"><ele>484.0</ele><time>2026-04-04T15:58:13.97Z</time></trkpt><trkpt lat="40.7665981" lon="14.87001"><ele>484.0</ele><time>2026-04-04T15:58:14.965Z</time></trkpt><trkpt lat="40.7664616" lon="14.8699639"><ele>484.0</ele><time>2026-04-04T15:58:15.964Z</time></trkpt><trkpt lat="40.766315" lon="14.8699301"><ele>484.0</ele><time>2026-04-04T15:58:16.965Z</time></trkpt><trkpt lat="40.766204" lon="14.8699032"><ele>484.0</ele><time>2026-04-04T15:58:17.968Z</time></trkpt><trkpt lat="40.7661006" lon="14.8698733"><ele>484.0</ele><time>2026-04-04T15:58:18.969Z</time></trkpt><trkpt lat="40.7659766" lon="14.8698357"><ele>484.0</ele><time>2026-04-04T15:58:19.965Z</time></trkpt><trkpt lat="40.7658469" lon="14.8698144"><ele>488.5</ele><time>2026-04-04T15:58:20.976Z</time></trkpt><trkpt lat="40.765736" lon="14.8698079"><ele>493.0</ele><time>2026-04-04T15:58:21.966Z</time></trkpt><trkpt lat="40.7656064" lon="14.8697922"><ele>497.5</ele><time>2026-04-04T15:58:22.966Z</time></trkpt><trkpt lat="40.7654914" lon="14.8697725"><ele>502.0</ele><time>2026-04-04T15:58:23.958Z</time></trkpt><trkpt lat="40.7653924" lon="14.8697577"><ele>502.0</ele><time>2026-04-04T15:58:24.974Z</time></trkpt><trkpt lat="40.7652882" lon="14.8697544"><ele>502.0</ele><time>2026-04-04T15:58:25.971Z</time></trkpt><trkpt lat="40.7651597" lon="14.8697654"><ele>502.0</ele><time>2026-04-04T15:58:26.96Z</time></trkpt><trkpt lat="40.7650398" lon="14.8697767"><ele>502.0</ele><time>2026-04-04T15:58:27.969Z</time></trkpt><trkpt lat="40.764929" lon="14.869781"><ele>504.8</ele><time>2026-04-04T15:58:28.971Z</time></trkpt><trkpt lat="40.7648138" lon="14.8697768"><ele>507.6</ele><time>2026-04-04T15:58:29.958Z</time></trkpt><trkpt lat="40.7646838" lon="14.8697802"><ele>510.40000000000003</ele><time>2026-04-04T15:58:30.972Z</time></trkpt><trkpt lat="40.7645858" lon="14.8697967"><ele>513.2</ele><time>2026-04-04T15:58:31.967Z</time></trkpt><trkpt lat="40.7644949" lon="14.86979"><ele>516.0</ele><time>2026-04-04T15:58:32.953Z</time></trkpt><trkpt lat="40.7644242" lon="14.8697742"><ele>516.6666666666666</ele><time>2026-04-04T15:58:33.971Z</time></trkpt><trkpt lat="40.764345" lon="14.8697729"><ele>517.3333333333334</ele><time>2026-04-04T15:58:34.967Z</time></trkpt><trkpt lat="40.7642595" lon="14.8698077"><ele>518.0</ele><time>2026-04-04T15:58:36.968Z</time></trkpt><trkpt lat="40.7642145" lon="14.869926"><ele>518.6666666666667</ele><time>2026-04-04T15:58:38.981Z</time></trkpt><trkpt lat="40.7641765" lon="14.8700049"><ele>519.3333333333334</ele><time>2026-04-04T15:58:40.04Z</time></trkpt><trkpt lat="40.7641445" lon="14.8701151"><ele>520.0</ele><time>2026-04-04T15:58:40.957Z</time></trkpt><trkpt lat="40.7641046" lon="14.8702015"><ele>520.0</ele><time>2026-04-04T15:58:41.963Z</time></trkpt><trkpt lat="40.7640157" lon="14.8703136"><ele>520.0</ele><time>2026-04-04T15:58:43.958Z</time></trkpt><trkpt lat="40.7639573" lon="14.8703724"><ele>520.0</ele><time>2026-04-04T15:58:44.979Z</time></trkpt><trkpt lat="40.7639044" lon="14.8704281"><ele>520.0</ele><time>2026-04-04T15:58:45.964Z</time></trkpt><trkpt lat="40.76385" lon="14.8704756"><ele>520.0</ele><time>2026-04-04T15:58:47Z</time></trkpt><trkpt lat="40.7637777" lon="14.8705401"><ele>520.0</ele><time>2026-04-04T15:58:47.979Z</time></trkpt><trkpt lat="40.7637004" lon="14.8706047"><ele>520.0</ele><time>2026-04-04T15:58:48.972Z</time></trkpt><trkpt lat="40.7636295" lon="14.8706745"><ele>520.0</ele><time>2026-04-04T15:58:49.967Z</time></trkpt><trkpt lat="40.763566" lon="14.8707427"><ele>520.0</ele><time>2026-04-04T15:58:50.97Z</time></trkpt><trkpt lat="40.7635174" lon="14.8708304"><ele>520.0</ele><time>2026-04-04T15:58:52.972Z</time></trkpt><trkpt lat="40.7635721" lon="14.8709201"><ele>520.0</ele><time>2026-04-04T15:58:54.95Z</time></trkpt><trkpt lat="40.7636287" lon="14.8709796"><ele>520.0</ele><time>2026-04-04T15:58:56.031Z</time></trkpt><trkpt lat="40.7636835" lon="14.8710314"><ele>516.1666666666667</ele><time>2026-04-04T15:58:56.958Z</time></trkpt><trkpt lat="40.7637489" lon="14.8711247"><ele>512.3333333333334</ele><time>2026-04-04T15:58:58.976Z</time></trkpt><trkpt lat="40.76381" lon="14.8712185"><ele>508.5</ele><time>2026-04-04T15:59:01.035Z</time></trkpt><trkpt lat="40.7638638" lon="14.8712724"><ele>504.66666666666663</ele><time>2026-04-04T15:59:01.99Z</time></trkpt><trkpt lat="40.7639134" lon="14.8713248"><ele>500.8333333333333</ele><time>2026-04-04T15:59:02.967Z</time></trkpt><trkpt lat="40.7639632" lon="14.8713851"><ele>497.0</ele><time>2026-04-04T15:59:03.974Z</time></trkpt><trkpt lat="40.7640482" lon="14.8714871"><ele>497.0</ele><time>2026-04-04T15:59:05.976Z</time></trkpt><trkpt lat="40.764077" lon="14.8716387"><ele>497.00000000000006</ele><time>2026-04-04T15:59:07.971Z</time></trkpt><trkpt lat="40.764093" lon="14.8717254"><ele>497.00000000000006</ele><time>2026-04-04T15:59:08.964Z</time></trkpt><trkpt lat="40.7641783" lon="14.8718393"><ele>497.0</ele><time>2026-04-04T15:59:10.967Z</time></trkpt><trkpt lat="40.7642538" lon="14.8718915"><ele>497.0</ele><time>2026-04-04T15:59:11.972Z</time></trkpt><trkpt lat="40.76434" lon="14.8719558"><ele>493.66666666666663</ele><time>2026-04-04T15:59:13.972Z</time></trkpt><trkpt lat="40.7643982" lon="14.8720414"><ele>490.3333333333333</ele><time>2026-04-04T15:59:16.968Z</time></trkpt><trkpt lat="40.7644036" lon="14.8721399"><ele>487.0</ele><time>2026-04-04T15:59:18.969Z</time></trkpt><trkpt lat="40.7643831" lon="14.872227"><ele>483.66666666666663</ele><time>2026-04-04T15:59:20.969Z</time></trkpt><trkpt lat="40.7643301" lon="14.872313"><ele>480.3333333333333</ele><time>2026-04-04T15:59:22.983Z</time></trkpt><trkpt lat="40.7642914" lon="14.8724389"><ele>477.0</ele><time>2026-04-04T15:59:24.967Z</time></trkpt><trkpt lat="40.7642786" lon="14.8725226"><ele>477.0</ele><time>2026-04-04T15:59:26.973Z</time></trkpt><trkpt lat="40.7642327" lon="14.8726002"><ele>477.0</ele><time>2026-04-04T15:59:30.036Z</time></trkpt><trkpt lat="40.7641417" lon="14.8727022"><ele>477.0</ele><time>2026-04-04T15:59:31.966Z</time></trkpt><trkpt lat="40.7640744" lon="14.8727692"><ele>477.0</ele><time>2026-04-04T15:59:32.967Z</time></trkpt><trkpt lat="40.7640096" lon="14.8728402"><ele>477.0</ele><time>2026-04-04T15:59:33.969Z</time></trkpt><trkpt lat="40.7639414" lon="14.8728998"><ele>477.0</ele><time>2026-04-04T15:59:34.966Z</time></trkpt><trkpt lat="40.7638761" lon="14.8729683"><ele>479.6666666666667</ele><time>2026-04-04T15:59:35.967Z</time></trkpt><trkpt lat="40.7638069" lon="14.8730491"><ele>482.33333333333337</ele><time>2026-04-04T15:59:36.962Z</time></trkpt><trkpt lat="40.7637652" lon="14.8731301"><ele>485.0</ele><time>2026-04-04T15:59:37.966Z</time></trkpt><trkpt lat="40.7637445" lon="14.8732272"><ele>487.6666666666667</ele><time>2026-04-04T15:59:38.97Z</time></trkpt><trkpt lat="40.7637314" lon="14.8733388"><ele>490.33333333333337</ele><time>2026-04-04T15:59:39.992Z</time></trkpt><trkpt lat="40.7637394" lon="14.8734609"><ele>493.0</ele><time>2026-04-04T15:59:41.964Z</time></trkpt><trkpt lat="40.763763" lon="14.8735573"><ele>494.50000000000006</ele><time>2026-04-04T15:59:45.023Z</time></trkpt><trkpt lat="40.7637216" lon="14.8736245"><ele>496.0</ele><time>2026-04-04T15:59:48.977Z</time></trkpt><trkpt lat="40.7636532" lon="14.8736109"><ele>497.5</ele><time>2026-04-04T16:00:29.968Z</time></trkpt><trkpt lat="40.7636175" lon="14.8735293"><ele>499.0</ele><time>2026-04-04T16:00:31.972Z</time></trkpt><trkpt lat="40.7635705" lon="14.8734417"><ele>500.50000000000006</ele><time>2026-04-04T16:00:34.041Z</time></trkpt><trkpt lat="40.763525" lon="14.8733552"><ele>502.0</ele><time>2026-04-04T16:00:35.966Z</time></trkpt><trkpt lat="40.7634593" lon="14.8732642"><ele>500.20000000000005</ele><time>2026-04-04T16:00:37.964Z</time></trkpt><trkpt lat="40.7634109" lon="14.873159"><ele>498.40000000000003</ele><time>2026-04-04T16:00:40.031Z</time></trkpt><trkpt lat="40.7634237" lon="14.8730494"><ele>496.59999999999997</ele><time>2026-04-04T16:00:41.96Z</time></trkpt><trkpt lat="40.7634808" lon="14.8729733"><ele>494.79999999999995</ele><time>2026-04-04T16:00:43.962Z</time></trkpt><trkpt lat="40.763594" lon="14.8728888"><ele>493.0</ele><time>2026-04-04T16:00:45.976Z</time></trkpt><trkpt lat="40.7636422" lon="14.8728316"><ele>493.00000000000006</ele><time>2026-04-04T16:00:46.947Z</time></trkpt><trkpt lat="40.7637047" lon="14.8727527"><ele>493.0</ele><time>2026-04-04T16:00:49.964Z</time></trkpt><trkpt lat="40.7637358" lon="14.8726769"><ele>493.0</ele><time>2026-04-04T16:00:51.971Z</time></trkpt><trkpt lat="40.7636969" lon="14.8726092"><ele>493.0</ele><time>2026-04-04T16:00:57.96Z</time></trkpt><trkpt lat="40.7636066" lon="14.8726023"><ele>493.00000000000006</ele><time>2026-04-04T16:01:00.972Z</time></trkpt><trkpt lat="40.7635784" lon="14.8725212"><ele>493.0</ele><time>2026-04-04T16:01:03.964Z</time></trkpt><trkpt lat="40.7635416" lon="14.8723955"><ele>482.59999999999997</ele><time>2026-04-04T16:01:06.971Z</time></trkpt><trkpt lat="40.7634898" lon="14.8723138"><ele>472.19999999999993</ele><time>2026-04-04T16:01:10.972Z</time></trkpt><trkpt lat="40.7633989" lon="14.8722289"><ele>461.8</ele><time>2026-04-04T16:01:13.068Z</time></trkpt><trkpt lat="40.7633224" lon="14.8721638"><ele>451.4</ele><time>2026-04-04T16:01:15.032Z</time></trkpt><trkpt lat="40.7631981" lon="14.8721005"><ele>441.0</ele><time>2026-04-04T16:01:16.993Z</time></trkpt><trkpt lat="40.7631352" lon="14.8720516"><ele>441.0</ele><time>2026-04-04T16:01:17.971Z</time></trkpt><trkpt lat="40.7630802" lon="14.8720109"><ele>441.0</ele><time>2026-04-04T16:01:18.977Z</time></trkpt><trkpt lat="40.7629927" lon="14.8719714"><ele>441.0</ele><time>2026-04-04T16:01:20.976Z</time></trkpt><trkpt lat="40.7628825" lon="14.8719272"><ele>441.0</ele><time>2026-04-04T16:01:22.971Z</time></trkpt><trkpt lat="40.7627687" lon="14.8718781"><ele>441.0</ele><time>2026-04-04T16:01:24.962Z</time></trkpt><trkpt lat="40.7626396" lon="14.8718422"><ele>439.8333333333333</ele><time>2026-04-04T16:01:26.978Z</time></trkpt><trkpt lat="40.7625647" lon="14.8718246"><ele>438.66666666666663</ele><time>2026-04-04T16:01:27.967Z</time></trkpt><trkpt lat="40.7624869" lon="14.8718122"><ele>437.5</ele><time>2026-04-04T16:01:28.975Z</time></trkpt><trkpt lat="40.7624146" lon="14.8718075"><ele>436.3333333333333</ele><time>2026-04-04T16:01:29.972Z</time></trkpt><trkpt lat="40.7623177" lon="14.8717655"><ele>435.16666666666663</ele><time>2026-04-04T16:01:31.965Z</time></trkpt><trkpt lat="40.7624017" lon="14.871754"><ele>434.0</ele><time>2026-04-04T16:01:37.947Z</time></trkpt><trkpt lat="40.7624721" lon="14.8718042"><ele>433.99999999999994</ele><time>2026-04-04T16:01:40.955Z</time></trkpt><trkpt lat="40.7624374" lon="14.8718872"><ele>434.0</ele><time>2026-04-04T16:01:46.962Z</time></trkpt><trkpt lat="40.7623569" lon="14.8719292"><ele>434.0</ele><time>2026-04-04T16:01:48.962Z</time></trkpt><trkpt lat="40.7622651" lon="14.8718949"><ele>434.0</ele><time>2026-04-04T16:01:51.042Z</time></trkpt><trkpt lat="40.7622048" lon="14.8718274"><ele>433.99999999999994</ele><time>2026-04-04T16:01:51.962Z</time></trkpt><trkpt lat="40.7621516" lon="14.8717572"><ele>434.0</ele><time>2026-04-04T16:01:52.961Z</time></trkpt><trkpt lat="40.7621062" lon="14.8716987"><ele>433.99999999999994</ele><time>2026-04-04T16:01:53.969Z</time></trkpt><trkpt lat="40.7620539" lon="14.8716021"><ele>434.0</ele><time>2026-04-04T16:01:55.966Z</time></trkpt><trkpt lat="40.7619971" lon="14.8715536"><ele>434.0</ele><time>2026-04-04T16:01:58.962Z</time></trkpt><trkpt lat="40.7619728" lon="14.8716386"><ele>434.0</ele><time>2026-04-04T16:02:00.961Z</time></trkpt><trkpt lat="40.7619692" lon="14.8717553"><ele>433.99999999999994</ele><time>2026-04-04T16:02:02.963Z</time></trkpt><trkpt lat="40.7619998" lon="14.8718402"><ele>434.0</ele><time>2026-04-04T16:02:05.964Z</time></trkpt><trkpt lat="40.7619156" lon="14.8718463"><ele>428.8333333333333</ele><time>2026-04-04T16:02:10.964Z</time></trkpt><trkpt lat="40.7618277" lon="14.8717651"><ele>423.66666666666663</ele><time>2026-04-04T16:02:12.962Z</time></trkpt><trkpt lat="40.7617752" lon="14.8716534"><ele>418.5</ele><time>2026-04-04T16:02:14.959Z</time></trkpt><trkpt lat="40.7617704" lon="14.8715644"><ele>413.33333333333337</ele><time>2026-04-04T16:02:15.962Z</time></trkpt><trkpt lat="40.7617715" lon="14.8714751"><ele>408.1666666666667</ele><time>2026-04-04T16:02:17.959Z</time></trkpt><trkpt lat="40.7617075" lon="14.871454"><ele>403.0</ele><time>2026-04-04T16:02:21.011Z</time></trkpt><trkpt lat="40.7616159" lon="14.8714469"><ele>403.00000000000006</ele><time>2026-04-04T16:02:23.964Z</time></trkpt><trkpt lat="40.7615348" lon="14.8714069"><ele>403.0</ele><time>2026-04-04T16:02:26.058Z</time></trkpt><trkpt lat="40.761419" lon="14.8713501"><ele>403.0</ele><time>2026-04-04T16:02:27.986Z</time></trkpt><trkpt lat="40.7613582" lon="14.8713278"><ele>403.0</ele><time>2026-04-04T16:02:29.009Z</time></trkpt><trkpt lat="40.7612973" lon="14.8712945"><ele>403.00000000000006</ele><time>2026-04-04T16:02:29.97Z</time></trkpt><trkpt lat="40.7612284" lon="14.8712613"><ele>403.0</ele><time>2026-04-04T16:02:30.976Z</time></trkpt><trkpt lat="40.7611535" lon="14.8712347"><ele>403.0</ele><time>2026-04-04T16:02:31.974Z</time></trkpt><trkpt lat="40.7610716" lon="14.8712085"><ele>403.0</ele><time>2026-04-04T16:02:32.973Z</time></trkpt><trkpt lat="40.7609971" lon="14.8711805"><ele>403.0</ele><time>2026-04-04T16:02:33.965Z</time></trkpt><trkpt lat="40.7609325" lon="14.8711579"><ele>403.0</ele><time>2026-04-04T16:02:35.025Z</time></trkpt><trkpt lat="40.7608579" lon="14.8711331"><ele>403.0</ele><time>2026-04-04T16:02:35.967Z</time></trkpt><trkpt lat="40.7607954" lon="14.8711054"><ele>403.0</ele><time>2026-04-04T16:02:36.974Z</time></trkpt><trkpt lat="40.7607316" lon="14.8710731"><ele>403.0</ele><time>2026-04-04T16:02:37.981Z</time></trkpt><trkpt lat="40.7606672" lon="14.8710245"><ele>402.42857142857144</ele><time>2026-04-04T16:02:38.982Z</time></trkpt><trkpt lat="40.7606164" lon="14.8709695"><ele>401.85714285714283</ele><time>2026-04-04T16:02:39.996Z</time></trkpt><trkpt lat="40.7605605" lon="14.8708906"><ele>401.2857142857143</ele><time>2026-04-04T16:02:41.976Z</time></trkpt><trkpt lat="40.7604793" lon="14.8708679"><ele>400.7142857142857</ele><time>2026-04-04T16:02:44.989Z</time></trkpt><trkpt lat="40.7604598" lon="14.8709491"><ele>400.1428571428571</ele><time>2026-04-04T16:02:50.971Z</time></trkpt><trkpt lat="40.7604773" lon="14.8710321"><ele>399.57142857142856</ele><time>2026-04-04T16:02:54.98Z</time></trkpt><trkpt lat="40.7605086" lon="14.8711262"><ele>399.0</ele><time>2026-04-04T16:02:59.964Z</time></trkpt><trkpt lat="40.7605475" lon="14.8711933"><ele>399.0</ele><time>2026-04-04T16:03:02.971Z</time></trkpt><trkpt lat="40.7605979" lon="14.871281"><ele>399.0</ele><time>2026-04-04T16:03:06.034Z</time></trkpt><trkpt lat="40.7606927" lon="14.8713058"><ele>399.0</ele><time>2026-04-04T16:03:08.959Z</time></trkpt><trkpt lat="40.760764" lon="14.8713464"><ele>399.0</ele><time>2026-04-04T16:03:10.98Z</time></trkpt><trkpt lat="40.7608375" lon="14.8714002"><ele>399.0</ele><time>2026-04-04T16:03:12.976Z</time></trkpt><trkpt lat="40.7609176" lon="14.8714381"><ele>399.0</ele><time>2026-04-04T16:03:14.97Z</time></trkpt><trkpt lat="40.7610318" lon="14.8714412"><ele>399.79999999999995</ele><time>2026-04-04T16:03:16.974Z</time></trkpt><trkpt lat="40.7611462" lon="14.8714474"><ele>400.59999999999997</ele><time>2026-04-04T16:03:19.046Z</time></trkpt><trkpt lat="40.7612356" lon="14.8714635"><ele>401.4</ele><time>2026-04-04T16:03:20.975Z</time></trkpt><trkpt lat="40.7613127" lon="14.8714866"><ele>402.2</ele><time>2026-04-04T16:03:22.979Z</time></trkpt><trkpt lat="40.7613878" lon="14.8715583"><ele>403.0</ele><time>2026-04-04T16:03:24.986Z</time></trkpt><trkpt lat="40.7614639" lon="14.8716417"><ele>403.00000000000006</ele><time>2026-04-04T16:03:26.975Z</time></trkpt><trkpt lat="40.7615392" lon="14.8717098"><ele>403.0</ele><time>2026-04-04T16:03:28.972Z</time></trkpt><trkpt lat="40.7615871" lon="14.8717839"><ele>403.0</ele><time>2026-04-04T16:03:30.973Z</time></trkpt><trkpt lat="40.7616274" lon="14.871885"><ele>403.0</ele><time>2026-04-04T16:04:00.977Z</time></trkpt><trkpt lat="40.7616706" lon="14.8719596"><ele>403.00000000000006</ele><time>2026-04-04T16:04:03.968Z</time></trkpt><trkpt lat="40.7616757" lon="14.8720442"><ele>403.0</ele><time>2026-04-04T16:04:05.967Z</time></trkpt><trkpt lat="40.7616892" lon="14.8721342"><ele>402.83333333333337</ele><time>2026-04-04T16:04:08.069Z</time></trkpt><trkpt lat="40.7617321" lon="14.8722348"><ele>402.6666666666667</ele><time>2026-04-04T16:04:10.969Z</time></trkpt><trkpt lat="40.7617729" lon="14.8722985"><ele>402.5</ele><time>2026-04-04T16:04:12.975Z</time></trkpt><trkpt lat="40.7618206" lon="14.872367"><ele>402.33333333333337</ele><time>2026-04-04T16:04:14.976Z</time></trkpt><trkpt lat="40.7618584" lon="14.8724768"><ele>402.1666666666667</ele><time>2026-04-04T16:04:17.977Z</time></trkpt><trkpt lat="40.7618833" lon="14.8725622"><ele>402.0</ele><time>2026-04-04T16:04:19.973Z</time></trkpt><trkpt lat="40.761925" lon="14.8726563"><ele>403.3333333333333</ele><time>2026-04-04T16:04:21.976Z</time></trkpt><trkpt lat="40.7619867" lon="14.8727194"><ele>404.66666666666663</ele><time>2026-04-04T16:04:24.977Z</time></trkpt><trkpt lat="40.7620205" lon="14.8727999"><ele>406.0</ele><time>2026-04-04T16:04:27.979Z</time></trkpt><trkpt lat="40.7621103" lon="14.8728626"><ele>407.3333333333333</ele><time>2026-04-04T16:04:30.966Z</time></trkpt><trkpt lat="40.7621824" lon="14.8729595"><ele>408.66666666666663</ele><time>2026-04-04T16:04:32.979Z</time></trkpt><trkpt lat="40.7622222" lon="14.8730325"><ele>410.0</ele><time>2026-04-04T16:04:33.983Z</time></trkpt><trkpt lat="40.762272" lon="14.8731155"><ele>409.99999999999994</ele><time>2026-04-04T16:04:35.053Z</time></trkpt><trkpt lat="40.7623484" lon="14.8731742"><ele>410.0</ele><time>2026-04-04T16:04:36.973Z</time></trkpt><trkpt lat="40.7623994" lon="14.8732712"><ele>410.0</ele><time>2026-04-04T16:04:38.961Z</time></trkpt><trkpt lat="40.7624508" lon="14.8733654"><ele>410.0</ele><time>2026-04-04T16:04:40.967Z</time></trkpt><trkpt lat="40.7625148" lon="14.8734242"><ele>409.99999999999994</ele><time>2026-04-04T16:04:43.043Z</time></trkpt><trkpt lat="40.762547" lon="14.8735077"><ele>410.0</ele><time>2026-04-04T16:04:45.025Z</time></trkpt><trkpt lat="40.7625747" lon="14.8735831"><ele>411.49999999999994</ele><time>2026-04-04T16:04:46.944Z</time></trkpt><trkpt lat="40.7626198" lon="14.8736867"><ele>413.0</ele><time>2026-04-04T16:04:48.953Z</time></trkpt><trkpt lat="40.7626466" lon="14.8737931"><ele>414.5</ele><time>2026-04-04T16:04:50.975Z</time></trkpt><trkpt lat="40.7626485" lon="14.8738813"><ele>416.0</ele><time>2026-04-04T16:04:52.959Z</time></trkpt><trkpt lat="40.7626619" lon="14.8739766"><ele>417.49999999999994</ele><time>2026-04-04T16:04:55.049Z</time></trkpt><trkpt lat="40.7626961" lon="14.8741067"><ele>419.0</ele><time>2026-04-04T16:04:56.957Z</time></trkpt><trkpt lat="40.7627387" lon="14.8742763"><ele>423.79999999999995</ele><time>2026-04-04T16:04:58.96Z</time></trkpt><trkpt lat="40.7627882" lon="14.8744507"><ele>428.59999999999997</ele><time>2026-04-04T16:05:00.967Z</time></trkpt><trkpt lat="40.762808" lon="14.8745465"><ele>433.4</ele><time>2026-04-04T16:05:01.964Z</time></trkpt><trkpt lat="40.7628218" lon="14.8746425"><ele>438.2</ele><time>2026-04-04T16:05:02.985Z</time></trkpt><trkpt lat="40.7628256" lon="14.8747326"><ele>443.0</ele><time>2026-04-04T16:05:03.959Z</time></trkpt><trkpt lat="40.7628557" lon="14.8748719"><ele>442.99999999999994</ele><time>2026-04-04T16:05:05.956Z</time></trkpt><trkpt lat="40.7628699" lon="14.8749869"><ele>443.0</ele><time>2026-04-04T16:05:07.959Z</time></trkpt><trkpt lat="40.7628822" lon="14.875114"><ele>443.0</ele><time>2026-04-04T16:05:10.957Z</time></trkpt><trkpt lat="40.762922" lon="14.8751923"><ele>443.0</ele><time>2026-04-04T16:05:12.955Z</time></trkpt><trkpt lat="40.7629606" lon="14.8752618"><ele>442.99999999999994</ele><time>2026-04-04T16:05:14.983Z</time></trkpt><trkpt lat="40.7630092" lon="14.8753625"><ele>443.0</ele><time>2026-04-04T16:05:17.949Z</time></trkpt><trkpt lat="40.7630635" lon="14.8754585"><ele>443.2857142857143</ele><time>2026-04-04T16:05:20.976Z</time></trkpt><trkpt lat="40.7631057" lon="14.8755211"><ele>443.57142857142856</ele><time>2026-04-04T16:05:23.042Z</time></trkpt><trkpt lat="40.7631669" lon="14.875587"><ele>443.8571428571429</ele><time>2026-04-04T16:05:31.022Z</time></trkpt><trkpt lat="40.7631141" lon="14.8756674"><ele>444.1428571428571</ele><time>2026-04-04T16:07:13.958Z</time></trkpt><trkpt lat="40.7630491" lon="14.8756406"><ele>444.4285714285714</ele><time>2026-04-04T16:18:52.994Z</time></trkpt><trkpt lat="40.7629893" lon="14.8755976"><ele>444.7142857142857</ele><time>2026-04-04T16:18:55.955Z</time></trkpt><trkpt lat="40.7629273" lon="14.8755632"><ele>445.0</ele><time>2026-04-04T16:18:59.954Z</time></trkpt><trkpt lat="40.7628552" lon="14.8754654"><ele>445.00000000000006</ele><time>2026-04-04T16:19:03.957Z</time></trkpt><trkpt lat="40.7628114" lon="14.8753921"><ele>445.0</ele><time>2026-04-04T16:19:04.963Z</time></trkpt><trkpt lat="40.7627555" lon="14.8752978"><ele>445.0</ele><time>2026-04-04T16:19:05.962Z</time></trkpt><trkpt lat="40.7627154" lon="14.875229"><ele>445.0</ele><time>2026-04-04T16:19:06.96Z</time></trkpt><trkpt lat="40.7626681" lon="14.8751122"><ele>445.00000000000006</ele><time>2026-04-04T16:19:08.952Z</time></trkpt><trkpt lat="40.7626379" lon="14.8749864"><ele>445.0</ele><time>2026-04-04T16:19:10.96Z</time></trkpt><trkpt lat="40.7626078" lon="14.874888"><ele>443.00000000000006</ele><time>2026-04-04T16:19:13.059Z</time></trkpt><trkpt lat="40.762591" lon="14.874801"><ele>441.0</ele><time>2026-04-04T16:19:15.017Z</time></trkpt><trkpt lat="40.7625622" lon="14.8747095"><ele>439.0</ele><time>2026-04-04T16:19:16.965Z</time></trkpt><trkpt lat="40.7625145" lon="14.8745762"><ele>437.0</ele><time>2026-04-04T16:19:18.961Z</time></trkpt><trkpt lat="40.7624535" lon="14.8744638"><ele>435.00000000000006</ele><time>2026-04-04T16:19:20.961Z</time></trkpt><trkpt lat="40.7623844" lon="14.8744112"><ele>433.0</ele><time>2026-04-04T16:19:23.964Z</time></trkpt><trkpt lat="40.7623326" lon="14.8743583"><ele>429.5</ele><time>2026-04-04T16:19:25.963Z</time></trkpt><trkpt lat="40.7622808" lon="14.8742337"><ele>426.0</ele><time>2026-04-04T16:19:28.943Z</time></trkpt><trkpt lat="40.7622503" lon="14.8741224"><ele>422.5</ele><time>2026-04-04T16:19:29.955Z</time></trkpt><trkpt lat="40.7621527" lon="14.8739068"><ele>419.0</ele><time>2026-04-04T16:19:30.946Z</time></trkpt><trkpt lat="40.7620535" lon="14.8738427"><ele>418.99999999999994</ele><time>2026-04-04T16:19:31.953Z</time></trkpt><trkpt lat="40.7619638" lon="14.8737924"><ele>419.0</ele><time>2026-04-04T16:19:32.944Z</time></trkpt><trkpt lat="40.7618743" lon="14.8737712"><ele>419.0</ele><time>2026-04-04T16:19:33.952Z</time></trkpt><trkpt lat="40.7618009" lon="14.8737758"><ele>419.0</ele><time>2026-04-04T16:19:34.954Z</time></trkpt><trkpt lat="40.7617091" lon="14.8737929"><ele>418.99999999999994</ele><time>2026-04-04T16:19:36.964Z</time></trkpt><trkpt lat="40.7616553" lon="14.8737121"><ele>419.0</ele><time>2026-04-04T16:19:38.962Z</time></trkpt><trkpt lat="40.7616348" lon="14.8736184"><ele>419.16666666666663</ele><time>2026-04-04T16:19:39.963Z</time></trkpt><trkpt lat="40.7616069" lon="14.8735409"><ele>419.3333333333333</ele><time>2026-04-04T16:19:40.966Z</time></trkpt><trkpt lat="40.7615769" lon="14.8734538"><ele>419.5</ele><time>2026-04-04T16:19:41.963Z</time></trkpt><trkpt lat="40.761499" lon="14.8733719"><ele>419.66666666666663</ele><time>2026-04-04T16:19:43.967Z</time></trkpt><trkpt lat="40.7613639" lon="14.8733141"><ele>419.8333333333333</ele><time>2026-04-04T16:19:45.964Z</time></trkpt><trkpt lat="40.7613046" lon="14.8732768"><ele>420.0</ele><time>2026-04-04T16:19:46.956Z</time></trkpt><trkpt lat="40.7612227" lon="14.8732103"><ele>420.0</ele><time>2026-04-04T16:19:48.942Z</time></trkpt><trkpt lat="40.7611619" lon="14.8731364"><ele>420.0</ele><time>2026-04-04T16:19:50.961Z</time></trkpt><trkpt lat="40.7611089" lon="14.8730404"><ele>420.0</ele><time>2026-04-04T16:19:52.961Z</time></trkpt><trkpt lat="40.7610614" lon="14.8729388"><ele>420.0</ele><time>2026-04-04T16:19:54.968Z</time></trkpt><trkpt lat="40.7609947" lon="14.8728458"><ele>420.0</ele><time>2026-04-04T16:19:56.942Z</time></trkpt><trkpt lat="40.7609116" lon="14.8727488"><ele>421.6</ele><time>2026-04-04T16:19:58.959Z</time></trkpt><trkpt lat="40.7608179" lon="14.8727114"><ele>423.2</ele><time>2026-04-04T16:20:01.004Z</time></trkpt><trkpt lat="40.7607131" lon="14.872688"><ele>424.79999999999995</ele><time>2026-04-04T16:20:02.946Z</time></trkpt><trkpt lat="40.7606508" lon="14.8726665"><ele>426.4</ele><time>2026-04-04T16:20:03.948Z</time></trkpt><trkpt lat="40.7605599" lon="14.8726181"><ele>428.0</ele><time>2026-04-04T16:20:04.962Z</time></trkpt><trkpt lat="40.7604643" lon="14.8725959"><ele>428.0</ele><time>2026-04-04T16:20:05.962Z</time></trkpt><trkpt lat="40.7603615" lon="14.8725852"><ele>427.99999999999994</ele><time>2026-04-04T16:20:06.958Z</time></trkpt><trkpt lat="40.7602689" lon="14.8725794"><ele>427.99999999999994</ele><time>2026-04-04T16:20:07.962Z</time></trkpt><trkpt lat="40.7601644" lon="14.8725809"><ele>428.0</ele><time>2026-04-04T16:20:08.955Z</time></trkpt><trkpt lat="40.7600792" lon="14.8726083"><ele>428.0</ele><time>2026-04-04T16:20:09.963Z</time></trkpt><trkpt lat="40.7600168" lon="14.8726714"><ele>432.99999999999994</ele><time>2026-04-04T16:20:10.968Z</time></trkpt><trkpt lat="40.7599837" lon="14.8727476"><ele>438.0</ele><time>2026-04-04T16:20:11.962Z</time></trkpt><trkpt lat="40.759945" lon="14.8728325"><ele>443.0</ele><time>2026-04-04T16:20:13.053Z</time></trkpt><trkpt lat="40.7599163" lon="14.8729135"><ele>448.0</ele><time>2026-04-04T16:20:13.958Z</time></trkpt><trkpt lat="40.7598968" lon="14.8729991"><ele>452.99999999999994</ele><time>2026-04-04T16:20:15.033Z</time></trkpt><trkpt lat="40.7598865" lon="14.8731217"><ele>458.0</ele><time>2026-04-04T16:20:16.956Z</time></trkpt><trkpt lat="40.7598836" lon="14.8732537"><ele>457.99999999999994</ele><time>2026-04-04T16:20:18.969Z</time></trkpt><trkpt lat="40.7598828" lon="14.873338"><ele>458.0</ele><time>2026-04-04T16:20:19.983Z</time></trkpt><trkpt lat="40.7598727" lon="14.8734573"><ele>458.0</ele><time>2026-04-04T16:20:21.962Z</time></trkpt><trkpt lat="40.7598366" lon="14.873543"><ele>458.0</ele><time>2026-04-04T16:20:23.972Z</time></trkpt><trkpt lat="40.7597793" lon="14.8736508"><ele>457.99999999999994</ele><time>2026-04-04T16:20:25.969Z</time></trkpt><trkpt lat="40.7597402" lon="14.8737347"><ele>458.0</ele><time>2026-04-04T16:20:26.972Z</time></trkpt><trkpt lat="40.7596984" lon="14.8738089"><ele>460.2</ele><time>2026-04-04T16:20:27.949Z</time></trkpt><trkpt lat="40.7596591" lon="14.8738819"><ele>462.4</ele><time>2026-04-04T16:20:28.976Z</time></trkpt><trkpt lat="40.7596118" lon="14.8740157"><ele>464.59999999999997</ele><time>2026-04-04T16:20:30.968Z</time></trkpt><trkpt lat="40.7595457" lon="14.8740107"><ele>466.79999999999995</ele><time>2026-04-04T16:20:32.969Z</time></trkpt><trkpt lat="40.7594369" lon="14.8739712"><ele>469.0</ele><time>2026-04-04T16:20:34.97Z</time></trkpt><trkpt lat="40.7593427" lon="14.8738519"><ele>469.00000000000006</ele><time>2026-04-04T16:20:36.963Z</time></trkpt><trkpt lat="40.7592805" lon="14.8737791"><ele>469.0</ele><time>2026-04-04T16:20:37.968Z</time></trkpt><trkpt lat="40.7592034" lon="14.8737116"><ele>469.0</ele><time>2026-04-04T16:20:39.045Z</time></trkpt><trkpt lat="40.7591306" lon="14.8736524"><ele>469.0</ele><time>2026-04-04T16:20:39.965Z</time></trkpt><trkpt lat="40.7590556" lon="14.8735942"><ele>469.00000000000006</ele><time>2026-04-04T16:20:40.97Z</time></trkpt><trkpt lat="40.7589801" lon="14.873548"><ele>469.0</ele><time>2026-04-04T16:20:41.972Z</time></trkpt><trkpt lat="40.7589088" lon="14.8735089"><ele>469.00000000000006</ele><time>2026-04-04T16:20:42.968Z</time></trkpt><trkpt lat="40.7587987" lon="14.8734696"><ele>469.0</ele><time>2026-04-04T16:20:44.981Z</time></trkpt><trkpt lat="40.7586951" lon="14.8734965"><ele>469.0</ele><time>2026-04-04T16:20:46.961Z</time></trkpt><trkpt lat="40.7586358" lon="14.8735451"><ele>469.0</ele><time>2026-04-04T16:20:47.959Z</time></trkpt><trkpt lat="40.7585868" lon="14.8736044"><ele>469.00000000000006</ele><time>2026-04-04T16:20:49.018Z</time></trkpt><trkpt lat="40.7585327" lon="14.8736648"><ele>469.0</ele><time>2026-04-04T16:20:49.968Z</time></trkpt><trkpt lat="40.758482" lon="14.8737407"><ele>465.50000000000006</ele><time>2026-04-04T16:20:50.969Z</time></trkpt><trkpt lat="40.7584366" lon="14.8738267"><ele>462.0</ele><time>2026-04-04T16:20:51.973Z</time></trkpt><trkpt lat="40.7583949" lon="14.8739113"><ele>458.5</ele><time>2026-04-04T16:20:52.959Z</time></trkpt><trkpt lat="40.758369" lon="14.8740114"><ele>455.0</ele><time>2026-04-04T16:20:53.971Z</time></trkpt><trkpt lat="40.7583567" lon="14.8741269"><ele>451.50000000000006</ele><time>2026-04-04T16:20:55.966Z</time></trkpt><trkpt lat="40.7582822" lon="14.8741097"><ele>448.0</ele><time>2026-04-04T16:21:00.962Z</time></trkpt><trkpt lat="40.7582063" lon="14.8741014"><ele>448.0</ele><time>2026-04-04T16:21:02.979Z</time></trkpt><trkpt lat="40.7581304" lon="14.8741437"><ele>447.99999999999994</ele><time>2026-04-04T16:21:05.97Z</time></trkpt><trkpt lat="40.758025" lon="14.8741072"><ele>447.99999999999994</ele><time>2026-04-04T16:21:08.972Z</time></trkpt><trkpt lat="40.7579603" lon="14.8740934"><ele>448.0</ele><time>2026-04-04T16:21:09.974Z</time></trkpt><trkpt lat="40.7578883" lon="14.8740531"><ele>448.0</ele><time>2026-04-04T16:21:11.966Z</time></trkpt><trkpt lat="40.7577649" lon="14.8739806"><ele>449.83333333333337</ele><time>2026-04-04T16:21:13.973Z</time></trkpt><trkpt lat="40.7576976" lon="14.8739339"><ele>451.6666666666667</ele><time>2026-04-04T16:21:14.968Z</time></trkpt><trkpt lat="40.7576333" lon="14.8738925"><ele>453.5</ele><time>2026-04-04T16:21:15.968Z</time></trkpt><trkpt lat="40.7575618" lon="14.8738475"><ele>455.33333333333337</ele><time>2026-04-04T16:21:16.967Z</time></trkpt><trkpt lat="40.7574964" lon="14.8738099"><ele>457.1666666666667</ele><time>2026-04-04T16:21:17.962Z</time></trkpt><trkpt lat="40.7574162" lon="14.8737761"><ele>459.0</ele><time>2026-04-04T16:21:18.968Z</time></trkpt><trkpt lat="40.7573227" lon="14.8737596"><ele>459.0</ele><time>2026-04-04T16:21:19.963Z</time></trkpt><trkpt lat="40.7572243" lon="14.873762"><ele>459.0</ele><time>2026-04-04T16:21:20.969Z</time></trkpt><trkpt lat="40.7571343" lon="14.8737788"><ele>459.0</ele><time>2026-04-04T16:21:21.96Z</time></trkpt><trkpt lat="40.7570482" lon="14.8738102"><ele>459.0</ele><time>2026-04-04T16:21:22.97Z</time></trkpt><trkpt lat="40.7569623" lon="14.8738406"><ele>459.0</ele><time>2026-04-04T16:21:24.061Z</time></trkpt><trkpt lat="40.7568704" lon="14.8738914"><ele>456.79999999999995</ele><time>2026-04-04T16:21:25.965Z</time></trkpt><trkpt lat="40.7568495" lon="14.8737475"><ele>454.59999999999997</ele><time>2026-04-04T16:21:31.953Z</time></trkpt><trkpt lat="40.7568435" lon="14.8736435"><ele>452.4</ele><time>2026-04-04T16:21:32.96Z</time></trkpt><trkpt lat="40.7568294" lon="14.8735234"><ele>450.2</ele><time>2026-04-04T16:21:33.96Z</time></trkpt><trkpt lat="40.7567793" lon="14.8733963"><ele>448.0</ele><time>2026-04-04T16:21:34.966Z</time></trkpt><trkpt lat="40.7566899" lon="14.8732707"><ele>443.75</ele><time>2026-04-04T16:21:36.052Z</time></trkpt><trkpt lat="40.7565318" lon="14.8730845"><ele>439.5</ele><time>2026-04-04T16:21:37.943Z</time></trkpt><trkpt lat="40.7564594" lon="14.8730303"><ele>435.25</ele><time>2026-04-04T16:21:38.957Z</time></trkpt><trkpt lat="40.7563807" lon="14.8729913"><ele>431.0</ele><time>2026-04-04T16:21:39.962Z</time></trkpt><trkpt lat="40.7563106" lon="14.8729604"><ele>431.0</ele><time>2026-04-04T16:21:40.964Z</time></trkpt><trkpt lat="40.7561852" lon="14.8728812"><ele>431.0</ele><time>2026-04-04T16:21:42.966Z</time></trkpt><trkpt lat="40.7561096" lon="14.8728008"><ele>431.0</ele><time>2026-04-04T16:21:44.024Z</time></trkpt><trkpt lat="40.7560285" lon="14.8727495"><ele>431.0</ele><time>2026-04-04T16:21:45.044Z</time></trkpt><trkpt lat="40.7559409" lon="14.8727138"><ele>431.0</ele><time>2026-04-04T16:21:46.035Z</time></trkpt><trkpt lat="40.7558411" lon="14.8726761"><ele>425.8</ele><time>2026-04-04T16:21:46.96Z</time></trkpt><trkpt lat="40.7557421" lon="14.8726354"><ele>420.6</ele><time>2026-04-04T16:21:47.965Z</time></trkpt><trkpt lat="40.7556469" lon="14.8725916"><ele>415.4</ele><time>2026-04-04T16:21:48.978Z</time></trkpt><trkpt lat="40.7555616" lon="14.8725581"><ele>410.2</ele><time>2026-04-04T16:21:50.055Z</time></trkpt><trkpt lat="40.7554705" lon="14.8725125"><ele>405.0</ele><time>2026-04-04T16:21:51.978Z</time></trkpt><trkpt lat="40.7554943" lon="14.8724069"><ele>405.0</ele><time>2026-04-04T16:21:54.966Z</time></trkpt><trkpt lat="40.7554409" lon="14.872353"><ele>405.0</ele><time>2026-04-04T16:21:59.964Z</time></trkpt><trkpt lat="40.7553577" lon="14.8724188"><ele>405.0</ele><time>2026-04-04T16:22:01.984Z</time></trkpt><trkpt lat="40.7553047" lon="14.8724841"><ele>405.0</ele><time>2026-04-04T16:22:03.082Z</time></trkpt><trkpt lat="40.755239" lon="14.8725714"><ele>405.0</ele><time>2026-04-04T16:22:04.954Z</time></trkpt><trkpt lat="40.7551726" lon="14.8725263"><ele>405.0</ele><time>2026-04-04T16:22:07.978Z</time></trkpt><trkpt lat="40.7551668" lon="14.8723339"><ele>405.0</ele><time>2026-04-04T16:22:09.976Z</time></trkpt><trkpt lat="40.7551549" lon="14.8722196"><ele>405.0</ele><time>2026-04-04T16:22:10.969Z</time></trkpt><trkpt lat="40.7551679" lon="14.8720736"><ele>405.0</ele><time>2026-04-04T16:22:12.982Z</time></trkpt><trkpt lat="40.7552123" lon="14.8719633"><ele>405.0</ele><time>2026-04-04T16:22:14.974Z</time></trkpt><trkpt lat="40.7551838" lon="14.8718741"><ele>405.0</ele><time>2026-04-04T16:22:17.956Z</time></trkpt><trkpt lat="40.7551069" lon="14.8719179"><ele>400.3333333333333</ele><time>2026-04-04T16:22:19.971Z</time></trkpt><trkpt lat="40.7550689" lon="14.8719923"><ele>395.6666666666667</ele><time>2026-04-04T16:22:20.967Z</time></trkpt><trkpt lat="40.755044" lon="14.8720812"><ele>391.0</ele><time>2026-04-04T16:22:21.97Z</time></trkpt><trkpt lat="40.7550247" lon="14.8721604"><ele>386.33333333333337</ele><time>2026-04-04T16:22:22.977Z</time></trkpt><trkpt lat="40.7549923" lon="14.8722428"><ele>381.6666666666667</ele><time>2026-04-04T16:22:25.975Z</time></trkpt><trkpt lat="40.75493" lon="14.8721464"><ele>377.0</ele><time>2026-04-04T16:22:28.976Z</time></trkpt><trkpt lat="40.7549156" lon="14.8720091"><ele>377.0</ele><time>2026-04-04T16:22:30.954Z</time></trkpt><trkpt lat="40.7549363" lon="14.8718661"><ele>377.0</ele><time>2026-04-04T16:22:32.966Z</time></trkpt><trkpt lat="40.7549632" lon="14.8717899"><ele>377.0</ele><time>2026-04-04T16:22:34.967Z</time></trkpt><trkpt lat="40.7548713" lon="14.8718362"><ele>377.0</ele><time>2026-04-04T16:22:38.972Z</time></trkpt><trkpt lat="40.7547864" lon="14.8719314"><ele>377.0</ele><time>2026-04-04T16:22:40.966Z</time></trkpt><trkpt lat="40.7547396" lon="14.8720218"><ele>377.0</ele><time>2026-04-04T16:22:42.97Z</time></trkpt><trkpt lat="40.7546938" lon="14.8719464"><ele>377.0</ele><time>2026-04-04T16:22:45.963Z</time></trkpt><trkpt lat="40.7546922" lon="14.8718523"><ele>377.0</ele><time>2026-04-04T16:22:46.965Z</time></trkpt><trkpt lat="40.7546839" lon="14.871746"><ele>377.0</ele><time>2026-04-04T16:22:47.975Z</time></trkpt><trkpt lat="40.7546707" lon="14.8716458"><ele>377.0</ele><time>2026-04-04T16:22:48.973Z</time></trkpt><trkpt lat="40.7546577" lon="14.8715038"><ele>377.0</ele><time>2026-04-04T16:22:50.966Z</time></trkpt><trkpt lat="40.7546446" lon="14.8714189"><ele>377.0</ele><time>2026-04-04T16:22:53.965Z</time></trkpt><trkpt lat="40.7545972" lon="14.8715579"><ele>377.0</ele><time>2026-04-04T16:22:56.973Z</time></trkpt><trkpt lat="40.7545653" lon="14.8716588"><ele>377.0</ele><time>2026-04-04T16:22:57.966Z</time></trkpt><trkpt lat="40.7545235" lon="14.8717497"><ele>377.0</ele><time>2026-04-04T16:22:58.966Z</time></trkpt><trkpt lat="40.7544733" lon="14.8718677"><ele>377.0</ele><time>2026-04-04T16:23:00.969Z</time></trkpt><trkpt lat="40.7544453" lon="14.8719442"><ele>377.0</ele><time>2026-04-04T16:23:03.975Z</time></trkpt><trkpt lat="40.7544461" lon="14.8720273"><ele>377.0</ele><time>2026-04-04T16:23:07.98Z</time></trkpt><trkpt lat="40.7544738" lon="14.871896"><ele>377.0</ele><time>2026-04-04T16:23:11.969Z</time></trkpt><trkpt lat="40.7544924" lon="14.8717687"><ele>377.0</ele><time>2026-04-04T16:23:14.1Z</time></trkpt><trkpt lat="40.7545365" lon="14.8716578"><ele>377.0</ele><time>2026-04-04T16:23:15.961Z</time></trkpt><trkpt lat="40.7545904" lon="14.8716096"><ele>377.0</ele><time>2026-04-04T16:23:16.968Z</time></trkpt><trkpt lat="40.7546553" lon="14.8715679"><ele>377.0</ele><time>2026-04-04T16:23:17.976Z</time></trkpt><trkpt lat="40.75473" lon="14.8715295"><ele>374.6666666666667</ele><time>2026-04-04T16:23:18.969Z</time></trkpt><trkpt lat="40.754821" lon="14.8714918"><ele>372.33333333333337</ele><time>2026-04-04T16:23:20.044Z</time></trkpt><trkpt lat="40.7549139" lon="14.8714199"><ele>370.0</ele><time>2026-04-04T16:23:21.049Z</time></trkpt><trkpt lat="40.7549791" lon="14.8713434"><ele>367.6666666666667</ele><time>2026-04-04T16:23:21.96Z</time></trkpt><trkpt lat="40.755021" lon="14.8712725"><ele>365.3333333333333</ele><time>2026-04-04T16:23:22.959Z</time></trkpt><trkpt lat="40.7550594" lon="14.8712029"><ele>363.0</ele><time>2026-04-04T16:23:23.984Z</time></trkpt><trkpt lat="40.7551475" lon="14.8711371"><ele>364.79999999999995</ele><time>2026-04-04T16:23:25.955Z</time></trkpt><trkpt lat="40.7552629" lon="14.8711291"><ele>366.6</ele><time>2026-04-04T16:23:28.07Z</time></trkpt><trkpt lat="40.7553415" lon="14.8711578"><ele>368.4</ele><time>2026-04-04T16:23:29.017Z</time></trkpt><trkpt lat="40.7554325" lon="14.8711831"><ele>370.20000000000005</ele><time>2026-04-04T16:23:30.01Z</time></trkpt><trkpt lat="40.7555272" lon="14.8711506"><ele>372.0</ele><time>2026-04-04T16:23:30.959Z</time></trkpt><trkpt lat="40.7556103" lon="14.8711153"><ele>372.0</ele><time>2026-04-04T16:23:31.952Z</time></trkpt><trkpt lat="40.7556991" lon="14.8710956"><ele>372.0</ele><time>2026-04-04T16:23:32.952Z</time></trkpt><trkpt lat="40.755775" lon="14.8711069"><ele>372.0</ele><time>2026-04-04T16:23:33.96Z</time></trkpt><trkpt lat="40.7558409" lon="14.8711397"><ele>372.0</ele><time>2026-04-04T16:23:34.96Z</time></trkpt><trkpt lat="40.7559117" lon="14.8711743"><ele>372.0</ele><time>2026-04-04T16:23:35.965Z</time></trkpt><trkpt lat="40.7559827" lon="14.8711978"><ele>372.0</ele><time>2026-04-04T16:23:36.965Z</time></trkpt><trkpt lat="40.7560475" lon="14.8711938"><ele>371.5</ele><time>2026-04-04T16:23:37.961Z</time></trkpt><trkpt lat="40.7561133" lon="14.8711923"><ele>371.0</ele><time>2026-04-04T16:23:38.974Z</time></trkpt><trkpt lat="40.7562066" lon="14.8711716"><ele>370.5</ele><time>2026-04-04T16:23:39.958Z</time></trkpt><trkpt lat="40.7562906" lon="14.8711659"><ele>370.0</ele><time>2026-04-04T16:23:40.953Z</time></trkpt><trkpt lat="40.7563567" lon="14.8711793"><ele>369.5</ele><time>2026-04-04T16:23:41.959Z</time></trkpt><trkpt lat="40.7564511" lon="14.8712154"><ele>369.0</ele><time>2026-04-04T16:23:43.965Z</time></trkpt><trkpt lat="40.7565609" lon="14.8712737"><ele>369.0</ele><time>2026-04-04T16:23:45.962Z</time></trkpt><trkpt lat="40.7566533" lon="14.8712886"><ele>369.0</ele><time>2026-04-04T16:23:46.959Z</time></trkpt><trkpt lat="40.7567807" lon="14.8713096"><ele>369.0</ele><time>2026-04-04T16:23:48.038Z</time></trkpt><trkpt lat="40.7568737" lon="14.8713316"><ele>369.0</ele><time>2026-04-04T16:23:49.014Z</time></trkpt><trkpt lat="40.7569743" lon="14.8713495"><ele>369.0</ele><time>2026-04-04T16:23:50.012Z</time></trkpt><trkpt lat="40.7570718" lon="14.8713782"><ele>368.5</ele><time>2026-04-04T16:23:51.022Z</time></trkpt><trkpt lat="40.7571732" lon="14.8714213"><ele>368.0</ele><time>2026-04-04T16:23:51.959Z</time></trkpt><trkpt lat="40.7572789" lon="14.8714563"><ele>367.5</ele><time>2026-04-04T16:23:52.956Z</time></trkpt><trkpt lat="40.7574153" lon="14.8714669"><ele>367.0</ele><time>2026-04-04T16:23:53.979Z</time></trkpt><trkpt lat="40.7575627" lon="14.8714355"><ele>367.0</ele><time>2026-04-04T16:23:55.021Z</time></trkpt><trkpt lat="40.7576868" lon="14.8713967"><ele>367.0</ele><time>2026-04-04T16:23:56.024Z</time></trkpt><trkpt lat="40.7578094" lon="14.8713578"><ele>367.0</ele><time>2026-04-04T16:23:56.948Z</time></trkpt><trkpt lat="40.7579448" lon="14.8713017"><ele>367.0</ele><time>2026-04-04T16:23:57.956Z</time></trkpt><trkpt lat="40.7580541" lon="14.8712644"><ele>367.8</ele><time>2026-04-04T16:23:58.977Z</time></trkpt><trkpt lat="40.7581449" lon="14.8712396"><ele>368.6</ele><time>2026-04-04T16:24:00.013Z</time></trkpt><trkpt lat="40.7582272" lon="14.8712398"><ele>369.40000000000003</ele><time>2026-04-04T16:24:01.023Z</time></trkpt><trkpt lat="40.7583241" lon="14.8712245"><ele>370.20000000000005</ele><time>2026-04-04T16:24:01.964Z</time></trkpt><trkpt lat="40.75844" lon="14.8711941"><ele>371.0</ele><time>2026-04-04T16:24:02.955Z</time></trkpt><trkpt lat="40.758565" lon="14.8711586"><ele>371.0</ele><time>2026-04-04T16:24:04.064Z</time></trkpt><trkpt lat="40.7587127" lon="14.8710768"><ele>371.0</ele><time>2026-04-04T16:24:05.033Z</time></trkpt><trkpt lat="40.7588538" lon="14.8709859"><ele>371.0</ele><time>2026-04-04T16:24:06.022Z</time></trkpt><trkpt lat="40.7589983" lon="14.8709083"><ele>371.0</ele><time>2026-04-04T16:24:06.962Z</time></trkpt><trkpt lat="40.7591304" lon="14.8708562"><ele>371.0</ele><time>2026-04-04T16:24:07.964Z</time></trkpt><trkpt lat="40.7592436" lon="14.8707974"><ele>371.0</ele><time>2026-04-04T16:24:08.976Z</time></trkpt><trkpt lat="40.7593345" lon="14.8707606"><ele>371.0</ele><time>2026-04-04T16:24:10.023Z</time></trkpt><trkpt lat="40.759447" lon="14.8707459"><ele>371.6</ele><time>2026-04-04T16:24:11.027Z</time></trkpt><trkpt lat="40.7595655" lon="14.8707568"><ele>372.20000000000005</ele><time>2026-04-04T16:24:11.963Z</time></trkpt><trkpt lat="40.759694" lon="14.870751"><ele>372.79999999999995</ele><time>2026-04-04T16:24:12.964Z</time></trkpt><trkpt lat="40.7597984" lon="14.870748"><ele>373.4</ele><time>2026-04-04T16:24:13.952Z</time></trkpt><trkpt lat="40.7598746" lon="14.870731"><ele>374.0</ele><time>2026-04-04T16:24:14.961Z</time></trkpt><trkpt lat="40.7599475" lon="14.8706881"><ele>374.0</ele><time>2026-04-04T16:24:15.956Z</time></trkpt><trkpt lat="40.7600054" lon="14.8706283"><ele>374.0</ele><time>2026-04-04T16:24:16.961Z</time></trkpt><trkpt lat="40.7600717" lon="14.8705749"><ele>374.0</ele><time>2026-04-04T16:24:18.029Z</time></trkpt><trkpt lat="40.7601678" lon="14.8705207"><ele>374.0</ele><time>2026-04-04T16:24:19.022Z</time></trkpt><trkpt lat="40.760244" lon="14.8704931"><ele>374.0</ele><time>2026-04-04T16:24:20.019Z</time></trkpt><trkpt lat="40.7603072" lon="14.8704832"><ele>374.0</ele><time>2026-04-04T16:24:20.96Z</time></trkpt><trkpt lat="40.7604389" lon="14.8704689"><ele>375.33333333333337</ele><time>2026-04-04T16:24:22.961Z</time></trkpt><trkpt lat="40.7605184" lon="14.8704718"><ele>376.6666666666667</ele><time>2026-04-04T16:24:23.959Z</time></trkpt><trkpt lat="40.7606041" lon="14.8704741"><ele>378.0</ele><time>2026-04-04T16:24:24.961Z</time></trkpt><trkpt lat="40.7606725" lon="14.8704579"><ele>379.3333333333333</ele><time>2026-04-04T16:24:26.016Z</time></trkpt><trkpt lat="40.7607575" lon="14.8703785"><ele>380.66666666666663</ele><time>2026-04-04T16:24:27.958Z</time></trkpt><trkpt lat="40.7608006" lon="14.8703068"><ele>382.0</ele><time>2026-04-04T16:24:28.962Z</time></trkpt><trkpt lat="40.7608972" lon="14.870205"><ele>382.0</ele><time>2026-04-04T16:24:31.043Z</time></trkpt><trkpt lat="40.7609393" lon="14.8701334"><ele>382.0</ele><time>2026-04-04T16:24:31.961Z</time></trkpt><trkpt lat="40.7609712" lon="14.870015"><ele>382.0</ele><time>2026-04-04T16:24:32.96Z</time></trkpt><trkpt lat="40.7609988" lon="14.8699071"><ele>382.0</ele><time>2026-04-04T16:24:33.976Z</time></trkpt><trkpt lat="40.7610618" lon="14.8698136"><ele>382.0</ele><time>2026-04-04T16:24:35.022Z</time></trkpt><trkpt lat="40.7611349" lon="14.8697259"><ele>382.0</ele><time>2026-04-04T16:24:36.024Z</time></trkpt><trkpt lat="40.7611979" lon="14.8696702"><ele>384.0</ele><time>2026-04-04T16:24:36.959Z</time></trkpt><trkpt lat="40.7612601" lon="14.8696214"><ele>386.0</ele><time>2026-04-04T16:24:37.97Z</time></trkpt><trkpt lat="40.7613181" lon="14.869485"><ele>388.0</ele><time>2026-04-04T16:24:39.967Z</time></trkpt><trkpt lat="40.7612992" lon="14.8693733"><ele>390.0</ele><time>2026-04-04T16:24:40.963Z</time></trkpt><trkpt lat="40.7612807" lon="14.8692478"><ele>392.0</ele><time>2026-04-04T16:24:41.964Z</time></trkpt><trkpt lat="40.7612611" lon="14.8691268"><ele>392.0</ele><time>2026-04-04T16:24:42.962Z</time></trkpt><trkpt lat="40.7612502" lon="14.8690164"><ele>392.0</ele><time>2026-04-04T16:24:43.985Z</time></trkpt><trkpt lat="40.761244" lon="14.868919"><ele>392.0</ele><time>2026-04-04T16:24:44.95Z</time></trkpt><trkpt lat="40.7612694" lon="14.8688036"><ele>392.0</ele><time>2026-04-04T16:24:45.957Z</time></trkpt><trkpt lat="40.7613296" lon="14.8686851"><ele>392.0</ele><time>2026-04-04T16:24:46.956Z</time></trkpt><trkpt lat="40.7613838" lon="14.8685574"><ele>392.6</ele><time>2026-04-04T16:24:47.954Z</time></trkpt><trkpt lat="40.761436" lon="14.8684231"><ele>393.20000000000005</ele><time>2026-04-04T16:24:48.951Z</time></trkpt><trkpt lat="40.761472" lon="14.8683052"><ele>393.8</ele><time>2026-04-04T16:24:49.954Z</time></trkpt><trkpt lat="40.7614967" lon="14.8682072"><ele>394.4</ele><time>2026-04-04T16:24:50.953Z</time></trkpt><trkpt lat="40.7614993" lon="14.8680988"><ele>395.0</ele><time>2026-04-04T16:24:51.952Z</time></trkpt><trkpt lat="40.761494" lon="14.8679782"><ele>395.0</ele><time>2026-04-04T16:24:52.956Z</time></trkpt><trkpt lat="40.7614989" lon="14.8678546"><ele>395.0</ele><time>2026-04-04T16:24:53.956Z</time></trkpt><trkpt lat="40.7615207" lon="14.8677424"><ele>395.0</ele><time>2026-04-04T16:24:54.96Z</time></trkpt><trkpt lat="40.7615492" lon="14.8676354"><ele>395.0</ele><time>2026-04-04T16:24:55.959Z</time></trkpt><trkpt lat="40.7615826" lon="14.867542"><ele>395.0</ele><time>2026-04-04T16:24:56.96Z</time></trkpt><trkpt lat="40.7616713" lon="14.8674541"><ele>394.2857142857143</ele><time>2026-04-04T16:24:58.964Z</time></trkpt><trkpt lat="40.7617469" lon="14.8674461"><ele>393.5714285714286</ele><time>2026-04-04T16:24:59.954Z</time></trkpt><trkpt lat="40.7618117" lon="14.8674465"><ele>392.8571428571429</ele><time>2026-04-04T16:25:01.02Z</time></trkpt><trkpt lat="40.7618798" lon="14.8674533"><ele>392.1428571428571</ele><time>2026-04-04T16:25:02.981Z</time></trkpt><trkpt lat="40.7618581" lon="14.8673632"><ele>391.42857142857144</ele><time>2026-04-04T16:25:06.971Z</time></trkpt><trkpt lat="40.7618464" lon="14.8672736"><ele>390.7142857142857</ele><time>2026-04-04T16:25:07.967Z</time></trkpt><trkpt lat="40.7618474" lon="14.867149"><ele>390.0</ele><time>2026-04-04T16:25:08.968Z</time></trkpt><trkpt lat="40.7618536" lon="14.8670448"><ele>390.0</ele><time>2026-04-04T16:25:09.963Z</time></trkpt><trkpt lat="40.7618508" lon="14.8669561"><ele>390.0</ele><time>2026-04-04T16:25:10.967Z</time></trkpt><trkpt lat="40.7618488" lon="14.8668559"><ele>390.0</ele><time>2026-04-04T16:25:11.954Z</time></trkpt><trkpt lat="40.7618542" lon="14.8667501"><ele>390.0</ele><time>2026-04-04T16:25:13.055Z</time></trkpt><trkpt lat="40.7618544" lon="14.8666283"><ele>390.0</ele><time>2026-04-04T16:25:14.018Z</time></trkpt><trkpt lat="40.7618412" lon="14.8665455"><ele>390.0</ele><time>2026-04-04T16:25:14.966Z</time></trkpt><trkpt lat="40.7618217" lon="14.8664316"><ele>391.0</ele><time>2026-04-04T16:25:16.965Z</time></trkpt><trkpt lat="40.7618431" lon="14.8663201"><ele>392.0</ele><time>2026-04-04T16:25:18.962Z</time></trkpt><trkpt lat="40.7619147" lon="14.8661994"><ele>393.0</ele><time>2026-04-04T16:25:21.036Z</time></trkpt><trkpt lat="40.7619593" lon="14.8661032"><ele>394.0</ele><time>2026-04-04T16:25:21.961Z</time></trkpt><trkpt lat="40.7620042" lon="14.8660072"><ele>395.0</ele><time>2026-04-04T16:25:22.962Z</time></trkpt><trkpt lat="40.7620552" lon="14.865897"><ele>401.0</ele><time>2026-04-04T16:25:23.954Z</time></trkpt><trkpt lat="40.7621156" lon="14.8657604"><ele>407.0</ele><time>2026-04-04T16:25:24.963Z</time></trkpt><trkpt lat="40.7621618" lon="14.8656325"><ele>413.0</ele><time>2026-04-04T16:25:26.025Z</time></trkpt><trkpt lat="40.7622185" lon="14.8655094"><ele>419.0</ele><time>2026-04-04T16:25:26.967Z</time></trkpt><trkpt lat="40.7622793" lon="14.8654007"><ele>425.0</ele><time>2026-04-04T16:25:27.974Z</time></trkpt><trkpt lat="40.7623334" lon="14.8653094"><ele>424.99999999999994</ele><time>2026-04-04T16:25:28.975Z</time></trkpt><trkpt lat="40.7623767" lon="14.8652261"><ele>425.0</ele><time>2026-04-04T16:25:29.968Z</time></trkpt><trkpt lat="40.7624046" lon="14.865135"><ele>425.0</ele><time>2026-04-04T16:25:30.966Z</time></trkpt><trkpt lat="40.7624276" lon="14.8650435"><ele>425.0</ele><time>2026-04-04T16:25:31.954Z</time></trkpt><trkpt lat="40.762489" lon="14.864899"><ele>424.99999999999994</ele><time>2026-04-04T16:25:34.056Z</time></trkpt><trkpt lat="40.7625299" lon="14.8648132"><ele>425.0</ele><time>2026-04-04T16:25:35.017Z</time></trkpt><trkpt lat="40.7625697" lon="14.8647089"><ele>425.2</ele><time>2026-04-04T16:25:36.018Z</time></trkpt><trkpt lat="40.762613" lon="14.8646067"><ele>425.4</ele><time>2026-04-04T16:25:36.964Z</time></trkpt><trkpt lat="40.7626597" lon="14.8644943"><ele>425.6</ele><time>2026-04-04T16:25:37.961Z</time></trkpt><trkpt lat="40.7627241" lon="14.8643771"><ele>425.8</ele><time>2026-04-04T16:25:39.069Z</time></trkpt><trkpt lat="40.7627872" lon="14.8642315"><ele>426.0</ele><time>2026-04-04T16:25:40.039Z</time></trkpt><trkpt lat="40.7628479" lon="14.8640532"><ele>429.25</ele><time>2026-04-04T16:25:41.016Z</time></trkpt><trkpt lat="40.76291" lon="14.8638542"><ele>432.5</ele><time>2026-04-04T16:25:41.958Z</time></trkpt><trkpt lat="40.7629619" lon="14.8636719"><ele>435.75</ele><time>2026-04-04T16:25:42.968Z</time></trkpt><trkpt lat="40.762998" lon="14.8635199"><ele>439.0</ele><time>2026-04-04T16:25:43.995Z</time></trkpt><trkpt lat="40.7630366" lon="14.8633701"><ele>439.0</ele><time>2026-04-04T16:25:45.027Z</time></trkpt><trkpt lat="40.7630764" lon="14.8632383"><ele>439.0</ele><time>2026-04-04T16:25:46.02Z</time></trkpt><trkpt lat="40.763117" lon="14.8631048"><ele>439.0</ele><time>2026-04-04T16:25:46.963Z</time></trkpt><trkpt lat="40.7631565" lon="14.8629744"><ele>439.0</ele><time>2026-04-04T16:25:47.962Z</time></trkpt><trkpt lat="40.7631896" lon="14.8628625"><ele>439.0</ele><time>2026-04-04T16:25:48.99Z</time></trkpt><trkpt lat="40.7632339" lon="14.8627891"><ele>439.0</ele><time>2026-04-04T16:25:50.029Z</time></trkpt><trkpt lat="40.7632889" lon="14.8626888"><ele>439.0</ele><time>2026-04-04T16:25:51.026Z</time></trkpt><trkpt lat="40.7633462" lon="14.8625952"><ele>439.0</ele><time>2026-04-04T16:25:51.963Z</time></trkpt><trkpt lat="40.7634044" lon="14.8625258"><ele>439.0</ele><time>2026-04-04T16:25:52.962Z</time></trkpt><trkpt lat="40.7635053" lon="14.8624194"><ele>439.0</ele><time>2026-04-04T16:25:55.024Z</time></trkpt><trkpt lat="40.7634193" lon="14.8624394"><ele>439.00000000000006</ele><time>2026-04-04T16:26:02.972Z</time></trkpt><trkpt lat="40.7633596" lon="14.8625204"><ele>439.0</ele><time>2026-04-04T16:26:04.958Z</time></trkpt><trkpt lat="40.7633035" lon="14.8626079"><ele>439.0</ele><time>2026-04-04T16:26:06.965Z</time></trkpt><trkpt lat="40.7632761" lon="14.8627108"><ele>439.0</ele><time>2026-04-04T16:26:08.968Z</time></trkpt><trkpt lat="40.7632349" lon="14.8628157"><ele>439.00000000000006</ele><time>2026-04-04T16:26:10.973Z</time></trkpt><trkpt lat="40.7632014" lon="14.8629337"><ele>439.0</ele><time>2026-04-04T16:26:12.961Z</time></trkpt><trkpt lat="40.7631698" lon="14.8630598"><ele>439.00000000000006</ele><time>2026-04-04T16:26:14.955Z</time></trkpt><trkpt lat="40.763158" lon="14.8631826"><ele>439.0</ele><time>2026-04-04T16:26:16.945Z</time></trkpt><trkpt lat="40.7631362" lon="14.8633168"><ele>439.0</ele><time>2026-04-04T16:26:19.027Z</time></trkpt><trkpt lat="40.7631438" lon="14.8634208"><ele>439.0</ele><time>2026-04-04T16:26:20.016Z</time></trkpt><trkpt lat="40.7631616" lon="14.8635348"><ele>439.00000000000006</ele><time>2026-04-04T16:26:20.94Z</time></trkpt><trkpt lat="40.7631813" lon="14.8636286"><ele>439.0</ele><time>2026-04-04T16:26:22.969Z</time></trkpt><trkpt lat="40.7632497" lon="14.8637296"><ele>439.6</ele><time>2026-04-04T16:26:24.964Z</time></trkpt><trkpt lat="40.7633116" lon="14.8638377"><ele>440.2</ele><time>2026-04-04T16:26:26.957Z</time></trkpt><trkpt lat="40.7634028" lon="14.8639043"><ele>440.80000000000007</ele><time>2026-04-04T16:26:28.961Z</time></trkpt><trkpt lat="40.7635037" lon="14.8639599"><ele>441.40000000000003</ele><time>2026-04-04T16:26:30.965Z</time></trkpt><trkpt lat="40.7635284" lon="14.8638556"><ele>442.0</ele><time>2026-04-04T16:26:36.965Z</time></trkpt><trkpt lat="40.7635916" lon="14.8638373"><ele>449.1666666666667</ele><time>2026-04-04T16:26:38.972Z</time></trkpt><trkpt lat="40.7636745" lon="14.8638556"><ele>456.33333333333337</ele><time>2026-04-04T16:26:41.028Z</time></trkpt><trkpt lat="40.7637452" lon="14.8638716"><ele>463.5</ele><time>2026-04-04T16:26:43.967Z</time></trkpt><trkpt lat="40.7638152" lon="14.8639009"><ele>470.66666666666663</ele><time>2026-04-04T16:26:46.967Z</time></trkpt><trkpt lat="40.7638888" lon="14.8639363"><ele>477.8333333333333</ele><time>2026-04-04T16:26:50.016Z</time></trkpt><trkpt lat="40.7638953" lon="14.8638477"><ele>485.0</ele><time>2026-04-04T16:26:52.974Z</time></trkpt><trkpt lat="40.7638692" lon="14.8637507"><ele>484.99999999999994</ele><time>2026-04-04T16:26:54.964Z</time></trkpt><trkpt lat="40.7638865" lon="14.8636587"><ele>485.0</ele><time>2026-04-04T16:26:57.02Z</time></trkpt><trkpt lat="40.7639279" lon="14.8635683"><ele>485.0</ele><time>2026-04-04T16:26:59.966Z</time></trkpt><trkpt lat="40.7639746" lon="14.8634764"><ele>485.0</ele><time>2026-04-04T16:27:01.965Z</time></trkpt><trkpt lat="40.7640328" lon="14.8633828"><ele>484.99999999999994</ele><time>2026-04-04T16:27:04.032Z</time></trkpt><trkpt lat="40.7640842" lon="14.863284"><ele>485.0</ele><time>2026-04-04T16:27:05.96Z</time></trkpt><trkpt lat="40.7640835" lon="14.8634022"><ele>485.0</ele><time>2026-04-04T16:27:13.048Z</time></trkpt><trkpt lat="40.764126" lon="14.8634932"><ele>485.0</ele><time>2026-04-04T16:27:14.032Z</time></trkpt><trkpt lat="40.7641722" lon="14.8635531"><ele>485.0</ele><time>2026-04-04T16:27:15.044Z</time></trkpt><trkpt lat="40.7642694" lon="14.8636576"><ele>485.0</ele><time>2026-04-04T16:27:16.965Z</time></trkpt><trkpt lat="40.7643419" lon="14.8638089"><ele>485.0</ele><time>2026-04-04T16:27:18.961Z</time></trkpt><trkpt lat="40.7643778" lon="14.8639788"><ele>484.99999999999994</ele><time>2026-04-04T16:27:20.958Z</time></trkpt><trkpt lat="40.7643746" lon="14.8640896"><ele>485.0</ele><time>2026-04-04T16:27:21.961Z</time></trkpt><trkpt lat="40.7643524" lon="14.8641949"><ele>485.0</ele><time>2026-04-04T16:27:22.96Z</time></trkpt><trkpt lat="40.7643085" lon="14.8643051"><ele>485.0</ele><time>2026-04-04T16:27:23.963Z</time></trkpt><trkpt lat="40.7642791" lon="14.8644032"><ele>484.99999999999994</ele><time>2026-04-04T16:27:24.953Z</time></trkpt><trkpt lat="40.7642487" lon="14.864532"><ele>485.0</ele><time>2026-04-04T16:27:26.966Z</time></trkpt><trkpt lat="40.7643198" lon="14.8646012"><ele>487.8333333333333</ele><time>2026-04-04T16:27:29.947Z</time></trkpt><trkpt lat="40.7644098" lon="14.864577"><ele>490.66666666666663</ele><time>2026-04-04T16:27:31.961Z</time></trkpt><trkpt lat="40.7644897" lon="14.8645488"><ele>493.5</ele><time>2026-04-04T16:27:33.969Z</time></trkpt><trkpt lat="40.7645562" lon="14.8645714"><ele>496.33333333333337</ele><time>2026-04-04T16:27:35.975Z</time></trkpt><trkpt lat="40.7646373" lon="14.8645772"><ele>499.1666666666667</ele><time>2026-04-04T16:27:37.95Z</time></trkpt><trkpt lat="40.7647337" lon="14.8645747"><ele>502.0</ele><time>2026-04-04T16:27:39.964Z</time></trkpt><trkpt lat="40.764844" lon="14.8646215"><ele>502.00000000000006</ele><time>2026-04-04T16:27:41.96Z</time></trkpt><trkpt lat="40.7648903" lon="14.8646796"><ele>502.0</ele><time>2026-04-04T16:27:43.973Z</time></trkpt><trkpt lat="40.7649278" lon="14.8647506"><ele>502.0</ele><time>2026-04-04T16:27:44.949Z</time></trkpt><trkpt lat="40.7649584" lon="14.8648848"><ele>502.0</ele><time>2026-04-04T16:27:46.959Z</time></trkpt><trkpt lat="40.7649899" lon="14.8650008"><ele>502.00000000000006</ele><time>2026-04-04T16:27:48.963Z</time></trkpt><trkpt lat="40.765029" lon="14.8650682"><ele>502.0</ele><time>2026-04-04T16:27:51.958Z</time></trkpt><trkpt lat="40.7650803" lon="14.8651166"><ele>502.00000000000006</ele><time>2026-04-04T16:27:53.96Z</time></trkpt><trkpt lat="40.7651716" lon="14.8651683"><ele>502.0</ele><time>2026-04-04T16:27:55.962Z</time></trkpt><trkpt lat="40.7652388" lon="14.8652044"><ele>502.0</ele><time>2026-04-04T16:27:56.94Z</time></trkpt><trkpt lat="40.7653406" lon="14.8652413"><ele>502.0</ele><time>2026-04-04T16:27:59.05Z</time></trkpt><trkpt lat="40.765404" lon="14.8652283"><ele>502.00000000000006</ele><time>2026-04-04T16:28:00.058Z</time></trkpt><trkpt lat="40.7654867" lon="14.8652227"><ele>502.0</ele><time>2026-04-04T16:28:01.962Z</time></trkpt><trkpt lat="40.7655598" lon="14.8653399"><ele>502.00000000000006</ele><time>2026-04-04T16:28:04.974Z</time></trkpt><trkpt lat="40.7655885" lon="14.8654479"><ele>502.0</ele><time>2026-04-04T16:28:06.953Z</time></trkpt><trkpt lat="40.7655731" lon="14.8655565"><ele>502.0</ele><time>2026-04-04T16:28:08.972Z</time></trkpt><trkpt lat="40.7655845" lon="14.865701"><ele>502.0</ele><time>2026-04-04T16:28:11.05Z</time></trkpt><trkpt lat="40.7655928" lon="14.8657885"><ele>502.00000000000006</ele><time>2026-04-04T16:28:11.972Z</time></trkpt><trkpt lat="40.7656178" lon="14.8658779"><ele>502.0</ele><time>2026-04-04T16:28:12.966Z</time></trkpt><trkpt lat="40.7656876" lon="14.8660227"><ele>502.6</ele><time>2026-04-04T16:28:14.984Z</time></trkpt><trkpt lat="40.7657709" lon="14.8660969"><ele>503.20000000000005</ele><time>2026-04-04T16:28:16.974Z</time></trkpt><trkpt lat="40.7658704" lon="14.8661361"><ele>503.8</ele><time>2026-04-04T16:28:19.046Z</time></trkpt><trkpt lat="40.7659709" lon="14.8661737"><ele>504.4</ele><time>2026-04-04T16:28:20.979Z</time></trkpt><trkpt lat="40.7660803" lon="14.8661828"><ele>505.0</ele><time>2026-04-04T16:28:22.976Z</time></trkpt><trkpt lat="40.7661777" lon="14.8661623"><ele>505.00000000000006</ele><time>2026-04-04T16:28:24.976Z</time></trkpt><trkpt lat="40.7662592" lon="14.8661818"><ele>505.0</ele><time>2026-04-04T16:28:26.974Z</time></trkpt><trkpt lat="40.7663166" lon="14.8662219"><ele>505.0</ele><time>2026-04-04T16:28:28.97Z</time></trkpt><trkpt lat="40.7664123" lon="14.8662717"><ele>505.0</ele><time>2026-04-04T16:28:31.067Z</time></trkpt><trkpt lat="40.7664768" lon="14.8662793"><ele>505.00000000000006</ele><time>2026-04-04T16:28:31.97Z</time></trkpt><trkpt lat="40.7665546" lon="14.8662823"><ele>505.0</ele><time>2026-04-04T16:28:32.974Z</time></trkpt><trkpt lat="40.7666207" lon="14.8662556"><ele>505.00000000000006</ele><time>2026-04-04T16:28:34.975Z</time></trkpt><trkpt lat="40.7666942" lon="14.8663275"><ele>505.0</ele><time>2026-04-04T16:28:38.041Z</time></trkpt><trkpt lat="40.7667765" lon="14.8663679"><ele>505.0</ele><time>2026-04-04T16:28:40.052Z</time></trkpt><trkpt lat="40.7668723" lon="14.8663884"><ele>505.0</ele><time>2026-04-04T16:28:41.979Z</time></trkpt><trkpt lat="40.7669424" lon="14.8664124"><ele>505.00000000000006</ele><time>2026-04-04T16:28:43.982Z</time></trkpt><trkpt lat="40.7669718" lon="14.8665093"><ele>505.0</ele><time>2026-04-04T16:28:47.984Z</time></trkpt><trkpt lat="40.7669414" lon="14.8666096"><ele>505.25</ele><time>2026-04-04T16:28:49.977Z</time></trkpt><trkpt lat="40.7668491" lon="14.8667819"><ele>505.5</ele><time>2026-04-04T16:28:51.982Z</time></trkpt><trkpt lat="40.7667856" lon="14.86686"><ele>505.75</ele><time>2026-04-04T16:28:52.954Z</time></trkpt><trkpt lat="40.7667309" lon="14.8669356"><ele>506.0</ele><time>2026-04-04T16:28:53.982Z</time></trkpt><trkpt lat="40.7666665" lon="14.8670878"><ele>505.99999999999994</ele><time>2026-04-04T16:28:55.98Z</time></trkpt><trkpt lat="40.7666423" lon="14.8672171"><ele>506.0</ele><time>2026-04-04T16:28:56.976Z</time></trkpt><trkpt lat="40.7666778" lon="14.867326"><ele>506.0</ele><time>2026-04-04T16:28:57.974Z</time></trkpt><trkpt lat="40.7667254" lon="14.8674125"><ele>506.0</ele><time>2026-04-04T16:28:58.989Z</time></trkpt><trkpt lat="40.7667738" lon="14.8674927"><ele>505.99999999999994</ele><time>2026-04-04T16:28:59.972Z</time></trkpt><trkpt lat="40.7668252" lon="14.8675795"><ele>506.0</ele><time>2026-04-04T16:29:00.975Z</time></trkpt><trkpt lat="40.7668577" lon="14.8676908"><ele>507.8333333333333</ele><time>2026-04-04T16:29:01.981Z</time></trkpt><trkpt lat="40.7668934" lon="14.8678032"><ele>509.66666666666663</ele><time>2026-04-04T16:29:03.995Z</time></trkpt><trkpt lat="40.7668745" lon="14.8678984"><ele>511.5</ele><time>2026-04-04T16:29:06.985Z</time></trkpt><trkpt lat="40.7667854" lon="14.8679239"><ele>513.3333333333334</ele><time>2026-04-04T16:29:09.983Z</time></trkpt><trkpt lat="40.7667141" lon="14.8679366"><ele>515.1666666666667</ele><time>2026-04-04T16:29:11.983Z</time></trkpt><trkpt lat="40.7666289" lon="14.8679515"><ele>517.0</ele><time>2026-04-04T16:29:13.963Z</time></trkpt><trkpt lat="40.7665142" lon="14.8679545"><ele>512.4</ele><time>2026-04-04T16:29:15.956Z</time></trkpt><trkpt lat="40.7663928" lon="14.8679245"><ele>507.80000000000007</ele><time>2026-04-04T16:29:17.962Z</time></trkpt><trkpt lat="40.7663081" lon="14.8679072"><ele>503.2</ele><time>2026-04-04T16:29:18.96Z</time></trkpt><trkpt lat="40.7662163" lon="14.8678815"><ele>498.6</ele><time>2026-04-04T16:29:19.958Z</time></trkpt><trkpt lat="40.7661301" lon="14.8678631"><ele>494.0</ele><time>2026-04-04T16:29:20.97Z</time></trkpt><trkpt lat="40.7660324" lon="14.8678589"><ele>493.99999999999994</ele><time>2026-04-04T16:29:21.952Z</time></trkpt><trkpt lat="40.7659778" lon="14.8679359"><ele>494.0</ele><time>2026-04-04T16:29:23.952Z</time></trkpt><trkpt lat="40.7659946" lon="14.8680187"><ele>494.0</ele><time>2026-04-04T16:29:25.953Z</time></trkpt><trkpt lat="40.7659948" lon="14.8681257"><ele>494.0</ele><time>2026-04-04T16:29:27.96Z</time></trkpt><trkpt lat="40.7660163" lon="14.8682339"><ele>493.99999999999994</ele><time>2026-04-04T16:29:29.979Z</time></trkpt><trkpt lat="40.7660647" lon="14.8683025"><ele>494.0</ele><time>2026-04-04T16:29:30.971Z</time></trkpt><trkpt lat="40.7661334" lon="14.8683781"><ele>494.0</ele><time>2026-04-04T16:29:31.97Z</time></trkpt><trkpt lat="40.7662142" lon="14.8684277"><ele>494.0</ele><time>2026-04-04T16:29:32.965Z</time></trkpt><trkpt lat="40.7662753" lon="14.868491"><ele>494.0</ele><time>2026-04-04T16:29:33.973Z</time></trkpt><trkpt lat="40.7663476" lon="14.8685738"><ele>494.0</ele><time>2026-04-04T16:29:34.974Z</time></trkpt><trkpt lat="40.7664282" lon="14.8686696"><ele>494.0</ele><time>2026-04-04T16:29:35.977Z</time></trkpt><trkpt lat="40.76651" lon="14.8687569"><ele>490.16666666666663</ele><time>2026-04-04T16:29:36.972Z</time></trkpt><trkpt lat="40.7665766" lon="14.8688153"><ele>486.3333333333333</ele><time>2026-04-04T16:29:37.979Z</time></trkpt><trkpt lat="40.7666443" lon="14.8688951"><ele>482.5</ele><time>2026-04-04T16:29:38.985Z</time></trkpt><trkpt lat="40.7666674" lon="14.869011"><ele>478.66666666666663</ele><time>2026-04-04T16:29:40.958Z</time></trkpt><trkpt lat="40.7666666" lon="14.8691183"><ele>474.8333333333333</ele><time>2026-04-04T16:29:42.973Z</time></trkpt><trkpt lat="40.7667114" lon="14.8691987"><ele>471.0</ele><time>2026-04-04T16:29:44.972Z</time></trkpt><trkpt lat="40.7667828" lon="14.8692599"><ele>473.1666666666667</ele><time>2026-04-04T16:29:46.95Z</time></trkpt><trkpt lat="40.7668458" lon="14.8692876"><ele>475.33333333333337</ele><time>2026-04-04T16:29:48.98Z</time></trkpt><trkpt lat="40.7668488" lon="14.8693878"><ele>477.5</ele><time>2026-04-04T16:29:54.032Z</time></trkpt><trkpt lat="40.7668444" lon="14.8695005"><ele>479.6666666666667</ele><time>2026-04-04T16:30:01.034Z</time></trkpt><trkpt lat="40.7667676" lon="14.8694938"><ele>481.83333333333337</ele><time>2026-04-04T16:30:06.973Z</time></trkpt><trkpt lat="40.7666879" lon="14.8694459"><ele>484.0</ele><time>2026-04-04T16:30:09.98Z</time></trkpt><trkpt lat="40.7666123" lon="14.8694388"><ele>484.0</ele><time>2026-04-04T16:30:12.98Z</time></trkpt><trkpt lat="40.7665274" lon="14.8694175"><ele>484.0</ele><time>2026-04-04T16:30:15.969Z</time></trkpt><trkpt lat="40.7664396" lon="14.8694072"><ele>484.0</ele><time>2026-04-04T16:30:18.969Z</time></trkpt><trkpt lat="40.766378" lon="14.8694331"><ele>484.0</ele><time>2026-04-04T16:30:20.972Z</time></trkpt><trkpt lat="40.7663987" lon="14.8695652"><ele>484.0</ele><time>2026-04-04T16:30:24.96Z</time></trkpt><trkpt lat="40.7665103" lon="14.8696699"><ele>484.0</ele><time>2026-04-04T16:30:26.98Z</time></trkpt><trkpt lat="40.766574" lon="14.8697241"><ele>484.0</ele><time>2026-04-04T16:30:27.972Z</time></trkpt><trkpt lat="40.7666356" lon="14.8697865"><ele>484.0</ele><time>2026-04-04T16:30:28.974Z</time></trkpt><trkpt lat="40.7666956" lon="14.8698539"><ele>484.0</ele><time>2026-04-04T16:30:29.977Z</time></trkpt><trkpt lat="40.7667599" lon="14.8699876"><ele>484.0</ele><time>2026-04-04T16:30:31.973Z</time></trkpt><trkpt lat="40.7668091" lon="14.8701229"><ele>484.00000000000006</ele><time>2026-04-04T16:30:33.964Z</time></trkpt><trkpt lat="40.7668582" lon="14.8701881"><ele>484.0</ele><time>2026-04-04T16:30:35.975Z</time></trkpt><trkpt lat="40.7669151" lon="14.8702363"><ele>484.0</ele><time>2026-04-04T16:30:40.974Z</time></trkpt><trkpt lat="40.766846" lon="14.8701747"><ele>484.0</ele><time>2026-04-04T16:30:43.958Z</time></trkpt><trkpt lat="40.7667925" lon="14.8701116"><ele>484.00000000000006</ele><time>2026-04-04T16:30:44.966Z</time></trkpt><trkpt lat="40.7667297" lon="14.8700512"><ele>484.0</ele><time>2026-04-04T16:30:45.971Z</time></trkpt><trkpt lat="40.7666538" lon="14.8700048"><ele>484.00000000000006</ele><time>2026-04-04T16:30:46.962Z</time></trkpt><trkpt lat="40.7665729" lon="14.8699622"><ele>484.0</ele><time>2026-04-04T16:30:47.972Z</time></trkpt><trkpt lat="40.7664876" lon="14.8699251"><ele>484.0</ele><time>2026-04-04T16:30:48.956Z</time></trkpt><trkpt lat="40.766406" lon="14.8699095"><ele>484.0</ele><time>2026-04-04T16:30:49.968Z</time></trkpt><trkpt lat="40.7663209" lon="14.8699171"><ele>484.00000000000006</ele><time>2026-04-04T16:30:50.976Z</time></trkpt><trkpt lat="40.7662429" lon="14.8699279"><ele>484.0</ele><time>2026-04-04T16:30:51.974Z</time></trkpt><trkpt lat="40.7661779" lon="14.8699393"><ele>484.0</ele><time>2026-04-04T16:30:52.964Z</time></trkpt><trkpt lat="40.7660531" lon="14.8698945"><ele>484.0</ele><time>2026-04-04T16:30:54.963Z</time></trkpt><trkpt lat="40.7659748" lon="14.869868"><ele>484.0</ele><time>2026-04-04T16:30:55.959Z</time></trkpt><trkpt lat="40.7658892" lon="14.8698357"><ele>484.0</ele><time>2026-04-04T16:30:56.975Z</time></trkpt><trkpt lat="40.765797" lon="14.8698085"><ele>484.0</ele><time>2026-04-04T16:30:57.967Z</time></trkpt><trkpt lat="40.7656957" lon="14.8697824"><ele>487.6</ele><time>2026-04-04T16:30:58.967Z</time></trkpt><trkpt lat="40.7655983" lon="14.8697706"><ele>491.2</ele><time>2026-04-04T16:30:59.973Z</time></trkpt><trkpt lat="40.7654877" lon="14.8697673"><ele>494.80000000000007</ele><time>2026-04-04T16:31:00.968Z</time></trkpt><trkpt lat="40.7653822" lon="14.8697725"><ele>498.40000000000003</ele><time>2026-04-04T16:31:01.965Z</time></trkpt><trkpt lat="40.7652758" lon="14.8697804"><ele>502.0</ele><time>2026-04-04T16:31:02.975Z</time></trkpt><trkpt lat="40.7651669" lon="14.8697826"><ele>504.8</ele><time>2026-04-04T16:31:03.971Z</time></trkpt><trkpt lat="40.7650636" lon="14.8697908"><ele>507.6</ele><time>2026-04-04T16:31:04.959Z</time></trkpt><trkpt lat="40.7649529" lon="14.8697994"><ele>510.40000000000003</ele><time>2026-04-04T16:31:05.962Z</time></trkpt><trkpt lat="40.764841" lon="14.8698136"><ele>513.2</ele><time>2026-04-04T16:31:06.967Z</time></trkpt><trkpt lat="40.7647296" lon="14.8698116"><ele>516.0</ele><time>2026-04-04T16:31:07.976Z</time></trkpt><trkpt lat="40.7646278" lon="14.8698027"><ele>516.0</ele><time>2026-04-04T16:31:08.983Z</time></trkpt><trkpt lat="40.7645353" lon="14.8697985"><ele>516.0</ele><time>2026-04-04T16:31:09.984Z</time></trkpt><trkpt lat="40.7644414" lon="14.8698128"><ele>516.0</ele><time>2026-04-04T16:31:10.983Z</time></trkpt><trkpt lat="40.7643554" lon="14.8698459"><ele>516.0</ele><time>2026-04-04T16:31:11.982Z</time></trkpt><trkpt lat="40.7642569" lon="14.8699098"><ele>516.0</ele><time>2026-04-04T16:31:13.983Z</time></trkpt><trkpt lat="40.764202" lon="14.8699924"><ele>516.8</ele><time>2026-04-04T16:31:14.998Z</time></trkpt><trkpt lat="40.7641353" lon="14.8701121"><ele>517.6</ele><time>2026-04-04T16:31:15.985Z</time></trkpt><trkpt lat="40.7640771" lon="14.870226"><ele>518.4</ele><time>2026-04-04T16:31:16.976Z</time></trkpt><trkpt lat="40.7640238" lon="14.8703105"><ele>519.2</ele><time>2026-04-04T16:31:17.983Z</time></trkpt><trkpt lat="40.7639667" lon="14.870377"><ele>520.0</ele><time>2026-04-04T16:31:18.988Z</time></trkpt><trkpt lat="40.7639104" lon="14.8704424"><ele>520.0</ele><time>2026-04-04T16:31:19.978Z</time></trkpt><trkpt lat="40.7638417" lon="14.8705085"><ele>520.0</ele><time>2026-04-04T16:31:20.971Z</time></trkpt><trkpt lat="40.7637788" lon="14.8705738"><ele>520.0</ele><time>2026-04-04T16:31:21.984Z</time></trkpt><trkpt lat="40.7637048" lon="14.870632"><ele>520.0</ele><time>2026-04-04T16:31:22.982Z</time></trkpt><trkpt lat="40.7636314" lon="14.8706912"><ele>520.0</ele><time>2026-04-04T16:31:23.981Z</time></trkpt><trkpt lat="40.7635647" lon="14.8707518"><ele>520.0</ele><time>2026-04-04T16:31:24.984Z</time></trkpt><trkpt lat="40.7635015" lon="14.8708352"><ele>516.1666666666667</ele><time>2026-04-04T16:31:26.988Z</time></trkpt><trkpt lat="40.7635351" lon="14.8709448"><ele>512.3333333333334</ele><time>2026-04-04T16:31:29.981Z</time></trkpt><trkpt lat="40.763603" lon="14.8709871"><ele>508.5</ele><time>2026-04-04T16:31:30.988Z</time></trkpt><trkpt lat="40.7636774" lon="14.8710262"><ele>504.66666666666663</ele><time>2026-04-04T16:31:31.986Z</time></trkpt><trkpt lat="40.7637348" lon="14.8710672"><ele>500.8333333333333</ele><time>2026-04-04T16:31:32.984Z</time></trkpt><trkpt lat="40.7637992" lon="14.8711419"><ele>497.0</ele><time>2026-04-04T16:31:34.978Z</time></trkpt><trkpt lat="40.7638682" lon="14.8712603"><ele>497.0</ele><time>2026-04-04T16:31:36.993Z</time></trkpt><trkpt lat="40.7639222" lon="14.871322"><ele>497.00000000000006</ele><time>2026-04-04T16:31:37.985Z</time></trkpt><trkpt lat="40.7640088" lon="14.871415"><ele>497.00000000000006</ele><time>2026-04-04T16:31:39.983Z</time></trkpt><trkpt lat="40.764066" lon="14.8714925"><ele>497.0</ele><time>2026-04-04T16:31:41.972Z</time></trkpt><trkpt lat="40.7640855" lon="14.8716213"><ele>497.0</ele><time>2026-04-04T16:31:44.981Z</time></trkpt><trkpt lat="40.7641365" lon="14.8717218"><ele>496.99999999999994</ele><time>2026-04-04T16:31:46.988Z</time></trkpt><trkpt lat="40.7641924" lon="14.871763"><ele>497.0</ele><time>2026-04-04T16:31:47.986Z</time></trkpt><trkpt lat="40.764254" lon="14.8718131"><ele>497.0</ele><time>2026-04-04T16:31:48.975Z</time></trkpt><trkpt lat="40.7643119" lon="14.8718698"><ele>497.0</ele><time>2026-04-04T16:31:49.979Z</time></trkpt><trkpt lat="40.76437" lon="14.8719812"><ele>496.99999999999994</ele><time>2026-04-04T16:31:51.981Z</time></trkpt><trkpt lat="40.764394" lon="14.8721044"><ele>497.0</ele><time>2026-04-04T16:31:53.967Z</time></trkpt><trkpt lat="40.7644216" lon="14.8722079"><ele>496.3333333333333</ele><time>2026-04-04T16:31:55.96Z</time></trkpt><trkpt lat="40.7643415" lon="14.8722964"><ele>495.66666666666663</ele><time>2026-04-04T16:31:57.968Z</time></trkpt><trkpt lat="40.7642804" lon="14.872379"><ele>495.0</ele><time>2026-04-04T16:31:59.962Z</time></trkpt><trkpt lat="40.764243" lon="14.8724579"><ele>494.33333333333337</ele><time>2026-04-04T16:32:02.97Z</time></trkpt><trkpt lat="40.7641621" lon="14.8725254"><ele>493.6666666666667</ele><time>2026-04-04T16:32:04.968Z</time></trkpt><trkpt lat="40.7640956" lon="14.8725793"><ele>493.0</ele><time>2026-04-04T16:32:05.958Z</time></trkpt><trkpt lat="40.7640419" lon="14.8726322"><ele>493.0</ele><time>2026-04-04T16:32:06.969Z</time></trkpt><trkpt lat="40.7639643" lon="14.8727502"><ele>493.0</ele><time>2026-04-04T16:32:08.973Z</time></trkpt><trkpt lat="40.763846" lon="14.8728502"><ele>493.0</ele><time>2026-04-04T16:32:10.977Z</time></trkpt><trkpt lat="40.763767" lon="14.8729729"><ele>493.0</ele><time>2026-04-04T16:32:12.958Z</time></trkpt><trkpt lat="40.7637296" lon="14.8730587"><ele>493.0</ele><time>2026-04-04T16:32:13.974Z</time></trkpt><trkpt lat="40.7637296" lon="14.8732486"><ele>492.99999999999994</ele><time>2026-04-04T16:32:15.977Z</time></trkpt><trkpt lat="40.7637603" lon="14.8733421"><ele>492.99999999999994</ele><time>2026-04-04T16:32:16.966Z</time></trkpt><trkpt lat="40.7637908" lon="14.8734308"><ele>493.0</ele><time>2026-04-04T16:32:17.958Z</time></trkpt><trkpt lat="40.763819" lon="14.8735697"><ele>493.0</ele><time>2026-04-04T16:32:19.972Z</time></trkpt><trkpt lat="40.7638133" lon="14.8736811"><ele>494.50000000000006</ele><time>2026-04-04T16:32:21.966Z</time></trkpt><trkpt lat="40.7637542" lon="14.8737127"><ele>496.0</ele><time>2026-04-04T16:32:24.96Z</time></trkpt><trkpt lat="40.7636803" lon="14.8736488"><ele>497.5</ele><time>2026-04-04T16:32:26.985Z</time></trkpt><trkpt lat="40.7636138" lon="14.8735554"><ele>499.0</ele><time>2026-04-04T16:32:28.973Z</time></trkpt><trkpt lat="40.7635817" lon="14.8734835"><ele>500.50000000000006</ele><time>2026-04-04T16:32:29.975Z</time></trkpt><trkpt lat="40.7635302" lon="14.8733884"><ele>502.0</ele><time>2026-04-04T16:32:31.972Z</time></trkpt><trkpt lat="40.7634722" lon="14.8732747"><ele>500.20000000000005</ele><time>2026-04-04T16:32:33.98Z</time></trkpt><trkpt lat="40.7634146" lon="14.8731466"><ele>498.40000000000003</ele><time>2026-04-04T16:32:35.974Z</time></trkpt><trkpt lat="40.7634192" lon="14.8730296"><ele>496.59999999999997</ele><time>2026-04-04T16:32:37.973Z</time></trkpt><trkpt lat="40.7634853" lon="14.8729309"><ele>494.79999999999995</ele><time>2026-04-04T16:32:39.983Z</time></trkpt><trkpt lat="40.7635666" lon="14.8728273"><ele>493.0</ele><time>2026-04-04T16:32:41.982Z</time></trkpt><trkpt lat="40.7636073" lon="14.8727438"><ele>493.00000000000006</ele><time>2026-04-04T16:32:43.979Z</time></trkpt><trkpt lat="40.7636368" lon="14.872662"><ele>493.0</ele><time>2026-04-04T16:32:45.98Z</time></trkpt><trkpt lat="40.7636937" lon="14.8725826"><ele>493.0</ele><time>2026-04-04T16:32:48.98Z</time></trkpt><trkpt lat="40.7636089" lon="14.8726096"><ele>493.0</ele><time>2026-04-04T16:32:55.986Z</time></trkpt><trkpt lat="40.7635432" lon="14.8725918"><ele>493.00000000000006</ele><time>2026-04-04T16:32:57.976Z</time></trkpt><trkpt lat="40.763567" lon="14.8725141"><ele>493.0</ele><time>2026-04-04T16:33:00.954Z</time></trkpt><trkpt lat="40.7635782" lon="14.8724044"><ele>482.59999999999997</ele><time>2026-04-04T16:33:03.98Z</time></trkpt><trkpt lat="40.7635085" lon="14.8723615"><ele>472.19999999999993</ele><time>2026-04-04T16:33:07.963Z</time></trkpt><trkpt lat="40.763451" lon="14.8723039"><ele>461.8</ele><time>2026-04-04T16:33:10.973Z</time></trkpt><trkpt lat="40.763369" lon="14.8722621"><ele>451.4</ele><time>2026-04-04T16:33:12.973Z</time></trkpt><trkpt lat="40.7632622" lon="14.8721808"><ele>441.0</ele><time>2026-04-04T16:33:14.976Z</time></trkpt><trkpt lat="40.7631415" lon="14.8720939"><ele>441.0</ele><time>2026-04-04T16:33:16.975Z</time></trkpt><trkpt lat="40.7630105" lon="14.8720559"><ele>441.0</ele><time>2026-04-04T16:33:19.026Z</time></trkpt><trkpt lat="40.7629295" lon="14.8720222"><ele>441.0</ele><time>2026-04-04T16:33:20.032Z</time></trkpt><trkpt lat="40.7628588" lon="14.8719629"><ele>441.0</ele><time>2026-04-04T16:33:21.027Z</time></trkpt><trkpt lat="40.7627914" lon="14.8719172"><ele>441.0</ele><time>2026-04-04T16:33:21.978Z</time></trkpt><trkpt lat="40.7626749" lon="14.8718633"><ele>439.6</ele><time>2026-04-04T16:33:23.979Z</time></trkpt><trkpt lat="40.7625811" lon="14.8718582"><ele>438.20000000000005</ele><time>2026-04-04T16:33:24.989Z</time></trkpt><trkpt lat="40.7624971" lon="14.8718559"><ele>436.79999999999995</ele><time>2026-04-04T16:33:25.972Z</time></trkpt><trkpt lat="40.7624234" lon="14.8718381"><ele>435.4</ele><time>2026-04-04T16:33:26.971Z</time></trkpt><trkpt lat="40.7623314" lon="14.8717724"><ele>434.0</ele><time>2026-04-04T16:33:28.973Z</time></trkpt><trkpt lat="40.7624374" lon="14.8717808"><ele>429.4</ele><time>2026-04-04T16:33:35.974Z</time></trkpt><trkpt lat="40.7625037" lon="14.8717907"><ele>424.79999999999995</ele><time>2026-04-04T16:33:37.977Z</time></trkpt><trkpt lat="40.7624484" lon="14.8718852"><ele>420.20000000000005</ele><time>2026-04-04T16:33:41.969Z</time></trkpt><trkpt lat="40.7623489" lon="14.8719611"><ele>415.6</ele><time>2026-04-04T16:33:44.993Z</time></trkpt><trkpt lat="40.7622447" lon="14.8719862"><ele>411.0</ele><time>2026-04-04T16:33:46.967Z</time></trkpt><trkpt lat="40.7621355" lon="14.8719485"><ele>411.0</ele><time>2026-04-04T16:33:48.971Z</time></trkpt><trkpt lat="40.7620533" lon="14.871881"><ele>411.0</ele><time>2026-04-04T16:33:50.971Z</time></trkpt><trkpt lat="40.7620047" lon="14.8717878"><ele>411.0</ele><time>2026-04-04T16:33:52.974Z</time></trkpt><trkpt lat="40.7619639" lon="14.8716949"><ele>411.0</ele><time>2026-04-04T16:33:55.984Z</time></trkpt><trkpt lat="40.7619145" lon="14.8717784"><ele>411.0</ele><time>2026-04-04T16:34:00.094Z</time></trkpt><trkpt lat="40.7619331" lon="14.8718671"><ele>411.0</ele><time>2026-04-04T16:34:02.98Z</time></trkpt><trkpt lat="40.761889" lon="14.8717831"><ele>409.6666666666667</ele><time>2026-04-04T16:34:06.98Z</time></trkpt><trkpt lat="40.7618511" lon="14.8717043"><ele>408.33333333333337</ele><time>2026-04-04T16:34:09.068Z</time></trkpt><trkpt lat="40.7618004" lon="14.8716177"><ele>407.0</ele><time>2026-04-04T16:34:11.039Z</time></trkpt><trkpt lat="40.7617655" lon="14.8715162"><ele>405.6666666666667</ele><time>2026-04-04T16:34:12.971Z</time></trkpt><trkpt lat="40.7617507" lon="14.8714177"><ele>404.33333333333337</ele><time>2026-04-04T16:34:14.962Z</time></trkpt><trkpt lat="40.7616858" lon="14.8714182"><ele>403.0</ele><time>2026-04-04T16:34:17.976Z</time></trkpt><trkpt lat="40.7616096" lon="14.8714186"><ele>403.00000000000006</ele><time>2026-04-04T16:34:20.974Z</time></trkpt><trkpt lat="40.7615196" lon="14.8714042"><ele>403.0</ele><time>2026-04-04T16:34:22.979Z</time></trkpt><trkpt lat="40.7614184" lon="14.8713968"><ele>403.0</ele><time>2026-04-04T16:34:25.08Z</time></trkpt><trkpt lat="40.7613538" lon="14.8713897"><ele>403.0</ele><time>2026-04-04T16:34:26.037Z</time></trkpt><trkpt lat="40.7612376" lon="14.8713529"><ele>403.00000000000006</ele><time>2026-04-04T16:34:27.979Z</time></trkpt><trkpt lat="40.7611794" lon="14.8713159"><ele>403.0</ele><time>2026-04-04T16:34:28.967Z</time></trkpt><trkpt lat="40.7611195" lon="14.8712776"><ele>403.0</ele><time>2026-04-04T16:34:29.976Z</time></trkpt><trkpt lat="40.761056" lon="14.8712475"><ele>403.0</ele><time>2026-04-04T16:34:30.974Z</time></trkpt><trkpt lat="40.760993" lon="14.8712185"><ele>403.0</ele><time>2026-04-04T16:34:31.972Z</time></trkpt><trkpt lat="40.7609261" lon="14.8711926"><ele>403.0</ele><time>2026-04-04T16:34:32.98Z</time></trkpt><trkpt lat="40.7608571" lon="14.8711678"><ele>403.0</ele><time>2026-04-04T16:34:34.081Z</time></trkpt><trkpt lat="40.7607883" lon="14.8711349"><ele>403.0</ele><time>2026-04-04T16:34:35.037Z</time></trkpt><trkpt lat="40.7607264" lon="14.8711071"><ele>403.0</ele><time>2026-04-04T16:34:36.041Z</time></trkpt><trkpt lat="40.7606721" lon="14.8710646"><ele>402.42857142857144</ele><time>2026-04-04T16:34:36.979Z</time></trkpt><trkpt lat="40.7606283" lon="14.8710045"><ele>401.85714285714283</ele><time>2026-04-04T16:34:37.977Z</time></trkpt><trkpt lat="40.7605743" lon="14.870923"><ele>401.2857142857143</ele><time>2026-04-04T16:34:39.976Z</time></trkpt><trkpt lat="40.7605094" lon="14.8709192"><ele>400.7142857142857</ele><time>2026-04-04T16:34:42.982Z</time></trkpt><trkpt lat="40.7604812" lon="14.8710051"><ele>400.1428571428571</ele><time>2026-04-04T16:34:49.05Z</time></trkpt><trkpt lat="40.7605" lon="14.8710949"><ele>399.57142857142856</ele><time>2026-04-04T16:34:52.977Z</time></trkpt><trkpt lat="40.760522" lon="14.8711947"><ele>399.0</ele><time>2026-04-04T16:34:58.05Z</time></trkpt><trkpt lat="40.7605649" lon="14.8712682"><ele>399.0</ele><time>2026-04-04T16:35:01.957Z</time></trkpt><trkpt lat="40.7606295" lon="14.871316"><ele>399.0</ele><time>2026-04-04T16:35:04.973Z</time></trkpt><trkpt lat="40.7607097" lon="14.871341"><ele>399.0</ele><time>2026-04-04T16:35:09.966Z</time></trkpt><trkpt lat="40.7607713" lon="14.8713655"><ele>399.0</ele><time>2026-04-04T16:35:11.977Z</time></trkpt><trkpt lat="40.7608551" lon="14.8714"><ele>399.0</ele><time>2026-04-04T16:35:13.968Z</time></trkpt><trkpt lat="40.7609467" lon="14.8714278"><ele>399.0</ele><time>2026-04-04T16:35:15.977Z</time></trkpt><trkpt lat="40.7610548" lon="14.8714427"><ele>399.5</ele><time>2026-04-04T16:35:17.977Z</time></trkpt><trkpt lat="40.7611252" lon="14.8714583"><ele>400.0</ele><time>2026-04-04T16:35:18.973Z</time></trkpt><trkpt lat="40.7612139" lon="14.871501"><ele>400.5</ele><time>2026-04-04T16:35:20.979Z</time></trkpt><trkpt lat="40.7612858" lon="14.8715538"><ele>401.0</ele><time>2026-04-04T16:35:23.029Z</time></trkpt><trkpt lat="40.7613304" lon="14.871613"><ele>401.5</ele><time>2026-04-04T16:35:25.037Z</time></trkpt><trkpt lat="40.7613713" lon="14.87172"><ele>402.0</ele><time>2026-04-04T16:35:27.981Z</time></trkpt><trkpt lat="40.7614144" lon="14.8717971"><ele>402.0</ele><time>2026-04-04T16:35:30.032Z</time></trkpt><trkpt lat="40.7614574" lon="14.8718836"><ele>402.0</ele><time>2026-04-04T16:35:32.972Z</time></trkpt><trkpt lat="40.7615103" lon="14.8720053"><ele>402.0</ele><time>2026-04-04T16:35:35.98Z</time></trkpt><trkpt lat="40.7615534" lon="14.8720967"><ele>402.0</ele><time>2026-04-04T16:35:37.976Z</time></trkpt><trkpt lat="40.76161" lon="14.8721788"><ele>402.0</ele><time>2026-04-04T16:35:40.027Z</time></trkpt><trkpt lat="40.7616815" lon="14.8722686"><ele>402.0</ele><time>2026-04-04T16:35:41.978Z</time></trkpt><trkpt lat="40.7617467" lon="14.8723519"><ele>402.0</ele><time>2026-04-04T16:35:43.971Z</time></trkpt><trkpt lat="40.7617941" lon="14.8724327"><ele>402.0</ele><time>2026-04-04T16:35:45.978Z</time></trkpt><trkpt lat="40.7618375" lon="14.8725115"><ele>402.0</ele><time>2026-04-04T16:35:47.985Z</time></trkpt><trkpt lat="40.7618782" lon="14.8725841"><ele>402.0</ele><time>2026-04-04T16:35:49.968Z</time></trkpt><trkpt lat="40.7619309" lon="14.8726611"><ele>402.0</ele><time>2026-04-04T16:35:51.978Z</time></trkpt><trkpt lat="40.7619842" lon="14.8727262"><ele>402.0</ele><time>2026-04-04T16:35:54.03Z</time></trkpt><trkpt lat="40.7620436" lon="14.8727889"><ele>402.0</ele><time>2026-04-04T16:35:55.975Z</time></trkpt><trkpt lat="40.7621196" lon="14.8728728"><ele>403.6</ele><time>2026-04-04T16:35:57.987Z</time></trkpt><trkpt lat="40.7621847" lon="14.8729492"><ele>405.20000000000005</ele><time>2026-04-04T16:35:58.981Z</time></trkpt><trkpt lat="40.762248" lon="14.8730392"><ele>406.8</ele><time>2026-04-04T16:35:59.968Z</time></trkpt><trkpt lat="40.7622999" lon="14.8730938"><ele>408.4</ele><time>2026-04-04T16:36:00.968Z</time></trkpt><trkpt lat="40.7623909" lon="14.8731729"><ele>410.0</ele><time>2026-04-04T16:36:02.975Z</time></trkpt><trkpt lat="40.7624506" lon="14.8732731"><ele>409.99999999999994</ele><time>2026-04-04T16:36:04.988Z</time></trkpt><trkpt lat="40.762512" lon="14.8733478"><ele>410.0</ele><time>2026-04-04T16:36:06.96Z</time></trkpt><trkpt lat="40.7625673" lon="14.8734115"><ele>410.0</ele><time>2026-04-04T16:36:08.985Z</time></trkpt><trkpt lat="40.7626108" lon="14.8735228"><ele>410.0</ele><time>2026-04-04T16:36:11.973Z</time></trkpt><trkpt lat="40.7626568" lon="14.8736052"><ele>409.99999999999994</ele><time>2026-04-04T16:36:14.969Z</time></trkpt><trkpt lat="40.7626769" lon="14.8737111"><ele>410.0</ele><time>2026-04-04T16:36:18.055Z</time></trkpt><trkpt lat="40.7626688" lon="14.8737986"><ele>411.49999999999994</ele><time>2026-04-04T16:36:19.975Z</time></trkpt><trkpt lat="40.7626628" lon="14.873895"><ele>413.0</ele><time>2026-04-04T16:36:21.976Z</time></trkpt><trkpt lat="40.762678" lon="14.8740074"><ele>414.5</ele><time>2026-04-04T16:36:23.98Z</time></trkpt><trkpt lat="40.7627092" lon="14.8741552"><ele>416.0</ele><time>2026-04-04T16:36:26.068Z</time></trkpt><trkpt lat="40.7627104" lon="14.8742579"><ele>417.49999999999994</ele><time>2026-04-04T16:36:26.977Z</time></trkpt><trkpt lat="40.7627199" lon="14.8743636"><ele>419.0</ele><time>2026-04-04T16:36:27.983Z</time></trkpt><trkpt lat="40.7627212" lon="14.8744577"><ele>422.99999999999994</ele><time>2026-04-04T16:36:28.992Z</time></trkpt><trkpt lat="40.7627252" lon="14.8745441"><ele>427.0</ele><time>2026-04-04T16:36:29.976Z</time></trkpt><trkpt lat="40.7627397" lon="14.874654"><ele>431.0</ele><time>2026-04-04T16:36:30.977Z</time></trkpt><trkpt lat="40.7627539" lon="14.8747918"><ele>435.0</ele><time>2026-04-04T16:36:32.98Z</time></trkpt><trkpt lat="40.7627729" lon="14.8749059"><ele>438.99999999999994</ele><time>2026-04-04T16:36:35.027Z</time></trkpt><trkpt lat="40.7627842" lon="14.874992"><ele>443.0</ele><time>2026-04-04T16:36:36.975Z</time></trkpt><trkpt lat="40.7628238" lon="14.8750595"><ele>443.2857142857143</ele><time>2026-04-04T16:36:38.981Z</time></trkpt><trkpt lat="40.7628642" lon="14.8751368"><ele>443.57142857142856</ele><time>2026-04-04T16:36:41.036Z</time></trkpt><trkpt lat="40.762906" lon="14.8752154"><ele>443.8571428571429</ele><time>2026-04-04T16:36:42.978Z</time></trkpt><trkpt lat="40.7629238" lon="14.8753202"><ele>444.1428571428571</ele><time>2026-04-04T16:36:44.96Z</time></trkpt><trkpt lat="40.7629572" lon="14.8753929"><ele>444.4285714285714</ele><time>2026-04-04T16:36:46.969Z</time></trkpt><trkpt lat="40.762999" lon="14.8754597"><ele>444.7142857142857</ele><time>2026-04-04T16:36:48.953Z</time></trkpt><trkpt lat="40.7630664" lon="14.8755028"><ele>445.0</ele><time>2026-04-04T16:36:51.082Z</time></trkpt><trkpt lat="40.7631266" lon="14.8755592"><ele>445.00000000000006</ele><time>2026-04-04T16:36:54.095Z</time></trkpt><trkpt lat="40.7630449" lon="14.8755399"><ele>445.0</ele><time>2026-04-04T16:37:03.078Z</time></trkpt><trkpt lat="40.7629715" lon="14.8755051"><ele>445.0</ele><time>2026-04-04T16:37:05.093Z</time></trkpt><trkpt lat="40.7628956" lon="14.8754957"><ele>445.0</ele><time>2026-04-04T16:37:08.091Z</time></trkpt><trkpt lat="40.7628496" lon="14.8754232"><ele>445.00000000000006</ele><time>2026-04-04T16:37:12.104Z</time></trkpt><trkpt lat="40.7628093" lon="14.8753258"><ele>445.0</ele><time>2026-04-04T16:37:14.108Z</time></trkpt><trkpt lat="40.7627586" lon="14.8752126"><ele>444.6</ele><time>2026-04-04T16:37:16.1Z</time></trkpt><trkpt lat="40.7627253" lon="14.8750781"><ele>444.2</ele><time>2026-04-04T16:37:18.104Z</time></trkpt><trkpt lat="40.7626837" lon="14.8749141"><ele>443.79999999999995</ele><time>2026-04-04T16:37:20.107Z</time></trkpt><trkpt lat="40.7626573" lon="14.8748174"><ele>443.4</ele><time>2026-04-04T16:37:21.101Z</time></trkpt><trkpt lat="40.7626213" lon="14.8747212"><ele>443.0</ele><time>2026-04-04T16:37:22.101Z</time></trkpt><trkpt lat="40.7625803" lon="14.8746317"><ele>441.3333333333333</ele><time>2026-04-04T16:37:23.116Z</time></trkpt><trkpt lat="40.7625467" lon="14.8745566"><ele>439.66666666666663</ele><time>2026-04-04T16:37:24.106Z</time></trkpt><trkpt lat="40.7625024" lon="14.8744654"><ele>438.0</ele><time>2026-04-04T16:37:25.104Z</time></trkpt><trkpt lat="40.7624453" lon="14.8743946"><ele>436.33333333333337</ele><time>2026-04-04T16:37:26.108Z</time></trkpt><trkpt lat="40.7623613" lon="14.8743216"><ele>434.6666666666667</ele><time>2026-04-04T16:37:28.107Z</time></trkpt><trkpt lat="40.7622584" lon="14.874321"><ele>433.0</ele><time>2026-04-04T16:37:30.113Z</time></trkpt><trkpt lat="40.7621971" lon="14.8743004"><ele>430.2</ele><time>2026-04-04T16:37:31.087Z</time></trkpt><trkpt lat="40.7621114" lon="14.8742347"><ele>427.4</ele><time>2026-04-04T16:37:33.108Z</time></trkpt><trkpt lat="40.7620674" lon="14.87413"><ele>424.59999999999997</ele><time>2026-04-04T16:37:34.102Z</time></trkpt><trkpt lat="40.7620183" lon="14.8740264"><ele>421.79999999999995</ele><time>2026-04-04T16:37:35.097Z</time></trkpt><trkpt lat="40.7619736" lon="14.8739272"><ele>419.0</ele><time>2026-04-04T16:37:36.113Z</time></trkpt><trkpt lat="40.761921" lon="14.8738312"><ele>423.8333333333333</ele><time>2026-04-04T16:37:37.102Z</time></trkpt><trkpt lat="40.7618579" lon="14.873778"><ele>428.66666666666663</ele><time>2026-04-04T16:37:38.117Z</time></trkpt><trkpt lat="40.7617717" lon="14.8737747"><ele>433.5</ele><time>2026-04-04T16:37:40.107Z</time></trkpt><trkpt lat="40.7617043" lon="14.8737916"><ele>438.33333333333337</ele><time>2026-04-04T16:37:42.107Z</time></trkpt><trkpt lat="40.7616331" lon="14.8737317"><ele>443.1666666666667</ele><time>2026-04-04T16:37:45.109Z</time></trkpt><trkpt lat="40.7616021" lon="14.8736558"><ele>448.0</ele><time>2026-04-04T16:37:46.1Z</time></trkpt><trkpt lat="40.761557" lon="14.8735463"><ele>442.4</ele><time>2026-04-04T16:37:47.104Z</time></trkpt><trkpt lat="40.7614791" lon="14.8734314"><ele>436.79999999999995</ele><time>2026-04-04T16:37:49.102Z</time></trkpt><trkpt lat="40.7613652" lon="14.8733668"><ele>431.2</ele><time>2026-04-04T16:37:51.039Z</time></trkpt><trkpt lat="40.7612982" lon="14.8733061"><ele>425.6</ele><time>2026-04-04T16:37:51.963Z</time></trkpt><trkpt lat="40.7612312" lon="14.8732187"><ele>420.0</ele><time>2026-04-04T16:37:53.949Z</time></trkpt><trkpt lat="40.7611792" lon="14.8731087"><ele>420.0</ele><time>2026-04-04T16:37:55.971Z</time></trkpt><trkpt lat="40.7611147" lon="14.8729911"><ele>420.0</ele><time>2026-04-04T16:37:57.971Z</time></trkpt><trkpt lat="40.7610502" lon="14.8729131"><ele>420.0</ele><time>2026-04-04T16:37:58.978Z</time></trkpt><trkpt lat="40.7609767" lon="14.8728269"><ele>420.0</ele><time>2026-04-04T16:37:59.97Z</time></trkpt><trkpt lat="40.7609036" lon="14.8727382"><ele>420.0</ele><time>2026-04-04T16:38:00.963Z</time></trkpt><trkpt lat="40.7608193" lon="14.8726619"><ele>421.3333333333333</ele><time>2026-04-04T16:38:01.962Z</time></trkpt><trkpt lat="40.7607401" lon="14.872598"><ele>422.66666666666663</ele><time>2026-04-04T16:38:02.963Z</time></trkpt><trkpt lat="40.7606683" lon="14.8725539"><ele>424.0</ele><time>2026-04-04T16:38:03.964Z</time></trkpt><trkpt lat="40.7605905" lon="14.8725087"><ele>425.3333333333333</ele><time>2026-04-04T16:38:04.946Z</time></trkpt><trkpt lat="40.7605141" lon="14.87247"><ele>426.66666666666663</ele><time>2026-04-04T16:38:05.955Z</time></trkpt><trkpt lat="40.7604312" lon="14.8724368"><ele>428.0</ele><time>2026-04-04T16:38:06.96Z</time></trkpt><trkpt lat="40.760348" lon="14.8724208"><ele>428.0</ele><time>2026-04-04T16:38:07.961Z</time></trkpt><trkpt lat="40.7602644" lon="14.872413"><ele>427.99999999999994</ele><time>2026-04-04T16:38:08.964Z</time></trkpt><trkpt lat="40.7601799" lon="14.8724107"><ele>427.99999999999994</ele><time>2026-04-04T16:38:09.961Z</time></trkpt><trkpt lat="40.7600918" lon="14.8724359"><ele>428.0</ele><time>2026-04-04T16:38:10.973Z</time></trkpt><trkpt lat="40.7600219" lon="14.8724878"><ele>428.0</ele><time>2026-04-04T16:38:11.957Z</time></trkpt><trkpt lat="40.7599136" lon="14.8725923"><ele>432.99999999999994</ele><time>2026-04-04T16:38:14.011Z</time></trkpt><trkpt lat="40.7598653" lon="14.8726523"><ele>438.0</ele><time>2026-04-04T16:38:15.016Z</time></trkpt><trkpt lat="40.7598081" lon="14.8727873"><ele>443.0</ele><time>2026-04-04T16:38:16.954Z</time></trkpt><trkpt lat="40.7597785" lon="14.8728969"><ele>448.0</ele><time>2026-04-04T16:38:18.962Z</time></trkpt><trkpt lat="40.7597776" lon="14.8729994"><ele>452.99999999999994</ele><time>2026-04-04T16:38:21.031Z</time></trkpt><trkpt lat="40.7597546" lon="14.8731014"><ele>458.0</ele><time>2026-04-04T16:38:22.968Z</time></trkpt><trkpt lat="40.7597154" lon="14.8731781"><ele>457.99999999999994</ele><time>2026-04-04T16:38:24.967Z</time></trkpt><trkpt lat="40.7596604" lon="14.8732981"><ele>458.0</ele><time>2026-04-04T16:38:26.97Z</time></trkpt><trkpt lat="40.7596193" lon="14.8733713"><ele>458.0</ele><time>2026-04-04T16:38:27.968Z</time></trkpt><trkpt lat="40.7595928" lon="14.8734889"><ele>458.0</ele><time>2026-04-04T16:38:29.048Z</time></trkpt><trkpt lat="40.759561" lon="14.8736025"><ele>457.99999999999994</ele><time>2026-04-04T16:38:30.035Z</time></trkpt><trkpt lat="40.75954" lon="14.873716"><ele>458.0</ele><time>2026-04-04T16:38:31.045Z</time></trkpt><trkpt lat="40.7595185" lon="14.8738114"><ele>460.2</ele><time>2026-04-04T16:38:31.947Z</time></trkpt><trkpt lat="40.7594593" lon="14.8738653"><ele>462.4</ele><time>2026-04-04T16:38:33.977Z</time></trkpt><trkpt lat="40.7593567" lon="14.8738483"><ele>464.59999999999997</ele><time>2026-04-04T16:38:36.037Z</time></trkpt><trkpt lat="40.7592725" lon="14.8737649"><ele>466.79999999999995</ele><time>2026-04-04T16:38:37.955Z</time></trkpt><trkpt lat="40.7591697" lon="14.8736572"><ele>469.0</ele><time>2026-04-04T16:38:39.957Z</time></trkpt><trkpt lat="40.759053" lon="14.8735559"><ele>469.0</ele><time>2026-04-04T16:38:41.96Z</time></trkpt><trkpt lat="40.7589315" lon="14.873495"><ele>469.0</ele><time>2026-04-04T16:38:43.99Z</time></trkpt><trkpt lat="40.7588695" lon="14.873477"><ele>469.0</ele><time>2026-04-04T16:38:44.959Z</time></trkpt><trkpt lat="40.7587582" lon="14.8734583"><ele>469.0</ele><time>2026-04-04T16:38:46.965Z</time></trkpt><trkpt lat="40.7586543" lon="14.8735076"><ele>469.0</ele><time>2026-04-04T16:38:48.973Z</time></trkpt><trkpt lat="40.7585396" lon="14.8736174"><ele>466.0</ele><time>2026-04-04T16:38:50.964Z</time></trkpt><trkpt lat="40.7584714" lon="14.8736898"><ele>463.0</ele><time>2026-04-04T16:38:51.964Z</time></trkpt><trkpt lat="40.7584226" lon="14.8737606"><ele>460.0</ele><time>2026-04-04T16:38:52.949Z</time></trkpt><trkpt lat="40.7583869" lon="14.8738329"><ele>457.0</ele><time>2026-04-04T16:38:53.964Z</time></trkpt><trkpt lat="40.7583573" lon="14.8739095"><ele>454.0</ele><time>2026-04-04T16:38:54.967Z</time></trkpt><trkpt lat="40.7583236" lon="14.8739886"><ele>451.0</ele><time>2026-04-04T16:38:55.956Z</time></trkpt><trkpt lat="40.7583154" lon="14.8740872"><ele>448.0</ele><time>2026-04-04T16:38:57.965Z</time></trkpt><trkpt lat="40.7582494" lon="14.8740848"><ele>448.00000000000006</ele><time>2026-04-04T16:39:01.956Z</time></trkpt><trkpt lat="40.7581753" lon="14.8740526"><ele>448.0</ele><time>2026-04-04T16:39:02.967Z</time></trkpt><trkpt lat="40.7581129" lon="14.8740774"><ele>448.0</ele><time>2026-04-04T16:39:03.954Z</time></trkpt><trkpt lat="40.7580644" lon="14.874152"><ele>448.0</ele><time>2026-04-04T16:39:05.962Z</time></trkpt><trkpt lat="40.7579245" lon="14.8741453"><ele>448.00000000000006</ele><time>2026-04-04T16:39:09.962Z</time></trkpt><trkpt lat="40.757855" lon="14.8741264"><ele>448.0</ele><time>2026-04-04T16:39:10.96Z</time></trkpt><trkpt lat="40.7577545" lon="14.8740504"><ele>449.83333333333337</ele><time>2026-04-04T16:39:12.964Z</time></trkpt><trkpt lat="40.7576567" lon="14.8739448"><ele>451.6666666666667</ele><time>2026-04-04T16:39:14.967Z</time></trkpt><trkpt lat="40.7575907" lon="14.8738773"><ele>453.5</ele><time>2026-04-04T16:39:15.967Z</time></trkpt><trkpt lat="40.7575283" lon="14.8738315"><ele>455.33333333333337</ele><time>2026-04-04T16:39:16.965Z</time></trkpt><trkpt lat="40.7574505" lon="14.8737941"><ele>457.1666666666667</ele><time>2026-04-04T16:39:17.967Z</time></trkpt><trkpt lat="40.7573697" lon="14.8737587"><ele>459.0</ele><time>2026-04-04T16:39:18.965Z</time></trkpt><trkpt lat="40.7572841" lon="14.8737473"><ele>459.0</ele><time>2026-04-04T16:39:20.067Z</time></trkpt><trkpt lat="40.7571216" lon="14.8737505"><ele>459.0</ele><time>2026-04-04T16:39:21.964Z</time></trkpt><trkpt lat="40.7570356" lon="14.8737663"><ele>459.0</ele><time>2026-04-04T16:39:22.968Z</time></trkpt><trkpt lat="40.7569521" lon="14.8737932"><ele>459.0</ele><time>2026-04-04T16:39:23.965Z</time></trkpt><trkpt lat="40.7568888" lon="14.8738111"><ele>459.0</ele><time>2026-04-04T16:39:24.962Z</time></trkpt><trkpt lat="40.7568317" lon="14.8738612"><ele>457.1666666666667</ele><time>2026-04-04T16:39:27.964Z</time></trkpt><trkpt lat="40.7568324" lon="14.8737531"><ele>455.33333333333337</ele><time>2026-04-04T16:39:31.944Z</time></trkpt><trkpt lat="40.756829" lon="14.873664"><ele>453.5</ele><time>2026-04-04T16:39:32.951Z</time></trkpt><trkpt lat="40.7568278" lon="14.8735662"><ele>451.6666666666667</ele><time>2026-04-04T16:39:33.952Z</time></trkpt><trkpt lat="40.7568059" lon="14.8734547"><ele>449.83333333333337</ele><time>2026-04-04T16:39:34.959Z</time></trkpt><trkpt lat="40.7567516" lon="14.8733336"><ele>448.0</ele><time>2026-04-04T16:39:36.047Z</time></trkpt><trkpt lat="40.7566711" lon="14.8732178"><ele>445.1666666666667</ele><time>2026-04-04T16:39:36.951Z</time></trkpt><trkpt lat="40.7566" lon="14.8731325"><ele>442.33333333333337</ele><time>2026-04-04T16:39:37.956Z</time></trkpt><trkpt lat="40.756515" lon="14.8730641"><ele>439.5</ele><time>2026-04-04T16:39:38.981Z</time></trkpt><trkpt lat="40.7564332" lon="14.8730176"><ele>436.66666666666663</ele><time>2026-04-04T16:39:39.958Z</time></trkpt><trkpt lat="40.7563493" lon="14.8729787"><ele>433.8333333333333</ele><time>2026-04-04T16:39:40.968Z</time></trkpt><trkpt lat="40.7562797" lon="14.8729511"><ele>431.0</ele><time>2026-04-04T16:39:41.965Z</time></trkpt><trkpt lat="40.7562234" lon="14.8729077"><ele>430.99999999999994</ele><time>2026-04-04T16:39:42.963Z</time></trkpt><trkpt lat="40.7561534" lon="14.8728542"><ele>431.0</ele><time>2026-04-04T16:39:44.028Z</time></trkpt><trkpt lat="40.7560737" lon="14.8728033"><ele>431.0</ele><time>2026-04-04T16:39:45.037Z</time></trkpt><trkpt lat="40.7559864" lon="14.872772"><ele>431.0</ele><time>2026-04-04T16:39:45.97Z</time></trkpt><trkpt lat="40.7559031" lon="14.8727362"><ele>430.99999999999994</ele><time>2026-04-04T16:39:46.964Z</time></trkpt><trkpt lat="40.7558188" lon="14.8726844"><ele>431.0</ele><time>2026-04-04T16:39:47.973Z</time></trkpt><trkpt lat="40.7557287" lon="14.8726358"><ele>427.2857142857143</ele><time>2026-04-04T16:39:48.968Z</time></trkpt><trkpt lat="40.7556487" lon="14.8726022"><ele>423.57142857142856</ele><time>2026-04-04T16:39:49.973Z</time></trkpt><trkpt lat="40.7555832" lon="14.8725806"><ele>419.85714285714283</ele><time>2026-04-04T16:39:50.961Z</time></trkpt><trkpt lat="40.755528" lon="14.8725386"><ele>416.1428571428571</ele><time>2026-04-04T16:39:51.951Z</time></trkpt><trkpt lat="40.7555357" lon="14.8724541"><ele>412.42857142857144</ele><time>2026-04-04T16:39:53.961Z</time></trkpt><trkpt lat="40.7555491" lon="14.8723658"><ele>408.71428571428567</ele><time>2026-04-04T16:39:56.97Z</time></trkpt><trkpt lat="40.7554823" lon="14.8723647"><ele>405.0</ele><time>2026-04-04T16:39:58.959Z</time></trkpt><trkpt lat="40.7553839" lon="14.8724025"><ele>405.0</ele><time>2026-04-04T16:40:00.967Z</time></trkpt><trkpt lat="40.7553295" lon="14.8724585"><ele>405.0</ele><time>2026-04-04T16:40:01.971Z</time></trkpt><trkpt lat="40.7552795" lon="14.8725104"><ele>405.0</ele><time>2026-04-04T16:40:03.053Z</time></trkpt><trkpt lat="40.7552167" lon="14.8725979"><ele>405.0</ele><time>2026-04-04T16:40:05.025Z</time></trkpt><trkpt lat="40.7551659" lon="14.8725133"><ele>405.0</ele><time>2026-04-04T16:40:08.966Z</time></trkpt><trkpt lat="40.7551689" lon="14.872421"><ele>405.0</ele><time>2026-04-04T16:40:09.957Z</time></trkpt><trkpt lat="40.7551664" lon="14.8723145"><ele>405.0</ele><time>2026-04-04T16:40:10.965Z</time></trkpt><trkpt lat="40.7551577" lon="14.8722044"><ele>405.0</ele><time>2026-04-04T16:40:11.965Z</time></trkpt><trkpt lat="40.7551583" lon="14.8721045"><ele>405.0</ele><time>2026-04-04T16:40:12.964Z</time></trkpt><trkpt lat="40.7552123" lon="14.8719815"><ele>405.0</ele><time>2026-04-04T16:40:15.02Z</time></trkpt><trkpt lat="40.7552385" lon="14.8718978"><ele>405.0</ele><time>2026-04-04T16:40:17.96Z</time></trkpt><trkpt lat="40.7551724" lon="14.8719038"><ele>405.0</ele><time>2026-04-04T16:40:20.962Z</time></trkpt><trkpt lat="40.7551078" lon="14.871982"><ele>400.3333333333333</ele><time>2026-04-04T16:40:22.953Z</time></trkpt><trkpt lat="40.7550545" lon="14.8720609"><ele>395.6666666666667</ele><time>2026-04-04T16:40:25.037Z</time></trkpt><trkpt lat="40.7549915" lon="14.8721155"><ele>391.0</ele><time>2026-04-04T16:40:27.967Z</time></trkpt><trkpt lat="40.754945" lon="14.8719867"><ele>386.33333333333337</ele><time>2026-04-04T16:40:29.974Z</time></trkpt><trkpt lat="40.7549269" lon="14.8718901"><ele>381.6666666666667</ele><time>2026-04-04T16:40:30.957Z</time></trkpt><trkpt lat="40.7549232" lon="14.8717998"><ele>377.0</ele><time>2026-04-04T16:40:31.964Z</time></trkpt><trkpt lat="40.7549704" lon="14.8716768"><ele>377.0</ele><time>2026-04-04T16:40:33.96Z</time></trkpt><trkpt lat="40.7549005" lon="14.8717149"><ele>377.0</ele><time>2026-04-04T16:40:38.049Z</time></trkpt><trkpt lat="40.7548213" lon="14.8718532"><ele>377.0</ele><time>2026-04-04T16:40:39.979Z</time></trkpt><trkpt lat="40.7547595" lon="14.8719686"><ele>377.0</ele><time>2026-04-04T16:40:41.958Z</time></trkpt><trkpt lat="40.7547288" lon="14.8720598"><ele>377.0</ele><time>2026-04-04T16:40:43.958Z</time></trkpt><trkpt lat="40.7547071" lon="14.8719667"><ele>377.0</ele><time>2026-04-04T16:40:46.957Z</time></trkpt><trkpt lat="40.7547011" lon="14.8718368"><ele>377.0</ele><time>2026-04-04T16:40:48.05Z</time></trkpt><trkpt lat="40.7546862" lon="14.8717137"><ele>377.0</ele><time>2026-04-04T16:40:49.032Z</time></trkpt><trkpt lat="40.7546795" lon="14.8715948"><ele>377.0</ele><time>2026-04-04T16:40:49.962Z</time></trkpt><trkpt lat="40.7546997" lon="14.8714679"><ele>377.0</ele><time>2026-04-04T16:40:51.966Z</time></trkpt><trkpt lat="40.7546453" lon="14.871421"><ele>377.0</ele><time>2026-04-04T16:40:54.954Z</time></trkpt><trkpt lat="40.754589" lon="14.8715306"><ele>377.0</ele><time>2026-04-04T16:40:57.969Z</time></trkpt><trkpt lat="40.7545466" lon="14.8716821"><ele>377.0</ele><time>2026-04-04T16:40:59.965Z</time></trkpt><trkpt lat="40.7544946" lon="14.8718202"><ele>377.0</ele><time>2026-04-04T16:41:01.959Z</time></trkpt><trkpt lat="40.7544784" lon="14.8719142"><ele>377.0</ele><time>2026-04-04T16:41:03.973Z</time></trkpt><trkpt lat="40.7544733" lon="14.8720007"><ele>377.0</ele><time>2026-04-04T16:41:06.953Z</time></trkpt><trkpt lat="40.7545053" lon="14.8718251"><ele>374.20000000000005</ele><time>2026-04-04T16:41:12.961Z</time></trkpt><trkpt lat="40.7545255" lon="14.8717181"><ele>371.4</ele><time>2026-04-04T16:41:13.96Z</time></trkpt><trkpt lat="40.7545378" lon="14.8716276"><ele>368.6</ele><time>2026-04-04T16:41:14.963Z</time></trkpt><trkpt lat="40.7545857" lon="14.8715071"><ele>365.79999999999995</ele><time>2026-04-04T16:41:16.963Z</time></trkpt><trkpt lat="40.7547072" lon="14.8714259"><ele>363.0</ele><time>2026-04-04T16:41:18.995Z</time></trkpt><trkpt lat="40.7547895" lon="14.8713781"><ele>363.0</ele><time>2026-04-04T16:41:19.958Z</time></trkpt><trkpt lat="40.7548704" lon="14.8713146"><ele>363.0</ele><time>2026-04-04T16:41:20.964Z</time></trkpt><trkpt lat="40.7549549" lon="14.8712417"><ele>363.0</ele><time>2026-04-04T16:41:21.962Z</time></trkpt><trkpt lat="40.7550222" lon="14.8711691"><ele>363.0</ele><time>2026-04-04T16:41:22.962Z</time></trkpt><trkpt lat="40.7550731" lon="14.8711002"><ele>363.0</ele><time>2026-04-04T16:41:23.962Z</time></trkpt><trkpt lat="40.7551215" lon="14.8710427"><ele>363.0</ele><time>2026-04-04T16:41:24.958Z</time></trkpt><trkpt lat="40.7552242" lon="14.8710035"><ele>364.5</ele><time>2026-04-04T16:41:26.962Z</time></trkpt><trkpt lat="40.7553065" lon="14.8710009"><ele>366.0</ele><time>2026-04-04T16:41:28.964Z</time></trkpt><trkpt lat="40.7553784" lon="14.8710154"><ele>367.5</ele><time>2026-04-04T16:41:29.969Z</time></trkpt><trkpt lat="40.7554768" lon="14.8710048"><ele>369.0</ele><time>2026-04-04T16:41:30.955Z</time></trkpt><trkpt lat="40.7555688" lon="14.8709722"><ele>370.5</ele><time>2026-04-04T16:41:31.955Z</time></trkpt><trkpt lat="40.7556536" lon="14.8709721"><ele>372.0</ele><time>2026-04-04T16:41:32.96Z</time></trkpt><trkpt lat="40.7557285" lon="14.8709906"><ele>372.0</ele><time>2026-04-04T16:41:33.959Z</time></trkpt><trkpt lat="40.7558371" lon="14.8710408"><ele>372.0</ele><time>2026-04-04T16:41:35.973Z</time></trkpt><trkpt lat="40.7558996" lon="14.8710853"><ele>372.0</ele><time>2026-04-04T16:41:36.971Z</time></trkpt><trkpt lat="40.7559737" lon="14.8711265"><ele>372.0</ele><time>2026-04-04T16:41:37.969Z</time></trkpt><trkpt lat="40.7560508" lon="14.8711467"><ele>372.0</ele><time>2026-04-04T16:41:38.975Z</time></trkpt><trkpt lat="40.756133" lon="14.8711685"><ele>372.0</ele><time>2026-04-04T16:41:40.009Z</time></trkpt><trkpt lat="40.7562085" lon="14.8711873"><ele>371.40000000000003</ele><time>2026-04-04T16:41:40.961Z</time></trkpt><trkpt lat="40.7562754" lon="14.8712134"><ele>370.8</ele><time>2026-04-04T16:41:41.968Z</time></trkpt><trkpt lat="40.7563428" lon="14.8712434"><ele>370.2</ele><time>2026-04-04T16:41:42.965Z</time></trkpt><trkpt lat="40.7564566" lon="14.8713278"><ele>369.6</ele><time>2026-04-04T16:41:44.972Z</time></trkpt><trkpt lat="40.7565371" lon="14.8713799"><ele>369.0</ele><time>2026-04-04T16:41:45.958Z</time></trkpt><trkpt lat="40.7566284" lon="14.8714003"><ele>369.0</ele><time>2026-04-04T16:41:46.959Z</time></trkpt><trkpt lat="40.7567465" lon="14.8714248"><ele>369.0</ele><time>2026-04-04T16:41:47.952Z</time></trkpt><trkpt lat="40.7568833" lon="14.8714537"><ele>369.0</ele><time>2026-04-04T16:41:48.965Z</time></trkpt><trkpt lat="40.7569963" lon="14.8714831"><ele>369.0</ele><time>2026-04-04T16:41:49.964Z</time></trkpt><trkpt lat="40.7570977" lon="14.8715283"><ele>368.5</ele><time>2026-04-04T16:41:50.965Z</time></trkpt><trkpt lat="40.7572335" lon="14.871574"><ele>368.0</ele><time>2026-04-04T16:41:51.967Z</time></trkpt><trkpt lat="40.7573587" lon="14.8716049"><ele>367.5</ele><time>2026-04-04T16:41:52.963Z</time></trkpt><trkpt lat="40.7574636" lon="14.8716116"><ele>367.0</ele><time>2026-04-04T16:41:53.964Z</time></trkpt><trkpt lat="40.7575695" lon="14.8716044"><ele>367.0</ele><time>2026-04-04T16:41:54.965Z</time></trkpt><trkpt lat="40.7576686" lon="14.8715875"><ele>367.0</ele><time>2026-04-04T16:41:56.025Z</time></trkpt><trkpt lat="40.7577763" lon="14.8715376"><ele>367.0</ele><time>2026-04-04T16:41:56.959Z</time></trkpt><trkpt lat="40.7579005" lon="14.8714642"><ele>367.0</ele><time>2026-04-04T16:41:57.968Z</time></trkpt><trkpt lat="40.7580322" lon="14.8713951"><ele>367.8</ele><time>2026-04-04T16:41:59.002Z</time></trkpt><trkpt lat="40.7581483" lon="14.8713635"><ele>368.6</ele><time>2026-04-04T16:42:00.036Z</time></trkpt><trkpt lat="40.7582452" lon="14.8713372"><ele>369.40000000000003</ele><time>2026-04-04T16:42:01.026Z</time></trkpt><trkpt lat="40.7583413" lon="14.87131"><ele>370.20000000000005</ele><time>2026-04-04T16:42:01.961Z</time></trkpt><trkpt lat="40.7584694" lon="14.8712661"><ele>371.0</ele><time>2026-04-04T16:42:02.965Z</time></trkpt><trkpt lat="40.7586137" lon="14.8712211"><ele>375.0</ele><time>2026-04-04T16:42:04.069Z</time></trkpt><trkpt lat="40.7587691" lon="14.8711223"><ele>379.0</ele><time>2026-04-04T16:42:05.029Z</time></trkpt><trkpt lat="40.7589265" lon="14.8710329"><ele>383.0</ele><time>2026-04-04T16:42:06.026Z</time></trkpt><trkpt lat="40.7590681" lon="14.8709538"><ele>381.2</ele><time>2026-04-04T16:42:06.958Z</time></trkpt><trkpt lat="40.7591912" lon="14.8708954"><ele>379.4</ele><time>2026-04-04T16:42:07.971Z</time></trkpt><trkpt lat="40.7592946" lon="14.8708357"><ele>377.59999999999997</ele><time>2026-04-04T16:42:08.972Z</time></trkpt><trkpt lat="40.7593843" lon="14.870787"><ele>375.79999999999995</ele><time>2026-04-04T16:42:10.028Z</time></trkpt><trkpt lat="40.7594839" lon="14.8707758"><ele>374.0</ele><time>2026-04-04T16:42:11.034Z</time></trkpt><trkpt lat="40.7595987" lon="14.8707797"><ele>374.0</ele><time>2026-04-04T16:42:11.964Z</time></trkpt><trkpt lat="40.7597052" lon="14.870772"><ele>374.0</ele><time>2026-04-04T16:42:12.951Z</time></trkpt><trkpt lat="40.7598059" lon="14.8707598"><ele>374.0</ele><time>2026-04-04T16:42:14.073Z</time></trkpt><trkpt lat="40.7598844" lon="14.8707479"><ele>374.0</ele><time>2026-04-04T16:42:15.029Z</time></trkpt><trkpt lat="40.7599577" lon="14.8707108"><ele>374.0</ele><time>2026-04-04T16:42:16.05Z</time></trkpt><trkpt lat="40.7600284" lon="14.8706647"><ele>374.0</ele><time>2026-04-04T16:42:16.966Z</time></trkpt><trkpt lat="40.7600924" lon="14.8706189"><ele>374.0</ele><time>2026-04-04T16:42:17.972Z</time></trkpt><trkpt lat="40.7601657" lon="14.8705699"><ele>374.0</ele><time>2026-04-04T16:42:18.973Z</time></trkpt><trkpt lat="40.7602383" lon="14.8705253"><ele>374.0</ele><time>2026-04-04T16:42:20.04Z</time></trkpt><trkpt lat="40.7603087" lon="14.8705031"><ele>374.0</ele><time>2026-04-04T16:42:21.03Z</time></trkpt><trkpt lat="40.7603959" lon="14.8705189"><ele>374.0</ele><time>2026-04-04T16:42:21.962Z</time></trkpt><trkpt lat="40.7604892" lon="14.8705548"><ele>374.0</ele><time>2026-04-04T16:42:22.963Z</time></trkpt><trkpt lat="40.7605843" lon="14.8705694"><ele>375.33333333333337</ele><time>2026-04-04T16:42:23.964Z</time></trkpt><trkpt lat="40.7606557" lon="14.8705425"><ele>376.6666666666667</ele><time>2026-04-04T16:42:24.965Z</time></trkpt><trkpt lat="40.7607427" lon="14.8704463"><ele>378.0</ele><time>2026-04-04T16:42:26.955Z</time></trkpt><trkpt lat="40.7607918" lon="14.8703516"><ele>379.3333333333333</ele><time>2026-04-04T16:42:28.028Z</time></trkpt><trkpt lat="40.7608713" lon="14.8702607"><ele>380.66666666666663</ele><time>2026-04-04T16:42:30.023Z</time></trkpt><trkpt lat="40.760915" lon="14.8702002"><ele>382.0</ele><time>2026-04-04T16:42:30.949Z</time></trkpt><trkpt lat="40.7609424" lon="14.8700219"><ele>382.16666666666663</ele><time>2026-04-04T16:42:32.968Z</time></trkpt><trkpt lat="40.7609849" lon="14.8699178"><ele>382.3333333333333</ele><time>2026-04-04T16:42:33.969Z</time></trkpt><trkpt lat="40.7610202" lon="14.8698457"><ele>382.5</ele><time>2026-04-04T16:42:34.965Z</time></trkpt><trkpt lat="40.7610922" lon="14.8697471"><ele>382.6666666666667</ele><time>2026-04-04T16:42:36.968Z</time></trkpt><trkpt lat="40.7611868" lon="14.8696568"><ele>382.83333333333337</ele><time>2026-04-04T16:42:38.945Z</time></trkpt><trkpt lat="40.761216" lon="14.8695814"><ele>383.0</ele><time>2026-04-04T16:42:39.945Z</time></trkpt><trkpt lat="40.7612238" lon="14.8694825"><ele>384.79999999999995</ele><time>2026-04-04T16:42:40.953Z</time></trkpt><trkpt lat="40.7612075" lon="14.8693583"><ele>386.6</ele><time>2026-04-04T16:42:41.964Z</time></trkpt><trkpt lat="40.7611925" lon="14.8692359"><ele>388.4</ele><time>2026-04-04T16:42:42.97Z</time></trkpt><trkpt lat="40.7612108" lon="14.8691221"><ele>390.20000000000005</ele><time>2026-04-04T16:42:43.966Z</time></trkpt><trkpt lat="40.7612483" lon="14.8690001"><ele>392.0</ele><time>2026-04-04T16:42:45.043Z</time></trkpt><trkpt lat="40.7612965" lon="14.8688808"><ele>392.0</ele><time>2026-04-04T16:42:45.966Z</time></trkpt><trkpt lat="40.7613542" lon="14.868789"><ele>392.0</ele><time>2026-04-04T16:42:46.968Z</time></trkpt><trkpt lat="40.761392" lon="14.8686705"><ele>392.0</ele><time>2026-04-04T16:42:47.969Z</time></trkpt><trkpt lat="40.7614293" lon="14.8685403"><ele>392.0</ele><time>2026-04-04T16:42:49.036Z</time></trkpt><trkpt lat="40.7614711" lon="14.8684135"><ele>392.0</ele><time>2026-04-04T16:42:50.018Z</time></trkpt><trkpt lat="40.7614966" lon="14.8682762"><ele>392.6</ele><time>2026-04-04T16:42:51.032Z</time></trkpt><trkpt lat="40.7614914" lon="14.8681428"><ele>393.20000000000005</ele><time>2026-04-04T16:42:51.956Z</time></trkpt><trkpt lat="40.7614805" lon="14.8680068"><ele>393.8</ele><time>2026-04-04T16:42:52.962Z</time></trkpt><trkpt lat="40.7614895" lon="14.8678804"><ele>394.4</ele><time>2026-04-04T16:42:53.982Z</time></trkpt><trkpt lat="40.7614993" lon="14.8677623"><ele>395.0</ele><time>2026-04-04T16:42:55.052Z</time></trkpt><trkpt lat="40.7615239" lon="14.8676502"><ele>394.16666666666663</ele><time>2026-04-04T16:42:56.026Z</time></trkpt><trkpt lat="40.7615721" lon="14.8675655"><ele>393.3333333333333</ele><time>2026-04-04T16:42:56.964Z</time></trkpt><trkpt lat="40.7616296" lon="14.8675107"><ele>392.5</ele><time>2026-04-04T16:42:57.966Z</time></trkpt><trkpt lat="40.7617047" lon="14.8675027"><ele>391.66666666666663</ele><time>2026-04-04T16:42:58.968Z</time></trkpt><trkpt lat="40.7617754" lon="14.867482"><ele>390.8333333333333</ele><time>2026-04-04T16:43:00.03Z</time></trkpt><trkpt lat="40.7618617" lon="14.8674682"><ele>390.0</ele><time>2026-04-04T16:43:01.955Z</time></trkpt><trkpt lat="40.761804" lon="14.8674201"><ele>390.0</ele><time>2026-04-04T16:43:07.967Z</time></trkpt><trkpt lat="40.7617965" lon="14.8672987"><ele>390.0</ele><time>2026-04-04T16:43:10.967Z</time></trkpt><trkpt lat="40.7617688" lon="14.8671627"><ele>390.0</ele><time>2026-04-04T16:43:12.955Z</time></trkpt><trkpt lat="40.7617713" lon="14.8670635"><ele>390.0</ele><time>2026-04-04T16:43:13.96Z</time></trkpt><trkpt lat="40.7617689" lon="14.8669357"><ele>390.0</ele><time>2026-04-04T16:43:14.96Z</time></trkpt><trkpt lat="40.7617554" lon="14.8667988"><ele>390.8333333333333</ele><time>2026-04-04T16:43:15.971Z</time></trkpt><trkpt lat="40.7617658" lon="14.8666711"><ele>391.66666666666663</ele><time>2026-04-04T16:43:16.974Z</time></trkpt><trkpt lat="40.7617995" lon="14.8665976"><ele>392.5</ele><time>2026-04-04T16:43:17.972Z</time></trkpt><trkpt lat="40.7618188" lon="14.8664889"><ele>393.3333333333333</ele><time>2026-04-04T16:43:18.982Z</time></trkpt><trkpt lat="40.7618623" lon="14.8663799"><ele>394.16666666666663</ele><time>2026-04-04T16:43:19.951Z</time></trkpt><trkpt lat="40.7619048" lon="14.8663153"><ele>395.0</ele><time>2026-04-04T16:43:20.971Z</time></trkpt><trkpt lat="40.7619516" lon="14.8662393"><ele>397.8333333333333</ele><time>2026-04-04T16:43:21.961Z</time></trkpt><trkpt lat="40.7619906" lon="14.8661733"><ele>400.66666666666663</ele><time>2026-04-04T16:43:22.964Z</time></trkpt><trkpt lat="40.7620776" lon="14.8660374"><ele>403.5</ele><time>2026-04-04T16:43:24.974Z</time></trkpt><trkpt lat="40.7621222" lon="14.8659671"><ele>406.33333333333337</ele><time>2026-04-04T16:43:25.97Z</time></trkpt><trkpt lat="40.7621636" lon="14.8658786"><ele>409.1666666666667</ele><time>2026-04-04T16:43:26.968Z</time></trkpt><trkpt lat="40.7621996" lon="14.8657852"><ele>412.0</ele><time>2026-04-04T16:43:27.977Z</time></trkpt><trkpt lat="40.7622378" lon="14.865698"><ele>413.85714285714283</ele><time>2026-04-04T16:43:29.036Z</time></trkpt><trkpt lat="40.7622952" lon="14.8656161"><ele>415.7142857142857</ele><time>2026-04-04T16:43:30.031Z</time></trkpt><trkpt lat="40.7623389" lon="14.8655344"><ele>417.57142857142856</ele><time>2026-04-04T16:43:31.039Z</time></trkpt><trkpt lat="40.7623639" lon="14.865457"><ele>419.42857142857144</ele><time>2026-04-04T16:43:31.966Z</time></trkpt><trkpt lat="40.7623836" lon="14.8653759"><ele>421.2857142857143</ele><time>2026-04-04T16:43:32.967Z</time></trkpt><trkpt lat="40.7623974" lon="14.8652893"><ele>423.1428571428571</ele><time>2026-04-04T16:43:33.969Z</time></trkpt><trkpt lat="40.7624138" lon="14.865195"><ele>425.0</ele><time>2026-04-04T16:43:34.97Z</time></trkpt><trkpt lat="40.7624392" lon="14.8650982"><ele>425.25</ele><time>2026-04-04T16:43:36.058Z</time></trkpt><trkpt lat="40.7624975" lon="14.8648738"><ele>425.5</ele><time>2026-04-04T16:43:37.973Z</time></trkpt><trkpt lat="40.762539" lon="14.8647335"><ele>425.75</ele><time>2026-04-04T16:43:38.97Z</time></trkpt><trkpt lat="40.7626051" lon="14.864589"><ele>426.0</ele><time>2026-04-04T16:43:39.967Z</time></trkpt><trkpt lat="40.7626848" lon="14.8644555"><ele>430.0</ele><time>2026-04-04T16:43:40.968Z</time></trkpt><trkpt lat="40.7627591" lon="14.8643057"><ele>434.0</ele><time>2026-04-04T16:43:41.97Z</time></trkpt><trkpt lat="40.7628244" lon="14.8641342"><ele>438.0</ele><time>2026-04-04T16:43:42.969Z</time></trkpt><trkpt lat="40.7628897" lon="14.8639407"><ele>442.0</ele><time>2026-04-04T16:43:43.998Z</time></trkpt><trkpt lat="40.762947" lon="14.8637607"><ele>442.0</ele><time>2026-04-04T16:43:44.959Z</time></trkpt><trkpt lat="40.7629917" lon="14.8635673"><ele>442.0</ele><time>2026-04-04T16:43:46.045Z</time></trkpt><trkpt lat="40.7630326" lon="14.8634126"><ele>442.0</ele><time>2026-04-04T16:43:46.95Z</time></trkpt><trkpt lat="40.763073" lon="14.8632778"><ele>442.0</ele><time>2026-04-04T16:43:47.966Z</time></trkpt><trkpt lat="40.7631085" lon="14.8631469"><ele>441.50000000000006</ele><time>2026-04-04T16:43:48.976Z</time></trkpt><trkpt lat="40.7631389" lon="14.863006"><ele>441.0</ele><time>2026-04-04T16:43:50.016Z</time></trkpt><trkpt lat="40.7631692" lon="14.862914"><ele>440.5</ele><time>2026-04-04T16:43:51.022Z</time></trkpt><trkpt lat="40.763213" lon="14.862849"><ele>440.0</ele><time>2026-04-04T16:43:51.96Z</time></trkpt><trkpt lat="40.7632669" lon="14.8627567"><ele>439.50000000000006</ele><time>2026-04-04T16:43:52.961Z</time></trkpt><trkpt lat="40.7633215" lon="14.8626594"><ele>439.0</ele><time>2026-04-04T16:43:54.042Z</time></trkpt><trkpt lat="40.7633685" lon="14.8625976"><ele>439.0</ele><time>2026-04-04T16:43:55.031Z</time></trkpt><trkpt lat="40.7634413" lon="14.8624744"><ele>439.0</ele><time>2026-04-04T16:43:56.961Z</time></trkpt><trkpt lat="40.7634948" lon="14.8623789"><ele>439.0</ele><time>2026-04-04T16:43:58.965Z</time></trkpt><trkpt lat="40.7634093" lon="14.8624295"><ele>439.0</ele><time>2026-04-04T16:44:04.962Z</time></trkpt><trkpt lat="40.7633661" lon="14.8625141"><ele>439.0</ele><time>2026-04-04T16:44:06.974Z</time></trkpt><trkpt lat="40.7633165" lon="14.8625882"><ele>439.00000000000006</ele><time>2026-04-04T16:44:08.991Z</time></trkpt><trkpt lat="40.7632712" lon="14.8626571"><ele>439.0</ele><time>2026-04-04T16:44:10.969Z</time></trkpt><trkpt lat="40.7632472" lon="14.8627475"><ele>439.0</ele><time>2026-04-04T16:44:12.967Z</time></trkpt><trkpt lat="40.7632359" lon="14.8628619"><ele>439.0</ele><time>2026-04-04T16:44:14.968Z</time></trkpt><trkpt lat="40.7632247" lon="14.8629843"><ele>439.00000000000006</ele><time>2026-04-04T16:44:16.961Z</time></trkpt><trkpt lat="40.7632113" lon="14.8631255"><ele>439.0</ele><time>2026-04-04T16:44:18.972Z</time></trkpt><trkpt lat="40.7632016" lon="14.8632596"><ele>439.00000000000006</ele><time>2026-04-04T16:44:21.035Z</time></trkpt><trkpt lat="40.7631934" lon="14.8633542"><ele>439.0</ele><time>2026-04-04T16:44:21.959Z</time></trkpt><trkpt lat="40.7631802" lon="14.8634876"><ele>439.0</ele><time>2026-04-04T16:44:23.955Z</time></trkpt><trkpt lat="40.7631967" lon="14.8635737"><ele>439.0</ele><time>2026-04-04T16:44:24.976Z</time></trkpt><trkpt lat="40.7632361" lon="14.8636789"><ele>439.00000000000006</ele><time>2026-04-04T16:44:25.977Z</time></trkpt><trkpt lat="40.7632788" lon="14.8637573"><ele>439.0</ele><time>2026-04-04T16:44:26.967Z</time></trkpt><trkpt lat="40.7633465" lon="14.8638623"><ele>439.50000000000006</ele><time>2026-04-04T16:44:28.971Z</time></trkpt><trkpt lat="40.7634151" lon="14.8639511"><ele>440.0</ele><time>2026-04-04T16:44:31.04Z</time></trkpt><trkpt lat="40.7635028" lon="14.8640156"><ele>440.5</ele><time>2026-04-04T16:44:32.976Z</time></trkpt><trkpt lat="40.7635784" lon="14.864039"><ele>441.0</ele><time>2026-04-04T16:44:34.982Z</time></trkpt><trkpt lat="40.7636126" lon="14.8639463"><ele>441.50000000000006</ele><time>2026-04-04T16:44:40.068Z</time></trkpt><trkpt lat="40.7636576" lon="14.8638801"><ele>442.0</ele><time>2026-04-04T16:44:43.969Z</time></trkpt><trkpt lat="40.7637377" lon="14.8639094"><ele>449.1666666666667</ele><time>2026-04-04T16:44:46.98Z</time></trkpt><trkpt lat="40.7638123" lon="14.8639859"><ele>456.33333333333337</ele><time>2026-04-04T16:44:49.027Z</time></trkpt><trkpt lat="40.7638778" lon="14.8639945"><ele>463.5</ele><time>2026-04-04T16:44:50.965Z</time></trkpt><trkpt lat="40.7639195" lon="14.8639011"><ele>470.66666666666663</ele><time>2026-04-04T16:44:53.973Z</time></trkpt><trkpt lat="40.7638836" lon="14.863814"><ele>477.8333333333333</ele><time>2026-04-04T16:44:55.975Z</time></trkpt><trkpt lat="40.7638727" lon="14.8637279"><ele>485.0</ele><time>2026-04-04T16:44:57.967Z</time></trkpt><trkpt lat="40.7638995" lon="14.8636413"><ele>484.99999999999994</ele><time>2026-04-04T16:44:59.963Z</time></trkpt><trkpt lat="40.7638973" lon="14.863543"><ele>485.0</ele><time>2026-04-04T16:45:01.962Z</time></trkpt><trkpt lat="40.7639068" lon="14.8634169"><ele>485.0</ele><time>2026-04-04T16:45:03.945Z</time></trkpt><trkpt lat="40.7639296" lon="14.8633028"><ele>485.0</ele><time>2026-04-04T16:45:05.962Z</time></trkpt><trkpt lat="40.7639977" lon="14.8632571"><ele>484.99999999999994</ele><time>2026-04-04T16:45:08.957Z</time></trkpt><trkpt lat="40.7640083" lon="14.8633753"><ele>485.0</ele><time>2026-04-04T16:45:14.956Z</time></trkpt><trkpt lat="40.7640888" lon="14.8635019"><ele>485.0</ele><time>2026-04-04T16:45:16.951Z</time></trkpt><trkpt lat="40.7641587" lon="14.8635827"><ele>485.0</ele><time>2026-04-04T16:45:17.965Z</time></trkpt><trkpt lat="40.7642294" lon="14.863671"><ele>485.0</ele><time>2026-04-04T16:45:18.959Z</time></trkpt><trkpt lat="40.7642854" lon="14.8637707"><ele>485.0</ele><time>2026-04-04T16:45:19.961Z</time></trkpt><trkpt lat="40.7643502" lon="14.8638699"><ele>485.0</ele><time>2026-04-04T16:45:21.021Z</time></trkpt><trkpt lat="40.7643911" lon="14.8639719"><ele>484.8</ele><time>2026-04-04T16:45:21.963Z</time></trkpt><trkpt lat="40.7644121" lon="14.8640823"><ele>484.6</ele><time>2026-04-04T16:45:22.969Z</time></trkpt><trkpt lat="40.7644172" lon="14.864219"><ele>484.4</ele><time>2026-04-04T16:45:24.042Z</time></trkpt><trkpt lat="40.7643876" lon="14.8643588"><ele>484.2</ele><time>2026-04-04T16:45:24.962Z</time></trkpt><trkpt lat="40.764351" lon="14.8644837"><ele>484.0</ele><time>2026-04-04T16:45:25.98Z</time></trkpt><trkpt lat="40.7643218" lon="14.8645691"><ele>484.00000000000006</ele><time>2026-04-04T16:45:26.964Z</time></trkpt><trkpt lat="40.7643016" lon="14.8646771"><ele>484.0</ele><time>2026-04-04T16:45:28.966Z</time></trkpt><trkpt lat="40.7643676" lon="14.8647123"><ele>484.0</ele><time>2026-04-04T16:45:30.97Z</time></trkpt><trkpt lat="40.7644543" lon="14.8646597"><ele>484.0</ele><time>2026-04-04T16:45:32.971Z</time></trkpt><trkpt lat="40.7645426" lon="14.8645785"><ele>484.00000000000006</ele><time>2026-04-04T16:45:34.973Z</time></trkpt><trkpt lat="40.7646045" lon="14.8645389"><ele>484.0</ele><time>2026-04-04T16:45:36.976Z</time></trkpt><trkpt lat="40.7647004" lon="14.8645489"><ele>487.6</ele><time>2026-04-04T16:45:40.035Z</time></trkpt><trkpt lat="40.7647913" lon="14.8645566"><ele>491.2</ele><time>2026-04-04T16:45:41.966Z</time></trkpt><trkpt lat="40.7649049" lon="14.864579"><ele>494.80000000000007</ele><time>2026-04-04T16:45:43.982Z</time></trkpt><trkpt lat="40.7649745" lon="14.8646245"><ele>498.40000000000003</ele><time>2026-04-04T16:45:45.97Z</time></trkpt><trkpt lat="40.7649809" lon="14.8647296"><ele>502.0</ele><time>2026-04-04T16:45:47.974Z</time></trkpt><trkpt lat="40.7649922" lon="14.8648423"><ele>502.00000000000006</ele><time>2026-04-04T16:45:49.993Z</time></trkpt><trkpt lat="40.7650079" lon="14.8649231"><ele>502.0</ele><time>2026-04-04T16:45:51.978Z</time></trkpt><trkpt lat="40.7650386" lon="14.8650003"><ele>502.0</ele><time>2026-04-04T16:45:53.974Z</time></trkpt><trkpt lat="40.7650795" lon="14.8650723"><ele>502.0</ele><time>2026-04-04T16:45:56.054Z</time></trkpt><trkpt lat="40.7651626" lon="14.8651371"><ele>502.00000000000006</ele><time>2026-04-04T16:45:58.035Z</time></trkpt><trkpt lat="40.7652423" lon="14.8651785"><ele>502.0</ele><time>2026-04-04T16:45:58.983Z</time></trkpt><trkpt lat="40.7653212" lon="14.8652078"><ele>502.00000000000006</ele><time>2026-04-04T16:45:59.991Z</time></trkpt><trkpt lat="40.7653914" lon="14.865235"><ele>502.0</ele><time>2026-04-04T16:46:00.976Z</time></trkpt><trkpt lat="40.765487" lon="14.8652565"><ele>502.0</ele><time>2026-04-04T16:46:02.985Z</time></trkpt><trkpt lat="40.7655506" lon="14.8653026"><ele>502.0</ele><time>2026-04-04T16:46:04.984Z</time></trkpt><trkpt lat="40.765608" lon="14.8654066"><ele>502.00000000000006</ele><time>2026-04-04T16:46:07.981Z</time></trkpt><trkpt lat="40.7655705" lon="14.8655118"><ele>502.0</ele><time>2026-04-04T16:46:10.986Z</time></trkpt><trkpt lat="40.7655502" lon="14.8656028"><ele>502.0</ele><time>2026-04-04T16:46:12.997Z</time></trkpt><trkpt lat="40.7655515" lon="14.8657144"><ele>502.00000000000006</ele><time>2026-04-04T16:46:14.978Z</time></trkpt><trkpt lat="40.7655991" lon="14.8658405"><ele>502.00000000000006</ele><time>2026-04-04T16:46:16.971Z</time></trkpt><trkpt lat="40.7656742" lon="14.8659561"><ele>502.0</ele><time>2026-04-04T16:46:18.964Z</time></trkpt><trkpt lat="40.7657547" lon="14.8660054"><ele>502.0</ele><time>2026-04-04T16:46:19.959Z</time></trkpt><trkpt lat="40.7658213" lon="14.866043"><ele>502.6</ele><time>2026-04-04T16:46:20.966Z</time></trkpt><trkpt lat="40.7659337" lon="14.8661104"><ele>503.20000000000005</ele><time>2026-04-04T16:46:22.966Z</time></trkpt><trkpt lat="40.7659983" lon="14.8661341"><ele>503.8</ele><time>2026-04-04T16:46:24.044Z</time></trkpt><trkpt lat="40.7660939" lon="14.8661341"><ele>504.4</ele><time>2026-04-04T16:46:24.972Z</time></trkpt><trkpt lat="40.7661826" lon="14.8661156"><ele>505.0</ele><time>2026-04-04T16:46:26.037Z</time></trkpt><trkpt lat="40.7662552" lon="14.8660866"><ele>505.0</ele><time>2026-04-04T16:46:26.969Z</time></trkpt><trkpt lat="40.7663486" lon="14.8660888"><ele>505.0</ele><time>2026-04-04T16:46:29.978Z</time></trkpt><trkpt lat="40.7664134" lon="14.8661549"><ele>505.0</ele><time>2026-04-04T16:46:31.987Z</time></trkpt><trkpt lat="40.766504" lon="14.8662171"><ele>505.0</ele><time>2026-04-04T16:46:33.951Z</time></trkpt><trkpt lat="40.7666111" lon="14.8662239"><ele>505.0</ele><time>2026-04-04T16:46:36.066Z</time></trkpt><trkpt lat="40.7666872" lon="14.8662219"><ele>505.0</ele><time>2026-04-04T16:46:38.966Z</time></trkpt><trkpt lat="40.7667394" lon="14.8662697"><ele>505.0</ele><time>2026-04-04T16:46:40.979Z</time></trkpt><trkpt lat="40.7668576" lon="14.8662964"><ele>505.0</ele><time>2026-04-04T16:46:43.094Z</time></trkpt><trkpt lat="40.7669471" lon="14.8663267"><ele>505.0</ele><time>2026-04-04T16:46:45.046Z</time></trkpt><trkpt lat="40.766934" lon="14.8664505"><ele>505.0</ele><time>2026-04-04T16:46:49.974Z</time></trkpt><trkpt lat="40.7668939" lon="14.8665627"><ele>505.0</ele><time>2026-04-04T16:46:51.969Z</time></trkpt><trkpt lat="40.7668579" lon="14.8666554"><ele>505.0</ele><time>2026-04-04T16:46:52.977Z</time></trkpt><trkpt lat="40.7668025" lon="14.8667302"><ele>505.0</ele><time>2026-04-04T16:46:54.067Z</time></trkpt><trkpt lat="40.766734" lon="14.8668131"><ele>505.0</ele><time>2026-04-04T16:46:54.97Z</time></trkpt><trkpt lat="40.7666748" lon="14.8669331"><ele>505.0</ele><time>2026-04-04T16:46:55.967Z</time></trkpt><trkpt lat="40.7666068" lon="14.8670516"><ele>505.25</ele><time>2026-04-04T16:46:56.983Z</time></trkpt><trkpt lat="40.7665597" lon="14.8671667"><ele>505.5</ele><time>2026-04-04T16:46:57.973Z</time></trkpt><trkpt lat="40.7665572" lon="14.8673086"><ele>505.75</ele><time>2026-04-04T16:46:59.981Z</time></trkpt><trkpt lat="40.7666524" lon="14.8674753"><ele>506.0</ele><time>2026-04-04T16:47:01.966Z</time></trkpt><trkpt lat="40.7667156" lon="14.8675627"><ele>503.99999999999994</ele><time>2026-04-04T16:47:02.977Z</time></trkpt><trkpt lat="40.7667617" lon="14.8676475"><ele>502.0</ele><time>2026-04-04T16:47:03.992Z</time></trkpt><trkpt lat="40.7667985" lon="14.8677163"><ele>500.0</ele><time>2026-04-04T16:47:04.975Z</time></trkpt><trkpt lat="40.766855" lon="14.8677988"><ele>498.0</ele><time>2026-04-04T16:47:06.973Z</time></trkpt><trkpt lat="40.7668502" lon="14.8678856"><ele>495.99999999999994</ele><time>2026-04-04T16:47:09.974Z</time></trkpt><trkpt lat="40.7667535" lon="14.8678566"><ele>494.0</ele><time>2026-04-04T16:47:11.98Z</time></trkpt><trkpt lat="40.7666338" lon="14.8678255"><ele>494.0</ele><time>2026-04-04T16:47:14.085Z</time></trkpt><trkpt lat="40.7664953" lon="14.8678103"><ele>494.0</ele><time>2026-04-04T16:47:16.062Z</time></trkpt><trkpt lat="40.7663497" lon="14.8678074"><ele>494.0</ele><time>2026-04-04T16:47:17.954Z</time></trkpt><trkpt lat="40.7662799" lon="14.8677919"><ele>494.0</ele><time>2026-04-04T16:47:18.952Z</time></trkpt><trkpt lat="40.7661715" lon="14.8677564"><ele>493.99999999999994</ele><time>2026-04-04T16:47:20.971Z</time></trkpt><trkpt lat="40.7661452" lon="14.8678351"><ele>494.0</ele><time>2026-04-04T16:47:25.049Z</time></trkpt><trkpt lat="40.7661849" lon="14.867925"><ele>494.0</ele><time>2026-04-04T16:47:26.976Z</time></trkpt><trkpt lat="40.7661785" lon="14.868054"><ele>494.0</ele><time>2026-04-04T16:47:28.981Z</time></trkpt><trkpt lat="40.7662003" lon="14.8682094"><ele>493.99999999999994</ele><time>2026-04-04T16:47:30.979Z</time></trkpt><trkpt lat="40.7662433" lon="14.8682896"><ele>494.0</ele><time>2026-04-04T16:47:31.961Z</time></trkpt><trkpt lat="40.7662914" lon="14.8683896"><ele>490.16666666666663</ele><time>2026-04-04T16:47:32.976Z</time></trkpt><trkpt lat="40.7663488" lon="14.8684882"><ele>486.3333333333333</ele><time>2026-04-04T16:47:33.964Z</time></trkpt><trkpt lat="40.7664062" lon="14.8685764"><ele>482.5</ele><time>2026-04-04T16:47:34.968Z</time></trkpt><trkpt lat="40.7664594" lon="14.8686571"><ele>478.66666666666663</ele><time>2026-04-04T16:47:35.969Z</time></trkpt><trkpt lat="40.7665176" lon="14.8687379"><ele>474.8333333333333</ele><time>2026-04-04T16:47:36.965Z</time></trkpt><trkpt lat="40.7665856" lon="14.8688251"><ele>471.0</ele><time>2026-04-04T16:47:37.973Z</time></trkpt><trkpt lat="40.7666576" lon="14.8689126"><ele>471.0</ele><time>2026-04-04T16:47:38.97Z</time></trkpt><trkpt lat="40.7667157" lon="14.8689665"><ele>471.0</ele><time>2026-04-04T16:47:39.977Z</time></trkpt><trkpt lat="40.7667627" lon="14.8690765"><ele>471.0</ele><time>2026-04-04T16:47:41.978Z</time></trkpt><trkpt lat="40.766752" lon="14.8691758"><ele>471.0</ele><time>2026-04-04T16:47:45.038Z</time></trkpt><trkpt lat="40.7667866" lon="14.8692543"><ele>471.0</ele><time>2026-04-04T16:47:47.986Z</time></trkpt><trkpt lat="40.7668621" lon="14.869268"><ele>471.0</ele><time>2026-04-04T16:47:49.97Z</time></trkpt><trkpt lat="40.7668608" lon="14.8693614"><ele>473.1666666666667</ele><time>2026-04-04T16:47:57.977Z</time></trkpt><trkpt lat="40.7668453" lon="14.869445"><ele>475.33333333333337</ele><time>2026-04-04T16:48:00.979Z</time></trkpt><trkpt lat="40.7667685" lon="14.8694536"><ele>477.5</ele><time>2026-04-04T16:48:07.973Z</time></trkpt><trkpt lat="40.7667006" lon="14.8694531"><ele>479.6666666666667</ele><time>2026-04-04T16:48:10.982Z</time></trkpt><trkpt lat="40.7666213" lon="14.8694293"><ele>481.83333333333337</ele><time>2026-04-04T16:48:13.983Z</time></trkpt><trkpt lat="40.7665472" lon="14.8694217"><ele>484.0</ele><time>2026-04-04T16:48:16.969Z</time></trkpt><trkpt lat="40.7664574" lon="14.8693905"><ele>484.0</ele><time>2026-04-04T16:48:19.975Z</time></trkpt><trkpt lat="40.7663623" lon="14.8693883"><ele>484.0</ele><time>2026-04-04T16:48:22.975Z</time></trkpt><trkpt lat="40.7663827" lon="14.8695184"><ele>484.0</ele><time>2026-04-04T16:48:26.978Z</time></trkpt><trkpt lat="40.7664356" lon="14.8695869"><ele>484.0</ele><time>2026-04-04T16:48:27.983Z</time></trkpt><trkpt lat="40.7665118" lon="14.8696606"><ele>484.0</ele><time>2026-04-04T16:48:29.02Z</time></trkpt><trkpt lat="40.7666074" lon="14.8697551"><ele>484.00000000000006</ele><time>2026-04-04T16:48:29.969Z</time></trkpt><trkpt lat="40.7666981" lon="14.8698577"><ele>484.0</ele><time>2026-04-04T16:48:30.98Z</time></trkpt><trkpt lat="40.7667689" lon="14.8699317"><ele>484.0</ele><time>2026-04-04T16:48:31.979Z</time></trkpt><trkpt lat="40.7668174" lon="14.8700073"><ele>484.0</ele><time>2026-04-04T16:48:32.963Z</time></trkpt><trkpt lat="40.7668522" lon="14.8700832"><ele>484.00000000000006</ele><time>2026-04-04T16:48:33.977Z</time></trkpt><trkpt lat="40.7668816" lon="14.870182"><ele>484.0</ele><time>2026-04-04T16:48:35.972Z</time></trkpt><trkpt lat="40.7669285" lon="14.8702551"><ele>484.00000000000006</ele><time>2026-04-04T16:48:38.978Z</time></trkpt><trkpt lat="40.7668441" lon="14.8701848"><ele>484.0</ele><time>2026-04-04T16:48:46.967Z</time></trkpt><trkpt lat="40.766772" lon="14.8701387"><ele>484.0</ele><time>2026-04-04T16:48:47.98Z</time></trkpt><trkpt lat="40.766682" lon="14.8700809"><ele>484.0</ele><time>2026-04-04T16:48:49.041Z</time></trkpt><trkpt lat="40.7666015" lon="14.8700374"><ele>484.00000000000006</ele><time>2026-04-04T16:48:50.048Z</time></trkpt><trkpt lat="40.7665268" lon="14.8700115"><ele>484.0</ele><time>2026-04-04T16:48:51.03Z</time></trkpt><trkpt lat="40.7664522" lon="14.8699974"><ele>484.0</ele><time>2026-04-04T16:48:51.965Z</time></trkpt><trkpt lat="40.7663688" lon="14.8699939"><ele>484.0</ele><time>2026-04-04T16:48:52.968Z</time></trkpt><trkpt lat="40.7663005" lon="14.8699963"><ele>484.0</ele><time>2026-04-04T16:48:53.97Z</time></trkpt><trkpt lat="40.7662095" lon="14.8699508"><ele>484.0</ele><time>2026-04-04T16:48:55.966Z</time></trkpt><trkpt lat="40.7660596" lon="14.869896"><ele>484.0</ele><time>2026-04-04T16:48:57.964Z</time></trkpt><trkpt lat="40.7659695" lon="14.8698513"><ele>487.6</ele><time>2026-04-04T16:48:58.973Z</time></trkpt><trkpt lat="40.7658794" lon="14.8698199"><ele>491.2</ele><time>2026-04-04T16:48:59.959Z</time></trkpt><trkpt lat="40.765775" lon="14.869796"><ele>494.80000000000007</ele><time>2026-04-04T16:49:00.966Z</time></trkpt><trkpt lat="40.7656646" lon="14.8697876"><ele>498.40000000000003</ele><time>2026-04-04T16:49:01.963Z</time></trkpt><trkpt lat="40.7655473" lon="14.8697942"><ele>502.0</ele><time>2026-04-04T16:49:02.976Z</time></trkpt><trkpt lat="40.7654196" lon="14.8697917"><ele>502.0</ele><time>2026-04-04T16:49:03.968Z</time></trkpt><trkpt lat="40.7652835" lon="14.8697945"><ele>502.0</ele><time>2026-04-04T16:49:04.954Z</time></trkpt><trkpt lat="40.7651652" lon="14.8698012"><ele>502.0</ele><time>2026-04-04T16:49:06.029Z</time></trkpt><trkpt lat="40.7650461" lon="14.869809"><ele>502.0</ele><time>2026-04-04T16:49:06.965Z</time></trkpt><trkpt lat="40.7649324" lon="14.8698136"><ele>504.33333333333337</ele><time>2026-04-04T16:49:08.036Z</time></trkpt><trkpt lat="40.7648298" lon="14.8698138"><ele>506.6666666666667</ele><time>2026-04-04T16:49:09.017Z</time></trkpt><trkpt lat="40.7647376" lon="14.8698133"><ele>509.0</ele><time>2026-04-04T16:49:10.043Z</time></trkpt><trkpt lat="40.7646348" lon="14.8698165"><ele>511.33333333333337</ele><time>2026-04-04T16:49:10.956Z</time></trkpt><trkpt lat="40.7645694" lon="14.8698246"><ele>513.6666666666666</ele><time>2026-04-04T16:49:11.969Z</time></trkpt><trkpt lat="40.7644956" lon="14.869858"><ele>516.0</ele><time>2026-04-04T16:49:12.978Z</time></trkpt><trkpt lat="40.7643934" lon="14.8699271"><ele>516.6666666666666</ele><time>2026-04-04T16:49:13.98Z</time></trkpt><trkpt lat="40.7643069" lon="14.8700039"><ele>517.3333333333334</ele><time>2026-04-04T16:49:15.041Z</time></trkpt><trkpt lat="40.7642308" lon="14.8700869"><ele>518.0</ele><time>2026-04-04T16:49:16.018Z</time></trkpt><trkpt lat="40.7641628" lon="14.8701594"><ele>518.6666666666667</ele><time>2026-04-04T16:49:16.969Z</time></trkpt><trkpt lat="40.7640997" lon="14.8702182"><ele>519.3333333333334</ele><time>2026-04-04T16:49:17.973Z</time></trkpt><trkpt lat="40.7640337" lon="14.8702742"><ele>520.0</ele><time>2026-04-04T16:49:18.971Z</time></trkpt><trkpt lat="40.7639627" lon="14.8703182"><ele>520.0</ele><time>2026-04-04T16:49:19.973Z</time></trkpt><trkpt lat="40.7638884" lon="14.8703674"><ele>520.0</ele><time>2026-04-04T16:49:20.965Z</time></trkpt><trkpt lat="40.763795" lon="14.8704254"><ele>520.0</ele><time>2026-04-04T16:49:21.971Z</time></trkpt><trkpt lat="40.7637029" lon="14.8704836"><ele>520.0</ele><time>2026-04-04T16:49:22.968Z</time></trkpt><trkpt lat="40.7636198" lon="14.8705533"><ele>520.0</ele><time>2026-04-04T16:49:23.974Z</time></trkpt><trkpt lat="40.7635387" lon="14.870631"><ele>515.4</ele><time>2026-04-04T16:49:24.98Z</time></trkpt><trkpt lat="40.763488" lon="14.8707278"><ele>510.8</ele><time>2026-04-04T16:49:26.974Z</time></trkpt><trkpt lat="40.7635015" lon="14.870831"><ele>506.20000000000005</ele><time>2026-04-04T16:49:28.981Z</time></trkpt><trkpt lat="40.7636092" lon="14.8709504"><ele>501.6</ele><time>2026-04-04T16:49:30.984Z</time></trkpt><trkpt lat="40.7636874" lon="14.8710083"><ele>497.0</ele><time>2026-04-04T16:49:31.97Z</time></trkpt><trkpt lat="40.7637446" lon="14.87106"><ele>497.0</ele><time>2026-04-04T16:49:32.982Z</time></trkpt><trkpt lat="40.7638103" lon="14.8711527"><ele>497.00000000000006</ele><time>2026-04-04T16:49:34.976Z</time></trkpt><trkpt lat="40.7638679" lon="14.8712617"><ele>497.00000000000006</ele><time>2026-04-04T16:49:36.983Z</time></trkpt><trkpt lat="40.7639601" lon="14.8713734"><ele>497.0</ele><time>2026-04-04T16:49:38.966Z</time></trkpt><trkpt lat="40.7640148" lon="14.8714268"><ele>497.0</ele><time>2026-04-04T16:49:39.962Z</time></trkpt><trkpt lat="40.7640628" lon="14.8714939"><ele>496.99999999999994</ele><time>2026-04-04T16:49:41.981Z</time></trkpt><trkpt lat="40.7640891" lon="14.8716085"><ele>497.0</ele><time>2026-04-04T16:49:45.036Z</time></trkpt><trkpt lat="40.7641477" lon="14.8717168"><ele>497.0</ele><time>2026-04-04T16:49:46.968Z</time></trkpt><trkpt lat="40.7642057" lon="14.8717785"><ele>497.0</ele><time>2026-04-04T16:49:47.976Z</time></trkpt><trkpt lat="40.7642587" lon="14.8718287"><ele>496.99999999999994</ele><time>2026-04-04T16:49:48.977Z</time></trkpt><trkpt lat="40.7643197" lon="14.8719148"><ele>497.0</ele><time>2026-04-04T16:49:50.985Z</time></trkpt><trkpt lat="40.7643862" lon="14.8720295"><ele>493.0</ele><time>2026-04-04T16:49:52.975Z</time></trkpt><trkpt lat="40.7644315" lon="14.8722239"><ele>489.00000000000006</ele><time>2026-04-04T16:49:55.972Z</time></trkpt><trkpt lat="40.7643865" lon="14.872321"><ele>485.00000000000006</ele><time>2026-04-04T16:49:57.974Z</time></trkpt><trkpt lat="40.7643411" lon="14.8723997"><ele>481.0</ele><time>2026-04-04T16:50:00.032Z</time></trkpt><trkpt lat="40.7642892" lon="14.8724739"><ele>477.0</ele><time>2026-04-04T16:50:02.967Z</time></trkpt><trkpt lat="40.7642152" lon="14.872522"><ele>477.0</ele><time>2026-04-04T16:50:05.043Z</time></trkpt><trkpt lat="40.7641224" lon="14.8725871"><ele>477.00000000000006</ele><time>2026-04-04T16:50:06.974Z</time></trkpt><trkpt lat="40.7640119" lon="14.8726641"><ele>477.00000000000006</ele><time>2026-04-04T16:50:08.964Z</time></trkpt><trkpt lat="40.7639256" lon="14.8727311"><ele>477.0</ele><time>2026-04-04T16:50:10.972Z</time></trkpt><trkpt lat="40.7638621" lon="14.8728307"><ele>477.0</ele><time>2026-04-04T16:50:12.964Z</time></trkpt><trkpt lat="40.7638106" lon="14.8729704"><ele>479.6666666666667</ele><time>2026-04-04T16:50:14.954Z</time></trkpt><trkpt lat="40.7637933" lon="14.8731157"><ele>482.33333333333337</ele><time>2026-04-04T16:50:16.971Z</time></trkpt><trkpt lat="40.7637937" lon="14.8732025"><ele>485.0</ele><time>2026-04-04T16:50:17.978Z</time></trkpt><trkpt lat="40.7637863" lon="14.8732861"><ele>487.6666666666667</ele><time>2026-04-04T16:50:18.976Z</time></trkpt><trkpt lat="40.7637539" lon="14.8734125"><ele>490.33333333333337</ele><time>2026-04-04T16:50:20.962Z</time></trkpt><trkpt lat="40.7637167" lon="14.8735086"><ele>493.0</ele><time>2026-04-04T16:50:22.962Z</time></trkpt><trkpt lat="40.7636424" lon="14.8735121"><ele>493.00000000000006</ele><time>2026-04-04T16:50:26.969Z</time></trkpt><trkpt lat="40.7636024" lon="14.873406"><ele>493.0</ele><time>2026-04-04T16:50:29.967Z</time></trkpt><trkpt lat="40.7635747" lon="14.8732942"><ele>493.0</ele><time>2026-04-04T16:50:33.066Z</time></trkpt><trkpt lat="40.7635361" lon="14.873225"><ele>493.0</ele><time>2026-04-04T16:50:35.033Z</time></trkpt><trkpt lat="40.7634859" lon="14.8731148"><ele>493.00000000000006</ele><time>2026-04-04T16:50:36.97Z</time></trkpt><trkpt lat="40.7634634" lon="14.8730182"><ele>493.0</ele><time>2026-04-04T16:50:38.967Z</time></trkpt><trkpt lat="40.7635335" lon="14.8729376"><ele>493.00000000000006</ele><time>2026-04-04T16:50:41.971Z</time></trkpt><trkpt lat="40.7636147" lon="14.8728665"><ele>493.0</ele><time>2026-04-04T16:50:43.963Z</time></trkpt><trkpt lat="40.7636648" lon="14.8728129"><ele>493.0</ele><time>2026-04-04T16:50:46.039Z</time></trkpt><trkpt lat="40.7636869" lon="14.8727259"><ele>493.0</ele><time>2026-04-04T16:50:47.977Z</time></trkpt><trkpt lat="40.763726" lon="14.8726273"><ele>493.00000000000006</ele><time>2026-04-04T16:50:50.971Z</time></trkpt><trkpt lat="40.7636682" lon="14.87259"><ele>493.0</ele><time>2026-04-04T16:50:55.974Z</time></trkpt><trkpt lat="40.7635931" lon="14.87258"><ele>484.33333333333337</ele><time>2026-04-04T16:50:57.967Z</time></trkpt><trkpt lat="40.7635231" lon="14.872535"><ele>475.6666666666667</ele><time>2026-04-04T16:51:00.956Z</time></trkpt><trkpt lat="40.7635242" lon="14.8724421"><ele>467.0</ele><time>2026-04-04T16:51:04.96Z</time></trkpt><trkpt lat="40.7634979" lon="14.8723428"><ele>458.33333333333337</ele><time>2026-04-04T16:51:09.974Z</time></trkpt><trkpt lat="40.7634419" lon="14.8722711"><ele>449.6666666666667</ele><time>2026-04-04T16:51:11.96Z</time></trkpt><trkpt lat="40.7633482" lon="14.8722151"><ele>441.0</ele><time>2026-04-04T16:51:13.965Z</time></trkpt><trkpt lat="40.7632339" lon="14.872124"><ele>441.0</ele><time>2026-04-04T16:51:15.948Z</time></trkpt><trkpt lat="40.7631724" lon="14.8720737"><ele>441.0</ele><time>2026-04-04T16:51:17.97Z</time></trkpt><trkpt lat="40.7630756" lon="14.8720391"><ele>441.0</ele><time>2026-04-04T16:51:19.968Z</time></trkpt><trkpt lat="40.7630053" lon="14.8720056"><ele>441.0</ele><time>2026-04-04T16:51:20.968Z</time></trkpt><trkpt lat="40.7629386" lon="14.8719586"><ele>441.0</ele><time>2026-04-04T16:51:21.953Z</time></trkpt><trkpt lat="40.7628681" lon="14.8719069"><ele>441.0</ele><time>2026-04-04T16:51:22.953Z</time></trkpt><trkpt lat="40.7628029" lon="14.8718488"><ele>441.0</ele><time>2026-04-04T16:51:23.973Z</time></trkpt><trkpt lat="40.7627392" lon="14.8718092"><ele>441.0</ele><time>2026-04-04T16:51:24.961Z</time></trkpt><trkpt lat="40.7626689" lon="14.8717964"><ele>441.0</ele><time>2026-04-04T16:51:25.975Z</time></trkpt><trkpt lat="40.7625889" lon="14.8718082"><ele>441.0</ele><time>2026-04-04T16:51:26.967Z</time></trkpt><trkpt lat="40.7625119" lon="14.8718142"><ele>441.0</ele><time>2026-04-04T16:51:27.966Z</time></trkpt><trkpt lat="40.7624092" lon="14.8717904"><ele>441.0</ele><time>2026-04-04T16:51:29.984Z</time></trkpt><trkpt lat="40.7623537" lon="14.8717504"><ele>439.8333333333333</ele><time>2026-04-04T16:51:31.964Z</time></trkpt><trkpt lat="40.7624273" lon="14.871759"><ele>438.66666666666663</ele><time>2026-04-04T16:51:37.962Z</time></trkpt><trkpt lat="40.7624908" lon="14.8717816"><ele>437.5</ele><time>2026-04-04T16:51:39.97Z</time></trkpt><trkpt lat="40.7624108" lon="14.8718289"><ele>436.3333333333333</ele><time>2026-04-04T16:51:44.957Z</time></trkpt><trkpt lat="40.7623424" lon="14.8718936"><ele>435.16666666666663</ele><time>2026-04-04T16:51:47.964Z</time></trkpt><trkpt lat="40.7622633" lon="14.8719128"><ele>434.0</ele><time>2026-04-04T16:51:49.967Z</time></trkpt><trkpt lat="40.7621808" lon="14.8717827"><ele>433.99999999999994</ele><time>2026-04-04T16:51:51.972Z</time></trkpt><trkpt lat="40.762131" lon="14.8717191"><ele>434.0</ele><time>2026-04-04T16:51:53.026Z</time></trkpt><trkpt lat="40.7620492" lon="14.8716549"><ele>434.0</ele><time>2026-04-04T16:51:54.975Z</time></trkpt><trkpt lat="40.7620049" lon="14.8715887"><ele>434.0</ele><time>2026-04-04T16:51:57.973Z</time></trkpt><trkpt lat="40.7619588" lon="14.8716794"><ele>433.99999999999994</ele><time>2026-04-04T16:52:02.971Z</time></trkpt><trkpt lat="40.7619614" lon="14.871765"><ele>434.0</ele><time>2026-04-04T16:52:04.969Z</time></trkpt><trkpt lat="40.7618856" lon="14.8717177"><ele>429.57142857142856</ele><time>2026-04-04T16:52:11.971Z</time></trkpt><trkpt lat="40.7618342" lon="14.871659"><ele>425.1428571428571</ele><time>2026-04-04T16:52:13.964Z</time></trkpt><trkpt lat="40.761788" lon="14.8715852"><ele>420.7142857142857</ele><time>2026-04-04T16:52:15.972Z</time></trkpt><trkpt lat="40.7617677" lon="14.8714948"><ele>416.2857142857143</ele><time>2026-04-04T16:52:17.958Z</time></trkpt><trkpt lat="40.7616975" lon="14.8714378"><ele>411.85714285714283</ele><time>2026-04-04T16:52:21.967Z</time></trkpt><trkpt lat="40.7616351" lon="14.8714231"><ele>407.42857142857144</ele><time>2026-04-04T16:52:24.966Z</time></trkpt><trkpt lat="40.7615711" lon="14.8713956"><ele>403.0</ele><time>2026-04-04T16:52:26.96Z</time></trkpt><trkpt lat="40.7615133" lon="14.8713612"><ele>403.00000000000006</ele><time>2026-04-04T16:52:28.959Z</time></trkpt><trkpt lat="40.7614354" lon="14.8713125"><ele>403.0</ele><time>2026-04-04T16:52:30.965Z</time></trkpt><trkpt lat="40.7613688" lon="14.8712783"><ele>403.0</ele><time>2026-04-04T16:52:31.971Z</time></trkpt><trkpt lat="40.7612828" lon="14.8712402"><ele>403.0</ele><time>2026-04-04T16:52:32.963Z</time></trkpt><trkpt lat="40.7611931" lon="14.8712146"><ele>403.00000000000006</ele><time>2026-04-04T16:52:34.042Z</time></trkpt><trkpt lat="40.761104" lon="14.8711926"><ele>403.0</ele><time>2026-04-04T16:52:35.026Z</time></trkpt><trkpt lat="40.7610132" lon="14.8711735"><ele>402.33333333333337</ele><time>2026-04-04T16:52:36.037Z</time></trkpt><trkpt lat="40.760934" lon="14.8711448"><ele>401.6666666666667</ele><time>2026-04-04T16:52:36.965Z</time></trkpt><trkpt lat="40.7608501" lon="14.8711276"><ele>401.0</ele><time>2026-04-04T16:52:37.973Z</time></trkpt><trkpt lat="40.7607772" lon="14.8711016"><ele>400.33333333333337</ele><time>2026-04-04T16:52:38.974Z</time></trkpt><trkpt lat="40.7607136" lon="14.8710641"><ele>399.6666666666667</ele><time>2026-04-04T16:52:40.049Z</time></trkpt><trkpt lat="40.7606654" lon="14.8710068"><ele>399.0</ele><time>2026-04-04T16:52:41.023Z</time></trkpt><trkpt lat="40.7606206" lon="14.8709279"><ele>399.0</ele><time>2026-04-04T16:52:41.965Z</time></trkpt><trkpt lat="40.7605805" lon="14.8708551"><ele>399.0</ele><time>2026-04-04T16:52:43.947Z</time></trkpt><trkpt lat="40.7605275" lon="14.870929"><ele>399.0</ele><time>2026-04-04T16:52:48.955Z</time></trkpt><trkpt lat="40.7605143" lon="14.8710231"><ele>399.0</ele><time>2026-04-04T16:52:56.965Z</time></trkpt><trkpt lat="40.7605316" lon="14.8711145"><ele>399.0</ele><time>2026-04-04T16:53:00.974Z</time></trkpt><trkpt lat="40.7605414" lon="14.871202"><ele>399.0</ele><time>2026-04-04T16:53:04.039Z</time></trkpt><trkpt lat="40.760592" lon="14.8712604"><ele>399.0</ele><time>2026-04-04T16:53:08.978Z</time></trkpt><trkpt lat="40.7606714" lon="14.8713034"><ele>399.0</ele><time>2026-04-04T16:53:14.967Z</time></trkpt><trkpt lat="40.7607375" lon="14.8713485"><ele>399.0</ele><time>2026-04-04T16:53:16.967Z</time></trkpt><trkpt lat="40.7607981" lon="14.8713865"><ele>399.0</ele><time>2026-04-04T16:53:19.014Z</time></trkpt><trkpt lat="40.7608898" lon="14.8714192"><ele>399.0</ele><time>2026-04-04T16:53:21.019Z</time></trkpt><trkpt lat="40.7609941" lon="14.8714433"><ele>399.0</ele><time>2026-04-04T16:53:22.973Z</time></trkpt><trkpt lat="40.761112" lon="14.8714694"><ele>399.5</ele><time>2026-04-04T16:53:24.975Z</time></trkpt><trkpt lat="40.7611937" lon="14.8715251"><ele>400.0</ele><time>2026-04-04T16:53:26.966Z</time></trkpt><trkpt lat="40.7612683" lon="14.8715856"><ele>400.5</ele><time>2026-04-04T16:53:28.953Z</time></trkpt><trkpt lat="40.7613428" lon="14.8716489"><ele>401.0</ele><time>2026-04-04T16:53:31.012Z</time></trkpt><trkpt lat="40.7613923" lon="14.8717031"><ele>401.5</ele><time>2026-04-04T16:53:32.97Z</time></trkpt><trkpt lat="40.7614664" lon="14.8717801"><ele>402.0</ele><time>2026-04-04T16:53:35.971Z</time></trkpt><trkpt lat="40.7615165" lon="14.8718634"><ele>402.0</ele><time>2026-04-04T16:53:39.049Z</time></trkpt><trkpt lat="40.7615537" lon="14.8719473"><ele>402.0</ele><time>2026-04-04T16:53:41.02Z</time></trkpt><trkpt lat="40.7615983" lon="14.8720406"><ele>402.0</ele><time>2026-04-04T16:53:42.966Z</time></trkpt><trkpt lat="40.7616404" lon="14.8721255"><ele>402.0</ele><time>2026-04-04T16:53:44.958Z</time></trkpt><trkpt lat="40.7616874" lon="14.8722163"><ele>402.0</ele><time>2026-04-04T16:53:46.959Z</time></trkpt><trkpt lat="40.7617404" lon="14.8722935"><ele>402.0</ele><time>2026-04-04T16:53:48.961Z</time></trkpt><trkpt lat="40.7617886" lon="14.8723725"><ele>402.0</ele><time>2026-04-04T16:53:51.017Z</time></trkpt><trkpt lat="40.7618195" lon="14.8724568"><ele>402.0</ele><time>2026-04-04T16:53:52.966Z</time></trkpt><trkpt lat="40.7618738" lon="14.8725197"><ele>402.0</ele><time>2026-04-04T16:53:56.956Z</time></trkpt><trkpt lat="40.7619498" lon="14.8725844"><ele>402.0</ele><time>2026-04-04T16:54:00.043Z</time></trkpt><trkpt lat="40.762043" lon="14.8726832"><ele>402.0</ele><time>2026-04-04T16:54:03.966Z</time></trkpt><trkpt lat="40.7621178" lon="14.8727578"><ele>402.0</ele><time>2026-04-04T16:54:05.967Z</time></trkpt><trkpt lat="40.7621948" lon="14.8728819"><ele>403.6</ele><time>2026-04-04T16:54:07.97Z</time></trkpt><trkpt lat="40.7622728" lon="14.8729797"><ele>405.20000000000005</ele><time>2026-04-04T16:54:09.965Z</time></trkpt><trkpt lat="40.7623349" lon="14.8730528"><ele>406.8</ele><time>2026-04-04T16:54:11.971Z</time></trkpt><trkpt lat="40.7623966" lon="14.8731435"><ele>408.4</ele><time>2026-04-04T16:54:13.971Z</time></trkpt><trkpt lat="40.76244" lon="14.8732256"><ele>410.0</ele><time>2026-04-04T16:54:15.039Z</time></trkpt><trkpt lat="40.7625065" lon="14.8733447"><ele>411.8</ele><time>2026-04-04T16:54:16.964Z</time></trkpt><trkpt lat="40.7625579" lon="14.8734488"><ele>413.6</ele><time>2026-04-04T16:54:18.951Z</time></trkpt><trkpt lat="40.7626062" lon="14.8735455"><ele>415.4</ele><time>2026-04-04T16:54:20.964Z</time></trkpt><trkpt lat="40.7626584" lon="14.8736681"><ele>417.2</ele><time>2026-04-04T16:54:23.027Z</time></trkpt><trkpt lat="40.7626946" lon="14.8738003"><ele>419.0</ele><time>2026-04-04T16:54:25.048Z</time></trkpt><trkpt lat="40.7627086" lon="14.8739439"><ele>422.99999999999994</ele><time>2026-04-04T16:54:26.956Z</time></trkpt><trkpt lat="40.7627263" lon="14.8741028"><ele>427.0</ele><time>2026-04-04T16:54:28.961Z</time></trkpt><trkpt lat="40.7627298" lon="14.8741898"><ele>431.0</ele><time>2026-04-04T16:54:29.955Z</time></trkpt><trkpt lat="40.7627346" lon="14.8742779"><ele>435.0</ele><time>2026-04-04T16:54:30.956Z</time></trkpt><trkpt lat="40.7627464" lon="14.8744431"><ele>438.99999999999994</ele><time>2026-04-04T16:54:32.97Z</time></trkpt><trkpt lat="40.7627594" lon="14.8745309"><ele>443.0</ele><time>2026-04-04T16:54:33.967Z</time></trkpt><trkpt lat="40.7627702" lon="14.8746743"><ele>442.99999999999994</ele><time>2026-04-04T16:54:36.03Z</time></trkpt><trkpt lat="40.7627852" lon="14.8748104"><ele>443.0</ele><time>2026-04-04T16:54:37.962Z</time></trkpt><trkpt lat="40.7627949" lon="14.874905"><ele>443.0</ele><time>2026-04-04T16:54:39.96Z</time></trkpt><trkpt lat="40.7628006" lon="14.8750002"><ele>443.0</ele><time>2026-04-04T16:54:42.972Z</time></trkpt><trkpt lat="40.7628007" lon="14.8751098"><ele>442.99999999999994</ele><time>2026-04-04T16:54:45.952Z</time></trkpt><trkpt lat="40.7628604" lon="14.8751898"><ele>443.0</ele><time>2026-04-04T16:54:49.957Z</time></trkpt><trkpt lat="40.7629281" lon="14.8752267"><ele>443.3333333333333</ele><time>2026-04-04T16:54:51.971Z</time></trkpt><trkpt lat="40.7629899" lon="14.8752926"><ele>443.66666666666663</ele><time>2026-04-04T16:54:53.961Z</time></trkpt><trkpt lat="40.7630324" lon="14.8753698"><ele>444.0</ele><time>2026-04-04T16:54:55.959Z</time></trkpt><trkpt lat="40.7630807" lon="14.8754389"><ele>444.33333333333337</ele><time>2026-04-04T16:54:57.967Z</time></trkpt><trkpt lat="40.7631364" lon="14.8754946"><ele>444.6666666666667</ele><time>2026-04-04T16:54:59.963Z</time></trkpt><trkpt lat="40.7631972" lon="14.8755722"><ele>445.0</ele><time>2026-04-04T16:55:01.963Z</time></trkpt><trkpt lat="40.7632218" lon="14.8756619"><ele>445.0</ele><time>2026-04-04T16:55:07.958Z</time></trkpt><trkpt lat="40.763143" lon="14.8757361"><ele>445.0</ele><time>2026-04-04T16:57:11.957Z</time></trkpt><trkpt lat="40.7630884" lon="14.8757868"><ele>445.0</ele><time>2026-04-04T16:59:32.967Z</time></trkpt><trkpt lat="40.7630355" lon="14.8757056"><ele>445.0</ele><time>2026-04-04T17:04:33.952Z</time></trkpt><trkpt lat="40.7629522" lon="14.8756241"><ele>445.0</ele><time>2026-04-04T17:04:36.967Z</time></trkpt><trkpt lat="40.762851" lon="14.8755656"><ele>445.0</ele><time>2026-04-04T17:04:38.953Z</time></trkpt><trkpt lat="40.762799" lon="14.8754341"><ele>445.0</ele><time>2026-04-04T17:04:44.009Z</time></trkpt><trkpt lat="40.7627469" lon="14.8752952"><ele>445.0</ele><time>2026-04-04T17:04:45.956Z</time></trkpt><trkpt lat="40.7627185" lon="14.8752153"><ele>445.0</ele><time>2026-04-04T17:04:46.957Z</time></trkpt><trkpt lat="40.7626686" lon="14.8750766"><ele>445.0</ele><time>2026-04-04T17:04:48.962Z</time></trkpt><trkpt lat="40.7626553" lon="14.8749791"><ele>442.6</ele><time>2026-04-04T17:04:49.959Z</time></trkpt><trkpt lat="40.7626123" lon="14.8748414"><ele>440.2</ele><time>2026-04-04T17:04:51.954Z</time></trkpt><trkpt lat="40.7625774" lon="14.8746853"><ele>437.79999999999995</ele><time>2026-04-04T17:04:54.027Z</time></trkpt><trkpt lat="40.7625504" lon="14.8745985"><ele>435.4</ele><time>2026-04-04T17:04:55.025Z</time></trkpt><trkpt lat="40.7624921" lon="14.8745094"><ele>433.0</ele><time>2026-04-04T17:04:55.964Z</time></trkpt><trkpt lat="40.7624385" lon="14.8744326"><ele>433.00000000000006</ele><time>2026-04-04T17:04:56.954Z</time></trkpt><trkpt lat="40.762388" lon="14.8743759"><ele>433.0</ele><time>2026-04-04T17:04:57.939Z</time></trkpt><trkpt lat="40.7623076" lon="14.8743238"><ele>433.0</ele><time>2026-04-04T17:04:58.968Z</time></trkpt><trkpt lat="40.7622264" lon="14.8743085"><ele>433.0</ele><time>2026-04-04T17:05:00.963Z</time></trkpt><trkpt lat="40.7621493" lon="14.87432"><ele>433.00000000000006</ele><time>2026-04-04T17:05:02.959Z</time></trkpt><trkpt lat="40.7620787" lon="14.8742842"><ele>433.0</ele><time>2026-04-04T17:05:04.961Z</time></trkpt><trkpt lat="40.7620401" lon="14.8741329"><ele>430.2</ele><time>2026-04-04T17:05:06.956Z</time></trkpt><trkpt lat="40.7620048" lon="14.8740159"><ele>427.4</ele><time>2026-04-04T17:05:07.957Z</time></trkpt><trkpt lat="40.7619661" lon="14.8739183"><ele>424.59999999999997</ele><time>2026-04-04T17:05:08.941Z</time></trkpt><trkpt lat="40.7618883" lon="14.8738248"><ele>421.79999999999995</ele><time>2026-04-04T17:05:10.953Z</time></trkpt><trkpt lat="40.7617704" lon="14.8738236"><ele>419.0</ele><time>2026-04-04T17:05:12.953Z</time></trkpt><trkpt lat="40.7617075" lon="14.8737207"><ele>419.2</ele><time>2026-04-04T17:05:16.952Z</time></trkpt><trkpt lat="40.7616743" lon="14.8735809"><ele>419.4</ele><time>2026-04-04T17:05:18.941Z</time></trkpt><trkpt lat="40.7616239" lon="14.8734495"><ele>419.6</ele><time>2026-04-04T17:05:20.966Z</time></trkpt><trkpt lat="40.7614949" lon="14.8733893"><ele>419.8</ele><time>2026-04-04T17:05:22.959Z</time></trkpt><trkpt lat="40.7614276" lon="14.8733599"><ele>420.0</ele><time>2026-04-04T17:05:23.955Z</time></trkpt><trkpt lat="40.7613706" lon="14.8733225"><ele>420.0</ele><time>2026-04-04T17:05:24.963Z</time></trkpt><trkpt lat="40.761286" lon="14.873207"><ele>420.0</ele><time>2026-04-04T17:05:26.95Z</time></trkpt><trkpt lat="40.7612502" lon="14.8731379"><ele>420.0</ele><time>2026-04-04T17:05:27.959Z</time></trkpt><trkpt lat="40.7611809" lon="14.8730067"><ele>420.0</ele><time>2026-04-04T17:05:29.955Z</time></trkpt><trkpt lat="40.7611338" lon="14.8729389"><ele>420.0</ele><time>2026-04-04T17:05:30.955Z</time></trkpt><trkpt lat="40.7610703" lon="14.8728514"><ele>421.3333333333333</ele><time>2026-04-04T17:05:31.955Z</time></trkpt><trkpt lat="40.7610061" lon="14.8727773"><ele>422.66666666666663</ele><time>2026-04-04T17:05:32.956Z</time></trkpt><trkpt lat="40.76095" lon="14.8727174"><ele>424.0</ele><time>2026-04-04T17:05:33.943Z</time></trkpt><trkpt lat="40.7608762" lon="14.872655"><ele>425.3333333333333</ele><time>2026-04-04T17:05:34.952Z</time></trkpt><trkpt lat="40.7607971" lon="14.8725991"><ele>426.66666666666663</ele><time>2026-04-04T17:05:35.949Z</time></trkpt><trkpt lat="40.7607079" lon="14.8725516"><ele>428.0</ele><time>2026-04-04T17:05:36.963Z</time></trkpt><trkpt lat="40.7606225" lon="14.8725113"><ele>428.0</ele><time>2026-04-04T17:05:37.958Z</time></trkpt><trkpt lat="40.7605355" lon="14.8724741"><ele>427.99999999999994</ele><time>2026-04-04T17:05:38.966Z</time></trkpt><trkpt lat="40.760447" lon="14.8724461"><ele>427.99999999999994</ele><time>2026-04-04T17:05:39.946Z</time></trkpt><trkpt lat="40.760353" lon="14.8724283"><ele>428.0</ele><time>2026-04-04T17:05:40.958Z</time></trkpt><trkpt lat="40.7602584" lon="14.8724239"><ele>428.0</ele><time>2026-04-04T17:05:41.961Z</time></trkpt><trkpt lat="40.7601587" lon="14.8724291"><ele>429.4</ele><time>2026-04-04T17:05:42.943Z</time></trkpt><trkpt lat="40.7600673" lon="14.8724404"><ele>430.79999999999995</ele><time>2026-04-04T17:05:43.94Z</time></trkpt><trkpt lat="40.7599922" lon="14.8724705"><ele>432.2</ele><time>2026-04-04T17:05:44.948Z</time></trkpt><trkpt lat="40.7599243" lon="14.8725068"><ele>433.6</ele><time>2026-04-04T17:05:45.958Z</time></trkpt><trkpt lat="40.759832" lon="14.8726134"><ele>435.0</ele><time>2026-04-04T17:05:47.956Z</time></trkpt><trkpt lat="40.7597806" lon="14.8727306"><ele>439.6</ele><time>2026-04-04T17:05:49.946Z</time></trkpt><trkpt lat="40.759749" lon="14.8728507"><ele>444.2</ele><time>2026-04-04T17:05:51.957Z</time></trkpt><trkpt lat="40.7597334" lon="14.872991"><ele>448.79999999999995</ele><time>2026-04-04T17:05:53.945Z</time></trkpt><trkpt lat="40.7597036" lon="14.8731336"><ele>453.4</ele><time>2026-04-04T17:05:55.952Z</time></trkpt><trkpt lat="40.7596586" lon="14.8732912"><ele>458.0</ele><time>2026-04-04T17:05:57.938Z</time></trkpt><trkpt lat="40.7596355" lon="14.8733908"><ele>459.8333333333333</ele><time>2026-04-04T17:05:58.964Z</time></trkpt><trkpt lat="40.7596139" lon="14.8734992"><ele>461.66666666666663</ele><time>2026-04-04T17:05:59.965Z</time></trkpt><trkpt lat="40.7595816" lon="14.8735795"><ele>463.5</ele><time>2026-04-04T17:06:00.958Z</time></trkpt><trkpt lat="40.759553" lon="14.8736688"><ele>465.33333333333337</ele><time>2026-04-04T17:06:01.967Z</time></trkpt><trkpt lat="40.7595208" lon="14.8737759"><ele>467.1666666666667</ele><time>2026-04-04T17:06:03.977Z</time></trkpt><trkpt lat="40.7594394" lon="14.873823"><ele>469.0</ele><time>2026-04-04T17:06:06.956Z</time></trkpt><trkpt lat="40.7593544" lon="14.8737619"><ele>469.0</ele><time>2026-04-04T17:06:09.959Z</time></trkpt><trkpt lat="40.7592731" lon="14.8737013"><ele>469.0</ele><time>2026-04-04T17:06:11.968Z</time></trkpt><trkpt lat="40.7591573" lon="14.8736358"><ele>469.0</ele><time>2026-04-04T17:06:13.962Z</time></trkpt><trkpt lat="40.7590603" lon="14.8735971"><ele>469.0</ele><time>2026-04-04T17:06:15.957Z</time></trkpt><trkpt lat="40.7589524" lon="14.8735843"><ele>469.0</ele><time>2026-04-04T17:06:17.959Z</time></trkpt><trkpt lat="40.7588375" lon="14.8736277"><ele>469.00000000000006</ele><time>2026-04-04T17:06:19.937Z</time></trkpt><trkpt lat="40.7587831" lon="14.8736718"><ele>469.0</ele><time>2026-04-04T17:06:20.958Z</time></trkpt><trkpt lat="40.7587083" lon="14.8737327"><ele>469.0</ele><time>2026-04-04T17:06:21.949Z</time></trkpt><trkpt lat="40.7586281" lon="14.8738023"><ele>469.0</ele><time>2026-04-04T17:06:22.952Z</time></trkpt><trkpt lat="40.7585564" lon="14.8738837"><ele>469.00000000000006</ele><time>2026-04-04T17:06:23.961Z</time></trkpt><trkpt lat="40.758506" lon="14.8739733"><ele>469.0</ele><time>2026-04-04T17:06:24.947Z</time></trkpt><trkpt lat="40.7584656" lon="14.8740629"><ele>465.50000000000006</ele><time>2026-04-04T17:06:25.957Z</time></trkpt><trkpt lat="40.7584143" lon="14.8741214"><ele>462.0</ele><time>2026-04-04T17:06:27.947Z</time></trkpt><trkpt lat="40.7583378" lon="14.8741101"><ele>458.5</ele><time>2026-04-04T17:06:31.939Z</time></trkpt><trkpt lat="40.7582392" lon="14.8740721"><ele>455.0</ele><time>2026-04-04T17:06:33.951Z</time></trkpt><trkpt lat="40.758154" lon="14.8740883"><ele>451.50000000000006</ele><time>2026-04-04T17:06:35.95Z</time></trkpt><trkpt lat="40.7580561" lon="14.8740325"><ele>448.0</ele><time>2026-04-04T17:06:38.96Z</time></trkpt><trkpt lat="40.7579613" lon="14.8740204"><ele>448.0</ele><time>2026-04-04T17:06:40.967Z</time></trkpt><trkpt lat="40.7578307" lon="14.873941"><ele>447.99999999999994</ele><time>2026-04-04T17:06:42.965Z</time></trkpt><trkpt lat="40.7577571" lon="14.8738901"><ele>447.99999999999994</ele><time>2026-04-04T17:06:43.962Z</time></trkpt><trkpt lat="40.7576803" lon="14.873827"><ele>448.0</ele><time>2026-04-04T17:06:44.961Z</time></trkpt><trkpt lat="40.7575971" lon="14.8737774"><ele>448.0</ele><time>2026-04-04T17:06:45.966Z</time></trkpt><trkpt lat="40.757504" lon="14.8737432"><ele>450.2</ele><time>2026-04-04T17:06:46.96Z</time></trkpt><trkpt lat="40.7574096" lon="14.8737186"><ele>452.4</ele><time>2026-04-04T17:06:47.957Z</time></trkpt><trkpt lat="40.7573075" lon="14.8737066"><ele>454.59999999999997</ele><time>2026-04-04T17:06:48.958Z</time></trkpt><trkpt lat="40.7572049" lon="14.8737193"><ele>456.79999999999995</ele><time>2026-04-04T17:06:49.972Z</time></trkpt><trkpt lat="40.7571111" lon="14.8737545"><ele>459.0</ele><time>2026-04-04T17:06:50.967Z</time></trkpt><trkpt lat="40.7570159" lon="14.8737891"><ele>459.0</ele><time>2026-04-04T17:06:51.959Z</time></trkpt><trkpt lat="40.756946" lon="14.8738147"><ele>459.0</ele><time>2026-04-04T17:06:53.008Z</time></trkpt><trkpt lat="40.7568571" lon="14.8738453"><ele>459.0</ele><time>2026-04-04T17:06:54.959Z</time></trkpt><trkpt lat="40.756828" lon="14.8737256"><ele>459.0</ele><time>2026-04-04T17:06:59.947Z</time></trkpt><trkpt lat="40.7568336" lon="14.8735365"><ele>459.0</ele><time>2026-04-04T17:07:01.955Z</time></trkpt><trkpt lat="40.7567884" lon="14.8734174"><ele>453.4</ele><time>2026-04-04T17:07:02.954Z</time></trkpt><trkpt lat="40.7567136" lon="14.8733006"><ele>447.79999999999995</ele><time>2026-04-04T17:07:03.945Z</time></trkpt><trkpt lat="40.7566502" lon="14.8732113"><ele>442.20000000000005</ele><time>2026-04-04T17:07:04.969Z</time></trkpt><trkpt lat="40.7565725" lon="14.8731319"><ele>436.6</ele><time>2026-04-04T17:07:05.955Z</time></trkpt><trkpt lat="40.7564858" lon="14.8730704"><ele>431.0</ele><time>2026-04-04T17:07:06.949Z</time></trkpt><trkpt lat="40.7563988" lon="14.8730255"><ele>430.99999999999994</ele><time>2026-04-04T17:07:07.942Z</time></trkpt><trkpt lat="40.7563201" lon="14.8729852"><ele>431.0</ele><time>2026-04-04T17:07:08.999Z</time></trkpt><trkpt lat="40.7562436" lon="14.8729362"><ele>431.0</ele><time>2026-04-04T17:07:09.953Z</time></trkpt><trkpt lat="40.7561667" lon="14.8728694"><ele>431.0</ele><time>2026-04-04T17:07:10.964Z</time></trkpt><trkpt lat="40.7560893" lon="14.8728077"><ele>430.99999999999994</ele><time>2026-04-04T17:07:11.938Z</time></trkpt><trkpt lat="40.7560056" lon="14.8727666"><ele>431.0</ele><time>2026-04-04T17:07:12.965Z</time></trkpt><trkpt lat="40.7559157" lon="14.8727256"><ele>426.66666666666663</ele><time>2026-04-04T17:07:13.954Z</time></trkpt><trkpt lat="40.7558259" lon="14.8726786"><ele>422.3333333333333</ele><time>2026-04-04T17:07:14.962Z</time></trkpt><trkpt lat="40.7557372" lon="14.8726326"><ele>418.0</ele><time>2026-04-04T17:07:16.053Z</time></trkpt><trkpt lat="40.7556558" lon="14.8725987"><ele>413.66666666666663</ele><time>2026-04-04T17:07:16.969Z</time></trkpt><trkpt lat="40.7555885" lon="14.8725667"><ele>409.3333333333333</ele><time>2026-04-04T17:07:17.967Z</time></trkpt><trkpt lat="40.755511" lon="14.8724988"><ele>405.0</ele><time>2026-04-04T17:07:20.06Z</time></trkpt><trkpt lat="40.7555246" lon="14.872411"><ele>405.0</ele><time>2026-04-04T17:07:21.948Z</time></trkpt><trkpt lat="40.7554495" lon="14.8723696"><ele>405.0</ele><time>2026-04-04T17:07:26.983Z</time></trkpt><trkpt lat="40.7553652" lon="14.8724308"><ele>405.0</ele><time>2026-04-04T17:07:28.981Z</time></trkpt><trkpt lat="40.755314" lon="14.8724892"><ele>405.0</ele><time>2026-04-04T17:07:29.981Z</time></trkpt><trkpt lat="40.7552559" lon="14.8725839"><ele>405.0</ele><time>2026-04-04T17:07:31.96Z</time></trkpt><trkpt lat="40.7551827" lon="14.872564"><ele>405.0</ele><time>2026-04-04T17:07:34.948Z</time></trkpt><trkpt lat="40.755172" lon="14.872414"><ele>405.0</ele><time>2026-04-04T17:07:36.967Z</time></trkpt><trkpt lat="40.7551647" lon="14.8723186"><ele>405.0</ele><time>2026-04-04T17:07:37.969Z</time></trkpt><trkpt lat="40.7551584" lon="14.8722238"><ele>405.0</ele><time>2026-04-04T17:07:38.959Z</time></trkpt><trkpt lat="40.7551753" lon="14.8721369"><ele>405.0</ele><time>2026-04-04T17:07:39.966Z</time></trkpt><trkpt lat="40.7552234" lon="14.8720152"><ele>405.0</ele><time>2026-04-04T17:07:41.965Z</time></trkpt><trkpt lat="40.7551796" lon="14.8719153"><ele>405.0</ele><time>2026-04-04T17:07:44.954Z</time></trkpt><trkpt lat="40.7550936" lon="14.8719116"><ele>400.3333333333333</ele><time>2026-04-04T17:07:46.968Z</time></trkpt><trkpt lat="40.7550097" lon="14.8719844"><ele>395.6666666666667</ele><time>2026-04-04T17:07:48.963Z</time></trkpt><trkpt lat="40.7549537" lon="14.872062"><ele>391.0</ele><time>2026-04-04T17:07:50.967Z</time></trkpt><trkpt lat="40.7549165" lon="14.8721291"><ele>386.33333333333337</ele><time>2026-04-04T17:07:53.061Z</time></trkpt><trkpt lat="40.7549091" lon="14.8720178"><ele>381.6666666666667</ele><time>2026-04-04T17:07:56.043Z</time></trkpt><trkpt lat="40.7549084" lon="14.8719243"><ele>377.0</ele><time>2026-04-04T17:07:56.968Z</time></trkpt><trkpt lat="40.7549131" lon="14.8718342"><ele>377.0</ele><time>2026-04-04T17:07:57.967Z</time></trkpt><trkpt lat="40.7549318" lon="14.871751"><ele>377.0</ele><time>2026-04-04T17:07:58.945Z</time></trkpt><trkpt lat="40.7549494" lon="14.871657"><ele>377.0</ele><time>2026-04-04T17:08:00.961Z</time></trkpt><trkpt lat="40.7548456" lon="14.8716816"><ele>377.0</ele><time>2026-04-04T17:08:05.035Z</time></trkpt><trkpt lat="40.7547947" lon="14.8717745"><ele>377.0</ele><time>2026-04-04T17:08:05.961Z</time></trkpt><trkpt lat="40.754759" lon="14.8718449"><ele>377.0</ele><time>2026-04-04T17:08:06.968Z</time></trkpt><trkpt lat="40.7547303" lon="14.8719276"><ele>377.0</ele><time>2026-04-04T17:08:08.975Z</time></trkpt><trkpt lat="40.7546603" lon="14.8718344"><ele>377.0</ele><time>2026-04-04T17:08:13.975Z</time></trkpt><trkpt lat="40.7546463" lon="14.8717332"><ele>377.0</ele><time>2026-04-04T17:08:14.965Z</time></trkpt><trkpt lat="40.7546394" lon="14.8716187"><ele>377.0</ele><time>2026-04-04T17:08:15.961Z</time></trkpt><trkpt lat="40.7546572" lon="14.8715109"><ele>377.0</ele><time>2026-04-04T17:08:16.967Z</time></trkpt><trkpt lat="40.7545867" lon="14.8715098"><ele>377.0</ele><time>2026-04-04T17:08:22.972Z</time></trkpt><trkpt lat="40.7544945" lon="14.8716593"><ele>377.0</ele><time>2026-04-04T17:08:24.974Z</time></trkpt><trkpt lat="40.7544434" lon="14.871764"><ele>377.0</ele><time>2026-04-04T17:08:25.966Z</time></trkpt><trkpt lat="40.7544006" lon="14.8718426"><ele>377.0</ele><time>2026-04-04T17:08:26.973Z</time></trkpt><trkpt lat="40.754356" lon="14.8719337"><ele>377.0</ele><time>2026-04-04T17:08:28.026Z</time></trkpt><trkpt lat="40.7542974" lon="14.8720219"><ele>377.0</ele><time>2026-04-04T17:08:29.022Z</time></trkpt><trkpt lat="40.7542272" lon="14.8721178"><ele>377.0</ele><time>2026-04-04T17:08:30.017Z</time></trkpt><trkpt lat="40.7541642" lon="14.8722051"><ele>368.20000000000005</ele><time>2026-04-04T17:08:30.961Z</time></trkpt><trkpt lat="40.7541025" lon="14.8722825"><ele>359.4</ele><time>2026-04-04T17:08:31.966Z</time></trkpt><trkpt lat="40.7540473" lon="14.8723713"><ele>350.6</ele><time>2026-04-04T17:08:32.965Z</time></trkpt><trkpt lat="40.753999" lon="14.8724901"><ele>341.79999999999995</ele><time>2026-04-04T17:08:33.965Z</time></trkpt><trkpt lat="40.7539628" lon="14.8725955"><ele>333.0</ele><time>2026-04-04T17:08:34.97Z</time></trkpt><trkpt lat="40.7539384" lon="14.8727076"><ele>332.2</ele><time>2026-04-04T17:08:35.989Z</time></trkpt><trkpt lat="40.753927" lon="14.8728478"><ele>331.4</ele><time>2026-04-04T17:08:36.97Z</time></trkpt><trkpt lat="40.7539305" lon="14.8729944"><ele>330.59999999999997</ele><time>2026-04-04T17:08:37.968Z</time></trkpt><trkpt lat="40.7539393" lon="14.8731139"><ele>329.79999999999995</ele><time>2026-04-04T17:08:39.031Z</time></trkpt><trkpt lat="40.7539405" lon="14.8732108"><ele>329.0</ele><time>2026-04-04T17:08:39.968Z</time></trkpt><trkpt lat="40.7538984" lon="14.8732951"><ele>329.0</ele><time>2026-04-04T17:08:40.971Z</time></trkpt><trkpt lat="40.7538235" lon="14.8733759"><ele>329.0</ele><time>2026-04-04T17:08:41.969Z</time></trkpt><trkpt lat="40.7537495" lon="14.8734594"><ele>329.0</ele><time>2026-04-04T17:08:42.963Z</time></trkpt><trkpt lat="40.7536819" lon="14.8735457"><ele>329.0</ele><time>2026-04-04T17:08:43.964Z</time></trkpt><trkpt lat="40.7536173" lon="14.8736391"><ele>329.0</ele><time>2026-04-04T17:08:45.012Z</time></trkpt><trkpt lat="40.7535766" lon="14.873747"><ele>331.5</ele><time>2026-04-04T17:08:46.957Z</time></trkpt><trkpt lat="40.7534212" lon="14.8736819"><ele>334.0</ele><time>2026-04-04T17:08:51.961Z</time></trkpt><trkpt lat="40.7533065" lon="14.8736687"><ele>336.5</ele><time>2026-04-04T17:08:52.97Z</time></trkpt><trkpt lat="40.7531845" lon="14.8736702"><ele>339.0</ele><time>2026-04-04T17:08:53.964Z</time></trkpt><trkpt lat="40.7530524" lon="14.8736763"><ele>339.0</ele><time>2026-04-04T17:08:54.967Z</time></trkpt><trkpt lat="40.7529156" lon="14.8736909"><ele>339.0</ele><time>2026-04-04T17:08:55.962Z</time></trkpt><trkpt lat="40.7527797" lon="14.8737084"><ele>339.0</ele><time>2026-04-04T17:08:56.966Z</time></trkpt><trkpt lat="40.7526608" lon="14.8737169"><ele>339.0</ele><time>2026-04-04T17:08:57.96Z</time></trkpt><trkpt lat="40.7525574" lon="14.873695"><ele>338.6</ele><time>2026-04-04T17:08:58.958Z</time></trkpt><trkpt lat="40.7524685" lon="14.8736645"><ele>338.2</ele><time>2026-04-04T17:08:59.961Z</time></trkpt><trkpt lat="40.7523635" lon="14.8736697"><ele>337.8</ele><time>2026-04-04T17:09:00.957Z</time></trkpt><trkpt lat="40.752248" lon="14.873692"><ele>337.40000000000003</ele><time>2026-04-04T17:09:01.957Z</time></trkpt><trkpt lat="40.7521321" lon="14.8737154"><ele>337.0</ele><time>2026-04-04T17:09:02.96Z</time></trkpt><trkpt lat="40.75202" lon="14.8737251"><ele>337.0</ele><time>2026-04-04T17:09:03.958Z</time></trkpt><trkpt lat="40.7519133" lon="14.8737464"><ele>337.0</ele><time>2026-04-04T17:09:04.96Z</time></trkpt><trkpt lat="40.7517966" lon="14.8737726"><ele>337.0</ele><time>2026-04-04T17:09:05.96Z</time></trkpt><trkpt lat="40.75169" lon="14.8737942"><ele>337.0</ele><time>2026-04-04T17:09:06.966Z</time></trkpt><trkpt lat="40.7515877" lon="14.8738122"><ele>337.0</ele><time>2026-04-04T17:09:07.966Z</time></trkpt><trkpt lat="40.7514937" lon="14.873834"><ele>333.20000000000005</ele><time>2026-04-04T17:09:08.966Z</time></trkpt><trkpt lat="40.7514016" lon="14.8738794"><ele>329.40000000000003</ele><time>2026-04-04T17:09:09.973Z</time></trkpt><trkpt lat="40.7513134" lon="14.873961"><ele>325.6</ele><time>2026-04-04T17:09:10.965Z</time></trkpt><trkpt lat="40.7512147" lon="14.8740594"><ele>321.8</ele><time>2026-04-04T17:09:11.961Z</time></trkpt><trkpt lat="40.7511266" lon="14.8741462"><ele>318.0</ele><time>2026-04-04T17:09:12.967Z</time></trkpt><trkpt lat="40.7510601" lon="14.8742329"><ele>315.6</ele><time>2026-04-04T17:09:13.957Z</time></trkpt><trkpt lat="40.7509762" lon="14.87433"><ele>313.20000000000005</ele><time>2026-04-04T17:09:14.957Z</time></trkpt><trkpt lat="40.7509163" lon="14.8744576"><ele>310.8</ele><time>2026-04-04T17:09:15.958Z</time></trkpt><trkpt lat="40.7508438" lon="14.8745449"><ele>308.40000000000003</ele><time>2026-04-04T17:09:16.943Z</time></trkpt><trkpt lat="40.7507695" lon="14.8746166"><ele>306.0</ele><time>2026-04-04T17:09:17.96Z</time></trkpt><trkpt lat="40.7507024" lon="14.8746638"><ele>306.0</ele><time>2026-04-04T17:09:18.968Z</time></trkpt><trkpt lat="40.7506297" lon="14.8747099"><ele>306.0</ele><time>2026-04-04T17:09:19.967Z</time></trkpt><trkpt lat="40.7505507" lon="14.8747404"><ele>306.0</ele><time>2026-04-04T17:09:20.967Z</time></trkpt><trkpt lat="40.7504572" lon="14.8747813"><ele>306.0</ele><time>2026-04-04T17:09:21.965Z</time></trkpt><trkpt lat="40.7503838" lon="14.8748472"><ele>306.0</ele><time>2026-04-04T17:09:22.968Z</time></trkpt><trkpt lat="40.7503216" lon="14.8749103"><ele>306.0</ele><time>2026-04-04T17:09:23.966Z</time></trkpt><trkpt lat="40.7502528" lon="14.8749444"><ele>304.2</ele><time>2026-04-04T17:09:24.968Z</time></trkpt><trkpt lat="40.7501927" lon="14.8749876"><ele>302.40000000000003</ele><time>2026-04-04T17:09:25.964Z</time></trkpt><trkpt lat="40.7501419" lon="14.8750694"><ele>300.6</ele><time>2026-04-04T17:09:27.974Z</time></trkpt><trkpt lat="40.7501205" lon="14.875203"><ele>298.8</ele><time>2026-04-04T17:09:29.962Z</time></trkpt><trkpt lat="40.7500717" lon="14.8753263"><ele>297.0</ele><time>2026-04-04T17:09:31.031Z</time></trkpt><trkpt lat="40.7500006" lon="14.875474"><ele>297.0</ele><time>2026-04-04T17:09:31.966Z</time></trkpt><trkpt lat="40.7499344" lon="14.875617"><ele>297.0</ele><time>2026-04-04T17:09:32.949Z</time></trkpt><trkpt lat="40.7498716" lon="14.8757407"><ele>297.0</ele><time>2026-04-04T17:09:33.996Z</time></trkpt><trkpt lat="40.749813" lon="14.8758551"><ele>297.0</ele><time>2026-04-04T17:09:34.973Z</time></trkpt><trkpt lat="40.7497408" lon="14.875955"><ele>297.0</ele><time>2026-04-04T17:09:35.973Z</time></trkpt><trkpt lat="40.7496529" lon="14.8760423"><ele>294.2</ele><time>2026-04-04T17:09:36.954Z</time></trkpt><trkpt lat="40.7495571" lon="14.8761256"><ele>291.4</ele><time>2026-04-04T17:09:37.967Z</time></trkpt><trkpt lat="40.7494755" lon="14.8762113"><ele>288.6</ele><time>2026-04-04T17:09:38.962Z</time></trkpt><trkpt lat="40.7493976" lon="14.876294"><ele>285.8</ele><time>2026-04-04T17:09:39.969Z</time></trkpt><trkpt lat="40.7493295" lon="14.8763947"><ele>283.0</ele><time>2026-04-04T17:09:40.971Z</time></trkpt><trkpt lat="40.7492523" lon="14.8764763"><ele>283.0</ele><time>2026-04-04T17:09:41.963Z</time></trkpt><trkpt lat="40.7491859" lon="14.8765664"><ele>283.0</ele><time>2026-04-04T17:09:42.964Z</time></trkpt><trkpt lat="40.7491379" lon="14.8766626"><ele>283.0</ele><time>2026-04-04T17:09:43.958Z</time></trkpt><trkpt lat="40.7491038" lon="14.8767686"><ele>283.0</ele><time>2026-04-04T17:09:44.969Z</time></trkpt><trkpt lat="40.7490759" lon="14.8768781"><ele>283.0</ele><time>2026-04-04T17:09:45.964Z</time></trkpt><trkpt lat="40.7490554" lon="14.8769916"><ele>283.0</ele><time>2026-04-04T17:09:46.974Z</time></trkpt><trkpt lat="40.7490324" lon="14.8771133"><ele>282.4</ele><time>2026-04-04T17:09:48.034Z</time></trkpt><trkpt lat="40.7490061" lon="14.8772327"><ele>281.8</ele><time>2026-04-04T17:09:49.041Z</time></trkpt><trkpt lat="40.7489666" lon="14.8773401"><ele>281.2</ele><time>2026-04-04T17:09:50.021Z</time></trkpt><trkpt lat="40.7489327" lon="14.8774553"><ele>280.6</ele><time>2026-04-04T17:09:51.034Z</time></trkpt><trkpt lat="40.748878" lon="14.8775571"><ele>280.0</ele><time>2026-04-04T17:09:51.957Z</time></trkpt><trkpt lat="40.7488209" lon="14.8776474"><ele>278.8</ele><time>2026-04-04T17:09:52.965Z</time></trkpt><trkpt lat="40.7487579" lon="14.8777386"><ele>277.6</ele><time>2026-04-04T17:09:53.976Z</time></trkpt><trkpt lat="40.7486928" lon="14.8778301"><ele>276.4</ele><time>2026-04-04T17:09:55.034Z</time></trkpt><trkpt lat="40.7486276" lon="14.8779493"><ele>275.2</ele><time>2026-04-04T17:09:56.03Z</time></trkpt><trkpt lat="40.7485624" lon="14.8780983"><ele>274.0</ele><time>2026-04-04T17:09:56.966Z</time></trkpt><trkpt lat="40.7484988" lon="14.8782701"><ele>277.5</ele><time>2026-04-04T17:09:57.968Z</time></trkpt><trkpt lat="40.7484354" lon="14.8784477"><ele>281.0</ele><time>2026-04-04T17:09:58.974Z</time></trkpt><trkpt lat="40.7483695" lon="14.8786081"><ele>284.5</ele><time>2026-04-04T17:10:00.013Z</time></trkpt><trkpt lat="40.7483187" lon="14.8787414"><ele>288.0</ele><time>2026-04-04T17:10:01.022Z</time></trkpt><trkpt lat="40.7482498" lon="14.8788406"><ele>288.0</ele><time>2026-04-04T17:10:01.957Z</time></trkpt><trkpt lat="40.7481597" lon="14.8789168"><ele>288.0</ele><time>2026-04-04T17:10:02.967Z</time></trkpt><trkpt lat="40.7480527" lon="14.8789766"><ele>288.0</ele><time>2026-04-04T17:10:03.97Z</time></trkpt><trkpt lat="40.7479422" lon="14.8790358"><ele>288.0</ele><time>2026-04-04T17:10:04.965Z</time></trkpt><trkpt lat="40.7478333" lon="14.8790971"><ele>288.0</ele><time>2026-04-04T17:10:05.964Z</time></trkpt><trkpt lat="40.7477257" lon="14.8791857"><ele>288.0</ele><time>2026-04-04T17:10:06.965Z</time></trkpt><trkpt lat="40.7476213" lon="14.8793022"><ele>288.0</ele><time>2026-04-04T17:10:07.966Z</time></trkpt><trkpt lat="40.7475456" lon="14.8794414"><ele>288.0</ele><time>2026-04-04T17:10:09.025Z</time></trkpt><trkpt lat="40.7474861" lon="14.8795989"><ele>283.25</ele><time>2026-04-04T17:10:10.029Z</time></trkpt><trkpt lat="40.7474349" lon="14.8797813"><ele>278.5</ele><time>2026-04-04T17:10:11.019Z</time></trkpt><trkpt lat="40.7473777" lon="14.8799645"><ele>273.75</ele><time>2026-04-04T17:10:11.966Z</time></trkpt><trkpt lat="40.7473322" lon="14.8801433"><ele>269.0</ele><time>2026-04-04T17:10:12.971Z</time></trkpt><trkpt lat="40.7472935" lon="14.8803256"><ele>269.0</ele><time>2026-04-04T17:10:13.993Z</time></trkpt><trkpt lat="40.747247" lon="14.8805038"><ele>269.0</ele><time>2026-04-04T17:10:14.968Z</time></trkpt><trkpt lat="40.7472136" lon="14.8806829"><ele>269.0</ele><time>2026-04-04T17:10:15.972Z</time></trkpt><trkpt lat="40.747181" lon="14.8808571"><ele>269.0</ele><time>2026-04-04T17:10:16.964Z</time></trkpt><trkpt lat="40.7471466" lon="14.8810234"><ele>270.0</ele><time>2026-04-04T17:10:17.967Z</time></trkpt><trkpt lat="40.7471199" lon="14.881189"><ele>271.0</ele><time>2026-04-04T17:10:18.949Z</time></trkpt><trkpt lat="40.7470801" lon="14.8813504"><ele>272.0</ele><time>2026-04-04T17:10:19.967Z</time></trkpt><trkpt lat="40.7470513" lon="14.8815143"><ele>273.0</ele><time>2026-04-04T17:10:21.038Z</time></trkpt><trkpt lat="40.7470115" lon="14.8816608"><ele>271.8</ele><time>2026-04-04T17:10:21.961Z</time></trkpt><trkpt lat="40.7469616" lon="14.8817924"><ele>270.6</ele><time>2026-04-04T17:10:22.964Z</time></trkpt><trkpt lat="40.7469039" lon="14.8819092"><ele>269.4</ele><time>2026-04-04T17:10:23.962Z</time></trkpt><trkpt lat="40.7468432" lon="14.882009"><ele>268.2</ele><time>2026-04-04T17:10:24.967Z</time></trkpt><trkpt lat="40.7467812" lon="14.8821008"><ele>267.0</ele><time>2026-04-04T17:10:25.968Z</time></trkpt><trkpt lat="40.7467113" lon="14.8821682"><ele>264.6</ele><time>2026-04-04T17:10:26.972Z</time></trkpt><trkpt lat="40.7466376" lon="14.8821967"><ele>262.2</ele><time>2026-04-04T17:10:27.966Z</time></trkpt><trkpt lat="40.7465517" lon="14.8821847"><ele>259.8</ele><time>2026-04-04T17:10:29.019Z</time></trkpt><trkpt lat="40.7464611" lon="14.8821546"><ele>257.4</ele><time>2026-04-04T17:10:30.038Z</time></trkpt><trkpt lat="40.7463696" lon="14.8820918"><ele>255.0</ele><time>2026-04-04T17:10:31.02Z</time></trkpt><trkpt lat="40.7462898" lon="14.8820122"><ele>255.0</ele><time>2026-04-04T17:10:31.95Z</time></trkpt><trkpt lat="40.7462113" lon="14.8819497"><ele>255.0</ele><time>2026-04-04T17:10:32.967Z</time></trkpt><trkpt lat="40.746124" lon="14.8819035"><ele>255.0</ele><time>2026-04-04T17:10:33.989Z</time></trkpt><trkpt lat="40.7460277" lon="14.8818873"><ele>255.0</ele><time>2026-04-04T17:10:35.03Z</time></trkpt><trkpt lat="40.74595" lon="14.881907"><ele>255.0</ele><time>2026-04-04T17:10:36.018Z</time></trkpt><trkpt lat="40.7458842" lon="14.8819454"><ele>255.0</ele><time>2026-04-04T17:10:36.967Z</time></trkpt><trkpt lat="40.7458158" lon="14.8819876"><ele>254.5</ele><time>2026-04-04T17:10:37.97Z</time></trkpt><trkpt lat="40.7457321" lon="14.8820385"><ele>254.0</ele><time>2026-04-04T17:10:39.066Z</time></trkpt><trkpt lat="40.7456296" lon="14.8821156"><ele>253.5</ele><time>2026-04-04T17:10:40.02Z</time></trkpt><trkpt lat="40.7455102" lon="14.8822132"><ele>253.0</ele><time>2026-04-04T17:10:41.043Z</time></trkpt><trkpt lat="40.7454016" lon="14.882308"><ele>253.0</ele><time>2026-04-04T17:10:41.961Z</time></trkpt><trkpt lat="40.7453053" lon="14.8824101"><ele>253.0</ele><time>2026-04-04T17:10:42.971Z</time></trkpt><trkpt lat="40.7452189" lon="14.8825223"><ele>253.0</ele><time>2026-04-04T17:10:43.972Z</time></trkpt><trkpt lat="40.7451466" lon="14.8826333"><ele>253.0</ele><time>2026-04-04T17:10:45.028Z</time></trkpt><trkpt lat="40.7450792" lon="14.8827618"><ele>251.25</ele><time>2026-04-04T17:10:46.017Z</time></trkpt><trkpt lat="40.7450024" lon="14.8829111"><ele>249.5</ele><time>2026-04-04T17:10:46.966Z</time></trkpt><trkpt lat="40.7449388" lon="14.8830601"><ele>247.75</ele><time>2026-04-04T17:10:47.965Z</time></trkpt><trkpt lat="40.7448447" lon="14.8831975"><ele>246.0</ele><time>2026-04-04T17:10:49.051Z</time></trkpt><trkpt lat="40.7447342" lon="14.8833198"><ele>246.0</ele><time>2026-04-04T17:10:50.03Z</time></trkpt><trkpt lat="40.7446212" lon="14.8834133"><ele>246.0</ele><time>2026-04-04T17:10:51.033Z</time></trkpt><trkpt lat="40.7445181" lon="14.8835001"><ele>246.0</ele><time>2026-04-04T17:10:51.958Z</time></trkpt><trkpt lat="40.7444477" lon="14.8836279"><ele>246.0</ele><time>2026-04-04T17:10:53.038Z</time></trkpt><trkpt lat="40.7444027" lon="14.8838004"><ele>245.5</ele><time>2026-04-04T17:10:54.023Z</time></trkpt><trkpt lat="40.7443495" lon="14.8839764"><ele>245.0</ele><time>2026-04-04T17:10:55.027Z</time></trkpt><trkpt lat="40.7442898" lon="14.8841442"><ele>244.5</ele><time>2026-04-04T17:10:55.96Z</time></trkpt><trkpt lat="40.7442341" lon="14.8842962"><ele>244.0</ele><time>2026-04-04T17:10:56.971Z</time></trkpt><trkpt lat="40.7441729" lon="14.8844365"><ele>244.0</ele><time>2026-04-04T17:10:57.963Z</time></trkpt><trkpt lat="40.7440983" lon="14.8845583"><ele>244.0</ele><time>2026-04-04T17:10:58.962Z</time></trkpt><trkpt lat="40.7440223" lon="14.884687"><ele>244.0</ele><time>2026-04-04T17:10:59.96Z</time></trkpt><trkpt lat="40.7439434" lon="14.8848271"><ele>244.0</ele><time>2026-04-04T17:11:00.967Z</time></trkpt><trkpt lat="40.7438518" lon="14.8849566"><ele>244.0</ele><time>2026-04-04T17:11:01.963Z</time></trkpt><trkpt lat="40.7437679" lon="14.8850692"><ele>244.0</ele><time>2026-04-04T17:11:02.969Z</time></trkpt><trkpt lat="40.7436877" lon="14.8851798"><ele>244.0</ele><time>2026-04-04T17:11:03.965Z</time></trkpt><trkpt lat="40.7436073" lon="14.8852717"><ele>244.0</ele><time>2026-04-04T17:11:04.96Z</time></trkpt><trkpt lat="40.7435052" lon="14.8853457"><ele>242.5</ele><time>2026-04-04T17:11:05.964Z</time></trkpt><trkpt lat="40.7433802" lon="14.8853949"><ele>241.0</ele><time>2026-04-04T17:11:06.964Z</time></trkpt><trkpt lat="40.7432393" lon="14.8854329"><ele>239.5</ele><time>2026-04-04T17:11:07.971Z</time></trkpt><trkpt lat="40.7430814" lon="14.8855011"><ele>238.0</ele><time>2026-04-04T17:11:08.968Z</time></trkpt><trkpt lat="40.7429294" lon="14.8855991"><ele>238.0</ele><time>2026-04-04T17:11:09.96Z</time></trkpt><trkpt lat="40.7427769" lon="14.8856952"><ele>238.0</ele><time>2026-04-04T17:11:10.967Z</time></trkpt><trkpt lat="40.7426489" lon="14.8857802"><ele>238.0</ele><time>2026-04-04T17:11:11.968Z</time></trkpt><trkpt lat="40.7425337" lon="14.8858424"><ele>238.0</ele><time>2026-04-04T17:11:12.967Z</time></trkpt><trkpt lat="40.7424215" lon="14.885914"><ele>236.75</ele><time>2026-04-04T17:11:13.965Z</time></trkpt><trkpt lat="40.742291" lon="14.886001"><ele>235.5</ele><time>2026-04-04T17:11:14.966Z</time></trkpt><trkpt lat="40.7421774" lon="14.8861258"><ele>234.25</ele><time>2026-04-04T17:11:16.024Z</time></trkpt><trkpt lat="40.7420713" lon="14.8862656"><ele>233.0</ele><time>2026-04-04T17:11:16.959Z</time></trkpt><trkpt lat="40.7419771" lon="14.8863993"><ele>233.0</ele><time>2026-04-04T17:11:17.964Z</time></trkpt><trkpt lat="40.7418906" lon="14.886549"><ele>233.0</ele><time>2026-04-04T17:11:18.969Z</time></trkpt><trkpt lat="40.7418037" lon="14.8866984"><ele>233.0</ele><time>2026-04-04T17:11:20.026Z</time></trkpt><trkpt lat="40.741725" lon="14.8868223"><ele>233.0</ele><time>2026-04-04T17:11:20.964Z</time></trkpt><trkpt lat="40.7416533" lon="14.8869503"><ele>232.25</ele><time>2026-04-04T17:11:21.967Z</time></trkpt><trkpt lat="40.7415953" lon="14.8870884"><ele>231.5</ele><time>2026-04-04T17:11:22.97Z</time></trkpt><trkpt lat="40.7415647" lon="14.8872447"><ele>230.75</ele><time>2026-04-04T17:11:24.023Z</time></trkpt><trkpt lat="40.741557" lon="14.8874236"><ele>230.0</ele><time>2026-04-04T17:11:24.965Z</time></trkpt><trkpt lat="40.7415446" lon="14.8876137"><ele>229.0</ele><time>2026-04-04T17:11:25.968Z</time></trkpt><trkpt lat="40.7415202" lon="14.8878159"><ele>228.0</ele><time>2026-04-04T17:11:26.957Z</time></trkpt><trkpt lat="40.7414829" lon="14.8880129"><ele>227.0</ele><time>2026-04-04T17:11:27.965Z</time></trkpt><trkpt lat="40.7414434" lon="14.8882122"><ele>227.0</ele><time>2026-04-04T17:11:28.966Z</time></trkpt><trkpt lat="40.7414032" lon="14.8883924"><ele>227.0</ele><time>2026-04-04T17:11:29.965Z</time></trkpt><trkpt lat="40.7413471" lon="14.8885582"><ele>227.0</ele><time>2026-04-04T17:11:30.973Z</time></trkpt><trkpt lat="40.7412783" lon="14.8887091"><ele>227.0</ele><time>2026-04-04T17:11:31.961Z</time></trkpt><trkpt lat="40.7411868" lon="14.8888437"><ele>226.0</ele><time>2026-04-04T17:11:32.966Z</time></trkpt><trkpt lat="40.7410778" lon="14.8889705"><ele>225.0</ele><time>2026-04-04T17:11:33.964Z</time></trkpt><trkpt lat="40.7409521" lon="14.8890969"><ele>224.0</ele><time>2026-04-04T17:11:35.064Z</time></trkpt><trkpt lat="40.7408245" lon="14.8892188"><ele>222.66666666666669</ele><time>2026-04-04T17:11:36.036Z</time></trkpt><trkpt lat="40.7406975" lon="14.8893426"><ele>221.33333333333331</ele><time>2026-04-04T17:11:36.965Z</time></trkpt><trkpt lat="40.7405647" lon="14.8894766"><ele>220.0</ele><time>2026-04-04T17:11:37.971Z</time></trkpt><trkpt lat="40.7404344" lon="14.8896115"><ele>220.0</ele><time>2026-04-04T17:11:38.957Z</time></trkpt><trkpt lat="40.7403128" lon="14.8897518"><ele>220.0</ele><time>2026-04-04T17:11:39.964Z</time></trkpt><trkpt lat="40.7402029" lon="14.8898888"><ele>220.0</ele><time>2026-04-04T17:11:40.975Z</time></trkpt><trkpt lat="40.7400998" lon="14.8900068"><ele>220.0</ele><time>2026-04-04T17:11:41.965Z</time></trkpt><trkpt lat="40.7399897" lon="14.8901101"><ele>219.0</ele><time>2026-04-04T17:11:43.056Z</time></trkpt><trkpt lat="40.739871" lon="14.8901973"><ele>218.0</ele><time>2026-04-04T17:11:44.029Z</time></trkpt><trkpt lat="40.7397476" lon="14.8902745"><ele>217.0</ele><time>2026-04-04T17:11:45.026Z</time></trkpt><trkpt lat="40.7396177" lon="14.8903374"><ele>216.0</ele><time>2026-04-04T17:11:46.045Z</time></trkpt><trkpt lat="40.7394755" lon="14.8903918"><ele>215.75</ele><time>2026-04-04T17:11:46.966Z</time></trkpt><trkpt lat="40.7393442" lon="14.8904548"><ele>215.5</ele><time>2026-04-04T17:11:47.965Z</time></trkpt><trkpt lat="40.7392055" lon="14.8905345"><ele>215.25</ele><time>2026-04-04T17:11:48.969Z</time></trkpt><trkpt lat="40.7390654" lon="14.8906149"><ele>215.0</ele><time>2026-04-04T17:11:49.967Z</time></trkpt><trkpt lat="40.7389399" lon="14.8906894"><ele>215.0</ele><time>2026-04-04T17:11:50.973Z</time></trkpt><trkpt lat="40.7388235" lon="14.8907697"><ele>215.0</ele><time>2026-04-04T17:11:51.966Z</time></trkpt><trkpt lat="40.7387232" lon="14.8908702"><ele>215.0</ele><time>2026-04-04T17:11:52.965Z</time></trkpt><trkpt lat="40.7386304" lon="14.8909887"><ele>215.0</ele><time>2026-04-04T17:11:53.964Z</time></trkpt><trkpt lat="40.738532" lon="14.8910868"><ele>213.75</ele><time>2026-04-04T17:11:54.978Z</time></trkpt><trkpt lat="40.7384499" lon="14.8911677"><ele>212.5</ele><time>2026-04-04T17:11:55.967Z</time></trkpt><trkpt lat="40.7383696" lon="14.8912407"><ele>211.25</ele><time>2026-04-04T17:11:56.977Z</time></trkpt><trkpt lat="40.7382524" lon="14.8912682"><ele>210.0</ele><time>2026-04-04T17:11:57.976Z</time></trkpt><trkpt lat="40.738093" lon="14.8912738"><ele>210.0</ele><time>2026-04-04T17:11:58.948Z</time></trkpt><trkpt lat="40.7379369" lon="14.8912715"><ele>210.0</ele><time>2026-04-04T17:12:00.019Z</time></trkpt><trkpt lat="40.7377691" lon="14.89123"><ele>210.0</ele><time>2026-04-04T17:12:01.023Z</time></trkpt><trkpt lat="40.7376047" lon="14.8911741"><ele>209.66666666666669</ele><time>2026-04-04T17:12:01.969Z</time></trkpt><trkpt lat="40.7374398" lon="14.8911064"><ele>209.33333333333334</ele><time>2026-04-04T17:12:02.966Z</time></trkpt><trkpt lat="40.7372818" lon="14.8910387"><ele>209.0</ele><time>2026-04-04T17:12:04.021Z</time></trkpt><trkpt lat="40.7371264" lon="14.8909695"><ele>210.0</ele><time>2026-04-04T17:12:05.033Z</time></trkpt><trkpt lat="40.7369837" lon="14.890906"><ele>211.0</ele><time>2026-04-04T17:12:06.026Z</time></trkpt><trkpt lat="40.7368398" lon="14.890844"><ele>212.0</ele><time>2026-04-04T17:12:06.967Z</time></trkpt><trkpt lat="40.7366871" lon="14.8908022"><ele>212.0</ele><time>2026-04-04T17:12:07.97Z</time></trkpt><trkpt lat="40.7365267" lon="14.8907663"><ele>212.0</ele><time>2026-04-04T17:12:08.994Z</time></trkpt><trkpt lat="40.7363743" lon="14.8907259"><ele>212.0</ele><time>2026-04-04T17:12:10.029Z</time></trkpt><trkpt lat="40.7362232" lon="14.8906858"><ele>212.0</ele><time>2026-04-04T17:12:11.033Z</time></trkpt><trkpt lat="40.7360793" lon="14.8906501"><ele>212.0</ele><time>2026-04-04T17:12:11.963Z</time></trkpt><trkpt lat="40.7359497" lon="14.8906365"><ele>212.0</ele><time>2026-04-04T17:12:12.969Z</time></trkpt><trkpt lat="40.7358069" lon="14.8906582"><ele>212.0</ele><time>2026-04-04T17:12:13.968Z</time></trkpt><trkpt lat="40.7356564" lon="14.8906875"><ele>210.25</ele><time>2026-04-04T17:12:14.971Z</time></trkpt><trkpt lat="40.7355149" lon="14.8907161"><ele>208.5</ele><time>2026-04-04T17:12:15.953Z</time></trkpt><trkpt lat="40.735381" lon="14.8907404"><ele>206.75</ele><time>2026-04-04T17:12:16.964Z</time></trkpt><trkpt lat="40.7352595" lon="14.8907675"><ele>205.0</ele><time>2026-04-04T17:12:17.966Z</time></trkpt><trkpt lat="40.7351489" lon="14.8908059"><ele>204.33333333333331</ele><time>2026-04-04T17:12:18.965Z</time></trkpt><trkpt lat="40.7350537" lon="14.8908547"><ele>203.66666666666666</ele><time>2026-04-04T17:12:19.97Z</time></trkpt><trkpt lat="40.7349775" lon="14.8909042"><ele>203.0</ele><time>2026-04-04T17:12:20.958Z</time></trkpt><trkpt lat="40.7349102" lon="14.89097"><ele>202.33333333333331</ele><time>2026-04-04T17:12:21.964Z</time></trkpt><trkpt lat="40.734858" lon="14.8910401"><ele>201.66666666666666</ele><time>2026-04-04T17:12:22.963Z</time></trkpt><trkpt lat="40.7348132" lon="14.8911205"><ele>201.0</ele><time>2026-04-04T17:12:23.96Z</time></trkpt><trkpt lat="40.7347613" lon="14.8911779"><ele>201.0</ele><time>2026-04-04T17:12:24.97Z</time></trkpt><trkpt lat="40.7346917" lon="14.8912132"><ele>201.0</ele><time>2026-04-04T17:12:25.968Z</time></trkpt><trkpt lat="40.7345939" lon="14.8912297"><ele>201.0</ele><time>2026-04-04T17:12:26.959Z</time></trkpt><trkpt lat="40.7344908" lon="14.891209"><ele>201.0</ele><time>2026-04-04T17:12:27.949Z</time></trkpt><trkpt lat="40.7343884" lon="14.8911794"><ele>201.0</ele><time>2026-04-04T17:12:28.975Z</time></trkpt><trkpt lat="40.7342817" lon="14.8911447"><ele>201.60000000000002</ele><time>2026-04-04T17:12:29.953Z</time></trkpt><trkpt lat="40.7341756" lon="14.8911147"><ele>202.2</ele><time>2026-04-04T17:12:30.958Z</time></trkpt><trkpt lat="40.7340697" lon="14.8910857"><ele>202.8</ele><time>2026-04-04T17:12:31.976Z</time></trkpt><trkpt lat="40.7339682" lon="14.8910329"><ele>203.39999999999998</ele><time>2026-04-04T17:12:32.965Z</time></trkpt><trkpt lat="40.7338665" lon="14.8909557"><ele>204.0</ele><time>2026-04-04T17:12:33.974Z</time></trkpt><trkpt lat="40.7337697" lon="14.8908625"><ele>202.6</ele><time>2026-04-04T17:12:34.957Z</time></trkpt><trkpt lat="40.7336907" lon="14.8907631"><ele>201.2</ele><time>2026-04-04T17:12:35.961Z</time></trkpt><trkpt lat="40.7336296" lon="14.8906519"><ele>199.79999999999998</ele><time>2026-04-04T17:12:36.956Z</time></trkpt><trkpt lat="40.733566" lon="14.8905255"><ele>198.39999999999998</ele><time>2026-04-04T17:12:37.97Z</time></trkpt><trkpt lat="40.7334861" lon="14.8904352"><ele>197.0</ele><time>2026-04-04T17:12:38.96Z</time></trkpt><trkpt lat="40.7333813" lon="14.8903705"><ele>196.66666666666669</ele><time>2026-04-04T17:12:39.956Z</time></trkpt><trkpt lat="40.7332851" lon="14.8903221"><ele>196.33333333333334</ele><time>2026-04-04T17:12:40.96Z</time></trkpt><trkpt lat="40.7332002" lon="14.8903058"><ele>196.0</ele><time>2026-04-04T17:12:41.975Z</time></trkpt><trkpt lat="40.7331156" lon="14.8902853"><ele>195.66666666666669</ele><time>2026-04-04T17:12:42.968Z</time></trkpt><trkpt lat="40.7330342" lon="14.8902693"><ele>195.33333333333334</ele><time>2026-04-04T17:12:43.956Z</time></trkpt><trkpt lat="40.7329554" lon="14.8902651"><ele>195.0</ele><time>2026-04-04T17:12:44.942Z</time></trkpt><trkpt lat="40.7328749" lon="14.8902637"><ele>195.0</ele><time>2026-04-04T17:12:45.944Z</time></trkpt><trkpt lat="40.7327799" lon="14.8902799"><ele>195.0</ele><time>2026-04-04T17:12:46.952Z</time></trkpt><trkpt lat="40.73268" lon="14.8903023"><ele>195.0</ele><time>2026-04-04T17:12:47.955Z</time></trkpt><trkpt lat="40.7325902" lon="14.8903374"><ele>195.0</ele><time>2026-04-04T17:12:48.947Z</time></trkpt><trkpt lat="40.7325018" lon="14.8903721"><ele>195.0</ele><time>2026-04-04T17:12:49.965Z</time></trkpt><trkpt lat="40.7323906" lon="14.8904051"><ele>195.0</ele><time>2026-04-04T17:12:50.962Z</time></trkpt><trkpt lat="40.7322733" lon="14.8904302"><ele>195.0</ele><time>2026-04-04T17:12:51.959Z</time></trkpt><trkpt lat="40.7321504" lon="14.8904642"><ele>195.0</ele><time>2026-04-04T17:12:52.95Z</time></trkpt><trkpt lat="40.7320217" lon="14.8905021"><ele>195.0</ele><time>2026-04-04T17:12:53.958Z</time></trkpt><trkpt lat="40.7318957" lon="14.8905403"><ele>193.75</ele><time>2026-04-04T17:12:54.962Z</time></trkpt><trkpt lat="40.7317739" lon="14.8905755"><ele>192.5</ele><time>2026-04-04T17:12:55.963Z</time></trkpt><trkpt lat="40.7316555" lon="14.8905985"><ele>191.25</ele><time>2026-04-04T17:12:56.972Z</time></trkpt><trkpt lat="40.7315505" lon="14.890595"><ele>190.0</ele><time>2026-04-04T17:12:57.95Z</time></trkpt><trkpt lat="40.7314399" lon="14.8905739"><ele>190.0</ele><time>2026-04-04T17:12:58.953Z</time></trkpt><trkpt lat="40.7313214" lon="14.8905075"><ele>190.0</ele><time>2026-04-04T17:12:59.958Z</time></trkpt><trkpt lat="40.7312136" lon="14.890417"><ele>190.0</ele><time>2026-04-04T17:13:00.964Z</time></trkpt><trkpt lat="40.7311141" lon="14.8903153"><ele>190.0</ele><time>2026-04-04T17:13:01.965Z</time></trkpt><trkpt lat="40.7310078" lon="14.8902194"><ele>190.0</ele><time>2026-04-04T17:13:02.969Z</time></trkpt><trkpt lat="40.7309053" lon="14.8901386"><ele>190.0</ele><time>2026-04-04T17:13:03.97Z</time></trkpt><trkpt lat="40.7307953" lon="14.8900636"><ele>190.0</ele><time>2026-04-04T17:13:04.964Z</time></trkpt><trkpt lat="40.730689" lon="14.8900098"><ele>190.0</ele><time>2026-04-04T17:13:05.971Z</time></trkpt><trkpt lat="40.7305894" lon="14.8899856"><ele>190.0</ele><time>2026-04-04T17:13:06.974Z</time></trkpt><trkpt lat="40.7304907" lon="14.8899984"><ele>190.0</ele><time>2026-04-04T17:13:07.97Z</time></trkpt><trkpt lat="40.7304011" lon="14.8900435"><ele>190.0</ele><time>2026-04-04T17:13:08.966Z</time></trkpt><trkpt lat="40.7303048" lon="14.8901181"><ele>190.0</ele><time>2026-04-04T17:13:09.967Z</time></trkpt><trkpt lat="40.7302053" lon="14.8901944"><ele>190.0</ele><time>2026-04-04T17:13:10.967Z</time></trkpt><trkpt lat="40.7301081" lon="14.8902775"><ele>188.6</ele><time>2026-04-04T17:13:11.96Z</time></trkpt><trkpt lat="40.7300095" lon="14.890363"><ele>187.2</ele><time>2026-04-04T17:13:12.973Z</time></trkpt><trkpt lat="40.72993" lon="14.8904493"><ele>185.8</ele><time>2026-04-04T17:13:14.041Z</time></trkpt><trkpt lat="40.7298585" lon="14.890542"><ele>184.4</ele><time>2026-04-04T17:13:15.03Z</time></trkpt><trkpt lat="40.7297932" lon="14.890648"><ele>183.0</ele><time>2026-04-04T17:13:15.959Z</time></trkpt><trkpt lat="40.7297259" lon="14.890762"><ele>183.0</ele><time>2026-04-04T17:13:16.956Z</time></trkpt><trkpt lat="40.7296786" lon="14.8908749"><ele>183.0</ele><time>2026-04-04T17:13:17.961Z</time></trkpt><trkpt lat="40.729655" lon="14.8909848"><ele>183.0</ele><time>2026-04-04T17:13:19.011Z</time></trkpt><trkpt lat="40.7296261" lon="14.8910835"><ele>183.0</ele><time>2026-04-04T17:13:19.961Z</time></trkpt><trkpt lat="40.7296088" lon="14.8911674"><ele>183.0</ele><time>2026-04-04T17:13:20.961Z</time></trkpt><trkpt lat="40.7295786" lon="14.8912992"><ele>183.0</ele><time>2026-04-04T17:13:22.973Z</time></trkpt><trkpt lat="40.7294694" lon="14.8913136"><ele>182.71428571428572</ele><time>2026-04-04T17:13:25.031Z</time></trkpt><trkpt lat="40.7294001" lon="14.8913126"><ele>182.42857142857144</ele><time>2026-04-04T17:13:25.954Z</time></trkpt><trkpt lat="40.7293309" lon="14.8913101"><ele>182.14285714285714</ele><time>2026-04-04T17:13:26.954Z</time></trkpt><trkpt lat="40.7292592" lon="14.891317"><ele>181.85714285714286</ele><time>2026-04-04T17:13:27.962Z</time></trkpt><trkpt lat="40.7291893" lon="14.8913236"><ele>181.57142857142856</ele><time>2026-04-04T17:13:28.954Z</time></trkpt><trkpt lat="40.7291147" lon="14.8913431"><ele>181.28571428571428</ele><time>2026-04-04T17:13:29.957Z</time></trkpt><trkpt lat="40.7290423" lon="14.8913559"><ele>181.0</ele><time>2026-04-04T17:13:30.962Z</time></trkpt><trkpt lat="40.7289791" lon="14.8913592"><ele>181.0</ele><time>2026-04-04T17:13:31.961Z</time></trkpt><trkpt lat="40.7289085" lon="14.8913691"><ele>181.0</ele><time>2026-04-04T17:13:33.04Z</time></trkpt><trkpt lat="40.7288382" lon="14.8913793"><ele>181.0</ele><time>2026-04-04T17:13:34.044Z</time></trkpt><trkpt lat="40.7287721" lon="14.8913893"><ele>181.0</ele><time>2026-04-04T17:13:35.036Z</time></trkpt><trkpt lat="40.7287081" lon="14.8913836"><ele>181.0</ele><time>2026-04-04T17:13:36.041Z</time></trkpt><trkpt lat="40.728592" lon="14.8913764"><ele>181.0</ele><time>2026-04-04T17:13:37.955Z</time></trkpt><trkpt lat="40.7285233" lon="14.891397"><ele>180.83333333333334</ele><time>2026-04-04T17:13:38.962Z</time></trkpt><trkpt lat="40.7284406" lon="14.8914197"><ele>180.66666666666669</ele><time>2026-04-04T17:13:40.031Z</time></trkpt><trkpt lat="40.7283721" lon="14.8914317"><ele>180.5</ele><time>2026-04-04T17:13:41.032Z</time></trkpt><trkpt lat="40.7282999" lon="14.8914259"><ele>180.33333333333334</ele><time>2026-04-04T17:13:41.961Z</time></trkpt><trkpt lat="40.728214" lon="14.89141"><ele>180.16666666666666</ele><time>2026-04-04T17:13:42.965Z</time></trkpt><trkpt lat="40.7281239" lon="14.8914025"><ele>180.0</ele><time>2026-04-04T17:13:43.966Z</time></trkpt><trkpt lat="40.7280377" lon="14.8914167"><ele>180.0</ele><time>2026-04-04T17:13:45.031Z</time></trkpt><trkpt lat="40.7279547" lon="14.8914465"><ele>180.0</ele><time>2026-04-04T17:13:46.033Z</time></trkpt><trkpt lat="40.7278858" lon="14.8914852"><ele>180.0</ele><time>2026-04-04T17:13:46.955Z</time></trkpt><trkpt lat="40.727801" lon="14.8915128"><ele>180.0</ele><time>2026-04-04T17:13:48.025Z</time></trkpt><trkpt lat="40.7277159" lon="14.8915447"><ele>180.0</ele><time>2026-04-04T17:13:49.02Z</time></trkpt><trkpt lat="40.727628" lon="14.8915786"><ele>180.0</ele><time>2026-04-04T17:13:50.016Z</time></trkpt><trkpt lat="40.727529" lon="14.8916412"><ele>179.25</ele><time>2026-04-04T17:13:51Z</time></trkpt><trkpt lat="40.7274194" lon="14.8917118"><ele>178.5</ele><time>2026-04-04T17:13:51.961Z</time></trkpt><trkpt lat="40.7273171" lon="14.8917745"><ele>177.75</ele><time>2026-04-04T17:13:52.953Z</time></trkpt><trkpt lat="40.7272144" lon="14.8918392"><ele>177.0</ele><time>2026-04-04T17:13:54.05Z</time></trkpt><trkpt lat="40.7271156" lon="14.8919016"><ele>176.2</ele><time>2026-04-04T17:13:54.969Z</time></trkpt><trkpt lat="40.727021" lon="14.8919653"><ele>175.39999999999998</ele><time>2026-04-04T17:13:56.038Z</time></trkpt><trkpt lat="40.7269408" lon="14.8920267"><ele>174.60000000000002</ele><time>2026-04-04T17:13:56.969Z</time></trkpt><trkpt lat="40.7268589" lon="14.8920891"><ele>173.8</ele><time>2026-04-04T17:13:57.976Z</time></trkpt><trkpt lat="40.7267741" lon="14.8921505"><ele>173.0</ele><time>2026-04-04T17:13:58.97Z</time></trkpt><trkpt lat="40.726696" lon="14.8922044"><ele>172.83333333333331</ele><time>2026-04-04T17:13:59.977Z</time></trkpt><trkpt lat="40.7266226" lon="14.8922666"><ele>172.66666666666666</ele><time>2026-04-04T17:14:00.963Z</time></trkpt><trkpt lat="40.7265523" lon="14.8923119"><ele>172.5</ele><time>2026-04-04T17:14:01.973Z</time></trkpt><trkpt lat="40.726491" lon="14.8923494"><ele>172.33333333333334</ele><time>2026-04-04T17:14:02.968Z</time></trkpt><trkpt lat="40.7264283" lon="14.8923839"><ele>172.16666666666669</ele><time>2026-04-04T17:14:03.971Z</time></trkpt><trkpt lat="40.7263209" lon="14.8924249"><ele>172.0</ele><time>2026-04-04T17:14:06.036Z</time></trkpt><trkpt lat="40.7262562" lon="14.8924182"><ele>172.0</ele><time>2026-04-04T17:14:08.972Z</time></trkpt><trkpt lat="40.7261516" lon="14.8924228"><ele>172.0</ele><time>2026-04-04T17:14:15.98Z</time></trkpt><trkpt lat="40.7260832" lon="14.8924072"><ele>172.0</ele><time>2026-04-04T17:14:16.965Z</time></trkpt><trkpt lat="40.7259909" lon="14.89236"><ele>172.0</ele><time>2026-04-04T17:14:17.96Z</time></trkpt><trkpt lat="40.7258826" lon="14.8922953"><ele>172.0</ele><time>2026-04-04T17:14:18.966Z</time></trkpt><trkpt lat="40.725765" lon="14.8922272"><ele>172.0</ele><time>2026-04-04T17:14:19.969Z</time></trkpt><trkpt lat="40.7256413" lon="14.8921448"><ele>172.0</ele><time>2026-04-04T17:14:20.974Z</time></trkpt><trkpt lat="40.7255085" lon="14.892063"><ele>172.0</ele><time>2026-04-04T17:14:21.972Z</time></trkpt><trkpt lat="40.7253824" lon="14.8919752"><ele>172.0</ele><time>2026-04-04T17:14:22.982Z</time></trkpt><trkpt lat="40.7252567" lon="14.8918872"><ele>171.5</ele><time>2026-04-04T17:14:23.966Z</time></trkpt><trkpt lat="40.7251239" lon="14.8918064"><ele>171.0</ele><time>2026-04-04T17:14:25.008Z</time></trkpt><trkpt lat="40.7249926" lon="14.8917306"><ele>170.5</ele><time>2026-04-04T17:14:25.966Z</time></trkpt><trkpt lat="40.7248666" lon="14.8916452"><ele>170.0</ele><time>2026-04-04T17:14:26.964Z</time></trkpt><trkpt lat="40.7247393" lon="14.8915553"><ele>171.0</ele><time>2026-04-04T17:14:27.97Z</time></trkpt><trkpt lat="40.7246155" lon="14.8914684"><ele>172.0</ele><time>2026-04-04T17:14:28.965Z</time></trkpt><trkpt lat="40.7244966" lon="14.8913908"><ele>173.0</ele><time>2026-04-04T17:14:29.974Z</time></trkpt><trkpt lat="40.7243714" lon="14.8913154"><ele>174.0</ele><time>2026-04-04T17:14:30.974Z</time></trkpt><trkpt lat="40.7242488" lon="14.8912338"><ele>174.25</ele><time>2026-04-04T17:14:31.973Z</time></trkpt><trkpt lat="40.7241235" lon="14.8911483"><ele>174.5</ele><time>2026-04-04T17:14:32.971Z</time></trkpt><trkpt lat="40.723991" lon="14.8910607"><ele>174.75</ele><time>2026-04-04T17:14:33.972Z</time></trkpt><trkpt lat="40.7238615" lon="14.8909772"><ele>175.0</ele><time>2026-04-04T17:14:34.976Z</time></trkpt><trkpt lat="40.7237374" lon="14.8908944"><ele>176.5</ele><time>2026-04-04T17:14:35.968Z</time></trkpt><trkpt lat="40.7236062" lon="14.8908063"><ele>178.0</ele><time>2026-04-04T17:14:36.974Z</time></trkpt><trkpt lat="40.7234739" lon="14.890717"><ele>179.5</ele><time>2026-04-04T17:14:37.978Z</time></trkpt><trkpt lat="40.7233394" lon="14.8906248"><ele>181.0</ele><time>2026-04-04T17:14:38.979Z</time></trkpt><trkpt lat="40.7232028" lon="14.8905306"><ele>181.0</ele><time>2026-04-04T17:14:39.977Z</time></trkpt><trkpt lat="40.7230679" lon="14.890434"><ele>181.0</ele><time>2026-04-04T17:14:40.986Z</time></trkpt><trkpt lat="40.7229312" lon="14.8903328"><ele>181.0</ele><time>2026-04-04T17:14:41.96Z</time></trkpt><trkpt lat="40.7228037" lon="14.8902301"><ele>181.33333333333334</ele><time>2026-04-04T17:14:42.96Z</time></trkpt><trkpt lat="40.7226789" lon="14.8901233"><ele>181.66666666666666</ele><time>2026-04-04T17:14:43.967Z</time></trkpt><trkpt lat="40.7225577" lon="14.8899978"><ele>182.0</ele><time>2026-04-04T17:14:44.965Z</time></trkpt><trkpt lat="40.7224393" lon="14.8898675"><ele>184.0</ele><time>2026-04-04T17:14:45.974Z</time></trkpt><trkpt lat="40.7223322" lon="14.8897322"><ele>186.0</ele><time>2026-04-04T17:14:46.967Z</time></trkpt><trkpt lat="40.7222337" lon="14.8895928"><ele>188.0</ele><time>2026-04-04T17:14:47.958Z</time></trkpt><trkpt lat="40.7221448" lon="14.8894659"><ele>190.0</ele><time>2026-04-04T17:14:48.969Z</time></trkpt><trkpt lat="40.7220664" lon="14.8893582"><ele>190.0</ele><time>2026-04-04T17:14:49.966Z</time></trkpt><trkpt lat="40.7219882" lon="14.8892807"><ele>190.0</ele><time>2026-04-04T17:14:50.971Z</time></trkpt><trkpt lat="40.7219065" lon="14.8892342"><ele>190.0</ele><time>2026-04-04T17:14:51.973Z</time></trkpt><trkpt lat="40.721825" lon="14.8892371"><ele>190.0</ele><time>2026-04-04T17:14:52.97Z</time></trkpt><trkpt lat="40.7217326" lon="14.889286"><ele>190.0</ele><time>2026-04-04T17:14:53.954Z</time></trkpt><trkpt lat="40.7216374" lon="14.889377"><ele>189.4</ele><time>2026-04-04T17:14:54.964Z</time></trkpt><trkpt lat="40.7215707" lon="14.8894798"><ele>188.8</ele><time>2026-04-04T17:14:55.956Z</time></trkpt><trkpt lat="40.721521" lon="14.8896103"><ele>188.2</ele><time>2026-04-04T17:14:56.967Z</time></trkpt><trkpt lat="40.721485" lon="14.8897296"><ele>187.6</ele><time>2026-04-04T17:14:57.968Z</time></trkpt><trkpt lat="40.7214494" lon="14.8898208"><ele>187.0</ele><time>2026-04-04T17:14:58.966Z</time></trkpt><trkpt lat="40.7213771" lon="14.8897137"><ele>187.0</ele><time>2026-04-04T17:15:01.962Z</time></trkpt><trkpt lat="40.7213735" lon="14.8896229"><ele>187.0</ele><time>2026-04-04T17:15:02.958Z</time></trkpt><trkpt lat="40.7213954" lon="14.8895049"><ele>187.0</ele><time>2026-04-04T17:15:03.963Z</time></trkpt><trkpt lat="40.7214247" lon="14.889373"><ele>187.0</ele><time>2026-04-04T17:15:04.96Z</time></trkpt><trkpt lat="40.7214591" lon="14.8892355"><ele>187.0</ele><time>2026-04-04T17:15:05.971Z</time></trkpt><trkpt lat="40.7214815" lon="14.8891056"><ele>188.8</ele><time>2026-04-04T17:15:06.967Z</time></trkpt><trkpt lat="40.7214806" lon="14.8889795"><ele>190.6</ele><time>2026-04-04T17:15:07.971Z</time></trkpt><trkpt lat="40.7214287" lon="14.8888796"><ele>192.4</ele><time>2026-04-04T17:15:08.975Z</time></trkpt><trkpt lat="40.7213412" lon="14.8888333"><ele>194.20000000000002</ele><time>2026-04-04T17:15:09.964Z</time></trkpt><trkpt lat="40.7212332" lon="14.8888478"><ele>196.0</ele><time>2026-04-04T17:15:10.967Z</time></trkpt><trkpt lat="40.7211084" lon="14.8888692"><ele>197.33333333333331</ele><time>2026-04-04T17:15:11.964Z</time></trkpt><trkpt lat="40.7209621" lon="14.8888816"><ele>198.66666666666669</ele><time>2026-04-04T17:15:12.979Z</time></trkpt><trkpt lat="40.7207959" lon="14.8888931"><ele>200.0</ele><time>2026-04-04T17:15:13.965Z</time></trkpt><trkpt lat="40.7206411" lon="14.8889218"><ele>200.0</ele><time>2026-04-04T17:15:14.962Z</time></trkpt><trkpt lat="40.7205136" lon="14.8889478"><ele>200.0</ele><time>2026-04-04T17:15:15.968Z</time></trkpt><trkpt lat="40.720421" lon="14.8889375"><ele>200.0</ele><time>2026-04-04T17:15:16.959Z</time></trkpt><trkpt lat="40.7203473" lon="14.8888157"><ele>200.0</ele><time>2026-04-04T17:15:18.962Z</time></trkpt><trkpt lat="40.7203475" lon="14.8887214"><ele>200.0</ele><time>2026-04-04T17:15:19.952Z</time></trkpt><trkpt lat="40.7203784" lon="14.8886217"><ele>200.0</ele><time>2026-04-04T17:15:20.965Z</time></trkpt><trkpt lat="40.7204327" lon="14.8885247"><ele>200.0</ele><time>2026-04-04T17:15:21.96Z</time></trkpt><trkpt lat="40.7204902" lon="14.8884141"><ele>200.0</ele><time>2026-04-04T17:15:22.967Z</time></trkpt><trkpt lat="40.7205294" lon="14.8882771"><ele>200.0</ele><time>2026-04-04T17:15:23.968Z</time></trkpt><trkpt lat="40.7205483" lon="14.8881177"><ele>200.0</ele><time>2026-04-04T17:15:24.973Z</time></trkpt><trkpt lat="40.7205877" lon="14.8879604"><ele>202.75</ele><time>2026-04-04T17:15:25.977Z</time></trkpt><trkpt lat="40.720648" lon="14.887843"><ele>205.5</ele><time>2026-04-04T17:15:26.965Z</time></trkpt><trkpt lat="40.7207348" lon="14.8877544"><ele>208.25</ele><time>2026-04-04T17:15:27.971Z</time></trkpt><trkpt lat="40.7208441" lon="14.8877108"><ele>211.0</ele><time>2026-04-04T17:15:28.961Z</time></trkpt><trkpt lat="40.7209701" lon="14.8876864"><ele>211.0</ele><time>2026-04-04T17:15:29.965Z</time></trkpt><trkpt lat="40.7211088" lon="14.8876848"><ele>211.0</ele><time>2026-04-04T17:15:30.962Z</time></trkpt><trkpt lat="40.7212567" lon="14.8876821"><ele>211.0</ele><time>2026-04-04T17:15:31.964Z</time></trkpt><trkpt lat="40.7214022" lon="14.8876841"><ele>211.0</ele><time>2026-04-04T17:15:32.966Z</time></trkpt><trkpt lat="40.7215325" lon="14.8877191"><ele>211.0</ele><time>2026-04-04T17:15:33.955Z</time></trkpt><trkpt lat="40.7216435" lon="14.8877676"><ele>211.0</ele><time>2026-04-04T17:15:34.965Z</time></trkpt><trkpt lat="40.7217387" lon="14.8878001"><ele>211.0</ele><time>2026-04-04T17:15:35.965Z</time></trkpt><trkpt lat="40.7218193" lon="14.8877926"><ele>211.0</ele><time>2026-04-04T17:15:36.968Z</time></trkpt><trkpt lat="40.7218908" lon="14.8877042"><ele>211.0</ele><time>2026-04-04T17:15:37.966Z</time></trkpt><trkpt lat="40.7219565" lon="14.8875619"><ele>215.0</ele><time>2026-04-04T17:15:38.948Z</time></trkpt><trkpt lat="40.7220264" lon="14.8874389"><ele>219.0</ele><time>2026-04-04T17:15:39.969Z</time></trkpt><trkpt lat="40.7220764" lon="14.8873348"><ele>223.00000000000003</ele><time>2026-04-04T17:15:40.972Z</time></trkpt><trkpt lat="40.7220896" lon="14.8872483"><ele>227.0</ele><time>2026-04-04T17:15:41.973Z</time></trkpt><trkpt lat="40.7219964" lon="14.887162"><ele>231.0</ele><time>2026-04-04T17:15:43.968Z</time></trkpt><trkpt lat="40.7219275" lon="14.8872023"><ele>230.8</ele><time>2026-04-04T17:15:44.966Z</time></trkpt><trkpt lat="40.7218515" lon="14.8872632"><ele>230.60000000000002</ele><time>2026-04-04T17:15:45.965Z</time></trkpt><trkpt lat="40.7217745" lon="14.8872887"><ele>230.4</ele><time>2026-04-04T17:15:46.979Z</time></trkpt><trkpt lat="40.7216836" lon="14.8872354"><ele>230.2</ele><time>2026-04-04T17:15:47.967Z</time></trkpt><trkpt lat="40.7215811" lon="14.8871412"><ele>230.0</ele><time>2026-04-04T17:15:48.971Z</time></trkpt><trkpt lat="40.7214889" lon="14.8870432"><ele>230.0</ele><time>2026-04-04T17:15:49.975Z</time></trkpt><trkpt lat="40.721416" lon="14.8869295"><ele>230.0</ele><time>2026-04-04T17:15:50.964Z</time></trkpt><trkpt lat="40.7213499" lon="14.8867976"><ele>230.0</ele><time>2026-04-04T17:15:51.941Z</time></trkpt><trkpt lat="40.7213078" lon="14.8866752"><ele>230.0</ele><time>2026-04-04T17:15:52.944Z</time></trkpt><trkpt lat="40.7212706" lon="14.8865227"><ele>233.25</ele><time>2026-04-04T17:15:53.944Z</time></trkpt><trkpt lat="40.7212342" lon="14.886346"><ele>236.5</ele><time>2026-04-04T17:15:54.945Z</time></trkpt><trkpt lat="40.7211721" lon="14.8861817"><ele>239.75</ele><time>2026-04-04T17:15:55.943Z</time></trkpt><trkpt lat="40.7210995" lon="14.8860198"><ele>243.0</ele><time>2026-04-04T17:15:56.954Z</time></trkpt><trkpt lat="40.721022" lon="14.8858563"><ele>243.0</ele><time>2026-04-04T17:15:57.957Z</time></trkpt><trkpt lat="40.7209301" lon="14.8856976"><ele>243.0</ele><time>2026-04-04T17:15:58.943Z</time></trkpt><trkpt lat="40.7208215" lon="14.8855245"><ele>243.0</ele><time>2026-04-04T17:15:59.949Z</time></trkpt><trkpt lat="40.7207197" lon="14.8853372"><ele>243.0</ele><time>2026-04-04T17:16:00.941Z</time></trkpt><trkpt lat="40.7206316" lon="14.8851353"><ele>243.0</ele><time>2026-04-04T17:16:01.96Z</time></trkpt><trkpt lat="40.7205594" lon="14.8849219"><ele>243.0</ele><time>2026-04-04T17:16:02.967Z</time></trkpt><trkpt lat="40.7204909" lon="14.8846891"><ele>246.66666666666669</ele><time>2026-04-04T17:16:03.965Z</time></trkpt><trkpt lat="40.7204159" lon="14.8844694"><ele>250.33333333333334</ele><time>2026-04-04T17:16:04.966Z</time></trkpt><trkpt lat="40.72035" lon="14.8842594"><ele>254.0</ele><time>2026-04-04T17:16:05.96Z</time></trkpt><trkpt lat="40.7202907" lon="14.8840578"><ele>251.33333333333334</ele><time>2026-04-04T17:16:06.982Z</time></trkpt><trkpt lat="40.7202412" lon="14.8838762"><ele>248.66666666666669</ele><time>2026-04-04T17:16:07.976Z</time></trkpt><trkpt lat="40.7201964" lon="14.8836844"><ele>246.0</ele><time>2026-04-04T17:16:08.96Z</time></trkpt><trkpt lat="40.7201727" lon="14.8834798"><ele>247.0</ele><time>2026-04-04T17:16:09.968Z</time></trkpt><trkpt lat="40.7201663" lon="14.8832776"><ele>248.0</ele><time>2026-04-04T17:16:10.972Z</time></trkpt><trkpt lat="40.7201513" lon="14.883104"><ele>249.0</ele><time>2026-04-04T17:16:11.961Z</time></trkpt><trkpt lat="40.7201199" lon="14.8829438"><ele>250.0</ele><time>2026-04-04T17:16:12.969Z</time></trkpt><trkpt lat="40.7200899" lon="14.8828199"><ele>250.0</ele><time>2026-04-04T17:16:13.964Z</time></trkpt><trkpt lat="40.7200575" lon="14.8827385"><ele>250.0</ele><time>2026-04-04T17:16:14.974Z</time></trkpt><trkpt lat="40.7199412" lon="14.8826817"><ele>250.0</ele><time>2026-04-04T17:16:16.948Z</time></trkpt><trkpt lat="40.7198257" lon="14.8827154"><ele>250.0</ele><time>2026-04-04T17:16:17.97Z</time></trkpt><trkpt lat="40.7196993" lon="14.8827411"><ele>250.0</ele><time>2026-04-04T17:16:18.972Z</time></trkpt><trkpt lat="40.7195904" lon="14.8827267"><ele>250.0</ele><time>2026-04-04T17:16:19.967Z</time></trkpt><trkpt lat="40.7194856" lon="14.8826582"><ele>250.0</ele><time>2026-04-04T17:16:20.96Z</time></trkpt><trkpt lat="40.7194258" lon="14.8825581"><ele>250.0</ele><time>2026-04-04T17:16:21.966Z</time></trkpt><trkpt lat="40.7193644" lon="14.882451"><ele>250.0</ele><time>2026-04-04T17:16:22.963Z</time></trkpt><trkpt lat="40.7193157" lon="14.8823366"><ele>250.0</ele><time>2026-04-04T17:16:23.97Z</time></trkpt><trkpt lat="40.7192621" lon="14.8822331"><ele>250.66666666666666</ele><time>2026-04-04T17:16:24.972Z</time></trkpt><trkpt lat="40.7192239" lon="14.882128"><ele>251.33333333333331</ele><time>2026-04-04T17:16:25.969Z</time></trkpt><trkpt lat="40.7192372" lon="14.8820334"><ele>252.0</ele><time>2026-04-04T17:16:26.964Z</time></trkpt><trkpt lat="40.7193092" lon="14.8819641"><ele>252.66666666666669</ele><time>2026-04-04T17:16:27.949Z</time></trkpt><trkpt lat="40.7193863" lon="14.8819384"><ele>253.33333333333334</ele><time>2026-04-04T17:16:28.969Z</time></trkpt><trkpt lat="40.7194733" lon="14.8819492"><ele>254.0</ele><time>2026-04-04T17:16:29.976Z</time></trkpt><trkpt lat="40.7195762" lon="14.8819962"><ele>254.25</ele><time>2026-04-04T17:16:30.96Z</time></trkpt><trkpt lat="40.7196872" lon="14.8820405"><ele>254.5</ele><time>2026-04-04T17:16:31.983Z</time></trkpt><trkpt lat="40.7198035" lon="14.8820404"><ele>254.75</ele><time>2026-04-04T17:16:32.971Z</time></trkpt><trkpt lat="40.7199151" lon="14.8819897"><ele>255.0</ele><time>2026-04-04T17:16:33.979Z</time></trkpt><trkpt lat="40.7200108" lon="14.8819085"><ele>255.0</ele><time>2026-04-04T17:16:34.944Z</time></trkpt><trkpt lat="40.7200828" lon="14.8818368"><ele>255.0</ele><time>2026-04-04T17:16:35.974Z</time></trkpt><trkpt lat="40.720122" lon="14.881743"><ele>255.0</ele><time>2026-04-04T17:16:36.965Z</time></trkpt><trkpt lat="40.7201123" lon="14.8816323"><ele>255.0</ele><time>2026-04-04T17:16:37.975Z</time></trkpt><trkpt lat="40.7200397" lon="14.8815559"><ele>255.0</ele><time>2026-04-04T17:16:38.975Z</time></trkpt><trkpt lat="40.7199402" lon="14.8815185"><ele>258.0</ele><time>2026-04-04T17:16:39.958Z</time></trkpt><trkpt lat="40.7198438" lon="14.8814621"><ele>261.0</ele><time>2026-04-04T17:16:40.964Z</time></trkpt><trkpt lat="40.7197819" lon="14.8813435"><ele>264.0</ele><time>2026-04-04T17:16:41.968Z</time></trkpt><trkpt lat="40.7197478" lon="14.8811706"><ele>267.0</ele><time>2026-04-04T17:16:42.966Z</time></trkpt><trkpt lat="40.7197049" lon="14.8809856"><ele>269.75</ele><time>2026-04-04T17:16:43.963Z</time></trkpt><trkpt lat="40.7196529" lon="14.8808021"><ele>272.5</ele><time>2026-04-04T17:16:44.967Z</time></trkpt><trkpt lat="40.7195842" lon="14.8806273"><ele>275.25</ele><time>2026-04-04T17:16:45.953Z</time></trkpt><trkpt lat="40.7195191" lon="14.8804695"><ele>278.0</ele><time>2026-04-04T17:16:46.97Z</time></trkpt><trkpt lat="40.7194687" lon="14.8803391"><ele>278.0</ele><time>2026-04-04T17:16:47.978Z</time></trkpt><trkpt lat="40.7194309" lon="14.8802425"><ele>278.0</ele><time>2026-04-04T17:16:48.972Z</time></trkpt><trkpt lat="40.719416" lon="14.8801505"><ele>278.0</ele><time>2026-04-04T17:16:49.971Z</time></trkpt><trkpt lat="40.7193994" lon="14.8800436"><ele>278.0</ele><time>2026-04-04T17:16:50.976Z</time></trkpt><trkpt lat="40.7193856" lon="14.8798965"><ele>278.0</ele><time>2026-04-04T17:16:51.968Z</time></trkpt><trkpt lat="40.71936" lon="14.8797128"><ele>277.5</ele><time>2026-04-04T17:16:52.946Z</time></trkpt><trkpt lat="40.7193037" lon="14.8795293"><ele>277.0</ele><time>2026-04-04T17:16:53.963Z</time></trkpt><trkpt lat="40.7192404" lon="14.8793729"><ele>276.5</ele><time>2026-04-04T17:16:54.976Z</time></trkpt><trkpt lat="40.7191823" lon="14.8792285"><ele>276.0</ele><time>2026-04-04T17:16:55.981Z</time></trkpt><trkpt lat="40.7191587" lon="14.8790991"><ele>278.2</ele><time>2026-04-04T17:16:56.97Z</time></trkpt><trkpt lat="40.7191614" lon="14.8789684"><ele>280.40000000000003</ele><time>2026-04-04T17:16:57.97Z</time></trkpt><trkpt lat="40.7191849" lon="14.8788405"><ele>282.6</ele><time>2026-04-04T17:16:58.973Z</time></trkpt><trkpt lat="40.7192347" lon="14.8787125"><ele>284.8</ele><time>2026-04-04T17:16:59.969Z</time></trkpt><trkpt lat="40.7192818" lon="14.8785768"><ele>287.0</ele><time>2026-04-04T17:17:00.981Z</time></trkpt><trkpt lat="40.7193273" lon="14.8784459"><ele>288.8</ele><time>2026-04-04T17:17:01.986Z</time></trkpt><trkpt lat="40.7193525" lon="14.8783174"><ele>290.6</ele><time>2026-04-04T17:17:02.966Z</time></trkpt><trkpt lat="40.7193486" lon="14.8781849"><ele>292.40000000000003</ele><time>2026-04-04T17:17:03.965Z</time></trkpt><trkpt lat="40.719339" lon="14.8780597"><ele>294.2</ele><time>2026-04-04T17:17:04.965Z</time></trkpt><trkpt lat="40.7193835" lon="14.8779293"><ele>296.0</ele><time>2026-04-04T17:17:06.966Z</time></trkpt><trkpt lat="40.7194748" lon="14.8778899"><ele>296.83333333333337</ele><time>2026-04-04T17:17:07.982Z</time></trkpt><trkpt lat="40.7195609" lon="14.8778453"><ele>297.6666666666667</ele><time>2026-04-04T17:17:08.972Z</time></trkpt><trkpt lat="40.7196325" lon="14.877797"><ele>298.5</ele><time>2026-04-04T17:17:09.973Z</time></trkpt><trkpt lat="40.7197346" lon="14.8777967"><ele>299.3333333333333</ele><time>2026-04-04T17:17:12.983Z</time></trkpt><trkpt lat="40.7197989" lon="14.877783"><ele>300.16666666666663</ele><time>2026-04-04T17:17:13.967Z</time></trkpt><trkpt lat="40.7198673" lon="14.8777417"><ele>301.0</ele><time>2026-04-04T17:17:14.969Z</time></trkpt><trkpt lat="40.7199352" lon="14.8776703"><ele>303.25</ele><time>2026-04-04T17:17:15.969Z</time></trkpt><trkpt lat="40.7200153" lon="14.8775633"><ele>305.5</ele><time>2026-04-04T17:17:16.966Z</time></trkpt><trkpt lat="40.7201012" lon="14.8774481"><ele>307.75</ele><time>2026-04-04T17:17:17.976Z</time></trkpt><trkpt lat="40.720189" lon="14.8773534"><ele>310.0</ele><time>2026-04-04T17:17:18.975Z</time></trkpt><trkpt lat="40.7202806" lon="14.8772885"><ele>311.3333333333333</ele><time>2026-04-04T17:17:19.978Z</time></trkpt><trkpt lat="40.7203532" lon="14.8772564"><ele>312.66666666666663</ele><time>2026-04-04T17:17:20.974Z</time></trkpt><trkpt lat="40.7204211" lon="14.8772459"><ele>314.0</ele><time>2026-04-04T17:17:21.966Z</time></trkpt><trkpt lat="40.720494" lon="14.8772289"><ele>315.3333333333333</ele><time>2026-04-04T17:17:22.969Z</time></trkpt><trkpt lat="40.7205792" lon="14.8771961"><ele>316.6666666666667</ele><time>2026-04-04T17:17:23.976Z</time></trkpt><trkpt lat="40.7206596" lon="14.8771585"><ele>318.0</ele><time>2026-04-04T17:17:24.987Z</time></trkpt><trkpt lat="40.7207425" lon="14.8771217"><ele>318.0</ele><time>2026-04-04T17:17:25.978Z</time></trkpt><trkpt lat="40.7208249" lon="14.8770642"><ele>318.0</ele><time>2026-04-04T17:17:26.972Z</time></trkpt><trkpt lat="40.7209002" lon="14.8769855"><ele>318.0</ele><time>2026-04-04T17:17:27.967Z</time></trkpt><trkpt lat="40.7209714" lon="14.8769047"><ele>318.0</ele><time>2026-04-04T17:17:28.969Z</time></trkpt><trkpt lat="40.7210214" lon="14.8768526"><ele>318.0</ele><time>2026-04-04T17:17:29.97Z</time></trkpt><trkpt lat="40.7210707" lon="14.8767369"><ele>318.0</ele><time>2026-04-04T17:17:31.967Z</time></trkpt><trkpt lat="40.7210975" lon="14.8766516"><ele>320.2</ele><time>2026-04-04T17:17:33.95Z</time></trkpt><trkpt lat="40.7210875" lon="14.8765244"><ele>322.4</ele><time>2026-04-04T17:17:35.968Z</time></trkpt><trkpt lat="40.7210477" lon="14.8764127"><ele>324.59999999999997</ele><time>2026-04-04T17:17:36.974Z</time></trkpt><trkpt lat="40.7209844" lon="14.8763007"><ele>326.8</ele><time>2026-04-04T17:17:37.975Z</time></trkpt><trkpt lat="40.7209069" lon="14.8761965"><ele>329.0</ele><time>2026-04-04T17:17:38.971Z</time></trkpt><trkpt lat="40.7208177" lon="14.8760865"><ele>329.0</ele><time>2026-04-04T17:17:39.95Z</time></trkpt><trkpt lat="40.7207259" lon="14.8759619"><ele>329.0</ele><time>2026-04-04T17:17:40.97Z</time></trkpt><trkpt lat="40.7206524" lon="14.8758015"><ele>329.0</ele><time>2026-04-04T17:17:41.97Z</time></trkpt><trkpt lat="40.7206005" lon="14.8756075"><ele>329.0</ele><time>2026-04-04T17:17:42.967Z</time></trkpt><trkpt lat="40.7205306" lon="14.8754244"><ele>330.75</ele><time>2026-04-04T17:17:43.958Z</time></trkpt><trkpt lat="40.7204628" lon="14.8752507"><ele>332.5</ele><time>2026-04-04T17:17:44.97Z</time></trkpt><trkpt lat="40.720396" lon="14.8750977"><ele>334.25</ele><time>2026-04-04T17:17:45.963Z</time></trkpt><trkpt lat="40.7203442" lon="14.8749777"><ele>336.0</ele><time>2026-04-04T17:17:46.97Z</time></trkpt><trkpt lat="40.7203217" lon="14.874845"><ele>337.8</ele><time>2026-04-04T17:17:47.962Z</time></trkpt><trkpt lat="40.7203286" lon="14.8747023"><ele>339.6</ele><time>2026-04-04T17:17:48.954Z</time></trkpt><trkpt lat="40.7203507" lon="14.8745629"><ele>341.4</ele><time>2026-04-04T17:17:49.968Z</time></trkpt><trkpt lat="40.7203898" lon="14.8744257"><ele>343.2</ele><time>2026-04-04T17:17:50.964Z</time></trkpt><trkpt lat="40.72043" lon="14.8743008"><ele>345.0</ele><time>2026-04-04T17:17:51.967Z</time></trkpt><trkpt lat="40.720488" lon="14.8742006"><ele>346.0</ele><time>2026-04-04T17:17:52.968Z</time></trkpt><trkpt lat="40.7205438" lon="14.8741313"><ele>347.0</ele><time>2026-04-04T17:17:53.97Z</time></trkpt><trkpt lat="40.7205937" lon="14.8740686"><ele>348.0</ele><time>2026-04-04T17:17:54.968Z</time></trkpt><trkpt lat="40.7206601" lon="14.8739606"><ele>349.0</ele><time>2026-04-04T17:17:56.965Z</time></trkpt><trkpt lat="40.7206788" lon="14.8738802"><ele>350.0</ele><time>2026-04-04T17:17:57.963Z</time></trkpt><trkpt lat="40.7206765" lon="14.8737823"><ele>351.0</ele><time>2026-04-04T17:17:58.963Z</time></trkpt><trkpt lat="40.7206594" lon="14.873677"><ele>351.0</ele><time>2026-04-04T17:17:59.963Z</time></trkpt><trkpt lat="40.7206311" lon="14.8735966"><ele>351.0</ele><time>2026-04-04T17:18:00.967Z</time></trkpt><trkpt lat="40.7205816" lon="14.873476"><ele>351.0</ele><time>2026-04-04T17:18:02.972Z</time></trkpt><trkpt lat="40.7206046" lon="14.873392"><ele>351.0</ele><time>2026-04-04T17:18:04.958Z</time></trkpt><trkpt lat="40.7206634" lon="14.8734433"><ele>351.0</ele><time>2026-04-04T17:18:08.961Z</time></trkpt><trkpt lat="40.7206829" lon="14.8735553"><ele>351.0</ele><time>2026-04-04T17:18:25.96Z</time></trkpt><trkpt lat="40.7207255" lon="14.87362"><ele>351.0</ele><time>2026-04-04T17:19:19.973Z</time></trkpt></trkseg></trk></gpx>